<?xml version="1.0" encoding="UTF-8" standalone="no" ?>
<gpx xmlns="http://www.topografix.com/GPX/1/1" xmlns:xsi="http://www.w3.org/2001/XMLSchema-instance" xsi:schemaLocation="http://www.topografix.com/GPX/1/1 http://www.topografix.com/GPX/1/1/gpx.xsd" version="1.1" creator="VisuGPX - https://www.visugpx.com">
  <metadata>
    <name>WE morbihan</name>
    <desc><![CDATA[<p>Heure de départ: 11:59 27 mai 2021<br/>Heure d'arrivée: 17:40 27 mai 2021<br/>Distance: 57,4 km (05:40)<br/>Temps déplacement: 05:02<br/>Vitesse moyenne: 10,1 km/h<br/>Vitesse moyenne mouv.: 11,38 km/h<br/>Vitesse Max.: 33,89 km/h<br/>Altitude minimale: 6 m<br/>Altitude maximale: 79 m<br/>Vitesse de montée: 452,3 m/h<br/>Vitesse de descente: 719,6 m/h<br/>Gain d'altitude: 889 m<br/>Perte d'altitude: 827 m<br/>Temps de montée: 01:58<br/>Temps de descente: 01:08<br/></p><hr align="center" width="480" style="height: 2px; width: 517px"/>]]></desc>
  </metadata>
  <wpt lat="47.78196" lon="-1.85208">
    <ele>24.6</ele>
    <name><![CDATA[Etang Et Bois de Baron]]></name>
    <type><![CDATA[user]]></type>
  </wpt>
  <wpt lat="47.67922" lon="-2.23788">
    <ele>50.3</ele>
    <name><![CDATA[Moulin de La Vallée]]></name>
    <type><![CDATA[user]]></type>
  </wpt>
  <wpt lat="47.68392" lon="-2.21412">
    <ele>50.6</ele>
    <name><![CDATA[Parking]]></name>
    <type><![CDATA[user]]></type>
  </wpt>
  <wpt lat="47.77541" lon="-1.83879">
    <ele>4.7</ele>
    <name><![CDATA[pont de Boeuvre]]></name>
    <type><![CDATA[user]]></type>
  </wpt>
  <trk>
    <name><![CDATA[Aller StJct]]></name>
    <desc><![CDATA[<p>Heure de départ: 11:59 27 mai 2021<br/>Heure d'arrivée: 17:40 27 mai 2021<br/>Distance: 57,4 km (05:40)<br/>Temps déplacement: 05:02<br/>Vitesse moyenne: 10,1 km/h<br/>Vitesse moyenne mouv.: 11,38 km/h<br/>Vitesse Max.: 33,89 km/h<br/>Altitude minimale: 6 m<br/>Altitude maximale: 79 m<br/>Vitesse de montée: 452,3 m/h<br/>Vitesse de descente: 719,6 m/h<br/>Gain d'altitude: 889 m<br/>Perte d'altitude: 827 m<br/>Temps de montée: 01:58<br/>Temps de descente: 01:08<br/></p><hr align="center" width="480" style="height: 2px; width: 517px"/>]]></desc>
    <trkseg>
      <trkpt lat="47.68402" lon="-2.21399">
        <ele>51.2</ele>
        <time>2021-05-27T09:59:25Z</time>
      </trkpt>
      <trkpt lat="47.68402" lon="-2.21399">
        <ele>51.2</ele>
        <time>2021-05-27T09:59:26Z</time>
      </trkpt>
      <trkpt lat="47.68402" lon="-2.21399">
        <ele>51.2</ele>
        <time>2021-05-27T09:59:27Z</time>
      </trkpt>
      <trkpt lat="47.68402" lon="-2.21399">
        <ele>51.2</ele>
        <time>2021-05-27T09:59:28Z</time>
      </trkpt>
      <trkpt lat="47.68402" lon="-2.21399">
        <ele>51.2</ele>
        <time>2021-05-27T09:59:29Z</time>
      </trkpt>
      <trkpt lat="47.68402" lon="-2.21399">
        <ele>51.2</ele>
        <time>2021-05-27T09:59:30Z</time>
      </trkpt>
      <trkpt lat="47.68402" lon="-2.21399">
        <ele>51.2</ele>
        <time>2021-05-27T09:59:31Z</time>
      </trkpt>
      <trkpt lat="47.68402" lon="-2.21399">
        <ele>51.2</ele>
        <time>2021-05-27T09:59:32Z</time>
      </trkpt>
      <trkpt lat="47.68402" lon="-2.21399">
        <ele>51.2</ele>
        <time>2021-05-27T09:59:33Z</time>
      </trkpt>
      <trkpt lat="47.68402" lon="-2.21399">
        <ele>51.2</ele>
        <time>2021-05-27T09:59:34Z</time>
      </trkpt>
      <trkpt lat="47.68402" lon="-2.21399">
        <ele>51.2</ele>
        <time>2021-05-27T09:59:35Z</time>
      </trkpt>
      <trkpt lat="47.68402" lon="-2.21399">
        <ele>51.2</ele>
        <time>2021-05-27T09:59:36Z</time>
      </trkpt>
      <trkpt lat="47.68402" lon="-2.21399">
        <ele>51.2</ele>
        <time>2021-05-27T09:59:37Z</time>
      </trkpt>
      <trkpt lat="47.68402" lon="-2.21399">
        <ele>51.2</ele>
        <time>2021-05-27T09:59:38Z</time>
      </trkpt>
      <trkpt lat="47.68402" lon="-2.21399">
        <ele>51.2</ele>
        <time>2021-05-27T09:59:39Z</time>
      </trkpt>
      <trkpt lat="47.68402" lon="-2.21399">
        <ele>51.2</ele>
        <time>2021-05-27T09:59:40Z</time>
      </trkpt>
      <trkpt lat="47.68402" lon="-2.21399">
        <ele>51.2</ele>
        <time>2021-05-27T09:59:41Z</time>
      </trkpt>
      <trkpt lat="47.68402" lon="-2.21399">
        <ele>51.2</ele>
        <time>2021-05-27T09:59:42Z</time>
      </trkpt>
      <trkpt lat="47.68402" lon="-2.21399">
        <ele>51.2</ele>
        <time>2021-05-27T09:59:43Z</time>
      </trkpt>
      <trkpt lat="47.68402" lon="-2.21399">
        <ele>51.2</ele>
        <time>2021-05-27T09:59:44Z</time>
      </trkpt>
      <trkpt lat="47.68402" lon="-2.21399">
        <ele>51.2</ele>
        <time>2021-05-27T09:59:45Z</time>
      </trkpt>
      <trkpt lat="47.68402" lon="-2.21399">
        <ele>51.2</ele>
        <time>2021-05-27T09:59:46Z</time>
      </trkpt>
      <trkpt lat="47.68402" lon="-2.21399">
        <ele>51.2</ele>
        <time>2021-05-27T09:59:47Z</time>
      </trkpt>
      <trkpt lat="47.68398" lon="-2.21406">
        <ele>50.9</ele>
        <time>2021-05-27T09:59:48Z</time>
      </trkpt>
      <trkpt lat="47.68399" lon="-2.21409">
        <ele>50.8</ele>
        <time>2021-05-27T09:59:49Z</time>
      </trkpt>
      <trkpt lat="47.684" lon="-2.2141">
        <ele>50.8</ele>
        <time>2021-05-27T09:59:50Z</time>
      </trkpt>
      <trkpt lat="47.68402" lon="-2.21412">
        <ele>50.8</ele>
        <time>2021-05-27T09:59:51Z</time>
      </trkpt>
      <trkpt lat="47.68404" lon="-2.21412">
        <ele>50.8</ele>
        <time>2021-05-27T09:59:52Z</time>
      </trkpt>
      <trkpt lat="47.68407" lon="-2.21413">
        <ele>50.9</ele>
        <time>2021-05-27T09:59:53Z</time>
      </trkpt>
      <trkpt lat="47.68409" lon="-2.21414">
        <ele>50.9</ele>
        <time>2021-05-27T09:59:54Z</time>
      </trkpt>
      <trkpt lat="47.68411" lon="-2.21415">
        <ele>50.9</ele>
        <time>2021-05-27T09:59:55Z</time>
      </trkpt>
      <trkpt lat="47.68414" lon="-2.21417">
        <ele>50.9</ele>
        <time>2021-05-27T09:59:56Z</time>
      </trkpt>
      <trkpt lat="47.68416" lon="-2.21418">
        <ele>51</ele>
        <time>2021-05-27T09:59:57Z</time>
      </trkpt>
      <trkpt lat="47.68418" lon="-2.21419">
        <ele>51.1</ele>
        <time>2021-05-27T09:59:58Z</time>
      </trkpt>
      <trkpt lat="47.68421" lon="-2.21421">
        <ele>51.2</ele>
        <time>2021-05-27T09:59:59Z</time>
      </trkpt>
      <trkpt lat="47.68424" lon="-2.21423">
        <ele>51.3</ele>
        <time>2021-05-27T10:00:00Z</time>
      </trkpt>
      <trkpt lat="47.68427" lon="-2.21425">
        <ele>51.5</ele>
        <time>2021-05-27T10:00:01Z</time>
      </trkpt>
      <trkpt lat="47.6843" lon="-2.21428">
        <ele>51.6</ele>
        <time>2021-05-27T10:00:02Z</time>
      </trkpt>
      <trkpt lat="47.68432" lon="-2.21432">
        <ele>51.8</ele>
        <time>2021-05-27T10:00:03Z</time>
      </trkpt>
      <trkpt lat="47.68434" lon="-2.21437">
        <ele>51.9</ele>
        <time>2021-05-27T10:00:04Z</time>
      </trkpt>
      <trkpt lat="47.68436" lon="-2.21442">
        <ele>51.9</ele>
        <time>2021-05-27T10:00:05Z</time>
      </trkpt>
      <trkpt lat="47.68438" lon="-2.21448">
        <ele>52</ele>
        <time>2021-05-27T10:00:06Z</time>
      </trkpt>
      <trkpt lat="47.68439" lon="-2.21453">
        <ele>52.1</ele>
        <time>2021-05-27T10:00:07Z</time>
      </trkpt>
      <trkpt lat="47.6844" lon="-2.21458">
        <ele>52.1</ele>
        <time>2021-05-27T10:00:08Z</time>
      </trkpt>
      <trkpt lat="47.68441" lon="-2.21463">
        <ele>52.2</ele>
        <time>2021-05-27T10:00:09Z</time>
      </trkpt>
      <trkpt lat="47.68441" lon="-2.21468">
        <ele>52.2</ele>
        <time>2021-05-27T10:00:10Z</time>
      </trkpt>
      <trkpt lat="47.68441" lon="-2.21472">
        <ele>52.2</ele>
        <time>2021-05-27T10:00:11Z</time>
      </trkpt>
      <trkpt lat="47.68441" lon="-2.21477">
        <ele>52.2</ele>
        <time>2021-05-27T10:00:12Z</time>
      </trkpt>
      <trkpt lat="47.68442" lon="-2.21481">
        <ele>52.2</ele>
        <time>2021-05-27T10:00:13Z</time>
      </trkpt>
      <trkpt lat="47.68444" lon="-2.21485">
        <ele>52.3</ele>
        <time>2021-05-27T10:00:14Z</time>
      </trkpt>
      <trkpt lat="47.68446" lon="-2.2149">
        <ele>52.4</ele>
        <time>2021-05-27T10:00:15Z</time>
      </trkpt>
      <trkpt lat="47.68447" lon="-2.21494">
        <ele>52.4</ele>
        <time>2021-05-27T10:00:16Z</time>
      </trkpt>
      <trkpt lat="47.68448" lon="-2.21498">
        <ele>52.5</ele>
        <time>2021-05-27T10:00:17Z</time>
      </trkpt>
      <trkpt lat="47.68451" lon="-2.21502">
        <ele>52.6</ele>
        <time>2021-05-27T10:00:18Z</time>
      </trkpt>
      <trkpt lat="47.68453" lon="-2.21507">
        <ele>52.8</ele>
        <time>2021-05-27T10:00:19Z</time>
      </trkpt>
      <trkpt lat="47.68455" lon="-2.21513">
        <ele>52.9</ele>
        <time>2021-05-27T10:00:20Z</time>
      </trkpt>
      <trkpt lat="47.68458" lon="-2.21519">
        <ele>53.1</ele>
        <time>2021-05-27T10:00:21Z</time>
      </trkpt>
      <trkpt lat="47.68461" lon="-2.21525">
        <ele>53.3</ele>
        <time>2021-05-27T10:00:22Z</time>
      </trkpt>
      <trkpt lat="47.68464" lon="-2.21532">
        <ele>53.5</ele>
        <time>2021-05-27T10:00:23Z</time>
      </trkpt>
      <trkpt lat="47.68466" lon="-2.21538">
        <ele>53.6</ele>
        <time>2021-05-27T10:00:24Z</time>
      </trkpt>
      <trkpt lat="47.68466" lon="-2.21544">
        <ele>53.7</ele>
        <time>2021-05-27T10:00:25Z</time>
      </trkpt>
      <trkpt lat="47.68467" lon="-2.2155">
        <ele>53.8</ele>
        <time>2021-05-27T10:00:26Z</time>
      </trkpt>
      <trkpt lat="47.68467" lon="-2.21556">
        <ele>53.9</ele>
        <time>2021-05-27T10:00:27Z</time>
      </trkpt>
      <trkpt lat="47.68468" lon="-2.21562">
        <ele>53.9</ele>
        <time>2021-05-27T10:00:28Z</time>
      </trkpt>
      <trkpt lat="47.68469" lon="-2.21567">
        <ele>54</ele>
        <time>2021-05-27T10:00:29Z</time>
      </trkpt>
      <trkpt lat="47.68467" lon="-2.21574">
        <ele>53.9</ele>
        <time>2021-05-27T10:00:30Z</time>
      </trkpt>
      <trkpt lat="47.68467" lon="-2.2158">
        <ele>54</ele>
        <time>2021-05-27T10:00:31Z</time>
      </trkpt>
      <trkpt lat="47.68466" lon="-2.21586">
        <ele>53.9</ele>
        <time>2021-05-27T10:00:32Z</time>
      </trkpt>
      <trkpt lat="47.68465" lon="-2.21593">
        <ele>53.6</ele>
        <time>2021-05-27T10:00:33Z</time>
      </trkpt>
      <trkpt lat="47.68464" lon="-2.21599">
        <ele>53.4</ele>
        <time>2021-05-27T10:00:34Z</time>
      </trkpt>
      <trkpt lat="47.68463" lon="-2.21606">
        <ele>53.2</ele>
        <time>2021-05-27T10:00:35Z</time>
      </trkpt>
      <trkpt lat="47.68463" lon="-2.21612">
        <ele>53.1</ele>
        <time>2021-05-27T10:00:36Z</time>
      </trkpt>
      <trkpt lat="47.68463" lon="-2.21619">
        <ele>52.9</ele>
        <time>2021-05-27T10:00:37Z</time>
      </trkpt>
      <trkpt lat="47.68463" lon="-2.21625">
        <ele>52.8</ele>
        <time>2021-05-27T10:00:38Z</time>
      </trkpt>
      <trkpt lat="47.68463" lon="-2.21634">
        <ele>52.6</ele>
        <time>2021-05-27T10:00:39Z</time>
      </trkpt>
      <trkpt lat="47.68464" lon="-2.21641">
        <ele>52.5</ele>
        <time>2021-05-27T10:00:40Z</time>
      </trkpt>
      <trkpt lat="47.68464" lon="-2.21648">
        <ele>52.3</ele>
        <time>2021-05-27T10:00:41Z</time>
      </trkpt>
      <trkpt lat="47.68464" lon="-2.21656">
        <ele>52.1</ele>
        <time>2021-05-27T10:00:42Z</time>
      </trkpt>
      <trkpt lat="47.68464" lon="-2.21664">
        <ele>51.9</ele>
        <time>2021-05-27T10:00:43Z</time>
      </trkpt>
      <trkpt lat="47.68466" lon="-2.21673">
        <ele>51.9</ele>
        <time>2021-05-27T10:00:44Z</time>
      </trkpt>
      <trkpt lat="47.68467" lon="-2.21682">
        <ele>51.9</ele>
        <time>2021-05-27T10:00:45Z</time>
      </trkpt>
      <trkpt lat="47.68468" lon="-2.21691">
        <ele>51.8</ele>
        <time>2021-05-27T10:00:46Z</time>
      </trkpt>
      <trkpt lat="47.68468" lon="-2.217">
        <ele>51.7</ele>
        <time>2021-05-27T10:00:47Z</time>
      </trkpt>
      <trkpt lat="47.68469" lon="-2.21708">
        <ele>51.6</ele>
        <time>2021-05-27T10:00:48Z</time>
      </trkpt>
      <trkpt lat="47.68469" lon="-2.21717">
        <ele>51.6</ele>
        <time>2021-05-27T10:00:49Z</time>
      </trkpt>
      <trkpt lat="47.6847" lon="-2.21727">
        <ele>51.5</ele>
        <time>2021-05-27T10:00:50Z</time>
      </trkpt>
      <trkpt lat="47.68472" lon="-2.21736">
        <ele>51.5</ele>
        <time>2021-05-27T10:00:51Z</time>
      </trkpt>
      <trkpt lat="47.68473" lon="-2.21745">
        <ele>51.4</ele>
        <time>2021-05-27T10:00:52Z</time>
      </trkpt>
      <trkpt lat="47.68474" lon="-2.21754">
        <ele>51.3</ele>
        <time>2021-05-27T10:00:53Z</time>
      </trkpt>
      <trkpt lat="47.68474" lon="-2.21764">
        <ele>51.1</ele>
        <time>2021-05-27T10:00:54Z</time>
      </trkpt>
      <trkpt lat="47.68473" lon="-2.21773">
        <ele>50.9</ele>
        <time>2021-05-27T10:00:55Z</time>
      </trkpt>
      <trkpt lat="47.68473" lon="-2.21783">
        <ele>50.8</ele>
        <time>2021-05-27T10:00:56Z</time>
      </trkpt>
      <trkpt lat="47.68474" lon="-2.21792">
        <ele>50.6</ele>
        <time>2021-05-27T10:00:57Z</time>
      </trkpt>
      <trkpt lat="47.68475" lon="-2.21801">
        <ele>50.5</ele>
        <time>2021-05-27T10:00:58Z</time>
      </trkpt>
      <trkpt lat="47.68476" lon="-2.21809">
        <ele>50.4</ele>
        <time>2021-05-27T10:00:59Z</time>
      </trkpt>
      <trkpt lat="47.68476" lon="-2.21818">
        <ele>50.3</ele>
        <time>2021-05-27T10:01:00Z</time>
      </trkpt>
      <trkpt lat="47.68478" lon="-2.21827">
        <ele>50.3</ele>
        <time>2021-05-27T10:01:01Z</time>
      </trkpt>
      <trkpt lat="47.6848" lon="-2.21835">
        <ele>50.3</ele>
        <time>2021-05-27T10:01:02Z</time>
      </trkpt>
      <trkpt lat="47.68482" lon="-2.21844">
        <ele>50.2</ele>
        <time>2021-05-27T10:01:03Z</time>
      </trkpt>
      <trkpt lat="47.68483" lon="-2.21853">
        <ele>50.2</ele>
        <time>2021-05-27T10:01:04Z</time>
      </trkpt>
      <trkpt lat="47.68485" lon="-2.21862">
        <ele>50.1</ele>
        <time>2021-05-27T10:01:05Z</time>
      </trkpt>
      <trkpt lat="47.68487" lon="-2.21871">
        <ele>50.1</ele>
        <time>2021-05-27T10:01:06Z</time>
      </trkpt>
      <trkpt lat="47.68489" lon="-2.2188">
        <ele>50</ele>
        <time>2021-05-27T10:01:07Z</time>
      </trkpt>
      <trkpt lat="47.6849" lon="-2.2189">
        <ele>49.9</ele>
        <time>2021-05-27T10:01:08Z</time>
      </trkpt>
      <trkpt lat="47.68492" lon="-2.219">
        <ele>49.8</ele>
        <time>2021-05-27T10:01:09Z</time>
      </trkpt>
      <trkpt lat="47.68494" lon="-2.21909">
        <ele>49.7</ele>
        <time>2021-05-27T10:01:10Z</time>
      </trkpt>
      <trkpt lat="47.68496" lon="-2.21918">
        <ele>49.6</ele>
        <time>2021-05-27T10:01:11Z</time>
      </trkpt>
      <trkpt lat="47.68497" lon="-2.21927">
        <ele>49.4</ele>
        <time>2021-05-27T10:01:12Z</time>
      </trkpt>
      <trkpt lat="47.68498" lon="-2.21936">
        <ele>49.2</ele>
        <time>2021-05-27T10:01:13Z</time>
      </trkpt>
      <trkpt lat="47.685" lon="-2.21945">
        <ele>48.9</ele>
        <time>2021-05-27T10:01:14Z</time>
      </trkpt>
      <trkpt lat="47.68501" lon="-2.21954">
        <ele>48.7</ele>
        <time>2021-05-27T10:01:15Z</time>
      </trkpt>
      <trkpt lat="47.68503" lon="-2.21964">
        <ele>48.4</ele>
        <time>2021-05-27T10:01:16Z</time>
      </trkpt>
      <trkpt lat="47.68505" lon="-2.21973">
        <ele>48.2</ele>
        <time>2021-05-27T10:01:17Z</time>
      </trkpt>
      <trkpt lat="47.68506" lon="-2.21982">
        <ele>48</ele>
        <time>2021-05-27T10:01:18Z</time>
      </trkpt>
      <trkpt lat="47.68508" lon="-2.21991">
        <ele>47.7</ele>
        <time>2021-05-27T10:01:19Z</time>
      </trkpt>
      <trkpt lat="47.6851" lon="-2.22">
        <ele>47.5</ele>
        <time>2021-05-27T10:01:20Z</time>
      </trkpt>
      <trkpt lat="47.68512" lon="-2.22009">
        <ele>47.4</ele>
        <time>2021-05-27T10:01:21Z</time>
      </trkpt>
      <trkpt lat="47.68514" lon="-2.22019">
        <ele>47.3</ele>
        <time>2021-05-27T10:01:22Z</time>
      </trkpt>
      <trkpt lat="47.68516" lon="-2.22028">
        <ele>47.2</ele>
        <time>2021-05-27T10:01:23Z</time>
      </trkpt>
      <trkpt lat="47.68517" lon="-2.22037">
        <ele>47.1</ele>
        <time>2021-05-27T10:01:24Z</time>
      </trkpt>
      <trkpt lat="47.68519" lon="-2.22046">
        <ele>47</ele>
        <time>2021-05-27T10:01:25Z</time>
      </trkpt>
      <trkpt lat="47.6852" lon="-2.22054">
        <ele>47</ele>
        <time>2021-05-27T10:01:26Z</time>
      </trkpt>
      <trkpt lat="47.68522" lon="-2.22063">
        <ele>46.9</ele>
        <time>2021-05-27T10:01:27Z</time>
      </trkpt>
      <trkpt lat="47.68524" lon="-2.22071">
        <ele>46.9</ele>
        <time>2021-05-27T10:01:28Z</time>
      </trkpt>
      <trkpt lat="47.68525" lon="-2.2208">
        <ele>46.9</ele>
        <time>2021-05-27T10:01:29Z</time>
      </trkpt>
      <trkpt lat="47.68527" lon="-2.22089">
        <ele>46.7</ele>
        <time>2021-05-27T10:01:30Z</time>
      </trkpt>
      <trkpt lat="47.68529" lon="-2.22098">
        <ele>46.6</ele>
        <time>2021-05-27T10:01:31Z</time>
      </trkpt>
      <trkpt lat="47.6853" lon="-2.22107">
        <ele>46.4</ele>
        <time>2021-05-27T10:01:32Z</time>
      </trkpt>
      <trkpt lat="47.68532" lon="-2.22115">
        <ele>46.2</ele>
        <time>2021-05-27T10:01:33Z</time>
      </trkpt>
      <trkpt lat="47.68533" lon="-2.22124">
        <ele>46</ele>
        <time>2021-05-27T10:01:34Z</time>
      </trkpt>
      <trkpt lat="47.68535" lon="-2.22133">
        <ele>45.8</ele>
        <time>2021-05-27T10:01:35Z</time>
      </trkpt>
      <trkpt lat="47.68537" lon="-2.22141">
        <ele>45.7</ele>
        <time>2021-05-27T10:01:36Z</time>
      </trkpt>
      <trkpt lat="47.68539" lon="-2.2215">
        <ele>45.5</ele>
        <time>2021-05-27T10:01:37Z</time>
      </trkpt>
      <trkpt lat="47.68542" lon="-2.22159">
        <ele>45.3</ele>
        <time>2021-05-27T10:01:38Z</time>
      </trkpt>
      <trkpt lat="47.68544" lon="-2.22167">
        <ele>45.1</ele>
        <time>2021-05-27T10:01:39Z</time>
      </trkpt>
      <trkpt lat="47.68547" lon="-2.22176">
        <ele>44.9</ele>
        <time>2021-05-27T10:01:40Z</time>
      </trkpt>
      <trkpt lat="47.68549" lon="-2.22185">
        <ele>44.8</ele>
        <time>2021-05-27T10:01:41Z</time>
      </trkpt>
      <trkpt lat="47.68552" lon="-2.22194">
        <ele>44.6</ele>
        <time>2021-05-27T10:01:42Z</time>
      </trkpt>
      <trkpt lat="47.68555" lon="-2.22203">
        <ele>44.5</ele>
        <time>2021-05-27T10:01:43Z</time>
      </trkpt>
      <trkpt lat="47.68558" lon="-2.22212">
        <ele>44.3</ele>
        <time>2021-05-27T10:01:44Z</time>
      </trkpt>
      <trkpt lat="47.68561" lon="-2.22221">
        <ele>44.1</ele>
        <time>2021-05-27T10:01:45Z</time>
      </trkpt>
      <trkpt lat="47.68564" lon="-2.2223">
        <ele>44</ele>
        <time>2021-05-27T10:01:46Z</time>
      </trkpt>
      <trkpt lat="47.68567" lon="-2.22239">
        <ele>43.8</ele>
        <time>2021-05-27T10:01:47Z</time>
      </trkpt>
      <trkpt lat="47.68571" lon="-2.22246">
        <ele>43.7</ele>
        <time>2021-05-27T10:01:48Z</time>
      </trkpt>
      <trkpt lat="47.68577" lon="-2.2225">
        <ele>43.8</ele>
        <time>2021-05-27T10:01:49Z</time>
      </trkpt>
      <trkpt lat="47.68583" lon="-2.2225">
        <ele>44</ele>
        <time>2021-05-27T10:01:50Z</time>
      </trkpt>
      <trkpt lat="47.68588" lon="-2.22249">
        <ele>44.3</ele>
        <time>2021-05-27T10:01:51Z</time>
      </trkpt>
      <trkpt lat="47.68592" lon="-2.22245">
        <ele>44.7</ele>
        <time>2021-05-27T10:01:52Z</time>
      </trkpt>
      <trkpt lat="47.68596" lon="-2.22241">
        <ele>45.1</ele>
        <time>2021-05-27T10:01:53Z</time>
      </trkpt>
      <trkpt lat="47.686" lon="-2.22239">
        <ele>45.4</ele>
        <time>2021-05-27T10:01:54Z</time>
      </trkpt>
      <trkpt lat="47.68604" lon="-2.22236">
        <ele>45.7</ele>
        <time>2021-05-27T10:01:55Z</time>
      </trkpt>
      <trkpt lat="47.68607" lon="-2.22233">
        <ele>46.1</ele>
        <time>2021-05-27T10:01:56Z</time>
      </trkpt>
      <trkpt lat="47.68611" lon="-2.22229">
        <ele>46.4</ele>
        <time>2021-05-27T10:01:57Z</time>
      </trkpt>
      <trkpt lat="47.68614" lon="-2.22226">
        <ele>46.7</ele>
        <time>2021-05-27T10:01:58Z</time>
      </trkpt>
      <trkpt lat="47.68618" lon="-2.22223">
        <ele>47</ele>
        <time>2021-05-27T10:01:59Z</time>
      </trkpt>
      <trkpt lat="47.68621" lon="-2.2222">
        <ele>47.4</ele>
        <time>2021-05-27T10:02:00Z</time>
      </trkpt>
      <trkpt lat="47.68624" lon="-2.22216">
        <ele>47.7</ele>
        <time>2021-05-27T10:02:01Z</time>
      </trkpt>
      <trkpt lat="47.68628" lon="-2.22213">
        <ele>48</ele>
        <time>2021-05-27T10:02:02Z</time>
      </trkpt>
      <trkpt lat="47.68631" lon="-2.22209">
        <ele>48.4</ele>
        <time>2021-05-27T10:02:03Z</time>
      </trkpt>
      <trkpt lat="47.68635" lon="-2.22205">
        <ele>48.7</ele>
        <time>2021-05-27T10:02:04Z</time>
      </trkpt>
      <trkpt lat="47.68638" lon="-2.22201">
        <ele>49</ele>
        <time>2021-05-27T10:02:05Z</time>
      </trkpt>
      <trkpt lat="47.68641" lon="-2.22198">
        <ele>49.4</ele>
        <time>2021-05-27T10:02:06Z</time>
      </trkpt>
      <trkpt lat="47.68646" lon="-2.22194">
        <ele>49.8</ele>
        <time>2021-05-27T10:02:07Z</time>
      </trkpt>
      <trkpt lat="47.6865" lon="-2.22192">
        <ele>50.1</ele>
        <time>2021-05-27T10:02:08Z</time>
      </trkpt>
      <trkpt lat="47.68654" lon="-2.22189">
        <ele>50.5</ele>
        <time>2021-05-27T10:02:09Z</time>
      </trkpt>
      <trkpt lat="47.68658" lon="-2.22186">
        <ele>50.8</ele>
        <time>2021-05-27T10:02:10Z</time>
      </trkpt>
      <trkpt lat="47.68663" lon="-2.22184">
        <ele>51.1</ele>
        <time>2021-05-27T10:02:11Z</time>
      </trkpt>
      <trkpt lat="47.68667" lon="-2.22181">
        <ele>51.5</ele>
        <time>2021-05-27T10:02:12Z</time>
      </trkpt>
      <trkpt lat="47.68671" lon="-2.22179">
        <ele>51.7</ele>
        <time>2021-05-27T10:02:13Z</time>
      </trkpt>
      <trkpt lat="47.68675" lon="-2.22177">
        <ele>51.9</ele>
        <time>2021-05-27T10:02:14Z</time>
      </trkpt>
      <trkpt lat="47.68679" lon="-2.22176">
        <ele>52.1</ele>
        <time>2021-05-27T10:02:15Z</time>
      </trkpt>
      <trkpt lat="47.68683" lon="-2.22174">
        <ele>52.3</ele>
        <time>2021-05-27T10:02:16Z</time>
      </trkpt>
      <trkpt lat="47.68688" lon="-2.22173">
        <ele>52.5</ele>
        <time>2021-05-27T10:02:17Z</time>
      </trkpt>
      <trkpt lat="47.68692" lon="-2.22171">
        <ele>52.8</ele>
        <time>2021-05-27T10:02:18Z</time>
      </trkpt>
      <trkpt lat="47.68697" lon="-2.22169">
        <ele>53</ele>
        <time>2021-05-27T10:02:19Z</time>
      </trkpt>
      <trkpt lat="47.68701" lon="-2.22167">
        <ele>53.2</ele>
        <time>2021-05-27T10:02:20Z</time>
      </trkpt>
      <trkpt lat="47.68706" lon="-2.22164">
        <ele>53.4</ele>
        <time>2021-05-27T10:02:21Z</time>
      </trkpt>
      <trkpt lat="47.68711" lon="-2.22161">
        <ele>53.6</ele>
        <time>2021-05-27T10:02:22Z</time>
      </trkpt>
      <trkpt lat="47.68715" lon="-2.22159">
        <ele>53.7</ele>
        <time>2021-05-27T10:02:23Z</time>
      </trkpt>
      <trkpt lat="47.6872" lon="-2.22157">
        <ele>53.9</ele>
        <time>2021-05-27T10:02:24Z</time>
      </trkpt>
      <trkpt lat="47.68724" lon="-2.22156">
        <ele>54.1</ele>
        <time>2021-05-27T10:02:25Z</time>
      </trkpt>
      <trkpt lat="47.68728" lon="-2.22154">
        <ele>54.2</ele>
        <time>2021-05-27T10:02:26Z</time>
      </trkpt>
      <trkpt lat="47.68733" lon="-2.22152">
        <ele>54.4</ele>
        <time>2021-05-27T10:02:27Z</time>
      </trkpt>
      <trkpt lat="47.68737" lon="-2.22151">
        <ele>54.5</ele>
        <time>2021-05-27T10:02:28Z</time>
      </trkpt>
      <trkpt lat="47.68742" lon="-2.22149">
        <ele>54.7</ele>
        <time>2021-05-27T10:02:29Z</time>
      </trkpt>
      <trkpt lat="47.68747" lon="-2.22147">
        <ele>54.9</ele>
        <time>2021-05-27T10:02:30Z</time>
      </trkpt>
      <trkpt lat="47.68752" lon="-2.22146">
        <ele>55</ele>
        <time>2021-05-27T10:02:31Z</time>
      </trkpt>
      <trkpt lat="47.68756" lon="-2.22146">
        <ele>55</ele>
        <time>2021-05-27T10:02:32Z</time>
      </trkpt>
      <trkpt lat="47.68762" lon="-2.22144">
        <ele>55</ele>
        <time>2021-05-27T10:02:33Z</time>
      </trkpt>
      <trkpt lat="47.68766" lon="-2.22145">
        <ele>55.1</ele>
        <time>2021-05-27T10:02:34Z</time>
      </trkpt>
      <trkpt lat="47.68772" lon="-2.22144">
        <ele>55.1</ele>
        <time>2021-05-27T10:02:35Z</time>
      </trkpt>
      <trkpt lat="47.68777" lon="-2.22145">
        <ele>55.1</ele>
        <time>2021-05-27T10:02:36Z</time>
      </trkpt>
      <trkpt lat="47.68782" lon="-2.22146">
        <ele>55.1</ele>
        <time>2021-05-27T10:02:37Z</time>
      </trkpt>
      <trkpt lat="47.68788" lon="-2.22148">
        <ele>55.1</ele>
        <time>2021-05-27T10:02:38Z</time>
      </trkpt>
      <trkpt lat="47.68792" lon="-2.2215">
        <ele>55.1</ele>
        <time>2021-05-27T10:02:39Z</time>
      </trkpt>
      <trkpt lat="47.68797" lon="-2.22153">
        <ele>55.1</ele>
        <time>2021-05-27T10:02:40Z</time>
      </trkpt>
      <trkpt lat="47.68802" lon="-2.22155">
        <ele>55.1</ele>
        <time>2021-05-27T10:02:41Z</time>
      </trkpt>
      <trkpt lat="47.68807" lon="-2.22157">
        <ele>55.1</ele>
        <time>2021-05-27T10:02:42Z</time>
      </trkpt>
      <trkpt lat="47.68812" lon="-2.22158">
        <ele>55.1</ele>
        <time>2021-05-27T10:02:43Z</time>
      </trkpt>
      <trkpt lat="47.68817" lon="-2.2216">
        <ele>55.1</ele>
        <time>2021-05-27T10:02:44Z</time>
      </trkpt>
      <trkpt lat="47.68822" lon="-2.22161">
        <ele>55.1</ele>
        <time>2021-05-27T10:02:45Z</time>
      </trkpt>
      <trkpt lat="47.68827" lon="-2.22163">
        <ele>55</ele>
        <time>2021-05-27T10:02:46Z</time>
      </trkpt>
      <trkpt lat="47.68832" lon="-2.22164">
        <ele>55</ele>
        <time>2021-05-27T10:02:47Z</time>
      </trkpt>
      <trkpt lat="47.68837" lon="-2.22165">
        <ele>55</ele>
        <time>2021-05-27T10:02:48Z</time>
      </trkpt>
      <trkpt lat="47.68843" lon="-2.22165">
        <ele>55</ele>
        <time>2021-05-27T10:02:49Z</time>
      </trkpt>
      <trkpt lat="47.68848" lon="-2.22166">
        <ele>55</ele>
        <time>2021-05-27T10:02:50Z</time>
      </trkpt>
      <trkpt lat="47.68854" lon="-2.22167">
        <ele>55</ele>
        <time>2021-05-27T10:02:51Z</time>
      </trkpt>
      <trkpt lat="47.6886" lon="-2.22168">
        <ele>55</ele>
        <time>2021-05-27T10:02:52Z</time>
      </trkpt>
      <trkpt lat="47.68865" lon="-2.22169">
        <ele>55</ele>
        <time>2021-05-27T10:02:53Z</time>
      </trkpt>
      <trkpt lat="47.6887" lon="-2.2217">
        <ele>55</ele>
        <time>2021-05-27T10:02:54Z</time>
      </trkpt>
      <trkpt lat="47.68876" lon="-2.2217">
        <ele>55</ele>
        <time>2021-05-27T10:02:55Z</time>
      </trkpt>
      <trkpt lat="47.68881" lon="-2.22171">
        <ele>55</ele>
        <time>2021-05-27T10:02:56Z</time>
      </trkpt>
      <trkpt lat="47.68886" lon="-2.22173">
        <ele>55.1</ele>
        <time>2021-05-27T10:02:57Z</time>
      </trkpt>
      <trkpt lat="47.68892" lon="-2.22173">
        <ele>55</ele>
        <time>2021-05-27T10:02:58Z</time>
      </trkpt>
      <trkpt lat="47.68897" lon="-2.22174">
        <ele>55</ele>
        <time>2021-05-27T10:02:59Z</time>
      </trkpt>
      <trkpt lat="47.68903" lon="-2.22176">
        <ele>55</ele>
        <time>2021-05-27T10:03:00Z</time>
      </trkpt>
      <trkpt lat="47.68908" lon="-2.22176">
        <ele>55</ele>
        <time>2021-05-27T10:03:01Z</time>
      </trkpt>
      <trkpt lat="47.68914" lon="-2.22177">
        <ele>55</ele>
        <time>2021-05-27T10:03:02Z</time>
      </trkpt>
      <trkpt lat="47.68919" lon="-2.22179">
        <ele>55</ele>
        <time>2021-05-27T10:03:03Z</time>
      </trkpt>
      <trkpt lat="47.68925" lon="-2.2218">
        <ele>54.9</ele>
        <time>2021-05-27T10:03:04Z</time>
      </trkpt>
      <trkpt lat="47.68931" lon="-2.22181">
        <ele>54.9</ele>
        <time>2021-05-27T10:03:05Z</time>
      </trkpt>
      <trkpt lat="47.68937" lon="-2.22182">
        <ele>54.8</ele>
        <time>2021-05-27T10:03:06Z</time>
      </trkpt>
      <trkpt lat="47.68942" lon="-2.22184">
        <ele>54.8</ele>
        <time>2021-05-27T10:03:07Z</time>
      </trkpt>
      <trkpt lat="47.68948" lon="-2.22186">
        <ele>54.7</ele>
        <time>2021-05-27T10:03:08Z</time>
      </trkpt>
      <trkpt lat="47.68954" lon="-2.22188">
        <ele>54.7</ele>
        <time>2021-05-27T10:03:09Z</time>
      </trkpt>
      <trkpt lat="47.6896" lon="-2.2219">
        <ele>54.6</ele>
        <time>2021-05-27T10:03:10Z</time>
      </trkpt>
      <trkpt lat="47.68965" lon="-2.22191">
        <ele>54.6</ele>
        <time>2021-05-27T10:03:11Z</time>
      </trkpt>
      <trkpt lat="47.68971" lon="-2.22193">
        <ele>54.6</ele>
        <time>2021-05-27T10:03:12Z</time>
      </trkpt>
      <trkpt lat="47.68976" lon="-2.22193">
        <ele>54.5</ele>
        <time>2021-05-27T10:03:13Z</time>
      </trkpt>
      <trkpt lat="47.68982" lon="-2.22193">
        <ele>54.5</ele>
        <time>2021-05-27T10:03:14Z</time>
      </trkpt>
      <trkpt lat="47.68987" lon="-2.22192">
        <ele>54.4</ele>
        <time>2021-05-27T10:03:15Z</time>
      </trkpt>
      <trkpt lat="47.68992" lon="-2.22192">
        <ele>54.4</ele>
        <time>2021-05-27T10:03:16Z</time>
      </trkpt>
      <trkpt lat="47.68997" lon="-2.22191">
        <ele>54.3</ele>
        <time>2021-05-27T10:03:17Z</time>
      </trkpt>
      <trkpt lat="47.69002" lon="-2.22191">
        <ele>54.4</ele>
        <time>2021-05-27T10:03:18Z</time>
      </trkpt>
      <trkpt lat="47.69006" lon="-2.22195">
        <ele>54.5</ele>
        <time>2021-05-27T10:03:19Z</time>
      </trkpt>
      <trkpt lat="47.69008" lon="-2.22201">
        <ele>54.6</ele>
        <time>2021-05-27T10:03:20Z</time>
      </trkpt>
      <trkpt lat="47.6901" lon="-2.22207">
        <ele>54.7</ele>
        <time>2021-05-27T10:03:21Z</time>
      </trkpt>
      <trkpt lat="47.69011" lon="-2.22214">
        <ele>54.8</ele>
        <time>2021-05-27T10:03:22Z</time>
      </trkpt>
      <trkpt lat="47.69012" lon="-2.22222">
        <ele>54.9</ele>
        <time>2021-05-27T10:03:23Z</time>
      </trkpt>
      <trkpt lat="47.69014" lon="-2.22229">
        <ele>55</ele>
        <time>2021-05-27T10:03:24Z</time>
      </trkpt>
      <trkpt lat="47.69015" lon="-2.22236">
        <ele>55.1</ele>
        <time>2021-05-27T10:03:25Z</time>
      </trkpt>
      <trkpt lat="47.69017" lon="-2.22244">
        <ele>55.2</ele>
        <time>2021-05-27T10:03:26Z</time>
      </trkpt>
      <trkpt lat="47.69018" lon="-2.22252">
        <ele>55.2</ele>
        <time>2021-05-27T10:03:27Z</time>
      </trkpt>
      <trkpt lat="47.6902" lon="-2.2226">
        <ele>55.4</ele>
        <time>2021-05-27T10:03:28Z</time>
      </trkpt>
      <trkpt lat="47.69022" lon="-2.22267">
        <ele>55.5</ele>
        <time>2021-05-27T10:03:29Z</time>
      </trkpt>
      <trkpt lat="47.69024" lon="-2.22275">
        <ele>55.7</ele>
        <time>2021-05-27T10:03:30Z</time>
      </trkpt>
      <trkpt lat="47.69025" lon="-2.22283">
        <ele>55.8</ele>
        <time>2021-05-27T10:03:31Z</time>
      </trkpt>
      <trkpt lat="47.69027" lon="-2.22291">
        <ele>56</ele>
        <time>2021-05-27T10:03:32Z</time>
      </trkpt>
      <trkpt lat="47.69029" lon="-2.22299">
        <ele>56.1</ele>
        <time>2021-05-27T10:03:33Z</time>
      </trkpt>
      <trkpt lat="47.69031" lon="-2.22307">
        <ele>56.3</ele>
        <time>2021-05-27T10:03:34Z</time>
      </trkpt>
      <trkpt lat="47.69032" lon="-2.22315">
        <ele>56.5</ele>
        <time>2021-05-27T10:03:35Z</time>
      </trkpt>
      <trkpt lat="47.69034" lon="-2.22324">
        <ele>56.7</ele>
        <time>2021-05-27T10:03:36Z</time>
      </trkpt>
      <trkpt lat="47.69037" lon="-2.22332">
        <ele>56.9</ele>
        <time>2021-05-27T10:03:37Z</time>
      </trkpt>
      <trkpt lat="47.69038" lon="-2.22341">
        <ele>56.8</ele>
        <time>2021-05-27T10:03:38Z</time>
      </trkpt>
      <trkpt lat="47.6904" lon="-2.22349">
        <ele>56.8</ele>
        <time>2021-05-27T10:03:39Z</time>
      </trkpt>
      <trkpt lat="47.69042" lon="-2.22357">
        <ele>56.7</ele>
        <time>2021-05-27T10:03:40Z</time>
      </trkpt>
      <trkpt lat="47.69044" lon="-2.22365">
        <ele>56.7</ele>
        <time>2021-05-27T10:03:41Z</time>
      </trkpt>
      <trkpt lat="47.69045" lon="-2.22373">
        <ele>56.6</ele>
        <time>2021-05-27T10:03:42Z</time>
      </trkpt>
      <trkpt lat="47.69047" lon="-2.22381">
        <ele>56.6</ele>
        <time>2021-05-27T10:03:43Z</time>
      </trkpt>
      <trkpt lat="47.6905" lon="-2.2239">
        <ele>56.5</ele>
        <time>2021-05-27T10:03:44Z</time>
      </trkpt>
      <trkpt lat="47.69051" lon="-2.22398">
        <ele>56.5</ele>
        <time>2021-05-27T10:03:45Z</time>
      </trkpt>
      <trkpt lat="47.69053" lon="-2.22407">
        <ele>56.4</ele>
        <time>2021-05-27T10:03:46Z</time>
      </trkpt>
      <trkpt lat="47.69054" lon="-2.22415">
        <ele>56.3</ele>
        <time>2021-05-27T10:03:47Z</time>
      </trkpt>
      <trkpt lat="47.69055" lon="-2.22423">
        <ele>56.5</ele>
        <time>2021-05-27T10:03:48Z</time>
      </trkpt>
      <trkpt lat="47.69057" lon="-2.22431">
        <ele>56.7</ele>
        <time>2021-05-27T10:03:49Z</time>
      </trkpt>
      <trkpt lat="47.69059" lon="-2.22439">
        <ele>57</ele>
        <time>2021-05-27T10:03:50Z</time>
      </trkpt>
      <trkpt lat="47.69061" lon="-2.22447">
        <ele>57.2</ele>
        <time>2021-05-27T10:03:51Z</time>
      </trkpt>
      <trkpt lat="47.69063" lon="-2.22456">
        <ele>57.5</ele>
        <time>2021-05-27T10:03:52Z</time>
      </trkpt>
      <trkpt lat="47.69065" lon="-2.22463">
        <ele>57.7</ele>
        <time>2021-05-27T10:03:53Z</time>
      </trkpt>
      <trkpt lat="47.69067" lon="-2.22472">
        <ele>57.9</ele>
        <time>2021-05-27T10:03:54Z</time>
      </trkpt>
      <trkpt lat="47.69069" lon="-2.22481">
        <ele>58.2</ele>
        <time>2021-05-27T10:03:55Z</time>
      </trkpt>
      <trkpt lat="47.69071" lon="-2.22489">
        <ele>58.5</ele>
        <time>2021-05-27T10:03:56Z</time>
      </trkpt>
      <trkpt lat="47.69073" lon="-2.22498">
        <ele>58.7</ele>
        <time>2021-05-27T10:03:57Z</time>
      </trkpt>
      <trkpt lat="47.69074" lon="-2.22506">
        <ele>58.9</ele>
        <time>2021-05-27T10:03:58Z</time>
      </trkpt>
      <trkpt lat="47.69076" lon="-2.22514">
        <ele>59</ele>
        <time>2021-05-27T10:03:59Z</time>
      </trkpt>
      <trkpt lat="47.69077" lon="-2.22522">
        <ele>59.1</ele>
        <time>2021-05-27T10:04:00Z</time>
      </trkpt>
      <trkpt lat="47.6908" lon="-2.2253">
        <ele>59.3</ele>
        <time>2021-05-27T10:04:01Z</time>
      </trkpt>
      <trkpt lat="47.69081" lon="-2.22538">
        <ele>59.4</ele>
        <time>2021-05-27T10:04:02Z</time>
      </trkpt>
      <trkpt lat="47.69083" lon="-2.22547">
        <ele>59.6</ele>
        <time>2021-05-27T10:04:03Z</time>
      </trkpt>
      <trkpt lat="47.69086" lon="-2.22555">
        <ele>59.7</ele>
        <time>2021-05-27T10:04:04Z</time>
      </trkpt>
      <trkpt lat="47.69087" lon="-2.22564">
        <ele>59.8</ele>
        <time>2021-05-27T10:04:05Z</time>
      </trkpt>
      <trkpt lat="47.69089" lon="-2.22573">
        <ele>59.8</ele>
        <time>2021-05-27T10:04:06Z</time>
      </trkpt>
      <trkpt lat="47.69091" lon="-2.22581">
        <ele>59.9</ele>
        <time>2021-05-27T10:04:07Z</time>
      </trkpt>
      <trkpt lat="47.69093" lon="-2.2259">
        <ele>59.7</ele>
        <time>2021-05-27T10:04:08Z</time>
      </trkpt>
      <trkpt lat="47.69094" lon="-2.22599">
        <ele>59.5</ele>
        <time>2021-05-27T10:04:09Z</time>
      </trkpt>
      <trkpt lat="47.69096" lon="-2.22608">
        <ele>59.3</ele>
        <time>2021-05-27T10:04:10Z</time>
      </trkpt>
      <trkpt lat="47.69097" lon="-2.22616">
        <ele>59</ele>
        <time>2021-05-27T10:04:11Z</time>
      </trkpt>
      <trkpt lat="47.69099" lon="-2.22625">
        <ele>58.8</ele>
        <time>2021-05-27T10:04:12Z</time>
      </trkpt>
      <trkpt lat="47.69101" lon="-2.22633">
        <ele>58.6</ele>
        <time>2021-05-27T10:04:13Z</time>
      </trkpt>
      <trkpt lat="47.69103" lon="-2.22642">
        <ele>58.3</ele>
        <time>2021-05-27T10:04:14Z</time>
      </trkpt>
      <trkpt lat="47.69105" lon="-2.22651">
        <ele>58.1</ele>
        <time>2021-05-27T10:04:15Z</time>
      </trkpt>
      <trkpt lat="47.69106" lon="-2.2266">
        <ele>57.9</ele>
        <time>2021-05-27T10:04:16Z</time>
      </trkpt>
      <trkpt lat="47.69108" lon="-2.22669">
        <ele>57.7</ele>
        <time>2021-05-27T10:04:17Z</time>
      </trkpt>
      <trkpt lat="47.6911" lon="-2.22679">
        <ele>57.7</ele>
        <time>2021-05-27T10:04:18Z</time>
      </trkpt>
      <trkpt lat="47.69111" lon="-2.22688">
        <ele>57.8</ele>
        <time>2021-05-27T10:04:19Z</time>
      </trkpt>
      <trkpt lat="47.69112" lon="-2.22698">
        <ele>57.8</ele>
        <time>2021-05-27T10:04:20Z</time>
      </trkpt>
      <trkpt lat="47.69114" lon="-2.22707">
        <ele>57.8</ele>
        <time>2021-05-27T10:04:21Z</time>
      </trkpt>
      <trkpt lat="47.69115" lon="-2.22716">
        <ele>57.8</ele>
        <time>2021-05-27T10:04:22Z</time>
      </trkpt>
      <trkpt lat="47.69116" lon="-2.22726">
        <ele>57.9</ele>
        <time>2021-05-27T10:04:23Z</time>
      </trkpt>
      <trkpt lat="47.69117" lon="-2.22735">
        <ele>57.9</ele>
        <time>2021-05-27T10:04:24Z</time>
      </trkpt>
      <trkpt lat="47.69118" lon="-2.22744">
        <ele>58</ele>
        <time>2021-05-27T10:04:25Z</time>
      </trkpt>
      <trkpt lat="47.69119" lon="-2.22752">
        <ele>58</ele>
        <time>2021-05-27T10:04:26Z</time>
      </trkpt>
      <trkpt lat="47.69119" lon="-2.22762">
        <ele>57.8</ele>
        <time>2021-05-27T10:04:27Z</time>
      </trkpt>
      <trkpt lat="47.6912" lon="-2.22771">
        <ele>57.6</ele>
        <time>2021-05-27T10:04:28Z</time>
      </trkpt>
      <trkpt lat="47.69121" lon="-2.2278">
        <ele>57.5</ele>
        <time>2021-05-27T10:04:29Z</time>
      </trkpt>
      <trkpt lat="47.69122" lon="-2.2279">
        <ele>57.3</ele>
        <time>2021-05-27T10:04:30Z</time>
      </trkpt>
      <trkpt lat="47.69123" lon="-2.228">
        <ele>57.1</ele>
        <time>2021-05-27T10:04:31Z</time>
      </trkpt>
      <trkpt lat="47.69123" lon="-2.2281">
        <ele>56.9</ele>
        <time>2021-05-27T10:04:32Z</time>
      </trkpt>
      <trkpt lat="47.69124" lon="-2.22819">
        <ele>56.8</ele>
        <time>2021-05-27T10:04:33Z</time>
      </trkpt>
      <trkpt lat="47.69126" lon="-2.22829">
        <ele>56.6</ele>
        <time>2021-05-27T10:04:34Z</time>
      </trkpt>
      <trkpt lat="47.69126" lon="-2.22839">
        <ele>56.4</ele>
        <time>2021-05-27T10:04:35Z</time>
      </trkpt>
      <trkpt lat="47.69126" lon="-2.22849">
        <ele>56.3</ele>
        <time>2021-05-27T10:04:36Z</time>
      </trkpt>
      <trkpt lat="47.69127" lon="-2.22859">
        <ele>56.2</ele>
        <time>2021-05-27T10:04:37Z</time>
      </trkpt>
      <trkpt lat="47.69129" lon="-2.2287">
        <ele>56.1</ele>
        <time>2021-05-27T10:04:38Z</time>
      </trkpt>
      <trkpt lat="47.6913" lon="-2.2288">
        <ele>55.9</ele>
        <time>2021-05-27T10:04:39Z</time>
      </trkpt>
      <trkpt lat="47.69131" lon="-2.2289">
        <ele>55.8</ele>
        <time>2021-05-27T10:04:40Z</time>
      </trkpt>
      <trkpt lat="47.69132" lon="-2.229">
        <ele>55.8</ele>
        <time>2021-05-27T10:04:41Z</time>
      </trkpt>
      <trkpt lat="47.69134" lon="-2.2291">
        <ele>55.7</ele>
        <time>2021-05-27T10:04:42Z</time>
      </trkpt>
      <trkpt lat="47.69135" lon="-2.2292">
        <ele>55.6</ele>
        <time>2021-05-27T10:04:43Z</time>
      </trkpt>
      <trkpt lat="47.69136" lon="-2.2293">
        <ele>55.6</ele>
        <time>2021-05-27T10:04:44Z</time>
      </trkpt>
      <trkpt lat="47.69137" lon="-2.22939">
        <ele>55.6</ele>
        <time>2021-05-27T10:04:45Z</time>
      </trkpt>
      <trkpt lat="47.69139" lon="-2.22949">
        <ele>55.7</ele>
        <time>2021-05-27T10:04:46Z</time>
      </trkpt>
      <trkpt lat="47.6914" lon="-2.22959">
        <ele>55.7</ele>
        <time>2021-05-27T10:04:47Z</time>
      </trkpt>
      <trkpt lat="47.69142" lon="-2.22969">
        <ele>55.7</ele>
        <time>2021-05-27T10:04:48Z</time>
      </trkpt>
      <trkpt lat="47.69143" lon="-2.2298">
        <ele>55.7</ele>
        <time>2021-05-27T10:04:49Z</time>
      </trkpt>
      <trkpt lat="47.69144" lon="-2.2299">
        <ele>55.7</ele>
        <time>2021-05-27T10:04:50Z</time>
      </trkpt>
      <trkpt lat="47.69145" lon="-2.23001">
        <ele>55.7</ele>
        <time>2021-05-27T10:04:51Z</time>
      </trkpt>
      <trkpt lat="47.69146" lon="-2.23011">
        <ele>55.6</ele>
        <time>2021-05-27T10:04:52Z</time>
      </trkpt>
      <trkpt lat="47.69147" lon="-2.23022">
        <ele>55.5</ele>
        <time>2021-05-27T10:04:53Z</time>
      </trkpt>
      <trkpt lat="47.69149" lon="-2.23033">
        <ele>55.4</ele>
        <time>2021-05-27T10:04:54Z</time>
      </trkpt>
      <trkpt lat="47.69149" lon="-2.23043">
        <ele>55.3</ele>
        <time>2021-05-27T10:04:55Z</time>
      </trkpt>
      <trkpt lat="47.6915" lon="-2.23054">
        <ele>55.2</ele>
        <time>2021-05-27T10:04:56Z</time>
      </trkpt>
      <trkpt lat="47.69151" lon="-2.23065">
        <ele>55</ele>
        <time>2021-05-27T10:04:57Z</time>
      </trkpt>
      <trkpt lat="47.69151" lon="-2.23075">
        <ele>54.9</ele>
        <time>2021-05-27T10:04:58Z</time>
      </trkpt>
      <trkpt lat="47.69152" lon="-2.23086">
        <ele>54.8</ele>
        <time>2021-05-27T10:04:59Z</time>
      </trkpt>
      <trkpt lat="47.69153" lon="-2.23096">
        <ele>54.9</ele>
        <time>2021-05-27T10:05:00Z</time>
      </trkpt>
      <trkpt lat="47.69153" lon="-2.23107">
        <ele>54.9</ele>
        <time>2021-05-27T10:05:01Z</time>
      </trkpt>
      <trkpt lat="47.69154" lon="-2.23117">
        <ele>54.9</ele>
        <time>2021-05-27T10:05:02Z</time>
      </trkpt>
      <trkpt lat="47.69155" lon="-2.23127">
        <ele>54.9</ele>
        <time>2021-05-27T10:05:03Z</time>
      </trkpt>
      <trkpt lat="47.69156" lon="-2.23136">
        <ele>55</ele>
        <time>2021-05-27T10:05:04Z</time>
      </trkpt>
      <trkpt lat="47.69157" lon="-2.23146">
        <ele>55</ele>
        <time>2021-05-27T10:05:05Z</time>
      </trkpt>
      <trkpt lat="47.69159" lon="-2.23155">
        <ele>55</ele>
        <time>2021-05-27T10:05:06Z</time>
      </trkpt>
      <trkpt lat="47.69159" lon="-2.23165">
        <ele>55</ele>
        <time>2021-05-27T10:05:07Z</time>
      </trkpt>
      <trkpt lat="47.6916" lon="-2.23175">
        <ele>55.1</ele>
        <time>2021-05-27T10:05:08Z</time>
      </trkpt>
      <trkpt lat="47.69162" lon="-2.23184">
        <ele>55.2</ele>
        <time>2021-05-27T10:05:09Z</time>
      </trkpt>
      <trkpt lat="47.69163" lon="-2.23194">
        <ele>55.3</ele>
        <time>2021-05-27T10:05:10Z</time>
      </trkpt>
      <trkpt lat="47.69164" lon="-2.23204">
        <ele>55.5</ele>
        <time>2021-05-27T10:05:11Z</time>
      </trkpt>
      <trkpt lat="47.69166" lon="-2.23214">
        <ele>55.6</ele>
        <time>2021-05-27T10:05:12Z</time>
      </trkpt>
      <trkpt lat="47.69167" lon="-2.23224">
        <ele>55.7</ele>
        <time>2021-05-27T10:05:13Z</time>
      </trkpt>
      <trkpt lat="47.69168" lon="-2.23234">
        <ele>55.9</ele>
        <time>2021-05-27T10:05:14Z</time>
      </trkpt>
      <trkpt lat="47.69169" lon="-2.23243">
        <ele>56</ele>
        <time>2021-05-27T10:05:15Z</time>
      </trkpt>
      <trkpt lat="47.69169" lon="-2.23252">
        <ele>56.2</ele>
        <time>2021-05-27T10:05:16Z</time>
      </trkpt>
      <trkpt lat="47.6917" lon="-2.23261">
        <ele>56.3</ele>
        <time>2021-05-27T10:05:17Z</time>
      </trkpt>
      <trkpt lat="47.69171" lon="-2.2327">
        <ele>56.5</ele>
        <time>2021-05-27T10:05:18Z</time>
      </trkpt>
      <trkpt lat="47.69172" lon="-2.23279">
        <ele>56.6</ele>
        <time>2021-05-27T10:05:19Z</time>
      </trkpt>
      <trkpt lat="47.69173" lon="-2.23287">
        <ele>56.8</ele>
        <time>2021-05-27T10:05:20Z</time>
      </trkpt>
      <trkpt lat="47.69175" lon="-2.23294">
        <ele>56.9</ele>
        <time>2021-05-27T10:05:21Z</time>
      </trkpt>
      <trkpt lat="47.69179" lon="-2.23299">
        <ele>57.2</ele>
        <time>2021-05-27T10:05:22Z</time>
      </trkpt>
      <trkpt lat="47.69185" lon="-2.23301">
        <ele>57.4</ele>
        <time>2021-05-27T10:05:23Z</time>
      </trkpt>
      <trkpt lat="47.6919" lon="-2.23302">
        <ele>57.7</ele>
        <time>2021-05-27T10:05:24Z</time>
      </trkpt>
      <trkpt lat="47.69195" lon="-2.23302">
        <ele>57.9</ele>
        <time>2021-05-27T10:05:25Z</time>
      </trkpt>
      <trkpt lat="47.692" lon="-2.23302">
        <ele>58.1</ele>
        <time>2021-05-27T10:05:26Z</time>
      </trkpt>
      <trkpt lat="47.69205" lon="-2.23302">
        <ele>58.4</ele>
        <time>2021-05-27T10:05:27Z</time>
      </trkpt>
      <trkpt lat="47.6921" lon="-2.23302">
        <ele>58.6</ele>
        <time>2021-05-27T10:05:28Z</time>
      </trkpt>
      <trkpt lat="47.69215" lon="-2.23302">
        <ele>58.8</ele>
        <time>2021-05-27T10:05:29Z</time>
      </trkpt>
      <trkpt lat="47.69221" lon="-2.23302">
        <ele>59</ele>
        <time>2021-05-27T10:05:30Z</time>
      </trkpt>
      <trkpt lat="47.69225" lon="-2.23302">
        <ele>59.3</ele>
        <time>2021-05-27T10:05:31Z</time>
      </trkpt>
      <trkpt lat="47.69231" lon="-2.23301">
        <ele>59.5</ele>
        <time>2021-05-27T10:05:32Z</time>
      </trkpt>
      <trkpt lat="47.69235" lon="-2.23301">
        <ele>59.7</ele>
        <time>2021-05-27T10:05:33Z</time>
      </trkpt>
      <trkpt lat="47.6924" lon="-2.23301">
        <ele>60</ele>
        <time>2021-05-27T10:05:34Z</time>
      </trkpt>
      <trkpt lat="47.69245" lon="-2.23301">
        <ele>60.2</ele>
        <time>2021-05-27T10:05:35Z</time>
      </trkpt>
      <trkpt lat="47.6925" lon="-2.233">
        <ele>60.4</ele>
        <time>2021-05-27T10:05:36Z</time>
      </trkpt>
      <trkpt lat="47.69255" lon="-2.233">
        <ele>60.7</ele>
        <time>2021-05-27T10:05:37Z</time>
      </trkpt>
      <trkpt lat="47.69259" lon="-2.233">
        <ele>61.1</ele>
        <time>2021-05-27T10:05:38Z</time>
      </trkpt>
      <trkpt lat="47.69264" lon="-2.233">
        <ele>61.4</ele>
        <time>2021-05-27T10:05:39Z</time>
      </trkpt>
      <trkpt lat="47.69268" lon="-2.233">
        <ele>61.7</ele>
        <time>2021-05-27T10:05:40Z</time>
      </trkpt>
      <trkpt lat="47.69273" lon="-2.233">
        <ele>62.1</ele>
        <time>2021-05-27T10:05:41Z</time>
      </trkpt>
      <trkpt lat="47.69278" lon="-2.233">
        <ele>62.4</ele>
        <time>2021-05-27T10:05:42Z</time>
      </trkpt>
      <trkpt lat="47.69283" lon="-2.23299">
        <ele>62.8</ele>
        <time>2021-05-27T10:05:43Z</time>
      </trkpt>
      <trkpt lat="47.69292" lon="-2.23299">
        <ele>63.4</ele>
        <time>2021-05-27T10:05:45Z</time>
      </trkpt>
      <trkpt lat="47.69297" lon="-2.23299">
        <ele>63.8</ele>
        <time>2021-05-27T10:05:46Z</time>
      </trkpt>
      <trkpt lat="47.69301" lon="-2.23299">
        <ele>64.1</ele>
        <time>2021-05-27T10:05:47Z</time>
      </trkpt>
      <trkpt lat="47.69305" lon="-2.23299">
        <ele>64.4</ele>
        <time>2021-05-27T10:05:48Z</time>
      </trkpt>
      <trkpt lat="47.69309" lon="-2.23299">
        <ele>64.6</ele>
        <time>2021-05-27T10:05:49Z</time>
      </trkpt>
      <trkpt lat="47.69313" lon="-2.23298">
        <ele>64.9</ele>
        <time>2021-05-27T10:05:50Z</time>
      </trkpt>
      <trkpt lat="47.69317" lon="-2.23297">
        <ele>65.2</ele>
        <time>2021-05-27T10:05:51Z</time>
      </trkpt>
      <trkpt lat="47.6932" lon="-2.23297">
        <ele>65.5</ele>
        <time>2021-05-27T10:05:52Z</time>
      </trkpt>
      <trkpt lat="47.69324" lon="-2.23296">
        <ele>65.8</ele>
        <time>2021-05-27T10:05:53Z</time>
      </trkpt>
      <trkpt lat="47.69329" lon="-2.23297">
        <ele>66.1</ele>
        <time>2021-05-27T10:05:54Z</time>
      </trkpt>
      <trkpt lat="47.69333" lon="-2.23297">
        <ele>66.4</ele>
        <time>2021-05-27T10:05:55Z</time>
      </trkpt>
      <trkpt lat="47.69337" lon="-2.23296">
        <ele>66.7</ele>
        <time>2021-05-27T10:05:56Z</time>
      </trkpt>
      <trkpt lat="47.69342" lon="-2.23296">
        <ele>67</ele>
        <time>2021-05-27T10:05:57Z</time>
      </trkpt>
      <trkpt lat="47.69346" lon="-2.23295">
        <ele>67.3</ele>
        <time>2021-05-27T10:05:58Z</time>
      </trkpt>
      <trkpt lat="47.69349" lon="-2.23295">
        <ele>67.5</ele>
        <time>2021-05-27T10:05:59Z</time>
      </trkpt>
      <trkpt lat="47.69352" lon="-2.23295">
        <ele>67.7</ele>
        <time>2021-05-27T10:06:00Z</time>
      </trkpt>
      <trkpt lat="47.69356" lon="-2.23296">
        <ele>68</ele>
        <time>2021-05-27T10:06:01Z</time>
      </trkpt>
      <trkpt lat="47.69359" lon="-2.23296">
        <ele>68.2</ele>
        <time>2021-05-27T10:06:02Z</time>
      </trkpt>
      <trkpt lat="47.69362" lon="-2.23296">
        <ele>68.4</ele>
        <time>2021-05-27T10:06:03Z</time>
      </trkpt>
      <trkpt lat="47.69365" lon="-2.23297">
        <ele>68.6</ele>
        <time>2021-05-27T10:06:04Z</time>
      </trkpt>
      <trkpt lat="47.69369" lon="-2.23297">
        <ele>68.9</ele>
        <time>2021-05-27T10:06:05Z</time>
      </trkpt>
      <trkpt lat="47.69372" lon="-2.23298">
        <ele>69.1</ele>
        <time>2021-05-27T10:06:06Z</time>
      </trkpt>
      <trkpt lat="47.69376" lon="-2.23299">
        <ele>69.3</ele>
        <time>2021-05-27T10:06:07Z</time>
      </trkpt>
      <trkpt lat="47.69378" lon="-2.23299">
        <ele>69.5</ele>
        <time>2021-05-27T10:06:08Z</time>
      </trkpt>
      <trkpt lat="47.69379" lon="-2.23299">
        <ele>69.6</ele>
        <time>2021-05-27T10:06:09Z</time>
      </trkpt>
      <trkpt lat="47.69379" lon="-2.233">
        <ele>69.6</ele>
        <time>2021-05-27T10:06:10Z</time>
      </trkpt>
      <trkpt lat="47.69379" lon="-2.233">
        <ele>69.6</ele>
        <time>2021-05-27T10:06:11Z</time>
      </trkpt>
      <trkpt lat="47.69379" lon="-2.233">
        <ele>69.6</ele>
        <time>2021-05-27T10:06:12Z</time>
      </trkpt>
      <trkpt lat="47.69379" lon="-2.233">
        <ele>69.6</ele>
        <time>2021-05-27T10:06:13Z</time>
      </trkpt>
      <trkpt lat="47.69379" lon="-2.233">
        <ele>69.6</ele>
        <time>2021-05-27T10:06:14Z</time>
      </trkpt>
      <trkpt lat="47.69379" lon="-2.233">
        <ele>69.6</ele>
        <time>2021-05-27T10:06:15Z</time>
      </trkpt>
      <trkpt lat="47.69379" lon="-2.233">
        <ele>69.6</ele>
        <time>2021-05-27T10:06:16Z</time>
      </trkpt>
      <trkpt lat="47.69379" lon="-2.233">
        <ele>69.6</ele>
        <time>2021-05-27T10:06:17Z</time>
      </trkpt>
      <trkpt lat="47.69379" lon="-2.233">
        <ele>69.6</ele>
        <time>2021-05-27T10:06:18Z</time>
      </trkpt>
      <trkpt lat="47.69379" lon="-2.233">
        <ele>69.6</ele>
        <time>2021-05-27T10:06:19Z</time>
      </trkpt>
      <trkpt lat="47.69379" lon="-2.233">
        <ele>69.6</ele>
        <time>2021-05-27T10:06:20Z</time>
      </trkpt>
      <trkpt lat="47.69379" lon="-2.233">
        <ele>69.6</ele>
        <time>2021-05-27T10:06:21Z</time>
      </trkpt>
      <trkpt lat="47.69379" lon="-2.233">
        <ele>69.6</ele>
        <time>2021-05-27T10:06:22Z</time>
      </trkpt>
      <trkpt lat="47.69379" lon="-2.233">
        <ele>69.6</ele>
        <time>2021-05-27T10:06:23Z</time>
      </trkpt>
      <trkpt lat="47.69379" lon="-2.233">
        <ele>69.6</ele>
        <time>2021-05-27T10:06:24Z</time>
      </trkpt>
      <trkpt lat="47.69382" lon="-2.23299">
        <ele>69.8</ele>
        <time>2021-05-27T10:06:25Z</time>
      </trkpt>
      <trkpt lat="47.69384" lon="-2.23299">
        <ele>69.9</ele>
        <time>2021-05-27T10:06:26Z</time>
      </trkpt>
      <trkpt lat="47.69386" lon="-2.23299">
        <ele>70.1</ele>
        <time>2021-05-27T10:06:27Z</time>
      </trkpt>
      <trkpt lat="47.69389" lon="-2.23297">
        <ele>70.2</ele>
        <time>2021-05-27T10:06:28Z</time>
      </trkpt>
      <trkpt lat="47.69392" lon="-2.23296">
        <ele>70.4</ele>
        <time>2021-05-27T10:06:29Z</time>
      </trkpt>
      <trkpt lat="47.69395" lon="-2.23294">
        <ele>70.6</ele>
        <time>2021-05-27T10:06:30Z</time>
      </trkpt>
      <trkpt lat="47.69398" lon="-2.2329">
        <ele>70.7</ele>
        <time>2021-05-27T10:06:31Z</time>
      </trkpt>
      <trkpt lat="47.69401" lon="-2.23286">
        <ele>70.9</ele>
        <time>2021-05-27T10:06:32Z</time>
      </trkpt>
      <trkpt lat="47.69403" lon="-2.23282">
        <ele>71</ele>
        <time>2021-05-27T10:06:33Z</time>
      </trkpt>
      <trkpt lat="47.69406" lon="-2.23277">
        <ele>71</ele>
        <time>2021-05-27T10:06:34Z</time>
      </trkpt>
      <trkpt lat="47.69409" lon="-2.23273">
        <ele>71.1</ele>
        <time>2021-05-27T10:06:35Z</time>
      </trkpt>
      <trkpt lat="47.69412" lon="-2.23268">
        <ele>71.2</ele>
        <time>2021-05-27T10:06:36Z</time>
      </trkpt>
      <trkpt lat="47.69415" lon="-2.23264">
        <ele>71.2</ele>
        <time>2021-05-27T10:06:37Z</time>
      </trkpt>
      <trkpt lat="47.69416" lon="-2.2326">
        <ele>71.2</ele>
        <time>2021-05-27T10:06:38Z</time>
      </trkpt>
      <trkpt lat="47.69418" lon="-2.23257">
        <ele>71.2</ele>
        <time>2021-05-27T10:06:39Z</time>
      </trkpt>
      <trkpt lat="47.69419" lon="-2.23252">
        <ele>71.1</ele>
        <time>2021-05-27T10:06:40Z</time>
      </trkpt>
      <trkpt lat="47.69421" lon="-2.23247">
        <ele>71.1</ele>
        <time>2021-05-27T10:06:41Z</time>
      </trkpt>
      <trkpt lat="47.69422" lon="-2.23241">
        <ele>71.2</ele>
        <time>2021-05-27T10:06:42Z</time>
      </trkpt>
      <trkpt lat="47.69424" lon="-2.23235">
        <ele>71.4</ele>
        <time>2021-05-27T10:06:43Z</time>
      </trkpt>
      <trkpt lat="47.69424" lon="-2.23229">
        <ele>71.5</ele>
        <time>2021-05-27T10:06:44Z</time>
      </trkpt>
      <trkpt lat="47.69425" lon="-2.23221">
        <ele>71.6</ele>
        <time>2021-05-27T10:06:45Z</time>
      </trkpt>
      <trkpt lat="47.69426" lon="-2.23214">
        <ele>71.8</ele>
        <time>2021-05-27T10:06:46Z</time>
      </trkpt>
      <trkpt lat="47.69427" lon="-2.23208">
        <ele>71.9</ele>
        <time>2021-05-27T10:06:47Z</time>
      </trkpt>
      <trkpt lat="47.69428" lon="-2.23202">
        <ele>72</ele>
        <time>2021-05-27T10:06:48Z</time>
      </trkpt>
      <trkpt lat="47.6943" lon="-2.23194">
        <ele>72.1</ele>
        <time>2021-05-27T10:06:49Z</time>
      </trkpt>
      <trkpt lat="47.69431" lon="-2.23186">
        <ele>72.2</ele>
        <time>2021-05-27T10:06:50Z</time>
      </trkpt>
      <trkpt lat="47.69432" lon="-2.23178">
        <ele>72.3</ele>
        <time>2021-05-27T10:06:51Z</time>
      </trkpt>
      <trkpt lat="47.69433" lon="-2.23171">
        <ele>72.4</ele>
        <time>2021-05-27T10:06:52Z</time>
      </trkpt>
      <trkpt lat="47.69434" lon="-2.23163">
        <ele>72.3</ele>
        <time>2021-05-27T10:06:53Z</time>
      </trkpt>
      <trkpt lat="47.69434" lon="-2.23156">
        <ele>72.1</ele>
        <time>2021-05-27T10:06:54Z</time>
      </trkpt>
      <trkpt lat="47.69434" lon="-2.23149">
        <ele>72</ele>
        <time>2021-05-27T10:06:55Z</time>
      </trkpt>
      <trkpt lat="47.69433" lon="-2.23143">
        <ele>71.8</ele>
        <time>2021-05-27T10:06:56Z</time>
      </trkpt>
      <trkpt lat="47.69433" lon="-2.23138">
        <ele>71.7</ele>
        <time>2021-05-27T10:06:57Z</time>
      </trkpt>
      <trkpt lat="47.69432" lon="-2.23131">
        <ele>71.6</ele>
        <time>2021-05-27T10:06:58Z</time>
      </trkpt>
      <trkpt lat="47.69433" lon="-2.23124">
        <ele>71.4</ele>
        <time>2021-05-27T10:06:59Z</time>
      </trkpt>
      <trkpt lat="47.69433" lon="-2.23117">
        <ele>71.2</ele>
        <time>2021-05-27T10:07:00Z</time>
      </trkpt>
      <trkpt lat="47.69434" lon="-2.23109">
        <ele>71</ele>
        <time>2021-05-27T10:07:01Z</time>
      </trkpt>
      <trkpt lat="47.69434" lon="-2.23101">
        <ele>70.8</ele>
        <time>2021-05-27T10:07:02Z</time>
      </trkpt>
      <trkpt lat="47.69435" lon="-2.23093">
        <ele>70.6</ele>
        <time>2021-05-27T10:07:03Z</time>
      </trkpt>
      <trkpt lat="47.69434" lon="-2.23084">
        <ele>70.4</ele>
        <time>2021-05-27T10:07:04Z</time>
      </trkpt>
      <trkpt lat="47.69434" lon="-2.23076">
        <ele>70.3</ele>
        <time>2021-05-27T10:07:05Z</time>
      </trkpt>
      <trkpt lat="47.69434" lon="-2.23067">
        <ele>70.2</ele>
        <time>2021-05-27T10:07:06Z</time>
      </trkpt>
      <trkpt lat="47.69435" lon="-2.23059">
        <ele>70.1</ele>
        <time>2021-05-27T10:07:07Z</time>
      </trkpt>
      <trkpt lat="47.69435" lon="-2.2305">
        <ele>70</ele>
        <time>2021-05-27T10:07:08Z</time>
      </trkpt>
      <trkpt lat="47.69437" lon="-2.2304">
        <ele>69.8</ele>
        <time>2021-05-27T10:07:09Z</time>
      </trkpt>
      <trkpt lat="47.69438" lon="-2.23031">
        <ele>69.6</ele>
        <time>2021-05-27T10:07:10Z</time>
      </trkpt>
      <trkpt lat="47.6944" lon="-2.23021">
        <ele>69.3</ele>
        <time>2021-05-27T10:07:11Z</time>
      </trkpt>
      <trkpt lat="47.69442" lon="-2.23013">
        <ele>69.1</ele>
        <time>2021-05-27T10:07:12Z</time>
      </trkpt>
      <trkpt lat="47.69444" lon="-2.23006">
        <ele>68.8</ele>
        <time>2021-05-27T10:07:13Z</time>
      </trkpt>
      <trkpt lat="47.69446" lon="-2.22999">
        <ele>68.6</ele>
        <time>2021-05-27T10:07:14Z</time>
      </trkpt>
      <trkpt lat="47.69448" lon="-2.22993">
        <ele>68.5</ele>
        <time>2021-05-27T10:07:15Z</time>
      </trkpt>
      <trkpt lat="47.69449" lon="-2.22988">
        <ele>68.5</ele>
        <time>2021-05-27T10:07:16Z</time>
      </trkpt>
      <trkpt lat="47.69449" lon="-2.22982">
        <ele>68.6</ele>
        <time>2021-05-27T10:07:17Z</time>
      </trkpt>
      <trkpt lat="47.6945" lon="-2.22978">
        <ele>68.6</ele>
        <time>2021-05-27T10:07:18Z</time>
      </trkpt>
      <trkpt lat="47.6945" lon="-2.22974">
        <ele>68.6</ele>
        <time>2021-05-27T10:07:19Z</time>
      </trkpt>
      <trkpt lat="47.69451" lon="-2.2297">
        <ele>68.6</ele>
        <time>2021-05-27T10:07:20Z</time>
      </trkpt>
      <trkpt lat="47.69451" lon="-2.22965">
        <ele>68.7</ele>
        <time>2021-05-27T10:07:21Z</time>
      </trkpt>
      <trkpt lat="47.69451" lon="-2.2296">
        <ele>68.8</ele>
        <time>2021-05-27T10:07:22Z</time>
      </trkpt>
      <trkpt lat="47.6945" lon="-2.22954">
        <ele>69</ele>
        <time>2021-05-27T10:07:23Z</time>
      </trkpt>
      <trkpt lat="47.69449" lon="-2.22948">
        <ele>69.2</ele>
        <time>2021-05-27T10:07:24Z</time>
      </trkpt>
      <trkpt lat="47.69448" lon="-2.22941">
        <ele>69.4</ele>
        <time>2021-05-27T10:07:25Z</time>
      </trkpt>
      <trkpt lat="47.69447" lon="-2.22935">
        <ele>69.6</ele>
        <time>2021-05-27T10:07:26Z</time>
      </trkpt>
      <trkpt lat="47.69446" lon="-2.22929">
        <ele>69.7</ele>
        <time>2021-05-27T10:07:27Z</time>
      </trkpt>
      <trkpt lat="47.69445" lon="-2.22926">
        <ele>69.8</ele>
        <time>2021-05-27T10:07:28Z</time>
      </trkpt>
      <trkpt lat="47.69445" lon="-2.22924">
        <ele>69.8</ele>
        <time>2021-05-27T10:07:29Z</time>
      </trkpt>
      <trkpt lat="47.69447" lon="-2.22924">
        <ele>69.7</ele>
        <time>2021-05-27T10:07:30Z</time>
      </trkpt>
      <trkpt lat="47.6945" lon="-2.22925">
        <ele>69.5</ele>
        <time>2021-05-27T10:07:31Z</time>
      </trkpt>
      <trkpt lat="47.69453" lon="-2.22924">
        <ele>69.2</ele>
        <time>2021-05-27T10:07:32Z</time>
      </trkpt>
      <trkpt lat="47.69457" lon="-2.22923">
        <ele>69</ele>
        <time>2021-05-27T10:07:33Z</time>
      </trkpt>
      <trkpt lat="47.6946" lon="-2.22921">
        <ele>68.8</ele>
        <time>2021-05-27T10:07:34Z</time>
      </trkpt>
      <trkpt lat="47.69464" lon="-2.2292">
        <ele>68.5</ele>
        <time>2021-05-27T10:07:35Z</time>
      </trkpt>
      <trkpt lat="47.69469" lon="-2.22918">
        <ele>68.2</ele>
        <time>2021-05-27T10:07:36Z</time>
      </trkpt>
      <trkpt lat="47.69474" lon="-2.22917">
        <ele>67.9</ele>
        <time>2021-05-27T10:07:37Z</time>
      </trkpt>
      <trkpt lat="47.69479" lon="-2.22915">
        <ele>67.5</ele>
        <time>2021-05-27T10:07:38Z</time>
      </trkpt>
      <trkpt lat="47.69486" lon="-2.22914">
        <ele>67</ele>
        <time>2021-05-27T10:07:39Z</time>
      </trkpt>
      <trkpt lat="47.69492" lon="-2.22914">
        <ele>66.6</ele>
        <time>2021-05-27T10:07:40Z</time>
      </trkpt>
      <trkpt lat="47.69499" lon="-2.22912">
        <ele>66.1</ele>
        <time>2021-05-27T10:07:41Z</time>
      </trkpt>
      <trkpt lat="47.69506" lon="-2.22912">
        <ele>65.1</ele>
        <time>2021-05-27T10:07:42Z</time>
      </trkpt>
      <trkpt lat="47.69513" lon="-2.22911">
        <ele>64.1</ele>
        <time>2021-05-27T10:07:43Z</time>
      </trkpt>
      <trkpt lat="47.69518" lon="-2.22908">
        <ele>63.2</ele>
        <time>2021-05-27T10:07:44Z</time>
      </trkpt>
      <trkpt lat="47.69523" lon="-2.22909">
        <ele>62.5</ele>
        <time>2021-05-27T10:07:45Z</time>
      </trkpt>
      <trkpt lat="47.69527" lon="-2.22908">
        <ele>61.8</ele>
        <time>2021-05-27T10:07:46Z</time>
      </trkpt>
      <trkpt lat="47.6953" lon="-2.22905">
        <ele>61.4</ele>
        <time>2021-05-27T10:07:47Z</time>
      </trkpt>
      <trkpt lat="47.69533" lon="-2.22901">
        <ele>61.1</ele>
        <time>2021-05-27T10:07:48Z</time>
      </trkpt>
      <trkpt lat="47.69534" lon="-2.22898">
        <ele>61</ele>
        <time>2021-05-27T10:07:49Z</time>
      </trkpt>
      <trkpt lat="47.69534" lon="-2.22894">
        <ele>60.9</ele>
        <time>2021-05-27T10:07:50Z</time>
      </trkpt>
      <trkpt lat="47.69534" lon="-2.2289">
        <ele>61</ele>
        <time>2021-05-27T10:07:51Z</time>
      </trkpt>
      <trkpt lat="47.69534" lon="-2.22885">
        <ele>61.1</ele>
        <time>2021-05-27T10:07:52Z</time>
      </trkpt>
      <trkpt lat="47.69533" lon="-2.22882">
        <ele>61.2</ele>
        <time>2021-05-27T10:07:53Z</time>
      </trkpt>
      <trkpt lat="47.69535" lon="-2.22878">
        <ele>61.1</ele>
        <time>2021-05-27T10:07:54Z</time>
      </trkpt>
      <trkpt lat="47.69536" lon="-2.22874">
        <ele>60.9</ele>
        <time>2021-05-27T10:07:55Z</time>
      </trkpt>
      <trkpt lat="47.69537" lon="-2.22871">
        <ele>60.8</ele>
        <time>2021-05-27T10:07:56Z</time>
      </trkpt>
      <trkpt lat="47.69538" lon="-2.22867">
        <ele>60.7</ele>
        <time>2021-05-27T10:07:57Z</time>
      </trkpt>
      <trkpt lat="47.69538" lon="-2.22863">
        <ele>60.7</ele>
        <time>2021-05-27T10:07:58Z</time>
      </trkpt>
      <trkpt lat="47.69538" lon="-2.22859">
        <ele>60.8</ele>
        <time>2021-05-27T10:07:59Z</time>
      </trkpt>
      <trkpt lat="47.69537" lon="-2.22854">
        <ele>60.9</ele>
        <time>2021-05-27T10:08:00Z</time>
      </trkpt>
      <trkpt lat="47.69537" lon="-2.2285">
        <ele>61</ele>
        <time>2021-05-27T10:08:01Z</time>
      </trkpt>
      <trkpt lat="47.69537" lon="-2.22848">
        <ele>61</ele>
        <time>2021-05-27T10:08:02Z</time>
      </trkpt>
      <trkpt lat="47.69538" lon="-2.22846">
        <ele>60.9</ele>
        <time>2021-05-27T10:08:03Z</time>
      </trkpt>
      <trkpt lat="47.69541" lon="-2.22848">
        <ele>60.5</ele>
        <time>2021-05-27T10:08:04Z</time>
      </trkpt>
      <trkpt lat="47.69543" lon="-2.22849">
        <ele>60.1</ele>
        <time>2021-05-27T10:08:05Z</time>
      </trkpt>
      <trkpt lat="47.69547" lon="-2.2285">
        <ele>59.5</ele>
        <time>2021-05-27T10:08:06Z</time>
      </trkpt>
      <trkpt lat="47.69551" lon="-2.22851">
        <ele>58.8</ele>
        <time>2021-05-27T10:08:07Z</time>
      </trkpt>
      <trkpt lat="47.69556" lon="-2.22854">
        <ele>58</ele>
        <time>2021-05-27T10:08:08Z</time>
      </trkpt>
      <trkpt lat="47.6956" lon="-2.22857">
        <ele>57.3</ele>
        <time>2021-05-27T10:08:09Z</time>
      </trkpt>
      <trkpt lat="47.69565" lon="-2.2286">
        <ele>56.5</ele>
        <time>2021-05-27T10:08:10Z</time>
      </trkpt>
      <trkpt lat="47.6957" lon="-2.22864">
        <ele>55.7</ele>
        <time>2021-05-27T10:08:11Z</time>
      </trkpt>
      <trkpt lat="47.69574" lon="-2.22868">
        <ele>55</ele>
        <time>2021-05-27T10:08:12Z</time>
      </trkpt>
      <trkpt lat="47.69577" lon="-2.22873">
        <ele>54.5</ele>
        <time>2021-05-27T10:08:13Z</time>
      </trkpt>
      <trkpt lat="47.6958" lon="-2.22879">
        <ele>53.9</ele>
        <time>2021-05-27T10:08:14Z</time>
      </trkpt>
      <trkpt lat="47.69583" lon="-2.22886">
        <ele>53.4</ele>
        <time>2021-05-27T10:08:15Z</time>
      </trkpt>
      <trkpt lat="47.69584" lon="-2.22894">
        <ele>53.1</ele>
        <time>2021-05-27T10:08:16Z</time>
      </trkpt>
      <trkpt lat="47.69586" lon="-2.22902">
        <ele>52.5</ele>
        <time>2021-05-27T10:08:17Z</time>
      </trkpt>
      <trkpt lat="47.69589" lon="-2.22911">
        <ele>52</ele>
        <time>2021-05-27T10:08:18Z</time>
      </trkpt>
      <trkpt lat="47.69591" lon="-2.22921">
        <ele>51.5</ele>
        <time>2021-05-27T10:08:19Z</time>
      </trkpt>
      <trkpt lat="47.69592" lon="-2.22931">
        <ele>51.3</ele>
        <time>2021-05-27T10:08:20Z</time>
      </trkpt>
      <trkpt lat="47.69594" lon="-2.22941">
        <ele>51.2</ele>
        <time>2021-05-27T10:08:21Z</time>
      </trkpt>
      <trkpt lat="47.69596" lon="-2.22951">
        <ele>51.1</ele>
        <time>2021-05-27T10:08:22Z</time>
      </trkpt>
      <trkpt lat="47.69597" lon="-2.22959">
        <ele>51</ele>
        <time>2021-05-27T10:08:23Z</time>
      </trkpt>
      <trkpt lat="47.69599" lon="-2.22968">
        <ele>50.7</ele>
        <time>2021-05-27T10:08:24Z</time>
      </trkpt>
      <trkpt lat="47.696" lon="-2.22978">
        <ele>50.7</ele>
        <time>2021-05-27T10:08:25Z</time>
      </trkpt>
      <trkpt lat="47.69601" lon="-2.22987">
        <ele>50.7</ele>
        <time>2021-05-27T10:08:26Z</time>
      </trkpt>
      <trkpt lat="47.69602" lon="-2.22996">
        <ele>50.8</ele>
        <time>2021-05-27T10:08:27Z</time>
      </trkpt>
      <trkpt lat="47.69602" lon="-2.23005">
        <ele>50.8</ele>
        <time>2021-05-27T10:08:28Z</time>
      </trkpt>
      <trkpt lat="47.69603" lon="-2.23013">
        <ele>51</ele>
        <time>2021-05-27T10:08:29Z</time>
      </trkpt>
      <trkpt lat="47.69603" lon="-2.2302">
        <ele>51.1</ele>
        <time>2021-05-27T10:08:30Z</time>
      </trkpt>
      <trkpt lat="47.69604" lon="-2.23027">
        <ele>51.2</ele>
        <time>2021-05-27T10:08:31Z</time>
      </trkpt>
      <trkpt lat="47.69605" lon="-2.23033">
        <ele>51.2</ele>
        <time>2021-05-27T10:08:32Z</time>
      </trkpt>
      <trkpt lat="47.69605" lon="-2.23035">
        <ele>51.1</ele>
        <time>2021-05-27T10:08:33Z</time>
      </trkpt>
      <trkpt lat="47.69605" lon="-2.23036">
        <ele>51.3</ele>
        <time>2021-05-27T10:08:34Z</time>
      </trkpt>
      <trkpt lat="47.69605" lon="-2.23036">
        <ele>51.3</ele>
        <time>2021-05-27T10:08:35Z</time>
      </trkpt>
      <trkpt lat="47.69605" lon="-2.23037">
        <ele>51.3</ele>
        <time>2021-05-27T10:08:36Z</time>
      </trkpt>
      <trkpt lat="47.69604" lon="-2.23037">
        <ele>51.5</ele>
        <time>2021-05-27T10:08:37Z</time>
      </trkpt>
      <trkpt lat="47.69604" lon="-2.23037">
        <ele>51.5</ele>
        <time>2021-05-27T10:08:38Z</time>
      </trkpt>
      <trkpt lat="47.69604" lon="-2.23037">
        <ele>51.5</ele>
        <time>2021-05-27T10:08:39Z</time>
      </trkpt>
      <trkpt lat="47.69604" lon="-2.23037">
        <ele>51.5</ele>
        <time>2021-05-27T10:08:40Z</time>
      </trkpt>
      <trkpt lat="47.69604" lon="-2.23037">
        <ele>51.5</ele>
        <time>2021-05-27T10:08:41Z</time>
      </trkpt>
      <trkpt lat="47.69604" lon="-2.23037">
        <ele>51.5</ele>
        <time>2021-05-27T10:08:42Z</time>
      </trkpt>
      <trkpt lat="47.69604" lon="-2.23037">
        <ele>51.5</ele>
        <time>2021-05-27T10:08:43Z</time>
      </trkpt>
      <trkpt lat="47.69604" lon="-2.23037">
        <ele>51.5</ele>
        <time>2021-05-27T10:08:44Z</time>
      </trkpt>
      <trkpt lat="47.69604" lon="-2.23037">
        <ele>51.5</ele>
        <time>2021-05-27T10:08:45Z</time>
      </trkpt>
      <trkpt lat="47.69609" lon="-2.23037">
        <ele>50.3</ele>
        <time>2021-05-27T10:08:46Z</time>
      </trkpt>
      <trkpt lat="47.69611" lon="-2.23039">
        <ele>50</ele>
        <time>2021-05-27T10:08:47Z</time>
      </trkpt>
      <trkpt lat="47.69613" lon="-2.23041">
        <ele>49.5</ele>
        <time>2021-05-27T10:08:48Z</time>
      </trkpt>
      <trkpt lat="47.69615" lon="-2.23045">
        <ele>49.2</ele>
        <time>2021-05-27T10:08:49Z</time>
      </trkpt>
      <trkpt lat="47.69616" lon="-2.23049">
        <ele>49</ele>
        <time>2021-05-27T10:08:50Z</time>
      </trkpt>
      <trkpt lat="47.69617" lon="-2.23052">
        <ele>48.9</ele>
        <time>2021-05-27T10:08:51Z</time>
      </trkpt>
      <trkpt lat="47.69618" lon="-2.23058">
        <ele>48.8</ele>
        <time>2021-05-27T10:08:52Z</time>
      </trkpt>
      <trkpt lat="47.6962" lon="-2.23062">
        <ele>48.5</ele>
        <time>2021-05-27T10:08:53Z</time>
      </trkpt>
      <trkpt lat="47.69622" lon="-2.23068">
        <ele>48.4</ele>
        <time>2021-05-27T10:08:54Z</time>
      </trkpt>
      <trkpt lat="47.69621" lon="-2.23074">
        <ele>48.6</ele>
        <time>2021-05-27T10:08:55Z</time>
      </trkpt>
      <trkpt lat="47.6962" lon="-2.2308">
        <ele>49</ele>
        <time>2021-05-27T10:08:56Z</time>
      </trkpt>
      <trkpt lat="47.6962" lon="-2.23086">
        <ele>49.4</ele>
        <time>2021-05-27T10:08:57Z</time>
      </trkpt>
      <trkpt lat="47.6962" lon="-2.23092">
        <ele>49.7</ele>
        <time>2021-05-27T10:08:58Z</time>
      </trkpt>
      <trkpt lat="47.69619" lon="-2.231">
        <ele>50.1</ele>
        <time>2021-05-27T10:08:59Z</time>
      </trkpt>
      <trkpt lat="47.6962" lon="-2.23106">
        <ele>50.4</ele>
        <time>2021-05-27T10:09:00Z</time>
      </trkpt>
      <trkpt lat="47.69621" lon="-2.23112">
        <ele>50.3</ele>
        <time>2021-05-27T10:09:01Z</time>
      </trkpt>
      <trkpt lat="47.69622" lon="-2.2312">
        <ele>50.4</ele>
        <time>2021-05-27T10:09:02Z</time>
      </trkpt>
      <trkpt lat="47.69624" lon="-2.23127">
        <ele>50.4</ele>
        <time>2021-05-27T10:09:03Z</time>
      </trkpt>
      <trkpt lat="47.69625" lon="-2.23133">
        <ele>50.3</ele>
        <time>2021-05-27T10:09:04Z</time>
      </trkpt>
      <trkpt lat="47.69627" lon="-2.2314">
        <ele>50.3</ele>
        <time>2021-05-27T10:09:05Z</time>
      </trkpt>
      <trkpt lat="47.69628" lon="-2.23146">
        <ele>50.3</ele>
        <time>2021-05-27T10:09:06Z</time>
      </trkpt>
      <trkpt lat="47.69629" lon="-2.23154">
        <ele>50.2</ele>
        <time>2021-05-27T10:09:07Z</time>
      </trkpt>
      <trkpt lat="47.69631" lon="-2.2316">
        <ele>50.2</ele>
        <time>2021-05-27T10:09:08Z</time>
      </trkpt>
      <trkpt lat="47.69631" lon="-2.23168">
        <ele>50.4</ele>
        <time>2021-05-27T10:09:09Z</time>
      </trkpt>
      <trkpt lat="47.69632" lon="-2.23175">
        <ele>50.5</ele>
        <time>2021-05-27T10:09:10Z</time>
      </trkpt>
      <trkpt lat="47.69632" lon="-2.23182">
        <ele>50.5</ele>
        <time>2021-05-27T10:09:11Z</time>
      </trkpt>
      <trkpt lat="47.69633" lon="-2.23188">
        <ele>50.4</ele>
        <time>2021-05-27T10:09:12Z</time>
      </trkpt>
      <trkpt lat="47.69634" lon="-2.23194">
        <ele>50.3</ele>
        <time>2021-05-27T10:09:13Z</time>
      </trkpt>
      <trkpt lat="47.69636" lon="-2.232">
        <ele>50.1</ele>
        <time>2021-05-27T10:09:14Z</time>
      </trkpt>
      <trkpt lat="47.69636" lon="-2.23206">
        <ele>50.2</ele>
        <time>2021-05-27T10:09:15Z</time>
      </trkpt>
      <trkpt lat="47.69638" lon="-2.23212">
        <ele>50</ele>
        <time>2021-05-27T10:09:16Z</time>
      </trkpt>
      <trkpt lat="47.69639" lon="-2.23219">
        <ele>49.8</ele>
        <time>2021-05-27T10:09:17Z</time>
      </trkpt>
      <trkpt lat="47.6964" lon="-2.23227">
        <ele>49.8</ele>
        <time>2021-05-27T10:09:18Z</time>
      </trkpt>
      <trkpt lat="47.69641" lon="-2.23235">
        <ele>49.5</ele>
        <time>2021-05-27T10:09:19Z</time>
      </trkpt>
      <trkpt lat="47.69642" lon="-2.23243">
        <ele>49.6</ele>
        <time>2021-05-27T10:09:20Z</time>
      </trkpt>
      <trkpt lat="47.69643" lon="-2.23251">
        <ele>49.6</ele>
        <time>2021-05-27T10:09:21Z</time>
      </trkpt>
      <trkpt lat="47.69644" lon="-2.23258">
        <ele>49.1</ele>
        <time>2021-05-27T10:09:22Z</time>
      </trkpt>
      <trkpt lat="47.69646" lon="-2.23263">
        <ele>48.7</ele>
        <time>2021-05-27T10:09:23Z</time>
      </trkpt>
      <trkpt lat="47.69649" lon="-2.23265">
        <ele>47.6</ele>
        <time>2021-05-27T10:09:24Z</time>
      </trkpt>
      <trkpt lat="47.69652" lon="-2.23266">
        <ele>46.8</ele>
        <time>2021-05-27T10:09:25Z</time>
      </trkpt>
      <trkpt lat="47.69657" lon="-2.23268">
        <ele>45.7</ele>
        <time>2021-05-27T10:09:26Z</time>
      </trkpt>
      <trkpt lat="47.69661" lon="-2.23268">
        <ele>44.5</ele>
        <time>2021-05-27T10:09:27Z</time>
      </trkpt>
      <trkpt lat="47.69666" lon="-2.23268">
        <ele>43.3</ele>
        <time>2021-05-27T10:09:28Z</time>
      </trkpt>
      <trkpt lat="47.69672" lon="-2.23267">
        <ele>42</ele>
        <time>2021-05-27T10:09:29Z</time>
      </trkpt>
      <trkpt lat="47.69677" lon="-2.23263">
        <ele>40.9</ele>
        <time>2021-05-27T10:09:30Z</time>
      </trkpt>
      <trkpt lat="47.6968" lon="-2.23258">
        <ele>40.3</ele>
        <time>2021-05-27T10:09:31Z</time>
      </trkpt>
      <trkpt lat="47.69683" lon="-2.23252">
        <ele>39.7</ele>
        <time>2021-05-27T10:09:32Z</time>
      </trkpt>
      <trkpt lat="47.69686" lon="-2.23245">
        <ele>39</ele>
        <time>2021-05-27T10:09:33Z</time>
      </trkpt>
      <trkpt lat="47.69689" lon="-2.23238">
        <ele>38.2</ele>
        <time>2021-05-27T10:09:34Z</time>
      </trkpt>
      <trkpt lat="47.69692" lon="-2.2323">
        <ele>37.3</ele>
        <time>2021-05-27T10:09:35Z</time>
      </trkpt>
      <trkpt lat="47.69695" lon="-2.23223">
        <ele>36.5</ele>
        <time>2021-05-27T10:09:36Z</time>
      </trkpt>
      <trkpt lat="47.69698" lon="-2.23215">
        <ele>35.7</ele>
        <time>2021-05-27T10:09:37Z</time>
      </trkpt>
      <trkpt lat="47.69701" lon="-2.23207">
        <ele>34.9</ele>
        <time>2021-05-27T10:09:38Z</time>
      </trkpt>
      <trkpt lat="47.69704" lon="-2.23198">
        <ele>34.1</ele>
        <time>2021-05-27T10:09:39Z</time>
      </trkpt>
      <trkpt lat="47.69707" lon="-2.23189">
        <ele>33.3</ele>
        <time>2021-05-27T10:09:40Z</time>
      </trkpt>
      <trkpt lat="47.69709" lon="-2.2318">
        <ele>32.6</ele>
        <time>2021-05-27T10:09:41Z</time>
      </trkpt>
      <trkpt lat="47.69711" lon="-2.23171">
        <ele>32</ele>
        <time>2021-05-27T10:09:42Z</time>
      </trkpt>
      <trkpt lat="47.69714" lon="-2.23163">
        <ele>31.4</ele>
        <time>2021-05-27T10:09:43Z</time>
      </trkpt>
      <trkpt lat="47.69715" lon="-2.23154">
        <ele>30.9</ele>
        <time>2021-05-27T10:09:44Z</time>
      </trkpt>
      <trkpt lat="47.69717" lon="-2.23145">
        <ele>30.5</ele>
        <time>2021-05-27T10:09:45Z</time>
      </trkpt>
      <trkpt lat="47.69718" lon="-2.23137">
        <ele>30.1</ele>
        <time>2021-05-27T10:09:46Z</time>
      </trkpt>
      <trkpt lat="47.69719" lon="-2.23129">
        <ele>29.8</ele>
        <time>2021-05-27T10:09:47Z</time>
      </trkpt>
      <trkpt lat="47.6972" lon="-2.23121">
        <ele>29.6</ele>
        <time>2021-05-27T10:09:48Z</time>
      </trkpt>
      <trkpt lat="47.6972" lon="-2.23113">
        <ele>29.3</ele>
        <time>2021-05-27T10:09:49Z</time>
      </trkpt>
      <trkpt lat="47.69722" lon="-2.23105">
        <ele>29</ele>
        <time>2021-05-27T10:09:50Z</time>
      </trkpt>
      <trkpt lat="47.69723" lon="-2.23096">
        <ele>28.8</ele>
        <time>2021-05-27T10:09:51Z</time>
      </trkpt>
      <trkpt lat="47.69723" lon="-2.23088">
        <ele>28.7</ele>
        <time>2021-05-27T10:09:52Z</time>
      </trkpt>
      <trkpt lat="47.69722" lon="-2.23079">
        <ele>28.7</ele>
        <time>2021-05-27T10:09:53Z</time>
      </trkpt>
      <trkpt lat="47.69721" lon="-2.23071">
        <ele>28.7</ele>
        <time>2021-05-27T10:09:54Z</time>
      </trkpt>
      <trkpt lat="47.69721" lon="-2.23063">
        <ele>28.8</ele>
        <time>2021-05-27T10:09:55Z</time>
      </trkpt>
      <trkpt lat="47.6972" lon="-2.23055">
        <ele>28.8</ele>
        <time>2021-05-27T10:09:56Z</time>
      </trkpt>
      <trkpt lat="47.69719" lon="-2.23046">
        <ele>28.9</ele>
        <time>2021-05-27T10:09:57Z</time>
      </trkpt>
      <trkpt lat="47.69718" lon="-2.23039">
        <ele>29</ele>
        <time>2021-05-27T10:09:58Z</time>
      </trkpt>
      <trkpt lat="47.69717" lon="-2.23032">
        <ele>29.1</ele>
        <time>2021-05-27T10:09:59Z</time>
      </trkpt>
      <trkpt lat="47.69715" lon="-2.23024">
        <ele>29.3</ele>
        <time>2021-05-27T10:10:00Z</time>
      </trkpt>
      <trkpt lat="47.69714" lon="-2.23017">
        <ele>29.4</ele>
        <time>2021-05-27T10:10:01Z</time>
      </trkpt>
      <trkpt lat="47.69712" lon="-2.23009">
        <ele>29.5</ele>
        <time>2021-05-27T10:10:02Z</time>
      </trkpt>
      <trkpt lat="47.69711" lon="-2.23002">
        <ele>29.7</ele>
        <time>2021-05-27T10:10:03Z</time>
      </trkpt>
      <trkpt lat="47.69709" lon="-2.22995">
        <ele>29.8</ele>
        <time>2021-05-27T10:10:04Z</time>
      </trkpt>
      <trkpt lat="47.69708" lon="-2.22988">
        <ele>30</ele>
        <time>2021-05-27T10:10:05Z</time>
      </trkpt>
      <trkpt lat="47.69707" lon="-2.22981">
        <ele>30.1</ele>
        <time>2021-05-27T10:10:06Z</time>
      </trkpt>
      <trkpt lat="47.69704" lon="-2.22975">
        <ele>30.4</ele>
        <time>2021-05-27T10:10:07Z</time>
      </trkpt>
      <trkpt lat="47.69703" lon="-2.2297">
        <ele>30.6</ele>
        <time>2021-05-27T10:10:08Z</time>
      </trkpt>
      <trkpt lat="47.69701" lon="-2.22962">
        <ele>30.8</ele>
        <time>2021-05-27T10:10:09Z</time>
      </trkpt>
      <trkpt lat="47.69699" lon="-2.22955">
        <ele>31</ele>
        <time>2021-05-27T10:10:10Z</time>
      </trkpt>
      <trkpt lat="47.69697" lon="-2.22949">
        <ele>31.2</ele>
        <time>2021-05-27T10:10:11Z</time>
      </trkpt>
      <trkpt lat="47.69695" lon="-2.22942">
        <ele>31.4</ele>
        <time>2021-05-27T10:10:12Z</time>
      </trkpt>
      <trkpt lat="47.69692" lon="-2.22941">
        <ele>31.8</ele>
        <time>2021-05-27T10:10:35Z</time>
      </trkpt>
      <trkpt lat="47.69691" lon="-2.22941">
        <ele>32</ele>
        <time>2021-05-27T10:10:36Z</time>
      </trkpt>
      <trkpt lat="47.69689" lon="-2.22941">
        <ele>32.3</ele>
        <time>2021-05-27T10:10:37Z</time>
      </trkpt>
      <trkpt lat="47.69687" lon="-2.22941">
        <ele>32.6</ele>
        <time>2021-05-27T10:10:38Z</time>
      </trkpt>
      <trkpt lat="47.69684" lon="-2.22941">
        <ele>32.9</ele>
        <time>2021-05-27T10:10:39Z</time>
      </trkpt>
      <trkpt lat="47.69682" lon="-2.22941">
        <ele>33.3</ele>
        <time>2021-05-27T10:10:40Z</time>
      </trkpt>
      <trkpt lat="47.69679" lon="-2.22941">
        <ele>33.6</ele>
        <time>2021-05-27T10:10:41Z</time>
      </trkpt>
      <trkpt lat="47.69677" lon="-2.22941">
        <ele>33.9</ele>
        <time>2021-05-27T10:10:42Z</time>
      </trkpt>
      <trkpt lat="47.69674" lon="-2.22941">
        <ele>34.2</ele>
        <time>2021-05-27T10:10:43Z</time>
      </trkpt>
      <trkpt lat="47.69671" lon="-2.22941">
        <ele>34.7</ele>
        <time>2021-05-27T10:10:44Z</time>
      </trkpt>
      <trkpt lat="47.69668" lon="-2.22942">
        <ele>35.1</ele>
        <time>2021-05-27T10:10:45Z</time>
      </trkpt>
      <trkpt lat="47.69665" lon="-2.22942">
        <ele>35.6</ele>
        <time>2021-05-27T10:10:46Z</time>
      </trkpt>
      <trkpt lat="47.69663" lon="-2.22943">
        <ele>36.2</ele>
        <time>2021-05-27T10:10:47Z</time>
      </trkpt>
      <trkpt lat="47.6966" lon="-2.22944">
        <ele>36.8</ele>
        <time>2021-05-27T10:10:48Z</time>
      </trkpt>
      <trkpt lat="47.69657" lon="-2.22944">
        <ele>37.5</ele>
        <time>2021-05-27T10:10:49Z</time>
      </trkpt>
      <trkpt lat="47.69654" lon="-2.22945">
        <ele>38</ele>
        <time>2021-05-27T10:10:50Z</time>
      </trkpt>
      <trkpt lat="47.69652" lon="-2.22945">
        <ele>38.6</ele>
        <time>2021-05-27T10:10:51Z</time>
      </trkpt>
      <trkpt lat="47.69649" lon="-2.22947">
        <ele>39.2</ele>
        <time>2021-05-27T10:10:52Z</time>
      </trkpt>
      <trkpt lat="47.69646" lon="-2.22947">
        <ele>40</ele>
        <time>2021-05-27T10:10:53Z</time>
      </trkpt>
      <trkpt lat="47.69644" lon="-2.22947">
        <ele>40.5</ele>
        <time>2021-05-27T10:10:54Z</time>
      </trkpt>
      <trkpt lat="47.69642" lon="-2.22947">
        <ele>40.9</ele>
        <time>2021-05-27T10:10:55Z</time>
      </trkpt>
      <trkpt lat="47.69639" lon="-2.22948">
        <ele>41.4</ele>
        <time>2021-05-27T10:10:56Z</time>
      </trkpt>
      <trkpt lat="47.69636" lon="-2.22951">
        <ele>42.1</ele>
        <time>2021-05-27T10:10:57Z</time>
      </trkpt>
      <trkpt lat="47.69634" lon="-2.22953">
        <ele>42.7</ele>
        <time>2021-05-27T10:10:58Z</time>
      </trkpt>
      <trkpt lat="47.69632" lon="-2.22955">
        <ele>43.2</ele>
        <time>2021-05-27T10:10:59Z</time>
      </trkpt>
      <trkpt lat="47.69629" lon="-2.22958">
        <ele>43.7</ele>
        <time>2021-05-27T10:11:00Z</time>
      </trkpt>
      <trkpt lat="47.69627" lon="-2.2296">
        <ele>44.3</ele>
        <time>2021-05-27T10:11:01Z</time>
      </trkpt>
      <trkpt lat="47.69626" lon="-2.22963">
        <ele>44.6</ele>
        <time>2021-05-27T10:11:02Z</time>
      </trkpt>
      <trkpt lat="47.69625" lon="-2.22967">
        <ele>45</ele>
        <time>2021-05-27T10:11:03Z</time>
      </trkpt>
      <trkpt lat="47.69624" lon="-2.2297">
        <ele>45.3</ele>
        <time>2021-05-27T10:11:04Z</time>
      </trkpt>
      <trkpt lat="47.69623" lon="-2.22973">
        <ele>45.5</ele>
        <time>2021-05-27T10:11:05Z</time>
      </trkpt>
      <trkpt lat="47.69622" lon="-2.22974">
        <ele>45.8</ele>
        <time>2021-05-27T10:11:06Z</time>
      </trkpt>
      <trkpt lat="47.6962" lon="-2.22976">
        <ele>46.1</ele>
        <time>2021-05-27T10:11:07Z</time>
      </trkpt>
      <trkpt lat="47.69619" lon="-2.22976">
        <ele>46.5</ele>
        <time>2021-05-27T10:11:08Z</time>
      </trkpt>
      <trkpt lat="47.69618" lon="-2.22978">
        <ele>46.6</ele>
        <time>2021-05-27T10:11:09Z</time>
      </trkpt>
      <trkpt lat="47.69617" lon="-2.22981">
        <ele>47</ele>
        <time>2021-05-27T10:11:10Z</time>
      </trkpt>
      <trkpt lat="47.69615" lon="-2.22984">
        <ele>47.4</ele>
        <time>2021-05-27T10:11:11Z</time>
      </trkpt>
      <trkpt lat="47.69613" lon="-2.22986">
        <ele>47.9</ele>
        <time>2021-05-27T10:11:12Z</time>
      </trkpt>
      <trkpt lat="47.69611" lon="-2.22989">
        <ele>48.4</ele>
        <time>2021-05-27T10:11:13Z</time>
      </trkpt>
      <trkpt lat="47.6961" lon="-2.22991">
        <ele>48.7</ele>
        <time>2021-05-27T10:11:14Z</time>
      </trkpt>
      <trkpt lat="47.69609" lon="-2.22994">
        <ele>49.1</ele>
        <time>2021-05-27T10:11:15Z</time>
      </trkpt>
      <trkpt lat="47.69607" lon="-2.22996">
        <ele>49.5</ele>
        <time>2021-05-27T10:11:16Z</time>
      </trkpt>
      <trkpt lat="47.69606" lon="-2.22998">
        <ele>49.9</ele>
        <time>2021-05-27T10:11:17Z</time>
      </trkpt>
      <trkpt lat="47.69605" lon="-2.23001">
        <ele>50.2</ele>
        <time>2021-05-27T10:11:18Z</time>
      </trkpt>
      <trkpt lat="47.69605" lon="-2.23003">
        <ele>50.3</ele>
        <time>2021-05-27T10:11:19Z</time>
      </trkpt>
      <trkpt lat="47.69604" lon="-2.23005">
        <ele>50.5</ele>
        <time>2021-05-27T10:11:20Z</time>
      </trkpt>
      <trkpt lat="47.69603" lon="-2.23008">
        <ele>50.7</ele>
        <time>2021-05-27T10:11:21Z</time>
      </trkpt>
      <trkpt lat="47.69603" lon="-2.23011">
        <ele>50.9</ele>
        <time>2021-05-27T10:11:22Z</time>
      </trkpt>
      <trkpt lat="47.69603" lon="-2.23013">
        <ele>50.9</ele>
        <time>2021-05-27T10:11:23Z</time>
      </trkpt>
      <trkpt lat="47.69603" lon="-2.23017">
        <ele>51.1</ele>
        <time>2021-05-27T10:11:24Z</time>
      </trkpt>
      <trkpt lat="47.69603" lon="-2.23021">
        <ele>51.2</ele>
        <time>2021-05-27T10:11:25Z</time>
      </trkpt>
      <trkpt lat="47.69605" lon="-2.23026">
        <ele>51</ele>
        <time>2021-05-27T10:11:26Z</time>
      </trkpt>
      <trkpt lat="47.69605" lon="-2.23029">
        <ele>50.9</ele>
        <time>2021-05-27T10:11:27Z</time>
      </trkpt>
      <trkpt lat="47.69606" lon="-2.23032">
        <ele>50.8</ele>
        <time>2021-05-27T10:11:28Z</time>
      </trkpt>
      <trkpt lat="47.69606" lon="-2.23035">
        <ele>50.9</ele>
        <time>2021-05-27T10:11:29Z</time>
      </trkpt>
      <trkpt lat="47.69607" lon="-2.23038">
        <ele>50.9</ele>
        <time>2021-05-27T10:11:30Z</time>
      </trkpt>
      <trkpt lat="47.69606" lon="-2.23041">
        <ele>51.1</ele>
        <time>2021-05-27T10:11:31Z</time>
      </trkpt>
      <trkpt lat="47.69606" lon="-2.23043">
        <ele>51.2</ele>
        <time>2021-05-27T10:11:32Z</time>
      </trkpt>
      <trkpt lat="47.69607" lon="-2.23045">
        <ele>51.2</ele>
        <time>2021-05-27T10:11:33Z</time>
      </trkpt>
      <trkpt lat="47.69607" lon="-2.23047">
        <ele>51.1</ele>
        <time>2021-05-27T10:11:34Z</time>
      </trkpt>
      <trkpt lat="47.69607" lon="-2.23049">
        <ele>51.1</ele>
        <time>2021-05-27T10:11:35Z</time>
      </trkpt>
      <trkpt lat="47.69607" lon="-2.23052">
        <ele>51.3</ele>
        <time>2021-05-27T10:11:36Z</time>
      </trkpt>
      <trkpt lat="47.69607" lon="-2.23055">
        <ele>51.4</ele>
        <time>2021-05-27T10:11:37Z</time>
      </trkpt>
      <trkpt lat="47.69607" lon="-2.23057">
        <ele>51.5</ele>
        <time>2021-05-27T10:11:38Z</time>
      </trkpt>
      <trkpt lat="47.69606" lon="-2.2306">
        <ele>51.8</ele>
        <time>2021-05-27T10:11:39Z</time>
      </trkpt>
      <trkpt lat="47.69606" lon="-2.23062">
        <ele>52</ele>
        <time>2021-05-27T10:11:40Z</time>
      </trkpt>
      <trkpt lat="47.69605" lon="-2.23064">
        <ele>52.2</ele>
        <time>2021-05-27T10:11:41Z</time>
      </trkpt>
      <trkpt lat="47.69604" lon="-2.23067">
        <ele>52.5</ele>
        <time>2021-05-27T10:11:42Z</time>
      </trkpt>
      <trkpt lat="47.69603" lon="-2.2307">
        <ele>52.7</ele>
        <time>2021-05-27T10:11:43Z</time>
      </trkpt>
      <trkpt lat="47.69602" lon="-2.23072">
        <ele>53.1</ele>
        <time>2021-05-27T10:11:44Z</time>
      </trkpt>
      <trkpt lat="47.69602" lon="-2.23075">
        <ele>53.3</ele>
        <time>2021-05-27T10:11:45Z</time>
      </trkpt>
      <trkpt lat="47.69602" lon="-2.23077">
        <ele>53.4</ele>
        <time>2021-05-27T10:11:46Z</time>
      </trkpt>
      <trkpt lat="47.69602" lon="-2.23079">
        <ele>53.4</ele>
        <time>2021-05-27T10:11:47Z</time>
      </trkpt>
      <trkpt lat="47.69602" lon="-2.23082">
        <ele>53.5</ele>
        <time>2021-05-27T10:11:48Z</time>
      </trkpt>
      <trkpt lat="47.69602" lon="-2.23084">
        <ele>53.5</ele>
        <time>2021-05-27T10:11:49Z</time>
      </trkpt>
      <trkpt lat="47.69602" lon="-2.23086">
        <ele>53.6</ele>
        <time>2021-05-27T10:11:50Z</time>
      </trkpt>
      <trkpt lat="47.69602" lon="-2.23087">
        <ele>53.7</ele>
        <time>2021-05-27T10:11:51Z</time>
      </trkpt>
      <trkpt lat="47.69602" lon="-2.23089">
        <ele>53.9</ele>
        <time>2021-05-27T10:11:52Z</time>
      </trkpt>
      <trkpt lat="47.69602" lon="-2.23093">
        <ele>54.1</ele>
        <time>2021-05-27T10:11:53Z</time>
      </trkpt>
      <trkpt lat="47.69601" lon="-2.23096">
        <ele>54.4</ele>
        <time>2021-05-27T10:11:54Z</time>
      </trkpt>
      <trkpt lat="47.69601" lon="-2.23099">
        <ele>54.6</ele>
        <time>2021-05-27T10:11:55Z</time>
      </trkpt>
      <trkpt lat="47.696" lon="-2.23102">
        <ele>55</ele>
        <time>2021-05-27T10:11:56Z</time>
      </trkpt>
      <trkpt lat="47.696" lon="-2.23104">
        <ele>55.1</ele>
        <time>2021-05-27T10:11:57Z</time>
      </trkpt>
      <trkpt lat="47.696" lon="-2.23106">
        <ele>55.3</ele>
        <time>2021-05-27T10:11:58Z</time>
      </trkpt>
      <trkpt lat="47.69599" lon="-2.23111">
        <ele>55.8</ele>
        <time>2021-05-27T10:11:59Z</time>
      </trkpt>
      <trkpt lat="47.69599" lon="-2.23115">
        <ele>56.1</ele>
        <time>2021-05-27T10:12:00Z</time>
      </trkpt>
      <trkpt lat="47.69598" lon="-2.23119">
        <ele>56.5</ele>
        <time>2021-05-27T10:12:01Z</time>
      </trkpt>
      <trkpt lat="47.69598" lon="-2.23122">
        <ele>56.7</ele>
        <time>2021-05-27T10:12:02Z</time>
      </trkpt>
      <trkpt lat="47.69598" lon="-2.23125">
        <ele>56.8</ele>
        <time>2021-05-27T10:12:03Z</time>
      </trkpt>
      <trkpt lat="47.69597" lon="-2.23127">
        <ele>57.3</ele>
        <time>2021-05-27T10:12:04Z</time>
      </trkpt>
      <trkpt lat="47.69596" lon="-2.2313">
        <ele>57.6</ele>
        <time>2021-05-27T10:12:05Z</time>
      </trkpt>
      <trkpt lat="47.69595" lon="-2.23134">
        <ele>58.2</ele>
        <time>2021-05-27T10:12:06Z</time>
      </trkpt>
      <trkpt lat="47.69594" lon="-2.23137">
        <ele>58.6</ele>
        <time>2021-05-27T10:12:07Z</time>
      </trkpt>
      <trkpt lat="47.69593" lon="-2.23139">
        <ele>58.9</ele>
        <time>2021-05-27T10:12:08Z</time>
      </trkpt>
      <trkpt lat="47.69592" lon="-2.23142">
        <ele>59.3</ele>
        <time>2021-05-27T10:12:09Z</time>
      </trkpt>
      <trkpt lat="47.69591" lon="-2.23144">
        <ele>59.6</ele>
        <time>2021-05-27T10:12:10Z</time>
      </trkpt>
      <trkpt lat="47.6959" lon="-2.23147">
        <ele>60.1</ele>
        <time>2021-05-27T10:12:11Z</time>
      </trkpt>
      <trkpt lat="47.6959" lon="-2.2315">
        <ele>60.3</ele>
        <time>2021-05-27T10:12:12Z</time>
      </trkpt>
      <trkpt lat="47.69589" lon="-2.23154">
        <ele>60.7</ele>
        <time>2021-05-27T10:12:13Z</time>
      </trkpt>
      <trkpt lat="47.6959" lon="-2.23158">
        <ele>60.8</ele>
        <time>2021-05-27T10:12:14Z</time>
      </trkpt>
      <trkpt lat="47.6959" lon="-2.23162">
        <ele>61</ele>
        <time>2021-05-27T10:12:15Z</time>
      </trkpt>
      <trkpt lat="47.6959" lon="-2.23165">
        <ele>61</ele>
        <time>2021-05-27T10:12:16Z</time>
      </trkpt>
      <trkpt lat="47.6959" lon="-2.23168">
        <ele>61.1</ele>
        <time>2021-05-27T10:12:17Z</time>
      </trkpt>
      <trkpt lat="47.6959" lon="-2.23171">
        <ele>61.4</ele>
        <time>2021-05-27T10:12:18Z</time>
      </trkpt>
      <trkpt lat="47.6959" lon="-2.23174">
        <ele>61.6</ele>
        <time>2021-05-27T10:12:19Z</time>
      </trkpt>
      <trkpt lat="47.69589" lon="-2.23177">
        <ele>61.9</ele>
        <time>2021-05-27T10:12:20Z</time>
      </trkpt>
      <trkpt lat="47.69588" lon="-2.2318">
        <ele>62.2</ele>
        <time>2021-05-27T10:12:21Z</time>
      </trkpt>
      <trkpt lat="47.69588" lon="-2.23182">
        <ele>62.4</ele>
        <time>2021-05-27T10:12:22Z</time>
      </trkpt>
      <trkpt lat="47.69587" lon="-2.23185">
        <ele>62.7</ele>
        <time>2021-05-27T10:12:23Z</time>
      </trkpt>
      <trkpt lat="47.69586" lon="-2.23188">
        <ele>63.1</ele>
        <time>2021-05-27T10:12:24Z</time>
      </trkpt>
      <trkpt lat="47.69585" lon="-2.23191">
        <ele>63.6</ele>
        <time>2021-05-27T10:12:25Z</time>
      </trkpt>
      <trkpt lat="47.69584" lon="-2.23194">
        <ele>63.9</ele>
        <time>2021-05-27T10:12:26Z</time>
      </trkpt>
      <trkpt lat="47.69583" lon="-2.23197">
        <ele>64.1</ele>
        <time>2021-05-27T10:12:27Z</time>
      </trkpt>
      <trkpt lat="47.69582" lon="-2.23201">
        <ele>64.4</ele>
        <time>2021-05-27T10:12:28Z</time>
      </trkpt>
      <trkpt lat="47.69581" lon="-2.23204">
        <ele>64.5</ele>
        <time>2021-05-27T10:12:29Z</time>
      </trkpt>
      <trkpt lat="47.6958" lon="-2.23206">
        <ele>64.7</ele>
        <time>2021-05-27T10:12:30Z</time>
      </trkpt>
      <trkpt lat="47.69579" lon="-2.23209">
        <ele>64.9</ele>
        <time>2021-05-27T10:12:31Z</time>
      </trkpt>
      <trkpt lat="47.69578" lon="-2.23213">
        <ele>65.1</ele>
        <time>2021-05-27T10:12:32Z</time>
      </trkpt>
      <trkpt lat="47.69576" lon="-2.23216">
        <ele>65.3</ele>
        <time>2021-05-27T10:12:33Z</time>
      </trkpt>
      <trkpt lat="47.69576" lon="-2.2322">
        <ele>65.5</ele>
        <time>2021-05-27T10:12:34Z</time>
      </trkpt>
      <trkpt lat="47.69576" lon="-2.23222">
        <ele>65.6</ele>
        <time>2021-05-27T10:12:35Z</time>
      </trkpt>
      <trkpt lat="47.69575" lon="-2.23225">
        <ele>65.7</ele>
        <time>2021-05-27T10:12:36Z</time>
      </trkpt>
      <trkpt lat="47.69575" lon="-2.23227">
        <ele>65.8</ele>
        <time>2021-05-27T10:12:37Z</time>
      </trkpt>
      <trkpt lat="47.69575" lon="-2.2323">
        <ele>65.9</ele>
        <time>2021-05-27T10:12:38Z</time>
      </trkpt>
      <trkpt lat="47.69574" lon="-2.23234">
        <ele>66.1</ele>
        <time>2021-05-27T10:12:39Z</time>
      </trkpt>
      <trkpt lat="47.69575" lon="-2.23236">
        <ele>66.1</ele>
        <time>2021-05-27T10:12:40Z</time>
      </trkpt>
      <trkpt lat="47.69573" lon="-2.2324">
        <ele>66.4</ele>
        <time>2021-05-27T10:12:41Z</time>
      </trkpt>
      <trkpt lat="47.69572" lon="-2.23243">
        <ele>66.6</ele>
        <time>2021-05-27T10:12:42Z</time>
      </trkpt>
      <trkpt lat="47.69571" lon="-2.23247">
        <ele>66.8</ele>
        <time>2021-05-27T10:12:43Z</time>
      </trkpt>
      <trkpt lat="47.69568" lon="-2.23251">
        <ele>67.1</ele>
        <time>2021-05-27T10:12:44Z</time>
      </trkpt>
      <trkpt lat="47.69565" lon="-2.23257">
        <ele>67.2</ele>
        <time>2021-05-27T10:12:45Z</time>
      </trkpt>
      <trkpt lat="47.69563" lon="-2.23261">
        <ele>67.2</ele>
        <time>2021-05-27T10:12:46Z</time>
      </trkpt>
      <trkpt lat="47.69561" lon="-2.23265">
        <ele>67.3</ele>
        <time>2021-05-27T10:12:47Z</time>
      </trkpt>
      <trkpt lat="47.69558" lon="-2.23269">
        <ele>67.4</ele>
        <time>2021-05-27T10:12:48Z</time>
      </trkpt>
      <trkpt lat="47.69556" lon="-2.23276">
        <ele>67.5</ele>
        <time>2021-05-27T10:12:49Z</time>
      </trkpt>
      <trkpt lat="47.69553" lon="-2.23279">
        <ele>67.6</ele>
        <time>2021-05-27T10:12:50Z</time>
      </trkpt>
      <trkpt lat="47.69551" lon="-2.23283">
        <ele>67.7</ele>
        <time>2021-05-27T10:12:51Z</time>
      </trkpt>
      <trkpt lat="47.69549" lon="-2.23286">
        <ele>67.9</ele>
        <time>2021-05-27T10:12:52Z</time>
      </trkpt>
      <trkpt lat="47.69548" lon="-2.23288">
        <ele>68</ele>
        <time>2021-05-27T10:12:53Z</time>
      </trkpt>
      <trkpt lat="47.69546" lon="-2.23291">
        <ele>68.1</ele>
        <time>2021-05-27T10:12:54Z</time>
      </trkpt>
      <trkpt lat="47.69544" lon="-2.23294">
        <ele>68.3</ele>
        <time>2021-05-27T10:12:55Z</time>
      </trkpt>
      <trkpt lat="47.69542" lon="-2.23296">
        <ele>68.4</ele>
        <time>2021-05-27T10:12:56Z</time>
      </trkpt>
      <trkpt lat="47.6954" lon="-2.23299">
        <ele>68.6</ele>
        <time>2021-05-27T10:12:57Z</time>
      </trkpt>
      <trkpt lat="47.69537" lon="-2.23301">
        <ele>68.9</ele>
        <time>2021-05-27T10:12:58Z</time>
      </trkpt>
      <trkpt lat="47.69534" lon="-2.23303">
        <ele>69.1</ele>
        <time>2021-05-27T10:12:59Z</time>
      </trkpt>
      <trkpt lat="47.69532" lon="-2.23304">
        <ele>69.3</ele>
        <time>2021-05-27T10:13:00Z</time>
      </trkpt>
      <trkpt lat="47.6953" lon="-2.23306">
        <ele>69.5</ele>
        <time>2021-05-27T10:13:01Z</time>
      </trkpt>
      <trkpt lat="47.69529" lon="-2.23308">
        <ele>69.6</ele>
        <time>2021-05-27T10:13:02Z</time>
      </trkpt>
      <trkpt lat="47.69528" lon="-2.23311">
        <ele>69.8</ele>
        <time>2021-05-27T10:13:03Z</time>
      </trkpt>
      <trkpt lat="47.69526" lon="-2.23313">
        <ele>70</ele>
        <time>2021-05-27T10:13:04Z</time>
      </trkpt>
      <trkpt lat="47.69523" lon="-2.23315">
        <ele>70.3</ele>
        <time>2021-05-27T10:13:05Z</time>
      </trkpt>
      <trkpt lat="47.6952" lon="-2.23317">
        <ele>70.6</ele>
        <time>2021-05-27T10:13:06Z</time>
      </trkpt>
      <trkpt lat="47.69517" lon="-2.23318">
        <ele>70.9</ele>
        <time>2021-05-27T10:13:07Z</time>
      </trkpt>
      <trkpt lat="47.69515" lon="-2.2332">
        <ele>71.2</ele>
        <time>2021-05-27T10:13:08Z</time>
      </trkpt>
      <trkpt lat="47.69512" lon="-2.23322">
        <ele>71.5</ele>
        <time>2021-05-27T10:13:09Z</time>
      </trkpt>
      <trkpt lat="47.69508" lon="-2.23325">
        <ele>72</ele>
        <time>2021-05-27T10:13:10Z</time>
      </trkpt>
      <trkpt lat="47.69505" lon="-2.23327">
        <ele>72.3</ele>
        <time>2021-05-27T10:13:11Z</time>
      </trkpt>
      <trkpt lat="47.69503" lon="-2.23329">
        <ele>72.7</ele>
        <time>2021-05-27T10:13:12Z</time>
      </trkpt>
      <trkpt lat="47.69499" lon="-2.23332">
        <ele>73</ele>
        <time>2021-05-27T10:13:13Z</time>
      </trkpt>
      <trkpt lat="47.69496" lon="-2.23334">
        <ele>73</ele>
        <time>2021-05-27T10:13:14Z</time>
      </trkpt>
      <trkpt lat="47.69494" lon="-2.23336">
        <ele>73</ele>
        <time>2021-05-27T10:13:15Z</time>
      </trkpt>
      <trkpt lat="47.69492" lon="-2.23339">
        <ele>72.9</ele>
        <time>2021-05-27T10:13:16Z</time>
      </trkpt>
      <trkpt lat="47.6949" lon="-2.23341">
        <ele>72.9</ele>
        <time>2021-05-27T10:13:17Z</time>
      </trkpt>
      <trkpt lat="47.69488" lon="-2.23342">
        <ele>72.8</ele>
        <time>2021-05-27T10:13:18Z</time>
      </trkpt>
      <trkpt lat="47.69486" lon="-2.23343">
        <ele>72.8</ele>
        <time>2021-05-27T10:13:19Z</time>
      </trkpt>
      <trkpt lat="47.69484" lon="-2.23344">
        <ele>72.8</ele>
        <time>2021-05-27T10:13:20Z</time>
      </trkpt>
      <trkpt lat="47.69483" lon="-2.23344">
        <ele>72.8</ele>
        <time>2021-05-27T10:13:21Z</time>
      </trkpt>
      <trkpt lat="47.69481" lon="-2.23345">
        <ele>72.8</ele>
        <time>2021-05-27T10:13:22Z</time>
      </trkpt>
      <trkpt lat="47.69479" lon="-2.23346">
        <ele>72.7</ele>
        <time>2021-05-27T10:13:23Z</time>
      </trkpt>
      <trkpt lat="47.69479" lon="-2.23347">
        <ele>72.7</ele>
        <time>2021-05-27T10:13:24Z</time>
      </trkpt>
      <trkpt lat="47.69479" lon="-2.23346">
        <ele>72.7</ele>
        <time>2021-05-27T10:13:25Z</time>
      </trkpt>
      <trkpt lat="47.69473" lon="-2.23345">
        <ele>72.7</ele>
        <time>2021-05-27T10:16:25Z</time>
      </trkpt>
      <trkpt lat="47.6947" lon="-2.23342">
        <ele>72.8</ele>
        <time>2021-05-27T10:16:26Z</time>
      </trkpt>
      <trkpt lat="47.69466" lon="-2.23341">
        <ele>72.8</ele>
        <time>2021-05-27T10:16:27Z</time>
      </trkpt>
      <trkpt lat="47.69462" lon="-2.23339">
        <ele>72.8</ele>
        <time>2021-05-27T10:16:28Z</time>
      </trkpt>
      <trkpt lat="47.69459" lon="-2.23338">
        <ele>72.9</ele>
        <time>2021-05-27T10:16:29Z</time>
      </trkpt>
      <trkpt lat="47.69455" lon="-2.23337">
        <ele>72.9</ele>
        <time>2021-05-27T10:16:30Z</time>
      </trkpt>
      <trkpt lat="47.69451" lon="-2.23335">
        <ele>72.9</ele>
        <time>2021-05-27T10:16:31Z</time>
      </trkpt>
      <trkpt lat="47.69448" lon="-2.23334">
        <ele>73</ele>
        <time>2021-05-27T10:16:32Z</time>
      </trkpt>
      <trkpt lat="47.69445" lon="-2.23331">
        <ele>73</ele>
        <time>2021-05-27T10:16:33Z</time>
      </trkpt>
      <trkpt lat="47.69442" lon="-2.23328">
        <ele>72.9</ele>
        <time>2021-05-27T10:16:34Z</time>
      </trkpt>
      <trkpt lat="47.69438" lon="-2.23326">
        <ele>72.8</ele>
        <time>2021-05-27T10:16:35Z</time>
      </trkpt>
      <trkpt lat="47.69435" lon="-2.23324">
        <ele>72.8</ele>
        <time>2021-05-27T10:16:36Z</time>
      </trkpt>
      <trkpt lat="47.69431" lon="-2.23323">
        <ele>72.8</ele>
        <time>2021-05-27T10:16:37Z</time>
      </trkpt>
      <trkpt lat="47.69428" lon="-2.23324">
        <ele>72.8</ele>
        <time>2021-05-27T10:16:38Z</time>
      </trkpt>
      <trkpt lat="47.69426" lon="-2.23326">
        <ele>72.8</ele>
        <time>2021-05-27T10:16:39Z</time>
      </trkpt>
      <trkpt lat="47.69423" lon="-2.2333">
        <ele>72.9</ele>
        <time>2021-05-27T10:16:40Z</time>
      </trkpt>
      <trkpt lat="47.69421" lon="-2.23334">
        <ele>73</ele>
        <time>2021-05-27T10:16:41Z</time>
      </trkpt>
      <trkpt lat="47.6942" lon="-2.23338">
        <ele>72.8</ele>
        <time>2021-05-27T10:16:42Z</time>
      </trkpt>
      <trkpt lat="47.69419" lon="-2.23342">
        <ele>72.6</ele>
        <time>2021-05-27T10:16:43Z</time>
      </trkpt>
      <trkpt lat="47.6942" lon="-2.23345">
        <ele>72.5</ele>
        <time>2021-05-27T10:16:44Z</time>
      </trkpt>
      <trkpt lat="47.69421" lon="-2.23348">
        <ele>72.3</ele>
        <time>2021-05-27T10:16:45Z</time>
      </trkpt>
      <trkpt lat="47.69423" lon="-2.23351">
        <ele>72.2</ele>
        <time>2021-05-27T10:16:46Z</time>
      </trkpt>
      <trkpt lat="47.69424" lon="-2.23355">
        <ele>72</ele>
        <time>2021-05-27T10:16:47Z</time>
      </trkpt>
      <trkpt lat="47.69425" lon="-2.23358">
        <ele>71.9</ele>
        <time>2021-05-27T10:16:48Z</time>
      </trkpt>
      <trkpt lat="47.69425" lon="-2.23362">
        <ele>71.7</ele>
        <time>2021-05-27T10:16:49Z</time>
      </trkpt>
      <trkpt lat="47.69424" lon="-2.23365">
        <ele>71.6</ele>
        <time>2021-05-27T10:16:50Z</time>
      </trkpt>
      <trkpt lat="47.69423" lon="-2.23368">
        <ele>71.4</ele>
        <time>2021-05-27T10:16:51Z</time>
      </trkpt>
      <trkpt lat="47.69421" lon="-2.23373">
        <ele>71.2</ele>
        <time>2021-05-27T10:16:52Z</time>
      </trkpt>
      <trkpt lat="47.69421" lon="-2.23376">
        <ele>71.1</ele>
        <time>2021-05-27T10:16:53Z</time>
      </trkpt>
      <trkpt lat="47.6942" lon="-2.23379">
        <ele>70.9</ele>
        <time>2021-05-27T10:16:54Z</time>
      </trkpt>
      <trkpt lat="47.6942" lon="-2.2338">
        <ele>70.8</ele>
        <time>2021-05-27T10:16:55Z</time>
      </trkpt>
      <trkpt lat="47.69422" lon="-2.23384">
        <ele>70.7</ele>
        <time>2021-05-27T10:16:56Z</time>
      </trkpt>
      <trkpt lat="47.69422" lon="-2.23388">
        <ele>70.5</ele>
        <time>2021-05-27T10:16:57Z</time>
      </trkpt>
      <trkpt lat="47.69422" lon="-2.23392">
        <ele>70.3</ele>
        <time>2021-05-27T10:16:58Z</time>
      </trkpt>
      <trkpt lat="47.69421" lon="-2.23395">
        <ele>70.1</ele>
        <time>2021-05-27T10:16:59Z</time>
      </trkpt>
      <trkpt lat="47.69419" lon="-2.23399">
        <ele>69.9</ele>
        <time>2021-05-27T10:17:00Z</time>
      </trkpt>
      <trkpt lat="47.69417" lon="-2.23401">
        <ele>69.8</ele>
        <time>2021-05-27T10:17:01Z</time>
      </trkpt>
      <trkpt lat="47.69414" lon="-2.23404">
        <ele>69.5</ele>
        <time>2021-05-27T10:17:02Z</time>
      </trkpt>
      <trkpt lat="47.69411" lon="-2.23408">
        <ele>69.1</ele>
        <time>2021-05-27T10:17:03Z</time>
      </trkpt>
      <trkpt lat="47.69409" lon="-2.23412">
        <ele>68.8</ele>
        <time>2021-05-27T10:17:04Z</time>
      </trkpt>
      <trkpt lat="47.69408" lon="-2.23417">
        <ele>68.6</ele>
        <time>2021-05-27T10:17:05Z</time>
      </trkpt>
      <trkpt lat="47.69408" lon="-2.23422">
        <ele>68.6</ele>
        <time>2021-05-27T10:17:06Z</time>
      </trkpt>
      <trkpt lat="47.69408" lon="-2.23427">
        <ele>68.7</ele>
        <time>2021-05-27T10:17:07Z</time>
      </trkpt>
      <trkpt lat="47.6941" lon="-2.2343">
        <ele>68.9</ele>
        <time>2021-05-27T10:17:08Z</time>
      </trkpt>
      <trkpt lat="47.69412" lon="-2.23432">
        <ele>69</ele>
        <time>2021-05-27T10:17:09Z</time>
      </trkpt>
      <trkpt lat="47.69415" lon="-2.23433">
        <ele>69.1</ele>
        <time>2021-05-27T10:17:10Z</time>
      </trkpt>
      <trkpt lat="47.69416" lon="-2.23433">
        <ele>69.2</ele>
        <time>2021-05-27T10:17:11Z</time>
      </trkpt>
      <trkpt lat="47.69419" lon="-2.23432">
        <ele>69.3</ele>
        <time>2021-05-27T10:17:12Z</time>
      </trkpt>
      <trkpt lat="47.69422" lon="-2.23433">
        <ele>69.4</ele>
        <time>2021-05-27T10:17:13Z</time>
      </trkpt>
      <trkpt lat="47.69423" lon="-2.23435">
        <ele>69.5</ele>
        <time>2021-05-27T10:17:14Z</time>
      </trkpt>
      <trkpt lat="47.69424" lon="-2.23436">
        <ele>69.5</ele>
        <time>2021-05-27T10:17:15Z</time>
      </trkpt>
      <trkpt lat="47.69424" lon="-2.23439">
        <ele>69.5</ele>
        <time>2021-05-27T10:17:16Z</time>
      </trkpt>
      <trkpt lat="47.69423" lon="-2.23444">
        <ele>69.5</ele>
        <time>2021-05-27T10:17:17Z</time>
      </trkpt>
      <trkpt lat="47.69422" lon="-2.23448">
        <ele>69.6</ele>
        <time>2021-05-27T10:17:18Z</time>
      </trkpt>
      <trkpt lat="47.69422" lon="-2.23453">
        <ele>69.6</ele>
        <time>2021-05-27T10:17:19Z</time>
      </trkpt>
      <trkpt lat="47.69422" lon="-2.23458">
        <ele>69.7</ele>
        <time>2021-05-27T10:17:20Z</time>
      </trkpt>
      <trkpt lat="47.69424" lon="-2.23463">
        <ele>69.8</ele>
        <time>2021-05-27T10:17:21Z</time>
      </trkpt>
      <trkpt lat="47.69426" lon="-2.23466">
        <ele>69.9</ele>
        <time>2021-05-27T10:17:22Z</time>
      </trkpt>
      <trkpt lat="47.69429" lon="-2.23467">
        <ele>70</ele>
        <time>2021-05-27T10:17:23Z</time>
      </trkpt>
      <trkpt lat="47.69431" lon="-2.23469">
        <ele>70.1</ele>
        <time>2021-05-27T10:17:24Z</time>
      </trkpt>
      <trkpt lat="47.69433" lon="-2.23472">
        <ele>70.3</ele>
        <time>2021-05-27T10:17:25Z</time>
      </trkpt>
      <trkpt lat="47.69435" lon="-2.23476">
        <ele>70.4</ele>
        <time>2021-05-27T10:17:26Z</time>
      </trkpt>
      <trkpt lat="47.69438" lon="-2.23478">
        <ele>70.5</ele>
        <time>2021-05-27T10:17:27Z</time>
      </trkpt>
      <trkpt lat="47.69441" lon="-2.23477">
        <ele>70.6</ele>
        <time>2021-05-27T10:17:28Z</time>
      </trkpt>
      <trkpt lat="47.69444" lon="-2.23477">
        <ele>70.7</ele>
        <time>2021-05-27T10:17:29Z</time>
      </trkpt>
      <trkpt lat="47.69448" lon="-2.23476">
        <ele>70.8</ele>
        <time>2021-05-27T10:17:30Z</time>
      </trkpt>
      <trkpt lat="47.69451" lon="-2.23477">
        <ele>71</ele>
        <time>2021-05-27T10:17:31Z</time>
      </trkpt>
      <trkpt lat="47.69454" lon="-2.2348">
        <ele>71.1</ele>
        <time>2021-05-27T10:17:32Z</time>
      </trkpt>
      <trkpt lat="47.69457" lon="-2.23483">
        <ele>71.2</ele>
        <time>2021-05-27T10:17:33Z</time>
      </trkpt>
      <trkpt lat="47.69459" lon="-2.23487">
        <ele>71.4</ele>
        <time>2021-05-27T10:17:34Z</time>
      </trkpt>
      <trkpt lat="47.6946" lon="-2.2349">
        <ele>71.5</ele>
        <time>2021-05-27T10:17:35Z</time>
      </trkpt>
      <trkpt lat="47.69461" lon="-2.23494">
        <ele>71.5</ele>
        <time>2021-05-27T10:17:36Z</time>
      </trkpt>
      <trkpt lat="47.6946" lon="-2.23497">
        <ele>71.5</ele>
        <time>2021-05-27T10:17:37Z</time>
      </trkpt>
      <trkpt lat="47.6946" lon="-2.23502">
        <ele>71.6</ele>
        <time>2021-05-27T10:17:38Z</time>
      </trkpt>
      <trkpt lat="47.69461" lon="-2.23506">
        <ele>71.6</ele>
        <time>2021-05-27T10:17:39Z</time>
      </trkpt>
      <trkpt lat="47.69461" lon="-2.23509">
        <ele>71.6</ele>
        <time>2021-05-27T10:17:40Z</time>
      </trkpt>
      <trkpt lat="47.69462" lon="-2.23511">
        <ele>71.6</ele>
        <time>2021-05-27T10:17:41Z</time>
      </trkpt>
      <trkpt lat="47.69462" lon="-2.23514">
        <ele>71.6</ele>
        <time>2021-05-27T10:17:42Z</time>
      </trkpt>
      <trkpt lat="47.69462" lon="-2.23516">
        <ele>71.6</ele>
        <time>2021-05-27T10:17:43Z</time>
      </trkpt>
      <trkpt lat="47.69462" lon="-2.23518">
        <ele>71.6</ele>
        <time>2021-05-27T10:17:44Z</time>
      </trkpt>
      <trkpt lat="47.69461" lon="-2.2352">
        <ele>71.6</ele>
        <time>2021-05-27T10:17:45Z</time>
      </trkpt>
      <trkpt lat="47.69458" lon="-2.23524">
        <ele>71.5</ele>
        <time>2021-05-27T10:17:46Z</time>
      </trkpt>
      <trkpt lat="47.69456" lon="-2.23529">
        <ele>71.4</ele>
        <time>2021-05-27T10:17:47Z</time>
      </trkpt>
      <trkpt lat="47.69454" lon="-2.23533">
        <ele>71.3</ele>
        <time>2021-05-27T10:17:48Z</time>
      </trkpt>
      <trkpt lat="47.69451" lon="-2.23537">
        <ele>71.3</ele>
        <time>2021-05-27T10:17:49Z</time>
      </trkpt>
      <trkpt lat="47.69449" lon="-2.23541">
        <ele>71.2</ele>
        <time>2021-05-27T10:17:50Z</time>
      </trkpt>
      <trkpt lat="47.69447" lon="-2.23544">
        <ele>71.1</ele>
        <time>2021-05-27T10:17:51Z</time>
      </trkpt>
      <trkpt lat="47.69444" lon="-2.23547">
        <ele>71</ele>
        <time>2021-05-27T10:17:52Z</time>
      </trkpt>
      <trkpt lat="47.69441" lon="-2.23549">
        <ele>70.9</ele>
        <time>2021-05-27T10:17:53Z</time>
      </trkpt>
      <trkpt lat="47.69439" lon="-2.23552">
        <ele>70.8</ele>
        <time>2021-05-27T10:17:54Z</time>
      </trkpt>
      <trkpt lat="47.69438" lon="-2.23556">
        <ele>70.8</ele>
        <time>2021-05-27T10:17:55Z</time>
      </trkpt>
      <trkpt lat="47.69437" lon="-2.2356">
        <ele>70.7</ele>
        <time>2021-05-27T10:17:56Z</time>
      </trkpt>
      <trkpt lat="47.69438" lon="-2.23565">
        <ele>70.8</ele>
        <time>2021-05-27T10:17:57Z</time>
      </trkpt>
      <trkpt lat="47.69438" lon="-2.23569">
        <ele>70.8</ele>
        <time>2021-05-27T10:17:58Z</time>
      </trkpt>
      <trkpt lat="47.69439" lon="-2.23573">
        <ele>70.8</ele>
        <time>2021-05-27T10:17:59Z</time>
      </trkpt>
      <trkpt lat="47.69441" lon="-2.23576">
        <ele>70.9</ele>
        <time>2021-05-27T10:18:00Z</time>
      </trkpt>
      <trkpt lat="47.69443" lon="-2.23579">
        <ele>70.9</ele>
        <time>2021-05-27T10:18:01Z</time>
      </trkpt>
      <trkpt lat="47.69445" lon="-2.23583">
        <ele>71</ele>
        <time>2021-05-27T10:18:02Z</time>
      </trkpt>
      <trkpt lat="47.69447" lon="-2.23587">
        <ele>71.1</ele>
        <time>2021-05-27T10:18:03Z</time>
      </trkpt>
      <trkpt lat="47.69448" lon="-2.23591">
        <ele>71.2</ele>
        <time>2021-05-27T10:18:04Z</time>
      </trkpt>
      <trkpt lat="47.6945" lon="-2.23595">
        <ele>71.3</ele>
        <time>2021-05-27T10:18:05Z</time>
      </trkpt>
      <trkpt lat="47.69453" lon="-2.23595">
        <ele>71.4</ele>
        <time>2021-05-27T10:18:06Z</time>
      </trkpt>
      <trkpt lat="47.69455" lon="-2.23594">
        <ele>71.5</ele>
        <time>2021-05-27T10:18:07Z</time>
      </trkpt>
      <trkpt lat="47.69458" lon="-2.23593">
        <ele>71.6</ele>
        <time>2021-05-27T10:18:08Z</time>
      </trkpt>
      <trkpt lat="47.69461" lon="-2.23595">
        <ele>71.7</ele>
        <time>2021-05-27T10:18:09Z</time>
      </trkpt>
      <trkpt lat="47.69463" lon="-2.23598">
        <ele>71.8</ele>
        <time>2021-05-27T10:18:10Z</time>
      </trkpt>
      <trkpt lat="47.69466" lon="-2.23602">
        <ele>71.9</ele>
        <time>2021-05-27T10:18:11Z</time>
      </trkpt>
      <trkpt lat="47.69468" lon="-2.23606">
        <ele>72</ele>
        <time>2021-05-27T10:18:12Z</time>
      </trkpt>
      <trkpt lat="47.69471" lon="-2.23609">
        <ele>72.2</ele>
        <time>2021-05-27T10:18:13Z</time>
      </trkpt>
      <trkpt lat="47.69473" lon="-2.23613">
        <ele>72.3</ele>
        <time>2021-05-27T10:18:14Z</time>
      </trkpt>
      <trkpt lat="47.69474" lon="-2.23617">
        <ele>72.3</ele>
        <time>2021-05-27T10:18:15Z</time>
      </trkpt>
      <trkpt lat="47.69474" lon="-2.23621">
        <ele>72.4</ele>
        <time>2021-05-27T10:18:16Z</time>
      </trkpt>
      <trkpt lat="47.69474" lon="-2.23626">
        <ele>72.4</ele>
        <time>2021-05-27T10:18:17Z</time>
      </trkpt>
      <trkpt lat="47.69474" lon="-2.23631">
        <ele>72.5</ele>
        <time>2021-05-27T10:18:18Z</time>
      </trkpt>
      <trkpt lat="47.69476" lon="-2.23637">
        <ele>72.6</ele>
        <time>2021-05-27T10:18:19Z</time>
      </trkpt>
      <trkpt lat="47.69477" lon="-2.23641">
        <ele>72.7</ele>
        <time>2021-05-27T10:18:20Z</time>
      </trkpt>
      <trkpt lat="47.69478" lon="-2.23644">
        <ele>72.7</ele>
        <time>2021-05-27T10:18:21Z</time>
      </trkpt>
      <trkpt lat="47.69478" lon="-2.23648">
        <ele>72.8</ele>
        <time>2021-05-27T10:18:22Z</time>
      </trkpt>
      <trkpt lat="47.69477" lon="-2.23653">
        <ele>72.8</ele>
        <time>2021-05-27T10:18:23Z</time>
      </trkpt>
      <trkpt lat="47.69475" lon="-2.23657">
        <ele>72.7</ele>
        <time>2021-05-27T10:18:24Z</time>
      </trkpt>
      <trkpt lat="47.69475" lon="-2.2366">
        <ele>72.8</ele>
        <time>2021-05-27T10:18:25Z</time>
      </trkpt>
      <trkpt lat="47.69476" lon="-2.23665">
        <ele>72.8</ele>
        <time>2021-05-27T10:18:26Z</time>
      </trkpt>
      <trkpt lat="47.69477" lon="-2.2367">
        <ele>72.8</ele>
        <time>2021-05-27T10:18:27Z</time>
      </trkpt>
      <trkpt lat="47.69477" lon="-2.23674">
        <ele>72.7</ele>
        <time>2021-05-27T10:18:28Z</time>
      </trkpt>
      <trkpt lat="47.69477" lon="-2.23679">
        <ele>72.5</ele>
        <time>2021-05-27T10:18:29Z</time>
      </trkpt>
      <trkpt lat="47.69477" lon="-2.23685">
        <ele>72.3</ele>
        <time>2021-05-27T10:18:30Z</time>
      </trkpt>
      <trkpt lat="47.69478" lon="-2.2369">
        <ele>72.2</ele>
        <time>2021-05-27T10:18:31Z</time>
      </trkpt>
      <trkpt lat="47.69479" lon="-2.23695">
        <ele>72.1</ele>
        <time>2021-05-27T10:18:32Z</time>
      </trkpt>
      <trkpt lat="47.69478" lon="-2.23698">
        <ele>71.9</ele>
        <time>2021-05-27T10:18:33Z</time>
      </trkpt>
      <trkpt lat="47.69476" lon="-2.23702">
        <ele>71.7</ele>
        <time>2021-05-27T10:18:34Z</time>
      </trkpt>
      <trkpt lat="47.69475" lon="-2.23706">
        <ele>71.5</ele>
        <time>2021-05-27T10:18:35Z</time>
      </trkpt>
      <trkpt lat="47.69473" lon="-2.23708">
        <ele>71.4</ele>
        <time>2021-05-27T10:18:36Z</time>
      </trkpt>
      <trkpt lat="47.69471" lon="-2.23711">
        <ele>71.2</ele>
        <time>2021-05-27T10:18:37Z</time>
      </trkpt>
      <trkpt lat="47.69469" lon="-2.23715">
        <ele>71</ele>
        <time>2021-05-27T10:18:38Z</time>
      </trkpt>
      <trkpt lat="47.69468" lon="-2.23719">
        <ele>70.8</ele>
        <time>2021-05-27T10:18:39Z</time>
      </trkpt>
      <trkpt lat="47.69469" lon="-2.23723">
        <ele>70.7</ele>
        <time>2021-05-27T10:18:40Z</time>
      </trkpt>
      <trkpt lat="47.6947" lon="-2.23726">
        <ele>70.7</ele>
        <time>2021-05-27T10:18:41Z</time>
      </trkpt>
      <trkpt lat="47.69472" lon="-2.2373">
        <ele>70.6</ele>
        <time>2021-05-27T10:18:42Z</time>
      </trkpt>
      <trkpt lat="47.69473" lon="-2.23734">
        <ele>70.5</ele>
        <time>2021-05-27T10:18:43Z</time>
      </trkpt>
      <trkpt lat="47.69475" lon="-2.23739">
        <ele>70.5</ele>
        <time>2021-05-27T10:18:44Z</time>
      </trkpt>
      <trkpt lat="47.69476" lon="-2.23743">
        <ele>70.4</ele>
        <time>2021-05-27T10:18:45Z</time>
      </trkpt>
      <trkpt lat="47.69477" lon="-2.23748">
        <ele>70.3</ele>
        <time>2021-05-27T10:18:46Z</time>
      </trkpt>
      <trkpt lat="47.69479" lon="-2.23752">
        <ele>70.2</ele>
        <time>2021-05-27T10:18:47Z</time>
      </trkpt>
      <trkpt lat="47.6948" lon="-2.23756">
        <ele>70.2</ele>
        <time>2021-05-27T10:18:48Z</time>
      </trkpt>
      <trkpt lat="47.69481" lon="-2.2376">
        <ele>70.2</ele>
        <time>2021-05-27T10:18:49Z</time>
      </trkpt>
      <trkpt lat="47.69481" lon="-2.23764">
        <ele>70.2</ele>
        <time>2021-05-27T10:18:50Z</time>
      </trkpt>
      <trkpt lat="47.69482" lon="-2.23766">
        <ele>70.2</ele>
        <time>2021-05-27T10:18:51Z</time>
      </trkpt>
      <trkpt lat="47.69485" lon="-2.23769">
        <ele>70.2</ele>
        <time>2021-05-27T10:18:52Z</time>
      </trkpt>
      <trkpt lat="47.69487" lon="-2.23771">
        <ele>70.3</ele>
        <time>2021-05-27T10:18:53Z</time>
      </trkpt>
      <trkpt lat="47.69491" lon="-2.23774">
        <ele>70.4</ele>
        <time>2021-05-27T10:18:54Z</time>
      </trkpt>
      <trkpt lat="47.69495" lon="-2.23779">
        <ele>70.5</ele>
        <time>2021-05-27T10:18:55Z</time>
      </trkpt>
      <trkpt lat="47.69499" lon="-2.23783">
        <ele>70.6</ele>
        <time>2021-05-27T10:18:56Z</time>
      </trkpt>
      <trkpt lat="47.69502" lon="-2.23787">
        <ele>70.6</ele>
        <time>2021-05-27T10:18:57Z</time>
      </trkpt>
      <trkpt lat="47.69503" lon="-2.23791">
        <ele>70.6</ele>
        <time>2021-05-27T10:18:58Z</time>
      </trkpt>
      <trkpt lat="47.69504" lon="-2.23794">
        <ele>70.6</ele>
        <time>2021-05-27T10:18:59Z</time>
      </trkpt>
      <trkpt lat="47.69504" lon="-2.23795">
        <ele>70.6</ele>
        <time>2021-05-27T10:19:00Z</time>
      </trkpt>
      <trkpt lat="47.69504" lon="-2.23796">
        <ele>70.6</ele>
        <time>2021-05-27T10:19:01Z</time>
      </trkpt>
      <trkpt lat="47.69504" lon="-2.23796">
        <ele>70.6</ele>
        <time>2021-05-27T10:19:02Z</time>
      </trkpt>
      <trkpt lat="47.69504" lon="-2.23796">
        <ele>70.6</ele>
        <time>2021-05-27T10:19:03Z</time>
      </trkpt>
      <trkpt lat="47.69504" lon="-2.23796">
        <ele>70.6</ele>
        <time>2021-05-27T10:19:04Z</time>
      </trkpt>
      <trkpt lat="47.69504" lon="-2.23796">
        <ele>70.6</ele>
        <time>2021-05-27T10:19:05Z</time>
      </trkpt>
      <trkpt lat="47.69508" lon="-2.23795">
        <ele>70.7</ele>
        <time>2021-05-27T10:19:06Z</time>
      </trkpt>
      <trkpt lat="47.6951" lon="-2.23792">
        <ele>70.8</ele>
        <time>2021-05-27T10:19:07Z</time>
      </trkpt>
      <trkpt lat="47.69511" lon="-2.23791">
        <ele>70.9</ele>
        <time>2021-05-27T10:19:08Z</time>
      </trkpt>
      <trkpt lat="47.69513" lon="-2.23789">
        <ele>70.9</ele>
        <time>2021-05-27T10:19:09Z</time>
      </trkpt>
      <trkpt lat="47.69514" lon="-2.23785">
        <ele>71</ele>
        <time>2021-05-27T10:19:10Z</time>
      </trkpt>
      <trkpt lat="47.69516" lon="-2.23781">
        <ele>71.1</ele>
        <time>2021-05-27T10:19:11Z</time>
      </trkpt>
      <trkpt lat="47.69518" lon="-2.23778">
        <ele>71.2</ele>
        <time>2021-05-27T10:19:12Z</time>
      </trkpt>
      <trkpt lat="47.69521" lon="-2.23773">
        <ele>71.4</ele>
        <time>2021-05-27T10:19:13Z</time>
      </trkpt>
      <trkpt lat="47.69525" lon="-2.23771">
        <ele>71.6</ele>
        <time>2021-05-27T10:19:14Z</time>
      </trkpt>
      <trkpt lat="47.69531" lon="-2.23768">
        <ele>71.8</ele>
        <time>2021-05-27T10:19:15Z</time>
      </trkpt>
      <trkpt lat="47.69534" lon="-2.23765">
        <ele>72</ele>
        <time>2021-05-27T10:19:16Z</time>
      </trkpt>
      <trkpt lat="47.69539" lon="-2.2376">
        <ele>72.2</ele>
        <time>2021-05-27T10:19:17Z</time>
      </trkpt>
      <trkpt lat="47.69541" lon="-2.23756">
        <ele>72.4</ele>
        <time>2021-05-27T10:19:18Z</time>
      </trkpt>
      <trkpt lat="47.69543" lon="-2.2375">
        <ele>72.5</ele>
        <time>2021-05-27T10:19:19Z</time>
      </trkpt>
      <trkpt lat="47.69543" lon="-2.23745">
        <ele>72.7</ele>
        <time>2021-05-27T10:19:20Z</time>
      </trkpt>
      <trkpt lat="47.69544" lon="-2.2374">
        <ele>72.8</ele>
        <time>2021-05-27T10:19:21Z</time>
      </trkpt>
      <trkpt lat="47.69545" lon="-2.23734">
        <ele>73</ele>
        <time>2021-05-27T10:19:22Z</time>
      </trkpt>
      <trkpt lat="47.69546" lon="-2.23729">
        <ele>73.2</ele>
        <time>2021-05-27T10:19:23Z</time>
      </trkpt>
      <trkpt lat="47.69547" lon="-2.23722">
        <ele>73.3</ele>
        <time>2021-05-27T10:19:24Z</time>
      </trkpt>
      <trkpt lat="47.69547" lon="-2.23717">
        <ele>73.4</ele>
        <time>2021-05-27T10:19:25Z</time>
      </trkpt>
      <trkpt lat="47.69547" lon="-2.23711">
        <ele>73.6</ele>
        <time>2021-05-27T10:19:26Z</time>
      </trkpt>
      <trkpt lat="47.69548" lon="-2.23705">
        <ele>73.7</ele>
        <time>2021-05-27T10:19:27Z</time>
      </trkpt>
      <trkpt lat="47.6955" lon="-2.23699">
        <ele>73.9</ele>
        <time>2021-05-27T10:19:28Z</time>
      </trkpt>
      <trkpt lat="47.69551" lon="-2.23692">
        <ele>74.1</ele>
        <time>2021-05-27T10:19:29Z</time>
      </trkpt>
      <trkpt lat="47.69554" lon="-2.23687">
        <ele>74.2</ele>
        <time>2021-05-27T10:19:30Z</time>
      </trkpt>
      <trkpt lat="47.69556" lon="-2.23681">
        <ele>74.4</ele>
        <time>2021-05-27T10:19:31Z</time>
      </trkpt>
      <trkpt lat="47.69559" lon="-2.23676">
        <ele>74.5</ele>
        <time>2021-05-27T10:19:32Z</time>
      </trkpt>
      <trkpt lat="47.69561" lon="-2.2367">
        <ele>74.7</ele>
        <time>2021-05-27T10:19:33Z</time>
      </trkpt>
      <trkpt lat="47.69562" lon="-2.23665">
        <ele>74.7</ele>
        <time>2021-05-27T10:19:34Z</time>
      </trkpt>
      <trkpt lat="47.69563" lon="-2.23659">
        <ele>74.6</ele>
        <time>2021-05-27T10:19:35Z</time>
      </trkpt>
      <trkpt lat="47.69563" lon="-2.23653">
        <ele>74.5</ele>
        <time>2021-05-27T10:19:36Z</time>
      </trkpt>
      <trkpt lat="47.69563" lon="-2.23646">
        <ele>74.3</ele>
        <time>2021-05-27T10:19:37Z</time>
      </trkpt>
      <trkpt lat="47.69564" lon="-2.23639">
        <ele>74.2</ele>
        <time>2021-05-27T10:19:38Z</time>
      </trkpt>
      <trkpt lat="47.69566" lon="-2.23633">
        <ele>74.1</ele>
        <time>2021-05-27T10:19:39Z</time>
      </trkpt>
      <trkpt lat="47.69567" lon="-2.23627">
        <ele>73.9</ele>
        <time>2021-05-27T10:19:40Z</time>
      </trkpt>
      <trkpt lat="47.69568" lon="-2.23619">
        <ele>73.8</ele>
        <time>2021-05-27T10:19:41Z</time>
      </trkpt>
      <trkpt lat="47.69569" lon="-2.23612">
        <ele>73.6</ele>
        <time>2021-05-27T10:19:42Z</time>
      </trkpt>
      <trkpt lat="47.69571" lon="-2.23605">
        <ele>73.5</ele>
        <time>2021-05-27T10:19:43Z</time>
      </trkpt>
      <trkpt lat="47.69573" lon="-2.23599">
        <ele>73.3</ele>
        <time>2021-05-27T10:19:44Z</time>
      </trkpt>
      <trkpt lat="47.69575" lon="-2.23592">
        <ele>73.2</ele>
        <time>2021-05-27T10:19:45Z</time>
      </trkpt>
      <trkpt lat="47.69577" lon="-2.23585">
        <ele>73</ele>
        <time>2021-05-27T10:19:46Z</time>
      </trkpt>
      <trkpt lat="47.6958" lon="-2.23579">
        <ele>72.8</ele>
        <time>2021-05-27T10:19:47Z</time>
      </trkpt>
      <trkpt lat="47.69583" lon="-2.23572">
        <ele>72.6</ele>
        <time>2021-05-27T10:19:48Z</time>
      </trkpt>
      <trkpt lat="47.69586" lon="-2.23564">
        <ele>71.8</ele>
        <time>2021-05-27T10:19:49Z</time>
      </trkpt>
      <trkpt lat="47.69589" lon="-2.23557">
        <ele>71</ele>
        <time>2021-05-27T10:19:50Z</time>
      </trkpt>
      <trkpt lat="47.69592" lon="-2.23548">
        <ele>70.1</ele>
        <time>2021-05-27T10:19:51Z</time>
      </trkpt>
      <trkpt lat="47.69595" lon="-2.2354">
        <ele>69.3</ele>
        <time>2021-05-27T10:19:52Z</time>
      </trkpt>
      <trkpt lat="47.69598" lon="-2.23532">
        <ele>68.5</ele>
        <time>2021-05-27T10:19:53Z</time>
      </trkpt>
      <trkpt lat="47.69602" lon="-2.23523">
        <ele>67.5</ele>
        <time>2021-05-27T10:19:54Z</time>
      </trkpt>
      <trkpt lat="47.69606" lon="-2.23513">
        <ele>66.6</ele>
        <time>2021-05-27T10:19:55Z</time>
      </trkpt>
      <trkpt lat="47.6961" lon="-2.23503">
        <ele>65.6</ele>
        <time>2021-05-27T10:19:56Z</time>
      </trkpt>
      <trkpt lat="47.69613" lon="-2.23491">
        <ele>64.2</ele>
        <time>2021-05-27T10:19:57Z</time>
      </trkpt>
      <trkpt lat="47.69617" lon="-2.23479">
        <ele>62.5</ele>
        <time>2021-05-27T10:19:58Z</time>
      </trkpt>
      <trkpt lat="47.69621" lon="-2.23467">
        <ele>60.8</ele>
        <time>2021-05-27T10:19:59Z</time>
      </trkpt>
      <trkpt lat="47.69626" lon="-2.23456">
        <ele>59.2</ele>
        <time>2021-05-27T10:20:00Z</time>
      </trkpt>
      <trkpt lat="47.6963" lon="-2.23445">
        <ele>57.6</ele>
        <time>2021-05-27T10:20:01Z</time>
      </trkpt>
      <trkpt lat="47.69635" lon="-2.23436">
        <ele>56.1</ele>
        <time>2021-05-27T10:20:02Z</time>
      </trkpt>
      <trkpt lat="47.69639" lon="-2.23429">
        <ele>55</ele>
        <time>2021-05-27T10:20:03Z</time>
      </trkpt>
      <trkpt lat="47.69642" lon="-2.23423">
        <ele>54.1</ele>
        <time>2021-05-27T10:20:04Z</time>
      </trkpt>
      <trkpt lat="47.69644" lon="-2.23416">
        <ele>53.3</ele>
        <time>2021-05-27T10:20:05Z</time>
      </trkpt>
      <trkpt lat="47.69647" lon="-2.23408">
        <ele>52.4</ele>
        <time>2021-05-27T10:20:06Z</time>
      </trkpt>
      <trkpt lat="47.69648" lon="-2.23398">
        <ele>51.5</ele>
        <time>2021-05-27T10:20:07Z</time>
      </trkpt>
      <trkpt lat="47.69649" lon="-2.23388">
        <ele>50.6</ele>
        <time>2021-05-27T10:20:08Z</time>
      </trkpt>
      <trkpt lat="47.6965" lon="-2.23378">
        <ele>49.8</ele>
        <time>2021-05-27T10:20:09Z</time>
      </trkpt>
      <trkpt lat="47.69651" lon="-2.23369">
        <ele>49.2</ele>
        <time>2021-05-27T10:20:10Z</time>
      </trkpt>
      <trkpt lat="47.69651" lon="-2.23359">
        <ele>48.4</ele>
        <time>2021-05-27T10:20:11Z</time>
      </trkpt>
      <trkpt lat="47.69653" lon="-2.2335">
        <ele>47.5</ele>
        <time>2021-05-27T10:20:12Z</time>
      </trkpt>
      <trkpt lat="47.69655" lon="-2.23341">
        <ele>46.4</ele>
        <time>2021-05-27T10:20:13Z</time>
      </trkpt>
      <trkpt lat="47.69657" lon="-2.23335">
        <ele>45.5</ele>
        <time>2021-05-27T10:20:14Z</time>
      </trkpt>
      <trkpt lat="47.69658" lon="-2.23329">
        <ele>45</ele>
        <time>2021-05-27T10:20:15Z</time>
      </trkpt>
      <trkpt lat="47.69661" lon="-2.23324">
        <ele>44.5</ele>
        <time>2021-05-27T10:20:16Z</time>
      </trkpt>
      <trkpt lat="47.69663" lon="-2.2332">
        <ele>43.9</ele>
        <time>2021-05-27T10:20:17Z</time>
      </trkpt>
      <trkpt lat="47.69665" lon="-2.23316">
        <ele>43.5</ele>
        <time>2021-05-27T10:20:18Z</time>
      </trkpt>
      <trkpt lat="47.69665" lon="-2.23313">
        <ele>43.5</ele>
        <time>2021-05-27T10:20:19Z</time>
      </trkpt>
      <trkpt lat="47.69668" lon="-2.23315">
        <ele>42.7</ele>
        <time>2021-05-27T10:20:31Z</time>
      </trkpt>
      <trkpt lat="47.69671" lon="-2.23317">
        <ele>42.2</ele>
        <time>2021-05-27T10:20:32Z</time>
      </trkpt>
      <trkpt lat="47.69673" lon="-2.2332">
        <ele>41.7</ele>
        <time>2021-05-27T10:20:33Z</time>
      </trkpt>
      <trkpt lat="47.69675" lon="-2.23323">
        <ele>41.4</ele>
        <time>2021-05-27T10:20:34Z</time>
      </trkpt>
      <trkpt lat="47.69677" lon="-2.23326">
        <ele>41</ele>
        <time>2021-05-27T10:20:35Z</time>
      </trkpt>
      <trkpt lat="47.6968" lon="-2.23327">
        <ele>40.5</ele>
        <time>2021-05-27T10:20:36Z</time>
      </trkpt>
      <trkpt lat="47.69681" lon="-2.23329">
        <ele>40.1</ele>
        <time>2021-05-27T10:20:37Z</time>
      </trkpt>
      <trkpt lat="47.69684" lon="-2.23331">
        <ele>39.6</ele>
        <time>2021-05-27T10:20:38Z</time>
      </trkpt>
      <trkpt lat="47.69687" lon="-2.23333">
        <ele>39.1</ele>
        <time>2021-05-27T10:20:39Z</time>
      </trkpt>
      <trkpt lat="47.69689" lon="-2.23335">
        <ele>38.8</ele>
        <time>2021-05-27T10:20:40Z</time>
      </trkpt>
      <trkpt lat="47.69691" lon="-2.23338">
        <ele>38.5</ele>
        <time>2021-05-27T10:20:41Z</time>
      </trkpt>
      <trkpt lat="47.69695" lon="-2.23343">
        <ele>38.2</ele>
        <time>2021-05-27T10:20:42Z</time>
      </trkpt>
      <trkpt lat="47.69697" lon="-2.23348">
        <ele>37.9</ele>
        <time>2021-05-27T10:20:43Z</time>
      </trkpt>
      <trkpt lat="47.697" lon="-2.23353">
        <ele>37.6</ele>
        <time>2021-05-27T10:20:44Z</time>
      </trkpt>
      <trkpt lat="47.69703" lon="-2.23357">
        <ele>37.4</ele>
        <time>2021-05-27T10:20:45Z</time>
      </trkpt>
      <trkpt lat="47.69706" lon="-2.23363">
        <ele>36.9</ele>
        <time>2021-05-27T10:20:46Z</time>
      </trkpt>
      <trkpt lat="47.69708" lon="-2.23368">
        <ele>36.7</ele>
        <time>2021-05-27T10:20:47Z</time>
      </trkpt>
      <trkpt lat="47.69709" lon="-2.23374">
        <ele>36.7</ele>
        <time>2021-05-27T10:20:48Z</time>
      </trkpt>
      <trkpt lat="47.69709" lon="-2.23381">
        <ele>37</ele>
        <time>2021-05-27T10:20:49Z</time>
      </trkpt>
      <trkpt lat="47.6971" lon="-2.23387">
        <ele>37</ele>
        <time>2021-05-27T10:20:50Z</time>
      </trkpt>
      <trkpt lat="47.69711" lon="-2.23393">
        <ele>37.1</ele>
        <time>2021-05-27T10:20:51Z</time>
      </trkpt>
      <trkpt lat="47.69712" lon="-2.234">
        <ele>37.3</ele>
        <time>2021-05-27T10:20:52Z</time>
      </trkpt>
      <trkpt lat="47.69713" lon="-2.23408">
        <ele>37.5</ele>
        <time>2021-05-27T10:20:53Z</time>
      </trkpt>
      <trkpt lat="47.69713" lon="-2.23416">
        <ele>37.6</ele>
        <time>2021-05-27T10:20:54Z</time>
      </trkpt>
      <trkpt lat="47.69714" lon="-2.23423">
        <ele>37.7</ele>
        <time>2021-05-27T10:20:55Z</time>
      </trkpt>
      <trkpt lat="47.69714" lon="-2.23431">
        <ele>37.8</ele>
        <time>2021-05-27T10:20:56Z</time>
      </trkpt>
      <trkpt lat="47.69715" lon="-2.2344">
        <ele>37.8</ele>
        <time>2021-05-27T10:20:57Z</time>
      </trkpt>
      <trkpt lat="47.69716" lon="-2.23447">
        <ele>37.8</ele>
        <time>2021-05-27T10:20:58Z</time>
      </trkpt>
      <trkpt lat="47.69717" lon="-2.23455">
        <ele>37.7</ele>
        <time>2021-05-27T10:20:59Z</time>
      </trkpt>
      <trkpt lat="47.69717" lon="-2.23463">
        <ele>37.6</ele>
        <time>2021-05-27T10:21:00Z</time>
      </trkpt>
      <trkpt lat="47.69718" lon="-2.2347">
        <ele>37.5</ele>
        <time>2021-05-27T10:21:01Z</time>
      </trkpt>
      <trkpt lat="47.69719" lon="-2.23479">
        <ele>37.4</ele>
        <time>2021-05-27T10:21:02Z</time>
      </trkpt>
      <trkpt lat="47.6972" lon="-2.23487">
        <ele>37.2</ele>
        <time>2021-05-27T10:21:03Z</time>
      </trkpt>
      <trkpt lat="47.69722" lon="-2.23495">
        <ele>36.7</ele>
        <time>2021-05-27T10:21:04Z</time>
      </trkpt>
      <trkpt lat="47.69724" lon="-2.23503">
        <ele>36.2</ele>
        <time>2021-05-27T10:21:05Z</time>
      </trkpt>
      <trkpt lat="47.69725" lon="-2.23512">
        <ele>36</ele>
        <time>2021-05-27T10:21:06Z</time>
      </trkpt>
      <trkpt lat="47.69726" lon="-2.2352">
        <ele>35.8</ele>
        <time>2021-05-27T10:21:07Z</time>
      </trkpt>
      <trkpt lat="47.69727" lon="-2.23529">
        <ele>35.6</ele>
        <time>2021-05-27T10:21:08Z</time>
      </trkpt>
      <trkpt lat="47.69728" lon="-2.23538">
        <ele>35.3</ele>
        <time>2021-05-27T10:21:09Z</time>
      </trkpt>
      <trkpt lat="47.69729" lon="-2.23548">
        <ele>35.4</ele>
        <time>2021-05-27T10:21:10Z</time>
      </trkpt>
      <trkpt lat="47.6973" lon="-2.23558">
        <ele>35.3</ele>
        <time>2021-05-27T10:21:11Z</time>
      </trkpt>
      <trkpt lat="47.69729" lon="-2.23568">
        <ele>35.7</ele>
        <time>2021-05-27T10:21:12Z</time>
      </trkpt>
      <trkpt lat="47.6973" lon="-2.23577">
        <ele>35.7</ele>
        <time>2021-05-27T10:21:13Z</time>
      </trkpt>
      <trkpt lat="47.6973" lon="-2.23586">
        <ele>35.8</ele>
        <time>2021-05-27T10:21:14Z</time>
      </trkpt>
      <trkpt lat="47.6973" lon="-2.23595">
        <ele>35.8</ele>
        <time>2021-05-27T10:21:15Z</time>
      </trkpt>
      <trkpt lat="47.69732" lon="-2.23605">
        <ele>35.6</ele>
        <time>2021-05-27T10:21:16Z</time>
      </trkpt>
      <trkpt lat="47.69732" lon="-2.23614">
        <ele>35.7</ele>
        <time>2021-05-27T10:21:17Z</time>
      </trkpt>
      <trkpt lat="47.69732" lon="-2.23623">
        <ele>35.9</ele>
        <time>2021-05-27T10:21:18Z</time>
      </trkpt>
      <trkpt lat="47.69732" lon="-2.23632">
        <ele>35.9</ele>
        <time>2021-05-27T10:21:19Z</time>
      </trkpt>
      <trkpt lat="47.69733" lon="-2.23642">
        <ele>35.8</ele>
        <time>2021-05-27T10:21:20Z</time>
      </trkpt>
      <trkpt lat="47.69734" lon="-2.23651">
        <ele>35.6</ele>
        <time>2021-05-27T10:21:21Z</time>
      </trkpt>
      <trkpt lat="47.69735" lon="-2.23661">
        <ele>35.7</ele>
        <time>2021-05-27T10:21:22Z</time>
      </trkpt>
      <trkpt lat="47.69734" lon="-2.2367">
        <ele>36</ele>
        <time>2021-05-27T10:21:23Z</time>
      </trkpt>
      <trkpt lat="47.69734" lon="-2.2368">
        <ele>36.3</ele>
        <time>2021-05-27T10:21:24Z</time>
      </trkpt>
      <trkpt lat="47.69733" lon="-2.23689">
        <ele>37</ele>
        <time>2021-05-27T10:21:25Z</time>
      </trkpt>
      <trkpt lat="47.69733" lon="-2.23699">
        <ele>37.5</ele>
        <time>2021-05-27T10:21:26Z</time>
      </trkpt>
      <trkpt lat="47.69733" lon="-2.2371">
        <ele>37.8</ele>
        <time>2021-05-27T10:21:27Z</time>
      </trkpt>
      <trkpt lat="47.69732" lon="-2.2372">
        <ele>38.2</ele>
        <time>2021-05-27T10:21:28Z</time>
      </trkpt>
      <trkpt lat="47.69732" lon="-2.23731">
        <ele>38.6</ele>
        <time>2021-05-27T10:21:29Z</time>
      </trkpt>
      <trkpt lat="47.69732" lon="-2.23741">
        <ele>38.9</ele>
        <time>2021-05-27T10:21:30Z</time>
      </trkpt>
      <trkpt lat="47.69732" lon="-2.23751">
        <ele>39.2</ele>
        <time>2021-05-27T10:21:31Z</time>
      </trkpt>
      <trkpt lat="47.69732" lon="-2.2376">
        <ele>38.8</ele>
        <time>2021-05-27T10:21:32Z</time>
      </trkpt>
      <trkpt lat="47.69733" lon="-2.2377">
        <ele>38.1</ele>
        <time>2021-05-27T10:21:33Z</time>
      </trkpt>
      <trkpt lat="47.69733" lon="-2.23779">
        <ele>37.6</ele>
        <time>2021-05-27T10:21:34Z</time>
      </trkpt>
      <trkpt lat="47.69734" lon="-2.23788">
        <ele>36.7</ele>
        <time>2021-05-27T10:21:35Z</time>
      </trkpt>
      <trkpt lat="47.69734" lon="-2.23798">
        <ele>36.1</ele>
        <time>2021-05-27T10:21:36Z</time>
      </trkpt>
      <trkpt lat="47.69735" lon="-2.23807">
        <ele>35.3</ele>
        <time>2021-05-27T10:21:37Z</time>
      </trkpt>
      <trkpt lat="47.69735" lon="-2.23817">
        <ele>34.8</ele>
        <time>2021-05-27T10:21:38Z</time>
      </trkpt>
      <trkpt lat="47.69735" lon="-2.23827">
        <ele>34.4</ele>
        <time>2021-05-27T10:21:39Z</time>
      </trkpt>
      <trkpt lat="47.69735" lon="-2.23836">
        <ele>34</ele>
        <time>2021-05-27T10:21:40Z</time>
      </trkpt>
      <trkpt lat="47.69734" lon="-2.23846">
        <ele>33.8</ele>
        <time>2021-05-27T10:21:41Z</time>
      </trkpt>
      <trkpt lat="47.69734" lon="-2.23855">
        <ele>33.5</ele>
        <time>2021-05-27T10:21:42Z</time>
      </trkpt>
      <trkpt lat="47.69734" lon="-2.23864">
        <ele>33.4</ele>
        <time>2021-05-27T10:21:43Z</time>
      </trkpt>
      <trkpt lat="47.69733" lon="-2.23873">
        <ele>33</ele>
        <time>2021-05-27T10:21:44Z</time>
      </trkpt>
      <trkpt lat="47.69734" lon="-2.23883">
        <ele>32.4</ele>
        <time>2021-05-27T10:21:45Z</time>
      </trkpt>
      <trkpt lat="47.69734" lon="-2.23891">
        <ele>31.9</ele>
        <time>2021-05-27T10:21:46Z</time>
      </trkpt>
      <trkpt lat="47.69734" lon="-2.239">
        <ele>31.5</ele>
        <time>2021-05-27T10:21:47Z</time>
      </trkpt>
      <trkpt lat="47.69734" lon="-2.2391">
        <ele>31.2</ele>
        <time>2021-05-27T10:21:48Z</time>
      </trkpt>
      <trkpt lat="47.69734" lon="-2.2392">
        <ele>31</ele>
        <time>2021-05-27T10:21:49Z</time>
      </trkpt>
      <trkpt lat="47.69733" lon="-2.23928">
        <ele>30.8</ele>
        <time>2021-05-27T10:21:50Z</time>
      </trkpt>
      <trkpt lat="47.69733" lon="-2.23937">
        <ele>30.8</ele>
        <time>2021-05-27T10:21:51Z</time>
      </trkpt>
      <trkpt lat="47.69732" lon="-2.23947">
        <ele>30.9</ele>
        <time>2021-05-27T10:21:52Z</time>
      </trkpt>
      <trkpt lat="47.6973" lon="-2.23956">
        <ele>31.1</ele>
        <time>2021-05-27T10:21:53Z</time>
      </trkpt>
      <trkpt lat="47.69729" lon="-2.23967">
        <ele>31.4</ele>
        <time>2021-05-27T10:21:54Z</time>
      </trkpt>
      <trkpt lat="47.69727" lon="-2.23977">
        <ele>31.6</ele>
        <time>2021-05-27T10:21:55Z</time>
      </trkpt>
      <trkpt lat="47.69725" lon="-2.23987">
        <ele>32.1</ele>
        <time>2021-05-27T10:21:56Z</time>
      </trkpt>
      <trkpt lat="47.69724" lon="-2.23996">
        <ele>32.1</ele>
        <time>2021-05-27T10:21:57Z</time>
      </trkpt>
      <trkpt lat="47.69723" lon="-2.24005">
        <ele>32.4</ele>
        <time>2021-05-27T10:21:58Z</time>
      </trkpt>
      <trkpt lat="47.69722" lon="-2.24013">
        <ele>32.4</ele>
        <time>2021-05-27T10:21:59Z</time>
      </trkpt>
      <trkpt lat="47.6972" lon="-2.24022">
        <ele>32.6</ele>
        <time>2021-05-27T10:22:00Z</time>
      </trkpt>
      <trkpt lat="47.6972" lon="-2.2403">
        <ele>32.6</ele>
        <time>2021-05-27T10:22:01Z</time>
      </trkpt>
      <trkpt lat="47.6972" lon="-2.24039">
        <ele>32.4</ele>
        <time>2021-05-27T10:22:02Z</time>
      </trkpt>
      <trkpt lat="47.69719" lon="-2.24048">
        <ele>32.2</ele>
        <time>2021-05-27T10:22:03Z</time>
      </trkpt>
      <trkpt lat="47.69717" lon="-2.24057">
        <ele>32.6</ele>
        <time>2021-05-27T10:22:04Z</time>
      </trkpt>
      <trkpt lat="47.69716" lon="-2.24065">
        <ele>32.7</ele>
        <time>2021-05-27T10:22:05Z</time>
      </trkpt>
      <trkpt lat="47.69716" lon="-2.24074">
        <ele>32.5</ele>
        <time>2021-05-27T10:22:06Z</time>
      </trkpt>
      <trkpt lat="47.69715" lon="-2.24082">
        <ele>32.4</ele>
        <time>2021-05-27T10:22:07Z</time>
      </trkpt>
      <trkpt lat="47.69714" lon="-2.2409">
        <ele>32.9</ele>
        <time>2021-05-27T10:22:08Z</time>
      </trkpt>
      <trkpt lat="47.69713" lon="-2.24099">
        <ele>33.2</ele>
        <time>2021-05-27T10:22:09Z</time>
      </trkpt>
      <trkpt lat="47.69712" lon="-2.24108">
        <ele>33.4</ele>
        <time>2021-05-27T10:22:10Z</time>
      </trkpt>
      <trkpt lat="47.69712" lon="-2.24117">
        <ele>33.5</ele>
        <time>2021-05-27T10:22:11Z</time>
      </trkpt>
      <trkpt lat="47.69712" lon="-2.24126">
        <ele>33.4</ele>
        <time>2021-05-27T10:22:12Z</time>
      </trkpt>
      <trkpt lat="47.69711" lon="-2.24134">
        <ele>33.7</ele>
        <time>2021-05-27T10:22:13Z</time>
      </trkpt>
      <trkpt lat="47.69711" lon="-2.24142">
        <ele>33.9</ele>
        <time>2021-05-27T10:22:14Z</time>
      </trkpt>
      <trkpt lat="47.69711" lon="-2.24152">
        <ele>33.9</ele>
        <time>2021-05-27T10:22:15Z</time>
      </trkpt>
      <trkpt lat="47.69713" lon="-2.24163">
        <ele>33.4</ele>
        <time>2021-05-27T10:22:16Z</time>
      </trkpt>
      <trkpt lat="47.69715" lon="-2.24173">
        <ele>32.8</ele>
        <time>2021-05-27T10:22:17Z</time>
      </trkpt>
      <trkpt lat="47.69716" lon="-2.24183">
        <ele>32.3</ele>
        <time>2021-05-27T10:22:18Z</time>
      </trkpt>
      <trkpt lat="47.69717" lon="-2.24192">
        <ele>32</ele>
        <time>2021-05-27T10:22:19Z</time>
      </trkpt>
      <trkpt lat="47.69718" lon="-2.24199">
        <ele>31.7</ele>
        <time>2021-05-27T10:22:20Z</time>
      </trkpt>
      <trkpt lat="47.6972" lon="-2.24207">
        <ele>31.1</ele>
        <time>2021-05-27T10:22:21Z</time>
      </trkpt>
      <trkpt lat="47.69722" lon="-2.24214">
        <ele>30.6</ele>
        <time>2021-05-27T10:22:22Z</time>
      </trkpt>
      <trkpt lat="47.69723" lon="-2.2422">
        <ele>30.3</ele>
        <time>2021-05-27T10:22:23Z</time>
      </trkpt>
      <trkpt lat="47.69723" lon="-2.24226">
        <ele>30.3</ele>
        <time>2021-05-27T10:22:24Z</time>
      </trkpt>
      <trkpt lat="47.69723" lon="-2.24232">
        <ele>30.5</ele>
        <time>2021-05-27T10:22:25Z</time>
      </trkpt>
      <trkpt lat="47.69724" lon="-2.24236">
        <ele>30.4</ele>
        <time>2021-05-27T10:22:26Z</time>
      </trkpt>
      <trkpt lat="47.69724" lon="-2.2424">
        <ele>30.4</ele>
        <time>2021-05-27T10:22:27Z</time>
      </trkpt>
      <trkpt lat="47.69723" lon="-2.24244">
        <ele>30.6</ele>
        <time>2021-05-27T10:22:28Z</time>
      </trkpt>
      <trkpt lat="47.69722" lon="-2.24247">
        <ele>31.1</ele>
        <time>2021-05-27T10:22:29Z</time>
      </trkpt>
      <trkpt lat="47.6972" lon="-2.24248">
        <ele>31.8</ele>
        <time>2021-05-27T10:22:30Z</time>
      </trkpt>
      <trkpt lat="47.69719" lon="-2.2425">
        <ele>32</ele>
        <time>2021-05-27T10:22:31Z</time>
      </trkpt>
      <trkpt lat="47.69718" lon="-2.24252">
        <ele>32.3</ele>
        <time>2021-05-27T10:22:32Z</time>
      </trkpt>
      <trkpt lat="47.69718" lon="-2.24252">
        <ele>32.4</ele>
        <time>2021-05-27T10:22:33Z</time>
      </trkpt>
      <trkpt lat="47.69717" lon="-2.24251">
        <ele>32.5</ele>
        <time>2021-05-27T10:22:34Z</time>
      </trkpt>
      <trkpt lat="47.69717" lon="-2.24251">
        <ele>32.6</ele>
        <time>2021-05-27T10:22:35Z</time>
      </trkpt>
      <trkpt lat="47.69717" lon="-2.24249">
        <ele>32.8</ele>
        <time>2021-05-27T10:22:36Z</time>
      </trkpt>
      <trkpt lat="47.69716" lon="-2.24248">
        <ele>33.1</ele>
        <time>2021-05-27T10:22:37Z</time>
      </trkpt>
      <trkpt lat="47.69714" lon="-2.24247">
        <ele>33.6</ele>
        <time>2021-05-27T10:22:38Z</time>
      </trkpt>
      <trkpt lat="47.69713" lon="-2.24246">
        <ele>34</ele>
        <time>2021-05-27T10:22:39Z</time>
      </trkpt>
      <trkpt lat="47.69712" lon="-2.24245">
        <ele>34.2</ele>
        <time>2021-05-27T10:22:40Z</time>
      </trkpt>
      <trkpt lat="47.69711" lon="-2.24243">
        <ele>34.7</ele>
        <time>2021-05-27T10:22:41Z</time>
      </trkpt>
      <trkpt lat="47.69709" lon="-2.24242">
        <ele>35.3</ele>
        <time>2021-05-27T10:22:42Z</time>
      </trkpt>
      <trkpt lat="47.69707" lon="-2.2424">
        <ele>35.9</ele>
        <time>2021-05-27T10:22:43Z</time>
      </trkpt>
      <trkpt lat="47.69706" lon="-2.24238">
        <ele>36.2</ele>
        <time>2021-05-27T10:22:44Z</time>
      </trkpt>
      <trkpt lat="47.69705" lon="-2.24237">
        <ele>36.5</ele>
        <time>2021-05-27T10:22:45Z</time>
      </trkpt>
      <trkpt lat="47.69704" lon="-2.24236">
        <ele>36.7</ele>
        <time>2021-05-27T10:22:46Z</time>
      </trkpt>
      <trkpt lat="47.69704" lon="-2.24234">
        <ele>36.7</ele>
        <time>2021-05-27T10:22:47Z</time>
      </trkpt>
      <trkpt lat="47.69704" lon="-2.24231">
        <ele>36.9</ele>
        <time>2021-05-27T10:22:48Z</time>
      </trkpt>
      <trkpt lat="47.69703" lon="-2.24228">
        <ele>37</ele>
        <time>2021-05-27T10:22:49Z</time>
      </trkpt>
      <trkpt lat="47.69704" lon="-2.24226">
        <ele>36.9</ele>
        <time>2021-05-27T10:22:50Z</time>
      </trkpt>
      <trkpt lat="47.69704" lon="-2.24224">
        <ele>36.7</ele>
        <time>2021-05-27T10:22:51Z</time>
      </trkpt>
      <trkpt lat="47.69704" lon="-2.24221">
        <ele>36.7</ele>
        <time>2021-05-27T10:22:52Z</time>
      </trkpt>
      <trkpt lat="47.69704" lon="-2.24219">
        <ele>36.6</ele>
        <time>2021-05-27T10:22:53Z</time>
      </trkpt>
      <trkpt lat="47.69704" lon="-2.24215">
        <ele>36.7</ele>
        <time>2021-05-27T10:22:54Z</time>
      </trkpt>
      <trkpt lat="47.69704" lon="-2.24213">
        <ele>36.7</ele>
        <time>2021-05-27T10:22:55Z</time>
      </trkpt>
      <trkpt lat="47.69704" lon="-2.2421">
        <ele>36.7</ele>
        <time>2021-05-27T10:22:56Z</time>
      </trkpt>
      <trkpt lat="47.69704" lon="-2.24207">
        <ele>36.7</ele>
        <time>2021-05-27T10:22:57Z</time>
      </trkpt>
      <trkpt lat="47.69704" lon="-2.24204">
        <ele>36.7</ele>
        <time>2021-05-27T10:22:58Z</time>
      </trkpt>
      <trkpt lat="47.69704" lon="-2.24199">
        <ele>36.8</ele>
        <time>2021-05-27T10:22:59Z</time>
      </trkpt>
      <trkpt lat="47.69704" lon="-2.24196">
        <ele>36.8</ele>
        <time>2021-05-27T10:23:00Z</time>
      </trkpt>
      <trkpt lat="47.69703" lon="-2.24192">
        <ele>36.9</ele>
        <time>2021-05-27T10:23:01Z</time>
      </trkpt>
      <trkpt lat="47.69703" lon="-2.24188">
        <ele>37</ele>
        <time>2021-05-27T10:23:02Z</time>
      </trkpt>
      <trkpt lat="47.69702" lon="-2.24185">
        <ele>37.4</ele>
        <time>2021-05-27T10:23:03Z</time>
      </trkpt>
      <trkpt lat="47.69701" lon="-2.24182">
        <ele>37.7</ele>
        <time>2021-05-27T10:23:04Z</time>
      </trkpt>
      <trkpt lat="47.697" lon="-2.2418">
        <ele>38</ele>
        <time>2021-05-27T10:23:05Z</time>
      </trkpt>
      <trkpt lat="47.69699" lon="-2.24178">
        <ele>38.4</ele>
        <time>2021-05-27T10:23:06Z</time>
      </trkpt>
      <trkpt lat="47.69697" lon="-2.24176">
        <ele>39</ele>
        <time>2021-05-27T10:23:07Z</time>
      </trkpt>
      <trkpt lat="47.69696" lon="-2.24173">
        <ele>39.4</ele>
        <time>2021-05-27T10:23:08Z</time>
      </trkpt>
      <trkpt lat="47.69694" lon="-2.24171">
        <ele>40.2</ele>
        <time>2021-05-27T10:23:09Z</time>
      </trkpt>
      <trkpt lat="47.69694" lon="-2.24169">
        <ele>40.3</ele>
        <time>2021-05-27T10:23:10Z</time>
      </trkpt>
      <trkpt lat="47.69694" lon="-2.24167">
        <ele>40.2</ele>
        <time>2021-05-27T10:23:11Z</time>
      </trkpt>
      <trkpt lat="47.69694" lon="-2.24166">
        <ele>40.2</ele>
        <time>2021-05-27T10:23:12Z</time>
      </trkpt>
      <trkpt lat="47.69692" lon="-2.24164">
        <ele>41</ele>
        <time>2021-05-27T10:23:13Z</time>
      </trkpt>
      <trkpt lat="47.69691" lon="-2.24162">
        <ele>41.4</ele>
        <time>2021-05-27T10:23:14Z</time>
      </trkpt>
      <trkpt lat="47.6969" lon="-2.24159">
        <ele>41.4</ele>
        <time>2021-05-27T10:23:15Z</time>
      </trkpt>
      <trkpt lat="47.69691" lon="-2.24157">
        <ele>41.1</ele>
        <time>2021-05-27T10:23:16Z</time>
      </trkpt>
      <trkpt lat="47.69692" lon="-2.24153">
        <ele>40.8</ele>
        <time>2021-05-27T10:23:17Z</time>
      </trkpt>
      <trkpt lat="47.69692" lon="-2.2415">
        <ele>40.5</ele>
        <time>2021-05-27T10:23:18Z</time>
      </trkpt>
      <trkpt lat="47.69693" lon="-2.24147">
        <ele>40.3</ele>
        <time>2021-05-27T10:23:19Z</time>
      </trkpt>
      <trkpt lat="47.69694" lon="-2.24144">
        <ele>39.9</ele>
        <time>2021-05-27T10:23:20Z</time>
      </trkpt>
      <trkpt lat="47.69694" lon="-2.24142">
        <ele>39.7</ele>
        <time>2021-05-27T10:23:21Z</time>
      </trkpt>
      <trkpt lat="47.69694" lon="-2.24139">
        <ele>39.7</ele>
        <time>2021-05-27T10:23:22Z</time>
      </trkpt>
      <trkpt lat="47.69694" lon="-2.24136">
        <ele>39.9</ele>
        <time>2021-05-27T10:23:23Z</time>
      </trkpt>
      <trkpt lat="47.69693" lon="-2.24133">
        <ele>40</ele>
        <time>2021-05-27T10:23:24Z</time>
      </trkpt>
      <trkpt lat="47.69692" lon="-2.24131">
        <ele>40.5</ele>
        <time>2021-05-27T10:23:25Z</time>
      </trkpt>
      <trkpt lat="47.6969" lon="-2.24128">
        <ele>41.2</ele>
        <time>2021-05-27T10:23:26Z</time>
      </trkpt>
      <trkpt lat="47.69689" lon="-2.24125">
        <ele>41.3</ele>
        <time>2021-05-27T10:23:27Z</time>
      </trkpt>
      <trkpt lat="47.6969" lon="-2.24122">
        <ele>41.1</ele>
        <time>2021-05-27T10:23:28Z</time>
      </trkpt>
      <trkpt lat="47.69688" lon="-2.2412">
        <ele>41.6</ele>
        <time>2021-05-27T10:23:29Z</time>
      </trkpt>
      <trkpt lat="47.69688" lon="-2.24117">
        <ele>41.5</ele>
        <time>2021-05-27T10:23:30Z</time>
      </trkpt>
      <trkpt lat="47.69688" lon="-2.24114">
        <ele>41.7</ele>
        <time>2021-05-27T10:23:31Z</time>
      </trkpt>
      <trkpt lat="47.69687" lon="-2.24112">
        <ele>41.7</ele>
        <time>2021-05-27T10:23:32Z</time>
      </trkpt>
      <trkpt lat="47.69687" lon="-2.24109">
        <ele>41.6</ele>
        <time>2021-05-27T10:23:33Z</time>
      </trkpt>
      <trkpt lat="47.69688" lon="-2.24106">
        <ele>41.4</ele>
        <time>2021-05-27T10:23:34Z</time>
      </trkpt>
      <trkpt lat="47.69688" lon="-2.24103">
        <ele>41.4</ele>
        <time>2021-05-27T10:23:35Z</time>
      </trkpt>
      <trkpt lat="47.69687" lon="-2.24101">
        <ele>41.6</ele>
        <time>2021-05-27T10:23:36Z</time>
      </trkpt>
      <trkpt lat="47.69687" lon="-2.24096">
        <ele>41.7</ele>
        <time>2021-05-27T10:23:37Z</time>
      </trkpt>
      <trkpt lat="47.69686" lon="-2.2409">
        <ele>41.8</ele>
        <time>2021-05-27T10:23:38Z</time>
      </trkpt>
      <trkpt lat="47.69686" lon="-2.24085">
        <ele>41.8</ele>
        <time>2021-05-27T10:23:39Z</time>
      </trkpt>
      <trkpt lat="47.69686" lon="-2.24081">
        <ele>41.9</ele>
        <time>2021-05-27T10:23:40Z</time>
      </trkpt>
      <trkpt lat="47.69685" lon="-2.24078">
        <ele>42.3</ele>
        <time>2021-05-27T10:23:41Z</time>
      </trkpt>
      <trkpt lat="47.69684" lon="-2.24075">
        <ele>43</ele>
        <time>2021-05-27T10:23:42Z</time>
      </trkpt>
      <trkpt lat="47.69682" lon="-2.24071">
        <ele>43.7</ele>
        <time>2021-05-27T10:23:43Z</time>
      </trkpt>
      <trkpt lat="47.69682" lon="-2.24067">
        <ele>43.9</ele>
        <time>2021-05-27T10:23:44Z</time>
      </trkpt>
      <trkpt lat="47.69682" lon="-2.24064">
        <ele>44.1</ele>
        <time>2021-05-27T10:23:45Z</time>
      </trkpt>
      <trkpt lat="47.69683" lon="-2.24061">
        <ele>44.1</ele>
        <time>2021-05-27T10:23:46Z</time>
      </trkpt>
      <trkpt lat="47.69683" lon="-2.24059">
        <ele>44.3</ele>
        <time>2021-05-27T10:23:47Z</time>
      </trkpt>
      <trkpt lat="47.69683" lon="-2.24056">
        <ele>44.2</ele>
        <time>2021-05-27T10:23:48Z</time>
      </trkpt>
      <trkpt lat="47.69683" lon="-2.24053">
        <ele>44.5</ele>
        <time>2021-05-27T10:23:49Z</time>
      </trkpt>
      <trkpt lat="47.69682" lon="-2.24051">
        <ele>44.8</ele>
        <time>2021-05-27T10:23:50Z</time>
      </trkpt>
      <trkpt lat="47.69682" lon="-2.24049">
        <ele>45.1</ele>
        <time>2021-05-27T10:23:51Z</time>
      </trkpt>
      <trkpt lat="47.69683" lon="-2.24046">
        <ele>45</ele>
        <time>2021-05-27T10:23:52Z</time>
      </trkpt>
      <trkpt lat="47.69683" lon="-2.24044">
        <ele>45.1</ele>
        <time>2021-05-27T10:23:53Z</time>
      </trkpt>
      <trkpt lat="47.69683" lon="-2.24041">
        <ele>45.2</ele>
        <time>2021-05-27T10:23:54Z</time>
      </trkpt>
      <trkpt lat="47.69684" lon="-2.24039">
        <ele>45.2</ele>
        <time>2021-05-27T10:23:55Z</time>
      </trkpt>
      <trkpt lat="47.69683" lon="-2.24036">
        <ele>45.6</ele>
        <time>2021-05-27T10:23:56Z</time>
      </trkpt>
      <trkpt lat="47.69683" lon="-2.24034">
        <ele>45.8</ele>
        <time>2021-05-27T10:23:57Z</time>
      </trkpt>
      <trkpt lat="47.69683" lon="-2.24031">
        <ele>46</ele>
        <time>2021-05-27T10:23:58Z</time>
      </trkpt>
      <trkpt lat="47.69682" lon="-2.24028">
        <ele>46.2</ele>
        <time>2021-05-27T10:23:59Z</time>
      </trkpt>
      <trkpt lat="47.69682" lon="-2.24025">
        <ele>46.6</ele>
        <time>2021-05-27T10:24:00Z</time>
      </trkpt>
      <trkpt lat="47.69681" lon="-2.24023">
        <ele>47</ele>
        <time>2021-05-27T10:24:01Z</time>
      </trkpt>
      <trkpt lat="47.69681" lon="-2.24021">
        <ele>47</ele>
        <time>2021-05-27T10:24:02Z</time>
      </trkpt>
      <trkpt lat="47.69681" lon="-2.2402">
        <ele>47.3</ele>
        <time>2021-05-27T10:24:03Z</time>
      </trkpt>
      <trkpt lat="47.69681" lon="-2.24018">
        <ele>47.4</ele>
        <time>2021-05-27T10:24:04Z</time>
      </trkpt>
      <trkpt lat="47.69681" lon="-2.24016">
        <ele>47.4</ele>
        <time>2021-05-27T10:24:05Z</time>
      </trkpt>
      <trkpt lat="47.69681" lon="-2.24014">
        <ele>47.7</ele>
        <time>2021-05-27T10:24:06Z</time>
      </trkpt>
      <trkpt lat="47.69679" lon="-2.24012">
        <ele>48.5</ele>
        <time>2021-05-27T10:24:07Z</time>
      </trkpt>
      <trkpt lat="47.69679" lon="-2.2401">
        <ele>48.6</ele>
        <time>2021-05-27T10:24:08Z</time>
      </trkpt>
      <trkpt lat="47.69678" lon="-2.24007">
        <ele>49.1</ele>
        <time>2021-05-27T10:24:09Z</time>
      </trkpt>
      <trkpt lat="47.69678" lon="-2.24004">
        <ele>49.5</ele>
        <time>2021-05-27T10:24:10Z</time>
      </trkpt>
      <trkpt lat="47.69677" lon="-2.24001">
        <ele>49.9</ele>
        <time>2021-05-27T10:24:11Z</time>
      </trkpt>
      <trkpt lat="47.69677" lon="-2.23998">
        <ele>50.3</ele>
        <time>2021-05-27T10:24:12Z</time>
      </trkpt>
      <trkpt lat="47.69677" lon="-2.23996">
        <ele>50.4</ele>
        <time>2021-05-27T10:24:13Z</time>
      </trkpt>
      <trkpt lat="47.69677" lon="-2.23994">
        <ele>50.4</ele>
        <time>2021-05-27T10:24:14Z</time>
      </trkpt>
      <trkpt lat="47.69678" lon="-2.23993">
        <ele>50.3</ele>
        <time>2021-05-27T10:24:15Z</time>
      </trkpt>
      <trkpt lat="47.69678" lon="-2.23991">
        <ele>50.4</ele>
        <time>2021-05-27T10:24:16Z</time>
      </trkpt>
      <trkpt lat="47.69678" lon="-2.23988">
        <ele>50.4</ele>
        <time>2021-05-27T10:24:17Z</time>
      </trkpt>
      <trkpt lat="47.69678" lon="-2.23986">
        <ele>50.6</ele>
        <time>2021-05-27T10:24:18Z</time>
      </trkpt>
      <trkpt lat="47.69678" lon="-2.23985">
        <ele>50.8</ele>
        <time>2021-05-27T10:24:19Z</time>
      </trkpt>
      <trkpt lat="47.69678" lon="-2.23982">
        <ele>51</ele>
        <time>2021-05-27T10:24:20Z</time>
      </trkpt>
      <trkpt lat="47.69677" lon="-2.2398">
        <ele>51.2</ele>
        <time>2021-05-27T10:24:21Z</time>
      </trkpt>
      <trkpt lat="47.69677" lon="-2.23978">
        <ele>51.4</ele>
        <time>2021-05-27T10:24:22Z</time>
      </trkpt>
      <trkpt lat="47.69678" lon="-2.23976">
        <ele>51.4</ele>
        <time>2021-05-27T10:24:23Z</time>
      </trkpt>
      <trkpt lat="47.69678" lon="-2.23974">
        <ele>51.4</ele>
        <time>2021-05-27T10:24:24Z</time>
      </trkpt>
      <trkpt lat="47.69678" lon="-2.23972">
        <ele>51.4</ele>
        <time>2021-05-27T10:24:25Z</time>
      </trkpt>
      <trkpt lat="47.69677" lon="-2.23971">
        <ele>51.8</ele>
        <time>2021-05-27T10:24:26Z</time>
      </trkpt>
      <trkpt lat="47.69677" lon="-2.2397">
        <ele>52</ele>
        <time>2021-05-27T10:24:27Z</time>
      </trkpt>
      <trkpt lat="47.69677" lon="-2.23969">
        <ele>52.2</ele>
        <time>2021-05-27T10:24:28Z</time>
      </trkpt>
      <trkpt lat="47.69677" lon="-2.23969">
        <ele>52.2</ele>
        <time>2021-05-27T10:24:29Z</time>
      </trkpt>
      <trkpt lat="47.69675" lon="-2.23965">
        <ele>53.1</ele>
        <time>2021-05-27T10:24:30Z</time>
      </trkpt>
      <trkpt lat="47.69675" lon="-2.23964">
        <ele>53.3</ele>
        <time>2021-05-27T10:24:31Z</time>
      </trkpt>
      <trkpt lat="47.69674" lon="-2.23963">
        <ele>53.5</ele>
        <time>2021-05-27T10:24:32Z</time>
      </trkpt>
      <trkpt lat="47.69674" lon="-2.23962">
        <ele>53.7</ele>
        <time>2021-05-27T10:24:33Z</time>
      </trkpt>
      <trkpt lat="47.69674" lon="-2.23962">
        <ele>53.7</ele>
        <time>2021-05-27T10:24:34Z</time>
      </trkpt>
      <trkpt lat="47.69671" lon="-2.23959">
        <ele>55.1</ele>
        <time>2021-05-27T10:24:35Z</time>
      </trkpt>
      <trkpt lat="47.69668" lon="-2.23957">
        <ele>56.4</ele>
        <time>2021-05-27T10:24:36Z</time>
      </trkpt>
      <trkpt lat="47.69666" lon="-2.23954">
        <ele>57.3</ele>
        <time>2021-05-27T10:24:37Z</time>
      </trkpt>
      <trkpt lat="47.69665" lon="-2.23953">
        <ele>57.7</ele>
        <time>2021-05-27T10:24:38Z</time>
      </trkpt>
      <trkpt lat="47.69664" lon="-2.23951">
        <ele>58</ele>
        <time>2021-05-27T10:24:39Z</time>
      </trkpt>
      <trkpt lat="47.69663" lon="-2.23949">
        <ele>58.2</ele>
        <time>2021-05-27T10:24:40Z</time>
      </trkpt>
      <trkpt lat="47.69662" lon="-2.23948">
        <ele>58.4</ele>
        <time>2021-05-27T10:24:41Z</time>
      </trkpt>
      <trkpt lat="47.69663" lon="-2.23948">
        <ele>58.4</ele>
        <time>2021-05-27T10:24:42Z</time>
      </trkpt>
      <trkpt lat="47.69663" lon="-2.23947">
        <ele>58.4</ele>
        <time>2021-05-27T10:24:43Z</time>
      </trkpt>
      <trkpt lat="47.69663" lon="-2.23947">
        <ele>58.4</ele>
        <time>2021-05-27T10:24:44Z</time>
      </trkpt>
      <trkpt lat="47.69663" lon="-2.23947">
        <ele>58.4</ele>
        <time>2021-05-27T10:24:45Z</time>
      </trkpt>
      <trkpt lat="47.69663" lon="-2.23947">
        <ele>58.4</ele>
        <time>2021-05-27T10:24:46Z</time>
      </trkpt>
      <trkpt lat="47.69663" lon="-2.23947">
        <ele>58.4</ele>
        <time>2021-05-27T10:24:47Z</time>
      </trkpt>
      <trkpt lat="47.69663" lon="-2.23947">
        <ele>58.4</ele>
        <time>2021-05-27T10:24:48Z</time>
      </trkpt>
      <trkpt lat="47.69663" lon="-2.23947">
        <ele>58.4</ele>
        <time>2021-05-27T10:24:49Z</time>
      </trkpt>
      <trkpt lat="47.69663" lon="-2.23947">
        <ele>58.4</ele>
        <time>2021-05-27T10:24:50Z</time>
      </trkpt>
      <trkpt lat="47.69663" lon="-2.23947">
        <ele>58.4</ele>
        <time>2021-05-27T10:24:51Z</time>
      </trkpt>
      <trkpt lat="47.69663" lon="-2.23947">
        <ele>58.4</ele>
        <time>2021-05-27T10:24:52Z</time>
      </trkpt>
      <trkpt lat="47.69663" lon="-2.23947">
        <ele>58.4</ele>
        <time>2021-05-27T10:24:53Z</time>
      </trkpt>
      <trkpt lat="47.69663" lon="-2.23947">
        <ele>58.4</ele>
        <time>2021-05-27T10:24:54Z</time>
      </trkpt>
      <trkpt lat="47.69663" lon="-2.23947">
        <ele>58.4</ele>
        <time>2021-05-27T10:24:55Z</time>
      </trkpt>
      <trkpt lat="47.69663" lon="-2.23947">
        <ele>58.4</ele>
        <time>2021-05-27T10:24:56Z</time>
      </trkpt>
      <trkpt lat="47.69663" lon="-2.23947">
        <ele>58.4</ele>
        <time>2021-05-27T10:24:57Z</time>
      </trkpt>
      <trkpt lat="47.69663" lon="-2.23947">
        <ele>58.4</ele>
        <time>2021-05-27T10:24:58Z</time>
      </trkpt>
      <trkpt lat="47.69663" lon="-2.23947">
        <ele>58.4</ele>
        <time>2021-05-27T10:24:59Z</time>
      </trkpt>
      <trkpt lat="47.69663" lon="-2.23947">
        <ele>58.4</ele>
        <time>2021-05-27T10:25:00Z</time>
      </trkpt>
      <trkpt lat="47.69663" lon="-2.23947">
        <ele>58.4</ele>
        <time>2021-05-27T10:25:01Z</time>
      </trkpt>
      <trkpt lat="47.69663" lon="-2.23947">
        <ele>58.4</ele>
        <time>2021-05-27T10:25:02Z</time>
      </trkpt>
      <trkpt lat="47.69663" lon="-2.23947">
        <ele>58.4</ele>
        <time>2021-05-27T10:25:03Z</time>
      </trkpt>
      <trkpt lat="47.69663" lon="-2.23947">
        <ele>58.4</ele>
        <time>2021-05-27T10:25:04Z</time>
      </trkpt>
      <trkpt lat="47.69663" lon="-2.23947">
        <ele>58.4</ele>
        <time>2021-05-27T10:25:05Z</time>
      </trkpt>
      <trkpt lat="47.69663" lon="-2.23947">
        <ele>58.4</ele>
        <time>2021-05-27T10:25:06Z</time>
      </trkpt>
      <trkpt lat="47.69663" lon="-2.23947">
        <ele>58.4</ele>
        <time>2021-05-27T10:25:07Z</time>
      </trkpt>
      <trkpt lat="47.69663" lon="-2.23947">
        <ele>58.4</ele>
        <time>2021-05-27T10:25:08Z</time>
      </trkpt>
      <trkpt lat="47.69663" lon="-2.23947">
        <ele>58.4</ele>
        <time>2021-05-27T10:25:09Z</time>
      </trkpt>
      <trkpt lat="47.69663" lon="-2.23947">
        <ele>58.4</ele>
        <time>2021-05-27T10:25:10Z</time>
      </trkpt>
      <trkpt lat="47.69663" lon="-2.23947">
        <ele>58.4</ele>
        <time>2021-05-27T10:25:11Z</time>
      </trkpt>
      <trkpt lat="47.69659" lon="-2.23935">
        <ele>59.8</ele>
        <time>2021-05-27T10:25:12Z</time>
      </trkpt>
      <trkpt lat="47.6966" lon="-2.23932">
        <ele>59.8</ele>
        <time>2021-05-27T10:25:13Z</time>
      </trkpt>
      <trkpt lat="47.69661" lon="-2.23929">
        <ele>60</ele>
        <time>2021-05-27T10:25:14Z</time>
      </trkpt>
      <trkpt lat="47.69661" lon="-2.23925">
        <ele>60.1</ele>
        <time>2021-05-27T10:25:15Z</time>
      </trkpt>
      <trkpt lat="47.69661" lon="-2.23924">
        <ele>60.2</ele>
        <time>2021-05-27T10:25:16Z</time>
      </trkpt>
      <trkpt lat="47.69661" lon="-2.23923">
        <ele>60.4</ele>
        <time>2021-05-27T10:25:17Z</time>
      </trkpt>
      <trkpt lat="47.69661" lon="-2.23923">
        <ele>60.4</ele>
        <time>2021-05-27T10:25:18Z</time>
      </trkpt>
      <trkpt lat="47.69661" lon="-2.23923">
        <ele>60.4</ele>
        <time>2021-05-27T10:25:19Z</time>
      </trkpt>
      <trkpt lat="47.69661" lon="-2.23923">
        <ele>60.4</ele>
        <time>2021-05-27T10:25:20Z</time>
      </trkpt>
      <trkpt lat="47.69661" lon="-2.23923">
        <ele>60.4</ele>
        <time>2021-05-27T10:25:21Z</time>
      </trkpt>
      <trkpt lat="47.69658" lon="-2.23917">
        <ele>61.1</ele>
        <time>2021-05-27T10:25:22Z</time>
      </trkpt>
      <trkpt lat="47.69658" lon="-2.23915">
        <ele>61.2</ele>
        <time>2021-05-27T10:25:23Z</time>
      </trkpt>
      <trkpt lat="47.69658" lon="-2.23912">
        <ele>61.3</ele>
        <time>2021-05-27T10:25:24Z</time>
      </trkpt>
      <trkpt lat="47.69655" lon="-2.23911">
        <ele>61.7</ele>
        <time>2021-05-27T10:25:25Z</time>
      </trkpt>
      <trkpt lat="47.69652" lon="-2.2391">
        <ele>62</ele>
        <time>2021-05-27T10:25:26Z</time>
      </trkpt>
      <trkpt lat="47.69651" lon="-2.2391">
        <ele>62.3</ele>
        <time>2021-05-27T10:25:27Z</time>
      </trkpt>
      <trkpt lat="47.6965" lon="-2.23908">
        <ele>62.4</ele>
        <time>2021-05-27T10:25:28Z</time>
      </trkpt>
      <trkpt lat="47.69649" lon="-2.23908">
        <ele>62.5</ele>
        <time>2021-05-27T10:25:29Z</time>
      </trkpt>
      <trkpt lat="47.69648" lon="-2.23907">
        <ele>62.7</ele>
        <time>2021-05-27T10:25:30Z</time>
      </trkpt>
      <trkpt lat="47.69646" lon="-2.23907">
        <ele>62.9</ele>
        <time>2021-05-27T10:25:31Z</time>
      </trkpt>
      <trkpt lat="47.69645" lon="-2.23908">
        <ele>63</ele>
        <time>2021-05-27T10:25:32Z</time>
      </trkpt>
      <trkpt lat="47.69642" lon="-2.23908">
        <ele>63.4</ele>
        <time>2021-05-27T10:25:33Z</time>
      </trkpt>
      <trkpt lat="47.6964" lon="-2.23909">
        <ele>63.7</ele>
        <time>2021-05-27T10:25:34Z</time>
      </trkpt>
      <trkpt lat="47.69638" lon="-2.23908">
        <ele>64</ele>
        <time>2021-05-27T10:25:35Z</time>
      </trkpt>
      <trkpt lat="47.69635" lon="-2.23909">
        <ele>64.4</ele>
        <time>2021-05-27T10:25:36Z</time>
      </trkpt>
      <trkpt lat="47.69632" lon="-2.23909">
        <ele>64.7</ele>
        <time>2021-05-27T10:25:37Z</time>
      </trkpt>
      <trkpt lat="47.6963" lon="-2.23911">
        <ele>64.9</ele>
        <time>2021-05-27T10:25:38Z</time>
      </trkpt>
      <trkpt lat="47.69629" lon="-2.23913">
        <ele>65</ele>
        <time>2021-05-27T10:25:39Z</time>
      </trkpt>
      <trkpt lat="47.69628" lon="-2.23914">
        <ele>65.1</ele>
        <time>2021-05-27T10:25:40Z</time>
      </trkpt>
      <trkpt lat="47.69627" lon="-2.23916">
        <ele>65.3</ele>
        <time>2021-05-27T10:25:41Z</time>
      </trkpt>
      <trkpt lat="47.69625" lon="-2.23917">
        <ele>65.5</ele>
        <time>2021-05-27T10:25:42Z</time>
      </trkpt>
      <trkpt lat="47.69623" lon="-2.23917">
        <ele>65.7</ele>
        <time>2021-05-27T10:25:43Z</time>
      </trkpt>
      <trkpt lat="47.69621" lon="-2.23919">
        <ele>65.9</ele>
        <time>2021-05-27T10:25:44Z</time>
      </trkpt>
      <trkpt lat="47.69619" lon="-2.23921">
        <ele>66.1</ele>
        <time>2021-05-27T10:25:45Z</time>
      </trkpt>
      <trkpt lat="47.69617" lon="-2.23923">
        <ele>66.4</ele>
        <time>2021-05-27T10:25:46Z</time>
      </trkpt>
      <trkpt lat="47.69616" lon="-2.23926">
        <ele>66.4</ele>
        <time>2021-05-27T10:25:47Z</time>
      </trkpt>
      <trkpt lat="47.69615" lon="-2.23928">
        <ele>66.5</ele>
        <time>2021-05-27T10:25:48Z</time>
      </trkpt>
      <trkpt lat="47.69614" lon="-2.23931">
        <ele>66.6</ele>
        <time>2021-05-27T10:25:49Z</time>
      </trkpt>
      <trkpt lat="47.69614" lon="-2.23934">
        <ele>66.5</ele>
        <time>2021-05-27T10:25:50Z</time>
      </trkpt>
      <trkpt lat="47.69613" lon="-2.23937">
        <ele>66.6</ele>
        <time>2021-05-27T10:25:51Z</time>
      </trkpt>
      <trkpt lat="47.69612" lon="-2.2394">
        <ele>66.6</ele>
        <time>2021-05-27T10:25:52Z</time>
      </trkpt>
      <trkpt lat="47.69612" lon="-2.23942">
        <ele>66.6</ele>
        <time>2021-05-27T10:25:53Z</time>
      </trkpt>
      <trkpt lat="47.69611" lon="-2.23945">
        <ele>66.7</ele>
        <time>2021-05-27T10:25:54Z</time>
      </trkpt>
      <trkpt lat="47.6961" lon="-2.23948">
        <ele>66.8</ele>
        <time>2021-05-27T10:25:55Z</time>
      </trkpt>
      <trkpt lat="47.6961" lon="-2.23952">
        <ele>66.7</ele>
        <time>2021-05-27T10:25:56Z</time>
      </trkpt>
      <trkpt lat="47.6961" lon="-2.23956">
        <ele>66.6</ele>
        <time>2021-05-27T10:25:57Z</time>
      </trkpt>
      <trkpt lat="47.69609" lon="-2.23959">
        <ele>66.6</ele>
        <time>2021-05-27T10:25:58Z</time>
      </trkpt>
      <trkpt lat="47.69609" lon="-2.23962">
        <ele>66.6</ele>
        <time>2021-05-27T10:25:59Z</time>
      </trkpt>
      <trkpt lat="47.69608" lon="-2.23966">
        <ele>66.7</ele>
        <time>2021-05-27T10:26:00Z</time>
      </trkpt>
      <trkpt lat="47.69608" lon="-2.2397">
        <ele>66.7</ele>
        <time>2021-05-27T10:26:01Z</time>
      </trkpt>
      <trkpt lat="47.69606" lon="-2.23973">
        <ele>66.8</ele>
        <time>2021-05-27T10:26:02Z</time>
      </trkpt>
      <trkpt lat="47.69606" lon="-2.23976">
        <ele>66.8</ele>
        <time>2021-05-27T10:26:03Z</time>
      </trkpt>
      <trkpt lat="47.69605" lon="-2.2398">
        <ele>66.9</ele>
        <time>2021-05-27T10:26:04Z</time>
      </trkpt>
      <trkpt lat="47.69605" lon="-2.23983">
        <ele>66.9</ele>
        <time>2021-05-27T10:26:05Z</time>
      </trkpt>
      <trkpt lat="47.69605" lon="-2.23987">
        <ele>66.9</ele>
        <time>2021-05-27T10:26:06Z</time>
      </trkpt>
      <trkpt lat="47.69605" lon="-2.23991">
        <ele>66.7</ele>
        <time>2021-05-27T10:26:07Z</time>
      </trkpt>
      <trkpt lat="47.69606" lon="-2.23996">
        <ele>66.5</ele>
        <time>2021-05-27T10:26:08Z</time>
      </trkpt>
      <trkpt lat="47.69607" lon="-2.24001">
        <ele>66.2</ele>
        <time>2021-05-27T10:26:09Z</time>
      </trkpt>
      <trkpt lat="47.69608" lon="-2.24007">
        <ele>65.9</ele>
        <time>2021-05-27T10:26:10Z</time>
      </trkpt>
      <trkpt lat="47.69609" lon="-2.24012">
        <ele>65.6</ele>
        <time>2021-05-27T10:26:11Z</time>
      </trkpt>
      <trkpt lat="47.69609" lon="-2.24017">
        <ele>65.5</ele>
        <time>2021-05-27T10:26:12Z</time>
      </trkpt>
      <trkpt lat="47.6961" lon="-2.24023">
        <ele>65.3</ele>
        <time>2021-05-27T10:26:13Z</time>
      </trkpt>
      <trkpt lat="47.6961" lon="-2.24029">
        <ele>65.1</ele>
        <time>2021-05-27T10:26:14Z</time>
      </trkpt>
      <trkpt lat="47.69611" lon="-2.24035">
        <ele>64.8</ele>
        <time>2021-05-27T10:26:15Z</time>
      </trkpt>
      <trkpt lat="47.69611" lon="-2.24039">
        <ele>64.7</ele>
        <time>2021-05-27T10:26:16Z</time>
      </trkpt>
      <trkpt lat="47.69611" lon="-2.24044">
        <ele>64.7</ele>
        <time>2021-05-27T10:26:17Z</time>
      </trkpt>
      <trkpt lat="47.69611" lon="-2.24048">
        <ele>64.5</ele>
        <time>2021-05-27T10:26:18Z</time>
      </trkpt>
      <trkpt lat="47.69612" lon="-2.24052">
        <ele>64.1</ele>
        <time>2021-05-27T10:26:19Z</time>
      </trkpt>
      <trkpt lat="47.69612" lon="-2.24056">
        <ele>64.1</ele>
        <time>2021-05-27T10:26:20Z</time>
      </trkpt>
      <trkpt lat="47.69612" lon="-2.24061">
        <ele>64.1</ele>
        <time>2021-05-27T10:26:21Z</time>
      </trkpt>
      <trkpt lat="47.69612" lon="-2.24064">
        <ele>64</ele>
        <time>2021-05-27T10:26:22Z</time>
      </trkpt>
      <trkpt lat="47.69612" lon="-2.24068">
        <ele>64</ele>
        <time>2021-05-27T10:26:23Z</time>
      </trkpt>
      <trkpt lat="47.69612" lon="-2.24071">
        <ele>64</ele>
        <time>2021-05-27T10:26:24Z</time>
      </trkpt>
      <trkpt lat="47.69611" lon="-2.24075">
        <ele>64.1</ele>
        <time>2021-05-27T10:26:25Z</time>
      </trkpt>
      <trkpt lat="47.69611" lon="-2.24077">
        <ele>64.2</ele>
        <time>2021-05-27T10:26:26Z</time>
      </trkpt>
      <trkpt lat="47.6961" lon="-2.24078">
        <ele>64.3</ele>
        <time>2021-05-27T10:26:27Z</time>
      </trkpt>
      <trkpt lat="47.6961" lon="-2.24081">
        <ele>64.3</ele>
        <time>2021-05-27T10:26:28Z</time>
      </trkpt>
      <trkpt lat="47.6961" lon="-2.24083">
        <ele>64.2</ele>
        <time>2021-05-27T10:26:29Z</time>
      </trkpt>
      <trkpt lat="47.69609" lon="-2.24084">
        <ele>64.5</ele>
        <time>2021-05-27T10:26:30Z</time>
      </trkpt>
      <trkpt lat="47.69608" lon="-2.24087">
        <ele>64.8</ele>
        <time>2021-05-27T10:26:31Z</time>
      </trkpt>
      <trkpt lat="47.69607" lon="-2.24089">
        <ele>65.2</ele>
        <time>2021-05-27T10:26:32Z</time>
      </trkpt>
      <trkpt lat="47.69606" lon="-2.24092">
        <ele>65.5</ele>
        <time>2021-05-27T10:26:33Z</time>
      </trkpt>
      <trkpt lat="47.69605" lon="-2.24094">
        <ele>65.8</ele>
        <time>2021-05-27T10:26:34Z</time>
      </trkpt>
      <trkpt lat="47.69603" lon="-2.24096">
        <ele>66.2</ele>
        <time>2021-05-27T10:26:35Z</time>
      </trkpt>
      <trkpt lat="47.69602" lon="-2.241">
        <ele>66.7</ele>
        <time>2021-05-27T10:26:36Z</time>
      </trkpt>
      <trkpt lat="47.696" lon="-2.24103">
        <ele>67.1</ele>
        <time>2021-05-27T10:26:37Z</time>
      </trkpt>
      <trkpt lat="47.69598" lon="-2.24108">
        <ele>67.7</ele>
        <time>2021-05-27T10:26:38Z</time>
      </trkpt>
      <trkpt lat="47.69596" lon="-2.24113">
        <ele>68.1</ele>
        <time>2021-05-27T10:26:39Z</time>
      </trkpt>
      <trkpt lat="47.69596" lon="-2.24117">
        <ele>68.2</ele>
        <time>2021-05-27T10:26:40Z</time>
      </trkpt>
      <trkpt lat="47.69595" lon="-2.24123">
        <ele>68.5</ele>
        <time>2021-05-27T10:26:41Z</time>
      </trkpt>
      <trkpt lat="47.69592" lon="-2.24127">
        <ele>69.1</ele>
        <time>2021-05-27T10:26:42Z</time>
      </trkpt>
      <trkpt lat="47.6959" lon="-2.24132">
        <ele>69.6</ele>
        <time>2021-05-27T10:26:43Z</time>
      </trkpt>
      <trkpt lat="47.69589" lon="-2.24135">
        <ele>70</ele>
        <time>2021-05-27T10:26:44Z</time>
      </trkpt>
      <trkpt lat="47.69587" lon="-2.2414">
        <ele>70.4</ele>
        <time>2021-05-27T10:26:45Z</time>
      </trkpt>
      <trkpt lat="47.69586" lon="-2.24144">
        <ele>70.7</ele>
        <time>2021-05-27T10:26:46Z</time>
      </trkpt>
      <trkpt lat="47.69585" lon="-2.24149">
        <ele>70.9</ele>
        <time>2021-05-27T10:26:47Z</time>
      </trkpt>
      <trkpt lat="47.69584" lon="-2.24152">
        <ele>71</ele>
        <time>2021-05-27T10:26:48Z</time>
      </trkpt>
      <trkpt lat="47.69585" lon="-2.24154">
        <ele>70.8</ele>
        <time>2021-05-27T10:29:55Z</time>
      </trkpt>
      <trkpt lat="47.69585" lon="-2.24157">
        <ele>70.7</ele>
        <time>2021-05-27T10:29:56Z</time>
      </trkpt>
      <trkpt lat="47.69585" lon="-2.24159">
        <ele>70.7</ele>
        <time>2021-05-27T10:29:57Z</time>
      </trkpt>
      <trkpt lat="47.69585" lon="-2.24161">
        <ele>70.7</ele>
        <time>2021-05-27T10:29:58Z</time>
      </trkpt>
      <trkpt lat="47.69585" lon="-2.24163">
        <ele>70.7</ele>
        <time>2021-05-27T10:29:59Z</time>
      </trkpt>
      <trkpt lat="47.69584" lon="-2.24166">
        <ele>70.9</ele>
        <time>2021-05-27T10:30:00Z</time>
      </trkpt>
      <trkpt lat="47.69584" lon="-2.24167">
        <ele>70.9</ele>
        <time>2021-05-27T10:30:01Z</time>
      </trkpt>
      <trkpt lat="47.69583" lon="-2.24169">
        <ele>70.9</ele>
        <time>2021-05-27T10:30:02Z</time>
      </trkpt>
      <trkpt lat="47.69582" lon="-2.24173">
        <ele>70.8</ele>
        <time>2021-05-27T10:30:03Z</time>
      </trkpt>
      <trkpt lat="47.6958" lon="-2.24175">
        <ele>70.7</ele>
        <time>2021-05-27T10:30:04Z</time>
      </trkpt>
      <trkpt lat="47.69579" lon="-2.24177">
        <ele>70.6</ele>
        <time>2021-05-27T10:30:05Z</time>
      </trkpt>
      <trkpt lat="47.69576" lon="-2.24181">
        <ele>70.5</ele>
        <time>2021-05-27T10:30:06Z</time>
      </trkpt>
      <trkpt lat="47.69574" lon="-2.24184">
        <ele>70.4</ele>
        <time>2021-05-27T10:30:07Z</time>
      </trkpt>
      <trkpt lat="47.69573" lon="-2.24187">
        <ele>70.3</ele>
        <time>2021-05-27T10:30:08Z</time>
      </trkpt>
      <trkpt lat="47.6957" lon="-2.2419">
        <ele>70.2</ele>
        <time>2021-05-27T10:30:09Z</time>
      </trkpt>
      <trkpt lat="47.69569" lon="-2.24193">
        <ele>70.1</ele>
        <time>2021-05-27T10:30:10Z</time>
      </trkpt>
      <trkpt lat="47.69567" lon="-2.24195">
        <ele>70.1</ele>
        <time>2021-05-27T10:30:11Z</time>
      </trkpt>
      <trkpt lat="47.69565" lon="-2.24196">
        <ele>70</ele>
        <time>2021-05-27T10:30:12Z</time>
      </trkpt>
      <trkpt lat="47.69563" lon="-2.24198">
        <ele>69.9</ele>
        <time>2021-05-27T10:30:13Z</time>
      </trkpt>
      <trkpt lat="47.6956" lon="-2.242">
        <ele>69.9</ele>
        <time>2021-05-27T10:30:14Z</time>
      </trkpt>
      <trkpt lat="47.69558" lon="-2.24203">
        <ele>69.8</ele>
        <time>2021-05-27T10:30:15Z</time>
      </trkpt>
      <trkpt lat="47.69557" lon="-2.24207">
        <ele>69.7</ele>
        <time>2021-05-27T10:30:16Z</time>
      </trkpt>
      <trkpt lat="47.69557" lon="-2.24211">
        <ele>69.6</ele>
        <time>2021-05-27T10:30:17Z</time>
      </trkpt>
      <trkpt lat="47.69558" lon="-2.24221">
        <ele>69.5</ele>
        <time>2021-05-27T10:30:18Z</time>
      </trkpt>
      <trkpt lat="47.69553" lon="-2.24219">
        <ele>69.5</ele>
        <time>2021-05-27T10:30:19Z</time>
      </trkpt>
      <trkpt lat="47.69546" lon="-2.24218">
        <ele>69.4</ele>
      </trkpt>
      <trkpt lat="47.69541" lon="-2.24224">
        <ele>69.3</ele>
      </trkpt>
      <trkpt lat="47.69537" lon="-2.24234">
        <ele>69.2</ele>
      </trkpt>
      <trkpt lat="47.69534" lon="-2.24242">
        <ele>69.1</ele>
      </trkpt>
      <trkpt lat="47.69531" lon="-2.2425">
        <ele>69</ele>
      </trkpt>
      <trkpt lat="47.69531" lon="-2.24253">
        <ele>69</ele>
      </trkpt>
      <trkpt lat="47.69532" lon="-2.24258">
        <ele>68.9</ele>
      </trkpt>
      <trkpt lat="47.69533" lon="-2.24261">
        <ele>68.9</ele>
      </trkpt>
      <trkpt lat="47.69533" lon="-2.24265">
        <ele>68.9</ele>
      </trkpt>
      <trkpt lat="47.69533" lon="-2.24267">
        <ele>68.9</ele>
      </trkpt>
      <trkpt lat="47.69533" lon="-2.24273">
        <ele>68.8</ele>
      </trkpt>
      <trkpt lat="47.69532" lon="-2.24275">
        <ele>68.8</ele>
      </trkpt>
      <trkpt lat="47.69531" lon="-2.24282">
        <ele>68.8</ele>
      </trkpt>
      <trkpt lat="47.69531" lon="-2.24284">
        <ele>68.7</ele>
      </trkpt>
      <trkpt lat="47.69531" lon="-2.24293">
        <ele>68.7</ele>
      </trkpt>
      <trkpt lat="47.69531" lon="-2.24296">
        <ele>68.7</ele>
      </trkpt>
      <trkpt lat="47.69532" lon="-2.24302">
        <ele>68.6</ele>
      </trkpt>
      <trkpt lat="47.69532" lon="-2.24305">
        <ele>68.6</ele>
      </trkpt>
      <trkpt lat="47.69532" lon="-2.2431">
        <ele>68.6</ele>
      </trkpt>
      <trkpt lat="47.69532" lon="-2.24314">
        <ele>68.5</ele>
      </trkpt>
      <trkpt lat="47.69532" lon="-2.24318">
        <ele>68.5</ele>
      </trkpt>
      <trkpt lat="47.69533" lon="-2.24321">
        <ele>68.5</ele>
      </trkpt>
      <trkpt lat="47.69535" lon="-2.24326">
        <ele>68.5</ele>
      </trkpt>
      <trkpt lat="47.69536" lon="-2.24329">
        <ele>68.5</ele>
      </trkpt>
      <trkpt lat="47.69538" lon="-2.24334">
        <ele>68.4</ele>
      </trkpt>
      <trkpt lat="47.69539" lon="-2.24337">
        <ele>68.4</ele>
      </trkpt>
      <trkpt lat="47.69539" lon="-2.24339">
        <ele>68.4</ele>
      </trkpt>
      <trkpt lat="47.6954" lon="-2.24342">
        <ele>68.3</ele>
      </trkpt>
      <trkpt lat="47.69541" lon="-2.24345">
        <ele>68.3</ele>
      </trkpt>
      <trkpt lat="47.69544" lon="-2.24353">
        <ele>68.2</ele>
      </trkpt>
      <trkpt lat="47.69544" lon="-2.24355">
        <ele>68.1</ele>
      </trkpt>
      <trkpt lat="47.69543" lon="-2.24358">
        <ele>68.1</ele>
      </trkpt>
      <trkpt lat="47.69541" lon="-2.24363">
        <ele>68</ele>
      </trkpt>
      <trkpt lat="47.69538" lon="-2.2437">
        <ele>67.8</ele>
      </trkpt>
      <trkpt lat="47.69538" lon="-2.24373">
        <ele>67.8</ele>
      </trkpt>
      <trkpt lat="47.69538" lon="-2.24379">
        <ele>67.7</ele>
      </trkpt>
      <trkpt lat="47.69539" lon="-2.24397">
        <ele>67.4</ele>
      </trkpt>
      <trkpt lat="47.69539" lon="-2.244">
        <ele>67.3</ele>
      </trkpt>
      <trkpt lat="47.69538" lon="-2.24403">
        <ele>67.2</ele>
      </trkpt>
      <trkpt lat="47.69537" lon="-2.24411">
        <ele>67.1</ele>
      </trkpt>
      <trkpt lat="47.69538" lon="-2.24414">
        <ele>67.1</ele>
      </trkpt>
      <trkpt lat="47.69538" lon="-2.24421">
        <ele>67</ele>
      </trkpt>
      <trkpt lat="47.69537" lon="-2.24424">
        <ele>67</ele>
      </trkpt>
      <trkpt lat="47.69537" lon="-2.24434">
        <ele>67.1</ele>
      </trkpt>
      <trkpt lat="47.69538" lon="-2.24436">
        <ele>67.1</ele>
      </trkpt>
      <trkpt lat="47.69541" lon="-2.24446">
        <ele>67.2</ele>
      </trkpt>
      <trkpt lat="47.69541" lon="-2.24449">
        <ele>67.2</ele>
      </trkpt>
      <trkpt lat="47.69544" lon="-2.2446">
        <ele>67.3</ele>
      </trkpt>
      <trkpt lat="47.69544" lon="-2.24463">
        <ele>67.3</ele>
      </trkpt>
      <trkpt lat="47.69544" lon="-2.24466">
        <ele>67.3</ele>
      </trkpt>
      <trkpt lat="47.69544" lon="-2.24469">
        <ele>67.3</ele>
      </trkpt>
      <trkpt lat="47.69545" lon="-2.24475">
        <ele>67.4</ele>
      </trkpt>
      <trkpt lat="47.69545" lon="-2.24479">
        <ele>67.4</ele>
      </trkpt>
      <trkpt lat="47.69546" lon="-2.24482">
        <ele>67.4</ele>
      </trkpt>
      <trkpt lat="47.69546" lon="-2.24485">
        <ele>67.5</ele>
      </trkpt>
      <trkpt lat="47.69545" lon="-2.24488">
        <ele>67.5</ele>
      </trkpt>
      <trkpt lat="47.69545" lon="-2.24491">
        <ele>67.5</ele>
      </trkpt>
      <trkpt lat="47.69544" lon="-2.24495">
        <ele>67.5</ele>
      </trkpt>
      <trkpt lat="47.69548" lon="-2.24505">
        <ele>67.6</ele>
      </trkpt>
      <trkpt lat="47.69548" lon="-2.24507">
        <ele>67.5</ele>
      </trkpt>
      <trkpt lat="47.69547" lon="-2.24523">
        <ele>67.4</ele>
      </trkpt>
      <trkpt lat="47.69549" lon="-2.24526">
        <ele>67.5</ele>
      </trkpt>
      <trkpt lat="47.69558" lon="-2.24531">
        <ele>67.6</ele>
      </trkpt>
      <trkpt lat="47.69564" lon="-2.24542">
        <ele>67.6</ele>
      </trkpt>
      <trkpt lat="47.69566" lon="-2.24544">
        <ele>67.7</ele>
      </trkpt>
      <trkpt lat="47.6957" lon="-2.2455">
        <ele>67.7</ele>
      </trkpt>
      <trkpt lat="47.6957" lon="-2.24553">
        <ele>67.7</ele>
      </trkpt>
      <trkpt lat="47.69573" lon="-2.24557">
        <ele>67.8</ele>
      </trkpt>
      <trkpt lat="47.69574" lon="-2.24559">
        <ele>67.8</ele>
      </trkpt>
      <trkpt lat="47.69576" lon="-2.24568">
        <ele>67.8</ele>
      </trkpt>
      <trkpt lat="47.69582" lon="-2.24574">
        <ele>68</ele>
      </trkpt>
      <trkpt lat="47.69587" lon="-2.24579">
        <ele>67.6</ele>
      </trkpt>
      <trkpt lat="47.69582" lon="-2.24592">
        <ele>67.9</ele>
      </trkpt>
      <trkpt lat="47.69579" lon="-2.24604">
        <ele>67.6</ele>
      </trkpt>
      <trkpt lat="47.6958" lon="-2.24609">
        <ele>67.6</ele>
      </trkpt>
      <trkpt lat="47.69581" lon="-2.24621">
        <ele>67.5</ele>
      </trkpt>
      <trkpt lat="47.69579" lon="-2.24633">
        <ele>67.3</ele>
      </trkpt>
      <trkpt lat="47.69578" lon="-2.24644">
        <ele>67.1</ele>
      </trkpt>
      <trkpt lat="47.69578" lon="-2.24653">
        <ele>67</ele>
      </trkpt>
      <trkpt lat="47.69578" lon="-2.24665">
        <ele>66.8</ele>
      </trkpt>
      <trkpt lat="47.69577" lon="-2.24667">
        <ele>66.8</ele>
      </trkpt>
      <trkpt lat="47.69576" lon="-2.2467">
        <ele>66.8</ele>
      </trkpt>
      <trkpt lat="47.69576" lon="-2.24673">
        <ele>66.9</ele>
      </trkpt>
      <trkpt lat="47.69576" lon="-2.2468">
        <ele>67</ele>
      </trkpt>
      <trkpt lat="47.69576" lon="-2.24683">
        <ele>67.1</ele>
      </trkpt>
      <trkpt lat="47.69577" lon="-2.24685">
        <ele>67.2</ele>
      </trkpt>
      <trkpt lat="47.6958" lon="-2.24694">
        <ele>67.5</ele>
      </trkpt>
      <trkpt lat="47.69579" lon="-2.24697">
        <ele>67.5</ele>
      </trkpt>
      <trkpt lat="47.6958" lon="-2.247">
        <ele>67.6</ele>
      </trkpt>
      <trkpt lat="47.6958" lon="-2.24704">
        <ele>67.7</ele>
      </trkpt>
      <trkpt lat="47.6958" lon="-2.24706">
        <ele>67.8</ele>
      </trkpt>
      <trkpt lat="47.69581" lon="-2.24719">
        <ele>68.1</ele>
      </trkpt>
      <trkpt lat="47.69581" lon="-2.24741">
        <ele>68.6</ele>
      </trkpt>
      <trkpt lat="47.69584" lon="-2.24762">
        <ele>69.1</ele>
      </trkpt>
      <trkpt lat="47.69585" lon="-2.24765">
        <ele>69.1</ele>
      </trkpt>
      <trkpt lat="47.69586" lon="-2.24777">
        <ele>69.3</ele>
      </trkpt>
      <trkpt lat="47.69588" lon="-2.24795">
        <ele>69.5</ele>
      </trkpt>
      <trkpt lat="47.69589" lon="-2.24798">
        <ele>69.5</ele>
      </trkpt>
      <trkpt lat="47.69594" lon="-2.24814">
        <ele>69.7</ele>
      </trkpt>
      <trkpt lat="47.69595" lon="-2.24817">
        <ele>69.7</ele>
      </trkpt>
      <trkpt lat="47.69596" lon="-2.24819">
        <ele>69.8</ele>
      </trkpt>
      <trkpt lat="47.69599" lon="-2.24829">
        <ele>69.9</ele>
      </trkpt>
      <trkpt lat="47.69601" lon="-2.2483">
        <ele>69.9</ele>
      </trkpt>
      <trkpt lat="47.69606" lon="-2.24834">
        <ele>70</ele>
      </trkpt>
      <trkpt lat="47.69608" lon="-2.24834">
        <ele>70</ele>
      </trkpt>
      <trkpt lat="47.69613" lon="-2.24837">
        <ele>70</ele>
      </trkpt>
      <trkpt lat="47.69629" lon="-2.24864">
        <ele>69.8</ele>
      </trkpt>
      <trkpt lat="47.69628" lon="-2.24894">
        <ele>69.7</ele>
      </trkpt>
      <trkpt lat="47.69627" lon="-2.2492">
        <ele>69.5</ele>
      </trkpt>
      <trkpt lat="47.69628" lon="-2.24926">
        <ele>69.3</ele>
      </trkpt>
      <trkpt lat="47.69632" lon="-2.24938">
        <ele>69.1</ele>
      </trkpt>
      <trkpt lat="47.69642" lon="-2.24946">
        <ele>69.1</ele>
      </trkpt>
      <trkpt lat="47.69652" lon="-2.24948">
        <ele>69.3</ele>
      </trkpt>
      <trkpt lat="47.69656" lon="-2.24956">
        <ele>69.3</ele>
        <time>2021-05-27T10:32:34Z</time>
      </trkpt>
      <trkpt lat="47.69656" lon="-2.24963">
        <ele>69.2</ele>
        <time>2021-05-27T10:32:35Z</time>
      </trkpt>
      <trkpt lat="47.69657" lon="-2.2497">
        <ele>69.1</ele>
        <time>2021-05-27T10:32:36Z</time>
      </trkpt>
      <trkpt lat="47.69656" lon="-2.24977">
        <ele>69</ele>
        <time>2021-05-27T10:32:37Z</time>
      </trkpt>
      <trkpt lat="47.69656" lon="-2.24984">
        <ele>68.9</ele>
        <time>2021-05-27T10:32:38Z</time>
      </trkpt>
      <trkpt lat="47.69657" lon="-2.2499">
        <ele>68.8</ele>
        <time>2021-05-27T10:32:39Z</time>
      </trkpt>
      <trkpt lat="47.69658" lon="-2.24997">
        <ele>68.7</ele>
        <time>2021-05-27T10:32:40Z</time>
      </trkpt>
      <trkpt lat="47.69659" lon="-2.25004">
        <ele>68.7</ele>
        <time>2021-05-27T10:32:41Z</time>
      </trkpt>
      <trkpt lat="47.6966" lon="-2.25012">
        <ele>68.8</ele>
        <time>2021-05-27T10:32:42Z</time>
      </trkpt>
      <trkpt lat="47.6966" lon="-2.25019">
        <ele>68.8</ele>
        <time>2021-05-27T10:32:43Z</time>
      </trkpt>
      <trkpt lat="47.6966" lon="-2.25026">
        <ele>68.8</ele>
        <time>2021-05-27T10:32:44Z</time>
      </trkpt>
      <trkpt lat="47.6966" lon="-2.25033">
        <ele>68.8</ele>
        <time>2021-05-27T10:32:45Z</time>
      </trkpt>
      <trkpt lat="47.69661" lon="-2.2504">
        <ele>68.8</ele>
        <time>2021-05-27T10:32:46Z</time>
      </trkpt>
      <trkpt lat="47.69661" lon="-2.25046">
        <ele>68.8</ele>
        <time>2021-05-27T10:32:47Z</time>
      </trkpt>
      <trkpt lat="47.6966" lon="-2.25052">
        <ele>68.8</ele>
        <time>2021-05-27T10:32:48Z</time>
      </trkpt>
      <trkpt lat="47.69661" lon="-2.25058">
        <ele>68.8</ele>
        <time>2021-05-27T10:32:49Z</time>
      </trkpt>
      <trkpt lat="47.69662" lon="-2.25065">
        <ele>68.9</ele>
        <time>2021-05-27T10:32:50Z</time>
      </trkpt>
      <trkpt lat="47.69663" lon="-2.25071">
        <ele>68.9</ele>
        <time>2021-05-27T10:32:51Z</time>
      </trkpt>
      <trkpt lat="47.69665" lon="-2.25078">
        <ele>69</ele>
        <time>2021-05-27T10:32:52Z</time>
      </trkpt>
      <trkpt lat="47.69667" lon="-2.25085">
        <ele>69</ele>
        <time>2021-05-27T10:32:53Z</time>
      </trkpt>
      <trkpt lat="47.69669" lon="-2.25092">
        <ele>68.7</ele>
        <time>2021-05-27T10:32:54Z</time>
      </trkpt>
      <trkpt lat="47.69672" lon="-2.25098">
        <ele>68.5</ele>
        <time>2021-05-27T10:32:55Z</time>
      </trkpt>
      <trkpt lat="47.69674" lon="-2.25105">
        <ele>68.3</ele>
        <time>2021-05-27T10:32:56Z</time>
      </trkpt>
      <trkpt lat="47.69678" lon="-2.25112">
        <ele>68.1</ele>
        <time>2021-05-27T10:32:57Z</time>
      </trkpt>
      <trkpt lat="47.69681" lon="-2.25118">
        <ele>67.9</ele>
        <time>2021-05-27T10:32:58Z</time>
      </trkpt>
      <trkpt lat="47.69684" lon="-2.25124">
        <ele>67.7</ele>
        <time>2021-05-27T10:32:59Z</time>
      </trkpt>
      <trkpt lat="47.69687" lon="-2.2513">
        <ele>67.5</ele>
        <time>2021-05-27T10:33:00Z</time>
      </trkpt>
      <trkpt lat="47.69689" lon="-2.25137">
        <ele>67.4</ele>
        <time>2021-05-27T10:33:01Z</time>
      </trkpt>
      <trkpt lat="47.69691" lon="-2.25143">
        <ele>67.2</ele>
        <time>2021-05-27T10:33:02Z</time>
      </trkpt>
      <trkpt lat="47.69694" lon="-2.25149">
        <ele>67</ele>
        <time>2021-05-27T10:33:03Z</time>
      </trkpt>
      <trkpt lat="47.69697" lon="-2.25154">
        <ele>66.9</ele>
        <time>2021-05-27T10:33:04Z</time>
      </trkpt>
      <trkpt lat="47.697" lon="-2.25159">
        <ele>66.8</ele>
        <time>2021-05-27T10:33:05Z</time>
      </trkpt>
      <trkpt lat="47.69706" lon="-2.25167">
        <ele>66.5</ele>
        <time>2021-05-27T10:33:07Z</time>
      </trkpt>
      <trkpt lat="47.69708" lon="-2.25171">
        <ele>66.5</ele>
        <time>2021-05-27T10:33:08Z</time>
      </trkpt>
      <trkpt lat="47.6971" lon="-2.25173">
        <ele>66.4</ele>
        <time>2021-05-27T10:33:09Z</time>
      </trkpt>
      <trkpt lat="47.69711" lon="-2.25174">
        <ele>66.4</ele>
        <time>2021-05-27T10:33:10Z</time>
      </trkpt>
      <trkpt lat="47.6971" lon="-2.25174">
        <ele>66.4</ele>
        <time>2021-05-27T10:33:11Z</time>
      </trkpt>
      <trkpt lat="47.69711" lon="-2.25174">
        <ele>66.4</ele>
        <time>2021-05-27T10:33:12Z</time>
      </trkpt>
      <trkpt lat="47.69711" lon="-2.25174">
        <ele>66.4</ele>
        <time>2021-05-27T10:33:13Z</time>
      </trkpt>
      <trkpt lat="47.69711" lon="-2.25174">
        <ele>66.4</ele>
        <time>2021-05-27T10:33:14Z</time>
      </trkpt>
      <trkpt lat="47.69711" lon="-2.25174">
        <ele>66.4</ele>
        <time>2021-05-27T10:33:15Z</time>
      </trkpt>
      <trkpt lat="47.69711" lon="-2.25174">
        <ele>66.4</ele>
        <time>2021-05-27T10:33:16Z</time>
      </trkpt>
      <trkpt lat="47.69711" lon="-2.25174">
        <ele>66.4</ele>
        <time>2021-05-27T10:33:17Z</time>
      </trkpt>
      <trkpt lat="47.69711" lon="-2.25174">
        <ele>66.4</ele>
        <time>2021-05-27T10:33:18Z</time>
      </trkpt>
      <trkpt lat="47.69711" lon="-2.25174">
        <ele>66.4</ele>
        <time>2021-05-27T10:33:19Z</time>
      </trkpt>
      <trkpt lat="47.69711" lon="-2.25174">
        <ele>66.4</ele>
        <time>2021-05-27T10:33:20Z</time>
      </trkpt>
      <trkpt lat="47.69713" lon="-2.25178">
        <ele>66.4</ele>
        <time>2021-05-27T10:33:21Z</time>
      </trkpt>
      <trkpt lat="47.69714" lon="-2.25181">
        <ele>66.4</ele>
        <time>2021-05-27T10:33:22Z</time>
      </trkpt>
      <trkpt lat="47.69714" lon="-2.25185">
        <ele>66.4</ele>
        <time>2021-05-27T10:33:23Z</time>
      </trkpt>
      <trkpt lat="47.69714" lon="-2.25189">
        <ele>66.4</ele>
        <time>2021-05-27T10:33:24Z</time>
      </trkpt>
      <trkpt lat="47.69712" lon="-2.25192">
        <ele>66.3</ele>
        <time>2021-05-27T10:33:25Z</time>
      </trkpt>
      <trkpt lat="47.69709" lon="-2.25197">
        <ele>66.3</ele>
        <time>2021-05-27T10:33:27Z</time>
      </trkpt>
      <trkpt lat="47.69707" lon="-2.252">
        <ele>66.3</ele>
        <time>2021-05-27T10:33:28Z</time>
      </trkpt>
      <trkpt lat="47.69701" lon="-2.25205">
        <ele>66.2</ele>
        <time>2021-05-27T10:33:30Z</time>
      </trkpt>
      <trkpt lat="47.69695" lon="-2.25212">
        <ele>66.1</ele>
        <time>2021-05-27T10:33:32Z</time>
      </trkpt>
      <trkpt lat="47.69691" lon="-2.25216">
        <ele>66.1</ele>
        <time>2021-05-27T10:33:33Z</time>
      </trkpt>
      <trkpt lat="47.69688" lon="-2.25221">
        <ele>65.9</ele>
        <time>2021-05-27T10:33:34Z</time>
      </trkpt>
      <trkpt lat="47.69686" lon="-2.25227">
        <ele>65.8</ele>
        <time>2021-05-27T10:33:35Z</time>
      </trkpt>
      <trkpt lat="47.69684" lon="-2.25234">
        <ele>65.7</ele>
        <time>2021-05-27T10:33:36Z</time>
      </trkpt>
      <trkpt lat="47.69682" lon="-2.25242">
        <ele>65.5</ele>
        <time>2021-05-27T10:33:37Z</time>
      </trkpt>
      <trkpt lat="47.6968" lon="-2.25248">
        <ele>65.4</ele>
        <time>2021-05-27T10:33:38Z</time>
      </trkpt>
      <trkpt lat="47.69678" lon="-2.25255">
        <ele>65.3</ele>
        <time>2021-05-27T10:33:39Z</time>
      </trkpt>
      <trkpt lat="47.69677" lon="-2.25262">
        <ele>65.3</ele>
        <time>2021-05-27T10:33:40Z</time>
      </trkpt>
      <trkpt lat="47.69675" lon="-2.25269">
        <ele>65.2</ele>
        <time>2021-05-27T10:33:41Z</time>
      </trkpt>
      <trkpt lat="47.69674" lon="-2.25277">
        <ele>65.2</ele>
        <time>2021-05-27T10:33:42Z</time>
      </trkpt>
      <trkpt lat="47.69672" lon="-2.25285">
        <ele>65.2</ele>
        <time>2021-05-27T10:33:43Z</time>
      </trkpt>
      <trkpt lat="47.69671" lon="-2.25294">
        <ele>65.1</ele>
        <time>2021-05-27T10:33:44Z</time>
      </trkpt>
      <trkpt lat="47.6967" lon="-2.25302">
        <ele>65.1</ele>
        <time>2021-05-27T10:33:45Z</time>
      </trkpt>
      <trkpt lat="47.6967" lon="-2.25311">
        <ele>65.1</ele>
        <time>2021-05-27T10:33:46Z</time>
      </trkpt>
      <trkpt lat="47.69669" lon="-2.25319">
        <ele>65.1</ele>
        <time>2021-05-27T10:33:47Z</time>
      </trkpt>
      <trkpt lat="47.69669" lon="-2.25327">
        <ele>65.1</ele>
        <time>2021-05-27T10:33:48Z</time>
      </trkpt>
      <trkpt lat="47.6967" lon="-2.25335">
        <ele>65.1</ele>
        <time>2021-05-27T10:33:49Z</time>
      </trkpt>
      <trkpt lat="47.69671" lon="-2.25342">
        <ele>65.2</ele>
        <time>2021-05-27T10:33:50Z</time>
      </trkpt>
      <trkpt lat="47.69671" lon="-2.2535">
        <ele>65.2</ele>
        <time>2021-05-27T10:33:51Z</time>
      </trkpt>
      <trkpt lat="47.69671" lon="-2.25357">
        <ele>65.2</ele>
        <time>2021-05-27T10:33:52Z</time>
      </trkpt>
      <trkpt lat="47.69671" lon="-2.25363">
        <ele>65.2</ele>
        <time>2021-05-27T10:33:53Z</time>
      </trkpt>
      <trkpt lat="47.69671" lon="-2.25369">
        <ele>65.2</ele>
        <time>2021-05-27T10:33:54Z</time>
      </trkpt>
      <trkpt lat="47.69671" lon="-2.25375">
        <ele>65.2</ele>
        <time>2021-05-27T10:33:55Z</time>
      </trkpt>
      <trkpt lat="47.69672" lon="-2.25381">
        <ele>65.2</ele>
        <time>2021-05-27T10:33:56Z</time>
      </trkpt>
      <trkpt lat="47.69672" lon="-2.25387">
        <ele>65.3</ele>
        <time>2021-05-27T10:33:57Z</time>
      </trkpt>
      <trkpt lat="47.69672" lon="-2.25393">
        <ele>65.3</ele>
        <time>2021-05-27T10:33:58Z</time>
      </trkpt>
      <trkpt lat="47.69673" lon="-2.254">
        <ele>65.4</ele>
        <time>2021-05-27T10:33:59Z</time>
      </trkpt>
      <trkpt lat="47.69675" lon="-2.25406">
        <ele>65.5</ele>
        <time>2021-05-27T10:34:00Z</time>
      </trkpt>
      <trkpt lat="47.69677" lon="-2.25411">
        <ele>65.6</ele>
        <time>2021-05-27T10:34:01Z</time>
      </trkpt>
      <trkpt lat="47.6968" lon="-2.25417">
        <ele>65.8</ele>
        <time>2021-05-27T10:34:02Z</time>
      </trkpt>
      <trkpt lat="47.69682" lon="-2.25422">
        <ele>66</ele>
        <time>2021-05-27T10:34:03Z</time>
      </trkpt>
      <trkpt lat="47.69685" lon="-2.25427">
        <ele>66.1</ele>
        <time>2021-05-27T10:34:04Z</time>
      </trkpt>
      <trkpt lat="47.69689" lon="-2.25431">
        <ele>66.4</ele>
        <time>2021-05-27T10:34:05Z</time>
      </trkpt>
      <trkpt lat="47.69693" lon="-2.25435">
        <ele>66.6</ele>
        <time>2021-05-27T10:34:06Z</time>
      </trkpt>
      <trkpt lat="47.69695" lon="-2.25436">
        <ele>66.8</ele>
        <time>2021-05-27T10:34:07Z</time>
      </trkpt>
      <trkpt lat="47.69698" lon="-2.25438">
        <ele>67</ele>
        <time>2021-05-27T10:34:08Z</time>
      </trkpt>
      <trkpt lat="47.69701" lon="-2.25439">
        <ele>67.2</ele>
        <time>2021-05-27T10:34:09Z</time>
      </trkpt>
      <trkpt lat="47.69704" lon="-2.2544">
        <ele>67.3</ele>
        <time>2021-05-27T10:34:10Z</time>
      </trkpt>
      <trkpt lat="47.69707" lon="-2.25441">
        <ele>67.5</ele>
        <time>2021-05-27T10:34:11Z</time>
      </trkpt>
      <trkpt lat="47.6971" lon="-2.25442">
        <ele>67.8</ele>
        <time>2021-05-27T10:34:12Z</time>
      </trkpt>
      <trkpt lat="47.69714" lon="-2.25443">
        <ele>68</ele>
        <time>2021-05-27T10:34:13Z</time>
      </trkpt>
      <trkpt lat="47.69717" lon="-2.25444">
        <ele>68.2</ele>
        <time>2021-05-27T10:34:14Z</time>
      </trkpt>
      <trkpt lat="47.69722" lon="-2.25445">
        <ele>68.5</ele>
        <time>2021-05-27T10:34:15Z</time>
      </trkpt>
      <trkpt lat="47.69725" lon="-2.25449">
        <ele>68.8</ele>
        <time>2021-05-27T10:34:16Z</time>
      </trkpt>
      <trkpt lat="47.69728" lon="-2.25452">
        <ele>69</ele>
        <time>2021-05-27T10:34:17Z</time>
      </trkpt>
      <trkpt lat="47.69729" lon="-2.25456">
        <ele>69.1</ele>
        <time>2021-05-27T10:34:18Z</time>
      </trkpt>
      <trkpt lat="47.69731" lon="-2.25461">
        <ele>69.3</ele>
        <time>2021-05-27T10:34:19Z</time>
      </trkpt>
      <trkpt lat="47.69734" lon="-2.25465">
        <ele>69.5</ele>
        <time>2021-05-27T10:34:20Z</time>
      </trkpt>
      <trkpt lat="47.69737" lon="-2.25467">
        <ele>69.7</ele>
        <time>2021-05-27T10:34:21Z</time>
      </trkpt>
      <trkpt lat="47.69739" lon="-2.2547">
        <ele>69.9</ele>
        <time>2021-05-27T10:34:22Z</time>
      </trkpt>
      <trkpt lat="47.6974" lon="-2.25472">
        <ele>70</ele>
        <time>2021-05-27T10:34:23Z</time>
      </trkpt>
      <trkpt lat="47.69741" lon="-2.25473">
        <ele>70.1</ele>
        <time>2021-05-27T10:34:24Z</time>
      </trkpt>
      <trkpt lat="47.69741" lon="-2.25473">
        <ele>70.1</ele>
        <time>2021-05-27T10:34:25Z</time>
      </trkpt>
      <trkpt lat="47.69741" lon="-2.25472">
        <ele>70</ele>
        <time>2021-05-27T10:34:26Z</time>
      </trkpt>
      <trkpt lat="47.69741" lon="-2.25472">
        <ele>70</ele>
        <time>2021-05-27T10:34:27Z</time>
      </trkpt>
      <trkpt lat="47.69741" lon="-2.25472">
        <ele>70</ele>
        <time>2021-05-27T10:34:28Z</time>
      </trkpt>
      <trkpt lat="47.69741" lon="-2.25472">
        <ele>70</ele>
        <time>2021-05-27T10:34:29Z</time>
      </trkpt>
      <trkpt lat="47.69741" lon="-2.25472">
        <ele>70</ele>
        <time>2021-05-27T10:34:30Z</time>
      </trkpt>
      <trkpt lat="47.69741" lon="-2.25472">
        <ele>70</ele>
        <time>2021-05-27T10:34:31Z</time>
      </trkpt>
      <trkpt lat="47.69741" lon="-2.25472">
        <ele>70</ele>
        <time>2021-05-27T10:34:32Z</time>
      </trkpt>
      <trkpt lat="47.69741" lon="-2.25472">
        <ele>70</ele>
        <time>2021-05-27T10:34:33Z</time>
      </trkpt>
      <trkpt lat="47.69741" lon="-2.25472">
        <ele>70</ele>
        <time>2021-05-27T10:34:34Z</time>
      </trkpt>
      <trkpt lat="47.69741" lon="-2.25472">
        <ele>70</ele>
        <time>2021-05-27T10:34:35Z</time>
      </trkpt>
      <trkpt lat="47.69741" lon="-2.25472">
        <ele>70</ele>
        <time>2021-05-27T10:34:36Z</time>
      </trkpt>
      <trkpt lat="47.69741" lon="-2.25472">
        <ele>70</ele>
        <time>2021-05-27T10:34:37Z</time>
      </trkpt>
      <trkpt lat="47.69749" lon="-2.25475">
        <ele>70.6</ele>
        <time>2021-05-27T10:34:38Z</time>
      </trkpt>
      <trkpt lat="47.69751" lon="-2.25478">
        <ele>70.7</ele>
        <time>2021-05-27T10:34:39Z</time>
      </trkpt>
      <trkpt lat="47.69754" lon="-2.25482">
        <ele>70.6</ele>
        <time>2021-05-27T10:34:40Z</time>
      </trkpt>
      <trkpt lat="47.69756" lon="-2.25485">
        <ele>70.5</ele>
        <time>2021-05-27T10:34:41Z</time>
      </trkpt>
      <trkpt lat="47.69759" lon="-2.25489">
        <ele>70.5</ele>
        <time>2021-05-27T10:34:42Z</time>
      </trkpt>
      <trkpt lat="47.69762" lon="-2.25492">
        <ele>70.4</ele>
        <time>2021-05-27T10:34:43Z</time>
      </trkpt>
      <trkpt lat="47.69766" lon="-2.25495">
        <ele>70.3</ele>
        <time>2021-05-27T10:34:44Z</time>
      </trkpt>
      <trkpt lat="47.69769" lon="-2.25497">
        <ele>70.2</ele>
        <time>2021-05-27T10:34:45Z</time>
      </trkpt>
      <trkpt lat="47.69773" lon="-2.25498">
        <ele>70.1</ele>
        <time>2021-05-27T10:34:46Z</time>
      </trkpt>
      <trkpt lat="47.69777" lon="-2.25501">
        <ele>70.1</ele>
        <time>2021-05-27T10:34:47Z</time>
      </trkpt>
      <trkpt lat="47.69779" lon="-2.25504">
        <ele>70.1</ele>
        <time>2021-05-27T10:34:48Z</time>
      </trkpt>
      <trkpt lat="47.6978" lon="-2.25509">
        <ele>70.2</ele>
        <time>2021-05-27T10:34:49Z</time>
      </trkpt>
      <trkpt lat="47.69782" lon="-2.25514">
        <ele>70.3</ele>
        <time>2021-05-27T10:34:50Z</time>
      </trkpt>
      <trkpt lat="47.69782" lon="-2.25519">
        <ele>70.5</ele>
        <time>2021-05-27T10:34:51Z</time>
      </trkpt>
      <trkpt lat="47.69783" lon="-2.25525">
        <ele>70.7</ele>
        <time>2021-05-27T10:34:52Z</time>
      </trkpt>
      <trkpt lat="47.69783" lon="-2.25531">
        <ele>70.9</ele>
        <time>2021-05-27T10:34:53Z</time>
      </trkpt>
      <trkpt lat="47.69783" lon="-2.25537">
        <ele>71.1</ele>
        <time>2021-05-27T10:34:54Z</time>
      </trkpt>
      <trkpt lat="47.69784" lon="-2.25542">
        <ele>71.3</ele>
        <time>2021-05-27T10:34:55Z</time>
      </trkpt>
      <trkpt lat="47.69785" lon="-2.25548">
        <ele>71.5</ele>
        <time>2021-05-27T10:34:56Z</time>
      </trkpt>
      <trkpt lat="47.69785" lon="-2.25554">
        <ele>71.8</ele>
        <time>2021-05-27T10:34:57Z</time>
      </trkpt>
      <trkpt lat="47.69786" lon="-2.25561">
        <ele>72</ele>
        <time>2021-05-27T10:34:58Z</time>
      </trkpt>
      <trkpt lat="47.69786" lon="-2.25568">
        <ele>72.3</ele>
        <time>2021-05-27T10:34:59Z</time>
      </trkpt>
      <trkpt lat="47.69787" lon="-2.25574">
        <ele>72.5</ele>
        <time>2021-05-27T10:35:00Z</time>
      </trkpt>
      <trkpt lat="47.69787" lon="-2.25581">
        <ele>72.8</ele>
        <time>2021-05-27T10:35:01Z</time>
      </trkpt>
      <trkpt lat="47.69787" lon="-2.25587">
        <ele>72.8</ele>
        <time>2021-05-27T10:35:02Z</time>
      </trkpt>
      <trkpt lat="47.69787" lon="-2.25593">
        <ele>72.7</ele>
        <time>2021-05-27T10:35:03Z</time>
      </trkpt>
      <trkpt lat="47.69788" lon="-2.256">
        <ele>72.6</ele>
        <time>2021-05-27T10:35:04Z</time>
      </trkpt>
      <trkpt lat="47.69788" lon="-2.25606">
        <ele>72.5</ele>
        <time>2021-05-27T10:35:05Z</time>
      </trkpt>
      <trkpt lat="47.69787" lon="-2.25611">
        <ele>72.4</ele>
        <time>2021-05-27T10:35:06Z</time>
      </trkpt>
      <trkpt lat="47.69786" lon="-2.25616">
        <ele>72.3</ele>
        <time>2021-05-27T10:35:07Z</time>
      </trkpt>
      <trkpt lat="47.69786" lon="-2.2562">
        <ele>72.2</ele>
        <time>2021-05-27T10:35:08Z</time>
      </trkpt>
      <trkpt lat="47.69786" lon="-2.25623">
        <ele>72.2</ele>
        <time>2021-05-27T10:35:09Z</time>
      </trkpt>
      <trkpt lat="47.69786" lon="-2.25626">
        <ele>72.1</ele>
        <time>2021-05-27T10:35:10Z</time>
      </trkpt>
      <trkpt lat="47.69787" lon="-2.2563">
        <ele>72.1</ele>
        <time>2021-05-27T10:35:11Z</time>
      </trkpt>
      <trkpt lat="47.6979" lon="-2.25627">
        <ele>72.2</ele>
        <time>2021-05-27T10:35:41Z</time>
      </trkpt>
      <trkpt lat="47.6979" lon="-2.25627">
        <ele>72.2</ele>
        <time>2021-05-27T10:35:42Z</time>
      </trkpt>
      <trkpt lat="47.6979" lon="-2.25627">
        <ele>72.2</ele>
        <time>2021-05-27T10:35:43Z</time>
      </trkpt>
      <trkpt lat="47.6979" lon="-2.25627">
        <ele>72.2</ele>
        <time>2021-05-27T10:35:44Z</time>
      </trkpt>
      <trkpt lat="47.6979" lon="-2.25627">
        <ele>72.2</ele>
        <time>2021-05-27T10:35:45Z</time>
      </trkpt>
      <trkpt lat="47.69782" lon="-2.25636">
        <ele>71.9</ele>
        <time>2021-05-27T10:35:46Z</time>
      </trkpt>
      <trkpt lat="47.69779" lon="-2.25641">
        <ele>71.8</ele>
        <time>2021-05-27T10:35:47Z</time>
      </trkpt>
      <trkpt lat="47.69777" lon="-2.25646">
        <ele>71.7</ele>
        <time>2021-05-27T10:35:48Z</time>
      </trkpt>
      <trkpt lat="47.69774" lon="-2.25652">
        <ele>71.5</ele>
        <time>2021-05-27T10:35:49Z</time>
      </trkpt>
      <trkpt lat="47.69772" lon="-2.25657">
        <ele>71.4</ele>
        <time>2021-05-27T10:35:50Z</time>
      </trkpt>
      <trkpt lat="47.69771" lon="-2.25662">
        <ele>71.3</ele>
        <time>2021-05-27T10:35:51Z</time>
      </trkpt>
      <trkpt lat="47.6977" lon="-2.25666">
        <ele>71.2</ele>
        <time>2021-05-27T10:35:52Z</time>
      </trkpt>
      <trkpt lat="47.69768" lon="-2.25672">
        <ele>71.1</ele>
        <time>2021-05-27T10:35:53Z</time>
      </trkpt>
      <trkpt lat="47.69767" lon="-2.25677">
        <ele>70.9</ele>
        <time>2021-05-27T10:35:54Z</time>
      </trkpt>
      <trkpt lat="47.69766" lon="-2.25682">
        <ele>70.7</ele>
        <time>2021-05-27T10:35:55Z</time>
      </trkpt>
      <trkpt lat="47.69765" lon="-2.25688">
        <ele>70.6</ele>
        <time>2021-05-27T10:35:56Z</time>
      </trkpt>
      <trkpt lat="47.69764" lon="-2.25694">
        <ele>70.4</ele>
        <time>2021-05-27T10:35:57Z</time>
      </trkpt>
      <trkpt lat="47.69763" lon="-2.25701">
        <ele>70.2</ele>
        <time>2021-05-27T10:35:58Z</time>
      </trkpt>
      <trkpt lat="47.69763" lon="-2.25708">
        <ele>70</ele>
        <time>2021-05-27T10:35:59Z</time>
      </trkpt>
      <trkpt lat="47.69764" lon="-2.25714">
        <ele>69.8</ele>
        <time>2021-05-27T10:36:00Z</time>
      </trkpt>
      <trkpt lat="47.69764" lon="-2.25721">
        <ele>69.7</ele>
        <time>2021-05-27T10:36:01Z</time>
      </trkpt>
      <trkpt lat="47.69763" lon="-2.25728">
        <ele>69.5</ele>
        <time>2021-05-27T10:36:02Z</time>
      </trkpt>
      <trkpt lat="47.69763" lon="-2.25734">
        <ele>69.3</ele>
        <time>2021-05-27T10:36:03Z</time>
      </trkpt>
      <trkpt lat="47.69762" lon="-2.25742">
        <ele>69.1</ele>
        <time>2021-05-27T10:36:04Z</time>
      </trkpt>
      <trkpt lat="47.69762" lon="-2.25749">
        <ele>68.9</ele>
        <time>2021-05-27T10:36:05Z</time>
      </trkpt>
      <trkpt lat="47.69761" lon="-2.25757">
        <ele>68.6</ele>
        <time>2021-05-27T10:36:06Z</time>
      </trkpt>
      <trkpt lat="47.6976" lon="-2.25764">
        <ele>68.4</ele>
        <time>2021-05-27T10:36:07Z</time>
      </trkpt>
      <trkpt lat="47.69759" lon="-2.25771">
        <ele>68.2</ele>
        <time>2021-05-27T10:36:08Z</time>
      </trkpt>
      <trkpt lat="47.69759" lon="-2.25779">
        <ele>67.9</ele>
        <time>2021-05-27T10:36:09Z</time>
      </trkpt>
      <trkpt lat="47.69759" lon="-2.25787">
        <ele>67.6</ele>
        <time>2021-05-27T10:36:10Z</time>
      </trkpt>
      <trkpt lat="47.6976" lon="-2.25794">
        <ele>67.4</ele>
        <time>2021-05-27T10:36:11Z</time>
      </trkpt>
      <trkpt lat="47.69761" lon="-2.25801">
        <ele>67.1</ele>
        <time>2021-05-27T10:36:12Z</time>
      </trkpt>
      <trkpt lat="47.69762" lon="-2.25808">
        <ele>66.9</ele>
        <time>2021-05-27T10:36:13Z</time>
      </trkpt>
      <trkpt lat="47.69763" lon="-2.25815">
        <ele>66.6</ele>
        <time>2021-05-27T10:36:14Z</time>
      </trkpt>
      <trkpt lat="47.69766" lon="-2.25823">
        <ele>66.4</ele>
        <time>2021-05-27T10:36:15Z</time>
      </trkpt>
      <trkpt lat="47.69767" lon="-2.2583">
        <ele>66.1</ele>
        <time>2021-05-27T10:36:16Z</time>
      </trkpt>
      <trkpt lat="47.69769" lon="-2.25837">
        <ele>66</ele>
        <time>2021-05-27T10:36:17Z</time>
      </trkpt>
      <trkpt lat="47.69769" lon="-2.25843">
        <ele>66</ele>
        <time>2021-05-27T10:36:18Z</time>
      </trkpt>
      <trkpt lat="47.69769" lon="-2.2585">
        <ele>66</ele>
        <time>2021-05-27T10:36:19Z</time>
      </trkpt>
      <trkpt lat="47.6977" lon="-2.25856">
        <ele>66</ele>
        <time>2021-05-27T10:36:20Z</time>
      </trkpt>
      <trkpt lat="47.69771" lon="-2.25863">
        <ele>66</ele>
        <time>2021-05-27T10:36:21Z</time>
      </trkpt>
      <trkpt lat="47.69773" lon="-2.25869">
        <ele>66</ele>
        <time>2021-05-27T10:36:22Z</time>
      </trkpt>
      <trkpt lat="47.69774" lon="-2.25876">
        <ele>66.1</ele>
        <time>2021-05-27T10:36:23Z</time>
      </trkpt>
      <trkpt lat="47.69774" lon="-2.25883">
        <ele>66.1</ele>
        <time>2021-05-27T10:36:24Z</time>
      </trkpt>
      <trkpt lat="47.69775" lon="-2.2589">
        <ele>66.1</ele>
        <time>2021-05-27T10:36:25Z</time>
      </trkpt>
      <trkpt lat="47.69776" lon="-2.25898">
        <ele>66.2</ele>
        <time>2021-05-27T10:36:26Z</time>
      </trkpt>
      <trkpt lat="47.69776" lon="-2.25905">
        <ele>66.2</ele>
        <time>2021-05-27T10:36:27Z</time>
      </trkpt>
      <trkpt lat="47.69776" lon="-2.25912">
        <ele>66.2</ele>
        <time>2021-05-27T10:36:28Z</time>
      </trkpt>
      <trkpt lat="47.69776" lon="-2.25919">
        <ele>66.2</ele>
        <time>2021-05-27T10:36:29Z</time>
      </trkpt>
      <trkpt lat="47.69776" lon="-2.25927">
        <ele>65.9</ele>
        <time>2021-05-27T10:36:30Z</time>
      </trkpt>
      <trkpt lat="47.69776" lon="-2.25934">
        <ele>65.7</ele>
        <time>2021-05-27T10:36:31Z</time>
      </trkpt>
      <trkpt lat="47.69778" lon="-2.25942">
        <ele>65.5</ele>
        <time>2021-05-27T10:36:32Z</time>
      </trkpt>
      <trkpt lat="47.6978" lon="-2.25949">
        <ele>65.4</ele>
        <time>2021-05-27T10:36:33Z</time>
      </trkpt>
      <trkpt lat="47.69781" lon="-2.25957">
        <ele>65.2</ele>
        <time>2021-05-27T10:36:34Z</time>
      </trkpt>
      <trkpt lat="47.69783" lon="-2.25965">
        <ele>65</ele>
        <time>2021-05-27T10:36:35Z</time>
      </trkpt>
      <trkpt lat="47.69784" lon="-2.25974">
        <ele>64.8</ele>
        <time>2021-05-27T10:36:36Z</time>
      </trkpt>
      <trkpt lat="47.69785" lon="-2.25982">
        <ele>64.7</ele>
        <time>2021-05-27T10:36:37Z</time>
      </trkpt>
      <trkpt lat="47.69786" lon="-2.2599">
        <ele>64.5</ele>
        <time>2021-05-27T10:36:38Z</time>
      </trkpt>
      <trkpt lat="47.69787" lon="-2.25998">
        <ele>64.3</ele>
        <time>2021-05-27T10:36:39Z</time>
      </trkpt>
      <trkpt lat="47.69789" lon="-2.26005">
        <ele>64.2</ele>
        <time>2021-05-27T10:36:40Z</time>
      </trkpt>
      <trkpt lat="47.69791" lon="-2.26011">
        <ele>64.1</ele>
        <time>2021-05-27T10:36:41Z</time>
      </trkpt>
      <trkpt lat="47.69794" lon="-2.26018">
        <ele>64.1</ele>
        <time>2021-05-27T10:36:42Z</time>
      </trkpt>
      <trkpt lat="47.69796" lon="-2.26025">
        <ele>64.1</ele>
        <time>2021-05-27T10:36:43Z</time>
      </trkpt>
      <trkpt lat="47.69798" lon="-2.26032">
        <ele>64</ele>
        <time>2021-05-27T10:36:44Z</time>
      </trkpt>
      <trkpt lat="47.69799" lon="-2.26039">
        <ele>63.9</ele>
        <time>2021-05-27T10:36:45Z</time>
      </trkpt>
      <trkpt lat="47.698" lon="-2.26045">
        <ele>63.8</ele>
        <time>2021-05-27T10:36:46Z</time>
      </trkpt>
      <trkpt lat="47.698" lon="-2.26051">
        <ele>63.6</ele>
        <time>2021-05-27T10:36:47Z</time>
      </trkpt>
      <trkpt lat="47.698" lon="-2.26058">
        <ele>63.4</ele>
        <time>2021-05-27T10:36:48Z</time>
      </trkpt>
      <trkpt lat="47.69799" lon="-2.26065">
        <ele>63.2</ele>
        <time>2021-05-27T10:36:49Z</time>
      </trkpt>
      <trkpt lat="47.69799" lon="-2.26072">
        <ele>63</ele>
        <time>2021-05-27T10:36:50Z</time>
      </trkpt>
      <trkpt lat="47.69799" lon="-2.2608">
        <ele>62.8</ele>
        <time>2021-05-27T10:36:51Z</time>
      </trkpt>
      <trkpt lat="47.69801" lon="-2.26087">
        <ele>62.8</ele>
        <time>2021-05-27T10:36:52Z</time>
      </trkpt>
      <trkpt lat="47.69802" lon="-2.26094">
        <ele>62.7</ele>
        <time>2021-05-27T10:36:53Z</time>
      </trkpt>
      <trkpt lat="47.69803" lon="-2.261">
        <ele>62.6</ele>
        <time>2021-05-27T10:36:54Z</time>
      </trkpt>
      <trkpt lat="47.69803" lon="-2.26106">
        <ele>62.4</ele>
        <time>2021-05-27T10:36:55Z</time>
      </trkpt>
      <trkpt lat="47.69804" lon="-2.26113">
        <ele>62.2</ele>
        <time>2021-05-27T10:36:56Z</time>
      </trkpt>
      <trkpt lat="47.69804" lon="-2.26121">
        <ele>62</ele>
        <time>2021-05-27T10:36:57Z</time>
      </trkpt>
      <trkpt lat="47.69804" lon="-2.26128">
        <ele>61.7</ele>
        <time>2021-05-27T10:36:58Z</time>
      </trkpt>
      <trkpt lat="47.69805" lon="-2.26135">
        <ele>61.6</ele>
        <time>2021-05-27T10:36:59Z</time>
      </trkpt>
      <trkpt lat="47.69805" lon="-2.26143">
        <ele>61.4</ele>
        <time>2021-05-27T10:37:00Z</time>
      </trkpt>
      <trkpt lat="47.69806" lon="-2.26151">
        <ele>61.2</ele>
        <time>2021-05-27T10:37:01Z</time>
      </trkpt>
      <trkpt lat="47.69806" lon="-2.26159">
        <ele>61</ele>
        <time>2021-05-27T10:37:02Z</time>
      </trkpt>
      <trkpt lat="47.69807" lon="-2.26167">
        <ele>60.8</ele>
        <time>2021-05-27T10:37:03Z</time>
      </trkpt>
      <trkpt lat="47.69809" lon="-2.26174">
        <ele>60.4</ele>
        <time>2021-05-27T10:37:04Z</time>
      </trkpt>
      <trkpt lat="47.6981" lon="-2.26179">
        <ele>60.1</ele>
        <time>2021-05-27T10:37:05Z</time>
      </trkpt>
      <trkpt lat="47.69811" lon="-2.26182">
        <ele>59.8</ele>
        <time>2021-05-27T10:37:06Z</time>
      </trkpt>
      <trkpt lat="47.69811" lon="-2.26185">
        <ele>59.5</ele>
        <time>2021-05-27T10:37:07Z</time>
      </trkpt>
      <trkpt lat="47.69811" lon="-2.26186">
        <ele>59.4</ele>
        <time>2021-05-27T10:37:08Z</time>
      </trkpt>
      <trkpt lat="47.69811" lon="-2.26186">
        <ele>59.4</ele>
        <time>2021-05-27T10:37:09Z</time>
      </trkpt>
      <trkpt lat="47.69811" lon="-2.26187">
        <ele>59.4</ele>
        <time>2021-05-27T10:37:10Z</time>
      </trkpt>
      <trkpt lat="47.69811" lon="-2.26187">
        <ele>59.4</ele>
        <time>2021-05-27T10:37:11Z</time>
      </trkpt>
      <trkpt lat="47.69811" lon="-2.26187">
        <ele>59.4</ele>
        <time>2021-05-27T10:37:12Z</time>
      </trkpt>
      <trkpt lat="47.69811" lon="-2.26187">
        <ele>59.4</ele>
        <time>2021-05-27T10:37:13Z</time>
      </trkpt>
      <trkpt lat="47.69811" lon="-2.26187">
        <ele>59.4</ele>
        <time>2021-05-27T10:37:14Z</time>
      </trkpt>
      <trkpt lat="47.69813" lon="-2.26185">
        <ele>59.7</ele>
        <time>2021-05-27T10:37:15Z</time>
      </trkpt>
      <trkpt lat="47.69814" lon="-2.26185">
        <ele>59.8</ele>
        <time>2021-05-27T10:37:16Z</time>
      </trkpt>
      <trkpt lat="47.69815" lon="-2.26186">
        <ele>59.8</ele>
        <time>2021-05-27T10:37:17Z</time>
      </trkpt>
      <trkpt lat="47.69817" lon="-2.26188">
        <ele>59.8</ele>
        <time>2021-05-27T10:37:18Z</time>
      </trkpt>
      <trkpt lat="47.69819" lon="-2.2619">
        <ele>59.9</ele>
        <time>2021-05-27T10:37:19Z</time>
      </trkpt>
      <trkpt lat="47.69822" lon="-2.26192">
        <ele>59.9</ele>
        <time>2021-05-27T10:37:20Z</time>
      </trkpt>
      <trkpt lat="47.69823" lon="-2.26192">
        <ele>59.9</ele>
        <time>2021-05-27T10:37:21Z</time>
      </trkpt>
      <trkpt lat="47.69824" lon="-2.26194">
        <ele>59.9</ele>
        <time>2021-05-27T10:37:22Z</time>
      </trkpt>
      <trkpt lat="47.69825" lon="-2.26195">
        <ele>59.8</ele>
        <time>2021-05-27T10:37:23Z</time>
      </trkpt>
      <trkpt lat="47.69826" lon="-2.26197">
        <ele>59.8</ele>
        <time>2021-05-27T10:37:24Z</time>
      </trkpt>
      <trkpt lat="47.69827" lon="-2.26199">
        <ele>59.5</ele>
        <time>2021-05-27T10:37:25Z</time>
      </trkpt>
      <trkpt lat="47.69828" lon="-2.26201">
        <ele>59.4</ele>
        <time>2021-05-27T10:37:26Z</time>
      </trkpt>
      <trkpt lat="47.69829" lon="-2.26202">
        <ele>59.4</ele>
        <time>2021-05-27T10:37:27Z</time>
      </trkpt>
      <trkpt lat="47.6983" lon="-2.26202">
        <ele>59.5</ele>
        <time>2021-05-27T10:37:28Z</time>
      </trkpt>
      <trkpt lat="47.69831" lon="-2.26202">
        <ele>59.5</ele>
        <time>2021-05-27T10:37:29Z</time>
      </trkpt>
      <trkpt lat="47.69831" lon="-2.26202">
        <ele>59.5</ele>
        <time>2021-05-27T10:37:30Z</time>
      </trkpt>
      <trkpt lat="47.69831" lon="-2.26202">
        <ele>59.5</ele>
        <time>2021-05-27T10:37:31Z</time>
      </trkpt>
      <trkpt lat="47.69831" lon="-2.26202">
        <ele>59.5</ele>
        <time>2021-05-27T10:37:32Z</time>
      </trkpt>
      <trkpt lat="47.69831" lon="-2.26202">
        <ele>59.5</ele>
        <time>2021-05-27T10:37:33Z</time>
      </trkpt>
      <trkpt lat="47.69831" lon="-2.26202">
        <ele>59.5</ele>
        <time>2021-05-27T10:37:34Z</time>
      </trkpt>
      <trkpt lat="47.69831" lon="-2.26202">
        <ele>59.5</ele>
        <time>2021-05-27T10:37:35Z</time>
      </trkpt>
      <trkpt lat="47.69831" lon="-2.26202">
        <ele>59.5</ele>
        <time>2021-05-27T10:37:36Z</time>
      </trkpt>
      <trkpt lat="47.69831" lon="-2.26202">
        <ele>59.5</ele>
        <time>2021-05-27T10:37:37Z</time>
      </trkpt>
      <trkpt lat="47.69831" lon="-2.26202">
        <ele>59.5</ele>
        <time>2021-05-27T10:37:38Z</time>
      </trkpt>
      <trkpt lat="47.69831" lon="-2.26202">
        <ele>59.5</ele>
        <time>2021-05-27T10:37:39Z</time>
      </trkpt>
      <trkpt lat="47.69831" lon="-2.26202">
        <ele>59.5</ele>
        <time>2021-05-27T10:37:40Z</time>
      </trkpt>
      <trkpt lat="47.69831" lon="-2.26202">
        <ele>59.5</ele>
        <time>2021-05-27T10:37:41Z</time>
      </trkpt>
      <trkpt lat="47.69831" lon="-2.26202">
        <ele>59.5</ele>
        <time>2021-05-27T10:37:42Z</time>
      </trkpt>
      <trkpt lat="47.69831" lon="-2.26202">
        <ele>59.5</ele>
        <time>2021-05-27T10:37:43Z</time>
      </trkpt>
      <trkpt lat="47.69831" lon="-2.26202">
        <ele>59.5</ele>
        <time>2021-05-27T10:37:44Z</time>
      </trkpt>
      <trkpt lat="47.69831" lon="-2.26202">
        <ele>59.5</ele>
        <time>2021-05-27T10:37:45Z</time>
      </trkpt>
      <trkpt lat="47.69831" lon="-2.26202">
        <ele>59.5</ele>
        <time>2021-05-27T10:37:46Z</time>
      </trkpt>
      <trkpt lat="47.69831" lon="-2.26202">
        <ele>59.5</ele>
        <time>2021-05-27T10:37:47Z</time>
      </trkpt>
      <trkpt lat="47.69831" lon="-2.26202">
        <ele>59.5</ele>
        <time>2021-05-27T10:37:48Z</time>
      </trkpt>
      <trkpt lat="47.69831" lon="-2.26202">
        <ele>59.5</ele>
        <time>2021-05-27T10:37:49Z</time>
      </trkpt>
      <trkpt lat="47.69831" lon="-2.26202">
        <ele>59.5</ele>
        <time>2021-05-27T10:37:50Z</time>
      </trkpt>
      <trkpt lat="47.69831" lon="-2.26202">
        <ele>59.5</ele>
        <time>2021-05-27T10:37:51Z</time>
      </trkpt>
      <trkpt lat="47.69831" lon="-2.26202">
        <ele>59.5</ele>
        <time>2021-05-27T10:37:52Z</time>
      </trkpt>
      <trkpt lat="47.69831" lon="-2.26202">
        <ele>59.5</ele>
        <time>2021-05-27T10:37:53Z</time>
      </trkpt>
      <trkpt lat="47.69831" lon="-2.26202">
        <ele>59.5</ele>
        <time>2021-05-27T10:37:54Z</time>
      </trkpt>
      <trkpt lat="47.69831" lon="-2.26202">
        <ele>59.5</ele>
        <time>2021-05-27T10:37:55Z</time>
      </trkpt>
      <trkpt lat="47.69831" lon="-2.26202">
        <ele>59.5</ele>
        <time>2021-05-27T10:37:56Z</time>
      </trkpt>
      <trkpt lat="47.69834" lon="-2.26188">
        <ele>61.3</ele>
        <time>2021-05-27T10:37:57Z</time>
      </trkpt>
      <trkpt lat="47.69835" lon="-2.26188">
        <ele>61.1</ele>
        <time>2021-05-27T10:37:58Z</time>
      </trkpt>
      <trkpt lat="47.69835" lon="-2.26188">
        <ele>61</ele>
        <time>2021-05-27T10:37:59Z</time>
      </trkpt>
      <trkpt lat="47.69836" lon="-2.26188">
        <ele>60.7</ele>
        <time>2021-05-27T10:38:00Z</time>
      </trkpt>
      <trkpt lat="47.69836" lon="-2.26188">
        <ele>60.7</ele>
        <time>2021-05-27T10:38:01Z</time>
      </trkpt>
      <trkpt lat="47.69836" lon="-2.26188">
        <ele>60.7</ele>
        <time>2021-05-27T10:38:02Z</time>
      </trkpt>
      <trkpt lat="47.69836" lon="-2.26188">
        <ele>60.7</ele>
        <time>2021-05-27T10:38:03Z</time>
      </trkpt>
      <trkpt lat="47.69836" lon="-2.26188">
        <ele>60.7</ele>
        <time>2021-05-27T10:38:04Z</time>
      </trkpt>
      <trkpt lat="47.69836" lon="-2.26188">
        <ele>60.7</ele>
        <time>2021-05-27T10:38:05Z</time>
      </trkpt>
      <trkpt lat="47.69836" lon="-2.26188">
        <ele>60.7</ele>
        <time>2021-05-27T10:38:06Z</time>
      </trkpt>
      <trkpt lat="47.69836" lon="-2.26188">
        <ele>60.7</ele>
        <time>2021-05-27T10:38:07Z</time>
      </trkpt>
      <trkpt lat="47.69843" lon="-2.26185">
        <ele>59.2</ele>
        <time>2021-05-27T10:38:08Z</time>
      </trkpt>
      <trkpt lat="47.69845" lon="-2.26186">
        <ele>58.6</ele>
        <time>2021-05-27T10:38:09Z</time>
      </trkpt>
      <trkpt lat="47.69847" lon="-2.26186">
        <ele>58.1</ele>
        <time>2021-05-27T10:38:10Z</time>
      </trkpt>
      <trkpt lat="47.69849" lon="-2.26187">
        <ele>57.5</ele>
        <time>2021-05-27T10:38:11Z</time>
      </trkpt>
      <trkpt lat="47.6985" lon="-2.26188">
        <ele>57</ele>
        <time>2021-05-27T10:38:12Z</time>
      </trkpt>
      <trkpt lat="47.69852" lon="-2.26189">
        <ele>56.6</ele>
        <time>2021-05-27T10:38:13Z</time>
      </trkpt>
      <trkpt lat="47.69854" lon="-2.26189">
        <ele>56.1</ele>
        <time>2021-05-27T10:38:14Z</time>
      </trkpt>
      <trkpt lat="47.69857" lon="-2.26187">
        <ele>55.6</ele>
        <time>2021-05-27T10:38:15Z</time>
      </trkpt>
      <trkpt lat="47.69859" lon="-2.26185">
        <ele>55.2</ele>
        <time>2021-05-27T10:38:16Z</time>
      </trkpt>
      <trkpt lat="47.69862" lon="-2.26182">
        <ele>54.7</ele>
        <time>2021-05-27T10:38:17Z</time>
      </trkpt>
      <trkpt lat="47.69863" lon="-2.26179">
        <ele>54.8</ele>
        <time>2021-05-27T10:38:18Z</time>
      </trkpt>
      <trkpt lat="47.69865" lon="-2.26177">
        <ele>54.4</ele>
        <time>2021-05-27T10:38:19Z</time>
      </trkpt>
      <trkpt lat="47.69867" lon="-2.26175">
        <ele>54.3</ele>
        <time>2021-05-27T10:38:20Z</time>
      </trkpt>
      <trkpt lat="47.69869" lon="-2.26172">
        <ele>54</ele>
        <time>2021-05-27T10:38:21Z</time>
      </trkpt>
      <trkpt lat="47.69871" lon="-2.26171">
        <ele>53.7</ele>
        <time>2021-05-27T10:38:22Z</time>
      </trkpt>
      <trkpt lat="47.69871" lon="-2.26169">
        <ele>53.8</ele>
        <time>2021-05-27T10:38:23Z</time>
      </trkpt>
      <trkpt lat="47.69872" lon="-2.26166">
        <ele>53.8</ele>
        <time>2021-05-27T10:38:24Z</time>
      </trkpt>
      <trkpt lat="47.69874" lon="-2.26163">
        <ele>53.5</ele>
        <time>2021-05-27T10:38:25Z</time>
      </trkpt>
      <trkpt lat="47.69874" lon="-2.2616">
        <ele>53.5</ele>
        <time>2021-05-27T10:38:26Z</time>
      </trkpt>
      <trkpt lat="47.69876" lon="-2.26159">
        <ele>53.2</ele>
        <time>2021-05-27T10:38:27Z</time>
      </trkpt>
      <trkpt lat="47.69877" lon="-2.26157">
        <ele>53</ele>
        <time>2021-05-27T10:38:28Z</time>
      </trkpt>
      <trkpt lat="47.69878" lon="-2.26157">
        <ele>52.8</ele>
        <time>2021-05-27T10:38:29Z</time>
      </trkpt>
      <trkpt lat="47.69879" lon="-2.26157">
        <ele>52.6</ele>
        <time>2021-05-27T10:38:30Z</time>
      </trkpt>
      <trkpt lat="47.69878" lon="-2.26159">
        <ele>52.5</ele>
        <time>2021-05-27T10:38:31Z</time>
      </trkpt>
      <trkpt lat="47.69879" lon="-2.2616">
        <ele>52.4</ele>
        <time>2021-05-27T10:38:32Z</time>
      </trkpt>
      <trkpt lat="47.69878" lon="-2.26161">
        <ele>52.4</ele>
        <time>2021-05-27T10:38:33Z</time>
      </trkpt>
      <trkpt lat="47.69879" lon="-2.26162">
        <ele>52.3</ele>
        <time>2021-05-27T10:38:34Z</time>
      </trkpt>
      <trkpt lat="47.69879" lon="-2.26162">
        <ele>52.2</ele>
        <time>2021-05-27T10:38:35Z</time>
      </trkpt>
      <trkpt lat="47.69879" lon="-2.26162">
        <ele>52.2</ele>
        <time>2021-05-27T10:38:36Z</time>
      </trkpt>
      <trkpt lat="47.69879" lon="-2.26162">
        <ele>52.2</ele>
        <time>2021-05-27T10:38:37Z</time>
      </trkpt>
      <trkpt lat="47.69879" lon="-2.26162">
        <ele>52.2</ele>
        <time>2021-05-27T10:38:38Z</time>
      </trkpt>
      <trkpt lat="47.69879" lon="-2.26162">
        <ele>52.2</ele>
        <time>2021-05-27T10:38:39Z</time>
      </trkpt>
      <trkpt lat="47.69879" lon="-2.26162">
        <ele>52.2</ele>
        <time>2021-05-27T10:38:40Z</time>
      </trkpt>
      <trkpt lat="47.69879" lon="-2.26162">
        <ele>52.2</ele>
        <time>2021-05-27T10:38:41Z</time>
      </trkpt>
      <trkpt lat="47.69879" lon="-2.26162">
        <ele>52.2</ele>
        <time>2021-05-27T10:38:42Z</time>
      </trkpt>
      <trkpt lat="47.69879" lon="-2.26162">
        <ele>52.2</ele>
        <time>2021-05-27T10:38:43Z</time>
      </trkpt>
      <trkpt lat="47.69879" lon="-2.26162">
        <ele>52.2</ele>
        <time>2021-05-27T10:38:44Z</time>
      </trkpt>
      <trkpt lat="47.69882" lon="-2.26175">
        <ele>50.3</ele>
        <time>2021-05-27T10:38:45Z</time>
      </trkpt>
      <trkpt lat="47.69881" lon="-2.26177">
        <ele>50.3</ele>
        <time>2021-05-27T10:38:46Z</time>
      </trkpt>
      <trkpt lat="47.6988" lon="-2.26179">
        <ele>50.5</ele>
        <time>2021-05-27T10:38:47Z</time>
      </trkpt>
      <trkpt lat="47.69879" lon="-2.26182">
        <ele>50.4</ele>
        <time>2021-05-27T10:38:48Z</time>
      </trkpt>
      <trkpt lat="47.69878" lon="-2.26185">
        <ele>50.3</ele>
        <time>2021-05-27T10:38:49Z</time>
      </trkpt>
      <trkpt lat="47.69876" lon="-2.2619">
        <ele>50.2</ele>
        <time>2021-05-27T10:38:50Z</time>
      </trkpt>
      <trkpt lat="47.69875" lon="-2.26194">
        <ele>50.2</ele>
        <time>2021-05-27T10:38:51Z</time>
      </trkpt>
      <trkpt lat="47.69874" lon="-2.26197">
        <ele>50.1</ele>
        <time>2021-05-27T10:38:52Z</time>
      </trkpt>
      <trkpt lat="47.69873" lon="-2.26201">
        <ele>49.9</ele>
        <time>2021-05-27T10:38:53Z</time>
      </trkpt>
      <trkpt lat="47.69872" lon="-2.26203">
        <ele>49.9</ele>
        <time>2021-05-27T10:38:54Z</time>
      </trkpt>
      <trkpt lat="47.69872" lon="-2.26205">
        <ele>49.7</ele>
        <time>2021-05-27T10:38:55Z</time>
      </trkpt>
      <trkpt lat="47.69872" lon="-2.26206">
        <ele>49.4</ele>
        <time>2021-05-27T10:38:56Z</time>
      </trkpt>
      <trkpt lat="47.69874" lon="-2.26204">
        <ele>49.2</ele>
        <time>2021-05-27T10:38:57Z</time>
      </trkpt>
      <trkpt lat="47.69875" lon="-2.26204">
        <ele>48.9</ele>
        <time>2021-05-27T10:38:58Z</time>
      </trkpt>
      <trkpt lat="47.69878" lon="-2.262">
        <ele>48.7</ele>
        <time>2021-05-27T10:38:59Z</time>
      </trkpt>
      <trkpt lat="47.69881" lon="-2.26196">
        <ele>48.4</ele>
        <time>2021-05-27T10:39:00Z</time>
      </trkpt>
      <trkpt lat="47.69884" lon="-2.26191">
        <ele>47.9</ele>
        <time>2021-05-27T10:39:01Z</time>
      </trkpt>
      <trkpt lat="47.69889" lon="-2.26186">
        <ele>47.3</ele>
        <time>2021-05-27T10:39:02Z</time>
      </trkpt>
      <trkpt lat="47.69894" lon="-2.26181">
        <ele>46.5</ele>
        <time>2021-05-27T10:39:03Z</time>
      </trkpt>
      <trkpt lat="47.69898" lon="-2.26177">
        <ele>45.9</ele>
        <time>2021-05-27T10:39:04Z</time>
      </trkpt>
      <trkpt lat="47.69903" lon="-2.26171">
        <ele>45.1</ele>
        <time>2021-05-27T10:39:05Z</time>
      </trkpt>
      <trkpt lat="47.69908" lon="-2.26165">
        <ele>44.4</ele>
        <time>2021-05-27T10:39:06Z</time>
      </trkpt>
      <trkpt lat="47.69913" lon="-2.26159">
        <ele>43.6</ele>
        <time>2021-05-27T10:39:07Z</time>
      </trkpt>
      <trkpt lat="47.69916" lon="-2.26155">
        <ele>43</ele>
        <time>2021-05-27T10:39:08Z</time>
      </trkpt>
      <trkpt lat="47.6992" lon="-2.26154">
        <ele>42.3</ele>
        <time>2021-05-27T10:39:09Z</time>
      </trkpt>
      <trkpt lat="47.69923" lon="-2.26151">
        <ele>41.7</ele>
        <time>2021-05-27T10:39:10Z</time>
      </trkpt>
      <trkpt lat="47.69925" lon="-2.26148">
        <ele>41.3</ele>
        <time>2021-05-27T10:39:11Z</time>
      </trkpt>
      <trkpt lat="47.69927" lon="-2.26146">
        <ele>40.9</ele>
        <time>2021-05-27T10:39:12Z</time>
      </trkpt>
      <trkpt lat="47.6993" lon="-2.26143">
        <ele>40.3</ele>
        <time>2021-05-27T10:39:13Z</time>
      </trkpt>
      <trkpt lat="47.69934" lon="-2.26139">
        <ele>39.6</ele>
        <time>2021-05-27T10:39:14Z</time>
      </trkpt>
      <trkpt lat="47.69937" lon="-2.26137">
        <ele>38.8</ele>
        <time>2021-05-27T10:39:15Z</time>
      </trkpt>
      <trkpt lat="47.6994" lon="-2.26136">
        <ele>38</ele>
        <time>2021-05-27T10:39:16Z</time>
      </trkpt>
      <trkpt lat="47.69944" lon="-2.26135">
        <ele>36.9</ele>
        <time>2021-05-27T10:39:17Z</time>
      </trkpt>
      <trkpt lat="47.69948" lon="-2.26131">
        <ele>36.2</ele>
        <time>2021-05-27T10:39:18Z</time>
      </trkpt>
      <trkpt lat="47.6995" lon="-2.26128">
        <ele>35.8</ele>
        <time>2021-05-27T10:39:19Z</time>
      </trkpt>
      <trkpt lat="47.69952" lon="-2.26126">
        <ele>35.5</ele>
        <time>2021-05-27T10:39:20Z</time>
      </trkpt>
      <trkpt lat="47.69953" lon="-2.26123">
        <ele>35.4</ele>
        <time>2021-05-27T10:39:21Z</time>
      </trkpt>
      <trkpt lat="47.69955" lon="-2.2612">
        <ele>35</ele>
        <time>2021-05-27T10:39:22Z</time>
      </trkpt>
      <trkpt lat="47.69956" lon="-2.26116">
        <ele>35</ele>
        <time>2021-05-27T10:39:23Z</time>
      </trkpt>
      <trkpt lat="47.69956" lon="-2.26112">
        <ele>35.2</ele>
        <time>2021-05-27T10:39:24Z</time>
      </trkpt>
      <trkpt lat="47.69957" lon="-2.26108">
        <ele>35.4</ele>
        <time>2021-05-27T10:39:25Z</time>
      </trkpt>
      <trkpt lat="47.69957" lon="-2.26103">
        <ele>35.6</ele>
        <time>2021-05-27T10:39:26Z</time>
      </trkpt>
      <trkpt lat="47.69957" lon="-2.26099">
        <ele>35.8</ele>
        <time>2021-05-27T10:39:27Z</time>
      </trkpt>
      <trkpt lat="47.69957" lon="-2.26095">
        <ele>36</ele>
        <time>2021-05-27T10:39:28Z</time>
      </trkpt>
      <trkpt lat="47.69958" lon="-2.26091">
        <ele>36.1</ele>
        <time>2021-05-27T10:39:29Z</time>
      </trkpt>
      <trkpt lat="47.69959" lon="-2.26087">
        <ele>36.1</ele>
        <time>2021-05-27T10:39:30Z</time>
      </trkpt>
      <trkpt lat="47.6996" lon="-2.26083">
        <ele>36</ele>
        <time>2021-05-27T10:39:31Z</time>
      </trkpt>
      <trkpt lat="47.69961" lon="-2.26079">
        <ele>36</ele>
        <time>2021-05-27T10:39:32Z</time>
      </trkpt>
      <trkpt lat="47.69962" lon="-2.26074">
        <ele>36</ele>
        <time>2021-05-27T10:39:33Z</time>
      </trkpt>
      <trkpt lat="47.69963" lon="-2.26069">
        <ele>36.2</ele>
        <time>2021-05-27T10:39:34Z</time>
      </trkpt>
      <trkpt lat="47.69964" lon="-2.26064">
        <ele>36.3</ele>
        <time>2021-05-27T10:39:35Z</time>
      </trkpt>
      <trkpt lat="47.69965" lon="-2.26059">
        <ele>36.3</ele>
        <time>2021-05-27T10:39:36Z</time>
      </trkpt>
      <trkpt lat="47.69966" lon="-2.26054">
        <ele>36.5</ele>
        <time>2021-05-27T10:39:37Z</time>
      </trkpt>
      <trkpt lat="47.69967" lon="-2.26049">
        <ele>36.6</ele>
        <time>2021-05-27T10:39:38Z</time>
      </trkpt>
      <trkpt lat="47.69968" lon="-2.26044">
        <ele>36.6</ele>
        <time>2021-05-27T10:39:39Z</time>
      </trkpt>
      <trkpt lat="47.69969" lon="-2.2604">
        <ele>36.6</ele>
        <time>2021-05-27T10:39:40Z</time>
      </trkpt>
      <trkpt lat="47.6997" lon="-2.26035">
        <ele>36.5</ele>
        <time>2021-05-27T10:39:41Z</time>
      </trkpt>
      <trkpt lat="47.69972" lon="-2.2603">
        <ele>36.6</ele>
        <time>2021-05-27T10:39:42Z</time>
      </trkpt>
      <trkpt lat="47.69973" lon="-2.26026">
        <ele>36.6</ele>
        <time>2021-05-27T10:39:43Z</time>
      </trkpt>
      <trkpt lat="47.69973" lon="-2.26021">
        <ele>36.7</ele>
        <time>2021-05-27T10:39:44Z</time>
      </trkpt>
      <trkpt lat="47.69974" lon="-2.26016">
        <ele>36.9</ele>
        <time>2021-05-27T10:39:45Z</time>
      </trkpt>
      <trkpt lat="47.69975" lon="-2.26011">
        <ele>37</ele>
        <time>2021-05-27T10:39:46Z</time>
      </trkpt>
      <trkpt lat="47.69976" lon="-2.26007">
        <ele>37.1</ele>
        <time>2021-05-27T10:39:47Z</time>
      </trkpt>
      <trkpt lat="47.69976" lon="-2.26002">
        <ele>37.3</ele>
        <time>2021-05-27T10:39:48Z</time>
      </trkpt>
      <trkpt lat="47.69977" lon="-2.25996">
        <ele>37.4</ele>
        <time>2021-05-27T10:39:49Z</time>
      </trkpt>
      <trkpt lat="47.69977" lon="-2.25991">
        <ele>37.4</ele>
        <time>2021-05-27T10:39:50Z</time>
      </trkpt>
      <trkpt lat="47.69978" lon="-2.25985">
        <ele>37.5</ele>
        <time>2021-05-27T10:39:51Z</time>
      </trkpt>
      <trkpt lat="47.69979" lon="-2.2598">
        <ele>37.5</ele>
        <time>2021-05-27T10:39:52Z</time>
      </trkpt>
      <trkpt lat="47.69979" lon="-2.25975">
        <ele>37.5</ele>
        <time>2021-05-27T10:39:53Z</time>
      </trkpt>
      <trkpt lat="47.6998" lon="-2.2597">
        <ele>37.4</ele>
        <time>2021-05-27T10:39:54Z</time>
      </trkpt>
      <trkpt lat="47.69981" lon="-2.25965">
        <ele>37.2</ele>
        <time>2021-05-27T10:39:55Z</time>
      </trkpt>
      <trkpt lat="47.69982" lon="-2.2596">
        <ele>37.1</ele>
        <time>2021-05-27T10:39:56Z</time>
      </trkpt>
      <trkpt lat="47.69983" lon="-2.25955">
        <ele>36.9</ele>
        <time>2021-05-27T10:39:57Z</time>
      </trkpt>
      <trkpt lat="47.69984" lon="-2.2595">
        <ele>36.8</ele>
        <time>2021-05-27T10:39:58Z</time>
      </trkpt>
      <trkpt lat="47.69985" lon="-2.25944">
        <ele>36.8</ele>
        <time>2021-05-27T10:39:59Z</time>
      </trkpt>
      <trkpt lat="47.69986" lon="-2.25938">
        <ele>36.7</ele>
        <time>2021-05-27T10:40:00Z</time>
      </trkpt>
      <trkpt lat="47.69987" lon="-2.25932">
        <ele>36.7</ele>
        <time>2021-05-27T10:40:01Z</time>
      </trkpt>
      <trkpt lat="47.69988" lon="-2.25927">
        <ele>36.6</ele>
        <time>2021-05-27T10:40:02Z</time>
      </trkpt>
      <trkpt lat="47.69989" lon="-2.25921">
        <ele>36.6</ele>
        <time>2021-05-27T10:40:03Z</time>
      </trkpt>
      <trkpt lat="47.69989" lon="-2.25915">
        <ele>36.4</ele>
        <time>2021-05-27T10:40:04Z</time>
      </trkpt>
      <trkpt lat="47.69991" lon="-2.25909">
        <ele>36.1</ele>
        <time>2021-05-27T10:40:05Z</time>
      </trkpt>
      <trkpt lat="47.69992" lon="-2.25903">
        <ele>36</ele>
        <time>2021-05-27T10:40:06Z</time>
      </trkpt>
      <trkpt lat="47.69992" lon="-2.25897">
        <ele>35.8</ele>
        <time>2021-05-27T10:40:07Z</time>
      </trkpt>
      <trkpt lat="47.69993" lon="-2.25891">
        <ele>35.8</ele>
        <time>2021-05-27T10:40:08Z</time>
      </trkpt>
      <trkpt lat="47.69993" lon="-2.25886">
        <ele>35.7</ele>
        <time>2021-05-27T10:40:09Z</time>
      </trkpt>
      <trkpt lat="47.69995" lon="-2.25879">
        <ele>35.5</ele>
        <time>2021-05-27T10:40:10Z</time>
      </trkpt>
      <trkpt lat="47.69996" lon="-2.25874">
        <ele>35.2</ele>
        <time>2021-05-27T10:40:11Z</time>
      </trkpt>
      <trkpt lat="47.69997" lon="-2.25869">
        <ele>35.1</ele>
        <time>2021-05-27T10:40:12Z</time>
      </trkpt>
      <trkpt lat="47.69998" lon="-2.25864">
        <ele>34.8</ele>
        <time>2021-05-27T10:40:13Z</time>
      </trkpt>
      <trkpt lat="47.69999" lon="-2.2586">
        <ele>34.6</ele>
        <time>2021-05-27T10:40:14Z</time>
      </trkpt>
      <trkpt lat="47.7" lon="-2.25854">
        <ele>34.4</ele>
        <time>2021-05-27T10:40:15Z</time>
      </trkpt>
      <trkpt lat="47.70002" lon="-2.25848">
        <ele>34.3</ele>
        <time>2021-05-27T10:40:16Z</time>
      </trkpt>
      <trkpt lat="47.70002" lon="-2.25842">
        <ele>34.4</ele>
        <time>2021-05-27T10:40:17Z</time>
      </trkpt>
      <trkpt lat="47.70003" lon="-2.25836">
        <ele>34.4</ele>
        <time>2021-05-27T10:40:18Z</time>
      </trkpt>
      <trkpt lat="47.70004" lon="-2.25829">
        <ele>34.4</ele>
        <time>2021-05-27T10:40:19Z</time>
      </trkpt>
      <trkpt lat="47.70005" lon="-2.25822">
        <ele>34.4</ele>
        <time>2021-05-27T10:40:20Z</time>
      </trkpt>
      <trkpt lat="47.70006" lon="-2.25816">
        <ele>34.6</ele>
        <time>2021-05-27T10:40:21Z</time>
      </trkpt>
      <trkpt lat="47.70006" lon="-2.25809">
        <ele>34.7</ele>
        <time>2021-05-27T10:40:22Z</time>
      </trkpt>
      <trkpt lat="47.70006" lon="-2.25803">
        <ele>34.9</ele>
        <time>2021-05-27T10:40:23Z</time>
      </trkpt>
      <trkpt lat="47.70006" lon="-2.25797">
        <ele>35.1</ele>
        <time>2021-05-27T10:40:24Z</time>
      </trkpt>
      <trkpt lat="47.70006" lon="-2.25791">
        <ele>35.3</ele>
        <time>2021-05-27T10:40:25Z</time>
      </trkpt>
      <trkpt lat="47.70008" lon="-2.25784">
        <ele>35.2</ele>
        <time>2021-05-27T10:40:26Z</time>
      </trkpt>
      <trkpt lat="47.7001" lon="-2.25776">
        <ele>35.2</ele>
        <time>2021-05-27T10:40:27Z</time>
      </trkpt>
      <trkpt lat="47.7001" lon="-2.25768">
        <ele>35.4</ele>
        <time>2021-05-27T10:40:28Z</time>
      </trkpt>
      <trkpt lat="47.70012" lon="-2.25758">
        <ele>35.5</ele>
        <time>2021-05-27T10:40:29Z</time>
      </trkpt>
      <trkpt lat="47.70012" lon="-2.25749">
        <ele>35.7</ele>
        <time>2021-05-27T10:40:30Z</time>
      </trkpt>
      <trkpt lat="47.70013" lon="-2.25741">
        <ele>35.8</ele>
        <time>2021-05-27T10:40:31Z</time>
      </trkpt>
      <trkpt lat="47.70014" lon="-2.25732">
        <ele>36</ele>
        <time>2021-05-27T10:40:32Z</time>
      </trkpt>
      <trkpt lat="47.70016" lon="-2.25725">
        <ele>36</ele>
        <time>2021-05-27T10:40:33Z</time>
      </trkpt>
      <trkpt lat="47.70017" lon="-2.25717">
        <ele>36.1</ele>
        <time>2021-05-27T10:40:34Z</time>
      </trkpt>
      <trkpt lat="47.70018" lon="-2.25709">
        <ele>36.1</ele>
        <time>2021-05-27T10:40:35Z</time>
      </trkpt>
      <trkpt lat="47.70019" lon="-2.25702">
        <ele>36.1</ele>
        <time>2021-05-27T10:40:36Z</time>
      </trkpt>
      <trkpt lat="47.70021" lon="-2.25694">
        <ele>36</ele>
        <time>2021-05-27T10:40:37Z</time>
      </trkpt>
      <trkpt lat="47.70022" lon="-2.25687">
        <ele>36</ele>
        <time>2021-05-27T10:40:38Z</time>
      </trkpt>
      <trkpt lat="47.70022" lon="-2.2568">
        <ele>36.1</ele>
        <time>2021-05-27T10:40:39Z</time>
      </trkpt>
      <trkpt lat="47.70022" lon="-2.25674">
        <ele>36.3</ele>
        <time>2021-05-27T10:40:40Z</time>
      </trkpt>
      <trkpt lat="47.70022" lon="-2.25667">
        <ele>36.8</ele>
        <time>2021-05-27T10:40:41Z</time>
      </trkpt>
      <trkpt lat="47.70021" lon="-2.25661">
        <ele>37</ele>
        <time>2021-05-27T10:40:42Z</time>
      </trkpt>
      <trkpt lat="47.7002" lon="-2.25654">
        <ele>37.2</ele>
        <time>2021-05-27T10:40:43Z</time>
      </trkpt>
      <trkpt lat="47.7002" lon="-2.25647">
        <ele>37.3</ele>
        <time>2021-05-27T10:40:44Z</time>
      </trkpt>
      <trkpt lat="47.70019" lon="-2.25641">
        <ele>37.4</ele>
        <time>2021-05-27T10:40:45Z</time>
      </trkpt>
      <trkpt lat="47.70018" lon="-2.25635">
        <ele>37.7</ele>
        <time>2021-05-27T10:40:46Z</time>
      </trkpt>
      <trkpt lat="47.70016" lon="-2.25629">
        <ele>38</ele>
        <time>2021-05-27T10:40:47Z</time>
      </trkpt>
      <trkpt lat="47.70015" lon="-2.25622">
        <ele>38.2</ele>
        <time>2021-05-27T10:40:48Z</time>
      </trkpt>
      <trkpt lat="47.70014" lon="-2.25614">
        <ele>38.5</ele>
        <time>2021-05-27T10:40:49Z</time>
      </trkpt>
      <trkpt lat="47.70013" lon="-2.25608">
        <ele>38.6</ele>
        <time>2021-05-27T10:40:50Z</time>
      </trkpt>
      <trkpt lat="47.70012" lon="-2.25601">
        <ele>38.8</ele>
        <time>2021-05-27T10:40:51Z</time>
      </trkpt>
      <trkpt lat="47.70011" lon="-2.25594">
        <ele>38.9</ele>
        <time>2021-05-27T10:40:52Z</time>
      </trkpt>
      <trkpt lat="47.7001" lon="-2.25588">
        <ele>39.1</ele>
        <time>2021-05-27T10:40:53Z</time>
      </trkpt>
      <trkpt lat="47.70009" lon="-2.25583">
        <ele>39.3</ele>
        <time>2021-05-27T10:40:54Z</time>
      </trkpt>
      <trkpt lat="47.70007" lon="-2.25578">
        <ele>39.8</ele>
        <time>2021-05-27T10:40:55Z</time>
      </trkpt>
      <trkpt lat="47.70006" lon="-2.25574">
        <ele>39.9</ele>
        <time>2021-05-27T10:40:56Z</time>
      </trkpt>
      <trkpt lat="47.70006" lon="-2.25568">
        <ele>40</ele>
        <time>2021-05-27T10:40:57Z</time>
      </trkpt>
      <trkpt lat="47.70006" lon="-2.25563">
        <ele>40</ele>
        <time>2021-05-27T10:40:58Z</time>
      </trkpt>
      <trkpt lat="47.70006" lon="-2.25558">
        <ele>40.2</ele>
        <time>2021-05-27T10:40:59Z</time>
      </trkpt>
      <trkpt lat="47.70005" lon="-2.25553">
        <ele>40.4</ele>
        <time>2021-05-27T10:41:00Z</time>
      </trkpt>
      <trkpt lat="47.70004" lon="-2.25548">
        <ele>40.6</ele>
        <time>2021-05-27T10:41:01Z</time>
      </trkpt>
      <trkpt lat="47.70004" lon="-2.25543">
        <ele>40.7</ele>
        <time>2021-05-27T10:41:02Z</time>
      </trkpt>
      <trkpt lat="47.70003" lon="-2.25537">
        <ele>40.9</ele>
        <time>2021-05-27T10:41:03Z</time>
      </trkpt>
      <trkpt lat="47.70003" lon="-2.25531">
        <ele>41.1</ele>
        <time>2021-05-27T10:41:04Z</time>
      </trkpt>
      <trkpt lat="47.70002" lon="-2.25527">
        <ele>41.3</ele>
        <time>2021-05-27T10:41:05Z</time>
      </trkpt>
      <trkpt lat="47.7" lon="-2.25523">
        <ele>41.7</ele>
        <time>2021-05-27T10:41:06Z</time>
      </trkpt>
      <trkpt lat="47.69999" lon="-2.25519">
        <ele>41.9</ele>
        <time>2021-05-27T10:41:07Z</time>
      </trkpt>
      <trkpt lat="47.69999" lon="-2.25515">
        <ele>42</ele>
        <time>2021-05-27T10:41:08Z</time>
      </trkpt>
      <trkpt lat="47.69997" lon="-2.25512">
        <ele>42.4</ele>
        <time>2021-05-27T10:41:09Z</time>
      </trkpt>
      <trkpt lat="47.69995" lon="-2.25508">
        <ele>42.8</ele>
        <time>2021-05-27T10:41:10Z</time>
      </trkpt>
      <trkpt lat="47.69993" lon="-2.25505">
        <ele>43.2</ele>
        <time>2021-05-27T10:41:11Z</time>
      </trkpt>
      <trkpt lat="47.69991" lon="-2.25502">
        <ele>43.6</ele>
        <time>2021-05-27T10:41:12Z</time>
      </trkpt>
      <trkpt lat="47.69989" lon="-2.25499">
        <ele>43.9</ele>
        <time>2021-05-27T10:41:13Z</time>
      </trkpt>
      <trkpt lat="47.69987" lon="-2.25497">
        <ele>44.2</ele>
        <time>2021-05-27T10:41:14Z</time>
      </trkpt>
      <trkpt lat="47.69985" lon="-2.25495">
        <ele>44.6</ele>
        <time>2021-05-27T10:41:15Z</time>
      </trkpt>
      <trkpt lat="47.69982" lon="-2.25493">
        <ele>45</ele>
        <time>2021-05-27T10:41:16Z</time>
      </trkpt>
      <trkpt lat="47.6998" lon="-2.2549">
        <ele>45.4</ele>
        <time>2021-05-27T10:41:17Z</time>
      </trkpt>
      <trkpt lat="47.69977" lon="-2.25487">
        <ele>45.7</ele>
        <time>2021-05-27T10:41:18Z</time>
      </trkpt>
      <trkpt lat="47.69975" lon="-2.25485">
        <ele>45.9</ele>
        <time>2021-05-27T10:41:19Z</time>
      </trkpt>
      <trkpt lat="47.69973" lon="-2.25483">
        <ele>46.2</ele>
        <time>2021-05-27T10:41:20Z</time>
      </trkpt>
      <trkpt lat="47.69972" lon="-2.2548">
        <ele>46.4</ele>
        <time>2021-05-27T10:41:21Z</time>
      </trkpt>
      <trkpt lat="47.6997" lon="-2.25477">
        <ele>46.6</ele>
        <time>2021-05-27T10:41:22Z</time>
      </trkpt>
      <trkpt lat="47.69968" lon="-2.25473">
        <ele>46.7</ele>
        <time>2021-05-27T10:41:23Z</time>
      </trkpt>
      <trkpt lat="47.69967" lon="-2.25469">
        <ele>46.7</ele>
        <time>2021-05-27T10:41:24Z</time>
      </trkpt>
      <trkpt lat="47.69965" lon="-2.25465">
        <ele>46.8</ele>
        <time>2021-05-27T10:41:25Z</time>
      </trkpt>
      <trkpt lat="47.69964" lon="-2.25462">
        <ele>46.8</ele>
        <time>2021-05-27T10:41:26Z</time>
      </trkpt>
      <trkpt lat="47.69963" lon="-2.25458">
        <ele>46.9</ele>
        <time>2021-05-27T10:41:27Z</time>
      </trkpt>
      <trkpt lat="47.69961" lon="-2.25455">
        <ele>47</ele>
        <time>2021-05-27T10:41:28Z</time>
      </trkpt>
      <trkpt lat="47.69959" lon="-2.25452">
        <ele>47.1</ele>
        <time>2021-05-27T10:41:29Z</time>
      </trkpt>
      <trkpt lat="47.69958" lon="-2.25448">
        <ele>47</ele>
        <time>2021-05-27T10:41:30Z</time>
      </trkpt>
      <trkpt lat="47.69957" lon="-2.25445">
        <ele>47</ele>
        <time>2021-05-27T10:41:31Z</time>
      </trkpt>
      <trkpt lat="47.69955" lon="-2.25441">
        <ele>47.1</ele>
        <time>2021-05-27T10:41:32Z</time>
      </trkpt>
      <trkpt lat="47.69954" lon="-2.25437">
        <ele>47</ele>
        <time>2021-05-27T10:41:33Z</time>
      </trkpt>
      <trkpt lat="47.69953" lon="-2.25433">
        <ele>46.9</ele>
        <time>2021-05-27T10:41:34Z</time>
      </trkpt>
      <trkpt lat="47.69951" lon="-2.2543">
        <ele>46.9</ele>
        <time>2021-05-27T10:41:35Z</time>
      </trkpt>
      <trkpt lat="47.6995" lon="-2.25426">
        <ele>46.9</ele>
        <time>2021-05-27T10:41:36Z</time>
      </trkpt>
      <trkpt lat="47.69949" lon="-2.25421">
        <ele>46.8</ele>
        <time>2021-05-27T10:41:37Z</time>
      </trkpt>
      <trkpt lat="47.69947" lon="-2.25417">
        <ele>46.8</ele>
        <time>2021-05-27T10:41:38Z</time>
      </trkpt>
      <trkpt lat="47.69945" lon="-2.25413">
        <ele>46.8</ele>
        <time>2021-05-27T10:41:39Z</time>
      </trkpt>
      <trkpt lat="47.69943" lon="-2.25408">
        <ele>47</ele>
        <time>2021-05-27T10:41:40Z</time>
      </trkpt>
      <trkpt lat="47.69942" lon="-2.25404">
        <ele>47.1</ele>
        <time>2021-05-27T10:41:41Z</time>
      </trkpt>
      <trkpt lat="47.6994" lon="-2.25399">
        <ele>47.2</ele>
        <time>2021-05-27T10:41:42Z</time>
      </trkpt>
      <trkpt lat="47.69939" lon="-2.25395">
        <ele>47.3</ele>
        <time>2021-05-27T10:41:43Z</time>
      </trkpt>
      <trkpt lat="47.69938" lon="-2.25391">
        <ele>47.3</ele>
        <time>2021-05-27T10:41:44Z</time>
      </trkpt>
      <trkpt lat="47.69937" lon="-2.25386">
        <ele>47.4</ele>
        <time>2021-05-27T10:41:45Z</time>
      </trkpt>
      <trkpt lat="47.69935" lon="-2.2538">
        <ele>47.5</ele>
        <time>2021-05-27T10:41:46Z</time>
      </trkpt>
      <trkpt lat="47.69934" lon="-2.25374">
        <ele>47.5</ele>
        <time>2021-05-27T10:41:47Z</time>
      </trkpt>
      <trkpt lat="47.69932" lon="-2.25368">
        <ele>47.6</ele>
        <time>2021-05-27T10:41:48Z</time>
      </trkpt>
      <trkpt lat="47.69931" lon="-2.25363">
        <ele>47.7</ele>
        <time>2021-05-27T10:41:49Z</time>
      </trkpt>
      <trkpt lat="47.6993" lon="-2.25357">
        <ele>47.8</ele>
        <time>2021-05-27T10:41:50Z</time>
      </trkpt>
      <trkpt lat="47.69928" lon="-2.2535">
        <ele>47.8</ele>
        <time>2021-05-27T10:41:51Z</time>
      </trkpt>
      <trkpt lat="47.69928" lon="-2.25344">
        <ele>47.8</ele>
        <time>2021-05-27T10:41:52Z</time>
      </trkpt>
      <trkpt lat="47.69926" lon="-2.25338">
        <ele>47.9</ele>
        <time>2021-05-27T10:41:53Z</time>
      </trkpt>
      <trkpt lat="47.69925" lon="-2.25332">
        <ele>48</ele>
        <time>2021-05-27T10:41:54Z</time>
      </trkpt>
      <trkpt lat="47.69923" lon="-2.25326">
        <ele>47.9</ele>
        <time>2021-05-27T10:41:55Z</time>
      </trkpt>
      <trkpt lat="47.69922" lon="-2.2532">
        <ele>47.8</ele>
        <time>2021-05-27T10:41:56Z</time>
      </trkpt>
      <trkpt lat="47.6992" lon="-2.25313">
        <ele>47.7</ele>
        <time>2021-05-27T10:41:57Z</time>
      </trkpt>
      <trkpt lat="47.69917" lon="-2.25306">
        <ele>47.7</ele>
        <time>2021-05-27T10:41:58Z</time>
      </trkpt>
      <trkpt lat="47.69915" lon="-2.25299">
        <ele>47.5</ele>
        <time>2021-05-27T10:41:59Z</time>
      </trkpt>
      <trkpt lat="47.69913" lon="-2.25292">
        <ele>47.4</ele>
        <time>2021-05-27T10:42:00Z</time>
      </trkpt>
      <trkpt lat="47.69911" lon="-2.25284">
        <ele>47.3</ele>
        <time>2021-05-27T10:42:01Z</time>
      </trkpt>
      <trkpt lat="47.69909" lon="-2.25276">
        <ele>47.2</ele>
        <time>2021-05-27T10:42:02Z</time>
      </trkpt>
      <trkpt lat="47.69907" lon="-2.25268">
        <ele>47</ele>
        <time>2021-05-27T10:42:03Z</time>
      </trkpt>
      <trkpt lat="47.69906" lon="-2.25259">
        <ele>46.8</ele>
        <time>2021-05-27T10:42:04Z</time>
      </trkpt>
      <trkpt lat="47.69904" lon="-2.2525">
        <ele>46.7</ele>
        <time>2021-05-27T10:42:05Z</time>
      </trkpt>
      <trkpt lat="47.69902" lon="-2.2524">
        <ele>46.5</ele>
        <time>2021-05-27T10:42:06Z</time>
      </trkpt>
      <trkpt lat="47.69901" lon="-2.25231">
        <ele>46.1</ele>
        <time>2021-05-27T10:42:07Z</time>
      </trkpt>
      <trkpt lat="47.699" lon="-2.25223">
        <ele>45.8</ele>
        <time>2021-05-27T10:42:08Z</time>
      </trkpt>
      <trkpt lat="47.69899" lon="-2.25215">
        <ele>45.6</ele>
        <time>2021-05-27T10:42:09Z</time>
      </trkpt>
      <trkpt lat="47.69896" lon="-2.25207">
        <ele>45.6</ele>
        <time>2021-05-27T10:42:10Z</time>
      </trkpt>
      <trkpt lat="47.69894" lon="-2.25203">
        <ele>45.6</ele>
        <time>2021-05-27T10:42:11Z</time>
      </trkpt>
      <trkpt lat="47.69891" lon="-2.25201">
        <ele>45.8</ele>
        <time>2021-05-27T10:42:12Z</time>
      </trkpt>
      <trkpt lat="47.69889" lon="-2.252">
        <ele>46.1</ele>
        <time>2021-05-27T10:42:13Z</time>
      </trkpt>
      <trkpt lat="47.69887" lon="-2.25199">
        <ele>46.3</ele>
        <time>2021-05-27T10:42:14Z</time>
      </trkpt>
      <trkpt lat="47.69885" lon="-2.25198">
        <ele>46.5</ele>
        <time>2021-05-27T10:42:15Z</time>
      </trkpt>
      <trkpt lat="47.69882" lon="-2.25198">
        <ele>46.8</ele>
        <time>2021-05-27T10:42:16Z</time>
      </trkpt>
      <trkpt lat="47.6988" lon="-2.25198">
        <ele>47.1</ele>
        <time>2021-05-27T10:42:17Z</time>
      </trkpt>
      <trkpt lat="47.69878" lon="-2.25199">
        <ele>47.4</ele>
        <time>2021-05-27T10:42:18Z</time>
      </trkpt>
      <trkpt lat="47.69875" lon="-2.252">
        <ele>47.8</ele>
        <time>2021-05-27T10:42:19Z</time>
      </trkpt>
      <trkpt lat="47.69873" lon="-2.25201">
        <ele>48.1</ele>
        <time>2021-05-27T10:42:20Z</time>
      </trkpt>
      <trkpt lat="47.69871" lon="-2.25201">
        <ele>48.4</ele>
        <time>2021-05-27T10:42:21Z</time>
      </trkpt>
      <trkpt lat="47.69869" lon="-2.25201">
        <ele>48.6</ele>
        <time>2021-05-27T10:42:22Z</time>
      </trkpt>
      <trkpt lat="47.69867" lon="-2.25201">
        <ele>48.9</ele>
        <time>2021-05-27T10:42:23Z</time>
      </trkpt>
      <trkpt lat="47.69865" lon="-2.25202">
        <ele>49.1</ele>
        <time>2021-05-27T10:42:24Z</time>
      </trkpt>
      <trkpt lat="47.69863" lon="-2.25202">
        <ele>49.4</ele>
        <time>2021-05-27T10:42:25Z</time>
      </trkpt>
      <trkpt lat="47.69861" lon="-2.25202">
        <ele>49.7</ele>
        <time>2021-05-27T10:42:26Z</time>
      </trkpt>
      <trkpt lat="47.69859" lon="-2.25203">
        <ele>50</ele>
        <time>2021-05-27T10:42:27Z</time>
      </trkpt>
      <trkpt lat="47.69857" lon="-2.25203">
        <ele>50.2</ele>
        <time>2021-05-27T10:42:28Z</time>
      </trkpt>
      <trkpt lat="47.69855" lon="-2.25203">
        <ele>50.5</ele>
        <time>2021-05-27T10:42:29Z</time>
      </trkpt>
      <trkpt lat="47.69852" lon="-2.25203">
        <ele>50.8</ele>
        <time>2021-05-27T10:42:30Z</time>
      </trkpt>
      <trkpt lat="47.69851" lon="-2.25202">
        <ele>51</ele>
        <time>2021-05-27T10:42:31Z</time>
      </trkpt>
      <trkpt lat="47.69849" lon="-2.25202">
        <ele>51.2</ele>
        <time>2021-05-27T10:42:32Z</time>
      </trkpt>
      <trkpt lat="47.69847" lon="-2.25202">
        <ele>51.4</ele>
        <time>2021-05-27T10:42:33Z</time>
      </trkpt>
      <trkpt lat="47.69845" lon="-2.25202">
        <ele>51.7</ele>
        <time>2021-05-27T10:42:34Z</time>
      </trkpt>
      <trkpt lat="47.69843" lon="-2.25203">
        <ele>52</ele>
        <time>2021-05-27T10:42:35Z</time>
      </trkpt>
      <trkpt lat="47.6984" lon="-2.25203">
        <ele>52.3</ele>
        <time>2021-05-27T10:42:36Z</time>
      </trkpt>
      <trkpt lat="47.69838" lon="-2.25203">
        <ele>52.5</ele>
        <time>2021-05-27T10:42:37Z</time>
      </trkpt>
      <trkpt lat="47.69836" lon="-2.25203">
        <ele>52.8</ele>
        <time>2021-05-27T10:42:38Z</time>
      </trkpt>
      <trkpt lat="47.69835" lon="-2.25202">
        <ele>53</ele>
        <time>2021-05-27T10:42:39Z</time>
      </trkpt>
      <trkpt lat="47.69833" lon="-2.25202">
        <ele>53.2</ele>
        <time>2021-05-27T10:42:40Z</time>
      </trkpt>
      <trkpt lat="47.69831" lon="-2.25202">
        <ele>53.5</ele>
        <time>2021-05-27T10:42:41Z</time>
      </trkpt>
      <trkpt lat="47.69829" lon="-2.25202">
        <ele>53.9</ele>
        <time>2021-05-27T10:42:42Z</time>
      </trkpt>
      <trkpt lat="47.69826" lon="-2.25203">
        <ele>54.3</ele>
        <time>2021-05-27T10:42:43Z</time>
      </trkpt>
      <trkpt lat="47.69824" lon="-2.25204">
        <ele>54.7</ele>
        <time>2021-05-27T10:42:44Z</time>
      </trkpt>
      <trkpt lat="47.69821" lon="-2.25204">
        <ele>55.2</ele>
        <time>2021-05-27T10:42:45Z</time>
      </trkpt>
      <trkpt lat="47.69819" lon="-2.25205">
        <ele>55.5</ele>
        <time>2021-05-27T10:42:46Z</time>
      </trkpt>
      <trkpt lat="47.69817" lon="-2.25205">
        <ele>55.8</ele>
        <time>2021-05-27T10:42:47Z</time>
      </trkpt>
      <trkpt lat="47.69815" lon="-2.25205">
        <ele>56.2</ele>
        <time>2021-05-27T10:42:48Z</time>
      </trkpt>
      <trkpt lat="47.69813" lon="-2.25205">
        <ele>56.5</ele>
        <time>2021-05-27T10:42:49Z</time>
      </trkpt>
      <trkpt lat="47.6981" lon="-2.25204">
        <ele>56.9</ele>
        <time>2021-05-27T10:42:50Z</time>
      </trkpt>
      <trkpt lat="47.69808" lon="-2.25204">
        <ele>57.3</ele>
        <time>2021-05-27T10:42:51Z</time>
      </trkpt>
      <trkpt lat="47.69805" lon="-2.25204">
        <ele>57.7</ele>
        <time>2021-05-27T10:42:52Z</time>
      </trkpt>
      <trkpt lat="47.69803" lon="-2.25204">
        <ele>58</ele>
        <time>2021-05-27T10:42:53Z</time>
      </trkpt>
      <trkpt lat="47.69801" lon="-2.25204">
        <ele>58.3</ele>
        <time>2021-05-27T10:42:54Z</time>
      </trkpt>
      <trkpt lat="47.69798" lon="-2.25204">
        <ele>58.8</ele>
        <time>2021-05-27T10:42:55Z</time>
      </trkpt>
      <trkpt lat="47.69796" lon="-2.25204">
        <ele>59.1</ele>
        <time>2021-05-27T10:42:56Z</time>
      </trkpt>
      <trkpt lat="47.69793" lon="-2.25204">
        <ele>59.6</ele>
        <time>2021-05-27T10:42:57Z</time>
      </trkpt>
      <trkpt lat="47.69791" lon="-2.25203">
        <ele>59.9</ele>
        <time>2021-05-27T10:42:58Z</time>
      </trkpt>
      <trkpt lat="47.69789" lon="-2.25203">
        <ele>60.2</ele>
        <time>2021-05-27T10:42:59Z</time>
      </trkpt>
      <trkpt lat="47.69788" lon="-2.25203">
        <ele>60.4</ele>
        <time>2021-05-27T10:43:00Z</time>
      </trkpt>
      <trkpt lat="47.69785" lon="-2.25203">
        <ele>60.8</ele>
        <time>2021-05-27T10:43:01Z</time>
      </trkpt>
      <trkpt lat="47.69784" lon="-2.25202">
        <ele>61</ele>
        <time>2021-05-27T10:43:02Z</time>
      </trkpt>
      <trkpt lat="47.69782" lon="-2.25202">
        <ele>61.3</ele>
        <time>2021-05-27T10:43:03Z</time>
      </trkpt>
      <trkpt lat="47.6978" lon="-2.25202">
        <ele>61.7</ele>
        <time>2021-05-27T10:43:04Z</time>
      </trkpt>
      <trkpt lat="47.69779" lon="-2.25202">
        <ele>61.9</ele>
        <time>2021-05-27T10:43:05Z</time>
      </trkpt>
      <trkpt lat="47.69776" lon="-2.25202">
        <ele>62.2</ele>
        <time>2021-05-27T10:43:06Z</time>
      </trkpt>
      <trkpt lat="47.69773" lon="-2.25203">
        <ele>62.7</ele>
        <time>2021-05-27T10:43:07Z</time>
      </trkpt>
      <trkpt lat="47.69771" lon="-2.25203">
        <ele>63.1</ele>
        <time>2021-05-27T10:43:08Z</time>
      </trkpt>
      <trkpt lat="47.69769" lon="-2.25203">
        <ele>63.4</ele>
        <time>2021-05-27T10:43:09Z</time>
      </trkpt>
      <trkpt lat="47.69767" lon="-2.25203">
        <ele>63.7</ele>
        <time>2021-05-27T10:43:10Z</time>
      </trkpt>
      <trkpt lat="47.69766" lon="-2.25202">
        <ele>63.9</ele>
        <time>2021-05-27T10:43:11Z</time>
      </trkpt>
      <trkpt lat="47.69764" lon="-2.25202">
        <ele>64.2</ele>
        <time>2021-05-27T10:43:12Z</time>
      </trkpt>
      <trkpt lat="47.69762" lon="-2.25202">
        <ele>64.5</ele>
        <time>2021-05-27T10:43:13Z</time>
      </trkpt>
      <trkpt lat="47.6976" lon="-2.25202">
        <ele>64.7</ele>
        <time>2021-05-27T10:43:14Z</time>
      </trkpt>
      <trkpt lat="47.69759" lon="-2.25202">
        <ele>65</ele>
        <time>2021-05-27T10:43:15Z</time>
      </trkpt>
      <trkpt lat="47.69756" lon="-2.25202">
        <ele>65.4</ele>
        <time>2021-05-27T10:43:16Z</time>
      </trkpt>
      <trkpt lat="47.69754" lon="-2.25202">
        <ele>65.8</ele>
        <time>2021-05-27T10:43:17Z</time>
      </trkpt>
      <trkpt lat="47.69751" lon="-2.25201">
        <ele>66.2</ele>
        <time>2021-05-27T10:43:18Z</time>
      </trkpt>
      <trkpt lat="47.69749" lon="-2.252">
        <ele>66.4</ele>
        <time>2021-05-27T10:43:19Z</time>
      </trkpt>
      <trkpt lat="47.69747" lon="-2.25199">
        <ele>66.4</ele>
        <time>2021-05-27T10:43:20Z</time>
      </trkpt>
      <trkpt lat="47.69744" lon="-2.25199">
        <ele>66.4</ele>
        <time>2021-05-27T10:43:21Z</time>
      </trkpt>
      <trkpt lat="47.69742" lon="-2.25198">
        <ele>66.4</ele>
        <time>2021-05-27T10:43:22Z</time>
      </trkpt>
      <trkpt lat="47.69739" lon="-2.25197">
        <ele>66.4</ele>
        <time>2021-05-27T10:43:23Z</time>
      </trkpt>
      <trkpt lat="47.69737" lon="-2.25196">
        <ele>66.3</ele>
        <time>2021-05-27T10:43:24Z</time>
      </trkpt>
      <trkpt lat="47.69735" lon="-2.25195">
        <ele>66.3</ele>
        <time>2021-05-27T10:43:25Z</time>
      </trkpt>
      <trkpt lat="47.69732" lon="-2.25195">
        <ele>66.3</ele>
        <time>2021-05-27T10:43:26Z</time>
      </trkpt>
      <trkpt lat="47.6973" lon="-2.25194">
        <ele>66.3</ele>
        <time>2021-05-27T10:43:27Z</time>
      </trkpt>
      <trkpt lat="47.69727" lon="-2.25191">
        <ele>66.3</ele>
        <time>2021-05-27T10:43:28Z</time>
      </trkpt>
      <trkpt lat="47.69724" lon="-2.25189">
        <ele>66.3</ele>
        <time>2021-05-27T10:43:29Z</time>
      </trkpt>
      <trkpt lat="47.69722" lon="-2.25186">
        <ele>66.3</ele>
        <time>2021-05-27T10:43:30Z</time>
      </trkpt>
      <trkpt lat="47.6972" lon="-2.25183">
        <ele>66.3</ele>
        <time>2021-05-27T10:43:31Z</time>
      </trkpt>
      <trkpt lat="47.69718" lon="-2.2518">
        <ele>66.4</ele>
        <time>2021-05-27T10:43:32Z</time>
      </trkpt>
      <trkpt lat="47.69717" lon="-2.25177">
        <ele>66.4</ele>
        <time>2021-05-27T10:43:33Z</time>
      </trkpt>
      <trkpt lat="47.69713" lon="-2.2517">
        <ele>66.4</ele>
      </trkpt>
      <trkpt lat="47.69702" lon="-2.2516">
        <ele>66.7</ele>
      </trkpt>
      <trkpt lat="47.69692" lon="-2.25141">
        <ele>67.2</ele>
      </trkpt>
      <trkpt lat="47.69682" lon="-2.25116">
        <ele>67.9</ele>
      </trkpt>
      <trkpt lat="47.69681" lon="-2.25108">
        <ele>68.1</ele>
      </trkpt>
      <trkpt lat="47.69667" lon="-2.2508">
        <ele>69</ele>
      </trkpt>
      <trkpt lat="47.69667" lon="-2.25047">
        <ele>69</ele>
      </trkpt>
      <trkpt lat="47.69656" lon="-2.25008">
        <ele>68.6</ele>
      </trkpt>
      <trkpt lat="47.69655" lon="-2.24989">
        <ele>68.8</ele>
      </trkpt>
      <trkpt lat="47.69654" lon="-2.24982">
        <ele>68.8</ele>
      </trkpt>
      <trkpt lat="47.69652" lon="-2.24967">
        <ele>69</ele>
      </trkpt>
      <trkpt lat="47.69649" lon="-2.24901">
        <ele>69.8</ele>
      </trkpt>
      <trkpt lat="47.6965" lon="-2.24862">
        <ele>69.9</ele>
      </trkpt>
      <trkpt lat="47.69645" lon="-2.24836">
        <ele>70</ele>
      </trkpt>
      <trkpt lat="47.69645" lon="-2.24828">
        <ele>69.9</ele>
      </trkpt>
      <trkpt lat="47.69634" lon="-2.2479">
        <ele>68.9</ele>
      </trkpt>
      <trkpt lat="47.69627" lon="-2.24763">
        <ele>68.3</ele>
      </trkpt>
      <trkpt lat="47.69624" lon="-2.2473">
        <ele>67.2</ele>
      </trkpt>
      <trkpt lat="47.69623" lon="-2.24723">
        <ele>66.9</ele>
      </trkpt>
      <trkpt lat="47.69623" lon="-2.24704">
        <ele>66.1</ele>
      </trkpt>
      <trkpt lat="47.69622" lon="-2.24697">
        <ele>65.9</ele>
      </trkpt>
      <trkpt lat="47.69621" lon="-2.2469">
        <ele>65.7</ele>
      </trkpt>
      <trkpt lat="47.6962" lon="-2.24671">
        <ele>64.9</ele>
      </trkpt>
      <trkpt lat="47.6962" lon="-2.24663">
        <ele>64.8</ele>
      </trkpt>
      <trkpt lat="47.69614" lon="-2.24645">
        <ele>65</ele>
      </trkpt>
      <trkpt lat="47.69611" lon="-2.24639">
        <ele>65.2</ele>
      </trkpt>
      <trkpt lat="47.69606" lon="-2.24621">
        <ele>65.6</ele>
      </trkpt>
      <trkpt lat="47.69605" lon="-2.24615">
        <ele>65.7</ele>
      </trkpt>
      <trkpt lat="47.69605" lon="-2.24608">
        <ele>65.7</ele>
      </trkpt>
      <trkpt lat="47.69604" lon="-2.24593">
        <ele>65.7</ele>
      </trkpt>
      <trkpt lat="47.69603" lon="-2.24586">
        <ele>65.9</ele>
      </trkpt>
      <trkpt lat="47.69592" lon="-2.2456">
        <ele>67</ele>
      </trkpt>
      <trkpt lat="47.6959" lon="-2.24554">
        <ele>67.2</ele>
      </trkpt>
      <trkpt lat="47.6958" lon="-2.2452">
        <ele>67.9</ele>
      </trkpt>
      <trkpt lat="47.69578" lon="-2.24514">
        <ele>67.9</ele>
      </trkpt>
      <trkpt lat="47.69576" lon="-2.24489">
        <ele>67.8</ele>
      </trkpt>
      <trkpt lat="47.69574" lon="-2.24448">
        <ele>67.3</ele>
      </trkpt>
      <trkpt lat="47.69569" lon="-2.24374">
        <ele>67.9</ele>
      </trkpt>
      <trkpt lat="47.69568" lon="-2.24335">
        <ele>68.8</ele>
      </trkpt>
      <trkpt lat="47.69568" lon="-2.24281">
        <ele>68.9</ele>
      </trkpt>
      <trkpt lat="47.69568" lon="-2.24251">
        <ele>69</ele>
      </trkpt>
      <trkpt lat="47.69565" lon="-2.24237">
        <ele>69.2</ele>
      </trkpt>
      <trkpt lat="47.69557" lon="-2.24214">
        <ele>69.6</ele>
        <time>2021-05-27T10:50:24Z</time>
      </trkpt>
      <trkpt lat="47.69556" lon="-2.24209">
        <ele>69.7</ele>
        <time>2021-05-27T10:50:25Z</time>
      </trkpt>
      <trkpt lat="47.69554" lon="-2.24204">
        <ele>69.7</ele>
        <time>2021-05-27T10:50:26Z</time>
      </trkpt>
      <trkpt lat="47.69553" lon="-2.24199">
        <ele>69.8</ele>
        <time>2021-05-27T10:50:27Z</time>
      </trkpt>
      <trkpt lat="47.69551" lon="-2.24193">
        <ele>69.8</ele>
        <time>2021-05-27T10:50:28Z</time>
      </trkpt>
      <trkpt lat="47.6955" lon="-2.24186">
        <ele>69.9</ele>
        <time>2021-05-27T10:50:29Z</time>
      </trkpt>
      <trkpt lat="47.6955" lon="-2.2418">
        <ele>70</ele>
        <time>2021-05-27T10:50:30Z</time>
      </trkpt>
      <trkpt lat="47.69549" lon="-2.24174">
        <ele>70.1</ele>
        <time>2021-05-27T10:50:31Z</time>
      </trkpt>
      <trkpt lat="47.69549" lon="-2.24169">
        <ele>70.1</ele>
        <time>2021-05-27T10:50:32Z</time>
      </trkpt>
      <trkpt lat="47.6955" lon="-2.24164">
        <ele>70.2</ele>
        <time>2021-05-27T10:50:33Z</time>
      </trkpt>
      <trkpt lat="47.6955" lon="-2.24158">
        <ele>70.3</ele>
        <time>2021-05-27T10:50:34Z</time>
      </trkpt>
      <trkpt lat="47.69549" lon="-2.24152">
        <ele>70.4</ele>
        <time>2021-05-27T10:50:35Z</time>
      </trkpt>
      <trkpt lat="47.69548" lon="-2.24145">
        <ele>70.4</ele>
        <time>2021-05-27T10:50:36Z</time>
      </trkpt>
      <trkpt lat="47.6955" lon="-2.24137">
        <ele>70.5</ele>
        <time>2021-05-27T10:50:37Z</time>
      </trkpt>
      <trkpt lat="47.6955" lon="-2.2413">
        <ele>70.7</ele>
        <time>2021-05-27T10:50:38Z</time>
      </trkpt>
      <trkpt lat="47.6955" lon="-2.24123">
        <ele>70.7</ele>
        <time>2021-05-27T10:50:39Z</time>
      </trkpt>
      <trkpt lat="47.69548" lon="-2.24116">
        <ele>70.8</ele>
        <time>2021-05-27T10:50:40Z</time>
      </trkpt>
      <trkpt lat="47.69546" lon="-2.24109">
        <ele>70.8</ele>
        <time>2021-05-27T10:50:41Z</time>
      </trkpt>
      <trkpt lat="47.69545" lon="-2.24103">
        <ele>70.8</ele>
        <time>2021-05-27T10:50:42Z</time>
      </trkpt>
      <trkpt lat="47.69543" lon="-2.24097">
        <ele>70.9</ele>
        <time>2021-05-27T10:50:43Z</time>
      </trkpt>
      <trkpt lat="47.69542" lon="-2.24091">
        <ele>70.9</ele>
        <time>2021-05-27T10:50:44Z</time>
      </trkpt>
      <trkpt lat="47.6954" lon="-2.24086">
        <ele>70.9</ele>
        <time>2021-05-27T10:50:45Z</time>
      </trkpt>
      <trkpt lat="47.69537" lon="-2.24081">
        <ele>70.9</ele>
        <time>2021-05-27T10:50:46Z</time>
      </trkpt>
      <trkpt lat="47.69534" lon="-2.24076">
        <ele>70.7</ele>
        <time>2021-05-27T10:50:47Z</time>
      </trkpt>
      <trkpt lat="47.69532" lon="-2.24072">
        <ele>70.6</ele>
        <time>2021-05-27T10:50:48Z</time>
      </trkpt>
      <trkpt lat="47.6953" lon="-2.24067">
        <ele>70.5</ele>
        <time>2021-05-27T10:50:49Z</time>
      </trkpt>
      <trkpt lat="47.69527" lon="-2.24062">
        <ele>70.4</ele>
        <time>2021-05-27T10:50:50Z</time>
      </trkpt>
      <trkpt lat="47.69525" lon="-2.24058">
        <ele>70.3</ele>
        <time>2021-05-27T10:50:51Z</time>
      </trkpt>
      <trkpt lat="47.69522" lon="-2.24058">
        <ele>70.2</ele>
        <time>2021-05-27T10:50:52Z</time>
      </trkpt>
      <trkpt lat="47.69519" lon="-2.24058">
        <ele>70.2</ele>
        <time>2021-05-27T10:50:53Z</time>
      </trkpt>
      <trkpt lat="47.69516" lon="-2.24057">
        <ele>70.1</ele>
        <time>2021-05-27T10:50:54Z</time>
      </trkpt>
      <trkpt lat="47.69512" lon="-2.24056">
        <ele>70</ele>
        <time>2021-05-27T10:50:55Z</time>
      </trkpt>
      <trkpt lat="47.69509" lon="-2.24056">
        <ele>69.9</ele>
        <time>2021-05-27T10:50:56Z</time>
      </trkpt>
      <trkpt lat="47.69505" lon="-2.24056">
        <ele>69.8</ele>
        <time>2021-05-27T10:50:57Z</time>
      </trkpt>
      <trkpt lat="47.69501" lon="-2.24058">
        <ele>69.7</ele>
        <time>2021-05-27T10:50:58Z</time>
      </trkpt>
      <trkpt lat="47.69498" lon="-2.24059">
        <ele>69.6</ele>
        <time>2021-05-27T10:50:59Z</time>
      </trkpt>
      <trkpt lat="47.69494" lon="-2.2406">
        <ele>69.4</ele>
        <time>2021-05-27T10:51:00Z</time>
      </trkpt>
      <trkpt lat="47.69491" lon="-2.2406">
        <ele>69.3</ele>
        <time>2021-05-27T10:51:01Z</time>
      </trkpt>
      <trkpt lat="47.69489" lon="-2.24061">
        <ele>69.2</ele>
        <time>2021-05-27T10:51:02Z</time>
      </trkpt>
      <trkpt lat="47.69489" lon="-2.24064">
        <ele>69.2</ele>
        <time>2021-05-27T10:51:13Z</time>
      </trkpt>
      <trkpt lat="47.69489" lon="-2.24067">
        <ele>69.2</ele>
        <time>2021-05-27T10:51:14Z</time>
      </trkpt>
      <trkpt lat="47.69489" lon="-2.24071">
        <ele>69.2</ele>
        <time>2021-05-27T10:51:15Z</time>
      </trkpt>
      <trkpt lat="47.69488" lon="-2.24075">
        <ele>69.2</ele>
        <time>2021-05-27T10:51:16Z</time>
      </trkpt>
      <trkpt lat="47.69488" lon="-2.24079">
        <ele>69.3</ele>
        <time>2021-05-27T10:51:17Z</time>
      </trkpt>
      <trkpt lat="47.69488" lon="-2.24083">
        <ele>69.3</ele>
        <time>2021-05-27T10:51:18Z</time>
      </trkpt>
      <trkpt lat="47.69488" lon="-2.24087">
        <ele>69.2</ele>
        <time>2021-05-27T10:51:19Z</time>
      </trkpt>
      <trkpt lat="47.69487" lon="-2.24091">
        <ele>69.1</ele>
        <time>2021-05-27T10:51:20Z</time>
      </trkpt>
      <trkpt lat="47.69489" lon="-2.24095">
        <ele>69.1</ele>
        <time>2021-05-27T10:51:21Z</time>
      </trkpt>
      <trkpt lat="47.69491" lon="-2.24099">
        <ele>69.2</ele>
        <time>2021-05-27T10:51:22Z</time>
      </trkpt>
      <trkpt lat="47.69494" lon="-2.24103">
        <ele>69.4</ele>
        <time>2021-05-27T10:51:23Z</time>
      </trkpt>
      <trkpt lat="47.69496" lon="-2.24106">
        <ele>69.4</ele>
        <time>2021-05-27T10:51:24Z</time>
      </trkpt>
      <trkpt lat="47.69498" lon="-2.24109">
        <ele>69.5</ele>
        <time>2021-05-27T10:51:25Z</time>
      </trkpt>
      <trkpt lat="47.695" lon="-2.24111">
        <ele>69.6</ele>
        <time>2021-05-27T10:51:26Z</time>
      </trkpt>
      <trkpt lat="47.69502" lon="-2.24113">
        <ele>69.7</ele>
        <time>2021-05-27T10:51:27Z</time>
      </trkpt>
      <trkpt lat="47.69503" lon="-2.24115">
        <ele>69.7</ele>
        <time>2021-05-27T10:51:28Z</time>
      </trkpt>
      <trkpt lat="47.69505" lon="-2.24116">
        <ele>69.7</ele>
        <time>2021-05-27T10:51:29Z</time>
      </trkpt>
      <trkpt lat="47.69507" lon="-2.24117">
        <ele>69.8</ele>
        <time>2021-05-27T10:51:30Z</time>
      </trkpt>
      <trkpt lat="47.69508" lon="-2.24119">
        <ele>69.8</ele>
        <time>2021-05-27T10:51:31Z</time>
      </trkpt>
      <trkpt lat="47.69509" lon="-2.24121">
        <ele>69.8</ele>
        <time>2021-05-27T10:51:32Z</time>
      </trkpt>
      <trkpt lat="47.6951" lon="-2.24123">
        <ele>69.8</ele>
        <time>2021-05-27T10:51:33Z</time>
      </trkpt>
      <trkpt lat="47.69511" lon="-2.24123">
        <ele>69.8</ele>
        <time>2021-05-27T10:51:34Z</time>
      </trkpt>
      <trkpt lat="47.69513" lon="-2.24123">
        <ele>69.8</ele>
        <time>2021-05-27T10:51:35Z</time>
      </trkpt>
      <trkpt lat="47.69516" lon="-2.24123">
        <ele>69.9</ele>
        <time>2021-05-27T10:51:36Z</time>
      </trkpt>
      <trkpt lat="47.69519" lon="-2.24125">
        <ele>70</ele>
        <time>2021-05-27T10:51:37Z</time>
      </trkpt>
      <trkpt lat="47.69521" lon="-2.24127">
        <ele>70</ele>
        <time>2021-05-27T10:51:38Z</time>
      </trkpt>
      <trkpt lat="47.69522" lon="-2.24129">
        <ele>70</ele>
        <time>2021-05-27T10:51:39Z</time>
      </trkpt>
      <trkpt lat="47.69522" lon="-2.24132">
        <ele>70</ele>
        <time>2021-05-27T10:51:40Z</time>
      </trkpt>
      <trkpt lat="47.69521" lon="-2.24135">
        <ele>69.9</ele>
        <time>2021-05-27T10:51:41Z</time>
      </trkpt>
      <trkpt lat="47.6952" lon="-2.24137">
        <ele>69.8</ele>
        <time>2021-05-27T10:51:42Z</time>
      </trkpt>
      <trkpt lat="47.69519" lon="-2.2414">
        <ele>69.8</ele>
        <time>2021-05-27T10:51:43Z</time>
      </trkpt>
      <trkpt lat="47.69518" lon="-2.24143">
        <ele>69.7</ele>
        <time>2021-05-27T10:51:44Z</time>
      </trkpt>
      <trkpt lat="47.69518" lon="-2.24146">
        <ele>69.7</ele>
        <time>2021-05-27T10:51:45Z</time>
      </trkpt>
      <trkpt lat="47.69518" lon="-2.2415">
        <ele>69.6</ele>
        <time>2021-05-27T10:51:46Z</time>
      </trkpt>
      <trkpt lat="47.69518" lon="-2.24153">
        <ele>69.6</ele>
        <time>2021-05-27T10:51:47Z</time>
      </trkpt>
      <trkpt lat="47.69519" lon="-2.24157">
        <ele>69.6</ele>
        <time>2021-05-27T10:51:48Z</time>
      </trkpt>
      <trkpt lat="47.69519" lon="-2.24161">
        <ele>69.5</ele>
        <time>2021-05-27T10:51:49Z</time>
      </trkpt>
      <trkpt lat="47.69519" lon="-2.24165">
        <ele>69.5</ele>
        <time>2021-05-27T10:51:50Z</time>
      </trkpt>
      <trkpt lat="47.6952" lon="-2.24168">
        <ele>69.5</ele>
        <time>2021-05-27T10:51:51Z</time>
      </trkpt>
      <trkpt lat="47.69521" lon="-2.24171">
        <ele>69.5</ele>
        <time>2021-05-27T10:51:52Z</time>
      </trkpt>
      <trkpt lat="47.6952" lon="-2.24175">
        <ele>69.4</ele>
        <time>2021-05-27T10:51:53Z</time>
      </trkpt>
      <trkpt lat="47.69519" lon="-2.24179">
        <ele>69.4</ele>
        <time>2021-05-27T10:51:54Z</time>
      </trkpt>
      <trkpt lat="47.69518" lon="-2.24183">
        <ele>69.3</ele>
        <time>2021-05-27T10:51:55Z</time>
      </trkpt>
      <trkpt lat="47.69517" lon="-2.24188">
        <ele>69.3</ele>
        <time>2021-05-27T10:51:56Z</time>
      </trkpt>
      <trkpt lat="47.69516" lon="-2.24193">
        <ele>69.3</ele>
        <time>2021-05-27T10:51:57Z</time>
      </trkpt>
      <trkpt lat="47.69515" lon="-2.24197">
        <ele>69.2</ele>
        <time>2021-05-27T10:51:58Z</time>
      </trkpt>
      <trkpt lat="47.69514" lon="-2.24201">
        <ele>69.2</ele>
        <time>2021-05-27T10:51:59Z</time>
      </trkpt>
      <trkpt lat="47.69514" lon="-2.24206">
        <ele>69.2</ele>
        <time>2021-05-27T10:52:00Z</time>
      </trkpt>
      <trkpt lat="47.69513" lon="-2.24209">
        <ele>69.1</ele>
        <time>2021-05-27T10:52:01Z</time>
      </trkpt>
      <trkpt lat="47.69512" lon="-2.24213">
        <ele>69.1</ele>
        <time>2021-05-27T10:52:02Z</time>
      </trkpt>
      <trkpt lat="47.69511" lon="-2.24216">
        <ele>69.1</ele>
        <time>2021-05-27T10:52:03Z</time>
      </trkpt>
      <trkpt lat="47.6951" lon="-2.24221">
        <ele>69.1</ele>
        <time>2021-05-27T10:52:04Z</time>
      </trkpt>
      <trkpt lat="47.69509" lon="-2.24225">
        <ele>69.1</ele>
        <time>2021-05-27T10:52:05Z</time>
      </trkpt>
      <trkpt lat="47.69508" lon="-2.24228">
        <ele>69</ele>
        <time>2021-05-27T10:52:06Z</time>
      </trkpt>
      <trkpt lat="47.69507" lon="-2.24233">
        <ele>69</ele>
        <time>2021-05-27T10:52:07Z</time>
      </trkpt>
      <trkpt lat="47.69506" lon="-2.24238">
        <ele>69</ele>
        <time>2021-05-27T10:52:08Z</time>
      </trkpt>
      <trkpt lat="47.69505" lon="-2.24241">
        <ele>69</ele>
        <time>2021-05-27T10:52:09Z</time>
      </trkpt>
      <trkpt lat="47.69505" lon="-2.24247">
        <ele>69</ele>
        <time>2021-05-27T10:52:10Z</time>
      </trkpt>
      <trkpt lat="47.69504" lon="-2.24251">
        <ele>69</ele>
        <time>2021-05-27T10:52:11Z</time>
      </trkpt>
      <trkpt lat="47.69504" lon="-2.24257">
        <ele>68.9</ele>
        <time>2021-05-27T10:52:12Z</time>
      </trkpt>
      <trkpt lat="47.69503" lon="-2.24261">
        <ele>68.9</ele>
        <time>2021-05-27T10:52:13Z</time>
      </trkpt>
      <trkpt lat="47.69503" lon="-2.24265">
        <ele>68.8</ele>
        <time>2021-05-27T10:52:14Z</time>
      </trkpt>
      <trkpt lat="47.69503" lon="-2.24269">
        <ele>68.8</ele>
        <time>2021-05-27T10:52:15Z</time>
      </trkpt>
      <trkpt lat="47.69503" lon="-2.24273">
        <ele>68.7</ele>
        <time>2021-05-27T10:52:16Z</time>
      </trkpt>
      <trkpt lat="47.69503" lon="-2.24277">
        <ele>68.7</ele>
        <time>2021-05-27T10:52:17Z</time>
      </trkpt>
      <trkpt lat="47.69503" lon="-2.24281">
        <ele>68.6</ele>
        <time>2021-05-27T10:52:18Z</time>
      </trkpt>
      <trkpt lat="47.69502" lon="-2.24285">
        <ele>68.6</ele>
        <time>2021-05-27T10:52:19Z</time>
      </trkpt>
      <trkpt lat="47.69502" lon="-2.24288">
        <ele>68.5</ele>
        <time>2021-05-27T10:52:20Z</time>
      </trkpt>
      <trkpt lat="47.69501" lon="-2.24291">
        <ele>68.5</ele>
        <time>2021-05-27T10:52:21Z</time>
      </trkpt>
      <trkpt lat="47.69501" lon="-2.24294">
        <ele>68.5</ele>
        <time>2021-05-27T10:52:22Z</time>
      </trkpt>
      <trkpt lat="47.69503" lon="-2.24298">
        <ele>68.4</ele>
        <time>2021-05-27T10:52:23Z</time>
      </trkpt>
      <trkpt lat="47.69503" lon="-2.24301">
        <ele>68.4</ele>
        <time>2021-05-27T10:52:24Z</time>
      </trkpt>
      <trkpt lat="47.69503" lon="-2.24304">
        <ele>68.4</ele>
        <time>2021-05-27T10:52:25Z</time>
      </trkpt>
      <trkpt lat="47.69503" lon="-2.24307">
        <ele>68.3</ele>
        <time>2021-05-27T10:52:26Z</time>
      </trkpt>
      <trkpt lat="47.69503" lon="-2.2431">
        <ele>68.3</ele>
        <time>2021-05-27T10:52:27Z</time>
      </trkpt>
      <trkpt lat="47.69505" lon="-2.24314">
        <ele>68.3</ele>
        <time>2021-05-27T10:52:28Z</time>
      </trkpt>
      <trkpt lat="47.69507" lon="-2.24317">
        <ele>68.3</ele>
        <time>2021-05-27T10:52:29Z</time>
      </trkpt>
      <trkpt lat="47.69509" lon="-2.24322">
        <ele>68.2</ele>
        <time>2021-05-27T10:52:30Z</time>
      </trkpt>
      <trkpt lat="47.69511" lon="-2.24326">
        <ele>68.2</ele>
        <time>2021-05-27T10:52:31Z</time>
      </trkpt>
      <trkpt lat="47.69513" lon="-2.2433">
        <ele>68.2</ele>
        <time>2021-05-27T10:52:32Z</time>
      </trkpt>
      <trkpt lat="47.69516" lon="-2.24334">
        <ele>68.2</ele>
        <time>2021-05-27T10:52:33Z</time>
      </trkpt>
      <trkpt lat="47.69518" lon="-2.24337">
        <ele>68.2</ele>
        <time>2021-05-27T10:52:34Z</time>
      </trkpt>
      <trkpt lat="47.6952" lon="-2.24341">
        <ele>68.1</ele>
        <time>2021-05-27T10:52:35Z</time>
      </trkpt>
      <trkpt lat="47.6952" lon="-2.24345">
        <ele>68.1</ele>
        <time>2021-05-27T10:52:36Z</time>
      </trkpt>
      <trkpt lat="47.69521" lon="-2.24348">
        <ele>68</ele>
        <time>2021-05-27T10:52:37Z</time>
      </trkpt>
      <trkpt lat="47.69522" lon="-2.24352">
        <ele>68</ele>
        <time>2021-05-27T10:52:38Z</time>
      </trkpt>
      <trkpt lat="47.69521" lon="-2.24356">
        <ele>67.9</ele>
        <time>2021-05-27T10:52:39Z</time>
      </trkpt>
      <trkpt lat="47.69521" lon="-2.2436">
        <ele>67.9</ele>
        <time>2021-05-27T10:52:40Z</time>
      </trkpt>
      <trkpt lat="47.69521" lon="-2.24364">
        <ele>67.8</ele>
        <time>2021-05-27T10:52:41Z</time>
      </trkpt>
      <trkpt lat="47.6952" lon="-2.24368">
        <ele>67.7</ele>
        <time>2021-05-27T10:52:42Z</time>
      </trkpt>
      <trkpt lat="47.6952" lon="-2.24372">
        <ele>67.7</ele>
        <time>2021-05-27T10:52:43Z</time>
      </trkpt>
      <trkpt lat="47.6952" lon="-2.24375">
        <ele>67.6</ele>
        <time>2021-05-27T10:52:44Z</time>
      </trkpt>
      <trkpt lat="47.69519" lon="-2.24379">
        <ele>67.6</ele>
        <time>2021-05-27T10:52:45Z</time>
      </trkpt>
      <trkpt lat="47.69518" lon="-2.24383">
        <ele>67.5</ele>
        <time>2021-05-27T10:52:46Z</time>
      </trkpt>
      <trkpt lat="47.69518" lon="-2.24387">
        <ele>67.4</ele>
        <time>2021-05-27T10:52:47Z</time>
      </trkpt>
      <trkpt lat="47.69518" lon="-2.24391">
        <ele>67.4</ele>
        <time>2021-05-27T10:52:48Z</time>
      </trkpt>
      <trkpt lat="47.69519" lon="-2.24395">
        <ele>67.3</ele>
        <time>2021-05-27T10:52:49Z</time>
      </trkpt>
      <trkpt lat="47.69519" lon="-2.24399">
        <ele>67.3</ele>
        <time>2021-05-27T10:52:50Z</time>
      </trkpt>
      <trkpt lat="47.69519" lon="-2.24403">
        <ele>67.2</ele>
        <time>2021-05-27T10:52:51Z</time>
      </trkpt>
      <trkpt lat="47.69519" lon="-2.24408">
        <ele>67.1</ele>
        <time>2021-05-27T10:52:52Z</time>
      </trkpt>
      <trkpt lat="47.69519" lon="-2.24413">
        <ele>67</ele>
        <time>2021-05-27T10:52:53Z</time>
      </trkpt>
      <trkpt lat="47.69519" lon="-2.24419">
        <ele>67</ele>
        <time>2021-05-27T10:52:54Z</time>
      </trkpt>
      <trkpt lat="47.69519" lon="-2.24425">
        <ele>67</ele>
        <time>2021-05-27T10:52:55Z</time>
      </trkpt>
      <trkpt lat="47.6952" lon="-2.24429">
        <ele>67</ele>
        <time>2021-05-27T10:52:56Z</time>
      </trkpt>
      <trkpt lat="47.69521" lon="-2.24434">
        <ele>67.1</ele>
        <time>2021-05-27T10:52:57Z</time>
      </trkpt>
      <trkpt lat="47.69523" lon="-2.24438">
        <ele>67.1</ele>
        <time>2021-05-27T10:52:58Z</time>
      </trkpt>
      <trkpt lat="47.69525" lon="-2.2444">
        <ele>67.1</ele>
        <time>2021-05-27T10:52:59Z</time>
      </trkpt>
      <trkpt lat="47.69525" lon="-2.24445">
        <ele>67.1</ele>
        <time>2021-05-27T10:53:00Z</time>
      </trkpt>
      <trkpt lat="47.69525" lon="-2.24449">
        <ele>67.1</ele>
        <time>2021-05-27T10:53:01Z</time>
      </trkpt>
      <trkpt lat="47.69524" lon="-2.24454">
        <ele>67.1</ele>
        <time>2021-05-27T10:53:02Z</time>
      </trkpt>
      <trkpt lat="47.69522" lon="-2.24459">
        <ele>67.1</ele>
        <time>2021-05-27T10:53:03Z</time>
      </trkpt>
      <trkpt lat="47.69521" lon="-2.24465">
        <ele>67.1</ele>
        <time>2021-05-27T10:53:04Z</time>
      </trkpt>
      <trkpt lat="47.6952" lon="-2.24471">
        <ele>67.2</ele>
        <time>2021-05-27T10:53:05Z</time>
      </trkpt>
      <trkpt lat="47.69518" lon="-2.24476">
        <ele>67.2</ele>
        <time>2021-05-27T10:53:06Z</time>
      </trkpt>
      <trkpt lat="47.69517" lon="-2.24481">
        <ele>67.2</ele>
        <time>2021-05-27T10:53:07Z</time>
      </trkpt>
      <trkpt lat="47.69515" lon="-2.24484">
        <ele>67.1</ele>
        <time>2021-05-27T10:53:08Z</time>
      </trkpt>
      <trkpt lat="47.69514" lon="-2.24489">
        <ele>67.1</ele>
        <time>2021-05-27T10:53:09Z</time>
      </trkpt>
      <trkpt lat="47.69514" lon="-2.24495">
        <ele>67.2</ele>
        <time>2021-05-27T10:53:10Z</time>
      </trkpt>
      <trkpt lat="47.69516" lon="-2.24499">
        <ele>67.2</ele>
        <time>2021-05-27T10:53:11Z</time>
      </trkpt>
      <trkpt lat="47.69517" lon="-2.24503">
        <ele>67.2</ele>
        <time>2021-05-27T10:53:12Z</time>
      </trkpt>
      <trkpt lat="47.6952" lon="-2.24506">
        <ele>67.2</ele>
        <time>2021-05-27T10:53:13Z</time>
      </trkpt>
      <trkpt lat="47.69521" lon="-2.24508">
        <ele>67.2</ele>
        <time>2021-05-27T10:53:14Z</time>
      </trkpt>
      <trkpt lat="47.69523" lon="-2.24511">
        <ele>67.2</ele>
        <time>2021-05-27T10:53:15Z</time>
      </trkpt>
      <trkpt lat="47.69525" lon="-2.24513">
        <ele>67.2</ele>
        <time>2021-05-27T10:53:16Z</time>
      </trkpt>
      <trkpt lat="47.69525" lon="-2.24516">
        <ele>67.2</ele>
        <time>2021-05-27T10:53:17Z</time>
      </trkpt>
      <trkpt lat="47.69525" lon="-2.2452">
        <ele>67.1</ele>
        <time>2021-05-27T10:53:18Z</time>
      </trkpt>
      <trkpt lat="47.69526" lon="-2.24524">
        <ele>67.1</ele>
        <time>2021-05-27T10:53:19Z</time>
      </trkpt>
      <trkpt lat="47.69528" lon="-2.24528">
        <ele>67.1</ele>
        <time>2021-05-27T10:53:20Z</time>
      </trkpt>
      <trkpt lat="47.69529" lon="-2.24532">
        <ele>67.1</ele>
        <time>2021-05-27T10:53:21Z</time>
      </trkpt>
      <trkpt lat="47.6953" lon="-2.24537">
        <ele>67.1</ele>
        <time>2021-05-27T10:53:22Z</time>
      </trkpt>
      <trkpt lat="47.69532" lon="-2.24542">
        <ele>67.1</ele>
        <time>2021-05-27T10:53:23Z</time>
      </trkpt>
      <trkpt lat="47.69533" lon="-2.24544">
        <ele>67.1</ele>
        <time>2021-05-27T10:53:24Z</time>
      </trkpt>
      <trkpt lat="47.69536" lon="-2.24546">
        <ele>67.1</ele>
        <time>2021-05-27T10:53:25Z</time>
      </trkpt>
      <trkpt lat="47.69538" lon="-2.24548">
        <ele>67.1</ele>
        <time>2021-05-27T10:53:26Z</time>
      </trkpt>
      <trkpt lat="47.6954" lon="-2.24549">
        <ele>67.2</ele>
        <time>2021-05-27T10:53:27Z</time>
      </trkpt>
      <trkpt lat="47.6954" lon="-2.24553">
        <ele>67.2</ele>
        <time>2021-05-27T10:53:28Z</time>
      </trkpt>
      <trkpt lat="47.6954" lon="-2.24556">
        <ele>67.1</ele>
        <time>2021-05-27T10:53:29Z</time>
      </trkpt>
      <trkpt lat="47.6954" lon="-2.2456">
        <ele>67.1</ele>
        <time>2021-05-27T10:53:30Z</time>
      </trkpt>
      <trkpt lat="47.69541" lon="-2.24565">
        <ele>67.1</ele>
        <time>2021-05-27T10:53:31Z</time>
      </trkpt>
      <trkpt lat="47.69541" lon="-2.2457">
        <ele>67.1</ele>
        <time>2021-05-27T10:53:32Z</time>
      </trkpt>
      <trkpt lat="47.6954" lon="-2.24574">
        <ele>67</ele>
        <time>2021-05-27T10:53:33Z</time>
      </trkpt>
      <trkpt lat="47.6954" lon="-2.24579">
        <ele>67</ele>
        <time>2021-05-27T10:53:34Z</time>
      </trkpt>
      <trkpt lat="47.69539" lon="-2.24584">
        <ele>66.9</ele>
        <time>2021-05-27T10:53:35Z</time>
      </trkpt>
      <trkpt lat="47.6954" lon="-2.24588">
        <ele>66.9</ele>
        <time>2021-05-27T10:53:36Z</time>
      </trkpt>
      <trkpt lat="47.69541" lon="-2.24592">
        <ele>66.8</ele>
        <time>2021-05-27T10:53:37Z</time>
      </trkpt>
      <trkpt lat="47.69542" lon="-2.24596">
        <ele>66.8</ele>
        <time>2021-05-27T10:53:38Z</time>
      </trkpt>
      <trkpt lat="47.69542" lon="-2.246">
        <ele>66.7</ele>
        <time>2021-05-27T10:53:39Z</time>
      </trkpt>
      <trkpt lat="47.69542" lon="-2.24604">
        <ele>66.6</ele>
        <time>2021-05-27T10:53:40Z</time>
      </trkpt>
      <trkpt lat="47.69541" lon="-2.24607">
        <ele>66.5</ele>
        <time>2021-05-27T10:53:41Z</time>
      </trkpt>
      <trkpt lat="47.6954" lon="-2.24611">
        <ele>66.5</ele>
        <time>2021-05-27T10:53:42Z</time>
      </trkpt>
      <trkpt lat="47.6954" lon="-2.24614">
        <ele>66.4</ele>
        <time>2021-05-27T10:53:43Z</time>
      </trkpt>
      <trkpt lat="47.69541" lon="-2.24618">
        <ele>66.4</ele>
        <time>2021-05-27T10:53:44Z</time>
      </trkpt>
      <trkpt lat="47.69542" lon="-2.24622">
        <ele>66.3</ele>
        <time>2021-05-27T10:53:45Z</time>
      </trkpt>
      <trkpt lat="47.69543" lon="-2.24626">
        <ele>66.3</ele>
        <time>2021-05-27T10:53:46Z</time>
      </trkpt>
      <trkpt lat="47.69544" lon="-2.24628">
        <ele>66.3</ele>
        <time>2021-05-27T10:53:47Z</time>
      </trkpt>
      <trkpt lat="47.69544" lon="-2.24632">
        <ele>66.2</ele>
        <time>2021-05-27T10:53:48Z</time>
      </trkpt>
      <trkpt lat="47.69545" lon="-2.24635">
        <ele>66.2</ele>
        <time>2021-05-27T10:53:49Z</time>
      </trkpt>
      <trkpt lat="47.69544" lon="-2.2464">
        <ele>66.1</ele>
        <time>2021-05-27T10:53:50Z</time>
      </trkpt>
      <trkpt lat="47.69543" lon="-2.24645">
        <ele>66</ele>
        <time>2021-05-27T10:53:51Z</time>
      </trkpt>
      <trkpt lat="47.69543" lon="-2.2465">
        <ele>65.9</ele>
        <time>2021-05-27T10:53:52Z</time>
      </trkpt>
      <trkpt lat="47.69543" lon="-2.24655">
        <ele>65.7</ele>
        <time>2021-05-27T10:53:53Z</time>
      </trkpt>
      <trkpt lat="47.69542" lon="-2.24659">
        <ele>65.6</ele>
        <time>2021-05-27T10:53:54Z</time>
      </trkpt>
      <trkpt lat="47.69541" lon="-2.24664">
        <ele>65.5</ele>
        <time>2021-05-27T10:53:55Z</time>
      </trkpt>
      <trkpt lat="47.6954" lon="-2.24669">
        <ele>65.4</ele>
        <time>2021-05-27T10:53:56Z</time>
      </trkpt>
      <trkpt lat="47.69539" lon="-2.24674">
        <ele>65.4</ele>
        <time>2021-05-27T10:53:57Z</time>
      </trkpt>
      <trkpt lat="47.69538" lon="-2.24678">
        <ele>65.4</ele>
        <time>2021-05-27T10:53:58Z</time>
      </trkpt>
      <trkpt lat="47.69539" lon="-2.24682">
        <ele>65.5</ele>
        <time>2021-05-27T10:53:59Z</time>
      </trkpt>
      <trkpt lat="47.69538" lon="-2.24687">
        <ele>65.5</ele>
        <time>2021-05-27T10:54:00Z</time>
      </trkpt>
      <trkpt lat="47.69537" lon="-2.24692">
        <ele>65.4</ele>
        <time>2021-05-27T10:54:01Z</time>
      </trkpt>
      <trkpt lat="47.69536" lon="-2.24697">
        <ele>65.4</ele>
        <time>2021-05-27T10:54:02Z</time>
      </trkpt>
      <trkpt lat="47.69536" lon="-2.24702">
        <ele>65.4</ele>
        <time>2021-05-27T10:54:03Z</time>
      </trkpt>
      <trkpt lat="47.69537" lon="-2.24707">
        <ele>65.5</ele>
        <time>2021-05-27T10:54:04Z</time>
      </trkpt>
      <trkpt lat="47.69538" lon="-2.24713">
        <ele>65.6</ele>
        <time>2021-05-27T10:54:05Z</time>
      </trkpt>
      <trkpt lat="47.69539" lon="-2.24718">
        <ele>65.7</ele>
        <time>2021-05-27T10:54:06Z</time>
      </trkpt>
      <trkpt lat="47.6954" lon="-2.24724">
        <ele>65.8</ele>
        <time>2021-05-27T10:54:07Z</time>
      </trkpt>
      <trkpt lat="47.6954" lon="-2.24729">
        <ele>65.8</ele>
        <time>2021-05-27T10:54:08Z</time>
      </trkpt>
      <trkpt lat="47.69541" lon="-2.24734">
        <ele>65.9</ele>
        <time>2021-05-27T10:54:09Z</time>
      </trkpt>
      <trkpt lat="47.6954" lon="-2.24736">
        <ele>65.8</ele>
        <time>2021-05-27T10:54:10Z</time>
      </trkpt>
      <trkpt lat="47.69539" lon="-2.24736">
        <ele>65.8</ele>
        <time>2021-05-27T10:54:11Z</time>
      </trkpt>
      <trkpt lat="47.69539" lon="-2.24737">
        <ele>65.8</ele>
        <time>2021-05-27T10:54:12Z</time>
      </trkpt>
      <trkpt lat="47.69539" lon="-2.24737">
        <ele>65.8</ele>
        <time>2021-05-27T10:54:14Z</time>
      </trkpt>
      <trkpt lat="47.69539" lon="-2.24737">
        <ele>65.8</ele>
        <time>2021-05-27T10:54:15Z</time>
      </trkpt>
      <trkpt lat="47.69539" lon="-2.24737">
        <ele>65.8</ele>
        <time>2021-05-27T10:54:16Z</time>
      </trkpt>
      <trkpt lat="47.69539" lon="-2.24737">
        <ele>65.8</ele>
        <time>2021-05-27T10:54:17Z</time>
      </trkpt>
      <trkpt lat="47.69539" lon="-2.24737">
        <ele>65.8</ele>
        <time>2021-05-27T10:54:18Z</time>
      </trkpt>
      <trkpt lat="47.69539" lon="-2.24737">
        <ele>65.8</ele>
        <time>2021-05-27T10:54:19Z</time>
      </trkpt>
      <trkpt lat="47.69539" lon="-2.24737">
        <ele>65.8</ele>
        <time>2021-05-27T10:54:20Z</time>
      </trkpt>
      <trkpt lat="47.69539" lon="-2.24737">
        <ele>65.8</ele>
        <time>2021-05-27T10:54:21Z</time>
      </trkpt>
      <trkpt lat="47.69539" lon="-2.24737">
        <ele>65.8</ele>
        <time>2021-05-27T10:54:22Z</time>
      </trkpt>
      <trkpt lat="47.69539" lon="-2.24737">
        <ele>65.8</ele>
        <time>2021-05-27T10:54:23Z</time>
      </trkpt>
      <trkpt lat="47.69539" lon="-2.24737">
        <ele>65.8</ele>
        <time>2021-05-27T10:54:24Z</time>
      </trkpt>
      <trkpt lat="47.69539" lon="-2.24737">
        <ele>65.8</ele>
        <time>2021-05-27T10:54:25Z</time>
      </trkpt>
      <trkpt lat="47.69537" lon="-2.24736">
        <ele>65.6</ele>
        <time>2021-05-27T10:54:26Z</time>
      </trkpt>
      <trkpt lat="47.69535" lon="-2.24735">
        <ele>65.5</ele>
        <time>2021-05-27T10:54:27Z</time>
      </trkpt>
      <trkpt lat="47.69533" lon="-2.24734">
        <ele>65.4</ele>
        <time>2021-05-27T10:54:28Z</time>
      </trkpt>
      <trkpt lat="47.69531" lon="-2.24734">
        <ele>65.2</ele>
        <time>2021-05-27T10:54:29Z</time>
      </trkpt>
      <trkpt lat="47.6953" lon="-2.24734">
        <ele>65.1</ele>
        <time>2021-05-27T10:54:30Z</time>
      </trkpt>
      <trkpt lat="47.69527" lon="-2.24734">
        <ele>64.9</ele>
        <time>2021-05-27T10:54:31Z</time>
      </trkpt>
      <trkpt lat="47.69523" lon="-2.24734">
        <ele>64.7</ele>
        <time>2021-05-27T10:54:32Z</time>
      </trkpt>
      <trkpt lat="47.69521" lon="-2.24736">
        <ele>64.6</ele>
        <time>2021-05-27T10:54:33Z</time>
      </trkpt>
      <trkpt lat="47.69519" lon="-2.24739">
        <ele>64.4</ele>
        <time>2021-05-27T10:54:34Z</time>
      </trkpt>
      <trkpt lat="47.69519" lon="-2.24743">
        <ele>64.4</ele>
        <time>2021-05-27T10:54:35Z</time>
      </trkpt>
      <trkpt lat="47.69519" lon="-2.24748">
        <ele>64.4</ele>
        <time>2021-05-27T10:54:36Z</time>
      </trkpt>
      <trkpt lat="47.6952" lon="-2.24752">
        <ele>64.4</ele>
        <time>2021-05-27T10:54:37Z</time>
      </trkpt>
      <trkpt lat="47.69519" lon="-2.24757">
        <ele>64.3</ele>
        <time>2021-05-27T10:54:38Z</time>
      </trkpt>
      <trkpt lat="47.69518" lon="-2.2476">
        <ele>64.2</ele>
        <time>2021-05-27T10:54:39Z</time>
      </trkpt>
      <trkpt lat="47.69519" lon="-2.24764">
        <ele>64.2</ele>
        <time>2021-05-27T10:54:40Z</time>
      </trkpt>
      <trkpt lat="47.69518" lon="-2.24769">
        <ele>64.2</ele>
        <time>2021-05-27T10:54:41Z</time>
      </trkpt>
      <trkpt lat="47.69518" lon="-2.24773">
        <ele>64.2</ele>
        <time>2021-05-27T10:54:42Z</time>
      </trkpt>
      <trkpt lat="47.6952" lon="-2.24778">
        <ele>64.3</ele>
        <time>2021-05-27T10:54:43Z</time>
      </trkpt>
      <trkpt lat="47.69522" lon="-2.24783">
        <ele>64.4</ele>
        <time>2021-05-27T10:54:44Z</time>
      </trkpt>
      <trkpt lat="47.69523" lon="-2.24786">
        <ele>64.5</ele>
        <time>2021-05-27T10:54:45Z</time>
      </trkpt>
      <trkpt lat="47.69525" lon="-2.24791">
        <ele>64.6</ele>
        <time>2021-05-27T10:54:46Z</time>
      </trkpt>
      <trkpt lat="47.69526" lon="-2.24795">
        <ele>64.7</ele>
        <time>2021-05-27T10:54:47Z</time>
      </trkpt>
      <trkpt lat="47.69527" lon="-2.248">
        <ele>64.8</ele>
        <time>2021-05-27T10:54:48Z</time>
      </trkpt>
      <trkpt lat="47.69529" lon="-2.24804">
        <ele>64.9</ele>
        <time>2021-05-27T10:54:49Z</time>
      </trkpt>
      <trkpt lat="47.69531" lon="-2.24808">
        <ele>65</ele>
        <time>2021-05-27T10:54:50Z</time>
      </trkpt>
      <trkpt lat="47.69533" lon="-2.2481">
        <ele>65.3</ele>
        <time>2021-05-27T10:54:51Z</time>
      </trkpt>
      <trkpt lat="47.69535" lon="-2.24812">
        <ele>65.4</ele>
        <time>2021-05-27T10:54:52Z</time>
      </trkpt>
      <trkpt lat="47.69535" lon="-2.24815">
        <ele>65.4</ele>
        <time>2021-05-27T10:54:53Z</time>
      </trkpt>
      <trkpt lat="47.69535" lon="-2.24819">
        <ele>65.4</ele>
        <time>2021-05-27T10:54:54Z</time>
      </trkpt>
      <trkpt lat="47.69537" lon="-2.24823">
        <ele>65.5</ele>
        <time>2021-05-27T10:54:55Z</time>
      </trkpt>
      <trkpt lat="47.69539" lon="-2.24826">
        <ele>65.7</ele>
        <time>2021-05-27T10:54:56Z</time>
      </trkpt>
      <trkpt lat="47.6954" lon="-2.2483">
        <ele>65.8</ele>
        <time>2021-05-27T10:54:57Z</time>
      </trkpt>
      <trkpt lat="47.69541" lon="-2.24835">
        <ele>65.9</ele>
        <time>2021-05-27T10:54:58Z</time>
      </trkpt>
      <trkpt lat="47.6954" lon="-2.24841">
        <ele>65.9</ele>
        <time>2021-05-27T10:54:59Z</time>
      </trkpt>
      <trkpt lat="47.6954" lon="-2.24845">
        <ele>65.9</ele>
        <time>2021-05-27T10:55:00Z</time>
      </trkpt>
      <trkpt lat="47.6954" lon="-2.2485">
        <ele>65.8</ele>
        <time>2021-05-27T10:55:01Z</time>
      </trkpt>
      <trkpt lat="47.69538" lon="-2.24853">
        <ele>65.7</ele>
        <time>2021-05-27T10:55:02Z</time>
      </trkpt>
      <trkpt lat="47.69537" lon="-2.24856">
        <ele>65.6</ele>
        <time>2021-05-27T10:55:03Z</time>
      </trkpt>
      <trkpt lat="47.69537" lon="-2.24859">
        <ele>65.6</ele>
        <time>2021-05-27T10:55:04Z</time>
      </trkpt>
      <trkpt lat="47.69537" lon="-2.24861">
        <ele>65.6</ele>
        <time>2021-05-27T10:55:05Z</time>
      </trkpt>
      <trkpt lat="47.69538" lon="-2.24862">
        <ele>65.6</ele>
        <time>2021-05-27T10:55:06Z</time>
      </trkpt>
      <trkpt lat="47.69538" lon="-2.24864">
        <ele>65.7</ele>
        <time>2021-05-27T10:55:07Z</time>
      </trkpt>
      <trkpt lat="47.69538" lon="-2.24866">
        <ele>65.7</ele>
        <time>2021-05-27T10:55:08Z</time>
      </trkpt>
      <trkpt lat="47.69539" lon="-2.24868">
        <ele>65.7</ele>
        <time>2021-05-27T10:55:09Z</time>
      </trkpt>
      <trkpt lat="47.6954" lon="-2.24871">
        <ele>65.8</ele>
        <time>2021-05-27T10:55:10Z</time>
      </trkpt>
      <trkpt lat="47.6954" lon="-2.24873">
        <ele>65.9</ele>
        <time>2021-05-27T10:55:11Z</time>
      </trkpt>
      <trkpt lat="47.6954" lon="-2.24877">
        <ele>65.9</ele>
        <time>2021-05-27T10:55:12Z</time>
      </trkpt>
      <trkpt lat="47.6954" lon="-2.2488">
        <ele>65.8</ele>
        <time>2021-05-27T10:55:13Z</time>
      </trkpt>
      <trkpt lat="47.6954" lon="-2.24884">
        <ele>65.9</ele>
        <time>2021-05-27T10:55:14Z</time>
      </trkpt>
      <trkpt lat="47.6954" lon="-2.24888">
        <ele>65.9</ele>
        <time>2021-05-27T10:55:15Z</time>
      </trkpt>
      <trkpt lat="47.69541" lon="-2.24891">
        <ele>65.9</ele>
        <time>2021-05-27T10:55:16Z</time>
      </trkpt>
      <trkpt lat="47.69541" lon="-2.24895">
        <ele>65.9</ele>
        <time>2021-05-27T10:55:17Z</time>
      </trkpt>
      <trkpt lat="47.69541" lon="-2.249">
        <ele>65.9</ele>
        <time>2021-05-27T10:55:18Z</time>
      </trkpt>
      <trkpt lat="47.69542" lon="-2.24905">
        <ele>66</ele>
        <time>2021-05-27T10:55:19Z</time>
      </trkpt>
      <trkpt lat="47.69545" lon="-2.24911">
        <ele>66.2</ele>
        <time>2021-05-27T10:55:20Z</time>
      </trkpt>
      <trkpt lat="47.69548" lon="-2.24915">
        <ele>66.5</ele>
        <time>2021-05-27T10:55:21Z</time>
      </trkpt>
      <trkpt lat="47.69551" lon="-2.24918">
        <ele>66.6</ele>
        <time>2021-05-27T10:55:22Z</time>
      </trkpt>
      <trkpt lat="47.69551" lon="-2.24921">
        <ele>66.5</ele>
        <time>2021-05-27T10:55:23Z</time>
      </trkpt>
      <trkpt lat="47.69551" lon="-2.24925">
        <ele>66.4</ele>
        <time>2021-05-27T10:55:24Z</time>
      </trkpt>
      <trkpt lat="47.69551" lon="-2.2493">
        <ele>66.3</ele>
        <time>2021-05-27T10:55:25Z</time>
      </trkpt>
      <trkpt lat="47.69551" lon="-2.24933">
        <ele>66.2</ele>
        <time>2021-05-27T10:55:26Z</time>
      </trkpt>
      <trkpt lat="47.69552" lon="-2.24936">
        <ele>66.1</ele>
        <time>2021-05-27T10:55:27Z</time>
      </trkpt>
      <trkpt lat="47.69553" lon="-2.2494">
        <ele>66.1</ele>
        <time>2021-05-27T10:55:28Z</time>
      </trkpt>
      <trkpt lat="47.69553" lon="-2.24944">
        <ele>65.9</ele>
        <time>2021-05-27T10:55:29Z</time>
      </trkpt>
      <trkpt lat="47.69552" lon="-2.24948">
        <ele>65.8</ele>
        <time>2021-05-27T10:55:30Z</time>
      </trkpt>
      <trkpt lat="47.69552" lon="-2.24953">
        <ele>65.6</ele>
        <time>2021-05-27T10:55:31Z</time>
      </trkpt>
      <trkpt lat="47.69552" lon="-2.24958">
        <ele>65.4</ele>
        <time>2021-05-27T10:55:32Z</time>
      </trkpt>
      <trkpt lat="47.69554" lon="-2.24966">
        <ele>65.3</ele>
        <time>2021-05-27T10:55:33Z</time>
      </trkpt>
      <trkpt lat="47.69557" lon="-2.24972">
        <ele>65.3</ele>
        <time>2021-05-27T10:55:34Z</time>
      </trkpt>
      <trkpt lat="47.69559" lon="-2.24977">
        <ele>65.3</ele>
        <time>2021-05-27T10:55:35Z</time>
      </trkpt>
      <trkpt lat="47.69559" lon="-2.24983">
        <ele>65.1</ele>
        <time>2021-05-27T10:55:36Z</time>
      </trkpt>
      <trkpt lat="47.69559" lon="-2.24989">
        <ele>64.9</ele>
        <time>2021-05-27T10:55:37Z</time>
      </trkpt>
      <trkpt lat="47.69558" lon="-2.24994">
        <ele>64.7</ele>
        <time>2021-05-27T10:55:38Z</time>
      </trkpt>
      <trkpt lat="47.69556" lon="-2.25">
        <ele>64.4</ele>
        <time>2021-05-27T10:55:39Z</time>
      </trkpt>
      <trkpt lat="47.69553" lon="-2.25004">
        <ele>64.2</ele>
        <time>2021-05-27T10:55:40Z</time>
      </trkpt>
      <trkpt lat="47.69551" lon="-2.2501">
        <ele>64</ele>
        <time>2021-05-27T10:55:41Z</time>
      </trkpt>
      <trkpt lat="47.69549" lon="-2.25016">
        <ele>63.8</ele>
        <time>2021-05-27T10:55:42Z</time>
      </trkpt>
      <trkpt lat="47.69547" lon="-2.25023">
        <ele>63.6</ele>
        <time>2021-05-27T10:55:43Z</time>
      </trkpt>
      <trkpt lat="47.69547" lon="-2.2503">
        <ele>63.6</ele>
        <time>2021-05-27T10:55:44Z</time>
      </trkpt>
      <trkpt lat="47.69549" lon="-2.25037">
        <ele>63.6</ele>
        <time>2021-05-27T10:55:45Z</time>
      </trkpt>
      <trkpt lat="47.69551" lon="-2.2504">
        <ele>63.8</ele>
        <time>2021-05-27T10:55:46Z</time>
      </trkpt>
      <trkpt lat="47.69553" lon="-2.25045">
        <ele>63.9</ele>
        <time>2021-05-27T10:55:47Z</time>
      </trkpt>
      <trkpt lat="47.69555" lon="-2.25049">
        <ele>64.1</ele>
        <time>2021-05-27T10:55:48Z</time>
      </trkpt>
      <trkpt lat="47.69557" lon="-2.25053">
        <ele>64.3</ele>
        <time>2021-05-27T10:55:49Z</time>
      </trkpt>
      <trkpt lat="47.69559" lon="-2.25057">
        <ele>64.4</ele>
        <time>2021-05-27T10:55:50Z</time>
      </trkpt>
      <trkpt lat="47.69559" lon="-2.25061">
        <ele>64.4</ele>
        <time>2021-05-27T10:55:51Z</time>
      </trkpt>
      <trkpt lat="47.69558" lon="-2.25065">
        <ele>64.3</ele>
        <time>2021-05-27T10:55:52Z</time>
      </trkpt>
      <trkpt lat="47.69556" lon="-2.25068">
        <ele>64.2</ele>
        <time>2021-05-27T10:55:53Z</time>
      </trkpt>
      <trkpt lat="47.69555" lon="-2.25069">
        <ele>64</ele>
        <time>2021-05-27T10:55:54Z</time>
      </trkpt>
      <trkpt lat="47.69553" lon="-2.25069">
        <ele>63.8</ele>
        <time>2021-05-27T10:55:55Z</time>
      </trkpt>
      <trkpt lat="47.6955" lon="-2.25068">
        <ele>63.5</ele>
        <time>2021-05-27T10:55:56Z</time>
      </trkpt>
      <trkpt lat="47.69547" lon="-2.25068">
        <ele>63.2</ele>
        <time>2021-05-27T10:55:57Z</time>
      </trkpt>
      <trkpt lat="47.69544" lon="-2.25069">
        <ele>62.9</ele>
        <time>2021-05-27T10:55:58Z</time>
      </trkpt>
      <trkpt lat="47.69541" lon="-2.25072">
        <ele>62.6</ele>
        <time>2021-05-27T10:55:59Z</time>
      </trkpt>
      <trkpt lat="47.69539" lon="-2.25075">
        <ele>62.3</ele>
        <time>2021-05-27T10:56:00Z</time>
      </trkpt>
      <trkpt lat="47.69536" lon="-2.25078">
        <ele>62</ele>
        <time>2021-05-27T10:56:01Z</time>
      </trkpt>
      <trkpt lat="47.69535" lon="-2.2508">
        <ele>61.8</ele>
        <time>2021-05-27T10:56:02Z</time>
      </trkpt>
      <trkpt lat="47.69534" lon="-2.25084">
        <ele>61.6</ele>
        <time>2021-05-27T10:56:03Z</time>
      </trkpt>
      <trkpt lat="47.69533" lon="-2.25088">
        <ele>61.4</ele>
        <time>2021-05-27T10:56:04Z</time>
      </trkpt>
      <trkpt lat="47.69531" lon="-2.25093">
        <ele>61.1</ele>
        <time>2021-05-27T10:56:05Z</time>
      </trkpt>
      <trkpt lat="47.69531" lon="-2.25098">
        <ele>60.9</ele>
        <time>2021-05-27T10:56:06Z</time>
      </trkpt>
      <trkpt lat="47.69532" lon="-2.25105">
        <ele>60.9</ele>
        <time>2021-05-27T10:56:07Z</time>
      </trkpt>
      <trkpt lat="47.69534" lon="-2.2511">
        <ele>60.9</ele>
        <time>2021-05-27T10:56:08Z</time>
      </trkpt>
      <trkpt lat="47.69537" lon="-2.25114">
        <ele>61.1</ele>
        <time>2021-05-27T10:56:09Z</time>
      </trkpt>
      <trkpt lat="47.6954" lon="-2.25117">
        <ele>61.3</ele>
        <time>2021-05-27T10:56:10Z</time>
      </trkpt>
      <trkpt lat="47.69543" lon="-2.2512">
        <ele>61.5</ele>
        <time>2021-05-27T10:56:11Z</time>
      </trkpt>
      <trkpt lat="47.69546" lon="-2.25123">
        <ele>61.8</ele>
        <time>2021-05-27T10:56:12Z</time>
      </trkpt>
      <trkpt lat="47.6955" lon="-2.25127">
        <ele>62</ele>
        <time>2021-05-27T10:56:13Z</time>
      </trkpt>
      <trkpt lat="47.69552" lon="-2.2513">
        <ele>62.2</ele>
        <time>2021-05-27T10:56:14Z</time>
      </trkpt>
      <trkpt lat="47.69555" lon="-2.25133">
        <ele>62.3</ele>
        <time>2021-05-27T10:56:15Z</time>
      </trkpt>
      <trkpt lat="47.69558" lon="-2.25136">
        <ele>62.6</ele>
        <time>2021-05-27T10:56:16Z</time>
      </trkpt>
      <trkpt lat="47.69561" lon="-2.25138">
        <ele>62.8</ele>
        <time>2021-05-27T10:56:17Z</time>
      </trkpt>
      <trkpt lat="47.69565" lon="-2.25139">
        <ele>63.2</ele>
        <time>2021-05-27T10:56:18Z</time>
      </trkpt>
      <trkpt lat="47.69569" lon="-2.25138">
        <ele>63.6</ele>
        <time>2021-05-27T10:56:19Z</time>
      </trkpt>
      <trkpt lat="47.69573" lon="-2.2514">
        <ele>63.9</ele>
        <time>2021-05-27T10:56:20Z</time>
      </trkpt>
      <trkpt lat="47.69576" lon="-2.25142">
        <ele>64.2</ele>
        <time>2021-05-27T10:56:21Z</time>
      </trkpt>
      <trkpt lat="47.6958" lon="-2.25144">
        <ele>64.4</ele>
        <time>2021-05-27T10:56:22Z</time>
      </trkpt>
      <trkpt lat="47.69582" lon="-2.25147">
        <ele>64.6</ele>
        <time>2021-05-27T10:56:23Z</time>
      </trkpt>
      <trkpt lat="47.69585" lon="-2.2515">
        <ele>64.7</ele>
        <time>2021-05-27T10:56:24Z</time>
      </trkpt>
      <trkpt lat="47.69588" lon="-2.25152">
        <ele>64.7</ele>
        <time>2021-05-27T10:56:25Z</time>
      </trkpt>
      <trkpt lat="47.69592" lon="-2.25153">
        <ele>64.8</ele>
        <time>2021-05-27T10:56:26Z</time>
      </trkpt>
      <trkpt lat="47.69594" lon="-2.25154">
        <ele>64.8</ele>
        <time>2021-05-27T10:56:27Z</time>
      </trkpt>
      <trkpt lat="47.69596" lon="-2.25158">
        <ele>64.8</ele>
        <time>2021-05-27T10:56:28Z</time>
      </trkpt>
      <trkpt lat="47.69599" lon="-2.25163">
        <ele>64.7</ele>
        <time>2021-05-27T10:56:29Z</time>
      </trkpt>
      <trkpt lat="47.69599" lon="-2.25167">
        <ele>64.6</ele>
        <time>2021-05-27T10:56:30Z</time>
      </trkpt>
      <trkpt lat="47.696" lon="-2.25172">
        <ele>64.3</ele>
        <time>2021-05-27T10:56:31Z</time>
      </trkpt>
      <trkpt lat="47.69601" lon="-2.25177">
        <ele>64.2</ele>
        <time>2021-05-27T10:56:32Z</time>
      </trkpt>
      <trkpt lat="47.69603" lon="-2.2518">
        <ele>64.1</ele>
        <time>2021-05-27T10:56:33Z</time>
      </trkpt>
      <trkpt lat="47.69605" lon="-2.25184">
        <ele>64.1</ele>
        <time>2021-05-27T10:56:34Z</time>
      </trkpt>
      <trkpt lat="47.69606" lon="-2.25188">
        <ele>64</ele>
        <time>2021-05-27T10:56:35Z</time>
      </trkpt>
      <trkpt lat="47.69608" lon="-2.25192">
        <ele>63.8</ele>
        <time>2021-05-27T10:56:36Z</time>
      </trkpt>
      <trkpt lat="47.69609" lon="-2.25197">
        <ele>63.7</ele>
        <time>2021-05-27T10:56:37Z</time>
      </trkpt>
      <trkpt lat="47.69611" lon="-2.25201">
        <ele>63.6</ele>
        <time>2021-05-27T10:56:38Z</time>
      </trkpt>
      <trkpt lat="47.69611" lon="-2.25206">
        <ele>63.4</ele>
        <time>2021-05-27T10:56:39Z</time>
      </trkpt>
      <trkpt lat="47.6961" lon="-2.2521">
        <ele>63.2</ele>
        <time>2021-05-27T10:56:40Z</time>
      </trkpt>
      <trkpt lat="47.69608" lon="-2.25215">
        <ele>62.9</ele>
        <time>2021-05-27T10:56:41Z</time>
      </trkpt>
      <trkpt lat="47.69606" lon="-2.2522">
        <ele>62.6</ele>
        <time>2021-05-27T10:56:42Z</time>
      </trkpt>
      <trkpt lat="47.69605" lon="-2.25225">
        <ele>62.4</ele>
        <time>2021-05-27T10:56:43Z</time>
      </trkpt>
      <trkpt lat="47.69604" lon="-2.2523">
        <ele>62.1</ele>
        <time>2021-05-27T10:56:44Z</time>
      </trkpt>
      <trkpt lat="47.69604" lon="-2.25235">
        <ele>61.9</ele>
        <time>2021-05-27T10:56:45Z</time>
      </trkpt>
      <trkpt lat="47.69603" lon="-2.25239">
        <ele>61.7</ele>
        <time>2021-05-27T10:56:46Z</time>
      </trkpt>
      <trkpt lat="47.69603" lon="-2.25243">
        <ele>61.4</ele>
        <time>2021-05-27T10:56:47Z</time>
      </trkpt>
      <trkpt lat="47.69602" lon="-2.25247">
        <ele>61.2</ele>
        <time>2021-05-27T10:56:48Z</time>
      </trkpt>
      <trkpt lat="47.696" lon="-2.25251">
        <ele>61</ele>
        <time>2021-05-27T10:56:49Z</time>
      </trkpt>
      <trkpt lat="47.69598" lon="-2.25254">
        <ele>60.8</ele>
        <time>2021-05-27T10:56:50Z</time>
      </trkpt>
      <trkpt lat="47.69597" lon="-2.25258">
        <ele>60.7</ele>
        <time>2021-05-27T10:56:51Z</time>
      </trkpt>
      <trkpt lat="47.69596" lon="-2.25262">
        <ele>60.6</ele>
        <time>2021-05-27T10:56:52Z</time>
      </trkpt>
      <trkpt lat="47.69595" lon="-2.25265">
        <ele>60.6</ele>
        <time>2021-05-27T10:56:53Z</time>
      </trkpt>
      <trkpt lat="47.69594" lon="-2.25269">
        <ele>60.5</ele>
        <time>2021-05-27T10:56:54Z</time>
      </trkpt>
      <trkpt lat="47.69594" lon="-2.25273">
        <ele>60.4</ele>
        <time>2021-05-27T10:56:55Z</time>
      </trkpt>
      <trkpt lat="47.69594" lon="-2.25278">
        <ele>60.4</ele>
        <time>2021-05-27T10:56:56Z</time>
      </trkpt>
      <trkpt lat="47.69595" lon="-2.25283">
        <ele>60.4</ele>
        <time>2021-05-27T10:56:57Z</time>
      </trkpt>
      <trkpt lat="47.69596" lon="-2.25289">
        <ele>60.3</ele>
        <time>2021-05-27T10:56:58Z</time>
      </trkpt>
      <trkpt lat="47.69596" lon="-2.25294">
        <ele>60.3</ele>
        <time>2021-05-27T10:56:59Z</time>
      </trkpt>
      <trkpt lat="47.69596" lon="-2.253">
        <ele>60.2</ele>
        <time>2021-05-27T10:57:00Z</time>
      </trkpt>
      <trkpt lat="47.69596" lon="-2.25305">
        <ele>60.2</ele>
        <time>2021-05-27T10:57:01Z</time>
      </trkpt>
      <trkpt lat="47.69596" lon="-2.2531">
        <ele>60.2</ele>
        <time>2021-05-27T10:57:02Z</time>
      </trkpt>
      <trkpt lat="47.69596" lon="-2.25315">
        <ele>60.1</ele>
        <time>2021-05-27T10:57:03Z</time>
      </trkpt>
      <trkpt lat="47.69595" lon="-2.2532">
        <ele>60</ele>
        <time>2021-05-27T10:57:04Z</time>
      </trkpt>
      <trkpt lat="47.69594" lon="-2.25324">
        <ele>59.9</ele>
        <time>2021-05-27T10:57:05Z</time>
      </trkpt>
      <trkpt lat="47.69594" lon="-2.25329">
        <ele>59.8</ele>
        <time>2021-05-27T10:57:06Z</time>
      </trkpt>
      <trkpt lat="47.69595" lon="-2.25334">
        <ele>59.8</ele>
        <time>2021-05-27T10:57:07Z</time>
      </trkpt>
      <trkpt lat="47.69597" lon="-2.25339">
        <ele>59.8</ele>
        <time>2021-05-27T10:57:08Z</time>
      </trkpt>
      <trkpt lat="47.69599" lon="-2.25344">
        <ele>59.9</ele>
        <time>2021-05-27T10:57:09Z</time>
      </trkpt>
      <trkpt lat="47.69601" lon="-2.25347">
        <ele>60</ele>
        <time>2021-05-27T10:57:10Z</time>
      </trkpt>
      <trkpt lat="47.69603" lon="-2.25351">
        <ele>60.1</ele>
        <time>2021-05-27T10:57:11Z</time>
      </trkpt>
      <trkpt lat="47.69604" lon="-2.25356">
        <ele>60.1</ele>
        <time>2021-05-27T10:57:12Z</time>
      </trkpt>
      <trkpt lat="47.69605" lon="-2.25361">
        <ele>60.1</ele>
        <time>2021-05-27T10:57:13Z</time>
      </trkpt>
      <trkpt lat="47.69606" lon="-2.25367">
        <ele>60</ele>
        <time>2021-05-27T10:57:14Z</time>
      </trkpt>
      <trkpt lat="47.69606" lon="-2.25373">
        <ele>60</ele>
        <time>2021-05-27T10:57:15Z</time>
      </trkpt>
      <trkpt lat="47.69606" lon="-2.25378">
        <ele>59.9</ele>
        <time>2021-05-27T10:57:16Z</time>
      </trkpt>
      <trkpt lat="47.69606" lon="-2.25384">
        <ele>59.8</ele>
        <time>2021-05-27T10:57:17Z</time>
      </trkpt>
      <trkpt lat="47.69607" lon="-2.2539">
        <ele>59.8</ele>
        <time>2021-05-27T10:57:18Z</time>
      </trkpt>
      <trkpt lat="47.69609" lon="-2.25395">
        <ele>59.8</ele>
        <time>2021-05-27T10:57:19Z</time>
      </trkpt>
      <trkpt lat="47.69611" lon="-2.254">
        <ele>59.9</ele>
        <time>2021-05-27T10:57:20Z</time>
      </trkpt>
      <trkpt lat="47.69614" lon="-2.25406">
        <ele>60.1</ele>
        <time>2021-05-27T10:57:21Z</time>
      </trkpt>
      <trkpt lat="47.69617" lon="-2.2541">
        <ele>60.3</ele>
        <time>2021-05-27T10:57:22Z</time>
      </trkpt>
      <trkpt lat="47.69619" lon="-2.25415">
        <ele>60.5</ele>
        <time>2021-05-27T10:57:23Z</time>
      </trkpt>
      <trkpt lat="47.6962" lon="-2.25419">
        <ele>60.5</ele>
        <time>2021-05-27T10:57:24Z</time>
      </trkpt>
      <trkpt lat="47.69621" lon="-2.25424">
        <ele>60.5</ele>
        <time>2021-05-27T10:57:25Z</time>
      </trkpt>
      <trkpt lat="47.69621" lon="-2.25429">
        <ele>60.5</ele>
        <time>2021-05-27T10:57:26Z</time>
      </trkpt>
      <trkpt lat="47.69621" lon="-2.25434">
        <ele>60.5</ele>
        <time>2021-05-27T10:57:27Z</time>
      </trkpt>
      <trkpt lat="47.69623" lon="-2.2544">
        <ele>60.7</ele>
        <time>2021-05-27T10:57:28Z</time>
      </trkpt>
      <trkpt lat="47.69625" lon="-2.25446">
        <ele>60.8</ele>
        <time>2021-05-27T10:57:29Z</time>
      </trkpt>
      <trkpt lat="47.69628" lon="-2.2545">
        <ele>61</ele>
        <time>2021-05-27T10:57:30Z</time>
      </trkpt>
      <trkpt lat="47.69629" lon="-2.25455">
        <ele>61.2</ele>
        <time>2021-05-27T10:57:31Z</time>
      </trkpt>
      <trkpt lat="47.6963" lon="-2.25458">
        <ele>61.3</ele>
        <time>2021-05-27T10:57:32Z</time>
      </trkpt>
      <trkpt lat="47.6963" lon="-2.25462">
        <ele>61.2</ele>
        <time>2021-05-27T10:57:33Z</time>
      </trkpt>
      <trkpt lat="47.69629" lon="-2.25466">
        <ele>61.1</ele>
        <time>2021-05-27T10:57:34Z</time>
      </trkpt>
      <trkpt lat="47.69629" lon="-2.25472">
        <ele>61.1</ele>
        <time>2021-05-27T10:57:35Z</time>
      </trkpt>
      <trkpt lat="47.69629" lon="-2.25476">
        <ele>61.1</ele>
        <time>2021-05-27T10:57:36Z</time>
      </trkpt>
      <trkpt lat="47.69631" lon="-2.2548">
        <ele>61.2</ele>
        <time>2021-05-27T10:57:37Z</time>
      </trkpt>
      <trkpt lat="47.69632" lon="-2.25483">
        <ele>61.3</ele>
        <time>2021-05-27T10:57:38Z</time>
      </trkpt>
      <trkpt lat="47.69633" lon="-2.25486">
        <ele>61.4</ele>
        <time>2021-05-27T10:57:39Z</time>
      </trkpt>
      <trkpt lat="47.69633" lon="-2.2549">
        <ele>61.4</ele>
        <time>2021-05-27T10:57:40Z</time>
      </trkpt>
      <trkpt lat="47.69633" lon="-2.25494">
        <ele>61.4</ele>
        <time>2021-05-27T10:57:41Z</time>
      </trkpt>
      <trkpt lat="47.69634" lon="-2.25498">
        <ele>61.4</ele>
        <time>2021-05-27T10:57:42Z</time>
      </trkpt>
      <trkpt lat="47.69634" lon="-2.25502">
        <ele>61.4</ele>
        <time>2021-05-27T10:57:43Z</time>
      </trkpt>
      <trkpt lat="47.69635" lon="-2.25506">
        <ele>61.3</ele>
        <time>2021-05-27T10:57:44Z</time>
      </trkpt>
      <trkpt lat="47.69636" lon="-2.25511">
        <ele>61.2</ele>
        <time>2021-05-27T10:57:45Z</time>
      </trkpt>
      <trkpt lat="47.69636" lon="-2.25516">
        <ele>61.2</ele>
        <time>2021-05-27T10:57:46Z</time>
      </trkpt>
      <trkpt lat="47.69637" lon="-2.2552">
        <ele>61.1</ele>
        <time>2021-05-27T10:57:47Z</time>
      </trkpt>
      <trkpt lat="47.69638" lon="-2.25525">
        <ele>61</ele>
        <time>2021-05-27T10:57:48Z</time>
      </trkpt>
      <trkpt lat="47.69639" lon="-2.2553">
        <ele>61</ele>
        <time>2021-05-27T10:57:49Z</time>
      </trkpt>
      <trkpt lat="47.69642" lon="-2.25535">
        <ele>61.1</ele>
        <time>2021-05-27T10:57:50Z</time>
      </trkpt>
      <trkpt lat="47.69644" lon="-2.25539">
        <ele>61.2</ele>
        <time>2021-05-27T10:57:51Z</time>
      </trkpt>
      <trkpt lat="47.69646" lon="-2.25543">
        <ele>61.3</ele>
        <time>2021-05-27T10:57:52Z</time>
      </trkpt>
      <trkpt lat="47.69648" lon="-2.25547">
        <ele>61.4</ele>
        <time>2021-05-27T10:57:53Z</time>
      </trkpt>
      <trkpt lat="47.6965" lon="-2.25551">
        <ele>61.6</ele>
        <time>2021-05-27T10:57:54Z</time>
      </trkpt>
      <trkpt lat="47.69652" lon="-2.25554">
        <ele>61.8</ele>
        <time>2021-05-27T10:57:55Z</time>
      </trkpt>
      <trkpt lat="47.69654" lon="-2.25558">
        <ele>61.9</ele>
        <time>2021-05-27T10:57:56Z</time>
      </trkpt>
      <trkpt lat="47.69655" lon="-2.25561">
        <ele>61.9</ele>
        <time>2021-05-27T10:57:57Z</time>
      </trkpt>
      <trkpt lat="47.69656" lon="-2.25565">
        <ele>61.9</ele>
        <time>2021-05-27T10:57:58Z</time>
      </trkpt>
      <trkpt lat="47.69655" lon="-2.2557">
        <ele>61.8</ele>
        <time>2021-05-27T10:57:59Z</time>
      </trkpt>
      <trkpt lat="47.69655" lon="-2.25573">
        <ele>61.6</ele>
        <time>2021-05-27T10:58:00Z</time>
      </trkpt>
      <trkpt lat="47.69653" lon="-2.25577">
        <ele>61.3</ele>
        <time>2021-05-27T10:58:01Z</time>
      </trkpt>
      <trkpt lat="47.69652" lon="-2.2558">
        <ele>61</ele>
        <time>2021-05-27T10:58:02Z</time>
      </trkpt>
      <trkpt lat="47.69651" lon="-2.25584">
        <ele>60.7</ele>
        <time>2021-05-27T10:58:03Z</time>
      </trkpt>
      <trkpt lat="47.69651" lon="-2.25587">
        <ele>60.6</ele>
        <time>2021-05-27T10:58:04Z</time>
      </trkpt>
      <trkpt lat="47.69651" lon="-2.25592">
        <ele>60.4</ele>
        <time>2021-05-27T10:58:05Z</time>
      </trkpt>
      <trkpt lat="47.69651" lon="-2.25597">
        <ele>60.3</ele>
        <time>2021-05-27T10:58:06Z</time>
      </trkpt>
      <trkpt lat="47.69653" lon="-2.25602">
        <ele>60.3</ele>
        <time>2021-05-27T10:58:07Z</time>
      </trkpt>
      <trkpt lat="47.69655" lon="-2.25607">
        <ele>60.4</ele>
        <time>2021-05-27T10:58:08Z</time>
      </trkpt>
      <trkpt lat="47.69658" lon="-2.25611">
        <ele>60.6</ele>
        <time>2021-05-27T10:58:09Z</time>
      </trkpt>
      <trkpt lat="47.6966" lon="-2.25614">
        <ele>60.8</ele>
        <time>2021-05-27T10:58:10Z</time>
      </trkpt>
      <trkpt lat="47.69661" lon="-2.25617">
        <ele>60.9</ele>
        <time>2021-05-27T10:58:11Z</time>
      </trkpt>
      <trkpt lat="47.69662" lon="-2.2562">
        <ele>61.1</ele>
        <time>2021-05-27T10:58:12Z</time>
      </trkpt>
      <trkpt lat="47.69664" lon="-2.25623">
        <ele>61.2</ele>
        <time>2021-05-27T10:58:13Z</time>
      </trkpt>
      <trkpt lat="47.69666" lon="-2.25625">
        <ele>61.4</ele>
        <time>2021-05-27T10:58:14Z</time>
      </trkpt>
      <trkpt lat="47.69666" lon="-2.25628">
        <ele>61.3</ele>
        <time>2021-05-27T10:58:15Z</time>
      </trkpt>
      <trkpt lat="47.69666" lon="-2.25631">
        <ele>61.2</ele>
        <time>2021-05-27T10:58:16Z</time>
      </trkpt>
      <trkpt lat="47.69666" lon="-2.25636">
        <ele>61</ele>
        <time>2021-05-27T10:58:17Z</time>
      </trkpt>
      <trkpt lat="47.69665" lon="-2.25641">
        <ele>60.7</ele>
        <time>2021-05-27T10:58:18Z</time>
      </trkpt>
      <trkpt lat="47.69664" lon="-2.25646">
        <ele>60.4</ele>
        <time>2021-05-27T10:58:19Z</time>
      </trkpt>
      <trkpt lat="47.69664" lon="-2.2565">
        <ele>60.3</ele>
        <time>2021-05-27T10:58:20Z</time>
      </trkpt>
      <trkpt lat="47.69665" lon="-2.25655">
        <ele>60.1</ele>
        <time>2021-05-27T10:58:21Z</time>
      </trkpt>
      <trkpt lat="47.69666" lon="-2.25659">
        <ele>60.1</ele>
        <time>2021-05-27T10:58:22Z</time>
      </trkpt>
      <trkpt lat="47.69666" lon="-2.25664">
        <ele>60</ele>
        <time>2021-05-27T10:58:23Z</time>
      </trkpt>
      <trkpt lat="47.69667" lon="-2.25668">
        <ele>60</ele>
        <time>2021-05-27T10:58:24Z</time>
      </trkpt>
      <trkpt lat="47.69667" lon="-2.25673">
        <ele>59.9</ele>
        <time>2021-05-27T10:58:25Z</time>
      </trkpt>
      <trkpt lat="47.69668" lon="-2.25677">
        <ele>60</ele>
        <time>2021-05-27T10:58:26Z</time>
      </trkpt>
      <trkpt lat="47.69671" lon="-2.25682">
        <ele>60.1</ele>
        <time>2021-05-27T10:58:27Z</time>
      </trkpt>
      <trkpt lat="47.69672" lon="-2.25687">
        <ele>60.3</ele>
        <time>2021-05-27T10:58:28Z</time>
      </trkpt>
      <trkpt lat="47.69674" lon="-2.25692">
        <ele>60.4</ele>
        <time>2021-05-27T10:58:29Z</time>
      </trkpt>
      <trkpt lat="47.69675" lon="-2.25696">
        <ele>60.4</ele>
        <time>2021-05-27T10:58:30Z</time>
      </trkpt>
      <trkpt lat="47.69677" lon="-2.25699">
        <ele>60.6</ele>
        <time>2021-05-27T10:58:31Z</time>
      </trkpt>
      <trkpt lat="47.6968" lon="-2.25701">
        <ele>60.9</ele>
        <time>2021-05-27T10:58:32Z</time>
      </trkpt>
      <trkpt lat="47.69682" lon="-2.25702">
        <ele>61.1</ele>
        <time>2021-05-27T10:58:33Z</time>
      </trkpt>
      <trkpt lat="47.69683" lon="-2.25704">
        <ele>61.2</ele>
        <time>2021-05-27T10:58:34Z</time>
      </trkpt>
      <trkpt lat="47.69683" lon="-2.25707">
        <ele>61.2</ele>
        <time>2021-05-27T10:58:35Z</time>
      </trkpt>
      <trkpt lat="47.69683" lon="-2.25711">
        <ele>61</ele>
        <time>2021-05-27T10:58:36Z</time>
      </trkpt>
      <trkpt lat="47.69683" lon="-2.25715">
        <ele>61</ele>
        <time>2021-05-27T10:58:37Z</time>
      </trkpt>
      <trkpt lat="47.69684" lon="-2.25719">
        <ele>61</ele>
        <time>2021-05-27T10:58:38Z</time>
      </trkpt>
      <trkpt lat="47.69685" lon="-2.25724">
        <ele>61</ele>
        <time>2021-05-27T10:58:39Z</time>
      </trkpt>
      <trkpt lat="47.69685" lon="-2.25728">
        <ele>60.9</ele>
        <time>2021-05-27T10:58:40Z</time>
      </trkpt>
      <trkpt lat="47.69686" lon="-2.25732">
        <ele>60.9</ele>
        <time>2021-05-27T10:58:41Z</time>
      </trkpt>
      <trkpt lat="47.69687" lon="-2.25735">
        <ele>61</ele>
        <time>2021-05-27T10:58:42Z</time>
      </trkpt>
      <trkpt lat="47.69687" lon="-2.25738">
        <ele>61</ele>
        <time>2021-05-27T10:58:43Z</time>
      </trkpt>
      <trkpt lat="47.69689" lon="-2.25741">
        <ele>61.2</ele>
        <time>2021-05-27T10:58:44Z</time>
      </trkpt>
      <trkpt lat="47.69691" lon="-2.25744">
        <ele>61.4</ele>
        <time>2021-05-27T10:58:45Z</time>
      </trkpt>
      <trkpt lat="47.69693" lon="-2.25747">
        <ele>61.6</ele>
        <time>2021-05-27T10:58:46Z</time>
      </trkpt>
      <trkpt lat="47.69694" lon="-2.25751">
        <ele>61.6</ele>
        <time>2021-05-27T10:58:47Z</time>
      </trkpt>
      <trkpt lat="47.69696" lon="-2.25756">
        <ele>61.6</ele>
        <time>2021-05-27T10:58:48Z</time>
      </trkpt>
      <trkpt lat="47.69697" lon="-2.2576">
        <ele>61.6</ele>
        <time>2021-05-27T10:58:49Z</time>
      </trkpt>
      <trkpt lat="47.69698" lon="-2.25764">
        <ele>61.6</ele>
        <time>2021-05-27T10:58:50Z</time>
      </trkpt>
      <trkpt lat="47.69699" lon="-2.25767">
        <ele>61.6</ele>
        <time>2021-05-27T10:58:51Z</time>
      </trkpt>
      <trkpt lat="47.69699" lon="-2.2577">
        <ele>61.6</ele>
        <time>2021-05-27T10:58:52Z</time>
      </trkpt>
      <trkpt lat="47.69698" lon="-2.25773">
        <ele>61.4</ele>
        <time>2021-05-27T10:58:53Z</time>
      </trkpt>
      <trkpt lat="47.69697" lon="-2.25775">
        <ele>61</ele>
        <time>2021-05-27T10:58:54Z</time>
      </trkpt>
      <trkpt lat="47.69695" lon="-2.25777">
        <ele>60.7</ele>
        <time>2021-05-27T10:58:55Z</time>
      </trkpt>
      <trkpt lat="47.69694" lon="-2.2578">
        <ele>60.5</ele>
        <time>2021-05-27T10:58:56Z</time>
      </trkpt>
      <trkpt lat="47.69693" lon="-2.25783">
        <ele>60.3</ele>
        <time>2021-05-27T10:58:57Z</time>
      </trkpt>
      <trkpt lat="47.69693" lon="-2.25787">
        <ele>60.2</ele>
        <time>2021-05-27T10:58:58Z</time>
      </trkpt>
      <trkpt lat="47.69694" lon="-2.25791">
        <ele>60.1</ele>
        <time>2021-05-27T10:58:59Z</time>
      </trkpt>
      <trkpt lat="47.69695" lon="-2.25796">
        <ele>60.1</ele>
        <time>2021-05-27T10:59:00Z</time>
      </trkpt>
      <trkpt lat="47.69696" lon="-2.25801">
        <ele>60</ele>
        <time>2021-05-27T10:59:01Z</time>
      </trkpt>
      <trkpt lat="47.69696" lon="-2.25807">
        <ele>59.8</ele>
        <time>2021-05-27T10:59:02Z</time>
      </trkpt>
      <trkpt lat="47.69696" lon="-2.25812">
        <ele>59.7</ele>
        <time>2021-05-27T10:59:03Z</time>
      </trkpt>
      <trkpt lat="47.69696" lon="-2.25818">
        <ele>59.4</ele>
        <time>2021-05-27T10:59:04Z</time>
      </trkpt>
      <trkpt lat="47.69695" lon="-2.25822">
        <ele>59.1</ele>
        <time>2021-05-27T10:59:05Z</time>
      </trkpt>
      <trkpt lat="47.69694" lon="-2.25827">
        <ele>58.8</ele>
        <time>2021-05-27T10:59:06Z</time>
      </trkpt>
      <trkpt lat="47.69692" lon="-2.25832">
        <ele>58.4</ele>
        <time>2021-05-27T10:59:07Z</time>
      </trkpt>
      <trkpt lat="47.69691" lon="-2.25838">
        <ele>58</ele>
        <time>2021-05-27T10:59:08Z</time>
      </trkpt>
      <trkpt lat="47.69692" lon="-2.25844">
        <ele>57.8</ele>
        <time>2021-05-27T10:59:09Z</time>
      </trkpt>
      <trkpt lat="47.69694" lon="-2.25848">
        <ele>57.9</ele>
        <time>2021-05-27T10:59:10Z</time>
      </trkpt>
      <trkpt lat="47.69695" lon="-2.25852">
        <ele>58</ele>
        <time>2021-05-27T10:59:11Z</time>
      </trkpt>
      <trkpt lat="47.69697" lon="-2.25855">
        <ele>58.1</ele>
        <time>2021-05-27T10:59:12Z</time>
      </trkpt>
      <trkpt lat="47.69698" lon="-2.25858">
        <ele>58.2</ele>
        <time>2021-05-27T10:59:13Z</time>
      </trkpt>
      <trkpt lat="47.697" lon="-2.25862">
        <ele>58.2</ele>
        <time>2021-05-27T10:59:14Z</time>
      </trkpt>
      <trkpt lat="47.69702" lon="-2.25865">
        <ele>58.3</ele>
        <time>2021-05-27T10:59:15Z</time>
      </trkpt>
      <trkpt lat="47.69703" lon="-2.2587">
        <ele>58.4</ele>
        <time>2021-05-27T10:59:16Z</time>
      </trkpt>
      <trkpt lat="47.69704" lon="-2.25874">
        <ele>58.4</ele>
        <time>2021-05-27T10:59:17Z</time>
      </trkpt>
      <trkpt lat="47.69705" lon="-2.25879">
        <ele>58.4</ele>
        <time>2021-05-27T10:59:18Z</time>
      </trkpt>
      <trkpt lat="47.69707" lon="-2.25883">
        <ele>58.5</ele>
        <time>2021-05-27T10:59:19Z</time>
      </trkpt>
      <trkpt lat="47.69709" lon="-2.25886">
        <ele>58.7</ele>
        <time>2021-05-27T10:59:20Z</time>
      </trkpt>
      <trkpt lat="47.69712" lon="-2.25889">
        <ele>59.1</ele>
        <time>2021-05-27T10:59:21Z</time>
      </trkpt>
      <trkpt lat="47.69714" lon="-2.25892">
        <ele>59.3</ele>
        <time>2021-05-27T10:59:22Z</time>
      </trkpt>
      <trkpt lat="47.69714" lon="-2.25896">
        <ele>59.3</ele>
        <time>2021-05-27T10:59:23Z</time>
      </trkpt>
      <trkpt lat="47.69715" lon="-2.25901">
        <ele>59.2</ele>
        <time>2021-05-27T10:59:24Z</time>
      </trkpt>
      <trkpt lat="47.69714" lon="-2.25906">
        <ele>58.9</ele>
        <time>2021-05-27T10:59:25Z</time>
      </trkpt>
      <trkpt lat="47.69714" lon="-2.25911">
        <ele>58.6</ele>
        <time>2021-05-27T10:59:26Z</time>
      </trkpt>
      <trkpt lat="47.69713" lon="-2.25916">
        <ele>58.4</ele>
        <time>2021-05-27T10:59:27Z</time>
      </trkpt>
      <trkpt lat="47.69714" lon="-2.25921">
        <ele>58.5</ele>
        <time>2021-05-27T10:59:28Z</time>
      </trkpt>
      <trkpt lat="47.69717" lon="-2.25925">
        <ele>58.6</ele>
        <time>2021-05-27T10:59:29Z</time>
      </trkpt>
      <trkpt lat="47.69719" lon="-2.25928">
        <ele>58.9</ele>
        <time>2021-05-27T10:59:30Z</time>
      </trkpt>
      <trkpt lat="47.69721" lon="-2.25932">
        <ele>59.1</ele>
        <time>2021-05-27T10:59:31Z</time>
      </trkpt>
      <trkpt lat="47.69722" lon="-2.25936">
        <ele>59.2</ele>
        <time>2021-05-27T10:59:32Z</time>
      </trkpt>
      <trkpt lat="47.69723" lon="-2.2594">
        <ele>59.2</ele>
        <time>2021-05-27T10:59:33Z</time>
      </trkpt>
      <trkpt lat="47.69724" lon="-2.25944">
        <ele>59.2</ele>
        <time>2021-05-27T10:59:34Z</time>
      </trkpt>
      <trkpt lat="47.69726" lon="-2.25946">
        <ele>59.4</ele>
        <time>2021-05-27T10:59:35Z</time>
      </trkpt>
      <trkpt lat="47.69727" lon="-2.25948">
        <ele>59.6</ele>
        <time>2021-05-27T10:59:36Z</time>
      </trkpt>
      <trkpt lat="47.69729" lon="-2.25951">
        <ele>59.8</ele>
        <time>2021-05-27T10:59:37Z</time>
      </trkpt>
      <trkpt lat="47.6973" lon="-2.25954">
        <ele>59.9</ele>
        <time>2021-05-27T10:59:38Z</time>
      </trkpt>
      <trkpt lat="47.69731" lon="-2.25956">
        <ele>60</ele>
        <time>2021-05-27T10:59:39Z</time>
      </trkpt>
      <trkpt lat="47.69731" lon="-2.25959">
        <ele>59.9</ele>
        <time>2021-05-27T10:59:40Z</time>
      </trkpt>
      <trkpt lat="47.69731" lon="-2.25961">
        <ele>59.8</ele>
        <time>2021-05-27T10:59:41Z</time>
      </trkpt>
      <trkpt lat="47.69731" lon="-2.25961">
        <ele>59.8</ele>
        <time>2021-05-27T10:59:42Z</time>
      </trkpt>
      <trkpt lat="47.69731" lon="-2.25961">
        <ele>59.8</ele>
        <time>2021-05-27T10:59:43Z</time>
      </trkpt>
      <trkpt lat="47.69731" lon="-2.25961">
        <ele>59.8</ele>
        <time>2021-05-27T10:59:44Z</time>
      </trkpt>
      <trkpt lat="47.69731" lon="-2.25961">
        <ele>59.8</ele>
        <time>2021-05-27T10:59:45Z</time>
      </trkpt>
      <trkpt lat="47.69731" lon="-2.25961">
        <ele>59.8</ele>
        <time>2021-05-27T10:59:46Z</time>
      </trkpt>
      <trkpt lat="47.69731" lon="-2.25961">
        <ele>59.8</ele>
        <time>2021-05-27T10:59:47Z</time>
      </trkpt>
      <trkpt lat="47.69731" lon="-2.25961">
        <ele>59.8</ele>
        <time>2021-05-27T10:59:48Z</time>
      </trkpt>
      <trkpt lat="47.69731" lon="-2.25961">
        <ele>59.8</ele>
        <time>2021-05-27T10:59:49Z</time>
      </trkpt>
      <trkpt lat="47.69731" lon="-2.25961">
        <ele>59.8</ele>
        <time>2021-05-27T10:59:50Z</time>
      </trkpt>
      <trkpt lat="47.69731" lon="-2.25961">
        <ele>59.8</ele>
        <time>2021-05-27T10:59:51Z</time>
      </trkpt>
      <trkpt lat="47.69731" lon="-2.25961">
        <ele>59.8</ele>
        <time>2021-05-27T10:59:52Z</time>
      </trkpt>
      <trkpt lat="47.69731" lon="-2.25961">
        <ele>59.8</ele>
        <time>2021-05-27T10:59:53Z</time>
      </trkpt>
      <trkpt lat="47.69731" lon="-2.25961">
        <ele>59.8</ele>
        <time>2021-05-27T10:59:54Z</time>
      </trkpt>
      <trkpt lat="47.69731" lon="-2.25961">
        <ele>59.8</ele>
        <time>2021-05-27T10:59:55Z</time>
      </trkpt>
      <trkpt lat="47.69731" lon="-2.25961">
        <ele>59.8</ele>
        <time>2021-05-27T10:59:56Z</time>
      </trkpt>
      <trkpt lat="47.69731" lon="-2.25961">
        <ele>59.8</ele>
        <time>2021-05-27T10:59:57Z</time>
      </trkpt>
      <trkpt lat="47.69731" lon="-2.25961">
        <ele>59.8</ele>
        <time>2021-05-27T10:59:58Z</time>
      </trkpt>
      <trkpt lat="47.69731" lon="-2.25961">
        <ele>59.8</ele>
        <time>2021-05-27T10:59:59Z</time>
      </trkpt>
      <trkpt lat="47.69731" lon="-2.25961">
        <ele>59.8</ele>
        <time>2021-05-27T11:00:00Z</time>
      </trkpt>
      <trkpt lat="47.69731" lon="-2.25961">
        <ele>59.8</ele>
        <time>2021-05-27T11:00:01Z</time>
      </trkpt>
      <trkpt lat="47.69731" lon="-2.25961">
        <ele>59.8</ele>
        <time>2021-05-27T11:00:02Z</time>
      </trkpt>
      <trkpt lat="47.69731" lon="-2.25961">
        <ele>59.8</ele>
        <time>2021-05-27T11:00:03Z</time>
      </trkpt>
      <trkpt lat="47.69731" lon="-2.25961">
        <ele>59.8</ele>
        <time>2021-05-27T11:00:04Z</time>
      </trkpt>
      <trkpt lat="47.69731" lon="-2.25961">
        <ele>59.8</ele>
        <time>2021-05-27T11:00:05Z</time>
      </trkpt>
      <trkpt lat="47.69731" lon="-2.25961">
        <ele>59.8</ele>
        <time>2021-05-27T11:00:06Z</time>
      </trkpt>
      <trkpt lat="47.69731" lon="-2.25961">
        <ele>59.8</ele>
        <time>2021-05-27T11:00:07Z</time>
      </trkpt>
      <trkpt lat="47.69731" lon="-2.25961">
        <ele>59.8</ele>
        <time>2021-05-27T11:00:08Z</time>
      </trkpt>
      <trkpt lat="47.69731" lon="-2.25961">
        <ele>59.8</ele>
        <time>2021-05-27T11:00:09Z</time>
      </trkpt>
      <trkpt lat="47.69731" lon="-2.25961">
        <ele>59.8</ele>
        <time>2021-05-27T11:00:10Z</time>
      </trkpt>
      <trkpt lat="47.69731" lon="-2.25961">
        <ele>59.8</ele>
        <time>2021-05-27T11:00:11Z</time>
      </trkpt>
      <trkpt lat="47.69731" lon="-2.25961">
        <ele>59.8</ele>
        <time>2021-05-27T11:00:12Z</time>
      </trkpt>
      <trkpt lat="47.69731" lon="-2.25961">
        <ele>59.8</ele>
        <time>2021-05-27T11:00:13Z</time>
      </trkpt>
      <trkpt lat="47.69731" lon="-2.25961">
        <ele>59.8</ele>
        <time>2021-05-27T11:00:14Z</time>
      </trkpt>
      <trkpt lat="47.69731" lon="-2.25961">
        <ele>59.8</ele>
        <time>2021-05-27T11:00:15Z</time>
      </trkpt>
      <trkpt lat="47.69731" lon="-2.25961">
        <ele>59.8</ele>
        <time>2021-05-27T11:00:16Z</time>
      </trkpt>
      <trkpt lat="47.69731" lon="-2.25961">
        <ele>59.8</ele>
        <time>2021-05-27T11:00:17Z</time>
      </trkpt>
      <trkpt lat="47.69731" lon="-2.25961">
        <ele>59.8</ele>
        <time>2021-05-27T11:00:18Z</time>
      </trkpt>
      <trkpt lat="47.69731" lon="-2.25961">
        <ele>59.8</ele>
        <time>2021-05-27T11:00:19Z</time>
      </trkpt>
      <trkpt lat="47.69731" lon="-2.25961">
        <ele>59.8</ele>
        <time>2021-05-27T11:00:20Z</time>
      </trkpt>
      <trkpt lat="47.69731" lon="-2.25961">
        <ele>59.8</ele>
        <time>2021-05-27T11:00:21Z</time>
      </trkpt>
      <trkpt lat="47.69731" lon="-2.25961">
        <ele>59.8</ele>
        <time>2021-05-27T11:00:22Z</time>
      </trkpt>
      <trkpt lat="47.69731" lon="-2.25961">
        <ele>59.8</ele>
        <time>2021-05-27T11:00:23Z</time>
      </trkpt>
      <trkpt lat="47.69731" lon="-2.25961">
        <ele>59.8</ele>
        <time>2021-05-27T11:00:24Z</time>
      </trkpt>
      <trkpt lat="47.69731" lon="-2.25961">
        <ele>59.8</ele>
        <time>2021-05-27T11:00:25Z</time>
      </trkpt>
      <trkpt lat="47.69731" lon="-2.25961">
        <ele>59.8</ele>
        <time>2021-05-27T11:00:26Z</time>
      </trkpt>
      <trkpt lat="47.69731" lon="-2.25961">
        <ele>59.8</ele>
        <time>2021-05-27T11:00:27Z</time>
      </trkpt>
      <trkpt lat="47.69731" lon="-2.25961">
        <ele>59.8</ele>
        <time>2021-05-27T11:00:28Z</time>
      </trkpt>
      <trkpt lat="47.69731" lon="-2.25961">
        <ele>59.8</ele>
        <time>2021-05-27T11:00:29Z</time>
      </trkpt>
      <trkpt lat="47.69731" lon="-2.25961">
        <ele>59.8</ele>
        <time>2021-05-27T11:00:30Z</time>
      </trkpt>
      <trkpt lat="47.69731" lon="-2.25961">
        <ele>59.8</ele>
        <time>2021-05-27T11:00:31Z</time>
      </trkpt>
      <trkpt lat="47.69731" lon="-2.25961">
        <ele>59.8</ele>
        <time>2021-05-27T11:00:32Z</time>
      </trkpt>
      <trkpt lat="47.69731" lon="-2.25961">
        <ele>59.8</ele>
        <time>2021-05-27T11:00:33Z</time>
      </trkpt>
      <trkpt lat="47.69731" lon="-2.25961">
        <ele>59.8</ele>
        <time>2021-05-27T11:00:34Z</time>
      </trkpt>
      <trkpt lat="47.69731" lon="-2.25961">
        <ele>59.8</ele>
        <time>2021-05-27T11:00:35Z</time>
      </trkpt>
      <trkpt lat="47.69731" lon="-2.25961">
        <ele>59.8</ele>
        <time>2021-05-27T11:00:36Z</time>
      </trkpt>
      <trkpt lat="47.69731" lon="-2.25961">
        <ele>59.8</ele>
        <time>2021-05-27T11:00:37Z</time>
      </trkpt>
      <trkpt lat="47.69731" lon="-2.25961">
        <ele>59.8</ele>
        <time>2021-05-27T11:00:38Z</time>
      </trkpt>
      <trkpt lat="47.69731" lon="-2.25961">
        <ele>59.8</ele>
        <time>2021-05-27T11:00:39Z</time>
      </trkpt>
      <trkpt lat="47.69731" lon="-2.25961">
        <ele>59.8</ele>
        <time>2021-05-27T11:00:40Z</time>
      </trkpt>
      <trkpt lat="47.69731" lon="-2.25961">
        <ele>59.8</ele>
        <time>2021-05-27T11:00:41Z</time>
      </trkpt>
      <trkpt lat="47.69731" lon="-2.25961">
        <ele>59.8</ele>
        <time>2021-05-27T11:00:42Z</time>
      </trkpt>
      <trkpt lat="47.69731" lon="-2.25961">
        <ele>59.8</ele>
        <time>2021-05-27T11:00:43Z</time>
      </trkpt>
      <trkpt lat="47.69731" lon="-2.25961">
        <ele>59.8</ele>
        <time>2021-05-27T11:00:44Z</time>
      </trkpt>
      <trkpt lat="47.69731" lon="-2.25961">
        <ele>59.8</ele>
        <time>2021-05-27T11:00:45Z</time>
      </trkpt>
      <trkpt lat="47.69731" lon="-2.25961">
        <ele>59.8</ele>
        <time>2021-05-27T11:00:46Z</time>
      </trkpt>
      <trkpt lat="47.69731" lon="-2.25961">
        <ele>59.8</ele>
        <time>2021-05-27T11:00:47Z</time>
      </trkpt>
      <trkpt lat="47.69731" lon="-2.25961">
        <ele>59.8</ele>
        <time>2021-05-27T11:00:48Z</time>
      </trkpt>
      <trkpt lat="47.69731" lon="-2.25961">
        <ele>59.8</ele>
        <time>2021-05-27T11:00:49Z</time>
      </trkpt>
      <trkpt lat="47.69731" lon="-2.25961">
        <ele>59.8</ele>
        <time>2021-05-27T11:00:50Z</time>
      </trkpt>
      <trkpt lat="47.69731" lon="-2.25961">
        <ele>59.8</ele>
        <time>2021-05-27T11:00:51Z</time>
      </trkpt>
      <trkpt lat="47.69731" lon="-2.25961">
        <ele>59.8</ele>
        <time>2021-05-27T11:00:52Z</time>
      </trkpt>
      <trkpt lat="47.69731" lon="-2.25961">
        <ele>59.8</ele>
        <time>2021-05-27T11:00:53Z</time>
      </trkpt>
      <trkpt lat="47.69731" lon="-2.25961">
        <ele>59.8</ele>
        <time>2021-05-27T11:00:54Z</time>
      </trkpt>
      <trkpt lat="47.69731" lon="-2.25961">
        <ele>59.8</ele>
        <time>2021-05-27T11:00:55Z</time>
      </trkpt>
      <trkpt lat="47.69731" lon="-2.25961">
        <ele>59.8</ele>
        <time>2021-05-27T11:00:56Z</time>
      </trkpt>
      <trkpt lat="47.69731" lon="-2.25961">
        <ele>59.8</ele>
        <time>2021-05-27T11:00:57Z</time>
      </trkpt>
      <trkpt lat="47.69729" lon="-2.25967">
        <ele>59.3</ele>
        <time>2021-05-27T11:00:58Z</time>
      </trkpt>
      <trkpt lat="47.6973" lon="-2.25969">
        <ele>59.4</ele>
        <time>2021-05-27T11:00:59Z</time>
      </trkpt>
      <trkpt lat="47.69731" lon="-2.25972">
        <ele>59.4</ele>
        <time>2021-05-27T11:01:00Z</time>
      </trkpt>
      <trkpt lat="47.69732" lon="-2.25975">
        <ele>59.6</ele>
        <time>2021-05-27T11:01:01Z</time>
      </trkpt>
      <trkpt lat="47.69734" lon="-2.25978">
        <ele>59.7</ele>
        <time>2021-05-27T11:01:02Z</time>
      </trkpt>
      <trkpt lat="47.69735" lon="-2.25982">
        <ele>59.8</ele>
        <time>2021-05-27T11:01:03Z</time>
      </trkpt>
      <trkpt lat="47.69735" lon="-2.25986">
        <ele>59.7</ele>
        <time>2021-05-27T11:01:04Z</time>
      </trkpt>
      <trkpt lat="47.69736" lon="-2.25991">
        <ele>59.6</ele>
        <time>2021-05-27T11:01:05Z</time>
      </trkpt>
      <trkpt lat="47.69736" lon="-2.25995">
        <ele>59.5</ele>
        <time>2021-05-27T11:01:06Z</time>
      </trkpt>
      <trkpt lat="47.69736" lon="-2.26">
        <ele>59.3</ele>
        <time>2021-05-27T11:01:07Z</time>
      </trkpt>
      <trkpt lat="47.69736" lon="-2.26004">
        <ele>59.1</ele>
        <time>2021-05-27T11:01:08Z</time>
      </trkpt>
      <trkpt lat="47.69736" lon="-2.26009">
        <ele>58.9</ele>
        <time>2021-05-27T11:01:09Z</time>
      </trkpt>
      <trkpt lat="47.69737" lon="-2.26013">
        <ele>58.9</ele>
        <time>2021-05-27T11:01:10Z</time>
      </trkpt>
      <trkpt lat="47.69739" lon="-2.26017">
        <ele>59</ele>
        <time>2021-05-27T11:01:11Z</time>
      </trkpt>
      <trkpt lat="47.69741" lon="-2.26021">
        <ele>59.4</ele>
        <time>2021-05-27T11:01:12Z</time>
      </trkpt>
      <trkpt lat="47.69744" lon="-2.26025">
        <ele>59.8</ele>
        <time>2021-05-27T11:01:13Z</time>
      </trkpt>
      <trkpt lat="47.69747" lon="-2.26028">
        <ele>60.1</ele>
        <time>2021-05-27T11:01:14Z</time>
      </trkpt>
      <trkpt lat="47.6975" lon="-2.26031">
        <ele>60.5</ele>
        <time>2021-05-27T11:01:15Z</time>
      </trkpt>
      <trkpt lat="47.69753" lon="-2.26033">
        <ele>60.6</ele>
        <time>2021-05-27T11:01:16Z</time>
      </trkpt>
      <trkpt lat="47.69756" lon="-2.26036">
        <ele>60.7</ele>
        <time>2021-05-27T11:01:17Z</time>
      </trkpt>
      <trkpt lat="47.69757" lon="-2.2604">
        <ele>60.7</ele>
        <time>2021-05-27T11:01:18Z</time>
      </trkpt>
      <trkpt lat="47.69759" lon="-2.26043">
        <ele>60.7</ele>
        <time>2021-05-27T11:01:19Z</time>
      </trkpt>
      <trkpt lat="47.69762" lon="-2.26046">
        <ele>60.8</ele>
        <time>2021-05-27T11:01:20Z</time>
      </trkpt>
      <trkpt lat="47.69765" lon="-2.26047">
        <ele>60.9</ele>
        <time>2021-05-27T11:01:21Z</time>
      </trkpt>
      <trkpt lat="47.69767" lon="-2.2605">
        <ele>61</ele>
        <time>2021-05-27T11:01:22Z</time>
      </trkpt>
      <trkpt lat="47.69769" lon="-2.26053">
        <ele>61.1</ele>
        <time>2021-05-27T11:01:23Z</time>
      </trkpt>
      <trkpt lat="47.69771" lon="-2.26057">
        <ele>61.1</ele>
        <time>2021-05-27T11:01:24Z</time>
      </trkpt>
      <trkpt lat="47.69773" lon="-2.2606">
        <ele>61.1</ele>
        <time>2021-05-27T11:01:25Z</time>
      </trkpt>
      <trkpt lat="47.69775" lon="-2.26064">
        <ele>61.1</ele>
        <time>2021-05-27T11:01:26Z</time>
      </trkpt>
      <trkpt lat="47.69776" lon="-2.26067">
        <ele>61.1</ele>
        <time>2021-05-27T11:01:27Z</time>
      </trkpt>
      <trkpt lat="47.69776" lon="-2.26071">
        <ele>61</ele>
        <time>2021-05-27T11:01:28Z</time>
      </trkpt>
      <trkpt lat="47.69776" lon="-2.26075">
        <ele>60.8</ele>
        <time>2021-05-27T11:01:29Z</time>
      </trkpt>
      <trkpt lat="47.69776" lon="-2.2608">
        <ele>60.6</ele>
        <time>2021-05-27T11:01:30Z</time>
      </trkpt>
      <trkpt lat="47.69775" lon="-2.26084">
        <ele>60.3</ele>
        <time>2021-05-27T11:01:31Z</time>
      </trkpt>
      <trkpt lat="47.69774" lon="-2.26088">
        <ele>60.1</ele>
        <time>2021-05-27T11:01:32Z</time>
      </trkpt>
      <trkpt lat="47.69775" lon="-2.26092">
        <ele>60</ele>
        <time>2021-05-27T11:01:33Z</time>
      </trkpt>
      <trkpt lat="47.69776" lon="-2.26096">
        <ele>59.9</ele>
        <time>2021-05-27T11:01:34Z</time>
      </trkpt>
      <trkpt lat="47.69776" lon="-2.261">
        <ele>59.8</ele>
        <time>2021-05-27T11:01:35Z</time>
      </trkpt>
      <trkpt lat="47.69775" lon="-2.26105">
        <ele>59.5</ele>
        <time>2021-05-27T11:01:36Z</time>
      </trkpt>
      <trkpt lat="47.69773" lon="-2.2611">
        <ele>59.1</ele>
        <time>2021-05-27T11:01:37Z</time>
      </trkpt>
      <trkpt lat="47.69772" lon="-2.26115">
        <ele>58.8</ele>
        <time>2021-05-27T11:01:38Z</time>
      </trkpt>
      <trkpt lat="47.69772" lon="-2.26119">
        <ele>58.7</ele>
        <time>2021-05-27T11:01:39Z</time>
      </trkpt>
      <trkpt lat="47.69772" lon="-2.26123">
        <ele>58.4</ele>
        <time>2021-05-27T11:01:40Z</time>
      </trkpt>
      <trkpt lat="47.69771" lon="-2.26127">
        <ele>58.2</ele>
        <time>2021-05-27T11:01:41Z</time>
      </trkpt>
      <trkpt lat="47.6977" lon="-2.26132">
        <ele>57.9</ele>
        <time>2021-05-27T11:01:42Z</time>
      </trkpt>
      <trkpt lat="47.69769" lon="-2.26136">
        <ele>57.6</ele>
        <time>2021-05-27T11:01:43Z</time>
      </trkpt>
      <trkpt lat="47.69769" lon="-2.26141">
        <ele>57.3</ele>
        <time>2021-05-27T11:01:44Z</time>
      </trkpt>
      <trkpt lat="47.69768" lon="-2.26146">
        <ele>57.1</ele>
        <time>2021-05-27T11:01:45Z</time>
      </trkpt>
      <trkpt lat="47.69768" lon="-2.2615">
        <ele>56.9</ele>
        <time>2021-05-27T11:01:46Z</time>
      </trkpt>
      <trkpt lat="47.69768" lon="-2.26152">
        <ele>56.8</ele>
        <time>2021-05-27T11:01:47Z</time>
      </trkpt>
      <trkpt lat="47.69768" lon="-2.26152">
        <ele>56.8</ele>
        <time>2021-05-27T11:01:48Z</time>
      </trkpt>
      <trkpt lat="47.69768" lon="-2.26152">
        <ele>56.8</ele>
        <time>2021-05-27T11:01:49Z</time>
      </trkpt>
      <trkpt lat="47.69768" lon="-2.26152">
        <ele>56.8</ele>
        <time>2021-05-27T11:01:50Z</time>
      </trkpt>
      <trkpt lat="47.69768" lon="-2.26152">
        <ele>56.8</ele>
        <time>2021-05-27T11:01:51Z</time>
      </trkpt>
      <trkpt lat="47.69768" lon="-2.26152">
        <ele>56.8</ele>
        <time>2021-05-27T11:01:52Z</time>
      </trkpt>
      <trkpt lat="47.69768" lon="-2.26152">
        <ele>56.8</ele>
        <time>2021-05-27T11:01:53Z</time>
      </trkpt>
      <trkpt lat="47.69767" lon="-2.26155">
        <ele>56.6</ele>
        <time>2021-05-27T11:01:54Z</time>
      </trkpt>
      <trkpt lat="47.69767" lon="-2.26158">
        <ele>56.4</ele>
        <time>2021-05-27T11:01:55Z</time>
      </trkpt>
      <trkpt lat="47.69766" lon="-2.26163">
        <ele>56.1</ele>
        <time>2021-05-27T11:01:56Z</time>
      </trkpt>
      <trkpt lat="47.69766" lon="-2.26168">
        <ele>55.9</ele>
        <time>2021-05-27T11:01:57Z</time>
      </trkpt>
      <trkpt lat="47.69766" lon="-2.26172">
        <ele>55.7</ele>
        <time>2021-05-27T11:01:58Z</time>
      </trkpt>
      <trkpt lat="47.69766" lon="-2.26176">
        <ele>55.4</ele>
        <time>2021-05-27T11:01:59Z</time>
      </trkpt>
      <trkpt lat="47.69765" lon="-2.2618">
        <ele>55.1</ele>
        <time>2021-05-27T11:02:00Z</time>
      </trkpt>
      <trkpt lat="47.69765" lon="-2.26183">
        <ele>54.9</ele>
        <time>2021-05-27T11:02:01Z</time>
      </trkpt>
      <trkpt lat="47.69764" lon="-2.26185">
        <ele>54.8</ele>
        <time>2021-05-27T11:02:02Z</time>
      </trkpt>
      <trkpt lat="47.69764" lon="-2.26187">
        <ele>54.7</ele>
        <time>2021-05-27T11:02:03Z</time>
      </trkpt>
      <trkpt lat="47.69765" lon="-2.26189">
        <ele>54.6</ele>
        <time>2021-05-27T11:02:04Z</time>
      </trkpt>
      <trkpt lat="47.69765" lon="-2.2619">
        <ele>54.6</ele>
        <time>2021-05-27T11:02:05Z</time>
      </trkpt>
      <trkpt lat="47.69765" lon="-2.26192">
        <ele>54.5</ele>
        <time>2021-05-27T11:02:06Z</time>
      </trkpt>
      <trkpt lat="47.69765" lon="-2.26193">
        <ele>54.4</ele>
        <time>2021-05-27T11:02:07Z</time>
      </trkpt>
      <trkpt lat="47.69764" lon="-2.26194">
        <ele>54.3</ele>
        <time>2021-05-27T11:02:08Z</time>
      </trkpt>
      <trkpt lat="47.69764" lon="-2.26196">
        <ele>54.2</ele>
        <time>2021-05-27T11:02:09Z</time>
      </trkpt>
      <trkpt lat="47.69764" lon="-2.26197">
        <ele>54.2</ele>
        <time>2021-05-27T11:02:10Z</time>
      </trkpt>
      <trkpt lat="47.69764" lon="-2.26198">
        <ele>54.1</ele>
        <time>2021-05-27T11:02:11Z</time>
      </trkpt>
      <trkpt lat="47.69763" lon="-2.26201">
        <ele>53.9</ele>
        <time>2021-05-27T11:02:12Z</time>
      </trkpt>
      <trkpt lat="47.69762" lon="-2.26202">
        <ele>53.7</ele>
        <time>2021-05-27T11:02:13Z</time>
      </trkpt>
      <trkpt lat="47.69761" lon="-2.26203">
        <ele>53.6</ele>
        <time>2021-05-27T11:02:14Z</time>
      </trkpt>
      <trkpt lat="47.6976" lon="-2.26204">
        <ele>53.5</ele>
        <time>2021-05-27T11:02:15Z</time>
      </trkpt>
      <trkpt lat="47.6976" lon="-2.26205">
        <ele>53.5</ele>
        <time>2021-05-27T11:02:16Z</time>
      </trkpt>
      <trkpt lat="47.6976" lon="-2.26205">
        <ele>53.5</ele>
        <time>2021-05-27T11:02:17Z</time>
      </trkpt>
      <trkpt lat="47.6976" lon="-2.26205">
        <ele>53.5</ele>
        <time>2021-05-27T11:02:18Z</time>
      </trkpt>
      <trkpt lat="47.6976" lon="-2.26205">
        <ele>53.5</ele>
        <time>2021-05-27T11:02:19Z</time>
      </trkpt>
      <trkpt lat="47.69756" lon="-2.26202">
        <ele>53.2</ele>
        <time>2021-05-27T11:02:20Z</time>
      </trkpt>
      <trkpt lat="47.69754" lon="-2.262">
        <ele>53.1</ele>
        <time>2021-05-27T11:02:21Z</time>
      </trkpt>
      <trkpt lat="47.69752" lon="-2.262">
        <ele>53</ele>
        <time>2021-05-27T11:02:22Z</time>
      </trkpt>
      <trkpt lat="47.69751" lon="-2.26199">
        <ele>52.9</ele>
        <time>2021-05-27T11:02:23Z</time>
      </trkpt>
      <trkpt lat="47.69749" lon="-2.26198">
        <ele>52.8</ele>
        <time>2021-05-27T11:02:24Z</time>
      </trkpt>
      <trkpt lat="47.69749" lon="-2.26198">
        <ele>52.8</ele>
        <time>2021-05-27T11:02:25Z</time>
      </trkpt>
      <trkpt lat="47.69749" lon="-2.26198">
        <ele>52.8</ele>
        <time>2021-05-27T11:02:26Z</time>
      </trkpt>
      <trkpt lat="47.69749" lon="-2.26197">
        <ele>52.8</ele>
        <time>2021-05-27T11:02:27Z</time>
      </trkpt>
      <trkpt lat="47.69749" lon="-2.26197">
        <ele>52.8</ele>
        <time>2021-05-27T11:02:28Z</time>
      </trkpt>
      <trkpt lat="47.69749" lon="-2.26197">
        <ele>52.8</ele>
        <time>2021-05-27T11:02:29Z</time>
      </trkpt>
      <trkpt lat="47.69749" lon="-2.26197">
        <ele>52.8</ele>
        <time>2021-05-27T11:02:30Z</time>
      </trkpt>
      <trkpt lat="47.69749" lon="-2.26197">
        <ele>52.8</ele>
        <time>2021-05-27T11:02:31Z</time>
      </trkpt>
      <trkpt lat="47.69749" lon="-2.26197">
        <ele>52.8</ele>
        <time>2021-05-27T11:02:32Z</time>
      </trkpt>
      <trkpt lat="47.69749" lon="-2.26197">
        <ele>52.8</ele>
        <time>2021-05-27T11:02:33Z</time>
      </trkpt>
      <trkpt lat="47.69749" lon="-2.26197">
        <ele>52.8</ele>
        <time>2021-05-27T11:02:34Z</time>
      </trkpt>
      <trkpt lat="47.69749" lon="-2.26197">
        <ele>52.8</ele>
        <time>2021-05-27T11:02:35Z</time>
      </trkpt>
      <trkpt lat="47.69749" lon="-2.26197">
        <ele>52.8</ele>
        <time>2021-05-27T11:02:36Z</time>
      </trkpt>
      <trkpt lat="47.69749" lon="-2.26197">
        <ele>52.8</ele>
        <time>2021-05-27T11:02:37Z</time>
      </trkpt>
      <trkpt lat="47.69749" lon="-2.26197">
        <ele>52.8</ele>
        <time>2021-05-27T11:02:38Z</time>
      </trkpt>
      <trkpt lat="47.69749" lon="-2.26197">
        <ele>52.8</ele>
        <time>2021-05-27T11:02:39Z</time>
      </trkpt>
      <trkpt lat="47.69749" lon="-2.26197">
        <ele>52.8</ele>
        <time>2021-05-27T11:02:40Z</time>
      </trkpt>
      <trkpt lat="47.69749" lon="-2.26197">
        <ele>52.8</ele>
        <time>2021-05-27T11:02:41Z</time>
      </trkpt>
      <trkpt lat="47.69749" lon="-2.26197">
        <ele>52.8</ele>
        <time>2021-05-27T11:02:42Z</time>
      </trkpt>
      <trkpt lat="47.69749" lon="-2.26197">
        <ele>52.8</ele>
        <time>2021-05-27T11:02:43Z</time>
      </trkpt>
      <trkpt lat="47.69749" lon="-2.26197">
        <ele>52.8</ele>
        <time>2021-05-27T11:02:44Z</time>
      </trkpt>
      <trkpt lat="47.69749" lon="-2.26197">
        <ele>52.8</ele>
        <time>2021-05-27T11:02:45Z</time>
      </trkpt>
      <trkpt lat="47.69749" lon="-2.26197">
        <ele>52.8</ele>
        <time>2021-05-27T11:02:46Z</time>
      </trkpt>
      <trkpt lat="47.69749" lon="-2.26197">
        <ele>52.8</ele>
        <time>2021-05-27T11:02:47Z</time>
      </trkpt>
      <trkpt lat="47.69741" lon="-2.26205">
        <ele>51.8</ele>
        <time>2021-05-27T11:02:48Z</time>
      </trkpt>
      <trkpt lat="47.6974" lon="-2.26206">
        <ele>51.7</ele>
        <time>2021-05-27T11:02:49Z</time>
      </trkpt>
      <trkpt lat="47.69738" lon="-2.26207">
        <ele>51.4</ele>
        <time>2021-05-27T11:02:50Z</time>
      </trkpt>
      <trkpt lat="47.69737" lon="-2.26209">
        <ele>51.3</ele>
        <time>2021-05-27T11:02:51Z</time>
      </trkpt>
      <trkpt lat="47.69736" lon="-2.26211">
        <ele>51.2</ele>
        <time>2021-05-27T11:02:52Z</time>
      </trkpt>
      <trkpt lat="47.69736" lon="-2.26214">
        <ele>51.1</ele>
        <time>2021-05-27T11:02:53Z</time>
      </trkpt>
      <trkpt lat="47.69737" lon="-2.26219">
        <ele>51</ele>
        <time>2021-05-27T11:02:54Z</time>
      </trkpt>
      <trkpt lat="47.69739" lon="-2.26223">
        <ele>51</ele>
        <time>2021-05-27T11:02:55Z</time>
      </trkpt>
      <trkpt lat="47.6974" lon="-2.26229">
        <ele>51</ele>
        <time>2021-05-27T11:02:56Z</time>
      </trkpt>
      <trkpt lat="47.69741" lon="-2.26233">
        <ele>50.9</ele>
        <time>2021-05-27T11:02:57Z</time>
      </trkpt>
      <trkpt lat="47.69741" lon="-2.26236">
        <ele>50.8</ele>
        <time>2021-05-27T11:02:58Z</time>
      </trkpt>
      <trkpt lat="47.6974" lon="-2.26239">
        <ele>50.7</ele>
        <time>2021-05-27T11:02:59Z</time>
      </trkpt>
      <trkpt lat="47.6974" lon="-2.26241">
        <ele>50.5</ele>
        <time>2021-05-27T11:03:00Z</time>
      </trkpt>
      <trkpt lat="47.69739" lon="-2.26244">
        <ele>50.4</ele>
        <time>2021-05-27T11:03:01Z</time>
      </trkpt>
      <trkpt lat="47.69739" lon="-2.26245">
        <ele>50.3</ele>
        <time>2021-05-27T11:03:02Z</time>
      </trkpt>
      <trkpt lat="47.69737" lon="-2.26247">
        <ele>50.2</ele>
        <time>2021-05-27T11:03:03Z</time>
      </trkpt>
      <trkpt lat="47.69736" lon="-2.26247">
        <ele>50.1</ele>
        <time>2021-05-27T11:03:04Z</time>
      </trkpt>
      <trkpt lat="47.69735" lon="-2.26248">
        <ele>50</ele>
        <time>2021-05-27T11:03:05Z</time>
      </trkpt>
      <trkpt lat="47.69733" lon="-2.26249">
        <ele>49.8</ele>
        <time>2021-05-27T11:03:06Z</time>
      </trkpt>
      <trkpt lat="47.69731" lon="-2.2625">
        <ele>49.6</ele>
        <time>2021-05-27T11:03:07Z</time>
      </trkpt>
      <trkpt lat="47.6973" lon="-2.26253">
        <ele>49.3</ele>
        <time>2021-05-27T11:03:08Z</time>
      </trkpt>
      <trkpt lat="47.69728" lon="-2.26256">
        <ele>48.9</ele>
        <time>2021-05-27T11:03:09Z</time>
      </trkpt>
      <trkpt lat="47.69727" lon="-2.2626">
        <ele>48.6</ele>
        <time>2021-05-27T11:03:10Z</time>
      </trkpt>
      <trkpt lat="47.69725" lon="-2.26261">
        <ele>48.4</ele>
        <time>2021-05-27T11:03:11Z</time>
      </trkpt>
      <trkpt lat="47.69723" lon="-2.26262">
        <ele>48.2</ele>
        <time>2021-05-27T11:03:12Z</time>
      </trkpt>
      <trkpt lat="47.69721" lon="-2.26262">
        <ele>48.1</ele>
        <time>2021-05-27T11:03:13Z</time>
      </trkpt>
      <trkpt lat="47.69719" lon="-2.2626">
        <ele>48.1</ele>
        <time>2021-05-27T11:03:14Z</time>
      </trkpt>
      <trkpt lat="47.69716" lon="-2.26257">
        <ele>48.1</ele>
        <time>2021-05-27T11:03:15Z</time>
      </trkpt>
      <trkpt lat="47.69715" lon="-2.26255">
        <ele>48.2</ele>
        <time>2021-05-27T11:03:16Z</time>
      </trkpt>
      <trkpt lat="47.69714" lon="-2.26253">
        <ele>48.2</ele>
        <time>2021-05-27T11:03:17Z</time>
      </trkpt>
      <trkpt lat="47.69713" lon="-2.26252">
        <ele>48.2</ele>
        <time>2021-05-27T11:03:18Z</time>
      </trkpt>
      <trkpt lat="47.69711" lon="-2.26251">
        <ele>48.1</ele>
        <time>2021-05-27T11:03:19Z</time>
      </trkpt>
      <trkpt lat="47.69708" lon="-2.26249">
        <ele>48</ele>
        <time>2021-05-27T11:03:20Z</time>
      </trkpt>
      <trkpt lat="47.69707" lon="-2.26247">
        <ele>47.9</ele>
        <time>2021-05-27T11:03:21Z</time>
      </trkpt>
      <trkpt lat="47.69705" lon="-2.26246">
        <ele>47.8</ele>
        <time>2021-05-27T11:03:22Z</time>
      </trkpt>
      <trkpt lat="47.69703" lon="-2.26246">
        <ele>47.7</ele>
        <time>2021-05-27T11:03:23Z</time>
      </trkpt>
      <trkpt lat="47.69701" lon="-2.26247">
        <ele>47.5</ele>
        <time>2021-05-27T11:03:24Z</time>
      </trkpt>
      <trkpt lat="47.69699" lon="-2.2625">
        <ele>47.4</ele>
        <time>2021-05-27T11:03:25Z</time>
      </trkpt>
      <trkpt lat="47.69698" lon="-2.26252">
        <ele>47.1</ele>
        <time>2021-05-27T11:03:26Z</time>
      </trkpt>
      <trkpt lat="47.69697" lon="-2.26253">
        <ele>47.1</ele>
        <time>2021-05-27T11:03:27Z</time>
      </trkpt>
      <trkpt lat="47.69697" lon="-2.26253">
        <ele>47.1</ele>
        <time>2021-05-27T11:03:28Z</time>
      </trkpt>
      <trkpt lat="47.69697" lon="-2.26253">
        <ele>47.1</ele>
        <time>2021-05-27T11:03:29Z</time>
      </trkpt>
      <trkpt lat="47.69697" lon="-2.26253">
        <ele>47.1</ele>
        <time>2021-05-27T11:03:30Z</time>
      </trkpt>
      <trkpt lat="47.69697" lon="-2.26253">
        <ele>47.1</ele>
        <time>2021-05-27T11:03:31Z</time>
      </trkpt>
      <trkpt lat="47.69697" lon="-2.26253">
        <ele>47.1</ele>
        <time>2021-05-27T11:03:32Z</time>
      </trkpt>
      <trkpt lat="47.69697" lon="-2.26253">
        <ele>47.1</ele>
        <time>2021-05-27T11:03:33Z</time>
      </trkpt>
      <trkpt lat="47.69697" lon="-2.26253">
        <ele>47.1</ele>
        <time>2021-05-27T11:03:34Z</time>
      </trkpt>
      <trkpt lat="47.69697" lon="-2.26253">
        <ele>47.1</ele>
        <time>2021-05-27T11:03:35Z</time>
      </trkpt>
      <trkpt lat="47.69697" lon="-2.26253">
        <ele>47.1</ele>
        <time>2021-05-27T11:03:36Z</time>
      </trkpt>
      <trkpt lat="47.69697" lon="-2.26253">
        <ele>47.1</ele>
        <time>2021-05-27T11:03:37Z</time>
      </trkpt>
      <trkpt lat="47.69697" lon="-2.26253">
        <ele>47.1</ele>
        <time>2021-05-27T11:03:38Z</time>
      </trkpt>
      <trkpt lat="47.69697" lon="-2.26253">
        <ele>47.1</ele>
        <time>2021-05-27T11:03:39Z</time>
      </trkpt>
      <trkpt lat="47.69697" lon="-2.26253">
        <ele>47.1</ele>
        <time>2021-05-27T11:03:40Z</time>
      </trkpt>
      <trkpt lat="47.69697" lon="-2.26253">
        <ele>47.1</ele>
        <time>2021-05-27T11:03:41Z</time>
      </trkpt>
      <trkpt lat="47.69697" lon="-2.26253">
        <ele>47.1</ele>
        <time>2021-05-27T11:03:42Z</time>
      </trkpt>
      <trkpt lat="47.69697" lon="-2.26253">
        <ele>47.1</ele>
        <time>2021-05-27T11:03:43Z</time>
      </trkpt>
      <trkpt lat="47.69697" lon="-2.26253">
        <ele>47.1</ele>
        <time>2021-05-27T11:03:44Z</time>
      </trkpt>
      <trkpt lat="47.69697" lon="-2.26253">
        <ele>47.1</ele>
        <time>2021-05-27T11:03:45Z</time>
      </trkpt>
      <trkpt lat="47.69697" lon="-2.26253">
        <ele>47.1</ele>
        <time>2021-05-27T11:03:46Z</time>
      </trkpt>
      <trkpt lat="47.69697" lon="-2.26253">
        <ele>47.1</ele>
        <time>2021-05-27T11:03:47Z</time>
      </trkpt>
      <trkpt lat="47.69697" lon="-2.26253">
        <ele>47.1</ele>
        <time>2021-05-27T11:03:48Z</time>
      </trkpt>
      <trkpt lat="47.69697" lon="-2.26253">
        <ele>47.1</ele>
        <time>2021-05-27T11:03:49Z</time>
      </trkpt>
      <trkpt lat="47.69697" lon="-2.26253">
        <ele>47.1</ele>
        <time>2021-05-27T11:03:50Z</time>
      </trkpt>
      <trkpt lat="47.69697" lon="-2.26253">
        <ele>47.1</ele>
        <time>2021-05-27T11:03:51Z</time>
      </trkpt>
      <trkpt lat="47.69697" lon="-2.26253">
        <ele>47.1</ele>
        <time>2021-05-27T11:03:52Z</time>
      </trkpt>
      <trkpt lat="47.69697" lon="-2.26253">
        <ele>47.1</ele>
        <time>2021-05-27T11:03:53Z</time>
      </trkpt>
      <trkpt lat="47.69697" lon="-2.26253">
        <ele>47.1</ele>
        <time>2021-05-27T11:03:54Z</time>
      </trkpt>
      <trkpt lat="47.69697" lon="-2.26253">
        <ele>47.1</ele>
        <time>2021-05-27T11:03:55Z</time>
      </trkpt>
      <trkpt lat="47.69697" lon="-2.26253">
        <ele>47.1</ele>
        <time>2021-05-27T11:03:56Z</time>
      </trkpt>
      <trkpt lat="47.69697" lon="-2.26253">
        <ele>47.1</ele>
        <time>2021-05-27T11:03:57Z</time>
      </trkpt>
      <trkpt lat="47.69697" lon="-2.26253">
        <ele>47.1</ele>
        <time>2021-05-27T11:03:58Z</time>
      </trkpt>
      <trkpt lat="47.69697" lon="-2.26253">
        <ele>47.1</ele>
        <time>2021-05-27T11:03:59Z</time>
      </trkpt>
      <trkpt lat="47.69697" lon="-2.26253">
        <ele>47.1</ele>
        <time>2021-05-27T11:04:00Z</time>
      </trkpt>
      <trkpt lat="47.69697" lon="-2.26253">
        <ele>47.1</ele>
        <time>2021-05-27T11:04:01Z</time>
      </trkpt>
      <trkpt lat="47.69697" lon="-2.26253">
        <ele>47.1</ele>
        <time>2021-05-27T11:04:02Z</time>
      </trkpt>
      <trkpt lat="47.69695" lon="-2.26261">
        <ele>46.5</ele>
        <time>2021-05-27T11:04:03Z</time>
      </trkpt>
      <trkpt lat="47.69695" lon="-2.26264">
        <ele>46.4</ele>
        <time>2021-05-27T11:04:04Z</time>
      </trkpt>
      <trkpt lat="47.69695" lon="-2.26268">
        <ele>46.2</ele>
        <time>2021-05-27T11:04:05Z</time>
      </trkpt>
      <trkpt lat="47.69695" lon="-2.26272">
        <ele>46</ele>
        <time>2021-05-27T11:04:06Z</time>
      </trkpt>
      <trkpt lat="47.69696" lon="-2.26276">
        <ele>45.8</ele>
        <time>2021-05-27T11:04:07Z</time>
      </trkpt>
      <trkpt lat="47.69697" lon="-2.26281">
        <ele>45.7</ele>
        <time>2021-05-27T11:04:08Z</time>
      </trkpt>
      <trkpt lat="47.69698" lon="-2.26286">
        <ele>45.4</ele>
        <time>2021-05-27T11:04:09Z</time>
      </trkpt>
      <trkpt lat="47.697" lon="-2.26291">
        <ele>45.2</ele>
        <time>2021-05-27T11:04:10Z</time>
      </trkpt>
      <trkpt lat="47.69701" lon="-2.26297">
        <ele>44.9</ele>
        <time>2021-05-27T11:04:11Z</time>
      </trkpt>
      <trkpt lat="47.69703" lon="-2.26303">
        <ele>44.7</ele>
        <time>2021-05-27T11:04:12Z</time>
      </trkpt>
      <trkpt lat="47.69704" lon="-2.2631">
        <ele>44.3</ele>
        <time>2021-05-27T11:04:13Z</time>
      </trkpt>
      <trkpt lat="47.69705" lon="-2.26316">
        <ele>44</ele>
        <time>2021-05-27T11:04:14Z</time>
      </trkpt>
      <trkpt lat="47.69705" lon="-2.26322">
        <ele>43.6</ele>
        <time>2021-05-27T11:04:15Z</time>
      </trkpt>
      <trkpt lat="47.69707" lon="-2.26329">
        <ele>43.3</ele>
        <time>2021-05-27T11:04:16Z</time>
      </trkpt>
      <trkpt lat="47.69709" lon="-2.26336">
        <ele>42.7</ele>
        <time>2021-05-27T11:04:17Z</time>
      </trkpt>
      <trkpt lat="47.6971" lon="-2.26342">
        <ele>42</ele>
        <time>2021-05-27T11:04:18Z</time>
      </trkpt>
      <trkpt lat="47.6971" lon="-2.26347">
        <ele>41.5</ele>
        <time>2021-05-27T11:04:19Z</time>
      </trkpt>
      <trkpt lat="47.69711" lon="-2.2635">
        <ele>41.1</ele>
        <time>2021-05-27T11:04:20Z</time>
      </trkpt>
      <trkpt lat="47.69711" lon="-2.26354">
        <ele>40.7</ele>
        <time>2021-05-27T11:04:21Z</time>
      </trkpt>
      <trkpt lat="47.69713" lon="-2.2636">
        <ele>40.1</ele>
        <time>2021-05-27T11:04:22Z</time>
      </trkpt>
      <trkpt lat="47.69713" lon="-2.26363">
        <ele>39.7</ele>
        <time>2021-05-27T11:04:23Z</time>
      </trkpt>
      <trkpt lat="47.69713" lon="-2.26366">
        <ele>39.3</ele>
        <time>2021-05-27T11:04:24Z</time>
      </trkpt>
      <trkpt lat="47.69713" lon="-2.26368">
        <ele>39.1</ele>
        <time>2021-05-27T11:04:25Z</time>
      </trkpt>
      <trkpt lat="47.69714" lon="-2.26372">
        <ele>38.7</ele>
        <time>2021-05-27T11:04:26Z</time>
      </trkpt>
      <trkpt lat="47.69714" lon="-2.26372">
        <ele>38.6</ele>
        <time>2021-05-27T11:04:27Z</time>
      </trkpt>
      <trkpt lat="47.69715" lon="-2.26373">
        <ele>38.6</ele>
        <time>2021-05-27T11:04:28Z</time>
      </trkpt>
      <trkpt lat="47.69715" lon="-2.26373">
        <ele>38.6</ele>
        <time>2021-05-27T11:04:29Z</time>
      </trkpt>
      <trkpt lat="47.69715" lon="-2.26373">
        <ele>38.6</ele>
        <time>2021-05-27T11:04:30Z</time>
      </trkpt>
      <trkpt lat="47.69715" lon="-2.26373">
        <ele>38.6</ele>
        <time>2021-05-27T11:04:31Z</time>
      </trkpt>
      <trkpt lat="47.69715" lon="-2.26373">
        <ele>38.6</ele>
        <time>2021-05-27T11:04:32Z</time>
      </trkpt>
      <trkpt lat="47.69715" lon="-2.26373">
        <ele>38.6</ele>
        <time>2021-05-27T11:04:33Z</time>
      </trkpt>
      <trkpt lat="47.69715" lon="-2.26373">
        <ele>38.6</ele>
        <time>2021-05-27T11:04:34Z</time>
      </trkpt>
      <trkpt lat="47.69715" lon="-2.26373">
        <ele>38.6</ele>
        <time>2021-05-27T11:04:35Z</time>
      </trkpt>
      <trkpt lat="47.69715" lon="-2.26373">
        <ele>38.6</ele>
        <time>2021-05-27T11:04:36Z</time>
      </trkpt>
      <trkpt lat="47.69721" lon="-2.26384">
        <ele>37.2</ele>
        <time>2021-05-27T11:04:37Z</time>
      </trkpt>
      <trkpt lat="47.69719" lon="-2.26385">
        <ele>37</ele>
        <time>2021-05-27T11:04:38Z</time>
      </trkpt>
      <trkpt lat="47.69718" lon="-2.26386">
        <ele>37</ele>
        <time>2021-05-27T11:04:39Z</time>
      </trkpt>
      <trkpt lat="47.69717" lon="-2.26386">
        <ele>37</ele>
        <time>2021-05-27T11:04:40Z</time>
      </trkpt>
      <trkpt lat="47.69716" lon="-2.26387">
        <ele>37</ele>
        <time>2021-05-27T11:04:41Z</time>
      </trkpt>
      <trkpt lat="47.69716" lon="-2.26389">
        <ele>36.7</ele>
        <time>2021-05-27T11:04:42Z</time>
      </trkpt>
      <trkpt lat="47.69716" lon="-2.26391">
        <ele>36.6</ele>
        <time>2021-05-27T11:04:43Z</time>
      </trkpt>
      <trkpt lat="47.69714" lon="-2.26391">
        <ele>36.6</ele>
        <time>2021-05-27T11:04:44Z</time>
      </trkpt>
      <trkpt lat="47.69714" lon="-2.26392">
        <ele>36.5</ele>
        <time>2021-05-27T11:04:45Z</time>
      </trkpt>
      <trkpt lat="47.69714" lon="-2.26392">
        <ele>36.4</ele>
        <time>2021-05-27T11:04:46Z</time>
      </trkpt>
      <trkpt lat="47.69714" lon="-2.26392">
        <ele>36.4</ele>
        <time>2021-05-27T11:04:47Z</time>
      </trkpt>
      <trkpt lat="47.69714" lon="-2.26392">
        <ele>36.4</ele>
        <time>2021-05-27T11:04:48Z</time>
      </trkpt>
      <trkpt lat="47.69714" lon="-2.26392">
        <ele>36.4</ele>
        <time>2021-05-27T11:04:49Z</time>
      </trkpt>
      <trkpt lat="47.69711" lon="-2.26397">
        <ele>36.1</ele>
        <time>2021-05-27T11:04:50Z</time>
      </trkpt>
      <trkpt lat="47.6971" lon="-2.26399">
        <ele>35.8</ele>
        <time>2021-05-27T11:04:51Z</time>
      </trkpt>
      <trkpt lat="47.69711" lon="-2.26405">
        <ele>35.2</ele>
        <time>2021-05-27T11:04:52Z</time>
      </trkpt>
      <trkpt lat="47.69712" lon="-2.26408">
        <ele>34.7</ele>
        <time>2021-05-27T11:04:53Z</time>
      </trkpt>
      <trkpt lat="47.69712" lon="-2.26413">
        <ele>34.2</ele>
        <time>2021-05-27T11:04:54Z</time>
      </trkpt>
      <trkpt lat="47.69712" lon="-2.26419">
        <ele>33.9</ele>
        <time>2021-05-27T11:04:55Z</time>
      </trkpt>
      <trkpt lat="47.69712" lon="-2.26423">
        <ele>34</ele>
        <time>2021-05-27T11:04:56Z</time>
      </trkpt>
      <trkpt lat="47.69712" lon="-2.26427">
        <ele>34.1</ele>
        <time>2021-05-27T11:04:57Z</time>
      </trkpt>
      <trkpt lat="47.69714" lon="-2.26433">
        <ele>34.3</ele>
        <time>2021-05-27T11:04:58Z</time>
      </trkpt>
      <trkpt lat="47.69716" lon="-2.26437">
        <ele>34.4</ele>
        <time>2021-05-27T11:04:59Z</time>
      </trkpt>
      <trkpt lat="47.69718" lon="-2.26443">
        <ele>34.6</ele>
        <time>2021-05-27T11:05:00Z</time>
      </trkpt>
      <trkpt lat="47.6972" lon="-2.26446">
        <ele>34.7</ele>
        <time>2021-05-27T11:05:01Z</time>
      </trkpt>
      <trkpt lat="47.6972" lon="-2.26449">
        <ele>34.9</ele>
        <time>2021-05-27T11:05:02Z</time>
      </trkpt>
      <trkpt lat="47.6972" lon="-2.26451">
        <ele>35</ele>
        <time>2021-05-27T11:05:03Z</time>
      </trkpt>
      <trkpt lat="47.69721" lon="-2.26453">
        <ele>35.1</ele>
        <time>2021-05-27T11:05:04Z</time>
      </trkpt>
      <trkpt lat="47.69721" lon="-2.26457">
        <ele>35.2</ele>
        <time>2021-05-27T11:05:05Z</time>
      </trkpt>
      <trkpt lat="47.69721" lon="-2.2646">
        <ele>35.4</ele>
        <time>2021-05-27T11:05:06Z</time>
      </trkpt>
      <trkpt lat="47.69721" lon="-2.26463">
        <ele>35.5</ele>
        <time>2021-05-27T11:05:07Z</time>
      </trkpt>
      <trkpt lat="47.6972" lon="-2.26466">
        <ele>35.6</ele>
        <time>2021-05-27T11:05:08Z</time>
      </trkpt>
      <trkpt lat="47.69719" lon="-2.26469">
        <ele>35.7</ele>
        <time>2021-05-27T11:05:09Z</time>
      </trkpt>
      <trkpt lat="47.69718" lon="-2.26471">
        <ele>35.8</ele>
        <time>2021-05-27T11:05:10Z</time>
      </trkpt>
      <trkpt lat="47.69717" lon="-2.26474">
        <ele>35.8</ele>
        <time>2021-05-27T11:05:11Z</time>
      </trkpt>
      <trkpt lat="47.69714" lon="-2.26476">
        <ele>35.8</ele>
        <time>2021-05-27T11:05:12Z</time>
      </trkpt>
      <trkpt lat="47.69712" lon="-2.26478">
        <ele>35.7</ele>
        <time>2021-05-27T11:05:13Z</time>
      </trkpt>
      <trkpt lat="47.69711" lon="-2.2648">
        <ele>35.7</ele>
        <time>2021-05-27T11:05:14Z</time>
      </trkpt>
      <trkpt lat="47.69709" lon="-2.26482">
        <ele>35.6</ele>
        <time>2021-05-27T11:05:15Z</time>
      </trkpt>
      <trkpt lat="47.69707" lon="-2.26485">
        <ele>35.5</ele>
        <time>2021-05-27T11:05:16Z</time>
      </trkpt>
      <trkpt lat="47.69705" lon="-2.26487">
        <ele>35.5</ele>
        <time>2021-05-27T11:05:17Z</time>
      </trkpt>
      <trkpt lat="47.69704" lon="-2.2649">
        <ele>35.4</ele>
        <time>2021-05-27T11:05:18Z</time>
      </trkpt>
      <trkpt lat="47.69703" lon="-2.26493">
        <ele>35.3</ele>
        <time>2021-05-27T11:05:19Z</time>
      </trkpt>
      <trkpt lat="47.69701" lon="-2.26495">
        <ele>35.2</ele>
        <time>2021-05-27T11:05:20Z</time>
      </trkpt>
      <trkpt lat="47.697" lon="-2.26499">
        <ele>35.2</ele>
        <time>2021-05-27T11:05:21Z</time>
      </trkpt>
      <trkpt lat="47.69698" lon="-2.26502">
        <ele>35.2</ele>
        <time>2021-05-27T11:05:22Z</time>
      </trkpt>
      <trkpt lat="47.69697" lon="-2.26504">
        <ele>35.1</ele>
        <time>2021-05-27T11:05:23Z</time>
      </trkpt>
      <trkpt lat="47.69695" lon="-2.26505">
        <ele>35</ele>
        <time>2021-05-27T11:05:24Z</time>
      </trkpt>
      <trkpt lat="47.69693" lon="-2.26507">
        <ele>34.9</ele>
        <time>2021-05-27T11:05:25Z</time>
      </trkpt>
      <trkpt lat="47.69691" lon="-2.26509">
        <ele>34.8</ele>
        <time>2021-05-27T11:05:26Z</time>
      </trkpt>
      <trkpt lat="47.69688" lon="-2.26512">
        <ele>34.7</ele>
        <time>2021-05-27T11:05:27Z</time>
      </trkpt>
      <trkpt lat="47.69686" lon="-2.26515">
        <ele>34.7</ele>
        <time>2021-05-27T11:05:28Z</time>
      </trkpt>
      <trkpt lat="47.69684" lon="-2.26518">
        <ele>34.6</ele>
        <time>2021-05-27T11:05:29Z</time>
      </trkpt>
      <trkpt lat="47.69683" lon="-2.26522">
        <ele>34.6</ele>
        <time>2021-05-27T11:05:30Z</time>
      </trkpt>
      <trkpt lat="47.69681" lon="-2.26525">
        <ele>34.6</ele>
        <time>2021-05-27T11:05:31Z</time>
      </trkpt>
      <trkpt lat="47.69679" lon="-2.26529">
        <ele>34.5</ele>
        <time>2021-05-27T11:05:32Z</time>
      </trkpt>
      <trkpt lat="47.69677" lon="-2.26532">
        <ele>34.5</ele>
        <time>2021-05-27T11:05:33Z</time>
      </trkpt>
      <trkpt lat="47.69675" lon="-2.26536">
        <ele>34.4</ele>
        <time>2021-05-27T11:05:34Z</time>
      </trkpt>
      <trkpt lat="47.69674" lon="-2.26539">
        <ele>34.3</ele>
        <time>2021-05-27T11:05:35Z</time>
      </trkpt>
      <trkpt lat="47.69672" lon="-2.26542">
        <ele>34.3</ele>
        <time>2021-05-27T11:05:36Z</time>
      </trkpt>
      <trkpt lat="47.69671" lon="-2.26545">
        <ele>34.1</ele>
        <time>2021-05-27T11:05:37Z</time>
      </trkpt>
      <trkpt lat="47.69669" lon="-2.26549">
        <ele>34.1</ele>
        <time>2021-05-27T11:05:38Z</time>
      </trkpt>
      <trkpt lat="47.69666" lon="-2.26554">
        <ele>33.9</ele>
        <time>2021-05-27T11:05:39Z</time>
      </trkpt>
      <trkpt lat="47.69664" lon="-2.26558">
        <ele>34</ele>
        <time>2021-05-27T11:05:40Z</time>
      </trkpt>
      <trkpt lat="47.69663" lon="-2.26561">
        <ele>34.1</ele>
        <time>2021-05-27T11:05:41Z</time>
      </trkpt>
      <trkpt lat="47.69663" lon="-2.26563">
        <ele>34.1</ele>
        <time>2021-05-27T11:05:42Z</time>
      </trkpt>
      <trkpt lat="47.69662" lon="-2.26567">
        <ele>34.2</ele>
        <time>2021-05-27T11:05:43Z</time>
      </trkpt>
      <trkpt lat="47.69661" lon="-2.26571">
        <ele>34.3</ele>
        <time>2021-05-27T11:05:44Z</time>
      </trkpt>
      <trkpt lat="47.69659" lon="-2.26575">
        <ele>34.3</ele>
        <time>2021-05-27T11:05:45Z</time>
      </trkpt>
      <trkpt lat="47.69657" lon="-2.26579">
        <ele>34.4</ele>
        <time>2021-05-27T11:05:46Z</time>
      </trkpt>
      <trkpt lat="47.69655" lon="-2.26585">
        <ele>34.5</ele>
        <time>2021-05-27T11:05:47Z</time>
      </trkpt>
      <trkpt lat="47.69653" lon="-2.26589">
        <ele>34.4</ele>
        <time>2021-05-27T11:05:48Z</time>
      </trkpt>
      <trkpt lat="47.69651" lon="-2.26594">
        <ele>34.4</ele>
        <time>2021-05-27T11:05:49Z</time>
      </trkpt>
      <trkpt lat="47.69649" lon="-2.26598">
        <ele>34.3</ele>
        <time>2021-05-27T11:05:50Z</time>
      </trkpt>
      <trkpt lat="47.69648" lon="-2.26601">
        <ele>34.3</ele>
        <time>2021-05-27T11:05:51Z</time>
      </trkpt>
      <trkpt lat="47.69647" lon="-2.26603">
        <ele>34.3</ele>
        <time>2021-05-27T11:05:52Z</time>
      </trkpt>
      <trkpt lat="47.69646" lon="-2.26605">
        <ele>34.3</ele>
        <time>2021-05-27T11:05:53Z</time>
      </trkpt>
      <trkpt lat="47.69645" lon="-2.26607">
        <ele>34.3</ele>
        <time>2021-05-27T11:05:54Z</time>
      </trkpt>
      <trkpt lat="47.69645" lon="-2.26609">
        <ele>34.3</ele>
        <time>2021-05-27T11:05:55Z</time>
      </trkpt>
      <trkpt lat="47.69643" lon="-2.26612">
        <ele>34.2</ele>
        <time>2021-05-27T11:05:56Z</time>
      </trkpt>
      <trkpt lat="47.69642" lon="-2.26615">
        <ele>34.2</ele>
        <time>2021-05-27T11:05:57Z</time>
      </trkpt>
      <trkpt lat="47.6964" lon="-2.26617">
        <ele>34.1</ele>
        <time>2021-05-27T11:05:58Z</time>
      </trkpt>
      <trkpt lat="47.69639" lon="-2.2662">
        <ele>34.1</ele>
        <time>2021-05-27T11:05:59Z</time>
      </trkpt>
      <trkpt lat="47.69638" lon="-2.26625">
        <ele>34.1</ele>
        <time>2021-05-27T11:06:00Z</time>
      </trkpt>
      <trkpt lat="47.69638" lon="-2.26631">
        <ele>34.2</ele>
        <time>2021-05-27T11:06:01Z</time>
      </trkpt>
      <trkpt lat="47.69637" lon="-2.26636">
        <ele>34.2</ele>
        <time>2021-05-27T11:06:02Z</time>
      </trkpt>
      <trkpt lat="47.69636" lon="-2.26641">
        <ele>34.2</ele>
        <time>2021-05-27T11:06:03Z</time>
      </trkpt>
      <trkpt lat="47.69635" lon="-2.26648">
        <ele>34.3</ele>
        <time>2021-05-27T11:06:04Z</time>
      </trkpt>
      <trkpt lat="47.69634" lon="-2.26654">
        <ele>34.3</ele>
        <time>2021-05-27T11:06:05Z</time>
      </trkpt>
      <trkpt lat="47.69633" lon="-2.26661">
        <ele>34.3</ele>
        <time>2021-05-27T11:06:06Z</time>
      </trkpt>
      <trkpt lat="47.69632" lon="-2.26672">
        <ele>34.4</ele>
        <time>2021-05-27T11:06:07Z</time>
      </trkpt>
      <trkpt lat="47.69632" lon="-2.26681">
        <ele>34.6</ele>
        <time>2021-05-27T11:06:08Z</time>
      </trkpt>
      <trkpt lat="47.69631" lon="-2.26689">
        <ele>34.8</ele>
        <time>2021-05-27T11:06:09Z</time>
      </trkpt>
      <trkpt lat="47.69631" lon="-2.26697">
        <ele>34.9</ele>
        <time>2021-05-27T11:06:10Z</time>
      </trkpt>
      <trkpt lat="47.69631" lon="-2.26706">
        <ele>35.1</ele>
        <time>2021-05-27T11:06:11Z</time>
      </trkpt>
      <trkpt lat="47.69631" lon="-2.26713">
        <ele>35.2</ele>
        <time>2021-05-27T11:06:12Z</time>
      </trkpt>
      <trkpt lat="47.69632" lon="-2.26719">
        <ele>35.4</ele>
        <time>2021-05-27T11:06:13Z</time>
      </trkpt>
      <trkpt lat="47.69632" lon="-2.26726">
        <ele>35.6</ele>
        <time>2021-05-27T11:06:14Z</time>
      </trkpt>
      <trkpt lat="47.69632" lon="-2.26733">
        <ele>35.7</ele>
        <time>2021-05-27T11:06:15Z</time>
      </trkpt>
      <trkpt lat="47.69632" lon="-2.26739">
        <ele>35.8</ele>
        <time>2021-05-27T11:06:16Z</time>
      </trkpt>
      <trkpt lat="47.69632" lon="-2.26744">
        <ele>35.9</ele>
        <time>2021-05-27T11:06:17Z</time>
      </trkpt>
      <trkpt lat="47.69632" lon="-2.2675">
        <ele>36</ele>
        <time>2021-05-27T11:06:18Z</time>
      </trkpt>
      <trkpt lat="47.69631" lon="-2.26754">
        <ele>36</ele>
        <time>2021-05-27T11:06:19Z</time>
      </trkpt>
      <trkpt lat="47.69632" lon="-2.26759">
        <ele>35.9</ele>
        <time>2021-05-27T11:06:20Z</time>
      </trkpt>
      <trkpt lat="47.69631" lon="-2.26765">
        <ele>35.8</ele>
        <time>2021-05-27T11:06:21Z</time>
      </trkpt>
      <trkpt lat="47.69631" lon="-2.2677">
        <ele>35.7</ele>
        <time>2021-05-27T11:06:22Z</time>
      </trkpt>
      <trkpt lat="47.69631" lon="-2.26776">
        <ele>35.6</ele>
        <time>2021-05-27T11:06:23Z</time>
      </trkpt>
      <trkpt lat="47.69632" lon="-2.26782">
        <ele>35.5</ele>
        <time>2021-05-27T11:06:24Z</time>
      </trkpt>
      <trkpt lat="47.69633" lon="-2.26788">
        <ele>35.5</ele>
        <time>2021-05-27T11:06:25Z</time>
      </trkpt>
      <trkpt lat="47.69633" lon="-2.26792">
        <ele>35.5</ele>
        <time>2021-05-27T11:06:26Z</time>
      </trkpt>
      <trkpt lat="47.69633" lon="-2.26798">
        <ele>35.4</ele>
        <time>2021-05-27T11:06:27Z</time>
      </trkpt>
      <trkpt lat="47.69634" lon="-2.26803">
        <ele>35.3</ele>
        <time>2021-05-27T11:06:28Z</time>
      </trkpt>
      <trkpt lat="47.69634" lon="-2.26808">
        <ele>35.3</ele>
        <time>2021-05-27T11:06:29Z</time>
      </trkpt>
      <trkpt lat="47.69635" lon="-2.26814">
        <ele>35.3</ele>
        <time>2021-05-27T11:06:30Z</time>
      </trkpt>
      <trkpt lat="47.69637" lon="-2.26819">
        <ele>35.4</ele>
        <time>2021-05-27T11:06:31Z</time>
      </trkpt>
      <trkpt lat="47.69638" lon="-2.26824">
        <ele>35.4</ele>
        <time>2021-05-27T11:06:32Z</time>
      </trkpt>
      <trkpt lat="47.69638" lon="-2.26831">
        <ele>35.3</ele>
        <time>2021-05-27T11:06:33Z</time>
      </trkpt>
      <trkpt lat="47.6964" lon="-2.26836">
        <ele>35.4</ele>
        <time>2021-05-27T11:06:34Z</time>
      </trkpt>
      <trkpt lat="47.69641" lon="-2.26842">
        <ele>35.5</ele>
        <time>2021-05-27T11:06:35Z</time>
      </trkpt>
      <trkpt lat="47.69642" lon="-2.26849">
        <ele>35.6</ele>
        <time>2021-05-27T11:06:36Z</time>
      </trkpt>
      <trkpt lat="47.69644" lon="-2.26856">
        <ele>35.7</ele>
        <time>2021-05-27T11:06:37Z</time>
      </trkpt>
      <trkpt lat="47.69645" lon="-2.26863">
        <ele>35.8</ele>
        <time>2021-05-27T11:06:38Z</time>
      </trkpt>
      <trkpt lat="47.69646" lon="-2.26868">
        <ele>35.9</ele>
        <time>2021-05-27T11:06:39Z</time>
      </trkpt>
      <trkpt lat="47.69647" lon="-2.26874">
        <ele>36</ele>
        <time>2021-05-27T11:06:40Z</time>
      </trkpt>
      <trkpt lat="47.69646" lon="-2.2688">
        <ele>35.9</ele>
        <time>2021-05-27T11:06:41Z</time>
      </trkpt>
      <trkpt lat="47.69646" lon="-2.26884">
        <ele>35.8</ele>
        <time>2021-05-27T11:06:42Z</time>
      </trkpt>
      <trkpt lat="47.69645" lon="-2.26888">
        <ele>35.8</ele>
        <time>2021-05-27T11:06:43Z</time>
      </trkpt>
      <trkpt lat="47.69645" lon="-2.2689">
        <ele>35.8</ele>
        <time>2021-05-27T11:06:44Z</time>
      </trkpt>
      <trkpt lat="47.69647" lon="-2.26894">
        <ele>35.9</ele>
        <time>2021-05-27T11:06:45Z</time>
      </trkpt>
      <trkpt lat="47.69647" lon="-2.26899">
        <ele>35.9</ele>
        <time>2021-05-27T11:06:46Z</time>
      </trkpt>
      <trkpt lat="47.69647" lon="-2.26903">
        <ele>35.9</ele>
        <time>2021-05-27T11:06:47Z</time>
      </trkpt>
      <trkpt lat="47.69647" lon="-2.26909">
        <ele>35.9</ele>
        <time>2021-05-27T11:06:48Z</time>
      </trkpt>
      <trkpt lat="47.69647" lon="-2.26914">
        <ele>35.9</ele>
        <time>2021-05-27T11:06:49Z</time>
      </trkpt>
      <trkpt lat="47.69647" lon="-2.26919">
        <ele>35.9</ele>
        <time>2021-05-27T11:06:50Z</time>
      </trkpt>
      <trkpt lat="47.69648" lon="-2.26925">
        <ele>36.2</ele>
        <time>2021-05-27T11:06:51Z</time>
      </trkpt>
      <trkpt lat="47.69649" lon="-2.2693">
        <ele>36.4</ele>
        <time>2021-05-27T11:06:52Z</time>
      </trkpt>
      <trkpt lat="47.6965" lon="-2.26934">
        <ele>36.6</ele>
        <time>2021-05-27T11:06:53Z</time>
      </trkpt>
      <trkpt lat="47.69651" lon="-2.26939">
        <ele>36.8</ele>
        <time>2021-05-27T11:06:54Z</time>
      </trkpt>
      <trkpt lat="47.69652" lon="-2.26942">
        <ele>37</ele>
        <time>2021-05-27T11:06:55Z</time>
      </trkpt>
      <trkpt lat="47.69653" lon="-2.26946">
        <ele>37.2</ele>
        <time>2021-05-27T11:06:56Z</time>
      </trkpt>
      <trkpt lat="47.69654" lon="-2.26949">
        <ele>37.4</ele>
        <time>2021-05-27T11:06:57Z</time>
      </trkpt>
      <trkpt lat="47.69655" lon="-2.26952">
        <ele>37.5</ele>
        <time>2021-05-27T11:06:58Z</time>
      </trkpt>
      <trkpt lat="47.69655" lon="-2.26956">
        <ele>37.7</ele>
        <time>2021-05-27T11:06:59Z</time>
      </trkpt>
      <trkpt lat="47.69655" lon="-2.26959">
        <ele>37.8</ele>
        <time>2021-05-27T11:07:00Z</time>
      </trkpt>
      <trkpt lat="47.69657" lon="-2.26964">
        <ele>38.1</ele>
        <time>2021-05-27T11:07:01Z</time>
      </trkpt>
      <trkpt lat="47.69658" lon="-2.26967">
        <ele>38.3</ele>
        <time>2021-05-27T11:07:02Z</time>
      </trkpt>
      <trkpt lat="47.6966" lon="-2.26972">
        <ele>38.6</ele>
        <time>2021-05-27T11:07:03Z</time>
      </trkpt>
      <trkpt lat="47.69661" lon="-2.26974">
        <ele>38.7</ele>
        <time>2021-05-27T11:07:04Z</time>
      </trkpt>
      <trkpt lat="47.69662" lon="-2.26978">
        <ele>38.9</ele>
        <time>2021-05-27T11:07:05Z</time>
      </trkpt>
      <trkpt lat="47.69664" lon="-2.26984">
        <ele>39.4</ele>
        <time>2021-05-27T11:07:06Z</time>
      </trkpt>
      <trkpt lat="47.69666" lon="-2.26988">
        <ele>39.6</ele>
        <time>2021-05-27T11:07:07Z</time>
      </trkpt>
      <trkpt lat="47.69667" lon="-2.26992">
        <ele>39.9</ele>
        <time>2021-05-27T11:07:08Z</time>
      </trkpt>
      <trkpt lat="47.69668" lon="-2.26996">
        <ele>40.2</ele>
        <time>2021-05-27T11:07:09Z</time>
      </trkpt>
      <trkpt lat="47.69669" lon="-2.27001">
        <ele>40.4</ele>
        <time>2021-05-27T11:07:10Z</time>
      </trkpt>
      <trkpt lat="47.6967" lon="-2.27006">
        <ele>40.2</ele>
        <time>2021-05-27T11:07:11Z</time>
      </trkpt>
      <trkpt lat="47.69672" lon="-2.27011">
        <ele>40.3</ele>
        <time>2021-05-27T11:07:12Z</time>
      </trkpt>
      <trkpt lat="47.69672" lon="-2.27015">
        <ele>40.2</ele>
        <time>2021-05-27T11:07:13Z</time>
      </trkpt>
      <trkpt lat="47.69673" lon="-2.2702">
        <ele>40.1</ele>
        <time>2021-05-27T11:07:14Z</time>
      </trkpt>
      <trkpt lat="47.69673" lon="-2.27024">
        <ele>39.9</ele>
        <time>2021-05-27T11:07:15Z</time>
      </trkpt>
      <trkpt lat="47.69675" lon="-2.27028">
        <ele>40</ele>
        <time>2021-05-27T11:07:16Z</time>
      </trkpt>
      <trkpt lat="47.69675" lon="-2.27033">
        <ele>39.9</ele>
        <time>2021-05-27T11:07:17Z</time>
      </trkpt>
      <trkpt lat="47.69675" lon="-2.27037">
        <ele>39.8</ele>
        <time>2021-05-27T11:07:18Z</time>
      </trkpt>
      <trkpt lat="47.69677" lon="-2.27041">
        <ele>39.8</ele>
        <time>2021-05-27T11:07:19Z</time>
      </trkpt>
      <trkpt lat="47.69677" lon="-2.27046">
        <ele>39.7</ele>
        <time>2021-05-27T11:07:20Z</time>
      </trkpt>
      <trkpt lat="47.69678" lon="-2.27049">
        <ele>39.8</ele>
        <time>2021-05-27T11:07:21Z</time>
      </trkpt>
      <trkpt lat="47.69678" lon="-2.27053">
        <ele>39.6</ele>
        <time>2021-05-27T11:07:22Z</time>
      </trkpt>
      <trkpt lat="47.69679" lon="-2.27055">
        <ele>39.6</ele>
        <time>2021-05-27T11:07:23Z</time>
      </trkpt>
      <trkpt lat="47.69678" lon="-2.27058">
        <ele>39.4</ele>
        <time>2021-05-27T11:07:24Z</time>
      </trkpt>
      <trkpt lat="47.69678" lon="-2.27063">
        <ele>39.2</ele>
        <time>2021-05-27T11:07:25Z</time>
      </trkpt>
      <trkpt lat="47.69678" lon="-2.27068">
        <ele>38.9</ele>
        <time>2021-05-27T11:07:26Z</time>
      </trkpt>
      <trkpt lat="47.69679" lon="-2.27076">
        <ele>38.8</ele>
        <time>2021-05-27T11:07:27Z</time>
      </trkpt>
      <trkpt lat="47.69681" lon="-2.27083">
        <ele>39</ele>
        <time>2021-05-27T11:07:28Z</time>
      </trkpt>
      <trkpt lat="47.69683" lon="-2.27089">
        <ele>39.2</ele>
        <time>2021-05-27T11:07:29Z</time>
      </trkpt>
      <trkpt lat="47.69684" lon="-2.27095">
        <ele>39.4</ele>
        <time>2021-05-27T11:07:30Z</time>
      </trkpt>
      <trkpt lat="47.69687" lon="-2.27101">
        <ele>39.7</ele>
        <time>2021-05-27T11:07:31Z</time>
      </trkpt>
      <trkpt lat="47.69689" lon="-2.27108">
        <ele>39.9</ele>
        <time>2021-05-27T11:07:32Z</time>
      </trkpt>
      <trkpt lat="47.69691" lon="-2.27117">
        <ele>40.1</ele>
        <time>2021-05-27T11:07:33Z</time>
      </trkpt>
      <trkpt lat="47.69693" lon="-2.27123">
        <ele>40.3</ele>
        <time>2021-05-27T11:07:34Z</time>
      </trkpt>
      <trkpt lat="47.69694" lon="-2.27127">
        <ele>40.6</ele>
        <time>2021-05-27T11:07:35Z</time>
      </trkpt>
      <trkpt lat="47.69696" lon="-2.27131">
        <ele>40.8</ele>
        <time>2021-05-27T11:07:36Z</time>
      </trkpt>
      <trkpt lat="47.69698" lon="-2.27137">
        <ele>41.2</ele>
        <time>2021-05-27T11:07:37Z</time>
      </trkpt>
      <trkpt lat="47.697" lon="-2.27142">
        <ele>41.4</ele>
        <time>2021-05-27T11:07:38Z</time>
      </trkpt>
      <trkpt lat="47.69702" lon="-2.27148">
        <ele>41.6</ele>
        <time>2021-05-27T11:07:39Z</time>
      </trkpt>
      <trkpt lat="47.69703" lon="-2.27153">
        <ele>41.8</ele>
        <time>2021-05-27T11:07:40Z</time>
      </trkpt>
      <trkpt lat="47.69705" lon="-2.27157">
        <ele>42.1</ele>
        <time>2021-05-27T11:07:41Z</time>
      </trkpt>
      <trkpt lat="47.69707" lon="-2.27162">
        <ele>42.4</ele>
        <time>2021-05-27T11:07:42Z</time>
      </trkpt>
      <trkpt lat="47.69708" lon="-2.27166">
        <ele>42.5</ele>
        <time>2021-05-27T11:07:43Z</time>
      </trkpt>
      <trkpt lat="47.69709" lon="-2.2717">
        <ele>42.6</ele>
        <time>2021-05-27T11:07:44Z</time>
      </trkpt>
      <trkpt lat="47.69709" lon="-2.27173">
        <ele>42.6</ele>
        <time>2021-05-27T11:07:45Z</time>
      </trkpt>
      <trkpt lat="47.69709" lon="-2.27175">
        <ele>42.7</ele>
        <time>2021-05-27T11:07:46Z</time>
      </trkpt>
      <trkpt lat="47.69709" lon="-2.27178">
        <ele>42.6</ele>
        <time>2021-05-27T11:07:47Z</time>
      </trkpt>
      <trkpt lat="47.6971" lon="-2.27182">
        <ele>42.7</ele>
        <time>2021-05-27T11:07:48Z</time>
      </trkpt>
      <trkpt lat="47.69709" lon="-2.27184">
        <ele>42.7</ele>
        <time>2021-05-27T11:07:49Z</time>
      </trkpt>
      <trkpt lat="47.69709" lon="-2.27187">
        <ele>42.7</ele>
        <time>2021-05-27T11:07:50Z</time>
      </trkpt>
      <trkpt lat="47.6971" lon="-2.2719">
        <ele>42.8</ele>
        <time>2021-05-27T11:07:51Z</time>
      </trkpt>
      <trkpt lat="47.6971" lon="-2.27194">
        <ele>42.8</ele>
        <time>2021-05-27T11:07:52Z</time>
      </trkpt>
      <trkpt lat="47.6971" lon="-2.27199">
        <ele>42.8</ele>
        <time>2021-05-27T11:07:53Z</time>
      </trkpt>
      <trkpt lat="47.6971" lon="-2.27202">
        <ele>42.8</ele>
        <time>2021-05-27T11:07:54Z</time>
      </trkpt>
      <trkpt lat="47.69709" lon="-2.27205">
        <ele>42.7</ele>
        <time>2021-05-27T11:07:55Z</time>
      </trkpt>
      <trkpt lat="47.69709" lon="-2.27205">
        <ele>42.6</ele>
        <time>2021-05-27T11:07:56Z</time>
      </trkpt>
      <trkpt lat="47.69708" lon="-2.27207">
        <ele>42.5</ele>
        <time>2021-05-27T11:07:57Z</time>
      </trkpt>
      <trkpt lat="47.69709" lon="-2.27208">
        <ele>42.7</ele>
        <time>2021-05-27T11:07:58Z</time>
      </trkpt>
      <trkpt lat="47.6971" lon="-2.27209">
        <ele>42.8</ele>
        <time>2021-05-27T11:07:59Z</time>
      </trkpt>
      <trkpt lat="47.6971" lon="-2.2721">
        <ele>42.9</ele>
        <time>2021-05-27T11:08:00Z</time>
      </trkpt>
      <trkpt lat="47.6971" lon="-2.27211">
        <ele>42.9</ele>
        <time>2021-05-27T11:08:01Z</time>
      </trkpt>
      <trkpt lat="47.6971" lon="-2.27211">
        <ele>42.9</ele>
        <time>2021-05-27T11:08:02Z</time>
      </trkpt>
      <trkpt lat="47.6971" lon="-2.27211">
        <ele>42.9</ele>
        <time>2021-05-27T11:08:03Z</time>
      </trkpt>
      <trkpt lat="47.69714" lon="-2.27216">
        <ele>43.5</ele>
        <time>2021-05-27T11:08:04Z</time>
      </trkpt>
      <trkpt lat="47.69715" lon="-2.27217">
        <ele>43.8</ele>
        <time>2021-05-27T11:08:05Z</time>
      </trkpt>
      <trkpt lat="47.69714" lon="-2.27218">
        <ele>43.7</ele>
        <time>2021-05-27T11:08:06Z</time>
      </trkpt>
      <trkpt lat="47.69714" lon="-2.27224">
        <ele>43.7</ele>
        <time>2021-05-27T11:08:07Z</time>
      </trkpt>
      <trkpt lat="47.69713" lon="-2.27228">
        <ele>43.4</ele>
        <time>2021-05-27T11:08:08Z</time>
      </trkpt>
      <trkpt lat="47.69715" lon="-2.27231">
        <ele>43.7</ele>
        <time>2021-05-27T11:08:09Z</time>
      </trkpt>
      <trkpt lat="47.69716" lon="-2.27235">
        <ele>43.9</ele>
        <time>2021-05-27T11:08:10Z</time>
      </trkpt>
      <trkpt lat="47.69715" lon="-2.27238">
        <ele>43.8</ele>
        <time>2021-05-27T11:08:11Z</time>
      </trkpt>
      <trkpt lat="47.69714" lon="-2.27242">
        <ele>43.6</ele>
        <time>2021-05-27T11:08:12Z</time>
      </trkpt>
      <trkpt lat="47.69714" lon="-2.27245">
        <ele>43.4</ele>
        <time>2021-05-27T11:08:13Z</time>
      </trkpt>
      <trkpt lat="47.69714" lon="-2.27249">
        <ele>43.5</ele>
        <time>2021-05-27T11:08:14Z</time>
      </trkpt>
      <trkpt lat="47.69714" lon="-2.27252">
        <ele>43.5</ele>
        <time>2021-05-27T11:08:15Z</time>
      </trkpt>
      <trkpt lat="47.69714" lon="-2.27255">
        <ele>43.5</ele>
        <time>2021-05-27T11:08:16Z</time>
      </trkpt>
      <trkpt lat="47.69715" lon="-2.27258">
        <ele>43.7</ele>
        <time>2021-05-27T11:08:17Z</time>
      </trkpt>
      <trkpt lat="47.69717" lon="-2.27261">
        <ele>44.1</ele>
        <time>2021-05-27T11:08:18Z</time>
      </trkpt>
      <trkpt lat="47.69717" lon="-2.27265">
        <ele>44.1</ele>
        <time>2021-05-27T11:08:19Z</time>
      </trkpt>
      <trkpt lat="47.69717" lon="-2.27269">
        <ele>44.1</ele>
        <time>2021-05-27T11:08:20Z</time>
      </trkpt>
      <trkpt lat="47.69718" lon="-2.27273">
        <ele>44.2</ele>
        <time>2021-05-27T11:08:21Z</time>
      </trkpt>
      <trkpt lat="47.69719" lon="-2.27278">
        <ele>44.3</ele>
        <time>2021-05-27T11:08:22Z</time>
      </trkpt>
      <trkpt lat="47.6972" lon="-2.27284">
        <ele>44.5</ele>
        <time>2021-05-27T11:08:23Z</time>
      </trkpt>
      <trkpt lat="47.69722" lon="-2.27288">
        <ele>44.8</ele>
        <time>2021-05-27T11:08:24Z</time>
      </trkpt>
      <trkpt lat="47.69722" lon="-2.27292">
        <ele>44.7</ele>
        <time>2021-05-27T11:08:25Z</time>
      </trkpt>
      <trkpt lat="47.69721" lon="-2.27297">
        <ele>44.7</ele>
        <time>2021-05-27T11:08:26Z</time>
      </trkpt>
      <trkpt lat="47.69721" lon="-2.27301">
        <ele>44.6</ele>
        <time>2021-05-27T11:08:27Z</time>
      </trkpt>
      <trkpt lat="47.6972" lon="-2.27306">
        <ele>44.5</ele>
        <time>2021-05-27T11:08:28Z</time>
      </trkpt>
      <trkpt lat="47.69721" lon="-2.27312">
        <ele>44.6</ele>
        <time>2021-05-27T11:08:29Z</time>
      </trkpt>
      <trkpt lat="47.6972" lon="-2.27316">
        <ele>44.5</ele>
        <time>2021-05-27T11:08:30Z</time>
      </trkpt>
      <trkpt lat="47.69722" lon="-2.27321">
        <ele>44.6</ele>
        <time>2021-05-27T11:08:31Z</time>
      </trkpt>
      <trkpt lat="47.69722" lon="-2.27325">
        <ele>44.7</ele>
        <time>2021-05-27T11:08:32Z</time>
      </trkpt>
      <trkpt lat="47.69723" lon="-2.2733">
        <ele>44.8</ele>
        <time>2021-05-27T11:08:33Z</time>
      </trkpt>
      <trkpt lat="47.69724" lon="-2.27335">
        <ele>45.1</ele>
        <time>2021-05-27T11:08:34Z</time>
      </trkpt>
      <trkpt lat="47.69726" lon="-2.27339">
        <ele>45.3</ele>
        <time>2021-05-27T11:08:35Z</time>
      </trkpt>
      <trkpt lat="47.69727" lon="-2.27344">
        <ele>45.6</ele>
        <time>2021-05-27T11:08:36Z</time>
      </trkpt>
      <trkpt lat="47.69728" lon="-2.2735">
        <ele>46</ele>
        <time>2021-05-27T11:08:37Z</time>
      </trkpt>
      <trkpt lat="47.69729" lon="-2.27354">
        <ele>46.2</ele>
        <time>2021-05-27T11:08:38Z</time>
      </trkpt>
      <trkpt lat="47.6973" lon="-2.27359">
        <ele>46.5</ele>
        <time>2021-05-27T11:08:39Z</time>
      </trkpt>
      <trkpt lat="47.69732" lon="-2.27364">
        <ele>46.8</ele>
        <time>2021-05-27T11:08:40Z</time>
      </trkpt>
      <trkpt lat="47.69732" lon="-2.27368">
        <ele>46.9</ele>
        <time>2021-05-27T11:08:41Z</time>
      </trkpt>
      <trkpt lat="47.69732" lon="-2.27372">
        <ele>47</ele>
        <time>2021-05-27T11:08:42Z</time>
      </trkpt>
      <trkpt lat="47.69733" lon="-2.27376">
        <ele>47.3</ele>
        <time>2021-05-27T11:08:43Z</time>
      </trkpt>
      <trkpt lat="47.69734" lon="-2.2738">
        <ele>47.5</ele>
        <time>2021-05-27T11:08:44Z</time>
      </trkpt>
      <trkpt lat="47.69735" lon="-2.27385">
        <ele>47.7</ele>
        <time>2021-05-27T11:08:45Z</time>
      </trkpt>
      <trkpt lat="47.69735" lon="-2.27389">
        <ele>47.9</ele>
        <time>2021-05-27T11:08:46Z</time>
      </trkpt>
      <trkpt lat="47.69735" lon="-2.27396">
        <ele>48</ele>
        <time>2021-05-27T11:08:47Z</time>
      </trkpt>
      <trkpt lat="47.69734" lon="-2.27401">
        <ele>48</ele>
        <time>2021-05-27T11:08:48Z</time>
      </trkpt>
      <trkpt lat="47.69736" lon="-2.27405">
        <ele>48.4</ele>
        <time>2021-05-27T11:08:49Z</time>
      </trkpt>
      <trkpt lat="47.69737" lon="-2.2741">
        <ele>48.7</ele>
        <time>2021-05-27T11:08:50Z</time>
      </trkpt>
      <trkpt lat="47.69739" lon="-2.27414">
        <ele>49</ele>
        <time>2021-05-27T11:08:51Z</time>
      </trkpt>
      <trkpt lat="47.6974" lon="-2.27418">
        <ele>49.4</ele>
        <time>2021-05-27T11:08:52Z</time>
      </trkpt>
      <trkpt lat="47.69741" lon="-2.27423">
        <ele>49.7</ele>
        <time>2021-05-27T11:08:53Z</time>
      </trkpt>
      <trkpt lat="47.69741" lon="-2.27429">
        <ele>49.8</ele>
        <time>2021-05-27T11:08:54Z</time>
      </trkpt>
      <trkpt lat="47.69742" lon="-2.27435">
        <ele>50.3</ele>
        <time>2021-05-27T11:08:55Z</time>
      </trkpt>
      <trkpt lat="47.69743" lon="-2.27441">
        <ele>50.6</ele>
        <time>2021-05-27T11:08:56Z</time>
      </trkpt>
      <trkpt lat="47.69743" lon="-2.27446">
        <ele>50.9</ele>
        <time>2021-05-27T11:08:57Z</time>
      </trkpt>
      <trkpt lat="47.69745" lon="-2.27454">
        <ele>51.5</ele>
        <time>2021-05-27T11:08:58Z</time>
      </trkpt>
      <trkpt lat="47.69747" lon="-2.27462">
        <ele>52.2</ele>
        <time>2021-05-27T11:08:59Z</time>
      </trkpt>
      <trkpt lat="47.69749" lon="-2.27468">
        <ele>52.6</ele>
        <time>2021-05-27T11:09:00Z</time>
      </trkpt>
      <trkpt lat="47.6975" lon="-2.27475">
        <ele>53.1</ele>
        <time>2021-05-27T11:09:01Z</time>
      </trkpt>
      <trkpt lat="47.69753" lon="-2.27483">
        <ele>53.8</ele>
        <time>2021-05-27T11:09:02Z</time>
      </trkpt>
      <trkpt lat="47.69753" lon="-2.27488">
        <ele>54</ele>
        <time>2021-05-27T11:09:03Z</time>
      </trkpt>
      <trkpt lat="47.69753" lon="-2.27495">
        <ele>54.2</ele>
        <time>2021-05-27T11:09:04Z</time>
      </trkpt>
      <trkpt lat="47.69753" lon="-2.27501">
        <ele>54.3</ele>
        <time>2021-05-27T11:09:05Z</time>
      </trkpt>
      <trkpt lat="47.69753" lon="-2.27505">
        <ele>54.2</ele>
        <time>2021-05-27T11:09:06Z</time>
      </trkpt>
      <trkpt lat="47.69753" lon="-2.27509">
        <ele>54</ele>
        <time>2021-05-27T11:09:07Z</time>
      </trkpt>
      <trkpt lat="47.69753" lon="-2.27513">
        <ele>54</ele>
        <time>2021-05-27T11:09:08Z</time>
      </trkpt>
      <trkpt lat="47.69754" lon="-2.27517">
        <ele>53.9</ele>
        <time>2021-05-27T11:09:09Z</time>
      </trkpt>
      <trkpt lat="47.69754" lon="-2.27521">
        <ele>53.8</ele>
        <time>2021-05-27T11:09:10Z</time>
      </trkpt>
      <trkpt lat="47.69754" lon="-2.27525">
        <ele>53.7</ele>
        <time>2021-05-27T11:09:11Z</time>
      </trkpt>
      <trkpt lat="47.69756" lon="-2.2753">
        <ele>53.6</ele>
        <time>2021-05-27T11:09:12Z</time>
      </trkpt>
      <trkpt lat="47.69756" lon="-2.27534">
        <ele>53.6</ele>
        <time>2021-05-27T11:09:13Z</time>
      </trkpt>
      <trkpt lat="47.69757" lon="-2.2754">
        <ele>53.5</ele>
        <time>2021-05-27T11:09:14Z</time>
      </trkpt>
      <trkpt lat="47.69757" lon="-2.27545">
        <ele>53.3</ele>
        <time>2021-05-27T11:09:15Z</time>
      </trkpt>
      <trkpt lat="47.69758" lon="-2.2755">
        <ele>53.2</ele>
        <time>2021-05-27T11:09:16Z</time>
      </trkpt>
      <trkpt lat="47.69759" lon="-2.27555">
        <ele>53.2</ele>
        <time>2021-05-27T11:09:17Z</time>
      </trkpt>
      <trkpt lat="47.6976" lon="-2.27561">
        <ele>53.2</ele>
        <time>2021-05-27T11:09:18Z</time>
      </trkpt>
      <trkpt lat="47.69761" lon="-2.27567">
        <ele>53</ele>
        <time>2021-05-27T11:09:19Z</time>
      </trkpt>
      <trkpt lat="47.69762" lon="-2.27573">
        <ele>53</ele>
        <time>2021-05-27T11:09:20Z</time>
      </trkpt>
      <trkpt lat="47.69763" lon="-2.27579">
        <ele>52.9</ele>
        <time>2021-05-27T11:09:21Z</time>
      </trkpt>
      <trkpt lat="47.69764" lon="-2.27586">
        <ele>52.8</ele>
        <time>2021-05-27T11:09:22Z</time>
      </trkpt>
      <trkpt lat="47.69764" lon="-2.27592">
        <ele>52.7</ele>
        <time>2021-05-27T11:09:23Z</time>
      </trkpt>
      <trkpt lat="47.69765" lon="-2.27599">
        <ele>52.6</ele>
        <time>2021-05-27T11:09:24Z</time>
      </trkpt>
      <trkpt lat="47.69765" lon="-2.27605">
        <ele>52.5</ele>
        <time>2021-05-27T11:09:25Z</time>
      </trkpt>
      <trkpt lat="47.69766" lon="-2.2761">
        <ele>52.4</ele>
        <time>2021-05-27T11:09:26Z</time>
      </trkpt>
      <trkpt lat="47.69766" lon="-2.27615">
        <ele>52.3</ele>
        <time>2021-05-27T11:09:27Z</time>
      </trkpt>
      <trkpt lat="47.69765" lon="-2.2762">
        <ele>52.1</ele>
        <time>2021-05-27T11:09:28Z</time>
      </trkpt>
      <trkpt lat="47.69766" lon="-2.27625">
        <ele>52.1</ele>
        <time>2021-05-27T11:09:29Z</time>
      </trkpt>
      <trkpt lat="47.69766" lon="-2.2763">
        <ele>52</ele>
        <time>2021-05-27T11:09:30Z</time>
      </trkpt>
      <trkpt lat="47.69767" lon="-2.27634">
        <ele>52</ele>
        <time>2021-05-27T11:09:31Z</time>
      </trkpt>
      <trkpt lat="47.69767" lon="-2.27639">
        <ele>51.9</ele>
        <time>2021-05-27T11:09:32Z</time>
      </trkpt>
      <trkpt lat="47.69768" lon="-2.27643">
        <ele>51.9</ele>
        <time>2021-05-27T11:09:33Z</time>
      </trkpt>
      <trkpt lat="47.69768" lon="-2.27646">
        <ele>51.9</ele>
        <time>2021-05-27T11:09:34Z</time>
      </trkpt>
      <trkpt lat="47.69769" lon="-2.27651">
        <ele>51.9</ele>
        <time>2021-05-27T11:09:35Z</time>
      </trkpt>
      <trkpt lat="47.6977" lon="-2.27656">
        <ele>51.9</ele>
        <time>2021-05-27T11:09:36Z</time>
      </trkpt>
      <trkpt lat="47.69771" lon="-2.2766">
        <ele>52</ele>
        <time>2021-05-27T11:09:37Z</time>
      </trkpt>
      <trkpt lat="47.69773" lon="-2.27665">
        <ele>52</ele>
        <time>2021-05-27T11:09:38Z</time>
      </trkpt>
      <trkpt lat="47.69774" lon="-2.27671">
        <ele>52.2</ele>
        <time>2021-05-27T11:09:39Z</time>
      </trkpt>
      <trkpt lat="47.69775" lon="-2.27676">
        <ele>52.2</ele>
        <time>2021-05-27T11:09:40Z</time>
      </trkpt>
      <trkpt lat="47.69775" lon="-2.27681">
        <ele>52.2</ele>
        <time>2021-05-27T11:09:41Z</time>
      </trkpt>
      <trkpt lat="47.69776" lon="-2.27686">
        <ele>52.3</ele>
        <time>2021-05-27T11:09:42Z</time>
      </trkpt>
      <trkpt lat="47.69777" lon="-2.27691">
        <ele>52.4</ele>
        <time>2021-05-27T11:09:43Z</time>
      </trkpt>
      <trkpt lat="47.69778" lon="-2.27696">
        <ele>52.6</ele>
        <time>2021-05-27T11:09:44Z</time>
      </trkpt>
      <trkpt lat="47.69779" lon="-2.27701">
        <ele>52.7</ele>
        <time>2021-05-27T11:09:45Z</time>
      </trkpt>
      <trkpt lat="47.6978" lon="-2.27707">
        <ele>52.7</ele>
        <time>2021-05-27T11:09:46Z</time>
      </trkpt>
      <trkpt lat="47.6978" lon="-2.27712">
        <ele>52.7</ele>
        <time>2021-05-27T11:09:47Z</time>
      </trkpt>
      <trkpt lat="47.69781" lon="-2.2772">
        <ele>52.8</ele>
        <time>2021-05-27T11:09:48Z</time>
      </trkpt>
      <trkpt lat="47.69782" lon="-2.27726">
        <ele>52.9</ele>
        <time>2021-05-27T11:09:49Z</time>
      </trkpt>
      <trkpt lat="47.69783" lon="-2.27731">
        <ele>53.1</ele>
        <time>2021-05-27T11:09:50Z</time>
      </trkpt>
      <trkpt lat="47.69784" lon="-2.27736">
        <ele>53.2</ele>
        <time>2021-05-27T11:09:51Z</time>
      </trkpt>
      <trkpt lat="47.69785" lon="-2.2774">
        <ele>53.2</ele>
        <time>2021-05-27T11:09:52Z</time>
      </trkpt>
      <trkpt lat="47.69786" lon="-2.27746">
        <ele>53.3</ele>
        <time>2021-05-27T11:09:53Z</time>
      </trkpt>
      <trkpt lat="47.69788" lon="-2.27753">
        <ele>53.5</ele>
        <time>2021-05-27T11:09:54Z</time>
      </trkpt>
      <trkpt lat="47.6979" lon="-2.27758">
        <ele>53.7</ele>
        <time>2021-05-27T11:09:55Z</time>
      </trkpt>
      <trkpt lat="47.69791" lon="-2.27762">
        <ele>53.8</ele>
        <time>2021-05-27T11:09:56Z</time>
      </trkpt>
      <trkpt lat="47.69792" lon="-2.27767">
        <ele>53.9</ele>
        <time>2021-05-27T11:09:57Z</time>
      </trkpt>
      <trkpt lat="47.69793" lon="-2.27771">
        <ele>53.9</ele>
        <time>2021-05-27T11:09:58Z</time>
      </trkpt>
      <trkpt lat="47.69793" lon="-2.27774">
        <ele>53.9</ele>
        <time>2021-05-27T11:09:59Z</time>
      </trkpt>
      <trkpt lat="47.69792" lon="-2.27777">
        <ele>53.7</ele>
        <time>2021-05-27T11:10:00Z</time>
      </trkpt>
      <trkpt lat="47.69792" lon="-2.27778">
        <ele>53.7</ele>
        <time>2021-05-27T11:10:01Z</time>
      </trkpt>
      <trkpt lat="47.69793" lon="-2.27779">
        <ele>53.8</ele>
        <time>2021-05-27T11:10:02Z</time>
      </trkpt>
      <trkpt lat="47.69793" lon="-2.27779">
        <ele>53.8</ele>
        <time>2021-05-27T11:10:03Z</time>
      </trkpt>
      <trkpt lat="47.69793" lon="-2.27779">
        <ele>53.8</ele>
        <time>2021-05-27T11:10:04Z</time>
      </trkpt>
      <trkpt lat="47.69793" lon="-2.27779">
        <ele>53.8</ele>
        <time>2021-05-27T11:10:05Z</time>
      </trkpt>
      <trkpt lat="47.69793" lon="-2.27779">
        <ele>53.8</ele>
        <time>2021-05-27T11:10:06Z</time>
      </trkpt>
      <trkpt lat="47.69793" lon="-2.27779">
        <ele>53.8</ele>
        <time>2021-05-27T11:10:07Z</time>
      </trkpt>
      <trkpt lat="47.69793" lon="-2.27779">
        <ele>53.8</ele>
        <time>2021-05-27T11:10:08Z</time>
      </trkpt>
      <trkpt lat="47.69793" lon="-2.27779">
        <ele>53.8</ele>
        <time>2021-05-27T11:10:09Z</time>
      </trkpt>
      <trkpt lat="47.69793" lon="-2.27779">
        <ele>53.8</ele>
        <time>2021-05-27T11:10:10Z</time>
      </trkpt>
      <trkpt lat="47.69793" lon="-2.27779">
        <ele>53.8</ele>
        <time>2021-05-27T11:10:11Z</time>
      </trkpt>
      <trkpt lat="47.69793" lon="-2.27779">
        <ele>53.8</ele>
        <time>2021-05-27T11:10:12Z</time>
      </trkpt>
      <trkpt lat="47.69793" lon="-2.27779">
        <ele>53.8</ele>
        <time>2021-05-27T11:10:13Z</time>
      </trkpt>
      <trkpt lat="47.69796" lon="-2.27792">
        <ele>54.1</ele>
        <time>2021-05-27T11:10:14Z</time>
      </trkpt>
      <trkpt lat="47.69796" lon="-2.27793">
        <ele>54.1</ele>
        <time>2021-05-27T11:10:15Z</time>
      </trkpt>
      <trkpt lat="47.69796" lon="-2.27795">
        <ele>54</ele>
        <time>2021-05-27T11:10:16Z</time>
      </trkpt>
      <trkpt lat="47.69796" lon="-2.27797">
        <ele>54</ele>
        <time>2021-05-27T11:10:17Z</time>
      </trkpt>
      <trkpt lat="47.69796" lon="-2.27797">
        <ele>54</ele>
        <time>2021-05-27T11:10:18Z</time>
      </trkpt>
      <trkpt lat="47.69796" lon="-2.27797">
        <ele>54</ele>
        <time>2021-05-27T11:10:19Z</time>
      </trkpt>
      <trkpt lat="47.69796" lon="-2.27797">
        <ele>54</ele>
        <time>2021-05-27T11:10:20Z</time>
      </trkpt>
      <trkpt lat="47.69796" lon="-2.27797">
        <ele>54</ele>
        <time>2021-05-27T11:10:21Z</time>
      </trkpt>
      <trkpt lat="47.69796" lon="-2.27797">
        <ele>54</ele>
        <time>2021-05-27T11:10:22Z</time>
      </trkpt>
      <trkpt lat="47.69796" lon="-2.27797">
        <ele>54</ele>
        <time>2021-05-27T11:10:23Z</time>
      </trkpt>
      <trkpt lat="47.69796" lon="-2.27797">
        <ele>54</ele>
        <time>2021-05-27T11:10:24Z</time>
      </trkpt>
      <trkpt lat="47.69796" lon="-2.27797">
        <ele>54</ele>
        <time>2021-05-27T11:10:25Z</time>
      </trkpt>
      <trkpt lat="47.69795" lon="-2.27811">
        <ele>53.7</ele>
        <time>2021-05-27T11:10:26Z</time>
      </trkpt>
      <trkpt lat="47.69796" lon="-2.27817">
        <ele>53.7</ele>
        <time>2021-05-27T11:10:27Z</time>
      </trkpt>
      <trkpt lat="47.69795" lon="-2.27817">
        <ele>53.6</ele>
        <time>2021-05-27T11:10:28Z</time>
      </trkpt>
      <trkpt lat="47.69795" lon="-2.27817">
        <ele>53.6</ele>
        <time>2021-05-27T11:10:29Z</time>
      </trkpt>
      <trkpt lat="47.69795" lon="-2.27817">
        <ele>53.6</ele>
        <time>2021-05-27T11:10:30Z</time>
      </trkpt>
      <trkpt lat="47.69795" lon="-2.27817">
        <ele>53.6</ele>
        <time>2021-05-27T11:10:31Z</time>
      </trkpt>
      <trkpt lat="47.69795" lon="-2.27817">
        <ele>53.6</ele>
        <time>2021-05-27T11:10:32Z</time>
      </trkpt>
      <trkpt lat="47.69795" lon="-2.27817">
        <ele>53.6</ele>
        <time>2021-05-27T11:10:33Z</time>
      </trkpt>
      <trkpt lat="47.69795" lon="-2.27817">
        <ele>53.6</ele>
        <time>2021-05-27T11:10:34Z</time>
      </trkpt>
      <trkpt lat="47.69795" lon="-2.27817">
        <ele>53.6</ele>
        <time>2021-05-27T11:10:35Z</time>
      </trkpt>
      <trkpt lat="47.69795" lon="-2.27817">
        <ele>53.6</ele>
        <time>2021-05-27T11:10:36Z</time>
      </trkpt>
      <trkpt lat="47.69795" lon="-2.27817">
        <ele>53.6</ele>
        <time>2021-05-27T11:10:37Z</time>
      </trkpt>
      <trkpt lat="47.69795" lon="-2.27817">
        <ele>53.6</ele>
        <time>2021-05-27T11:10:38Z</time>
      </trkpt>
      <trkpt lat="47.69795" lon="-2.27817">
        <ele>53.6</ele>
        <time>2021-05-27T11:10:39Z</time>
      </trkpt>
      <trkpt lat="47.69795" lon="-2.27817">
        <ele>53.6</ele>
        <time>2021-05-27T11:10:40Z</time>
      </trkpt>
      <trkpt lat="47.69795" lon="-2.27817">
        <ele>53.6</ele>
        <time>2021-05-27T11:10:41Z</time>
      </trkpt>
      <trkpt lat="47.69795" lon="-2.27817">
        <ele>53.6</ele>
        <time>2021-05-27T11:10:42Z</time>
      </trkpt>
      <trkpt lat="47.69795" lon="-2.27817">
        <ele>53.6</ele>
        <time>2021-05-27T11:10:43Z</time>
      </trkpt>
      <trkpt lat="47.69795" lon="-2.27817">
        <ele>53.6</ele>
        <time>2021-05-27T11:10:44Z</time>
      </trkpt>
      <trkpt lat="47.69795" lon="-2.27817">
        <ele>53.6</ele>
        <time>2021-05-27T11:10:45Z</time>
      </trkpt>
      <trkpt lat="47.69795" lon="-2.27817">
        <ele>53.6</ele>
        <time>2021-05-27T11:10:46Z</time>
      </trkpt>
      <trkpt lat="47.69795" lon="-2.27817">
        <ele>53.6</ele>
        <time>2021-05-27T11:10:47Z</time>
      </trkpt>
      <trkpt lat="47.69795" lon="-2.27817">
        <ele>53.6</ele>
        <time>2021-05-27T11:10:48Z</time>
      </trkpt>
      <trkpt lat="47.69795" lon="-2.27817">
        <ele>53.6</ele>
        <time>2021-05-27T11:10:49Z</time>
      </trkpt>
      <trkpt lat="47.69795" lon="-2.27817">
        <ele>53.6</ele>
        <time>2021-05-27T11:10:50Z</time>
      </trkpt>
      <trkpt lat="47.69795" lon="-2.27817">
        <ele>53.6</ele>
        <time>2021-05-27T11:10:51Z</time>
      </trkpt>
      <trkpt lat="47.69795" lon="-2.27817">
        <ele>53.6</ele>
        <time>2021-05-27T11:10:52Z</time>
      </trkpt>
      <trkpt lat="47.69795" lon="-2.27817">
        <ele>53.6</ele>
        <time>2021-05-27T11:10:53Z</time>
      </trkpt>
      <trkpt lat="47.69795" lon="-2.27817">
        <ele>53.6</ele>
        <time>2021-05-27T11:10:54Z</time>
      </trkpt>
      <trkpt lat="47.69795" lon="-2.27817">
        <ele>53.6</ele>
        <time>2021-05-27T11:10:55Z</time>
      </trkpt>
      <trkpt lat="47.69795" lon="-2.27817">
        <ele>53.6</ele>
        <time>2021-05-27T11:10:56Z</time>
      </trkpt>
      <trkpt lat="47.69795" lon="-2.27817">
        <ele>53.6</ele>
        <time>2021-05-27T11:10:57Z</time>
      </trkpt>
      <trkpt lat="47.69795" lon="-2.27817">
        <ele>53.6</ele>
        <time>2021-05-27T11:10:58Z</time>
      </trkpt>
      <trkpt lat="47.69795" lon="-2.27817">
        <ele>53.6</ele>
        <time>2021-05-27T11:10:59Z</time>
      </trkpt>
      <trkpt lat="47.69795" lon="-2.27817">
        <ele>53.6</ele>
        <time>2021-05-27T11:11:00Z</time>
      </trkpt>
      <trkpt lat="47.69794" lon="-2.27833">
        <ele>53.3</ele>
        <time>2021-05-27T11:11:01Z</time>
      </trkpt>
      <trkpt lat="47.69794" lon="-2.27835">
        <ele>53.3</ele>
        <time>2021-05-27T11:11:02Z</time>
      </trkpt>
      <trkpt lat="47.69795" lon="-2.27839">
        <ele>53.3</ele>
        <time>2021-05-27T11:11:03Z</time>
      </trkpt>
      <trkpt lat="47.69796" lon="-2.27842">
        <ele>53.4</ele>
        <time>2021-05-27T11:11:04Z</time>
      </trkpt>
      <trkpt lat="47.69797" lon="-2.27847">
        <ele>53.6</ele>
        <time>2021-05-27T11:11:05Z</time>
      </trkpt>
      <trkpt lat="47.69798" lon="-2.27851">
        <ele>53.6</ele>
        <time>2021-05-27T11:11:06Z</time>
      </trkpt>
      <trkpt lat="47.69798" lon="-2.27855">
        <ele>53.7</ele>
        <time>2021-05-27T11:11:07Z</time>
      </trkpt>
      <trkpt lat="47.69799" lon="-2.27858">
        <ele>53.7</ele>
        <time>2021-05-27T11:11:08Z</time>
      </trkpt>
      <trkpt lat="47.698" lon="-2.27862">
        <ele>53.9</ele>
        <time>2021-05-27T11:11:09Z</time>
      </trkpt>
      <trkpt lat="47.69801" lon="-2.27867">
        <ele>53.9</ele>
        <time>2021-05-27T11:11:10Z</time>
      </trkpt>
      <trkpt lat="47.69802" lon="-2.27872">
        <ele>54</ele>
        <time>2021-05-27T11:11:11Z</time>
      </trkpt>
      <trkpt lat="47.69802" lon="-2.27876">
        <ele>54</ele>
        <time>2021-05-27T11:11:12Z</time>
      </trkpt>
      <trkpt lat="47.69802" lon="-2.2788">
        <ele>54.1</ele>
        <time>2021-05-27T11:11:13Z</time>
      </trkpt>
      <trkpt lat="47.69802" lon="-2.27885">
        <ele>54</ele>
        <time>2021-05-27T11:11:14Z</time>
      </trkpt>
      <trkpt lat="47.69802" lon="-2.27891">
        <ele>54</ele>
        <time>2021-05-27T11:11:15Z</time>
      </trkpt>
      <trkpt lat="47.69802" lon="-2.27897">
        <ele>54</ele>
        <time>2021-05-27T11:11:16Z</time>
      </trkpt>
      <trkpt lat="47.69802" lon="-2.27903">
        <ele>54</ele>
        <time>2021-05-27T11:11:17Z</time>
      </trkpt>
      <trkpt lat="47.69802" lon="-2.27908">
        <ele>53.9</ele>
        <time>2021-05-27T11:11:18Z</time>
      </trkpt>
      <trkpt lat="47.69802" lon="-2.27915">
        <ele>53.8</ele>
        <time>2021-05-27T11:11:19Z</time>
      </trkpt>
      <trkpt lat="47.69801" lon="-2.2792">
        <ele>53.7</ele>
        <time>2021-05-27T11:11:20Z</time>
      </trkpt>
      <trkpt lat="47.698" lon="-2.27926">
        <ele>53.5</ele>
        <time>2021-05-27T11:11:21Z</time>
      </trkpt>
      <trkpt lat="47.69798" lon="-2.27932">
        <ele>53.2</ele>
        <time>2021-05-27T11:11:22Z</time>
      </trkpt>
      <trkpt lat="47.69797" lon="-2.27938">
        <ele>53</ele>
        <time>2021-05-27T11:11:23Z</time>
      </trkpt>
      <trkpt lat="47.69797" lon="-2.27944">
        <ele>52.9</ele>
        <time>2021-05-27T11:11:24Z</time>
      </trkpt>
      <trkpt lat="47.69797" lon="-2.2795">
        <ele>52.9</ele>
        <time>2021-05-27T11:11:25Z</time>
      </trkpt>
      <trkpt lat="47.69798" lon="-2.27955">
        <ele>52.9</ele>
        <time>2021-05-27T11:11:26Z</time>
      </trkpt>
      <trkpt lat="47.69798" lon="-2.27962">
        <ele>52.8</ele>
        <time>2021-05-27T11:11:27Z</time>
      </trkpt>
      <trkpt lat="47.69798" lon="-2.27968">
        <ele>52.8</ele>
        <time>2021-05-27T11:11:28Z</time>
      </trkpt>
      <trkpt lat="47.69797" lon="-2.27975">
        <ele>52.6</ele>
        <time>2021-05-27T11:11:29Z</time>
      </trkpt>
      <trkpt lat="47.69797" lon="-2.27981">
        <ele>52.5</ele>
        <time>2021-05-27T11:11:30Z</time>
      </trkpt>
      <trkpt lat="47.69798" lon="-2.27988">
        <ele>52.6</ele>
        <time>2021-05-27T11:11:31Z</time>
      </trkpt>
      <trkpt lat="47.69799" lon="-2.27993">
        <ele>52.7</ele>
        <time>2021-05-27T11:11:32Z</time>
      </trkpt>
      <trkpt lat="47.698" lon="-2.27998">
        <ele>52.8</ele>
        <time>2021-05-27T11:11:33Z</time>
      </trkpt>
      <trkpt lat="47.698" lon="-2.28004">
        <ele>52.8</ele>
        <time>2021-05-27T11:11:34Z</time>
      </trkpt>
      <trkpt lat="47.69801" lon="-2.2801">
        <ele>52.8</ele>
        <time>2021-05-27T11:11:35Z</time>
      </trkpt>
      <trkpt lat="47.69802" lon="-2.28016">
        <ele>52.9</ele>
        <time>2021-05-27T11:11:36Z</time>
      </trkpt>
      <trkpt lat="47.69802" lon="-2.28022">
        <ele>53</ele>
        <time>2021-05-27T11:11:37Z</time>
      </trkpt>
      <trkpt lat="47.69803" lon="-2.28029">
        <ele>53</ele>
        <time>2021-05-27T11:11:38Z</time>
      </trkpt>
      <trkpt lat="47.69803" lon="-2.28037">
        <ele>52.8</ele>
        <time>2021-05-27T11:11:39Z</time>
      </trkpt>
      <trkpt lat="47.69802" lon="-2.28045">
        <ele>52.7</ele>
        <time>2021-05-27T11:11:40Z</time>
      </trkpt>
      <trkpt lat="47.69802" lon="-2.28053">
        <ele>52.6</ele>
        <time>2021-05-27T11:11:41Z</time>
      </trkpt>
      <trkpt lat="47.69803" lon="-2.2806">
        <ele>52.6</ele>
        <time>2021-05-27T11:11:42Z</time>
      </trkpt>
      <trkpt lat="47.69803" lon="-2.28067">
        <ele>52.6</ele>
        <time>2021-05-27T11:11:43Z</time>
      </trkpt>
      <trkpt lat="47.69804" lon="-2.28074">
        <ele>52.6</ele>
        <time>2021-05-27T11:11:44Z</time>
      </trkpt>
      <trkpt lat="47.69805" lon="-2.28081">
        <ele>52.6</ele>
        <time>2021-05-27T11:11:45Z</time>
      </trkpt>
      <trkpt lat="47.69806" lon="-2.28087">
        <ele>52.7</ele>
        <time>2021-05-27T11:11:46Z</time>
      </trkpt>
      <trkpt lat="47.69806" lon="-2.28093">
        <ele>52.6</ele>
        <time>2021-05-27T11:11:47Z</time>
      </trkpt>
      <trkpt lat="47.69806" lon="-2.28099">
        <ele>52.7</ele>
        <time>2021-05-27T11:11:48Z</time>
      </trkpt>
      <trkpt lat="47.69807" lon="-2.28105">
        <ele>52.7</ele>
        <time>2021-05-27T11:11:49Z</time>
      </trkpt>
      <trkpt lat="47.69808" lon="-2.28111">
        <ele>52.7</ele>
        <time>2021-05-27T11:11:50Z</time>
      </trkpt>
      <trkpt lat="47.69808" lon="-2.28118">
        <ele>52.8</ele>
        <time>2021-05-27T11:11:51Z</time>
      </trkpt>
      <trkpt lat="47.69808" lon="-2.28124">
        <ele>52.6</ele>
        <time>2021-05-27T11:11:52Z</time>
      </trkpt>
      <trkpt lat="47.69808" lon="-2.28131">
        <ele>52.6</ele>
        <time>2021-05-27T11:11:53Z</time>
      </trkpt>
      <trkpt lat="47.69807" lon="-2.28138">
        <ele>52.4</ele>
        <time>2021-05-27T11:11:54Z</time>
      </trkpt>
      <trkpt lat="47.69806" lon="-2.28144">
        <ele>52.2</ele>
        <time>2021-05-27T11:11:55Z</time>
      </trkpt>
      <trkpt lat="47.69806" lon="-2.2815">
        <ele>52.2</ele>
        <time>2021-05-27T11:11:56Z</time>
      </trkpt>
      <trkpt lat="47.69806" lon="-2.28157">
        <ele>52.2</ele>
        <time>2021-05-27T11:11:57Z</time>
      </trkpt>
      <trkpt lat="47.69806" lon="-2.28163">
        <ele>52</ele>
        <time>2021-05-27T11:11:58Z</time>
      </trkpt>
      <trkpt lat="47.69805" lon="-2.28169">
        <ele>51.9</ele>
        <time>2021-05-27T11:11:59Z</time>
      </trkpt>
      <trkpt lat="47.69806" lon="-2.28175">
        <ele>52</ele>
        <time>2021-05-27T11:12:00Z</time>
      </trkpt>
      <trkpt lat="47.69807" lon="-2.28182">
        <ele>52</ele>
        <time>2021-05-27T11:12:01Z</time>
      </trkpt>
      <trkpt lat="47.69806" lon="-2.28188">
        <ele>51.9</ele>
        <time>2021-05-27T11:12:02Z</time>
      </trkpt>
      <trkpt lat="47.69807" lon="-2.28193">
        <ele>51.9</ele>
        <time>2021-05-27T11:12:03Z</time>
      </trkpt>
      <trkpt lat="47.69807" lon="-2.28198">
        <ele>51.8</ele>
        <time>2021-05-27T11:12:04Z</time>
      </trkpt>
      <trkpt lat="47.69807" lon="-2.28203">
        <ele>51.8</ele>
        <time>2021-05-27T11:12:05Z</time>
      </trkpt>
      <trkpt lat="47.69806" lon="-2.28207">
        <ele>51.6</ele>
        <time>2021-05-27T11:12:06Z</time>
      </trkpt>
      <trkpt lat="47.69806" lon="-2.28211">
        <ele>51.6</ele>
        <time>2021-05-27T11:12:07Z</time>
      </trkpt>
      <trkpt lat="47.69806" lon="-2.28214">
        <ele>51.4</ele>
        <time>2021-05-27T11:12:08Z</time>
      </trkpt>
      <trkpt lat="47.69806" lon="-2.28217">
        <ele>51.4</ele>
        <time>2021-05-27T11:12:09Z</time>
      </trkpt>
      <trkpt lat="47.69807" lon="-2.28219">
        <ele>51.6</ele>
        <time>2021-05-27T11:12:10Z</time>
      </trkpt>
      <trkpt lat="47.69807" lon="-2.2822">
        <ele>51.6</ele>
        <time>2021-05-27T11:12:11Z</time>
      </trkpt>
      <trkpt lat="47.69808" lon="-2.2822">
        <ele>51.7</ele>
        <time>2021-05-27T11:12:12Z</time>
      </trkpt>
      <trkpt lat="47.69808" lon="-2.2822">
        <ele>51.7</ele>
        <time>2021-05-27T11:12:13Z</time>
      </trkpt>
      <trkpt lat="47.69808" lon="-2.2822">
        <ele>51.7</ele>
        <time>2021-05-27T11:12:14Z</time>
      </trkpt>
      <trkpt lat="47.69812" lon="-2.28221">
        <ele>52.3</ele>
        <time>2021-05-27T11:12:15Z</time>
      </trkpt>
      <trkpt lat="47.69814" lon="-2.28222">
        <ele>52.6</ele>
        <time>2021-05-27T11:12:16Z</time>
      </trkpt>
      <trkpt lat="47.69816" lon="-2.28222">
        <ele>52.8</ele>
        <time>2021-05-27T11:12:17Z</time>
      </trkpt>
      <trkpt lat="47.69817" lon="-2.28223">
        <ele>53</ele>
        <time>2021-05-27T11:12:18Z</time>
      </trkpt>
      <trkpt lat="47.69818" lon="-2.28223">
        <ele>53.1</ele>
        <time>2021-05-27T11:12:19Z</time>
      </trkpt>
      <trkpt lat="47.69817" lon="-2.28222">
        <ele>53</ele>
        <time>2021-05-27T11:12:20Z</time>
      </trkpt>
      <trkpt lat="47.69817" lon="-2.28222">
        <ele>53</ele>
        <time>2021-05-27T11:12:21Z</time>
      </trkpt>
      <trkpt lat="47.69817" lon="-2.28222">
        <ele>53</ele>
        <time>2021-05-27T11:12:22Z</time>
      </trkpt>
      <trkpt lat="47.69817" lon="-2.28222">
        <ele>53</ele>
        <time>2021-05-27T11:12:23Z</time>
      </trkpt>
      <trkpt lat="47.69817" lon="-2.28222">
        <ele>53</ele>
        <time>2021-05-27T11:12:24Z</time>
      </trkpt>
      <trkpt lat="47.69817" lon="-2.28222">
        <ele>53</ele>
        <time>2021-05-27T11:12:25Z</time>
      </trkpt>
      <trkpt lat="47.69817" lon="-2.28222">
        <ele>53</ele>
        <time>2021-05-27T11:12:26Z</time>
      </trkpt>
      <trkpt lat="47.69817" lon="-2.28222">
        <ele>53</ele>
        <time>2021-05-27T11:12:27Z</time>
      </trkpt>
      <trkpt lat="47.6982" lon="-2.28213">
        <ele>53.5</ele>
        <time>2021-05-27T11:12:28Z</time>
      </trkpt>
      <trkpt lat="47.69821" lon="-2.28211">
        <ele>53.6</ele>
        <time>2021-05-27T11:12:29Z</time>
      </trkpt>
      <trkpt lat="47.69822" lon="-2.28208">
        <ele>53.9</ele>
        <time>2021-05-27T11:12:30Z</time>
      </trkpt>
      <trkpt lat="47.69824" lon="-2.28205">
        <ele>54.1</ele>
        <time>2021-05-27T11:12:31Z</time>
      </trkpt>
      <trkpt lat="47.69825" lon="-2.28203">
        <ele>54.3</ele>
        <time>2021-05-27T11:12:32Z</time>
      </trkpt>
      <trkpt lat="47.69826" lon="-2.28198">
        <ele>54.5</ele>
        <time>2021-05-27T11:12:33Z</time>
      </trkpt>
      <trkpt lat="47.69826" lon="-2.28195">
        <ele>54.6</ele>
        <time>2021-05-27T11:12:34Z</time>
      </trkpt>
      <trkpt lat="47.69827" lon="-2.28193">
        <ele>54.7</ele>
        <time>2021-05-27T11:12:35Z</time>
      </trkpt>
      <trkpt lat="47.69828" lon="-2.2819">
        <ele>54.9</ele>
        <time>2021-05-27T11:12:36Z</time>
      </trkpt>
      <trkpt lat="47.69829" lon="-2.28187">
        <ele>55.2</ele>
        <time>2021-05-27T11:12:37Z</time>
      </trkpt>
      <trkpt lat="47.69831" lon="-2.28186">
        <ele>55.4</ele>
        <time>2021-05-27T11:12:38Z</time>
      </trkpt>
      <trkpt lat="47.69832" lon="-2.28184">
        <ele>55.6</ele>
        <time>2021-05-27T11:12:39Z</time>
      </trkpt>
      <trkpt lat="47.69834" lon="-2.28184">
        <ele>55.9</ele>
        <time>2021-05-27T11:12:40Z</time>
      </trkpt>
      <trkpt lat="47.69836" lon="-2.28183">
        <ele>56.2</ele>
        <time>2021-05-27T11:12:41Z</time>
      </trkpt>
      <trkpt lat="47.69838" lon="-2.28183">
        <ele>56.6</ele>
        <time>2021-05-27T11:12:42Z</time>
      </trkpt>
      <trkpt lat="47.69839" lon="-2.28183">
        <ele>56.7</ele>
        <time>2021-05-27T11:12:43Z</time>
      </trkpt>
      <trkpt lat="47.69839" lon="-2.28182">
        <ele>56.8</ele>
        <time>2021-05-27T11:12:44Z</time>
      </trkpt>
      <trkpt lat="47.69841" lon="-2.28181">
        <ele>57.1</ele>
        <time>2021-05-27T11:12:45Z</time>
      </trkpt>
      <trkpt lat="47.69842" lon="-2.2818">
        <ele>57.2</ele>
        <time>2021-05-27T11:12:46Z</time>
      </trkpt>
      <trkpt lat="47.69844" lon="-2.28179">
        <ele>57.5</ele>
        <time>2021-05-27T11:12:47Z</time>
      </trkpt>
      <trkpt lat="47.69845" lon="-2.28178">
        <ele>57.6</ele>
        <time>2021-05-27T11:12:48Z</time>
      </trkpt>
      <trkpt lat="47.69846" lon="-2.28178">
        <ele>57.8</ele>
        <time>2021-05-27T11:12:49Z</time>
      </trkpt>
      <trkpt lat="47.69848" lon="-2.28177">
        <ele>58.2</ele>
        <time>2021-05-27T11:12:50Z</time>
      </trkpt>
      <trkpt lat="47.69849" lon="-2.28176">
        <ele>58.4</ele>
        <time>2021-05-27T11:12:51Z</time>
      </trkpt>
      <trkpt lat="47.6985" lon="-2.28174">
        <ele>58.5</ele>
        <time>2021-05-27T11:12:52Z</time>
      </trkpt>
      <trkpt lat="47.69851" lon="-2.28173">
        <ele>58.7</ele>
        <time>2021-05-27T11:12:53Z</time>
      </trkpt>
      <trkpt lat="47.69852" lon="-2.2817">
        <ele>58.9</ele>
        <time>2021-05-27T11:12:54Z</time>
      </trkpt>
      <trkpt lat="47.69852" lon="-2.28168">
        <ele>59</ele>
        <time>2021-05-27T11:12:55Z</time>
      </trkpt>
      <trkpt lat="47.69853" lon="-2.28165">
        <ele>59.1</ele>
        <time>2021-05-27T11:12:56Z</time>
      </trkpt>
      <trkpt lat="47.69855" lon="-2.28163">
        <ele>59.3</ele>
        <time>2021-05-27T11:12:57Z</time>
      </trkpt>
      <trkpt lat="47.69855" lon="-2.28161">
        <ele>59.4</ele>
        <time>2021-05-27T11:12:58Z</time>
      </trkpt>
      <trkpt lat="47.69856" lon="-2.28159">
        <ele>59.5</ele>
        <time>2021-05-27T11:12:59Z</time>
      </trkpt>
      <trkpt lat="47.69856" lon="-2.28157">
        <ele>59.5</ele>
        <time>2021-05-27T11:13:00Z</time>
      </trkpt>
      <trkpt lat="47.69856" lon="-2.28157">
        <ele>59.5</ele>
        <time>2021-05-27T11:13:01Z</time>
      </trkpt>
      <trkpt lat="47.69857" lon="-2.28151">
        <ele>59.6</ele>
        <time>2021-05-27T11:13:02Z</time>
      </trkpt>
      <trkpt lat="47.69858" lon="-2.28147">
        <ele>59.9</ele>
        <time>2021-05-27T11:13:03Z</time>
      </trkpt>
      <trkpt lat="47.6986" lon="-2.28145">
        <ele>60</ele>
        <time>2021-05-27T11:13:04Z</time>
      </trkpt>
      <trkpt lat="47.69861" lon="-2.28144">
        <ele>60.3</ele>
        <time>2021-05-27T11:13:05Z</time>
      </trkpt>
      <trkpt lat="47.69863" lon="-2.28143">
        <ele>60.6</ele>
        <time>2021-05-27T11:13:06Z</time>
      </trkpt>
      <trkpt lat="47.69865" lon="-2.28142">
        <ele>60.8</ele>
        <time>2021-05-27T11:13:07Z</time>
      </trkpt>
      <trkpt lat="47.69866" lon="-2.28141">
        <ele>61</ele>
        <time>2021-05-27T11:13:08Z</time>
      </trkpt>
      <trkpt lat="47.69868" lon="-2.2814">
        <ele>61.2</ele>
        <time>2021-05-27T11:13:09Z</time>
      </trkpt>
      <trkpt lat="47.69868" lon="-2.28139">
        <ele>61.3</ele>
        <time>2021-05-27T11:13:10Z</time>
      </trkpt>
      <trkpt lat="47.69869" lon="-2.28137">
        <ele>61.5</ele>
        <time>2021-05-27T11:13:11Z</time>
      </trkpt>
      <trkpt lat="47.6987" lon="-2.28135">
        <ele>61.6</ele>
        <time>2021-05-27T11:13:12Z</time>
      </trkpt>
      <trkpt lat="47.69871" lon="-2.28133">
        <ele>61.7</ele>
        <time>2021-05-27T11:13:13Z</time>
      </trkpt>
      <trkpt lat="47.69871" lon="-2.2813">
        <ele>61.8</ele>
        <time>2021-05-27T11:13:14Z</time>
      </trkpt>
      <trkpt lat="47.69872" lon="-2.28127">
        <ele>61.8</ele>
        <time>2021-05-27T11:13:15Z</time>
      </trkpt>
      <trkpt lat="47.69873" lon="-2.28124">
        <ele>61.9</ele>
        <time>2021-05-27T11:13:16Z</time>
      </trkpt>
      <trkpt lat="47.69874" lon="-2.28122">
        <ele>62.1</ele>
        <time>2021-05-27T11:13:17Z</time>
      </trkpt>
      <trkpt lat="47.69876" lon="-2.28119">
        <ele>62.4</ele>
        <time>2021-05-27T11:13:18Z</time>
      </trkpt>
      <trkpt lat="47.69878" lon="-2.28117">
        <ele>62.6</ele>
        <time>2021-05-27T11:13:19Z</time>
      </trkpt>
      <trkpt lat="47.69879" lon="-2.28115">
        <ele>62.8</ele>
        <time>2021-05-27T11:13:20Z</time>
      </trkpt>
      <trkpt lat="47.6988" lon="-2.28112">
        <ele>62.9</ele>
        <time>2021-05-27T11:13:21Z</time>
      </trkpt>
      <trkpt lat="47.69881" lon="-2.28109">
        <ele>63.1</ele>
        <time>2021-05-27T11:13:22Z</time>
      </trkpt>
      <trkpt lat="47.69883" lon="-2.28107">
        <ele>63.3</ele>
        <time>2021-05-27T11:13:23Z</time>
      </trkpt>
      <trkpt lat="47.69884" lon="-2.28104">
        <ele>63.5</ele>
        <time>2021-05-27T11:13:24Z</time>
      </trkpt>
      <trkpt lat="47.69886" lon="-2.28101">
        <ele>63.7</ele>
        <time>2021-05-27T11:13:25Z</time>
      </trkpt>
      <trkpt lat="47.69888" lon="-2.28098">
        <ele>63.9</ele>
        <time>2021-05-27T11:13:26Z</time>
      </trkpt>
      <trkpt lat="47.6989" lon="-2.28095">
        <ele>64.2</ele>
        <time>2021-05-27T11:13:27Z</time>
      </trkpt>
      <trkpt lat="47.69891" lon="-2.28093">
        <ele>64.4</ele>
        <time>2021-05-27T11:13:28Z</time>
      </trkpt>
      <trkpt lat="47.69893" lon="-2.2809">
        <ele>64.6</ele>
        <time>2021-05-27T11:13:29Z</time>
      </trkpt>
      <trkpt lat="47.69894" lon="-2.28088">
        <ele>64.8</ele>
        <time>2021-05-27T11:13:30Z</time>
      </trkpt>
      <trkpt lat="47.69895" lon="-2.28085">
        <ele>65</ele>
        <time>2021-05-27T11:13:31Z</time>
      </trkpt>
      <trkpt lat="47.69897" lon="-2.28083">
        <ele>65.2</ele>
        <time>2021-05-27T11:13:32Z</time>
      </trkpt>
      <trkpt lat="47.69899" lon="-2.28081">
        <ele>65.5</ele>
        <time>2021-05-27T11:13:33Z</time>
      </trkpt>
      <trkpt lat="47.69901" lon="-2.28079">
        <ele>65.8</ele>
        <time>2021-05-27T11:13:34Z</time>
      </trkpt>
      <trkpt lat="47.69903" lon="-2.28076">
        <ele>66.1</ele>
        <time>2021-05-27T11:13:35Z</time>
      </trkpt>
      <trkpt lat="47.69904" lon="-2.28073">
        <ele>66.5</ele>
        <time>2021-05-27T11:13:36Z</time>
      </trkpt>
      <trkpt lat="47.69907" lon="-2.28071">
        <ele>66.8</ele>
        <time>2021-05-27T11:13:37Z</time>
      </trkpt>
      <trkpt lat="47.69908" lon="-2.28069">
        <ele>67.1</ele>
        <time>2021-05-27T11:13:38Z</time>
      </trkpt>
      <trkpt lat="47.6991" lon="-2.28065">
        <ele>67.4</ele>
        <time>2021-05-27T11:13:39Z</time>
      </trkpt>
      <trkpt lat="47.69911" lon="-2.28063">
        <ele>67.8</ele>
        <time>2021-05-27T11:13:40Z</time>
      </trkpt>
      <trkpt lat="47.69913" lon="-2.2806">
        <ele>68</ele>
        <time>2021-05-27T11:13:41Z</time>
      </trkpt>
      <trkpt lat="47.69914" lon="-2.28057">
        <ele>68.3</ele>
        <time>2021-05-27T11:13:42Z</time>
      </trkpt>
      <trkpt lat="47.69916" lon="-2.28054">
        <ele>68.6</ele>
        <time>2021-05-27T11:13:43Z</time>
      </trkpt>
      <trkpt lat="47.69917" lon="-2.28052">
        <ele>68.8</ele>
        <time>2021-05-27T11:13:44Z</time>
      </trkpt>
      <trkpt lat="47.69918" lon="-2.28049">
        <ele>68.9</ele>
        <time>2021-05-27T11:13:45Z</time>
      </trkpt>
      <trkpt lat="47.6992" lon="-2.28046">
        <ele>69.1</ele>
        <time>2021-05-27T11:13:46Z</time>
      </trkpt>
      <trkpt lat="47.69921" lon="-2.28043">
        <ele>69.2</ele>
        <time>2021-05-27T11:13:47Z</time>
      </trkpt>
      <trkpt lat="47.69922" lon="-2.28039">
        <ele>69.3</ele>
        <time>2021-05-27T11:13:48Z</time>
      </trkpt>
      <trkpt lat="47.69923" lon="-2.28035">
        <ele>69.5</ele>
        <time>2021-05-27T11:13:49Z</time>
      </trkpt>
      <trkpt lat="47.69924" lon="-2.28031">
        <ele>69.6</ele>
        <time>2021-05-27T11:13:50Z</time>
      </trkpt>
      <trkpt lat="47.69924" lon="-2.28027">
        <ele>69.7</ele>
        <time>2021-05-27T11:13:51Z</time>
      </trkpt>
      <trkpt lat="47.69925" lon="-2.28024">
        <ele>69.8</ele>
        <time>2021-05-27T11:13:52Z</time>
      </trkpt>
      <trkpt lat="47.69925" lon="-2.28021">
        <ele>69.9</ele>
        <time>2021-05-27T11:13:53Z</time>
      </trkpt>
      <trkpt lat="47.69926" lon="-2.28017">
        <ele>70</ele>
        <time>2021-05-27T11:13:54Z</time>
      </trkpt>
      <trkpt lat="47.69927" lon="-2.28014">
        <ele>70.1</ele>
        <time>2021-05-27T11:13:55Z</time>
      </trkpt>
      <trkpt lat="47.69927" lon="-2.2801">
        <ele>70.2</ele>
        <time>2021-05-27T11:13:56Z</time>
      </trkpt>
      <trkpt lat="47.69928" lon="-2.28006">
        <ele>70.3</ele>
        <time>2021-05-27T11:13:57Z</time>
      </trkpt>
      <trkpt lat="47.69928" lon="-2.28002">
        <ele>70.4</ele>
        <time>2021-05-27T11:13:58Z</time>
      </trkpt>
      <trkpt lat="47.69929" lon="-2.27998">
        <ele>70.5</ele>
        <time>2021-05-27T11:13:59Z</time>
      </trkpt>
      <trkpt lat="47.6993" lon="-2.27995">
        <ele>70.5</ele>
        <time>2021-05-27T11:14:00Z</time>
      </trkpt>
      <trkpt lat="47.6993" lon="-2.27991">
        <ele>70.6</ele>
        <time>2021-05-27T11:14:01Z</time>
      </trkpt>
      <trkpt lat="47.69931" lon="-2.27987">
        <ele>70.7</ele>
        <time>2021-05-27T11:14:02Z</time>
      </trkpt>
      <trkpt lat="47.69932" lon="-2.27983">
        <ele>70.8</ele>
        <time>2021-05-27T11:14:03Z</time>
      </trkpt>
      <trkpt lat="47.69933" lon="-2.27979">
        <ele>70.9</ele>
        <time>2021-05-27T11:14:04Z</time>
      </trkpt>
      <trkpt lat="47.69934" lon="-2.27975">
        <ele>71</ele>
        <time>2021-05-27T11:14:05Z</time>
      </trkpt>
      <trkpt lat="47.69935" lon="-2.27972">
        <ele>71.1</ele>
        <time>2021-05-27T11:14:06Z</time>
      </trkpt>
      <trkpt lat="47.69937" lon="-2.27968">
        <ele>71.2</ele>
        <time>2021-05-27T11:14:07Z</time>
      </trkpt>
      <trkpt lat="47.69938" lon="-2.27965">
        <ele>71.3</ele>
        <time>2021-05-27T11:14:08Z</time>
      </trkpt>
      <trkpt lat="47.69939" lon="-2.27961">
        <ele>71.4</ele>
        <time>2021-05-27T11:14:09Z</time>
      </trkpt>
      <trkpt lat="47.69941" lon="-2.27958">
        <ele>71.5</ele>
        <time>2021-05-27T11:14:10Z</time>
      </trkpt>
      <trkpt lat="47.69943" lon="-2.27955">
        <ele>71.6</ele>
        <time>2021-05-27T11:14:11Z</time>
      </trkpt>
      <trkpt lat="47.69944" lon="-2.27952">
        <ele>71.8</ele>
        <time>2021-05-27T11:14:12Z</time>
      </trkpt>
      <trkpt lat="47.69947" lon="-2.2795">
        <ele>71.9</ele>
        <time>2021-05-27T11:14:13Z</time>
      </trkpt>
      <trkpt lat="47.6995" lon="-2.27949">
        <ele>72</ele>
        <time>2021-05-27T11:14:14Z</time>
      </trkpt>
      <trkpt lat="47.69952" lon="-2.27951">
        <ele>72.1</ele>
        <time>2021-05-27T11:14:15Z</time>
      </trkpt>
      <trkpt lat="47.69954" lon="-2.27954">
        <ele>72.1</ele>
        <time>2021-05-27T11:14:16Z</time>
      </trkpt>
      <trkpt lat="47.69956" lon="-2.27956">
        <ele>72.2</ele>
        <time>2021-05-27T11:14:17Z</time>
      </trkpt>
      <trkpt lat="47.69958" lon="-2.27959">
        <ele>72.2</ele>
        <time>2021-05-27T11:14:18Z</time>
      </trkpt>
      <trkpt lat="47.6996" lon="-2.27961">
        <ele>72.3</ele>
        <time>2021-05-27T11:14:19Z</time>
      </trkpt>
      <trkpt lat="47.69961" lon="-2.27964">
        <ele>72.3</ele>
        <time>2021-05-27T11:14:20Z</time>
      </trkpt>
      <trkpt lat="47.69963" lon="-2.27968">
        <ele>72.3</ele>
        <time>2021-05-27T11:14:21Z</time>
      </trkpt>
      <trkpt lat="47.69965" lon="-2.27971">
        <ele>72.3</ele>
        <time>2021-05-27T11:14:22Z</time>
      </trkpt>
      <trkpt lat="47.69967" lon="-2.27975">
        <ele>72.3</ele>
        <time>2021-05-27T11:14:23Z</time>
      </trkpt>
      <trkpt lat="47.6997" lon="-2.27978">
        <ele>72.4</ele>
        <time>2021-05-27T11:14:24Z</time>
      </trkpt>
      <trkpt lat="47.69973" lon="-2.27981">
        <ele>72.4</ele>
        <time>2021-05-27T11:14:25Z</time>
      </trkpt>
      <trkpt lat="47.69976" lon="-2.27984">
        <ele>72.4</ele>
        <time>2021-05-27T11:14:26Z</time>
      </trkpt>
      <trkpt lat="47.69977" lon="-2.27988">
        <ele>72.4</ele>
        <time>2021-05-27T11:14:27Z</time>
      </trkpt>
      <trkpt lat="47.69978" lon="-2.27992">
        <ele>72.4</ele>
        <time>2021-05-27T11:14:28Z</time>
      </trkpt>
      <trkpt lat="47.69979" lon="-2.27996">
        <ele>72.3</ele>
        <time>2021-05-27T11:14:29Z</time>
      </trkpt>
      <trkpt lat="47.69979" lon="-2.28">
        <ele>72.3</ele>
        <time>2021-05-27T11:14:30Z</time>
      </trkpt>
      <trkpt lat="47.6998" lon="-2.28005">
        <ele>72.3</ele>
        <time>2021-05-27T11:14:31Z</time>
      </trkpt>
      <trkpt lat="47.6998" lon="-2.2801">
        <ele>72.3</ele>
        <time>2021-05-27T11:14:32Z</time>
      </trkpt>
      <trkpt lat="47.69982" lon="-2.28016">
        <ele>72.4</ele>
        <time>2021-05-27T11:14:33Z</time>
      </trkpt>
      <trkpt lat="47.69983" lon="-2.28021">
        <ele>72.5</ele>
        <time>2021-05-27T11:14:34Z</time>
      </trkpt>
      <trkpt lat="47.69983" lon="-2.28026">
        <ele>72.5</ele>
        <time>2021-05-27T11:14:35Z</time>
      </trkpt>
      <trkpt lat="47.69984" lon="-2.28032">
        <ele>72.6</ele>
        <time>2021-05-27T11:14:36Z</time>
      </trkpt>
      <trkpt lat="47.69985" lon="-2.28037">
        <ele>72.7</ele>
        <time>2021-05-27T11:14:37Z</time>
      </trkpt>
      <trkpt lat="47.69986" lon="-2.28043">
        <ele>72.7</ele>
        <time>2021-05-27T11:14:38Z</time>
      </trkpt>
      <trkpt lat="47.69987" lon="-2.28048">
        <ele>72.8</ele>
        <time>2021-05-27T11:14:39Z</time>
      </trkpt>
      <trkpt lat="47.69989" lon="-2.28053">
        <ele>73</ele>
        <time>2021-05-27T11:14:40Z</time>
      </trkpt>
      <trkpt lat="47.6999" lon="-2.28059">
        <ele>73.1</ele>
        <time>2021-05-27T11:14:41Z</time>
      </trkpt>
      <trkpt lat="47.69991" lon="-2.28065">
        <ele>73.2</ele>
        <time>2021-05-27T11:14:42Z</time>
      </trkpt>
      <trkpt lat="47.69992" lon="-2.28071">
        <ele>73.3</ele>
        <time>2021-05-27T11:14:43Z</time>
      </trkpt>
      <trkpt lat="47.69994" lon="-2.28077">
        <ele>73.5</ele>
        <time>2021-05-27T11:14:44Z</time>
      </trkpt>
      <trkpt lat="47.69995" lon="-2.28082">
        <ele>73.6</ele>
        <time>2021-05-27T11:14:45Z</time>
      </trkpt>
      <trkpt lat="47.69997" lon="-2.28088">
        <ele>73.8</ele>
        <time>2021-05-27T11:14:46Z</time>
      </trkpt>
      <trkpt lat="47.69998" lon="-2.28094">
        <ele>74</ele>
        <time>2021-05-27T11:14:47Z</time>
      </trkpt>
      <trkpt lat="47.69999" lon="-2.281">
        <ele>74.1</ele>
        <time>2021-05-27T11:14:48Z</time>
      </trkpt>
      <trkpt lat="47.69999" lon="-2.28105">
        <ele>74.2</ele>
        <time>2021-05-27T11:14:49Z</time>
      </trkpt>
      <trkpt lat="47.69999" lon="-2.2811">
        <ele>74.3</ele>
        <time>2021-05-27T11:14:50Z</time>
      </trkpt>
      <trkpt lat="47.69999" lon="-2.28114">
        <ele>74.3</ele>
        <time>2021-05-27T11:14:51Z</time>
      </trkpt>
      <trkpt lat="47.7" lon="-2.28117">
        <ele>74.4</ele>
        <time>2021-05-27T11:14:52Z</time>
      </trkpt>
      <trkpt lat="47.70001" lon="-2.28121">
        <ele>74.4</ele>
        <time>2021-05-27T11:14:53Z</time>
      </trkpt>
      <trkpt lat="47.70002" lon="-2.28125">
        <ele>74.5</ele>
        <time>2021-05-27T11:14:54Z</time>
      </trkpt>
      <trkpt lat="47.70002" lon="-2.2813">
        <ele>74.5</ele>
        <time>2021-05-27T11:14:55Z</time>
      </trkpt>
      <trkpt lat="47.70002" lon="-2.28135">
        <ele>74.6</ele>
        <time>2021-05-27T11:14:56Z</time>
      </trkpt>
      <trkpt lat="47.70002" lon="-2.28141">
        <ele>74.7</ele>
        <time>2021-05-27T11:14:57Z</time>
      </trkpt>
      <trkpt lat="47.70002" lon="-2.28146">
        <ele>74.7</ele>
        <time>2021-05-27T11:14:58Z</time>
      </trkpt>
      <trkpt lat="47.70003" lon="-2.28151">
        <ele>74.8</ele>
        <time>2021-05-27T11:14:59Z</time>
      </trkpt>
      <trkpt lat="47.70004" lon="-2.28156">
        <ele>74.8</ele>
        <time>2021-05-27T11:15:00Z</time>
      </trkpt>
      <trkpt lat="47.70004" lon="-2.28161">
        <ele>74.8</ele>
        <time>2021-05-27T11:15:01Z</time>
      </trkpt>
      <trkpt lat="47.70004" lon="-2.28167">
        <ele>74.9</ele>
        <time>2021-05-27T11:15:02Z</time>
      </trkpt>
      <trkpt lat="47.70004" lon="-2.28172">
        <ele>75</ele>
        <time>2021-05-27T11:15:03Z</time>
      </trkpt>
      <trkpt lat="47.70004" lon="-2.28177">
        <ele>75.1</ele>
        <time>2021-05-27T11:15:04Z</time>
      </trkpt>
      <trkpt lat="47.70004" lon="-2.28181">
        <ele>75.2</ele>
        <time>2021-05-27T11:15:05Z</time>
      </trkpt>
      <trkpt lat="47.70004" lon="-2.28186">
        <ele>75.3</ele>
        <time>2021-05-27T11:15:06Z</time>
      </trkpt>
      <trkpt lat="47.70005" lon="-2.28191">
        <ele>75.4</ele>
        <time>2021-05-27T11:15:07Z</time>
      </trkpt>
      <trkpt lat="47.70005" lon="-2.28196">
        <ele>75.5</ele>
        <time>2021-05-27T11:15:08Z</time>
      </trkpt>
      <trkpt lat="47.70006" lon="-2.28201">
        <ele>75.6</ele>
        <time>2021-05-27T11:15:09Z</time>
      </trkpt>
      <trkpt lat="47.70007" lon="-2.28207">
        <ele>75.7</ele>
        <time>2021-05-27T11:15:10Z</time>
      </trkpt>
      <trkpt lat="47.70008" lon="-2.28212">
        <ele>75.8</ele>
        <time>2021-05-27T11:15:11Z</time>
      </trkpt>
      <trkpt lat="47.70008" lon="-2.28218">
        <ele>75.9</ele>
        <time>2021-05-27T11:15:12Z</time>
      </trkpt>
      <trkpt lat="47.70009" lon="-2.28224">
        <ele>76</ele>
        <time>2021-05-27T11:15:13Z</time>
      </trkpt>
      <trkpt lat="47.70009" lon="-2.28229">
        <ele>76.1</ele>
        <time>2021-05-27T11:15:14Z</time>
      </trkpt>
      <trkpt lat="47.70009" lon="-2.28235">
        <ele>76.3</ele>
        <time>2021-05-27T11:15:15Z</time>
      </trkpt>
      <trkpt lat="47.70009" lon="-2.2824">
        <ele>76.4</ele>
        <time>2021-05-27T11:15:16Z</time>
      </trkpt>
      <trkpt lat="47.70009" lon="-2.28246">
        <ele>76.5</ele>
        <time>2021-05-27T11:15:17Z</time>
      </trkpt>
      <trkpt lat="47.70009" lon="-2.28252">
        <ele>76.5</ele>
        <time>2021-05-27T11:15:18Z</time>
      </trkpt>
      <trkpt lat="47.7001" lon="-2.28257">
        <ele>76.5</ele>
        <time>2021-05-27T11:15:19Z</time>
      </trkpt>
      <trkpt lat="47.7001" lon="-2.28263">
        <ele>76.4</ele>
        <time>2021-05-27T11:15:20Z</time>
      </trkpt>
      <trkpt lat="47.70011" lon="-2.28269">
        <ele>76.3</ele>
        <time>2021-05-27T11:15:21Z</time>
      </trkpt>
      <trkpt lat="47.70011" lon="-2.28275">
        <ele>76.2</ele>
        <time>2021-05-27T11:15:22Z</time>
      </trkpt>
      <trkpt lat="47.70012" lon="-2.2828">
        <ele>76.2</ele>
        <time>2021-05-27T11:15:23Z</time>
      </trkpt>
      <trkpt lat="47.70012" lon="-2.28286">
        <ele>76.1</ele>
        <time>2021-05-27T11:15:24Z</time>
      </trkpt>
      <trkpt lat="47.70013" lon="-2.28291">
        <ele>76</ele>
        <time>2021-05-27T11:15:25Z</time>
      </trkpt>
      <trkpt lat="47.70013" lon="-2.28295">
        <ele>76</ele>
        <time>2021-05-27T11:15:26Z</time>
      </trkpt>
      <trkpt lat="47.70013" lon="-2.283">
        <ele>76</ele>
        <time>2021-05-27T11:15:27Z</time>
      </trkpt>
      <trkpt lat="47.70013" lon="-2.28304">
        <ele>75.9</ele>
        <time>2021-05-27T11:15:28Z</time>
      </trkpt>
      <trkpt lat="47.70014" lon="-2.28308">
        <ele>75.9</ele>
        <time>2021-05-27T11:15:29Z</time>
      </trkpt>
      <trkpt lat="47.70014" lon="-2.28312">
        <ele>75.8</ele>
        <time>2021-05-27T11:15:30Z</time>
      </trkpt>
      <trkpt lat="47.70015" lon="-2.28316">
        <ele>75.8</ele>
        <time>2021-05-27T11:15:31Z</time>
      </trkpt>
      <trkpt lat="47.70015" lon="-2.2832">
        <ele>75.7</ele>
        <time>2021-05-27T11:15:32Z</time>
      </trkpt>
      <trkpt lat="47.70016" lon="-2.28326">
        <ele>75.7</ele>
        <time>2021-05-27T11:15:33Z</time>
      </trkpt>
      <trkpt lat="47.70017" lon="-2.28331">
        <ele>75.6</ele>
        <time>2021-05-27T11:15:34Z</time>
      </trkpt>
      <trkpt lat="47.70018" lon="-2.28336">
        <ele>75.6</ele>
        <time>2021-05-27T11:15:35Z</time>
      </trkpt>
      <trkpt lat="47.70018" lon="-2.28341">
        <ele>75.6</ele>
        <time>2021-05-27T11:15:36Z</time>
      </trkpt>
      <trkpt lat="47.70019" lon="-2.28347">
        <ele>75.6</ele>
        <time>2021-05-27T11:15:37Z</time>
      </trkpt>
      <trkpt lat="47.70019" lon="-2.28353">
        <ele>75.6</ele>
        <time>2021-05-27T11:15:38Z</time>
      </trkpt>
      <trkpt lat="47.70034" lon="-2.28354">
        <ele>75.3</ele>
      </trkpt>
      <trkpt lat="47.70041" lon="-2.28359">
        <ele>75.2</ele>
      </trkpt>
      <trkpt lat="47.70052" lon="-2.2835">
        <ele>74.9</ele>
      </trkpt>
      <trkpt lat="47.7006" lon="-2.28355">
        <ele>74.8</ele>
      </trkpt>
      <trkpt lat="47.7007" lon="-2.28354">
        <ele>74.5</ele>
      </trkpt>
      <trkpt lat="47.70079" lon="-2.28347">
        <ele>74.2</ele>
      </trkpt>
      <trkpt lat="47.70091" lon="-2.28345">
        <ele>73.8</ele>
      </trkpt>
      <trkpt lat="47.70099" lon="-2.28345">
        <ele>73.4</ele>
      </trkpt>
      <trkpt lat="47.70102" lon="-2.28375">
        <ele>73.6</ele>
      </trkpt>
      <trkpt lat="47.70103" lon="-2.28401">
        <ele>73.9</ele>
      </trkpt>
      <trkpt lat="47.70102" lon="-2.2841">
        <ele>74</ele>
      </trkpt>
      <trkpt lat="47.70099" lon="-2.28434">
        <ele>74.3</ele>
      </trkpt>
      <trkpt lat="47.70099" lon="-2.28445">
        <ele>74.3</ele>
      </trkpt>
      <trkpt lat="47.70097" lon="-2.28461">
        <ele>74.4</ele>
      </trkpt>
      <trkpt lat="47.70094" lon="-2.28471">
        <ele>74.6</ele>
      </trkpt>
      <trkpt lat="47.70091" lon="-2.28486">
        <ele>74.7</ele>
      </trkpt>
      <trkpt lat="47.7009" lon="-2.28495">
        <ele>74.8</ele>
      </trkpt>
      <trkpt lat="47.70089" lon="-2.28516">
        <ele>74.6</ele>
      </trkpt>
      <trkpt lat="47.70081" lon="-2.28523">
        <ele>74.7</ele>
      </trkpt>
      <trkpt lat="47.70077" lon="-2.28555">
        <ele>74.2</ele>
        <time>2021-05-27T11:16:24Z</time>
      </trkpt>
      <trkpt lat="47.70077" lon="-2.28559">
        <ele>74.2</ele>
        <time>2021-05-27T11:16:25Z</time>
      </trkpt>
      <trkpt lat="47.70078" lon="-2.28561">
        <ele>74.2</ele>
        <time>2021-05-27T11:16:26Z</time>
      </trkpt>
      <trkpt lat="47.70079" lon="-2.28561">
        <ele>74.2</ele>
        <time>2021-05-27T11:16:27Z</time>
      </trkpt>
      <trkpt lat="47.70078" lon="-2.28562">
        <ele>74.2</ele>
        <time>2021-05-27T11:16:28Z</time>
      </trkpt>
      <trkpt lat="47.70078" lon="-2.28562">
        <ele>74.1</ele>
        <time>2021-05-27T11:16:29Z</time>
      </trkpt>
      <trkpt lat="47.70078" lon="-2.28562">
        <ele>74.1</ele>
        <time>2021-05-27T11:16:30Z</time>
      </trkpt>
      <trkpt lat="47.70078" lon="-2.28562">
        <ele>74.1</ele>
        <time>2021-05-27T11:16:31Z</time>
      </trkpt>
      <trkpt lat="47.70078" lon="-2.28562">
        <ele>74.1</ele>
        <time>2021-05-27T11:16:32Z</time>
      </trkpt>
      <trkpt lat="47.70078" lon="-2.28562">
        <ele>74.1</ele>
        <time>2021-05-27T11:16:33Z</time>
      </trkpt>
      <trkpt lat="47.70078" lon="-2.28562">
        <ele>74.1</ele>
        <time>2021-05-27T11:16:34Z</time>
      </trkpt>
      <trkpt lat="47.70078" lon="-2.28562">
        <ele>74.1</ele>
        <time>2021-05-27T11:16:35Z</time>
      </trkpt>
      <trkpt lat="47.70078" lon="-2.28562">
        <ele>74.1</ele>
        <time>2021-05-27T11:16:36Z</time>
      </trkpt>
      <trkpt lat="47.70078" lon="-2.28562">
        <ele>74.1</ele>
        <time>2021-05-27T11:16:37Z</time>
      </trkpt>
      <trkpt lat="47.70078" lon="-2.28562">
        <ele>74.1</ele>
        <time>2021-05-27T11:16:38Z</time>
      </trkpt>
      <trkpt lat="47.70078" lon="-2.28562">
        <ele>74.1</ele>
        <time>2021-05-27T11:16:39Z</time>
      </trkpt>
      <trkpt lat="47.70078" lon="-2.28562">
        <ele>74.1</ele>
        <time>2021-05-27T11:16:40Z</time>
      </trkpt>
      <trkpt lat="47.70078" lon="-2.28562">
        <ele>74.1</ele>
        <time>2021-05-27T11:16:41Z</time>
      </trkpt>
      <trkpt lat="47.70078" lon="-2.28562">
        <ele>74.1</ele>
        <time>2021-05-27T11:16:42Z</time>
      </trkpt>
      <trkpt lat="47.70078" lon="-2.28562">
        <ele>74.1</ele>
        <time>2021-05-27T11:16:43Z</time>
      </trkpt>
      <trkpt lat="47.70078" lon="-2.28562">
        <ele>74.1</ele>
        <time>2021-05-27T11:16:44Z</time>
      </trkpt>
      <trkpt lat="47.70077" lon="-2.28568">
        <ele>74</ele>
        <time>2021-05-27T11:16:45Z</time>
      </trkpt>
      <trkpt lat="47.70077" lon="-2.28573">
        <ele>74</ele>
        <time>2021-05-27T11:16:46Z</time>
      </trkpt>
      <trkpt lat="47.70077" lon="-2.28577">
        <ele>73.9</ele>
        <time>2021-05-27T11:16:47Z</time>
      </trkpt>
      <trkpt lat="47.70077" lon="-2.28582">
        <ele>73.9</ele>
        <time>2021-05-27T11:16:48Z</time>
      </trkpt>
      <trkpt lat="47.70077" lon="-2.28588">
        <ele>73.8</ele>
        <time>2021-05-27T11:16:49Z</time>
      </trkpt>
      <trkpt lat="47.70077" lon="-2.28593">
        <ele>73.7</ele>
        <time>2021-05-27T11:16:50Z</time>
      </trkpt>
      <trkpt lat="47.70077" lon="-2.28599">
        <ele>73.7</ele>
        <time>2021-05-27T11:16:51Z</time>
      </trkpt>
      <trkpt lat="47.70076" lon="-2.28605">
        <ele>73.6</ele>
        <time>2021-05-27T11:16:52Z</time>
      </trkpt>
      <trkpt lat="47.70076" lon="-2.2861">
        <ele>73.5</ele>
        <time>2021-05-27T11:16:53Z</time>
      </trkpt>
      <trkpt lat="47.70077" lon="-2.28616">
        <ele>73.5</ele>
        <time>2021-05-27T11:16:54Z</time>
      </trkpt>
      <trkpt lat="47.70077" lon="-2.28621">
        <ele>73.4</ele>
        <time>2021-05-27T11:16:55Z</time>
      </trkpt>
      <trkpt lat="47.70077" lon="-2.28627">
        <ele>73.4</ele>
        <time>2021-05-27T11:16:56Z</time>
      </trkpt>
      <trkpt lat="47.70078" lon="-2.28632">
        <ele>73.3</ele>
        <time>2021-05-27T11:16:57Z</time>
      </trkpt>
      <trkpt lat="47.70078" lon="-2.28637">
        <ele>73.3</ele>
        <time>2021-05-27T11:16:58Z</time>
      </trkpt>
      <trkpt lat="47.70079" lon="-2.28643">
        <ele>73.2</ele>
        <time>2021-05-27T11:16:59Z</time>
      </trkpt>
      <trkpt lat="47.7008" lon="-2.28648">
        <ele>73.2</ele>
        <time>2021-05-27T11:17:00Z</time>
      </trkpt>
      <trkpt lat="47.70081" lon="-2.28654">
        <ele>73.1</ele>
        <time>2021-05-27T11:17:01Z</time>
      </trkpt>
      <trkpt lat="47.70082" lon="-2.2866">
        <ele>73.1</ele>
        <time>2021-05-27T11:17:02Z</time>
      </trkpt>
      <trkpt lat="47.70082" lon="-2.28666">
        <ele>73</ele>
        <time>2021-05-27T11:17:03Z</time>
      </trkpt>
      <trkpt lat="47.70084" lon="-2.28672">
        <ele>73.1</ele>
        <time>2021-05-27T11:17:04Z</time>
      </trkpt>
      <trkpt lat="47.70085" lon="-2.28678">
        <ele>73.1</ele>
        <time>2021-05-27T11:17:05Z</time>
      </trkpt>
      <trkpt lat="47.70085" lon="-2.28684">
        <ele>73.1</ele>
        <time>2021-05-27T11:17:06Z</time>
      </trkpt>
      <trkpt lat="47.70086" lon="-2.2869">
        <ele>73.2</ele>
        <time>2021-05-27T11:17:07Z</time>
      </trkpt>
      <trkpt lat="47.70087" lon="-2.28696">
        <ele>73.2</ele>
        <time>2021-05-27T11:17:08Z</time>
      </trkpt>
      <trkpt lat="47.70087" lon="-2.28702">
        <ele>73.3</ele>
        <time>2021-05-27T11:17:09Z</time>
      </trkpt>
      <trkpt lat="47.70088" lon="-2.28709">
        <ele>73.4</ele>
        <time>2021-05-27T11:17:10Z</time>
      </trkpt>
      <trkpt lat="47.70089" lon="-2.28715">
        <ele>73.4</ele>
        <time>2021-05-27T11:17:11Z</time>
      </trkpt>
      <trkpt lat="47.7009" lon="-2.28721">
        <ele>73.5</ele>
        <time>2021-05-27T11:17:12Z</time>
      </trkpt>
      <trkpt lat="47.70091" lon="-2.28727">
        <ele>73.5</ele>
        <time>2021-05-27T11:17:13Z</time>
      </trkpt>
      <trkpt lat="47.70092" lon="-2.28733">
        <ele>73.6</ele>
        <time>2021-05-27T11:17:14Z</time>
      </trkpt>
      <trkpt lat="47.70092" lon="-2.2874">
        <ele>73.6</ele>
        <time>2021-05-27T11:17:15Z</time>
      </trkpt>
      <trkpt lat="47.70094" lon="-2.28746">
        <ele>73.7</ele>
        <time>2021-05-27T11:17:16Z</time>
      </trkpt>
      <trkpt lat="47.70095" lon="-2.28752">
        <ele>73.7</ele>
        <time>2021-05-27T11:17:17Z</time>
      </trkpt>
      <trkpt lat="47.70096" lon="-2.28758">
        <ele>73.8</ele>
        <time>2021-05-27T11:17:18Z</time>
      </trkpt>
      <trkpt lat="47.70098" lon="-2.28765">
        <ele>73.8</ele>
        <time>2021-05-27T11:17:19Z</time>
      </trkpt>
      <trkpt lat="47.70099" lon="-2.28771">
        <ele>73.9</ele>
        <time>2021-05-27T11:17:20Z</time>
      </trkpt>
      <trkpt lat="47.70099" lon="-2.28778">
        <ele>74</ele>
        <time>2021-05-27T11:17:21Z</time>
      </trkpt>
      <trkpt lat="47.701" lon="-2.28784">
        <ele>74</ele>
        <time>2021-05-27T11:17:22Z</time>
      </trkpt>
      <trkpt lat="47.70101" lon="-2.28789">
        <ele>74.1</ele>
        <time>2021-05-27T11:17:23Z</time>
      </trkpt>
      <trkpt lat="47.70101" lon="-2.28795">
        <ele>74.1</ele>
        <time>2021-05-27T11:17:24Z</time>
      </trkpt>
      <trkpt lat="47.70102" lon="-2.28801">
        <ele>74.2</ele>
        <time>2021-05-27T11:17:25Z</time>
      </trkpt>
      <trkpt lat="47.70103" lon="-2.28808">
        <ele>74.2</ele>
        <time>2021-05-27T11:17:26Z</time>
      </trkpt>
      <trkpt lat="47.70103" lon="-2.28814">
        <ele>74.3</ele>
        <time>2021-05-27T11:17:27Z</time>
      </trkpt>
      <trkpt lat="47.70104" lon="-2.28821">
        <ele>74.4</ele>
        <time>2021-05-27T11:17:28Z</time>
      </trkpt>
      <trkpt lat="47.70104" lon="-2.28827">
        <ele>74.4</ele>
        <time>2021-05-27T11:17:29Z</time>
      </trkpt>
      <trkpt lat="47.70104" lon="-2.28834">
        <ele>74.5</ele>
        <time>2021-05-27T11:17:30Z</time>
      </trkpt>
      <trkpt lat="47.70104" lon="-2.28841">
        <ele>74.5</ele>
        <time>2021-05-27T11:17:31Z</time>
      </trkpt>
      <trkpt lat="47.70104" lon="-2.28848">
        <ele>74.5</ele>
        <time>2021-05-27T11:17:32Z</time>
      </trkpt>
      <trkpt lat="47.70105" lon="-2.28855">
        <ele>74.6</ele>
        <time>2021-05-27T11:17:33Z</time>
      </trkpt>
      <trkpt lat="47.70105" lon="-2.28863">
        <ele>74.6</ele>
        <time>2021-05-27T11:17:34Z</time>
      </trkpt>
      <trkpt lat="47.70105" lon="-2.2887">
        <ele>74.6</ele>
        <time>2021-05-27T11:17:35Z</time>
      </trkpt>
      <trkpt lat="47.70106" lon="-2.28877">
        <ele>74.6</ele>
        <time>2021-05-27T11:17:36Z</time>
      </trkpt>
      <trkpt lat="47.70106" lon="-2.28885">
        <ele>74.6</ele>
        <time>2021-05-27T11:17:37Z</time>
      </trkpt>
      <trkpt lat="47.70106" lon="-2.28892">
        <ele>74.6</ele>
        <time>2021-05-27T11:17:38Z</time>
      </trkpt>
      <trkpt lat="47.70106" lon="-2.28899">
        <ele>74.7</ele>
        <time>2021-05-27T11:17:39Z</time>
      </trkpt>
      <trkpt lat="47.70106" lon="-2.28906">
        <ele>74.7</ele>
        <time>2021-05-27T11:17:40Z</time>
      </trkpt>
      <trkpt lat="47.70106" lon="-2.28914">
        <ele>74.7</ele>
        <time>2021-05-27T11:17:41Z</time>
      </trkpt>
      <trkpt lat="47.70107" lon="-2.28922">
        <ele>74.8</ele>
        <time>2021-05-27T11:17:42Z</time>
      </trkpt>
      <trkpt lat="47.70107" lon="-2.28929">
        <ele>74.9</ele>
        <time>2021-05-27T11:17:43Z</time>
      </trkpt>
      <trkpt lat="47.70107" lon="-2.28935">
        <ele>75</ele>
        <time>2021-05-27T11:17:44Z</time>
      </trkpt>
      <trkpt lat="47.70108" lon="-2.28942">
        <ele>75.1</ele>
        <time>2021-05-27T11:17:45Z</time>
      </trkpt>
      <trkpt lat="47.70108" lon="-2.28949">
        <ele>75.2</ele>
        <time>2021-05-27T11:17:46Z</time>
      </trkpt>
      <trkpt lat="47.70109" lon="-2.28956">
        <ele>75.3</ele>
        <time>2021-05-27T11:17:47Z</time>
      </trkpt>
      <trkpt lat="47.7011" lon="-2.28963">
        <ele>75.4</ele>
        <time>2021-05-27T11:17:48Z</time>
      </trkpt>
      <trkpt lat="47.7011" lon="-2.2897">
        <ele>75.5</ele>
        <time>2021-05-27T11:17:49Z</time>
      </trkpt>
      <trkpt lat="47.7011" lon="-2.28976">
        <ele>75.6</ele>
        <time>2021-05-27T11:17:50Z</time>
      </trkpt>
      <trkpt lat="47.7011" lon="-2.28981">
        <ele>75.7</ele>
        <time>2021-05-27T11:17:51Z</time>
      </trkpt>
      <trkpt lat="47.7011" lon="-2.28988">
        <ele>75.8</ele>
        <time>2021-05-27T11:17:52Z</time>
      </trkpt>
      <trkpt lat="47.70109" lon="-2.28994">
        <ele>75.9</ele>
        <time>2021-05-27T11:17:53Z</time>
      </trkpt>
      <trkpt lat="47.70108" lon="-2.29001">
        <ele>76</ele>
        <time>2021-05-27T11:17:54Z</time>
      </trkpt>
      <trkpt lat="47.70108" lon="-2.29007">
        <ele>75.9</ele>
        <time>2021-05-27T11:17:55Z</time>
      </trkpt>
      <trkpt lat="47.70107" lon="-2.29014">
        <ele>75.7</ele>
        <time>2021-05-27T11:17:56Z</time>
      </trkpt>
      <trkpt lat="47.70106" lon="-2.2902">
        <ele>75.6</ele>
        <time>2021-05-27T11:17:57Z</time>
      </trkpt>
      <trkpt lat="47.70104" lon="-2.29025">
        <ele>75.5</ele>
        <time>2021-05-27T11:17:58Z</time>
      </trkpt>
      <trkpt lat="47.70102" lon="-2.29029">
        <ele>75.4</ele>
        <time>2021-05-27T11:17:59Z</time>
      </trkpt>
      <trkpt lat="47.70099" lon="-2.29032">
        <ele>75.3</ele>
        <time>2021-05-27T11:18:00Z</time>
      </trkpt>
      <trkpt lat="47.70096" lon="-2.29035">
        <ele>75.2</ele>
        <time>2021-05-27T11:18:01Z</time>
      </trkpt>
      <trkpt lat="47.70092" lon="-2.29037">
        <ele>75.1</ele>
        <time>2021-05-27T11:18:02Z</time>
      </trkpt>
      <trkpt lat="47.70089" lon="-2.2904">
        <ele>75.1</ele>
        <time>2021-05-27T11:18:03Z</time>
      </trkpt>
      <trkpt lat="47.70086" lon="-2.29043">
        <ele>75</ele>
        <time>2021-05-27T11:18:04Z</time>
      </trkpt>
      <trkpt lat="47.70083" lon="-2.29046">
        <ele>74.9</ele>
        <time>2021-05-27T11:18:05Z</time>
      </trkpt>
      <trkpt lat="47.7008" lon="-2.29048">
        <ele>74.6</ele>
        <time>2021-05-27T11:18:06Z</time>
      </trkpt>
      <trkpt lat="47.70077" lon="-2.29051">
        <ele>74.2</ele>
        <time>2021-05-27T11:18:07Z</time>
      </trkpt>
      <trkpt lat="47.70073" lon="-2.29055">
        <ele>73.9</ele>
        <time>2021-05-27T11:18:08Z</time>
      </trkpt>
      <trkpt lat="47.7007" lon="-2.29059">
        <ele>73.5</ele>
        <time>2021-05-27T11:18:09Z</time>
      </trkpt>
      <trkpt lat="47.70066" lon="-2.29062">
        <ele>73.2</ele>
        <time>2021-05-27T11:18:10Z</time>
      </trkpt>
      <trkpt lat="47.70062" lon="-2.29064">
        <ele>72.8</ele>
        <time>2021-05-27T11:18:11Z</time>
      </trkpt>
      <trkpt lat="47.70058" lon="-2.29066">
        <ele>72.5</ele>
        <time>2021-05-27T11:18:12Z</time>
      </trkpt>
      <trkpt lat="47.70054" lon="-2.29067">
        <ele>72.2</ele>
        <time>2021-05-27T11:18:13Z</time>
      </trkpt>
      <trkpt lat="47.70051" lon="-2.29069">
        <ele>71.9</ele>
        <time>2021-05-27T11:18:14Z</time>
      </trkpt>
      <trkpt lat="47.70049" lon="-2.29071">
        <ele>71.7</ele>
        <time>2021-05-27T11:18:15Z</time>
      </trkpt>
      <trkpt lat="47.70048" lon="-2.29076">
        <ele>71.5</ele>
        <time>2021-05-27T11:18:16Z</time>
      </trkpt>
      <trkpt lat="47.70048" lon="-2.29082">
        <ele>71.5</ele>
        <time>2021-05-27T11:18:17Z</time>
      </trkpt>
      <trkpt lat="47.70049" lon="-2.29088">
        <ele>71.5</ele>
        <time>2021-05-27T11:18:18Z</time>
      </trkpt>
      <trkpt lat="47.70049" lon="-2.29093">
        <ele>71.5</ele>
        <time>2021-05-27T11:18:19Z</time>
      </trkpt>
      <trkpt lat="47.70052" lon="-2.29101">
        <ele>71.6</ele>
        <time>2021-05-27T11:18:20Z</time>
      </trkpt>
      <trkpt lat="47.70053" lon="-2.29106">
        <ele>71.7</ele>
        <time>2021-05-27T11:18:21Z</time>
      </trkpt>
      <trkpt lat="47.70055" lon="-2.29112">
        <ele>71.8</ele>
        <time>2021-05-27T11:18:22Z</time>
      </trkpt>
      <trkpt lat="47.70056" lon="-2.29119">
        <ele>71.9</ele>
        <time>2021-05-27T11:18:23Z</time>
      </trkpt>
      <trkpt lat="47.70056" lon="-2.29125">
        <ele>71.9</ele>
        <time>2021-05-27T11:18:24Z</time>
      </trkpt>
      <trkpt lat="47.70056" lon="-2.29131">
        <ele>71.8</ele>
        <time>2021-05-27T11:18:25Z</time>
      </trkpt>
      <trkpt lat="47.70056" lon="-2.29138">
        <ele>71.8</ele>
        <time>2021-05-27T11:18:26Z</time>
      </trkpt>
      <trkpt lat="47.70056" lon="-2.29144">
        <ele>71.8</ele>
        <time>2021-05-27T11:18:27Z</time>
      </trkpt>
      <trkpt lat="47.70057" lon="-2.2915">
        <ele>71.8</ele>
        <time>2021-05-27T11:18:28Z</time>
      </trkpt>
      <trkpt lat="47.70057" lon="-2.29155">
        <ele>71.8</ele>
        <time>2021-05-27T11:18:29Z</time>
      </trkpt>
      <trkpt lat="47.70057" lon="-2.29161">
        <ele>71.8</ele>
        <time>2021-05-27T11:18:30Z</time>
      </trkpt>
      <trkpt lat="47.70057" lon="-2.29167">
        <ele>71.8</ele>
        <time>2021-05-27T11:18:31Z</time>
      </trkpt>
      <trkpt lat="47.70058" lon="-2.29173">
        <ele>71.8</ele>
        <time>2021-05-27T11:18:32Z</time>
      </trkpt>
      <trkpt lat="47.70058" lon="-2.29179">
        <ele>71.7</ele>
        <time>2021-05-27T11:18:33Z</time>
      </trkpt>
      <trkpt lat="47.70057" lon="-2.29186">
        <ele>71.6</ele>
        <time>2021-05-27T11:18:34Z</time>
      </trkpt>
      <trkpt lat="47.70056" lon="-2.29191">
        <ele>71.4</ele>
        <time>2021-05-27T11:18:35Z</time>
      </trkpt>
      <trkpt lat="47.70056" lon="-2.29197">
        <ele>71.3</ele>
        <time>2021-05-27T11:18:36Z</time>
      </trkpt>
      <trkpt lat="47.70055" lon="-2.29203">
        <ele>71.2</ele>
        <time>2021-05-27T11:18:37Z</time>
      </trkpt>
      <trkpt lat="47.70054" lon="-2.2921">
        <ele>71</ele>
        <time>2021-05-27T11:18:38Z</time>
      </trkpt>
      <trkpt lat="47.70054" lon="-2.29216">
        <ele>70.9</ele>
        <time>2021-05-27T11:18:39Z</time>
      </trkpt>
      <trkpt lat="47.70053" lon="-2.29223">
        <ele>70.8</ele>
        <time>2021-05-27T11:18:40Z</time>
      </trkpt>
      <trkpt lat="47.70052" lon="-2.2923">
        <ele>70.6</ele>
        <time>2021-05-27T11:18:41Z</time>
      </trkpt>
      <trkpt lat="47.70052" lon="-2.29237">
        <ele>70.5</ele>
        <time>2021-05-27T11:18:42Z</time>
      </trkpt>
      <trkpt lat="47.70052" lon="-2.29243">
        <ele>70.4</ele>
        <time>2021-05-27T11:18:43Z</time>
      </trkpt>
      <trkpt lat="47.70051" lon="-2.2925">
        <ele>70.3</ele>
        <time>2021-05-27T11:18:44Z</time>
      </trkpt>
      <trkpt lat="47.70052" lon="-2.29256">
        <ele>70.5</ele>
        <time>2021-05-27T11:18:45Z</time>
      </trkpt>
      <trkpt lat="47.70052" lon="-2.29263">
        <ele>70.6</ele>
        <time>2021-05-27T11:18:46Z</time>
      </trkpt>
      <trkpt lat="47.70053" lon="-2.2927">
        <ele>70.8</ele>
        <time>2021-05-27T11:18:47Z</time>
      </trkpt>
      <trkpt lat="47.70054" lon="-2.29277">
        <ele>71</ele>
        <time>2021-05-27T11:18:48Z</time>
      </trkpt>
      <trkpt lat="47.70056" lon="-2.29283">
        <ele>71.4</ele>
        <time>2021-05-27T11:18:49Z</time>
      </trkpt>
      <trkpt lat="47.70059" lon="-2.29289">
        <ele>71.8</ele>
        <time>2021-05-27T11:18:50Z</time>
      </trkpt>
      <trkpt lat="47.70062" lon="-2.29295">
        <ele>72.1</ele>
        <time>2021-05-27T11:18:51Z</time>
      </trkpt>
      <trkpt lat="47.70062" lon="-2.293">
        <ele>72.3</ele>
        <time>2021-05-27T11:18:52Z</time>
      </trkpt>
      <trkpt lat="47.70061" lon="-2.29305">
        <ele>72.3</ele>
        <time>2021-05-27T11:18:53Z</time>
      </trkpt>
      <trkpt lat="47.70061" lon="-2.29312">
        <ele>72.4</ele>
        <time>2021-05-27T11:18:54Z</time>
      </trkpt>
      <trkpt lat="47.70061" lon="-2.29318">
        <ele>72.5</ele>
        <time>2021-05-27T11:18:55Z</time>
      </trkpt>
      <trkpt lat="47.70061" lon="-2.29324">
        <ele>72.6</ele>
        <time>2021-05-27T11:18:56Z</time>
      </trkpt>
      <trkpt lat="47.7006" lon="-2.29333">
        <ele>72.8</ele>
        <time>2021-05-27T11:18:57Z</time>
      </trkpt>
      <trkpt lat="47.70059" lon="-2.2934">
        <ele>72.5</ele>
        <time>2021-05-27T11:18:58Z</time>
      </trkpt>
      <trkpt lat="47.70057" lon="-2.29347">
        <ele>72.1</ele>
        <time>2021-05-27T11:18:59Z</time>
      </trkpt>
      <trkpt lat="47.70055" lon="-2.29353">
        <ele>71.7</ele>
        <time>2021-05-27T11:19:00Z</time>
      </trkpt>
      <trkpt lat="47.70053" lon="-2.2936">
        <ele>71.4</ele>
        <time>2021-05-27T11:19:01Z</time>
      </trkpt>
      <trkpt lat="47.70052" lon="-2.29367">
        <ele>71.1</ele>
        <time>2021-05-27T11:19:02Z</time>
      </trkpt>
      <trkpt lat="47.70051" lon="-2.29375">
        <ele>70.9</ele>
        <time>2021-05-27T11:19:03Z</time>
      </trkpt>
      <trkpt lat="47.7005" lon="-2.29382">
        <ele>70.7</ele>
        <time>2021-05-27T11:19:04Z</time>
      </trkpt>
      <trkpt lat="47.7005" lon="-2.29388">
        <ele>70.4</ele>
        <time>2021-05-27T11:19:05Z</time>
      </trkpt>
      <trkpt lat="47.7005" lon="-2.29395">
        <ele>70.3</ele>
        <time>2021-05-27T11:19:06Z</time>
      </trkpt>
      <trkpt lat="47.7005" lon="-2.29401">
        <ele>70.1</ele>
        <time>2021-05-27T11:19:07Z</time>
      </trkpt>
      <trkpt lat="47.70051" lon="-2.29407">
        <ele>70.1</ele>
        <time>2021-05-27T11:19:08Z</time>
      </trkpt>
      <trkpt lat="47.70052" lon="-2.29413">
        <ele>70.1</ele>
        <time>2021-05-27T11:19:09Z</time>
      </trkpt>
      <trkpt lat="47.70054" lon="-2.29419">
        <ele>70.1</ele>
        <time>2021-05-27T11:19:10Z</time>
      </trkpt>
      <trkpt lat="47.70055" lon="-2.29424">
        <ele>70.1</ele>
        <time>2021-05-27T11:19:11Z</time>
      </trkpt>
      <trkpt lat="47.70058" lon="-2.29431">
        <ele>70.2</ele>
        <time>2021-05-27T11:19:12Z</time>
      </trkpt>
      <trkpt lat="47.7006" lon="-2.29436">
        <ele>70.3</ele>
        <time>2021-05-27T11:19:13Z</time>
      </trkpt>
      <trkpt lat="47.70061" lon="-2.29442">
        <ele>70.3</ele>
        <time>2021-05-27T11:19:14Z</time>
      </trkpt>
      <trkpt lat="47.70064" lon="-2.29448">
        <ele>70.4</ele>
        <time>2021-05-27T11:19:15Z</time>
      </trkpt>
      <trkpt lat="47.70066" lon="-2.29453">
        <ele>70.5</ele>
        <time>2021-05-27T11:19:16Z</time>
      </trkpt>
      <trkpt lat="47.70068" lon="-2.29457">
        <ele>70.6</ele>
        <time>2021-05-27T11:19:17Z</time>
      </trkpt>
      <trkpt lat="47.70071" lon="-2.29461">
        <ele>70.7</ele>
        <time>2021-05-27T11:19:18Z</time>
      </trkpt>
      <trkpt lat="47.70071" lon="-2.29466">
        <ele>70.6</ele>
        <time>2021-05-27T11:19:19Z</time>
      </trkpt>
      <trkpt lat="47.70071" lon="-2.2947">
        <ele>70.5</ele>
        <time>2021-05-27T11:19:20Z</time>
      </trkpt>
      <trkpt lat="47.70069" lon="-2.29475">
        <ele>70.2</ele>
        <time>2021-05-27T11:19:21Z</time>
      </trkpt>
      <trkpt lat="47.70068" lon="-2.2948">
        <ele>70</ele>
        <time>2021-05-27T11:19:22Z</time>
      </trkpt>
      <trkpt lat="47.70067" lon="-2.29487">
        <ele>69.8</ele>
        <time>2021-05-27T11:19:23Z</time>
      </trkpt>
      <trkpt lat="47.70067" lon="-2.29493">
        <ele>69.6</ele>
        <time>2021-05-27T11:19:24Z</time>
      </trkpt>
      <trkpt lat="47.70068" lon="-2.29498">
        <ele>69.6</ele>
        <time>2021-05-27T11:19:25Z</time>
      </trkpt>
      <trkpt lat="47.70069" lon="-2.29504">
        <ele>69.7</ele>
        <time>2021-05-27T11:19:26Z</time>
      </trkpt>
      <trkpt lat="47.70069" lon="-2.29512">
        <ele>69.7</ele>
        <time>2021-05-27T11:19:27Z</time>
      </trkpt>
      <trkpt lat="47.70069" lon="-2.29519">
        <ele>69.8</ele>
        <time>2021-05-27T11:19:28Z</time>
      </trkpt>
      <trkpt lat="47.70069" lon="-2.29526">
        <ele>69.8</ele>
        <time>2021-05-27T11:19:29Z</time>
      </trkpt>
      <trkpt lat="47.70069" lon="-2.29533">
        <ele>69.8</ele>
        <time>2021-05-27T11:19:30Z</time>
      </trkpt>
      <trkpt lat="47.70069" lon="-2.29539">
        <ele>69.9</ele>
        <time>2021-05-27T11:19:31Z</time>
      </trkpt>
      <trkpt lat="47.70069" lon="-2.29545">
        <ele>69.8</ele>
        <time>2021-05-27T11:19:32Z</time>
      </trkpt>
      <trkpt lat="47.70067" lon="-2.29551">
        <ele>69.7</ele>
        <time>2021-05-27T11:19:33Z</time>
      </trkpt>
      <trkpt lat="47.70065" lon="-2.29556">
        <ele>69.5</ele>
        <time>2021-05-27T11:19:34Z</time>
      </trkpt>
      <trkpt lat="47.70064" lon="-2.29559">
        <ele>69.4</ele>
        <time>2021-05-27T11:19:35Z</time>
      </trkpt>
      <trkpt lat="47.70064" lon="-2.29561">
        <ele>69.3</ele>
        <time>2021-05-27T11:19:36Z</time>
      </trkpt>
      <trkpt lat="47.70064" lon="-2.29562">
        <ele>69.3</ele>
        <time>2021-05-27T11:19:37Z</time>
      </trkpt>
      <trkpt lat="47.70063" lon="-2.29562">
        <ele>69.3</ele>
        <time>2021-05-27T11:19:38Z</time>
      </trkpt>
      <trkpt lat="47.70063" lon="-2.29563">
        <ele>69.3</ele>
        <time>2021-05-27T11:19:39Z</time>
      </trkpt>
      <trkpt lat="47.70063" lon="-2.29563">
        <ele>69.3</ele>
        <time>2021-05-27T11:19:40Z</time>
      </trkpt>
      <trkpt lat="47.70063" lon="-2.29563">
        <ele>69.3</ele>
        <time>2021-05-27T11:19:41Z</time>
      </trkpt>
      <trkpt lat="47.70063" lon="-2.29563">
        <ele>69.3</ele>
        <time>2021-05-27T11:19:42Z</time>
      </trkpt>
      <trkpt lat="47.70063" lon="-2.29563">
        <ele>69.3</ele>
        <time>2021-05-27T11:19:43Z</time>
      </trkpt>
      <trkpt lat="47.70063" lon="-2.29563">
        <ele>69.3</ele>
        <time>2021-05-27T11:19:44Z</time>
      </trkpt>
      <trkpt lat="47.70063" lon="-2.29563">
        <ele>69.3</ele>
        <time>2021-05-27T11:19:45Z</time>
      </trkpt>
      <trkpt lat="47.70063" lon="-2.29563">
        <ele>69.3</ele>
        <time>2021-05-27T11:19:46Z</time>
      </trkpt>
      <trkpt lat="47.70063" lon="-2.29563">
        <ele>69.3</ele>
        <time>2021-05-27T11:19:47Z</time>
      </trkpt>
      <trkpt lat="47.70063" lon="-2.29563">
        <ele>69.3</ele>
        <time>2021-05-27T11:19:48Z</time>
      </trkpt>
      <trkpt lat="47.70063" lon="-2.29563">
        <ele>69.3</ele>
        <time>2021-05-27T11:19:49Z</time>
      </trkpt>
      <trkpt lat="47.70063" lon="-2.29563">
        <ele>69.3</ele>
        <time>2021-05-27T11:19:50Z</time>
      </trkpt>
      <trkpt lat="47.70063" lon="-2.29563">
        <ele>69.3</ele>
        <time>2021-05-27T11:19:51Z</time>
      </trkpt>
      <trkpt lat="47.70063" lon="-2.29563">
        <ele>69.3</ele>
        <time>2021-05-27T11:19:52Z</time>
      </trkpt>
      <trkpt lat="47.70066" lon="-2.29557">
        <ele>69.6</ele>
        <time>2021-05-27T11:19:53Z</time>
      </trkpt>
      <trkpt lat="47.70068" lon="-2.29558">
        <ele>69.8</ele>
        <time>2021-05-27T11:19:54Z</time>
      </trkpt>
      <trkpt lat="47.70071" lon="-2.2956">
        <ele>70.2</ele>
        <time>2021-05-27T11:19:55Z</time>
      </trkpt>
      <trkpt lat="47.70073" lon="-2.29562">
        <ele>70.5</ele>
        <time>2021-05-27T11:19:56Z</time>
      </trkpt>
      <trkpt lat="47.70075" lon="-2.29565">
        <ele>70.7</ele>
        <time>2021-05-27T11:19:57Z</time>
      </trkpt>
      <trkpt lat="47.70077" lon="-2.29568">
        <ele>71</ele>
        <time>2021-05-27T11:19:58Z</time>
      </trkpt>
      <trkpt lat="47.70078" lon="-2.29572">
        <ele>71.2</ele>
        <time>2021-05-27T11:19:59Z</time>
      </trkpt>
      <trkpt lat="47.70079" lon="-2.29575">
        <ele>71.4</ele>
        <time>2021-05-27T11:20:00Z</time>
      </trkpt>
      <trkpt lat="47.7008" lon="-2.29579">
        <ele>71.6</ele>
        <time>2021-05-27T11:20:01Z</time>
      </trkpt>
      <trkpt lat="47.70081" lon="-2.29584">
        <ele>71.7</ele>
        <time>2021-05-27T11:20:02Z</time>
      </trkpt>
      <trkpt lat="47.70082" lon="-2.29589">
        <ele>71.9</ele>
        <time>2021-05-27T11:20:03Z</time>
      </trkpt>
      <trkpt lat="47.70083" lon="-2.29592">
        <ele>72</ele>
        <time>2021-05-27T11:20:04Z</time>
      </trkpt>
      <trkpt lat="47.70084" lon="-2.29596">
        <ele>72</ele>
        <time>2021-05-27T11:20:05Z</time>
      </trkpt>
      <trkpt lat="47.70085" lon="-2.296">
        <ele>72</ele>
        <time>2021-05-27T11:20:06Z</time>
      </trkpt>
      <trkpt lat="47.70085" lon="-2.29605">
        <ele>72</ele>
        <time>2021-05-27T11:20:07Z</time>
      </trkpt>
      <trkpt lat="47.70086" lon="-2.29611">
        <ele>72</ele>
        <time>2021-05-27T11:20:08Z</time>
      </trkpt>
      <trkpt lat="47.70087" lon="-2.29617">
        <ele>72</ele>
        <time>2021-05-27T11:20:09Z</time>
      </trkpt>
      <trkpt lat="47.7009" lon="-2.29622">
        <ele>72</ele>
        <time>2021-05-27T11:20:10Z</time>
      </trkpt>
      <trkpt lat="47.70093" lon="-2.29626">
        <ele>71.9</ele>
        <time>2021-05-27T11:20:11Z</time>
      </trkpt>
      <trkpt lat="47.70096" lon="-2.29629">
        <ele>71.9</ele>
        <time>2021-05-27T11:20:12Z</time>
      </trkpt>
      <trkpt lat="47.70099" lon="-2.29633">
        <ele>71.9</ele>
        <time>2021-05-27T11:20:13Z</time>
      </trkpt>
      <trkpt lat="47.70102" lon="-2.29636">
        <ele>71.9</ele>
        <time>2021-05-27T11:20:14Z</time>
      </trkpt>
      <trkpt lat="47.70103" lon="-2.29639">
        <ele>71.9</ele>
        <time>2021-05-27T11:20:15Z</time>
      </trkpt>
      <trkpt lat="47.70106" lon="-2.29642">
        <ele>71.9</ele>
        <time>2021-05-27T11:20:16Z</time>
      </trkpt>
      <trkpt lat="47.70109" lon="-2.29646">
        <ele>71.9</ele>
        <time>2021-05-27T11:20:17Z</time>
      </trkpt>
      <trkpt lat="47.70114" lon="-2.2965">
        <ele>71.9</ele>
        <time>2021-05-27T11:20:18Z</time>
      </trkpt>
      <trkpt lat="47.70118" lon="-2.29654">
        <ele>71.9</ele>
        <time>2021-05-27T11:20:19Z</time>
      </trkpt>
      <trkpt lat="47.70121" lon="-2.29658">
        <ele>72</ele>
        <time>2021-05-27T11:20:20Z</time>
      </trkpt>
      <trkpt lat="47.70124" lon="-2.29662">
        <ele>72</ele>
        <time>2021-05-27T11:20:21Z</time>
      </trkpt>
      <trkpt lat="47.70127" lon="-2.29666">
        <ele>72</ele>
        <time>2021-05-27T11:20:22Z</time>
      </trkpt>
      <trkpt lat="47.7013" lon="-2.2967">
        <ele>72.1</ele>
        <time>2021-05-27T11:20:23Z</time>
      </trkpt>
      <trkpt lat="47.70132" lon="-2.29674">
        <ele>72.2</ele>
        <time>2021-05-27T11:20:24Z</time>
      </trkpt>
      <trkpt lat="47.70134" lon="-2.29679">
        <ele>72.3</ele>
        <time>2021-05-27T11:20:25Z</time>
      </trkpt>
      <trkpt lat="47.70134" lon="-2.29683">
        <ele>72.4</ele>
        <time>2021-05-27T11:20:26Z</time>
      </trkpt>
      <trkpt lat="47.70133" lon="-2.29687">
        <ele>72.5</ele>
        <time>2021-05-27T11:20:27Z</time>
      </trkpt>
      <trkpt lat="47.70131" lon="-2.29691">
        <ele>72.5</ele>
        <time>2021-05-27T11:20:28Z</time>
      </trkpt>
      <trkpt lat="47.7013" lon="-2.29694">
        <ele>72.6</ele>
        <time>2021-05-27T11:20:29Z</time>
      </trkpt>
      <trkpt lat="47.70129" lon="-2.29697">
        <ele>72.6</ele>
        <time>2021-05-27T11:20:30Z</time>
      </trkpt>
      <trkpt lat="47.70129" lon="-2.29699">
        <ele>72.7</ele>
        <time>2021-05-27T11:20:31Z</time>
      </trkpt>
      <trkpt lat="47.70128" lon="-2.297">
        <ele>72.7</ele>
        <time>2021-05-27T11:20:32Z</time>
      </trkpt>
      <trkpt lat="47.70128" lon="-2.29701">
        <ele>72.7</ele>
        <time>2021-05-27T11:20:33Z</time>
      </trkpt>
      <trkpt lat="47.70129" lon="-2.29704">
        <ele>72.8</ele>
        <time>2021-05-27T11:20:34Z</time>
      </trkpt>
      <trkpt lat="47.7013" lon="-2.29707">
        <ele>72.9</ele>
        <time>2021-05-27T11:20:35Z</time>
      </trkpt>
      <trkpt lat="47.7013" lon="-2.29711">
        <ele>72.9</ele>
        <time>2021-05-27T11:20:36Z</time>
      </trkpt>
      <trkpt lat="47.7013" lon="-2.29715">
        <ele>73</ele>
        <time>2021-05-27T11:20:37Z</time>
      </trkpt>
      <trkpt lat="47.7013" lon="-2.2972">
        <ele>73.1</ele>
        <time>2021-05-27T11:20:38Z</time>
      </trkpt>
      <trkpt lat="47.70129" lon="-2.29723">
        <ele>73.2</ele>
        <time>2021-05-27T11:20:39Z</time>
      </trkpt>
      <trkpt lat="47.70129" lon="-2.29726">
        <ele>73.2</ele>
        <time>2021-05-27T11:20:40Z</time>
      </trkpt>
      <trkpt lat="47.7013" lon="-2.29728">
        <ele>73.3</ele>
        <time>2021-05-27T11:20:41Z</time>
      </trkpt>
      <trkpt lat="47.70132" lon="-2.29731">
        <ele>73.5</ele>
        <time>2021-05-27T11:20:42Z</time>
      </trkpt>
      <trkpt lat="47.70134" lon="-2.29734">
        <ele>73.7</ele>
        <time>2021-05-27T11:20:43Z</time>
      </trkpt>
      <trkpt lat="47.70136" lon="-2.29739">
        <ele>73.9</ele>
        <time>2021-05-27T11:20:44Z</time>
      </trkpt>
      <trkpt lat="47.70137" lon="-2.29743">
        <ele>74</ele>
        <time>2021-05-27T11:20:45Z</time>
      </trkpt>
      <trkpt lat="47.70138" lon="-2.29747">
        <ele>74.2</ele>
        <time>2021-05-27T11:20:46Z</time>
      </trkpt>
      <trkpt lat="47.70139" lon="-2.29752">
        <ele>74.4</ele>
        <time>2021-05-27T11:20:47Z</time>
      </trkpt>
      <trkpt lat="47.70139" lon="-2.29758">
        <ele>74.6</ele>
        <time>2021-05-27T11:20:48Z</time>
      </trkpt>
      <trkpt lat="47.70139" lon="-2.29763">
        <ele>74.8</ele>
        <time>2021-05-27T11:20:49Z</time>
      </trkpt>
      <trkpt lat="47.70139" lon="-2.29768">
        <ele>75</ele>
        <time>2021-05-27T11:20:50Z</time>
      </trkpt>
      <trkpt lat="47.70139" lon="-2.29773">
        <ele>75.1</ele>
        <time>2021-05-27T11:20:51Z</time>
      </trkpt>
      <trkpt lat="47.70139" lon="-2.29779">
        <ele>75.3</ele>
        <time>2021-05-27T11:20:52Z</time>
      </trkpt>
      <trkpt lat="47.70139" lon="-2.29785">
        <ele>75.6</ele>
        <time>2021-05-27T11:20:53Z</time>
      </trkpt>
      <trkpt lat="47.70138" lon="-2.29792">
        <ele>75.8</ele>
        <time>2021-05-27T11:20:54Z</time>
      </trkpt>
      <trkpt lat="47.70138" lon="-2.29798">
        <ele>76</ele>
        <time>2021-05-27T11:20:55Z</time>
      </trkpt>
      <trkpt lat="47.70138" lon="-2.29805">
        <ele>76.3</ele>
        <time>2021-05-27T11:20:56Z</time>
      </trkpt>
      <trkpt lat="47.70138" lon="-2.29811">
        <ele>76.5</ele>
        <time>2021-05-27T11:20:57Z</time>
      </trkpt>
      <trkpt lat="47.70137" lon="-2.29817">
        <ele>76.6</ele>
        <time>2021-05-27T11:20:58Z</time>
      </trkpt>
      <trkpt lat="47.70137" lon="-2.29824">
        <ele>76.8</ele>
        <time>2021-05-27T11:20:59Z</time>
      </trkpt>
      <trkpt lat="47.70136" lon="-2.29831">
        <ele>77</ele>
        <time>2021-05-27T11:21:00Z</time>
      </trkpt>
      <trkpt lat="47.70136" lon="-2.29838">
        <ele>77</ele>
        <time>2021-05-27T11:21:01Z</time>
      </trkpt>
      <trkpt lat="47.70136" lon="-2.29844">
        <ele>77</ele>
        <time>2021-05-27T11:21:02Z</time>
      </trkpt>
      <trkpt lat="47.70137" lon="-2.2985">
        <ele>77</ele>
        <time>2021-05-27T11:21:03Z</time>
      </trkpt>
      <trkpt lat="47.70137" lon="-2.29856">
        <ele>77</ele>
        <time>2021-05-27T11:21:04Z</time>
      </trkpt>
      <trkpt lat="47.70137" lon="-2.29862">
        <ele>76.9</ele>
        <time>2021-05-27T11:21:05Z</time>
      </trkpt>
      <trkpt lat="47.70137" lon="-2.29867">
        <ele>76.9</ele>
        <time>2021-05-27T11:21:06Z</time>
      </trkpt>
      <trkpt lat="47.70137" lon="-2.29873">
        <ele>76.8</ele>
        <time>2021-05-27T11:21:07Z</time>
      </trkpt>
      <trkpt lat="47.70137" lon="-2.29878">
        <ele>76.8</ele>
        <time>2021-05-27T11:21:08Z</time>
      </trkpt>
      <trkpt lat="47.70137" lon="-2.29883">
        <ele>76.8</ele>
        <time>2021-05-27T11:21:09Z</time>
      </trkpt>
      <trkpt lat="47.70137" lon="-2.2989">
        <ele>76.8</ele>
        <time>2021-05-27T11:21:10Z</time>
      </trkpt>
      <trkpt lat="47.70137" lon="-2.29895">
        <ele>76.7</ele>
        <time>2021-05-27T11:21:11Z</time>
      </trkpt>
      <trkpt lat="47.70137" lon="-2.29901">
        <ele>76.6</ele>
        <time>2021-05-27T11:21:12Z</time>
      </trkpt>
      <trkpt lat="47.70137" lon="-2.29907">
        <ele>76.6</ele>
        <time>2021-05-27T11:21:13Z</time>
      </trkpt>
      <trkpt lat="47.70137" lon="-2.29914">
        <ele>76.5</ele>
        <time>2021-05-27T11:21:14Z</time>
      </trkpt>
      <trkpt lat="47.70137" lon="-2.2992">
        <ele>76.4</ele>
        <time>2021-05-27T11:21:15Z</time>
      </trkpt>
      <trkpt lat="47.70137" lon="-2.29926">
        <ele>76.2</ele>
        <time>2021-05-27T11:21:16Z</time>
      </trkpt>
      <trkpt lat="47.70138" lon="-2.29932">
        <ele>76.1</ele>
        <time>2021-05-27T11:21:17Z</time>
      </trkpt>
      <trkpt lat="47.70138" lon="-2.29939">
        <ele>75.9</ele>
        <time>2021-05-27T11:21:18Z</time>
      </trkpt>
      <trkpt lat="47.70138" lon="-2.29946">
        <ele>75.7</ele>
        <time>2021-05-27T11:21:19Z</time>
      </trkpt>
      <trkpt lat="47.70138" lon="-2.29951">
        <ele>75.5</ele>
        <time>2021-05-27T11:21:20Z</time>
      </trkpt>
      <trkpt lat="47.70137" lon="-2.29956">
        <ele>75.3</ele>
        <time>2021-05-27T11:21:21Z</time>
      </trkpt>
      <trkpt lat="47.70134" lon="-2.29961">
        <ele>75</ele>
        <time>2021-05-27T11:21:22Z</time>
      </trkpt>
      <trkpt lat="47.70133" lon="-2.29967">
        <ele>74.8</ele>
        <time>2021-05-27T11:21:23Z</time>
      </trkpt>
      <trkpt lat="47.70132" lon="-2.29972">
        <ele>74.5</ele>
        <time>2021-05-27T11:21:24Z</time>
      </trkpt>
      <trkpt lat="47.70131" lon="-2.29978">
        <ele>74.3</ele>
        <time>2021-05-27T11:21:25Z</time>
      </trkpt>
      <trkpt lat="47.70129" lon="-2.29983">
        <ele>74.1</ele>
        <time>2021-05-27T11:21:26Z</time>
      </trkpt>
      <trkpt lat="47.70127" lon="-2.29989">
        <ele>73.9</ele>
        <time>2021-05-27T11:21:27Z</time>
      </trkpt>
      <trkpt lat="47.70126" lon="-2.29993">
        <ele>73.7</ele>
        <time>2021-05-27T11:21:28Z</time>
      </trkpt>
      <trkpt lat="47.70125" lon="-2.29997">
        <ele>73.6</ele>
        <time>2021-05-27T11:21:29Z</time>
      </trkpt>
      <trkpt lat="47.70125" lon="-2.3">
        <ele>73.5</ele>
        <time>2021-05-27T11:21:30Z</time>
      </trkpt>
      <trkpt lat="47.70127" lon="-2.30003">
        <ele>73.6</ele>
        <time>2021-05-27T11:21:31Z</time>
      </trkpt>
      <trkpt lat="47.70129" lon="-2.30005">
        <ele>73.7</ele>
        <time>2021-05-27T11:21:32Z</time>
      </trkpt>
      <trkpt lat="47.70133" lon="-2.30005">
        <ele>73.8</ele>
        <time>2021-05-27T11:21:33Z</time>
      </trkpt>
      <trkpt lat="47.70137" lon="-2.30005">
        <ele>73.9</ele>
        <time>2021-05-27T11:21:34Z</time>
      </trkpt>
      <trkpt lat="47.70141" lon="-2.30007">
        <ele>74.1</ele>
        <time>2021-05-27T11:21:35Z</time>
      </trkpt>
      <trkpt lat="47.70147" lon="-2.30008">
        <ele>74.2</ele>
        <time>2021-05-27T11:21:36Z</time>
      </trkpt>
      <trkpt lat="47.70151" lon="-2.30009">
        <ele>74.4</ele>
        <time>2021-05-27T11:21:37Z</time>
      </trkpt>
      <trkpt lat="47.70157" lon="-2.3001">
        <ele>74.6</ele>
        <time>2021-05-27T11:21:38Z</time>
      </trkpt>
      <trkpt lat="47.70161" lon="-2.30012">
        <ele>74.7</ele>
        <time>2021-05-27T11:21:39Z</time>
      </trkpt>
      <trkpt lat="47.70167" lon="-2.30013">
        <ele>74.8</ele>
        <time>2021-05-27T11:21:40Z</time>
      </trkpt>
      <trkpt lat="47.70172" lon="-2.30015">
        <ele>74.8</ele>
        <time>2021-05-27T11:21:41Z</time>
      </trkpt>
      <trkpt lat="47.70178" lon="-2.30016">
        <ele>74.8</ele>
        <time>2021-05-27T11:21:42Z</time>
      </trkpt>
      <trkpt lat="47.70183" lon="-2.30017">
        <ele>74.8</ele>
        <time>2021-05-27T11:21:43Z</time>
      </trkpt>
      <trkpt lat="47.70187" lon="-2.30017">
        <ele>74.7</ele>
        <time>2021-05-27T11:21:44Z</time>
      </trkpt>
      <trkpt lat="47.70191" lon="-2.30017">
        <ele>74.7</ele>
        <time>2021-05-27T11:21:45Z</time>
      </trkpt>
      <trkpt lat="47.70195" lon="-2.30017">
        <ele>74.7</ele>
        <time>2021-05-27T11:21:46Z</time>
      </trkpt>
      <trkpt lat="47.70199" lon="-2.30017">
        <ele>74.7</ele>
        <time>2021-05-27T11:21:47Z</time>
      </trkpt>
      <trkpt lat="47.70202" lon="-2.30017">
        <ele>74.7</ele>
        <time>2021-05-27T11:21:48Z</time>
      </trkpt>
      <trkpt lat="47.70206" lon="-2.30018">
        <ele>74.7</ele>
        <time>2021-05-27T11:21:49Z</time>
      </trkpt>
      <trkpt lat="47.70209" lon="-2.30018">
        <ele>74.7</ele>
        <time>2021-05-27T11:21:50Z</time>
      </trkpt>
      <trkpt lat="47.70212" lon="-2.30018">
        <ele>74.7</ele>
        <time>2021-05-27T11:21:51Z</time>
      </trkpt>
      <trkpt lat="47.70213" lon="-2.30018">
        <ele>74.7</ele>
        <time>2021-05-27T11:21:52Z</time>
      </trkpt>
      <trkpt lat="47.70213" lon="-2.30017">
        <ele>74.7</ele>
        <time>2021-05-27T11:21:53Z</time>
      </trkpt>
      <trkpt lat="47.70213" lon="-2.30017">
        <ele>74.7</ele>
        <time>2021-05-27T11:21:54Z</time>
      </trkpt>
      <trkpt lat="47.70213" lon="-2.30017">
        <ele>74.7</ele>
        <time>2021-05-27T11:21:55Z</time>
      </trkpt>
      <trkpt lat="47.70213" lon="-2.30017">
        <ele>74.7</ele>
        <time>2021-05-27T11:21:56Z</time>
      </trkpt>
      <trkpt lat="47.70213" lon="-2.30017">
        <ele>74.7</ele>
        <time>2021-05-27T11:21:57Z</time>
      </trkpt>
      <trkpt lat="47.70217" lon="-2.3002">
        <ele>74.6</ele>
        <time>2021-05-27T11:21:58Z</time>
      </trkpt>
      <trkpt lat="47.70221" lon="-2.30021">
        <ele>74.6</ele>
        <time>2021-05-27T11:21:59Z</time>
      </trkpt>
      <trkpt lat="47.70226" lon="-2.30022">
        <ele>74.6</ele>
        <time>2021-05-27T11:22:00Z</time>
      </trkpt>
      <trkpt lat="47.7023" lon="-2.30022">
        <ele>74.5</ele>
        <time>2021-05-27T11:22:01Z</time>
      </trkpt>
      <trkpt lat="47.70236" lon="-2.30023">
        <ele>74.5</ele>
        <time>2021-05-27T11:22:02Z</time>
      </trkpt>
      <trkpt lat="47.70241" lon="-2.30024">
        <ele>74.5</ele>
        <time>2021-05-27T11:22:03Z</time>
      </trkpt>
      <trkpt lat="47.70245" lon="-2.30025">
        <ele>74.4</ele>
        <time>2021-05-27T11:22:04Z</time>
      </trkpt>
      <trkpt lat="47.7025" lon="-2.30028">
        <ele>74.3</ele>
        <time>2021-05-27T11:22:05Z</time>
      </trkpt>
      <trkpt lat="47.70254" lon="-2.30032">
        <ele>73.3</ele>
        <time>2021-05-27T11:22:06Z</time>
      </trkpt>
      <trkpt lat="47.70258" lon="-2.30037">
        <ele>72.4</ele>
        <time>2021-05-27T11:22:07Z</time>
      </trkpt>
      <trkpt lat="47.70262" lon="-2.30042">
        <ele>71.7</ele>
        <time>2021-05-27T11:22:08Z</time>
      </trkpt>
      <trkpt lat="47.70263" lon="-2.30047">
        <ele>71.4</ele>
        <time>2021-05-27T11:22:09Z</time>
      </trkpt>
      <trkpt lat="47.70264" lon="-2.30052">
        <ele>71.1</ele>
        <time>2021-05-27T11:22:10Z</time>
      </trkpt>
      <trkpt lat="47.70264" lon="-2.30058">
        <ele>71</ele>
        <time>2021-05-27T11:22:11Z</time>
      </trkpt>
      <trkpt lat="47.70264" lon="-2.30064">
        <ele>71</ele>
        <time>2021-05-27T11:22:12Z</time>
      </trkpt>
      <trkpt lat="47.70264" lon="-2.3007">
        <ele>70.9</ele>
        <time>2021-05-27T11:22:13Z</time>
      </trkpt>
      <trkpt lat="47.70264" lon="-2.30075">
        <ele>70.9</ele>
        <time>2021-05-27T11:22:14Z</time>
      </trkpt>
      <trkpt lat="47.70264" lon="-2.30081">
        <ele>70.8</ele>
        <time>2021-05-27T11:22:15Z</time>
      </trkpt>
      <trkpt lat="47.70264" lon="-2.30087">
        <ele>70.8</ele>
        <time>2021-05-27T11:22:16Z</time>
      </trkpt>
      <trkpt lat="47.70263" lon="-2.30097">
        <ele>70.9</ele>
        <time>2021-05-27T11:22:18Z</time>
      </trkpt>
      <trkpt lat="47.70263" lon="-2.30102">
        <ele>70.9</ele>
        <time>2021-05-27T11:22:19Z</time>
      </trkpt>
      <trkpt lat="47.70263" lon="-2.30108">
        <ele>71</ele>
        <time>2021-05-27T11:22:20Z</time>
      </trkpt>
      <trkpt lat="47.70262" lon="-2.30113">
        <ele>71.1</ele>
        <time>2021-05-27T11:22:21Z</time>
      </trkpt>
      <trkpt lat="47.70261" lon="-2.30119">
        <ele>71.2</ele>
        <time>2021-05-27T11:22:22Z</time>
      </trkpt>
      <trkpt lat="47.70261" lon="-2.30125">
        <ele>71.2</ele>
        <time>2021-05-27T11:22:23Z</time>
      </trkpt>
      <trkpt lat="47.7026" lon="-2.30131">
        <ele>71.3</ele>
        <time>2021-05-27T11:22:24Z</time>
      </trkpt>
      <trkpt lat="47.7026" lon="-2.30138">
        <ele>71.3</ele>
        <time>2021-05-27T11:22:25Z</time>
      </trkpt>
      <trkpt lat="47.70259" lon="-2.30144">
        <ele>71.3</ele>
        <time>2021-05-27T11:22:26Z</time>
      </trkpt>
      <trkpt lat="47.70258" lon="-2.3015">
        <ele>71.4</ele>
        <time>2021-05-27T11:22:27Z</time>
      </trkpt>
      <trkpt lat="47.70256" lon="-2.30156">
        <ele>71.5</ele>
        <time>2021-05-27T11:22:28Z</time>
      </trkpt>
      <trkpt lat="47.70255" lon="-2.30162">
        <ele>71.6</ele>
        <time>2021-05-27T11:22:29Z</time>
      </trkpt>
      <trkpt lat="47.70253" lon="-2.30169">
        <ele>71.7</ele>
        <time>2021-05-27T11:22:30Z</time>
      </trkpt>
      <trkpt lat="47.70252" lon="-2.30176">
        <ele>71.9</ele>
        <time>2021-05-27T11:22:31Z</time>
      </trkpt>
      <trkpt lat="47.70252" lon="-2.30183">
        <ele>72.1</ele>
        <time>2021-05-27T11:22:32Z</time>
      </trkpt>
      <trkpt lat="47.70251" lon="-2.3019">
        <ele>72.2</ele>
        <time>2021-05-27T11:22:33Z</time>
      </trkpt>
      <trkpt lat="47.70249" lon="-2.30198">
        <ele>72.4</ele>
        <time>2021-05-27T11:22:34Z</time>
      </trkpt>
      <trkpt lat="47.70248" lon="-2.30205">
        <ele>72.5</ele>
        <time>2021-05-27T11:22:35Z</time>
      </trkpt>
      <trkpt lat="47.70248" lon="-2.30212">
        <ele>72.6</ele>
        <time>2021-05-27T11:22:36Z</time>
      </trkpt>
      <trkpt lat="47.70246" lon="-2.30219">
        <ele>72.7</ele>
        <time>2021-05-27T11:22:37Z</time>
      </trkpt>
      <trkpt lat="47.70245" lon="-2.30226">
        <ele>72.8</ele>
        <time>2021-05-27T11:22:38Z</time>
      </trkpt>
      <trkpt lat="47.70243" lon="-2.30233">
        <ele>72.8</ele>
        <time>2021-05-27T11:22:39Z</time>
      </trkpt>
      <trkpt lat="47.70242" lon="-2.30239">
        <ele>72.9</ele>
        <time>2021-05-27T11:22:40Z</time>
      </trkpt>
      <trkpt lat="47.7024" lon="-2.30245">
        <ele>73</ele>
        <time>2021-05-27T11:22:41Z</time>
      </trkpt>
      <trkpt lat="47.70239" lon="-2.3025">
        <ele>73</ele>
        <time>2021-05-27T11:22:42Z</time>
      </trkpt>
      <trkpt lat="47.70238" lon="-2.30254">
        <ele>73.1</ele>
        <time>2021-05-27T11:22:43Z</time>
      </trkpt>
      <trkpt lat="47.70237" lon="-2.30256">
        <ele>73.2</ele>
        <time>2021-05-27T11:22:44Z</time>
      </trkpt>
      <trkpt lat="47.70237" lon="-2.30259">
        <ele>73.3</ele>
        <time>2021-05-27T11:22:45Z</time>
      </trkpt>
      <trkpt lat="47.70236" lon="-2.30263">
        <ele>73.4</ele>
        <time>2021-05-27T11:22:46Z</time>
      </trkpt>
      <trkpt lat="47.70234" lon="-2.30266">
        <ele>73.5</ele>
        <time>2021-05-27T11:22:47Z</time>
      </trkpt>
      <trkpt lat="47.70232" lon="-2.30269">
        <ele>73.6</ele>
        <time>2021-05-27T11:22:48Z</time>
      </trkpt>
      <trkpt lat="47.70232" lon="-2.30274">
        <ele>73.8</ele>
        <time>2021-05-27T11:22:49Z</time>
      </trkpt>
      <trkpt lat="47.70234" lon="-2.30276">
        <ele>73.9</ele>
        <time>2021-05-27T11:22:50Z</time>
      </trkpt>
      <trkpt lat="47.70236" lon="-2.30278">
        <ele>74</ele>
        <time>2021-05-27T11:22:51Z</time>
      </trkpt>
      <trkpt lat="47.70239" lon="-2.30278">
        <ele>74</ele>
        <time>2021-05-27T11:22:52Z</time>
      </trkpt>
      <trkpt lat="47.70241" lon="-2.30277">
        <ele>73.9</ele>
        <time>2021-05-27T11:22:53Z</time>
      </trkpt>
      <trkpt lat="47.70243" lon="-2.30275">
        <ele>73.9</ele>
        <time>2021-05-27T11:22:54Z</time>
      </trkpt>
      <trkpt lat="47.70245" lon="-2.30272">
        <ele>73.8</ele>
        <time>2021-05-27T11:22:55Z</time>
      </trkpt>
      <trkpt lat="47.70248" lon="-2.3027">
        <ele>73.7</ele>
        <time>2021-05-27T11:22:56Z</time>
      </trkpt>
      <trkpt lat="47.70251" lon="-2.30267">
        <ele>73.5</ele>
        <time>2021-05-27T11:22:57Z</time>
      </trkpt>
      <trkpt lat="47.70255" lon="-2.30265">
        <ele>73.2</ele>
        <time>2021-05-27T11:22:58Z</time>
      </trkpt>
      <trkpt lat="47.70259" lon="-2.30263">
        <ele>72.8</ele>
        <time>2021-05-27T11:22:59Z</time>
      </trkpt>
      <trkpt lat="47.70263" lon="-2.30263">
        <ele>72.5</ele>
        <time>2021-05-27T11:23:00Z</time>
      </trkpt>
      <trkpt lat="47.70267" lon="-2.30262">
        <ele>72.1</ele>
        <time>2021-05-27T11:23:01Z</time>
      </trkpt>
      <trkpt lat="47.7027" lon="-2.30261">
        <ele>71.8</ele>
        <time>2021-05-27T11:23:02Z</time>
      </trkpt>
      <trkpt lat="47.70272" lon="-2.30258">
        <ele>71.6</ele>
        <time>2021-05-27T11:23:03Z</time>
      </trkpt>
      <trkpt lat="47.70274" lon="-2.30255">
        <ele>71.3</ele>
        <time>2021-05-27T11:23:04Z</time>
      </trkpt>
      <trkpt lat="47.70276" lon="-2.30251">
        <ele>70.9</ele>
        <time>2021-05-27T11:23:05Z</time>
      </trkpt>
      <trkpt lat="47.70279" lon="-2.30246">
        <ele>70.5</ele>
        <time>2021-05-27T11:23:06Z</time>
      </trkpt>
      <trkpt lat="47.70282" lon="-2.30241">
        <ele>70.2</ele>
        <time>2021-05-27T11:23:07Z</time>
      </trkpt>
      <trkpt lat="47.70287" lon="-2.30237">
        <ele>69.8</ele>
        <time>2021-05-27T11:23:08Z</time>
      </trkpt>
      <trkpt lat="47.7029" lon="-2.30233">
        <ele>69.4</ele>
        <time>2021-05-27T11:23:09Z</time>
      </trkpt>
      <trkpt lat="47.70294" lon="-2.3023">
        <ele>69.1</ele>
        <time>2021-05-27T11:23:10Z</time>
      </trkpt>
      <trkpt lat="47.70298" lon="-2.30229">
        <ele>68.7</ele>
        <time>2021-05-27T11:23:11Z</time>
      </trkpt>
      <trkpt lat="47.70303" lon="-2.30228">
        <ele>68.3</ele>
        <time>2021-05-27T11:23:12Z</time>
      </trkpt>
      <trkpt lat="47.70308" lon="-2.30225">
        <ele>67.8</ele>
        <time>2021-05-27T11:23:13Z</time>
      </trkpt>
      <trkpt lat="47.70314" lon="-2.30222">
        <ele>67.3</ele>
        <time>2021-05-27T11:23:14Z</time>
      </trkpt>
      <trkpt lat="47.7032" lon="-2.30219">
        <ele>66.7</ele>
        <time>2021-05-27T11:23:15Z</time>
      </trkpt>
      <trkpt lat="47.70326" lon="-2.30216">
        <ele>66.2</ele>
        <time>2021-05-27T11:23:16Z</time>
      </trkpt>
      <trkpt lat="47.70334" lon="-2.30214">
        <ele>65.5</ele>
        <time>2021-05-27T11:23:17Z</time>
      </trkpt>
      <trkpt lat="47.70341" lon="-2.30214">
        <ele>64.2</ele>
        <time>2021-05-27T11:23:18Z</time>
      </trkpt>
      <trkpt lat="47.70346" lon="-2.30214">
        <ele>63.2</ele>
        <time>2021-05-27T11:23:19Z</time>
      </trkpt>
      <trkpt lat="47.70352" lon="-2.30213">
        <ele>62</ele>
        <time>2021-05-27T11:23:20Z</time>
      </trkpt>
      <trkpt lat="47.70358" lon="-2.30212">
        <ele>60.8</ele>
        <time>2021-05-27T11:23:21Z</time>
      </trkpt>
      <trkpt lat="47.70365" lon="-2.30211">
        <ele>59.5</ele>
        <time>2021-05-27T11:23:22Z</time>
      </trkpt>
      <trkpt lat="47.70371" lon="-2.30209">
        <ele>58.3</ele>
        <time>2021-05-27T11:23:23Z</time>
      </trkpt>
      <trkpt lat="47.70377" lon="-2.30205">
        <ele>57.1</ele>
        <time>2021-05-27T11:23:24Z</time>
      </trkpt>
      <trkpt lat="47.70381" lon="-2.302">
        <ele>56</ele>
        <time>2021-05-27T11:23:25Z</time>
      </trkpt>
      <trkpt lat="47.70386" lon="-2.30196">
        <ele>54.9</ele>
        <time>2021-05-27T11:23:26Z</time>
      </trkpt>
      <trkpt lat="47.7039" lon="-2.30194">
        <ele>54</ele>
        <time>2021-05-27T11:23:27Z</time>
      </trkpt>
      <trkpt lat="47.70394" lon="-2.30192">
        <ele>53</ele>
        <time>2021-05-27T11:23:28Z</time>
      </trkpt>
      <trkpt lat="47.70399" lon="-2.30191">
        <ele>52</ele>
        <time>2021-05-27T11:23:29Z</time>
      </trkpt>
      <trkpt lat="47.70403" lon="-2.30191">
        <ele>51.2</ele>
        <time>2021-05-27T11:23:30Z</time>
      </trkpt>
      <trkpt lat="47.70409" lon="-2.30192">
        <ele>50.1</ele>
        <time>2021-05-27T11:23:31Z</time>
      </trkpt>
      <trkpt lat="47.70413" lon="-2.30193">
        <ele>49.4</ele>
        <time>2021-05-27T11:23:32Z</time>
      </trkpt>
      <trkpt lat="47.70416" lon="-2.30196">
        <ele>48.8</ele>
        <time>2021-05-27T11:23:33Z</time>
      </trkpt>
      <trkpt lat="47.70419" lon="-2.30201">
        <ele>48.8</ele>
        <time>2021-05-27T11:23:34Z</time>
      </trkpt>
      <trkpt lat="47.70421" lon="-2.30206">
        <ele>48.8</ele>
        <time>2021-05-27T11:23:35Z</time>
      </trkpt>
      <trkpt lat="47.70423" lon="-2.30211">
        <ele>48.8</ele>
        <time>2021-05-27T11:23:36Z</time>
      </trkpt>
      <trkpt lat="47.70427" lon="-2.30216">
        <ele>48.4</ele>
        <time>2021-05-27T11:23:37Z</time>
      </trkpt>
      <trkpt lat="47.70432" lon="-2.30221">
        <ele>47.9</ele>
        <time>2021-05-27T11:23:38Z</time>
      </trkpt>
      <trkpt lat="47.70437" lon="-2.30227">
        <ele>47.4</ele>
        <time>2021-05-27T11:23:39Z</time>
      </trkpt>
      <trkpt lat="47.70442" lon="-2.30235">
        <ele>47</ele>
        <time>2021-05-27T11:23:40Z</time>
      </trkpt>
      <trkpt lat="47.70446" lon="-2.30242">
        <ele>46.7</ele>
        <time>2021-05-27T11:23:41Z</time>
      </trkpt>
      <trkpt lat="47.7045" lon="-2.30251">
        <ele>46.3</ele>
        <time>2021-05-27T11:23:42Z</time>
      </trkpt>
      <trkpt lat="47.70453" lon="-2.30258">
        <ele>45.8</ele>
        <time>2021-05-27T11:23:43Z</time>
      </trkpt>
      <trkpt lat="47.70458" lon="-2.30266">
        <ele>45.1</ele>
        <time>2021-05-27T11:23:44Z</time>
      </trkpt>
      <trkpt lat="47.70461" lon="-2.30272">
        <ele>44.5</ele>
        <time>2021-05-27T11:23:45Z</time>
      </trkpt>
      <trkpt lat="47.70463" lon="-2.30278">
        <ele>44.2</ele>
        <time>2021-05-27T11:23:46Z</time>
      </trkpt>
      <trkpt lat="47.70463" lon="-2.30284">
        <ele>44.2</ele>
        <time>2021-05-27T11:23:47Z</time>
      </trkpt>
      <trkpt lat="47.70461" lon="-2.3029">
        <ele>44.5</ele>
        <time>2021-05-27T11:23:48Z</time>
      </trkpt>
      <trkpt lat="47.70459" lon="-2.30294">
        <ele>44.8</ele>
        <time>2021-05-27T11:23:49Z</time>
      </trkpt>
      <trkpt lat="47.70456" lon="-2.30296">
        <ele>45.4</ele>
        <time>2021-05-27T11:23:50Z</time>
      </trkpt>
      <trkpt lat="47.70454" lon="-2.30298">
        <ele>45.8</ele>
        <time>2021-05-27T11:23:51Z</time>
      </trkpt>
      <trkpt lat="47.70452" lon="-2.303">
        <ele>46.2</ele>
        <time>2021-05-27T11:23:52Z</time>
      </trkpt>
      <trkpt lat="47.7045" lon="-2.30302">
        <ele>46.6</ele>
        <time>2021-05-27T11:23:53Z</time>
      </trkpt>
      <trkpt lat="47.70449" lon="-2.30304">
        <ele>46.8</ele>
        <time>2021-05-27T11:23:54Z</time>
      </trkpt>
      <trkpt lat="47.70447" lon="-2.30306">
        <ele>47.1</ele>
        <time>2021-05-27T11:23:55Z</time>
      </trkpt>
      <trkpt lat="47.70445" lon="-2.30308">
        <ele>47.4</ele>
        <time>2021-05-27T11:23:56Z</time>
      </trkpt>
      <trkpt lat="47.70443" lon="-2.3031">
        <ele>47.8</ele>
        <time>2021-05-27T11:23:57Z</time>
      </trkpt>
      <trkpt lat="47.70441" lon="-2.30311">
        <ele>48.2</ele>
        <time>2021-05-27T11:23:58Z</time>
      </trkpt>
      <trkpt lat="47.70439" lon="-2.30314">
        <ele>48.6</ele>
        <time>2021-05-27T11:23:59Z</time>
      </trkpt>
      <trkpt lat="47.70438" lon="-2.30317">
        <ele>48.8</ele>
        <time>2021-05-27T11:24:00Z</time>
      </trkpt>
      <trkpt lat="47.70437" lon="-2.30322">
        <ele>49</ele>
        <time>2021-05-27T11:24:01Z</time>
      </trkpt>
      <trkpt lat="47.70436" lon="-2.30326">
        <ele>49.2</ele>
        <time>2021-05-27T11:24:02Z</time>
      </trkpt>
      <trkpt lat="47.70435" lon="-2.30331">
        <ele>49.5</ele>
        <time>2021-05-27T11:24:03Z</time>
      </trkpt>
      <trkpt lat="47.70434" lon="-2.30336">
        <ele>49.7</ele>
        <time>2021-05-27T11:24:04Z</time>
      </trkpt>
      <trkpt lat="47.70432" lon="-2.30341">
        <ele>50</ele>
        <time>2021-05-27T11:24:05Z</time>
      </trkpt>
      <trkpt lat="47.70431" lon="-2.30346">
        <ele>50.2</ele>
        <time>2021-05-27T11:24:06Z</time>
      </trkpt>
      <trkpt lat="47.7043" lon="-2.3035">
        <ele>50.4</ele>
        <time>2021-05-27T11:24:07Z</time>
      </trkpt>
      <trkpt lat="47.70429" lon="-2.30354">
        <ele>50.7</ele>
        <time>2021-05-27T11:24:08Z</time>
      </trkpt>
      <trkpt lat="47.70426" lon="-2.30358">
        <ele>51.1</ele>
        <time>2021-05-27T11:24:09Z</time>
      </trkpt>
      <trkpt lat="47.70425" lon="-2.30362">
        <ele>51.4</ele>
        <time>2021-05-27T11:24:10Z</time>
      </trkpt>
      <trkpt lat="47.70423" lon="-2.30366">
        <ele>51.8</ele>
        <time>2021-05-27T11:24:11Z</time>
      </trkpt>
      <trkpt lat="47.70421" lon="-2.30369">
        <ele>52.1</ele>
        <time>2021-05-27T11:24:12Z</time>
      </trkpt>
      <trkpt lat="47.7042" lon="-2.30372">
        <ele>52.4</ele>
        <time>2021-05-27T11:24:13Z</time>
      </trkpt>
      <trkpt lat="47.70419" lon="-2.30375">
        <ele>52.6</ele>
        <time>2021-05-27T11:24:14Z</time>
      </trkpt>
      <trkpt lat="47.70417" lon="-2.30377">
        <ele>52.9</ele>
        <time>2021-05-27T11:24:15Z</time>
      </trkpt>
      <trkpt lat="47.70416" lon="-2.3038">
        <ele>53.2</ele>
        <time>2021-05-27T11:24:16Z</time>
      </trkpt>
      <trkpt lat="47.70415" lon="-2.30384">
        <ele>53.5</ele>
        <time>2021-05-27T11:24:17Z</time>
      </trkpt>
      <trkpt lat="47.70413" lon="-2.30388">
        <ele>53.9</ele>
        <time>2021-05-27T11:24:18Z</time>
      </trkpt>
      <trkpt lat="47.70412" lon="-2.30392">
        <ele>54.3</ele>
        <time>2021-05-27T11:24:19Z</time>
      </trkpt>
      <trkpt lat="47.70411" lon="-2.30396">
        <ele>54.5</ele>
        <time>2021-05-27T11:24:20Z</time>
      </trkpt>
      <trkpt lat="47.70409" lon="-2.304">
        <ele>55</ele>
        <time>2021-05-27T11:24:21Z</time>
      </trkpt>
      <trkpt lat="47.70408" lon="-2.30405">
        <ele>55.3</ele>
        <time>2021-05-27T11:24:22Z</time>
      </trkpt>
      <trkpt lat="47.70408" lon="-2.30412">
        <ele>55.3</ele>
        <time>2021-05-27T11:24:23Z</time>
      </trkpt>
      <trkpt lat="47.70407" lon="-2.30417">
        <ele>55.6</ele>
        <time>2021-05-27T11:24:24Z</time>
      </trkpt>
      <trkpt lat="47.70405" lon="-2.30422">
        <ele>55.9</ele>
        <time>2021-05-27T11:24:25Z</time>
      </trkpt>
      <trkpt lat="47.70405" lon="-2.30427">
        <ele>55.8</ele>
        <time>2021-05-27T11:24:26Z</time>
      </trkpt>
      <trkpt lat="47.70405" lon="-2.30434">
        <ele>55.8</ele>
        <time>2021-05-27T11:24:27Z</time>
      </trkpt>
      <trkpt lat="47.70404" lon="-2.3044">
        <ele>55.7</ele>
        <time>2021-05-27T11:24:28Z</time>
      </trkpt>
      <trkpt lat="47.70404" lon="-2.30446">
        <ele>55.6</ele>
        <time>2021-05-27T11:24:29Z</time>
      </trkpt>
      <trkpt lat="47.70404" lon="-2.30452">
        <ele>55.4</ele>
        <time>2021-05-27T11:24:30Z</time>
      </trkpt>
      <trkpt lat="47.70404" lon="-2.30458">
        <ele>55.3</ele>
        <time>2021-05-27T11:24:31Z</time>
      </trkpt>
      <trkpt lat="47.70404" lon="-2.30464">
        <ele>55.2</ele>
        <time>2021-05-27T11:24:32Z</time>
      </trkpt>
      <trkpt lat="47.70405" lon="-2.30469">
        <ele>54.8</ele>
        <time>2021-05-27T11:24:33Z</time>
      </trkpt>
      <trkpt lat="47.70406" lon="-2.30475">
        <ele>54.5</ele>
        <time>2021-05-27T11:24:34Z</time>
      </trkpt>
      <trkpt lat="47.70408" lon="-2.30482">
        <ele>53.9</ele>
        <time>2021-05-27T11:24:35Z</time>
      </trkpt>
      <trkpt lat="47.70408" lon="-2.30488">
        <ele>53.6</ele>
        <time>2021-05-27T11:24:36Z</time>
      </trkpt>
      <trkpt lat="47.7041" lon="-2.30495">
        <ele>53.1</ele>
        <time>2021-05-27T11:24:37Z</time>
      </trkpt>
      <trkpt lat="47.7041" lon="-2.30502">
        <ele>52.8</ele>
        <time>2021-05-27T11:24:38Z</time>
      </trkpt>
      <trkpt lat="47.70411" lon="-2.3051">
        <ele>52.7</ele>
        <time>2021-05-27T11:24:39Z</time>
      </trkpt>
      <trkpt lat="47.70413" lon="-2.30518">
        <ele>52.3</ele>
        <time>2021-05-27T11:24:40Z</time>
      </trkpt>
      <trkpt lat="47.70415" lon="-2.30527">
        <ele>52.1</ele>
        <time>2021-05-27T11:24:41Z</time>
      </trkpt>
      <trkpt lat="47.70416" lon="-2.30535">
        <ele>51.9</ele>
        <time>2021-05-27T11:24:42Z</time>
      </trkpt>
      <trkpt lat="47.70417" lon="-2.30543">
        <ele>52</ele>
        <time>2021-05-27T11:24:43Z</time>
      </trkpt>
      <trkpt lat="47.70418" lon="-2.30552">
        <ele>52</ele>
        <time>2021-05-27T11:24:44Z</time>
      </trkpt>
      <trkpt lat="47.7042" lon="-2.3056">
        <ele>51.8</ele>
        <time>2021-05-27T11:24:45Z</time>
      </trkpt>
      <trkpt lat="47.70422" lon="-2.30568">
        <ele>51.6</ele>
        <time>2021-05-27T11:24:46Z</time>
      </trkpt>
      <trkpt lat="47.70424" lon="-2.30577">
        <ele>51.4</ele>
        <time>2021-05-27T11:24:47Z</time>
      </trkpt>
      <trkpt lat="47.70426" lon="-2.30586">
        <ele>51.3</ele>
        <time>2021-05-27T11:24:48Z</time>
      </trkpt>
      <trkpt lat="47.70427" lon="-2.30596">
        <ele>51.3</ele>
        <time>2021-05-27T11:24:49Z</time>
      </trkpt>
      <trkpt lat="47.70429" lon="-2.30605">
        <ele>51.3</ele>
        <time>2021-05-27T11:24:50Z</time>
      </trkpt>
      <trkpt lat="47.7043" lon="-2.30616">
        <ele>51.4</ele>
        <time>2021-05-27T11:24:51Z</time>
      </trkpt>
      <trkpt lat="47.70432" lon="-2.30627">
        <ele>51.4</ele>
        <time>2021-05-27T11:24:52Z</time>
      </trkpt>
      <trkpt lat="47.70435" lon="-2.30637">
        <ele>51.1</ele>
        <time>2021-05-27T11:24:53Z</time>
      </trkpt>
      <trkpt lat="47.70438" lon="-2.30647">
        <ele>50.8</ele>
        <time>2021-05-27T11:24:54Z</time>
      </trkpt>
      <trkpt lat="47.70439" lon="-2.30656">
        <ele>50.8</ele>
        <time>2021-05-27T11:24:55Z</time>
      </trkpt>
      <trkpt lat="47.70441" lon="-2.30665">
        <ele>50.7</ele>
        <time>2021-05-27T11:24:56Z</time>
      </trkpt>
      <trkpt lat="47.70442" lon="-2.30675">
        <ele>50.5</ele>
        <time>2021-05-27T11:24:57Z</time>
      </trkpt>
      <trkpt lat="47.70443" lon="-2.30683">
        <ele>50.5</ele>
        <time>2021-05-27T11:24:58Z</time>
      </trkpt>
      <trkpt lat="47.70444" lon="-2.30692">
        <ele>50.5</ele>
        <time>2021-05-27T11:24:59Z</time>
      </trkpt>
      <trkpt lat="47.70444" lon="-2.30701">
        <ele>50.6</ele>
        <time>2021-05-27T11:25:00Z</time>
      </trkpt>
      <trkpt lat="47.70445" lon="-2.30709">
        <ele>50.6</ele>
        <time>2021-05-27T11:25:01Z</time>
      </trkpt>
      <trkpt lat="47.70446" lon="-2.30717">
        <ele>50.5</ele>
        <time>2021-05-27T11:25:02Z</time>
      </trkpt>
      <trkpt lat="47.70446" lon="-2.30724">
        <ele>50.7</ele>
        <time>2021-05-27T11:25:03Z</time>
      </trkpt>
      <trkpt lat="47.70448" lon="-2.30731">
        <ele>50.3</ele>
        <time>2021-05-27T11:25:04Z</time>
      </trkpt>
      <trkpt lat="47.70449" lon="-2.30737">
        <ele>50</ele>
        <time>2021-05-27T11:25:05Z</time>
      </trkpt>
      <trkpt lat="47.7045" lon="-2.30743">
        <ele>49.8</ele>
        <time>2021-05-27T11:25:06Z</time>
      </trkpt>
      <trkpt lat="47.70451" lon="-2.30746">
        <ele>49.7</ele>
        <time>2021-05-27T11:25:07Z</time>
      </trkpt>
      <trkpt lat="47.7045" lon="-2.30748">
        <ele>49.9</ele>
        <time>2021-05-27T11:25:08Z</time>
      </trkpt>
      <trkpt lat="47.70449" lon="-2.3075">
        <ele>50.2</ele>
        <time>2021-05-27T11:25:09Z</time>
      </trkpt>
      <trkpt lat="47.70448" lon="-2.30752">
        <ele>50.5</ele>
        <time>2021-05-27T11:25:10Z</time>
      </trkpt>
      <trkpt lat="47.70446" lon="-2.30753">
        <ele>51</ele>
        <time>2021-05-27T11:25:11Z</time>
      </trkpt>
      <trkpt lat="47.70444" lon="-2.30754">
        <ele>51.5</ele>
        <time>2021-05-27T11:25:12Z</time>
      </trkpt>
      <trkpt lat="47.70442" lon="-2.30754">
        <ele>52.1</ele>
        <time>2021-05-27T11:25:13Z</time>
      </trkpt>
      <trkpt lat="47.7044" lon="-2.30755">
        <ele>52.6</ele>
        <time>2021-05-27T11:25:14Z</time>
      </trkpt>
      <trkpt lat="47.70438" lon="-2.30756">
        <ele>53</ele>
        <time>2021-05-27T11:25:15Z</time>
      </trkpt>
      <trkpt lat="47.70436" lon="-2.30757">
        <ele>53.5</ele>
        <time>2021-05-27T11:25:16Z</time>
      </trkpt>
      <trkpt lat="47.70435" lon="-2.30758">
        <ele>53.9</ele>
        <time>2021-05-27T11:25:17Z</time>
      </trkpt>
      <trkpt lat="47.70433" lon="-2.30759">
        <ele>54.4</ele>
        <time>2021-05-27T11:25:18Z</time>
      </trkpt>
      <trkpt lat="47.70431" lon="-2.3076">
        <ele>54.9</ele>
        <time>2021-05-27T11:25:19Z</time>
      </trkpt>
      <trkpt lat="47.70429" lon="-2.30761">
        <ele>55.5</ele>
        <time>2021-05-27T11:25:20Z</time>
      </trkpt>
      <trkpt lat="47.70427" lon="-2.30761">
        <ele>55.9</ele>
        <time>2021-05-27T11:25:21Z</time>
      </trkpt>
      <trkpt lat="47.70425" lon="-2.30762">
        <ele>56.4</ele>
        <time>2021-05-27T11:25:22Z</time>
      </trkpt>
      <trkpt lat="47.70424" lon="-2.30762">
        <ele>56.7</ele>
        <time>2021-05-27T11:25:23Z</time>
      </trkpt>
      <trkpt lat="47.70422" lon="-2.30762">
        <ele>57.1</ele>
        <time>2021-05-27T11:25:24Z</time>
      </trkpt>
      <trkpt lat="47.70421" lon="-2.30762">
        <ele>57.4</ele>
        <time>2021-05-27T11:25:25Z</time>
      </trkpt>
      <trkpt lat="47.7042" lon="-2.30762">
        <ele>57.7</ele>
        <time>2021-05-27T11:25:26Z</time>
      </trkpt>
      <trkpt lat="47.70418" lon="-2.30763">
        <ele>58.1</ele>
        <time>2021-05-27T11:25:27Z</time>
      </trkpt>
      <trkpt lat="47.70417" lon="-2.30764">
        <ele>58.5</ele>
        <time>2021-05-27T11:25:28Z</time>
      </trkpt>
      <trkpt lat="47.70415" lon="-2.30764">
        <ele>58.7</ele>
        <time>2021-05-27T11:25:29Z</time>
      </trkpt>
      <trkpt lat="47.70413" lon="-2.30765">
        <ele>59</ele>
        <time>2021-05-27T11:25:30Z</time>
      </trkpt>
      <trkpt lat="47.70412" lon="-2.30766">
        <ele>59.2</ele>
        <time>2021-05-27T11:25:31Z</time>
      </trkpt>
      <trkpt lat="47.70411" lon="-2.30766">
        <ele>59.4</ele>
        <time>2021-05-27T11:25:32Z</time>
      </trkpt>
      <trkpt lat="47.7041" lon="-2.30767">
        <ele>59.6</ele>
        <time>2021-05-27T11:25:33Z</time>
      </trkpt>
      <trkpt lat="47.70408" lon="-2.30768">
        <ele>59.9</ele>
        <time>2021-05-27T11:25:34Z</time>
      </trkpt>
      <trkpt lat="47.70406" lon="-2.30769">
        <ele>60.2</ele>
        <time>2021-05-27T11:25:35Z</time>
      </trkpt>
      <trkpt lat="47.70405" lon="-2.3077">
        <ele>60.4</ele>
        <time>2021-05-27T11:25:36Z</time>
      </trkpt>
      <trkpt lat="47.70403" lon="-2.30772">
        <ele>60.6</ele>
        <time>2021-05-27T11:25:37Z</time>
      </trkpt>
      <trkpt lat="47.70402" lon="-2.30773">
        <ele>60.9</ele>
        <time>2021-05-27T11:25:38Z</time>
      </trkpt>
      <trkpt lat="47.704" lon="-2.30774">
        <ele>61.2</ele>
        <time>2021-05-27T11:25:39Z</time>
      </trkpt>
      <trkpt lat="47.70398" lon="-2.30774">
        <ele>61.5</ele>
        <time>2021-05-27T11:25:40Z</time>
      </trkpt>
      <trkpt lat="47.70396" lon="-2.30776">
        <ele>61.8</ele>
        <time>2021-05-27T11:25:41Z</time>
      </trkpt>
      <trkpt lat="47.70394" lon="-2.30777">
        <ele>62.1</ele>
        <time>2021-05-27T11:25:42Z</time>
      </trkpt>
      <trkpt lat="47.70393" lon="-2.30779">
        <ele>62.3</ele>
        <time>2021-05-27T11:25:43Z</time>
      </trkpt>
      <trkpt lat="47.70392" lon="-2.30781">
        <ele>62.5</ele>
        <time>2021-05-27T11:25:44Z</time>
      </trkpt>
      <trkpt lat="47.7039" lon="-2.30783">
        <ele>62.8</ele>
        <time>2021-05-27T11:25:45Z</time>
      </trkpt>
      <trkpt lat="47.70389" lon="-2.30784">
        <ele>63.1</ele>
        <time>2021-05-27T11:25:46Z</time>
      </trkpt>
      <trkpt lat="47.70388" lon="-2.30787">
        <ele>63.3</ele>
        <time>2021-05-27T11:25:47Z</time>
      </trkpt>
      <trkpt lat="47.70386" lon="-2.30789">
        <ele>63.7</ele>
        <time>2021-05-27T11:25:48Z</time>
      </trkpt>
      <trkpt lat="47.70384" lon="-2.30791">
        <ele>64</ele>
        <time>2021-05-27T11:25:49Z</time>
      </trkpt>
      <trkpt lat="47.70382" lon="-2.30793">
        <ele>64.3</ele>
        <time>2021-05-27T11:25:50Z</time>
      </trkpt>
      <trkpt lat="47.7038" lon="-2.30795">
        <ele>64.6</ele>
        <time>2021-05-27T11:25:51Z</time>
      </trkpt>
      <trkpt lat="47.70379" lon="-2.30797">
        <ele>64.9</ele>
        <time>2021-05-27T11:25:52Z</time>
      </trkpt>
      <trkpt lat="47.70377" lon="-2.30799">
        <ele>65.2</ele>
        <time>2021-05-27T11:25:53Z</time>
      </trkpt>
      <trkpt lat="47.70375" lon="-2.308">
        <ele>65.5</ele>
        <time>2021-05-27T11:25:54Z</time>
      </trkpt>
      <trkpt lat="47.70373" lon="-2.30803">
        <ele>65.8</ele>
        <time>2021-05-27T11:25:55Z</time>
      </trkpt>
      <trkpt lat="47.70372" lon="-2.30804">
        <ele>66</ele>
        <time>2021-05-27T11:25:56Z</time>
      </trkpt>
      <trkpt lat="47.7037" lon="-2.30805">
        <ele>66.3</ele>
        <time>2021-05-27T11:25:57Z</time>
      </trkpt>
      <trkpt lat="47.7037" lon="-2.30807">
        <ele>66.4</ele>
        <time>2021-05-27T11:25:58Z</time>
      </trkpt>
      <trkpt lat="47.70369" lon="-2.30809">
        <ele>66.6</ele>
        <time>2021-05-27T11:25:59Z</time>
      </trkpt>
      <trkpt lat="47.70367" lon="-2.3081">
        <ele>66.8</ele>
        <time>2021-05-27T11:26:00Z</time>
      </trkpt>
      <trkpt lat="47.70366" lon="-2.30812">
        <ele>67.1</ele>
        <time>2021-05-27T11:26:01Z</time>
      </trkpt>
      <trkpt lat="47.70364" lon="-2.30814">
        <ele>67.4</ele>
        <time>2021-05-27T11:26:02Z</time>
      </trkpt>
      <trkpt lat="47.70362" lon="-2.30816">
        <ele>67.7</ele>
        <time>2021-05-27T11:26:03Z</time>
      </trkpt>
      <trkpt lat="47.70361" lon="-2.30817">
        <ele>67.9</ele>
        <time>2021-05-27T11:26:04Z</time>
      </trkpt>
      <trkpt lat="47.70359" lon="-2.30818">
        <ele>68.2</ele>
        <time>2021-05-27T11:26:05Z</time>
      </trkpt>
      <trkpt lat="47.70357" lon="-2.30819">
        <ele>68.4</ele>
        <time>2021-05-27T11:26:06Z</time>
      </trkpt>
      <trkpt lat="47.70356" lon="-2.3082">
        <ele>68.7</ele>
        <time>2021-05-27T11:26:07Z</time>
      </trkpt>
      <trkpt lat="47.70354" lon="-2.30821">
        <ele>68.9</ele>
        <time>2021-05-27T11:26:08Z</time>
      </trkpt>
      <trkpt lat="47.70353" lon="-2.30822">
        <ele>69.1</ele>
        <time>2021-05-27T11:26:09Z</time>
      </trkpt>
      <trkpt lat="47.70351" lon="-2.30823">
        <ele>69.4</ele>
        <time>2021-05-27T11:26:10Z</time>
      </trkpt>
      <trkpt lat="47.70349" lon="-2.30825">
        <ele>69.7</ele>
        <time>2021-05-27T11:26:11Z</time>
      </trkpt>
      <trkpt lat="47.70347" lon="-2.30826">
        <ele>70</ele>
        <time>2021-05-27T11:26:12Z</time>
      </trkpt>
      <trkpt lat="47.70345" lon="-2.30827">
        <ele>70.3</ele>
        <time>2021-05-27T11:26:13Z</time>
      </trkpt>
      <trkpt lat="47.70343" lon="-2.30828">
        <ele>70.6</ele>
        <time>2021-05-27T11:26:14Z</time>
      </trkpt>
      <trkpt lat="47.70341" lon="-2.30829">
        <ele>70.8</ele>
        <time>2021-05-27T11:26:15Z</time>
      </trkpt>
      <trkpt lat="47.7034" lon="-2.3083">
        <ele>71</ele>
        <time>2021-05-27T11:26:16Z</time>
      </trkpt>
      <trkpt lat="47.70339" lon="-2.30831">
        <ele>71.2</ele>
        <time>2021-05-27T11:26:17Z</time>
      </trkpt>
      <trkpt lat="47.70337" lon="-2.30832">
        <ele>71.5</ele>
        <time>2021-05-27T11:26:18Z</time>
      </trkpt>
      <trkpt lat="47.70335" lon="-2.30833">
        <ele>71.7</ele>
        <time>2021-05-27T11:26:19Z</time>
      </trkpt>
      <trkpt lat="47.70334" lon="-2.30834">
        <ele>72</ele>
        <time>2021-05-27T11:26:20Z</time>
      </trkpt>
      <trkpt lat="47.70332" lon="-2.30835">
        <ele>72</ele>
        <time>2021-05-27T11:26:21Z</time>
      </trkpt>
      <trkpt lat="47.7033" lon="-2.30835">
        <ele>72</ele>
        <time>2021-05-27T11:26:22Z</time>
      </trkpt>
      <trkpt lat="47.70328" lon="-2.30835">
        <ele>72.1</ele>
        <time>2021-05-27T11:26:23Z</time>
      </trkpt>
      <trkpt lat="47.70325" lon="-2.30836">
        <ele>72.1</ele>
        <time>2021-05-27T11:26:24Z</time>
      </trkpt>
      <trkpt lat="47.70323" lon="-2.30837">
        <ele>72.1</ele>
        <time>2021-05-27T11:26:25Z</time>
      </trkpt>
      <trkpt lat="47.70321" lon="-2.30837">
        <ele>72.2</ele>
        <time>2021-05-27T11:26:26Z</time>
      </trkpt>
      <trkpt lat="47.70319" lon="-2.30837">
        <ele>72.2</ele>
        <time>2021-05-27T11:26:27Z</time>
      </trkpt>
      <trkpt lat="47.70316" lon="-2.30839">
        <ele>72.2</ele>
        <time>2021-05-27T11:26:28Z</time>
      </trkpt>
      <trkpt lat="47.70313" lon="-2.30842">
        <ele>72.3</ele>
        <time>2021-05-27T11:26:29Z</time>
      </trkpt>
      <trkpt lat="47.7031" lon="-2.30843">
        <ele>72.3</ele>
        <time>2021-05-27T11:26:30Z</time>
      </trkpt>
      <trkpt lat="47.70308" lon="-2.30845">
        <ele>72.3</ele>
        <time>2021-05-27T11:26:31Z</time>
      </trkpt>
      <trkpt lat="47.70305" lon="-2.30846">
        <ele>72.4</ele>
        <time>2021-05-27T11:26:32Z</time>
      </trkpt>
      <trkpt lat="47.70303" lon="-2.30848">
        <ele>72.4</ele>
        <time>2021-05-27T11:26:33Z</time>
      </trkpt>
      <trkpt lat="47.70302" lon="-2.3085">
        <ele>72.4</ele>
        <time>2021-05-27T11:26:34Z</time>
      </trkpt>
      <trkpt lat="47.70302" lon="-2.30851">
        <ele>72.5</ele>
        <time>2021-05-27T11:26:35Z</time>
      </trkpt>
      <trkpt lat="47.70301" lon="-2.3085">
        <ele>72.5</ele>
        <time>2021-05-27T11:26:36Z</time>
      </trkpt>
      <trkpt lat="47.70301" lon="-2.3085">
        <ele>72.5</ele>
        <time>2021-05-27T11:26:37Z</time>
      </trkpt>
      <trkpt lat="47.70301" lon="-2.3085">
        <ele>72.5</ele>
        <time>2021-05-27T11:26:38Z</time>
      </trkpt>
      <trkpt lat="47.70301" lon="-2.3085">
        <ele>72.5</ele>
        <time>2021-05-27T11:26:39Z</time>
      </trkpt>
      <trkpt lat="47.70301" lon="-2.3085">
        <ele>72.5</ele>
        <time>2021-05-27T11:26:40Z</time>
      </trkpt>
      <trkpt lat="47.70301" lon="-2.3085">
        <ele>72.5</ele>
        <time>2021-05-27T11:26:41Z</time>
      </trkpt>
      <trkpt lat="47.70301" lon="-2.3085">
        <ele>72.5</ele>
        <time>2021-05-27T11:26:42Z</time>
      </trkpt>
      <trkpt lat="47.70301" lon="-2.3085">
        <ele>72.5</ele>
        <time>2021-05-27T11:26:43Z</time>
      </trkpt>
      <trkpt lat="47.70301" lon="-2.3085">
        <ele>72.5</ele>
        <time>2021-05-27T11:26:44Z</time>
      </trkpt>
      <trkpt lat="47.70301" lon="-2.3085">
        <ele>72.5</ele>
        <time>2021-05-27T11:26:45Z</time>
      </trkpt>
      <trkpt lat="47.70301" lon="-2.3085">
        <ele>72.5</ele>
        <time>2021-05-27T11:26:46Z</time>
      </trkpt>
      <trkpt lat="47.70301" lon="-2.3085">
        <ele>72.5</ele>
        <time>2021-05-27T11:26:47Z</time>
      </trkpt>
      <trkpt lat="47.70301" lon="-2.3085">
        <ele>72.5</ele>
        <time>2021-05-27T11:26:48Z</time>
      </trkpt>
      <trkpt lat="47.70301" lon="-2.30856">
        <ele>72.5</ele>
        <time>2021-05-27T11:26:49Z</time>
      </trkpt>
      <trkpt lat="47.703" lon="-2.30858">
        <ele>72.5</ele>
        <time>2021-05-27T11:26:50Z</time>
      </trkpt>
      <trkpt lat="47.703" lon="-2.3086">
        <ele>72.5</ele>
        <time>2021-05-27T11:26:51Z</time>
      </trkpt>
      <trkpt lat="47.70299" lon="-2.30862">
        <ele>72.5</ele>
        <time>2021-05-27T11:26:52Z</time>
      </trkpt>
      <trkpt lat="47.70299" lon="-2.30865">
        <ele>72.6</ele>
        <time>2021-05-27T11:26:53Z</time>
      </trkpt>
      <trkpt lat="47.703" lon="-2.30868">
        <ele>72.6</ele>
        <time>2021-05-27T11:26:54Z</time>
      </trkpt>
      <trkpt lat="47.70302" lon="-2.30872">
        <ele>72.6</ele>
        <time>2021-05-27T11:26:55Z</time>
      </trkpt>
      <trkpt lat="47.70304" lon="-2.30875">
        <ele>72.5</ele>
        <time>2021-05-27T11:26:56Z</time>
      </trkpt>
      <trkpt lat="47.70305" lon="-2.30878">
        <ele>72.5</ele>
        <time>2021-05-27T11:26:57Z</time>
      </trkpt>
      <trkpt lat="47.70306" lon="-2.3088">
        <ele>72.5</ele>
        <time>2021-05-27T11:26:58Z</time>
      </trkpt>
      <trkpt lat="47.70307" lon="-2.30883">
        <ele>72.5</ele>
        <time>2021-05-27T11:26:59Z</time>
      </trkpt>
      <trkpt lat="47.70306" lon="-2.30887">
        <ele>72.5</ele>
        <time>2021-05-27T11:27:00Z</time>
      </trkpt>
      <trkpt lat="47.70305" lon="-2.3089">
        <ele>72.6</ele>
        <time>2021-05-27T11:27:01Z</time>
      </trkpt>
      <trkpt lat="47.70305" lon="-2.30893">
        <ele>72.6</ele>
        <time>2021-05-27T11:27:02Z</time>
      </trkpt>
      <trkpt lat="47.70303" lon="-2.30896">
        <ele>72.6</ele>
        <time>2021-05-27T11:27:03Z</time>
      </trkpt>
      <trkpt lat="47.70302" lon="-2.30899">
        <ele>72.7</ele>
        <time>2021-05-27T11:27:04Z</time>
      </trkpt>
      <trkpt lat="47.70302" lon="-2.30902">
        <ele>72.7</ele>
        <time>2021-05-27T11:27:05Z</time>
      </trkpt>
      <trkpt lat="47.70302" lon="-2.30904">
        <ele>72.7</ele>
        <time>2021-05-27T11:27:06Z</time>
      </trkpt>
      <trkpt lat="47.70301" lon="-2.30906">
        <ele>72.7</ele>
        <time>2021-05-27T11:27:07Z</time>
      </trkpt>
      <trkpt lat="47.703" lon="-2.30909">
        <ele>72.8</ele>
        <time>2021-05-27T11:27:08Z</time>
      </trkpt>
      <trkpt lat="47.70299" lon="-2.30912">
        <ele>72.8</ele>
        <time>2021-05-27T11:27:09Z</time>
      </trkpt>
      <trkpt lat="47.70298" lon="-2.30914">
        <ele>72.8</ele>
        <time>2021-05-27T11:27:10Z</time>
      </trkpt>
      <trkpt lat="47.70298" lon="-2.30917">
        <ele>72.8</ele>
        <time>2021-05-27T11:27:11Z</time>
      </trkpt>
      <trkpt lat="47.70298" lon="-2.30919">
        <ele>72.9</ele>
        <time>2021-05-27T11:27:12Z</time>
      </trkpt>
      <trkpt lat="47.70299" lon="-2.30922">
        <ele>73</ele>
        <time>2021-05-27T11:27:13Z</time>
      </trkpt>
      <trkpt lat="47.70301" lon="-2.30927">
        <ele>73.1</ele>
        <time>2021-05-27T11:27:14Z</time>
      </trkpt>
      <trkpt lat="47.70302" lon="-2.30932">
        <ele>73.3</ele>
        <time>2021-05-27T11:27:15Z</time>
      </trkpt>
      <trkpt lat="47.70303" lon="-2.30937">
        <ele>73.5</ele>
        <time>2021-05-27T11:27:16Z</time>
      </trkpt>
      <trkpt lat="47.70302" lon="-2.30942">
        <ele>73.6</ele>
        <time>2021-05-27T11:27:17Z</time>
      </trkpt>
      <trkpt lat="47.70302" lon="-2.30946">
        <ele>73.8</ele>
        <time>2021-05-27T11:27:18Z</time>
      </trkpt>
      <trkpt lat="47.70301" lon="-2.3095">
        <ele>73.9</ele>
        <time>2021-05-27T11:27:19Z</time>
      </trkpt>
      <trkpt lat="47.703" lon="-2.30954">
        <ele>74.1</ele>
        <time>2021-05-27T11:27:20Z</time>
      </trkpt>
      <trkpt lat="47.70298" lon="-2.30958">
        <ele>74.2</ele>
        <time>2021-05-27T11:27:21Z</time>
      </trkpt>
      <trkpt lat="47.70296" lon="-2.30962">
        <ele>74.3</ele>
        <time>2021-05-27T11:27:22Z</time>
      </trkpt>
      <trkpt lat="47.70295" lon="-2.30967">
        <ele>74.5</ele>
        <time>2021-05-27T11:27:23Z</time>
      </trkpt>
      <trkpt lat="47.70294" lon="-2.30972">
        <ele>74.7</ele>
        <time>2021-05-27T11:27:24Z</time>
      </trkpt>
      <trkpt lat="47.70293" lon="-2.30977">
        <ele>74.8</ele>
        <time>2021-05-27T11:27:25Z</time>
      </trkpt>
      <trkpt lat="47.70292" lon="-2.30983">
        <ele>75</ele>
        <time>2021-05-27T11:27:26Z</time>
      </trkpt>
      <trkpt lat="47.70292" lon="-2.30989">
        <ele>75.2</ele>
        <time>2021-05-27T11:27:27Z</time>
      </trkpt>
      <trkpt lat="47.70291" lon="-2.30995">
        <ele>75.4</ele>
        <time>2021-05-27T11:27:28Z</time>
      </trkpt>
      <trkpt lat="47.70291" lon="-2.31001">
        <ele>75.5</ele>
        <time>2021-05-27T11:27:29Z</time>
      </trkpt>
      <trkpt lat="47.7029" lon="-2.31007">
        <ele>75.5</ele>
        <time>2021-05-27T11:27:30Z</time>
      </trkpt>
      <trkpt lat="47.7029" lon="-2.31013">
        <ele>75.5</ele>
        <time>2021-05-27T11:27:31Z</time>
      </trkpt>
      <trkpt lat="47.7029" lon="-2.31019">
        <ele>75.5</ele>
        <time>2021-05-27T11:27:32Z</time>
      </trkpt>
      <trkpt lat="47.70291" lon="-2.31024">
        <ele>75.5</ele>
        <time>2021-05-27T11:27:33Z</time>
      </trkpt>
      <trkpt lat="47.70291" lon="-2.3103">
        <ele>75.5</ele>
        <time>2021-05-27T11:27:34Z</time>
      </trkpt>
      <trkpt lat="47.70291" lon="-2.31037">
        <ele>75.5</ele>
        <time>2021-05-27T11:27:35Z</time>
      </trkpt>
      <trkpt lat="47.70291" lon="-2.31044">
        <ele>75.5</ele>
        <time>2021-05-27T11:27:36Z</time>
      </trkpt>
      <trkpt lat="47.70291" lon="-2.3105">
        <ele>75.5</ele>
        <time>2021-05-27T11:27:37Z</time>
      </trkpt>
      <trkpt lat="47.70291" lon="-2.31056">
        <ele>75.5</ele>
        <time>2021-05-27T11:27:38Z</time>
      </trkpt>
      <trkpt lat="47.70292" lon="-2.31063">
        <ele>75.5</ele>
        <time>2021-05-27T11:27:39Z</time>
      </trkpt>
      <trkpt lat="47.70291" lon="-2.31069">
        <ele>75.5</ele>
        <time>2021-05-27T11:27:40Z</time>
      </trkpt>
      <trkpt lat="47.70292" lon="-2.31075">
        <ele>75.5</ele>
        <time>2021-05-27T11:27:41Z</time>
      </trkpt>
      <trkpt lat="47.70291" lon="-2.31081">
        <ele>75.5</ele>
        <time>2021-05-27T11:27:42Z</time>
      </trkpt>
      <trkpt lat="47.70291" lon="-2.31087">
        <ele>75.4</ele>
        <time>2021-05-27T11:27:43Z</time>
      </trkpt>
      <trkpt lat="47.70288" lon="-2.31092">
        <ele>75.4</ele>
        <time>2021-05-27T11:27:44Z</time>
      </trkpt>
      <trkpt lat="47.70286" lon="-2.31097">
        <ele>75.3</ele>
        <time>2021-05-27T11:27:45Z</time>
      </trkpt>
      <trkpt lat="47.70284" lon="-2.31099">
        <ele>75.3</ele>
        <time>2021-05-27T11:27:46Z</time>
      </trkpt>
      <trkpt lat="47.70281" lon="-2.311">
        <ele>75.3</ele>
        <time>2021-05-27T11:27:47Z</time>
      </trkpt>
      <trkpt lat="47.70278" lon="-2.311">
        <ele>75.4</ele>
        <time>2021-05-27T11:27:48Z</time>
      </trkpt>
      <trkpt lat="47.70274" lon="-2.31099">
        <ele>75.5</ele>
        <time>2021-05-27T11:27:49Z</time>
      </trkpt>
      <trkpt lat="47.7027" lon="-2.31097">
        <ele>75.6</ele>
        <time>2021-05-27T11:27:50Z</time>
      </trkpt>
      <trkpt lat="47.70266" lon="-2.31097">
        <ele>75.6</ele>
        <time>2021-05-27T11:27:51Z</time>
      </trkpt>
      <trkpt lat="47.70262" lon="-2.31096">
        <ele>75.7</ele>
        <time>2021-05-27T11:27:52Z</time>
      </trkpt>
      <trkpt lat="47.70258" lon="-2.31096">
        <ele>75.7</ele>
        <time>2021-05-27T11:27:53Z</time>
      </trkpt>
      <trkpt lat="47.70254" lon="-2.31097">
        <ele>75.8</ele>
        <time>2021-05-27T11:27:54Z</time>
      </trkpt>
      <trkpt lat="47.70249" lon="-2.31098">
        <ele>75.9</ele>
        <time>2021-05-27T11:27:55Z</time>
      </trkpt>
      <trkpt lat="47.70245" lon="-2.31099">
        <ele>76.1</ele>
        <time>2021-05-27T11:27:56Z</time>
      </trkpt>
      <trkpt lat="47.7024" lon="-2.31101">
        <ele>76.4</ele>
        <time>2021-05-27T11:27:57Z</time>
      </trkpt>
      <trkpt lat="47.70236" lon="-2.31103">
        <ele>76.6</ele>
        <time>2021-05-27T11:27:58Z</time>
      </trkpt>
      <trkpt lat="47.70232" lon="-2.31105">
        <ele>76.9</ele>
        <time>2021-05-27T11:27:59Z</time>
      </trkpt>
      <trkpt lat="47.70227" lon="-2.31106">
        <ele>77.1</ele>
        <time>2021-05-27T11:28:00Z</time>
      </trkpt>
      <trkpt lat="47.70223" lon="-2.31107">
        <ele>77.4</ele>
        <time>2021-05-27T11:28:01Z</time>
      </trkpt>
      <trkpt lat="47.70217" lon="-2.31107">
        <ele>77.7</ele>
        <time>2021-05-27T11:28:02Z</time>
      </trkpt>
      <trkpt lat="47.70213" lon="-2.31107">
        <ele>77.9</ele>
        <time>2021-05-27T11:28:03Z</time>
      </trkpt>
      <trkpt lat="47.70209" lon="-2.31107">
        <ele>78.2</ele>
        <time>2021-05-27T11:28:04Z</time>
      </trkpt>
      <trkpt lat="47.70205" lon="-2.31105">
        <ele>78.4</ele>
        <time>2021-05-27T11:28:05Z</time>
      </trkpt>
      <trkpt lat="47.70201" lon="-2.31104">
        <ele>78.7</ele>
        <time>2021-05-27T11:28:06Z</time>
      </trkpt>
      <trkpt lat="47.70196" lon="-2.31101">
        <ele>79</ele>
        <time>2021-05-27T11:28:07Z</time>
      </trkpt>
      <trkpt lat="47.70192" lon="-2.31098">
        <ele>79.3</ele>
        <time>2021-05-27T11:28:08Z</time>
      </trkpt>
      <trkpt lat="47.70187" lon="-2.31095">
        <ele>79.6</ele>
        <time>2021-05-27T11:28:09Z</time>
      </trkpt>
      <trkpt lat="47.70184" lon="-2.31091">
        <ele>79.9</ele>
        <time>2021-05-27T11:28:10Z</time>
      </trkpt>
      <trkpt lat="47.70181" lon="-2.31087">
        <ele>80.1</ele>
        <time>2021-05-27T11:28:11Z</time>
      </trkpt>
      <trkpt lat="47.70177" lon="-2.31085">
        <ele>80.4</ele>
        <time>2021-05-27T11:28:12Z</time>
      </trkpt>
      <trkpt lat="47.70174" lon="-2.31086">
        <ele>80.5</ele>
        <time>2021-05-27T11:28:13Z</time>
      </trkpt>
      <trkpt lat="47.70172" lon="-2.31089">
        <ele>80.6</ele>
        <time>2021-05-27T11:28:14Z</time>
      </trkpt>
      <trkpt lat="47.70171" lon="-2.31093">
        <ele>80.6</ele>
        <time>2021-05-27T11:28:15Z</time>
      </trkpt>
      <trkpt lat="47.7017" lon="-2.31098">
        <ele>80.6</ele>
        <time>2021-05-27T11:28:16Z</time>
      </trkpt>
      <trkpt lat="47.70169" lon="-2.31105">
        <ele>80.6</ele>
        <time>2021-05-27T11:28:17Z</time>
      </trkpt>
      <trkpt lat="47.7017" lon="-2.31112">
        <ele>80.5</ele>
        <time>2021-05-27T11:28:18Z</time>
      </trkpt>
      <trkpt lat="47.7017" lon="-2.3112">
        <ele>80.4</ele>
        <time>2021-05-27T11:28:19Z</time>
      </trkpt>
      <trkpt lat="47.7017" lon="-2.31127">
        <ele>80.3</ele>
        <time>2021-05-27T11:28:20Z</time>
      </trkpt>
      <trkpt lat="47.70169" lon="-2.31134">
        <ele>80.2</ele>
        <time>2021-05-27T11:28:21Z</time>
      </trkpt>
      <trkpt lat="47.70169" lon="-2.31141">
        <ele>80.2</ele>
        <time>2021-05-27T11:28:22Z</time>
      </trkpt>
      <trkpt lat="47.70169" lon="-2.31148">
        <ele>80.1</ele>
        <time>2021-05-27T11:28:23Z</time>
      </trkpt>
      <trkpt lat="47.70169" lon="-2.31155">
        <ele>80</ele>
        <time>2021-05-27T11:28:24Z</time>
      </trkpt>
      <trkpt lat="47.70169" lon="-2.31162">
        <ele>79.9</ele>
        <time>2021-05-27T11:28:25Z</time>
      </trkpt>
      <trkpt lat="47.70169" lon="-2.31169">
        <ele>79.8</ele>
        <time>2021-05-27T11:28:26Z</time>
      </trkpt>
      <trkpt lat="47.70169" lon="-2.31176">
        <ele>79.7</ele>
        <time>2021-05-27T11:28:27Z</time>
      </trkpt>
      <trkpt lat="47.7017" lon="-2.31183">
        <ele>79.6</ele>
        <time>2021-05-27T11:28:28Z</time>
      </trkpt>
      <trkpt lat="47.7017" lon="-2.31191">
        <ele>79.5</ele>
        <time>2021-05-27T11:28:29Z</time>
      </trkpt>
      <trkpt lat="47.70171" lon="-2.31199">
        <ele>79.4</ele>
        <time>2021-05-27T11:28:30Z</time>
      </trkpt>
      <trkpt lat="47.70172" lon="-2.31206">
        <ele>79.2</ele>
        <time>2021-05-27T11:28:31Z</time>
      </trkpt>
      <trkpt lat="47.70173" lon="-2.31214">
        <ele>79.1</ele>
        <time>2021-05-27T11:28:32Z</time>
      </trkpt>
      <trkpt lat="47.70173" lon="-2.31222">
        <ele>78.9</ele>
        <time>2021-05-27T11:28:33Z</time>
      </trkpt>
      <trkpt lat="47.70174" lon="-2.3123">
        <ele>78.8</ele>
        <time>2021-05-27T11:28:34Z</time>
      </trkpt>
      <trkpt lat="47.70174" lon="-2.31237">
        <ele>78.7</ele>
        <time>2021-05-27T11:28:35Z</time>
      </trkpt>
      <trkpt lat="47.70175" lon="-2.31246">
        <ele>78.5</ele>
        <time>2021-05-27T11:28:36Z</time>
      </trkpt>
      <trkpt lat="47.70176" lon="-2.31253">
        <ele>78.4</ele>
        <time>2021-05-27T11:28:37Z</time>
      </trkpt>
      <trkpt lat="47.70177" lon="-2.31262">
        <ele>78.4</ele>
        <time>2021-05-27T11:28:38Z</time>
      </trkpt>
      <trkpt lat="47.70178" lon="-2.3127">
        <ele>78.3</ele>
        <time>2021-05-27T11:28:39Z</time>
      </trkpt>
      <trkpt lat="47.70179" lon="-2.31278">
        <ele>78.2</ele>
        <time>2021-05-27T11:28:40Z</time>
      </trkpt>
      <trkpt lat="47.7018" lon="-2.31287">
        <ele>78.2</ele>
        <time>2021-05-27T11:28:41Z</time>
      </trkpt>
      <trkpt lat="47.7018" lon="-2.31296">
        <ele>78.2</ele>
        <time>2021-05-27T11:28:42Z</time>
      </trkpt>
      <trkpt lat="47.70181" lon="-2.31304">
        <ele>78.2</ele>
        <time>2021-05-27T11:28:43Z</time>
      </trkpt>
      <trkpt lat="47.70181" lon="-2.31312">
        <ele>78.1</ele>
        <time>2021-05-27T11:28:44Z</time>
      </trkpt>
      <trkpt lat="47.70181" lon="-2.31319">
        <ele>78.1</ele>
        <time>2021-05-27T11:28:45Z</time>
      </trkpt>
      <trkpt lat="47.70181" lon="-2.31327">
        <ele>78.1</ele>
        <time>2021-05-27T11:28:46Z</time>
      </trkpt>
      <trkpt lat="47.70181" lon="-2.31335">
        <ele>78.1</ele>
        <time>2021-05-27T11:28:47Z</time>
      </trkpt>
      <trkpt lat="47.70182" lon="-2.31343">
        <ele>78.1</ele>
        <time>2021-05-27T11:28:48Z</time>
      </trkpt>
      <trkpt lat="47.70183" lon="-2.31351">
        <ele>78</ele>
        <time>2021-05-27T11:28:49Z</time>
      </trkpt>
      <trkpt lat="47.70183" lon="-2.3136">
        <ele>78</ele>
        <time>2021-05-27T11:28:50Z</time>
      </trkpt>
      <trkpt lat="47.70183" lon="-2.31368">
        <ele>78</ele>
        <time>2021-05-27T11:28:51Z</time>
      </trkpt>
      <trkpt lat="47.70184" lon="-2.31377">
        <ele>78</ele>
        <time>2021-05-27T11:28:52Z</time>
      </trkpt>
      <trkpt lat="47.70185" lon="-2.31385">
        <ele>77.9</ele>
        <time>2021-05-27T11:28:53Z</time>
      </trkpt>
      <trkpt lat="47.70186" lon="-2.31394">
        <ele>77.8</ele>
        <time>2021-05-27T11:28:54Z</time>
      </trkpt>
      <trkpt lat="47.70188" lon="-2.31402">
        <ele>77.7</ele>
        <time>2021-05-27T11:28:55Z</time>
      </trkpt>
      <trkpt lat="47.7019" lon="-2.3141">
        <ele>77.6</ele>
        <time>2021-05-27T11:28:56Z</time>
      </trkpt>
      <trkpt lat="47.70191" lon="-2.31418">
        <ele>77.6</ele>
        <time>2021-05-27T11:28:57Z</time>
      </trkpt>
      <trkpt lat="47.70192" lon="-2.31426">
        <ele>77.6</ele>
        <time>2021-05-27T11:28:58Z</time>
      </trkpt>
      <trkpt lat="47.70193" lon="-2.31434">
        <ele>77.7</ele>
        <time>2021-05-27T11:28:59Z</time>
      </trkpt>
      <trkpt lat="47.70193" lon="-2.31443">
        <ele>77.8</ele>
        <time>2021-05-27T11:29:00Z</time>
      </trkpt>
      <trkpt lat="47.70194" lon="-2.31452">
        <ele>77.9</ele>
        <time>2021-05-27T11:29:01Z</time>
      </trkpt>
      <trkpt lat="47.70195" lon="-2.31461">
        <ele>78</ele>
        <time>2021-05-27T11:29:02Z</time>
      </trkpt>
      <trkpt lat="47.70196" lon="-2.3147">
        <ele>78.1</ele>
        <time>2021-05-27T11:29:03Z</time>
      </trkpt>
      <trkpt lat="47.70196" lon="-2.31479">
        <ele>78.2</ele>
        <time>2021-05-27T11:29:04Z</time>
      </trkpt>
      <trkpt lat="47.70197" lon="-2.31488">
        <ele>78.3</ele>
        <time>2021-05-27T11:29:05Z</time>
      </trkpt>
      <trkpt lat="47.70199" lon="-2.31499">
        <ele>78.5</ele>
        <time>2021-05-27T11:29:06Z</time>
      </trkpt>
      <trkpt lat="47.70199" lon="-2.31509">
        <ele>78.5</ele>
        <time>2021-05-27T11:29:07Z</time>
      </trkpt>
      <trkpt lat="47.70199" lon="-2.31519">
        <ele>78.5</ele>
        <time>2021-05-27T11:29:08Z</time>
      </trkpt>
      <trkpt lat="47.70199" lon="-2.31528">
        <ele>78.6</ele>
        <time>2021-05-27T11:29:09Z</time>
      </trkpt>
      <trkpt lat="47.702" lon="-2.31537">
        <ele>78.6</ele>
        <time>2021-05-27T11:29:10Z</time>
      </trkpt>
      <trkpt lat="47.702" lon="-2.31546">
        <ele>78.6</ele>
        <time>2021-05-27T11:29:11Z</time>
      </trkpt>
      <trkpt lat="47.702" lon="-2.31555">
        <ele>78.7</ele>
        <time>2021-05-27T11:29:12Z</time>
      </trkpt>
      <trkpt lat="47.70199" lon="-2.31563">
        <ele>78.8</ele>
        <time>2021-05-27T11:29:13Z</time>
      </trkpt>
      <trkpt lat="47.70196" lon="-2.3157">
        <ele>78.9</ele>
        <time>2021-05-27T11:29:14Z</time>
      </trkpt>
      <trkpt lat="47.70192" lon="-2.31575">
        <ele>79</ele>
        <time>2021-05-27T11:29:15Z</time>
      </trkpt>
      <trkpt lat="47.70188" lon="-2.31579">
        <ele>79.2</ele>
        <time>2021-05-27T11:29:16Z</time>
      </trkpt>
      <trkpt lat="47.70183" lon="-2.31583">
        <ele>79.4</ele>
        <time>2021-05-27T11:29:17Z</time>
      </trkpt>
      <trkpt lat="47.70179" lon="-2.31586">
        <ele>79.5</ele>
        <time>2021-05-27T11:29:18Z</time>
      </trkpt>
      <trkpt lat="47.70174" lon="-2.31589">
        <ele>79.6</ele>
        <time>2021-05-27T11:29:19Z</time>
      </trkpt>
      <trkpt lat="47.7017" lon="-2.31594">
        <ele>79.7</ele>
        <time>2021-05-27T11:29:20Z</time>
      </trkpt>
      <trkpt lat="47.70165" lon="-2.31598">
        <ele>79.7</ele>
        <time>2021-05-27T11:29:21Z</time>
      </trkpt>
      <trkpt lat="47.7016" lon="-2.31602">
        <ele>79.7</ele>
        <time>2021-05-27T11:29:22Z</time>
      </trkpt>
      <trkpt lat="47.70155" lon="-2.31605">
        <ele>79.6</ele>
        <time>2021-05-27T11:29:23Z</time>
      </trkpt>
      <trkpt lat="47.7015" lon="-2.31608">
        <ele>79.7</ele>
        <time>2021-05-27T11:29:24Z</time>
      </trkpt>
      <trkpt lat="47.70146" lon="-2.31612">
        <ele>79.7</ele>
        <time>2021-05-27T11:29:25Z</time>
      </trkpt>
      <trkpt lat="47.70141" lon="-2.31616">
        <ele>79.6</ele>
        <time>2021-05-27T11:29:26Z</time>
      </trkpt>
      <trkpt lat="47.70137" lon="-2.3162">
        <ele>79.6</ele>
        <time>2021-05-27T11:29:27Z</time>
      </trkpt>
      <trkpt lat="47.70133" lon="-2.31625">
        <ele>79.6</ele>
        <time>2021-05-27T11:29:28Z</time>
      </trkpt>
      <trkpt lat="47.70128" lon="-2.31632">
        <ele>79.6</ele>
        <time>2021-05-27T11:29:29Z</time>
      </trkpt>
      <trkpt lat="47.70124" lon="-2.3164">
        <ele>79.5</ele>
        <time>2021-05-27T11:29:30Z</time>
      </trkpt>
      <trkpt lat="47.70121" lon="-2.31651">
        <ele>79.4</ele>
        <time>2021-05-27T11:29:31Z</time>
      </trkpt>
      <trkpt lat="47.70118" lon="-2.31661">
        <ele>79.3</ele>
        <time>2021-05-27T11:29:32Z</time>
      </trkpt>
      <trkpt lat="47.70117" lon="-2.3167">
        <ele>79</ele>
        <time>2021-05-27T11:29:33Z</time>
      </trkpt>
      <trkpt lat="47.70116" lon="-2.31679">
        <ele>78.7</ele>
        <time>2021-05-27T11:29:34Z</time>
      </trkpt>
      <trkpt lat="47.70116" lon="-2.31688">
        <ele>78.3</ele>
        <time>2021-05-27T11:29:35Z</time>
      </trkpt>
      <trkpt lat="47.70115" lon="-2.31697">
        <ele>77.9</ele>
        <time>2021-05-27T11:29:36Z</time>
      </trkpt>
      <trkpt lat="47.70114" lon="-2.31706">
        <ele>77.5</ele>
        <time>2021-05-27T11:29:37Z</time>
      </trkpt>
      <trkpt lat="47.70115" lon="-2.31716">
        <ele>77.1</ele>
        <time>2021-05-27T11:29:38Z</time>
      </trkpt>
      <trkpt lat="47.70115" lon="-2.31725">
        <ele>76.7</ele>
        <time>2021-05-27T11:29:39Z</time>
      </trkpt>
      <trkpt lat="47.70114" lon="-2.31734">
        <ele>76.3</ele>
        <time>2021-05-27T11:29:40Z</time>
      </trkpt>
      <trkpt lat="47.70114" lon="-2.31743">
        <ele>75.9</ele>
        <time>2021-05-27T11:29:41Z</time>
      </trkpt>
      <trkpt lat="47.70113" lon="-2.31751">
        <ele>75.6</ele>
        <time>2021-05-27T11:29:42Z</time>
      </trkpt>
      <trkpt lat="47.70113" lon="-2.31759">
        <ele>75.4</ele>
        <time>2021-05-27T11:29:43Z</time>
      </trkpt>
      <trkpt lat="47.70112" lon="-2.31767">
        <ele>75.2</ele>
        <time>2021-05-27T11:29:44Z</time>
      </trkpt>
      <trkpt lat="47.70112" lon="-2.31774">
        <ele>75</ele>
        <time>2021-05-27T11:29:45Z</time>
      </trkpt>
      <trkpt lat="47.70111" lon="-2.31781">
        <ele>74.8</ele>
        <time>2021-05-27T11:29:46Z</time>
      </trkpt>
      <trkpt lat="47.70111" lon="-2.3179">
        <ele>74.6</ele>
        <time>2021-05-27T11:29:47Z</time>
      </trkpt>
      <trkpt lat="47.70111" lon="-2.31798">
        <ele>74.3</ele>
        <time>2021-05-27T11:29:48Z</time>
      </trkpt>
      <trkpt lat="47.7011" lon="-2.31807">
        <ele>74</ele>
        <time>2021-05-27T11:29:49Z</time>
      </trkpt>
      <trkpt lat="47.70109" lon="-2.31815">
        <ele>73.8</ele>
        <time>2021-05-27T11:29:50Z</time>
      </trkpt>
      <trkpt lat="47.70109" lon="-2.31824">
        <ele>73.5</ele>
        <time>2021-05-27T11:29:51Z</time>
      </trkpt>
      <trkpt lat="47.70108" lon="-2.31831">
        <ele>73.3</ele>
        <time>2021-05-27T11:29:52Z</time>
      </trkpt>
      <trkpt lat="47.70107" lon="-2.31838">
        <ele>73.4</ele>
        <time>2021-05-27T11:29:53Z</time>
      </trkpt>
      <trkpt lat="47.70106" lon="-2.31846">
        <ele>73.7</ele>
        <time>2021-05-27T11:29:54Z</time>
      </trkpt>
      <trkpt lat="47.70105" lon="-2.31854">
        <ele>74.1</ele>
        <time>2021-05-27T11:29:55Z</time>
      </trkpt>
      <trkpt lat="47.70104" lon="-2.31861">
        <ele>74.4</ele>
        <time>2021-05-27T11:29:56Z</time>
      </trkpt>
      <trkpt lat="47.70102" lon="-2.31869">
        <ele>74.7</ele>
        <time>2021-05-27T11:29:57Z</time>
      </trkpt>
      <trkpt lat="47.70102" lon="-2.31877">
        <ele>75.2</ele>
        <time>2021-05-27T11:29:58Z</time>
      </trkpt>
      <trkpt lat="47.70101" lon="-2.31886">
        <ele>75.6</ele>
        <time>2021-05-27T11:29:59Z</time>
      </trkpt>
      <trkpt lat="47.701" lon="-2.31895">
        <ele>76.1</ele>
        <time>2021-05-27T11:30:00Z</time>
      </trkpt>
      <trkpt lat="47.70098" lon="-2.31904">
        <ele>76.5</ele>
        <time>2021-05-27T11:30:01Z</time>
      </trkpt>
      <trkpt lat="47.70097" lon="-2.31913">
        <ele>76.9</ele>
        <time>2021-05-27T11:30:02Z</time>
      </trkpt>
      <trkpt lat="47.70095" lon="-2.3192">
        <ele>77.3</ele>
        <time>2021-05-27T11:30:03Z</time>
      </trkpt>
      <trkpt lat="47.70094" lon="-2.31928">
        <ele>77.6</ele>
        <time>2021-05-27T11:30:04Z</time>
      </trkpt>
      <trkpt lat="47.70093" lon="-2.31936">
        <ele>78</ele>
        <time>2021-05-27T11:30:05Z</time>
      </trkpt>
      <trkpt lat="47.70091" lon="-2.31944">
        <ele>78.3</ele>
        <time>2021-05-27T11:30:06Z</time>
      </trkpt>
      <trkpt lat="47.70089" lon="-2.31952">
        <ele>78.7</ele>
        <time>2021-05-27T11:30:07Z</time>
      </trkpt>
      <trkpt lat="47.70087" lon="-2.3196">
        <ele>79</ele>
        <time>2021-05-27T11:30:08Z</time>
      </trkpt>
      <trkpt lat="47.70085" lon="-2.31968">
        <ele>79.4</ele>
        <time>2021-05-27T11:30:09Z</time>
      </trkpt>
      <trkpt lat="47.70084" lon="-2.31976">
        <ele>79.9</ele>
        <time>2021-05-27T11:30:10Z</time>
      </trkpt>
      <trkpt lat="47.70082" lon="-2.31985">
        <ele>80.2</ele>
        <time>2021-05-27T11:30:11Z</time>
      </trkpt>
      <trkpt lat="47.70081" lon="-2.31993">
        <ele>80.5</ele>
        <time>2021-05-27T11:30:12Z</time>
      </trkpt>
      <trkpt lat="47.70079" lon="-2.32001">
        <ele>80.7</ele>
        <time>2021-05-27T11:30:13Z</time>
      </trkpt>
      <trkpt lat="47.70078" lon="-2.3201">
        <ele>80.3</ele>
        <time>2021-05-27T11:30:14Z</time>
      </trkpt>
      <trkpt lat="47.70077" lon="-2.32018">
        <ele>79.9</ele>
        <time>2021-05-27T11:30:15Z</time>
      </trkpt>
      <trkpt lat="47.70076" lon="-2.32028">
        <ele>79.5</ele>
        <time>2021-05-27T11:30:16Z</time>
      </trkpt>
      <trkpt lat="47.70075" lon="-2.32037">
        <ele>79</ele>
        <time>2021-05-27T11:30:17Z</time>
      </trkpt>
      <trkpt lat="47.70074" lon="-2.32046">
        <ele>78.5</ele>
        <time>2021-05-27T11:30:18Z</time>
      </trkpt>
      <trkpt lat="47.70073" lon="-2.32055">
        <ele>78</ele>
        <time>2021-05-27T11:30:19Z</time>
      </trkpt>
      <trkpt lat="47.70072" lon="-2.32063">
        <ele>77.6</ele>
        <time>2021-05-27T11:30:20Z</time>
      </trkpt>
      <trkpt lat="47.70071" lon="-2.32072">
        <ele>77.1</ele>
        <time>2021-05-27T11:30:21Z</time>
      </trkpt>
      <trkpt lat="47.70071" lon="-2.3208">
        <ele>76.7</ele>
        <time>2021-05-27T11:30:22Z</time>
      </trkpt>
      <trkpt lat="47.70072" lon="-2.32088">
        <ele>76.5</ele>
        <time>2021-05-27T11:30:23Z</time>
      </trkpt>
      <trkpt lat="47.70074" lon="-2.32093">
        <ele>76.6</ele>
        <time>2021-05-27T11:30:24Z</time>
      </trkpt>
      <trkpt lat="47.70075" lon="-2.32095">
        <ele>76.6</ele>
        <time>2021-05-27T11:30:25Z</time>
      </trkpt>
      <trkpt lat="47.70075" lon="-2.32096">
        <ele>76.7</ele>
        <time>2021-05-27T11:30:26Z</time>
      </trkpt>
      <trkpt lat="47.70075" lon="-2.32094">
        <ele>76.7</ele>
        <time>2021-05-27T11:30:27Z</time>
      </trkpt>
      <trkpt lat="47.70074" lon="-2.32094">
        <ele>76.6</ele>
        <time>2021-05-27T11:30:28Z</time>
      </trkpt>
      <trkpt lat="47.70074" lon="-2.32094">
        <ele>76.6</ele>
        <time>2021-05-27T11:30:29Z</time>
      </trkpt>
      <trkpt lat="47.70074" lon="-2.32094">
        <ele>76.6</ele>
        <time>2021-05-27T11:30:30Z</time>
      </trkpt>
      <trkpt lat="47.70074" lon="-2.32094">
        <ele>76.6</ele>
        <time>2021-05-27T11:30:31Z</time>
      </trkpt>
      <trkpt lat="47.70074" lon="-2.32094">
        <ele>76.6</ele>
        <time>2021-05-27T11:30:32Z</time>
      </trkpt>
      <trkpt lat="47.70074" lon="-2.32094">
        <ele>76.6</ele>
        <time>2021-05-27T11:30:33Z</time>
      </trkpt>
      <trkpt lat="47.70075" lon="-2.32095">
        <ele>76.7</ele>
        <time>2021-05-27T11:30:34Z</time>
      </trkpt>
      <trkpt lat="47.70076" lon="-2.32097">
        <ele>76.7</ele>
        <time>2021-05-27T11:30:35Z</time>
      </trkpt>
      <trkpt lat="47.70077" lon="-2.321">
        <ele>76.9</ele>
        <time>2021-05-27T11:30:36Z</time>
      </trkpt>
      <trkpt lat="47.7008" lon="-2.32103">
        <ele>77.1</ele>
        <time>2021-05-27T11:30:37Z</time>
      </trkpt>
      <trkpt lat="47.70083" lon="-2.32107">
        <ele>77.4</ele>
        <time>2021-05-27T11:30:38Z</time>
      </trkpt>
      <trkpt lat="47.70084" lon="-2.32111">
        <ele>77.3</ele>
        <time>2021-05-27T11:30:39Z</time>
      </trkpt>
      <trkpt lat="47.70086" lon="-2.32116">
        <ele>77.2</ele>
        <time>2021-05-27T11:30:40Z</time>
      </trkpt>
      <trkpt lat="47.70088" lon="-2.32121">
        <ele>77.2</ele>
        <time>2021-05-27T11:30:41Z</time>
      </trkpt>
      <trkpt lat="47.70089" lon="-2.32128">
        <ele>77.1</ele>
        <time>2021-05-27T11:30:42Z</time>
      </trkpt>
      <trkpt lat="47.70091" lon="-2.32134">
        <ele>76.9</ele>
        <time>2021-05-27T11:30:43Z</time>
      </trkpt>
      <trkpt lat="47.70092" lon="-2.3214">
        <ele>76.8</ele>
        <time>2021-05-27T11:30:44Z</time>
      </trkpt>
      <trkpt lat="47.70093" lon="-2.32146">
        <ele>76.8</ele>
        <time>2021-05-27T11:30:45Z</time>
      </trkpt>
      <trkpt lat="47.70095" lon="-2.32154">
        <ele>76.7</ele>
        <time>2021-05-27T11:30:46Z</time>
      </trkpt>
      <trkpt lat="47.70097" lon="-2.32162">
        <ele>76.6</ele>
        <time>2021-05-27T11:30:47Z</time>
      </trkpt>
      <trkpt lat="47.70098" lon="-2.32169">
        <ele>76.5</ele>
        <time>2021-05-27T11:30:48Z</time>
      </trkpt>
      <trkpt lat="47.701" lon="-2.32178">
        <ele>76.3</ele>
        <time>2021-05-27T11:30:49Z</time>
      </trkpt>
      <trkpt lat="47.70101" lon="-2.32186">
        <ele>76.1</ele>
        <time>2021-05-27T11:30:50Z</time>
      </trkpt>
      <trkpt lat="47.70101" lon="-2.32194">
        <ele>75.9</ele>
        <time>2021-05-27T11:30:51Z</time>
      </trkpt>
      <trkpt lat="47.70102" lon="-2.32202">
        <ele>75.7</ele>
        <time>2021-05-27T11:30:52Z</time>
      </trkpt>
      <trkpt lat="47.70103" lon="-2.3221">
        <ele>75.5</ele>
        <time>2021-05-27T11:30:53Z</time>
      </trkpt>
      <trkpt lat="47.70104" lon="-2.32218">
        <ele>75.3</ele>
        <time>2021-05-27T11:30:54Z</time>
      </trkpt>
      <trkpt lat="47.70105" lon="-2.32226">
        <ele>75.2</ele>
        <time>2021-05-27T11:30:55Z</time>
      </trkpt>
      <trkpt lat="47.70109" lon="-2.32235">
        <ele>75</ele>
        <time>2021-05-27T11:30:56Z</time>
      </trkpt>
      <trkpt lat="47.70112" lon="-2.32243">
        <ele>74.9</ele>
        <time>2021-05-27T11:30:57Z</time>
      </trkpt>
      <trkpt lat="47.70115" lon="-2.3225">
        <ele>74.8</ele>
        <time>2021-05-27T11:30:58Z</time>
      </trkpt>
      <trkpt lat="47.70119" lon="-2.32258">
        <ele>75</ele>
        <time>2021-05-27T11:30:59Z</time>
      </trkpt>
      <trkpt lat="47.70123" lon="-2.32264">
        <ele>75.1</ele>
        <time>2021-05-27T11:31:00Z</time>
      </trkpt>
      <trkpt lat="47.70126" lon="-2.3227">
        <ele>75.3</ele>
        <time>2021-05-27T11:31:01Z</time>
      </trkpt>
      <trkpt lat="47.7013" lon="-2.32277">
        <ele>75.4</ele>
        <time>2021-05-27T11:31:02Z</time>
      </trkpt>
      <trkpt lat="47.70133" lon="-2.32283">
        <ele>75.6</ele>
        <time>2021-05-27T11:31:03Z</time>
      </trkpt>
      <trkpt lat="47.70135" lon="-2.3229">
        <ele>75.7</ele>
        <time>2021-05-27T11:31:04Z</time>
      </trkpt>
      <trkpt lat="47.70137" lon="-2.32299">
        <ele>75.9</ele>
        <time>2021-05-27T11:31:05Z</time>
      </trkpt>
      <trkpt lat="47.70138" lon="-2.32307">
        <ele>76</ele>
        <time>2021-05-27T11:31:06Z</time>
      </trkpt>
      <trkpt lat="47.70139" lon="-2.32314">
        <ele>76.1</ele>
        <time>2021-05-27T11:31:07Z</time>
      </trkpt>
      <trkpt lat="47.70141" lon="-2.32322">
        <ele>76.2</ele>
        <time>2021-05-27T11:31:08Z</time>
      </trkpt>
      <trkpt lat="47.70143" lon="-2.32329">
        <ele>76.4</ele>
        <time>2021-05-27T11:31:09Z</time>
      </trkpt>
      <trkpt lat="47.70145" lon="-2.32337">
        <ele>76.5</ele>
        <time>2021-05-27T11:31:10Z</time>
      </trkpt>
      <trkpt lat="47.70147" lon="-2.32345">
        <ele>76.6</ele>
        <time>2021-05-27T11:31:11Z</time>
      </trkpt>
      <trkpt lat="47.70148" lon="-2.32353">
        <ele>76.6</ele>
        <time>2021-05-27T11:31:12Z</time>
      </trkpt>
      <trkpt lat="47.7015" lon="-2.32361">
        <ele>76.7</ele>
        <time>2021-05-27T11:31:13Z</time>
      </trkpt>
      <trkpt lat="47.70151" lon="-2.3237">
        <ele>76.7</ele>
        <time>2021-05-27T11:31:14Z</time>
      </trkpt>
      <trkpt lat="47.70153" lon="-2.32378">
        <ele>76.8</ele>
        <time>2021-05-27T11:31:15Z</time>
      </trkpt>
      <trkpt lat="47.70155" lon="-2.32387">
        <ele>76.8</ele>
        <time>2021-05-27T11:31:16Z</time>
      </trkpt>
      <trkpt lat="47.70156" lon="-2.32395">
        <ele>76.8</ele>
        <time>2021-05-27T11:31:17Z</time>
      </trkpt>
      <trkpt lat="47.70158" lon="-2.32404">
        <ele>76.9</ele>
        <time>2021-05-27T11:31:18Z</time>
      </trkpt>
      <trkpt lat="47.7016" lon="-2.32412">
        <ele>76.9</ele>
        <time>2021-05-27T11:31:19Z</time>
      </trkpt>
      <trkpt lat="47.70161" lon="-2.32421">
        <ele>76.9</ele>
        <time>2021-05-27T11:31:20Z</time>
      </trkpt>
      <trkpt lat="47.70163" lon="-2.32429">
        <ele>76.9</ele>
        <time>2021-05-27T11:31:21Z</time>
      </trkpt>
      <trkpt lat="47.70164" lon="-2.32437">
        <ele>77</ele>
        <time>2021-05-27T11:31:22Z</time>
      </trkpt>
      <trkpt lat="47.70165" lon="-2.32445">
        <ele>77</ele>
        <time>2021-05-27T11:31:23Z</time>
      </trkpt>
      <trkpt lat="47.70166" lon="-2.32452">
        <ele>77</ele>
        <time>2021-05-27T11:31:24Z</time>
      </trkpt>
      <trkpt lat="47.70167" lon="-2.32459">
        <ele>77</ele>
        <time>2021-05-27T11:31:25Z</time>
      </trkpt>
      <trkpt lat="47.70167" lon="-2.32465">
        <ele>77</ele>
        <time>2021-05-27T11:31:26Z</time>
      </trkpt>
      <trkpt lat="47.70167" lon="-2.32473">
        <ele>77</ele>
        <time>2021-05-27T11:31:27Z</time>
      </trkpt>
      <trkpt lat="47.70167" lon="-2.3248">
        <ele>77</ele>
        <time>2021-05-27T11:31:28Z</time>
      </trkpt>
      <trkpt lat="47.70167" lon="-2.32487">
        <ele>77</ele>
        <time>2021-05-27T11:31:29Z</time>
      </trkpt>
      <trkpt lat="47.70166" lon="-2.32495">
        <ele>77</ele>
        <time>2021-05-27T11:31:30Z</time>
      </trkpt>
      <trkpt lat="47.70166" lon="-2.32502">
        <ele>77</ele>
        <time>2021-05-27T11:31:31Z</time>
      </trkpt>
      <trkpt lat="47.70167" lon="-2.3251">
        <ele>77.2</ele>
        <time>2021-05-27T11:31:32Z</time>
      </trkpt>
      <trkpt lat="47.70167" lon="-2.32516">
        <ele>77.4</ele>
        <time>2021-05-27T11:31:33Z</time>
      </trkpt>
      <trkpt lat="47.70168" lon="-2.32522">
        <ele>77.6</ele>
        <time>2021-05-27T11:31:34Z</time>
      </trkpt>
      <trkpt lat="47.70169" lon="-2.32528">
        <ele>77.7</ele>
        <time>2021-05-27T11:31:35Z</time>
      </trkpt>
      <trkpt lat="47.70171" lon="-2.32535">
        <ele>77.9</ele>
        <time>2021-05-27T11:31:36Z</time>
      </trkpt>
      <trkpt lat="47.70174" lon="-2.32542">
        <ele>78.1</ele>
        <time>2021-05-27T11:31:37Z</time>
      </trkpt>
      <trkpt lat="47.70178" lon="-2.32548">
        <ele>78.3</ele>
        <time>2021-05-27T11:31:38Z</time>
      </trkpt>
      <trkpt lat="47.7018" lon="-2.32553">
        <ele>78.4</ele>
        <time>2021-05-27T11:31:39Z</time>
      </trkpt>
      <trkpt lat="47.70182" lon="-2.32558">
        <ele>78.5</ele>
        <time>2021-05-27T11:31:40Z</time>
      </trkpt>
      <trkpt lat="47.70183" lon="-2.32563">
        <ele>78.6</ele>
        <time>2021-05-27T11:31:41Z</time>
      </trkpt>
      <trkpt lat="47.70184" lon="-2.32569">
        <ele>78.7</ele>
        <time>2021-05-27T11:31:42Z</time>
      </trkpt>
      <trkpt lat="47.70187" lon="-2.32575">
        <ele>78.8</ele>
        <time>2021-05-27T11:31:43Z</time>
      </trkpt>
      <trkpt lat="47.7019" lon="-2.3258">
        <ele>78.9</ele>
        <time>2021-05-27T11:31:44Z</time>
      </trkpt>
      <trkpt lat="47.70193" lon="-2.32584">
        <ele>79</ele>
        <time>2021-05-27T11:31:45Z</time>
      </trkpt>
      <trkpt lat="47.70195" lon="-2.3259">
        <ele>79</ele>
        <time>2021-05-27T11:31:46Z</time>
      </trkpt>
      <trkpt lat="47.70196" lon="-2.32597">
        <ele>79</ele>
        <time>2021-05-27T11:31:47Z</time>
      </trkpt>
      <trkpt lat="47.70197" lon="-2.32604">
        <ele>79</ele>
        <time>2021-05-27T11:31:48Z</time>
      </trkpt>
      <trkpt lat="47.70197" lon="-2.32611">
        <ele>79</ele>
        <time>2021-05-27T11:31:49Z</time>
      </trkpt>
      <trkpt lat="47.70198" lon="-2.32618">
        <ele>79</ele>
        <time>2021-05-27T11:31:50Z</time>
      </trkpt>
      <trkpt lat="47.702" lon="-2.32626">
        <ele>79</ele>
        <time>2021-05-27T11:31:51Z</time>
      </trkpt>
      <trkpt lat="47.702" lon="-2.32632">
        <ele>79</ele>
        <time>2021-05-27T11:31:52Z</time>
      </trkpt>
      <trkpt lat="47.702" lon="-2.32638">
        <ele>79</ele>
        <time>2021-05-27T11:31:53Z</time>
      </trkpt>
      <trkpt lat="47.702" lon="-2.32645">
        <ele>79</ele>
        <time>2021-05-27T11:31:54Z</time>
      </trkpt>
      <trkpt lat="47.70199" lon="-2.32652">
        <ele>79</ele>
        <time>2021-05-27T11:31:55Z</time>
      </trkpt>
      <trkpt lat="47.70197" lon="-2.32657">
        <ele>79</ele>
        <time>2021-05-27T11:31:56Z</time>
      </trkpt>
      <trkpt lat="47.70195" lon="-2.32663">
        <ele>79</ele>
        <time>2021-05-27T11:31:57Z</time>
      </trkpt>
      <trkpt lat="47.70194" lon="-2.32669">
        <ele>79</ele>
        <time>2021-05-27T11:31:58Z</time>
      </trkpt>
      <trkpt lat="47.70193" lon="-2.32675">
        <ele>78.9</ele>
        <time>2021-05-27T11:31:59Z</time>
      </trkpt>
      <trkpt lat="47.70192" lon="-2.32682">
        <ele>78.9</ele>
        <time>2021-05-27T11:32:00Z</time>
      </trkpt>
      <trkpt lat="47.70194" lon="-2.32688">
        <ele>78.8</ele>
        <time>2021-05-27T11:32:01Z</time>
      </trkpt>
      <trkpt lat="47.70195" lon="-2.32694">
        <ele>78.8</ele>
        <time>2021-05-27T11:32:02Z</time>
      </trkpt>
      <trkpt lat="47.70195" lon="-2.327">
        <ele>78.7</ele>
        <time>2021-05-27T11:32:03Z</time>
      </trkpt>
      <trkpt lat="47.70196" lon="-2.32706">
        <ele>78.7</ele>
        <time>2021-05-27T11:32:04Z</time>
      </trkpt>
      <trkpt lat="47.70197" lon="-2.32713">
        <ele>78.6</ele>
        <time>2021-05-27T11:32:05Z</time>
      </trkpt>
      <trkpt lat="47.70198" lon="-2.3272">
        <ele>78.6</ele>
        <time>2021-05-27T11:32:06Z</time>
      </trkpt>
      <trkpt lat="47.70198" lon="-2.32726">
        <ele>78.6</ele>
        <time>2021-05-27T11:32:07Z</time>
      </trkpt>
      <trkpt lat="47.70199" lon="-2.32733">
        <ele>78.5</ele>
        <time>2021-05-27T11:32:08Z</time>
      </trkpt>
      <trkpt lat="47.702" lon="-2.3274">
        <ele>78.5</ele>
        <time>2021-05-27T11:32:09Z</time>
      </trkpt>
      <trkpt lat="47.70203" lon="-2.32747">
        <ele>78.5</ele>
        <time>2021-05-27T11:32:10Z</time>
      </trkpt>
      <trkpt lat="47.70206" lon="-2.32753">
        <ele>78.4</ele>
        <time>2021-05-27T11:32:11Z</time>
      </trkpt>
      <trkpt lat="47.70208" lon="-2.32758">
        <ele>78.4</ele>
        <time>2021-05-27T11:32:12Z</time>
      </trkpt>
      <trkpt lat="47.7021" lon="-2.32765">
        <ele>78.3</ele>
        <time>2021-05-27T11:32:13Z</time>
      </trkpt>
      <trkpt lat="47.7021" lon="-2.32771">
        <ele>78.3</ele>
        <time>2021-05-27T11:32:14Z</time>
      </trkpt>
      <trkpt lat="47.70211" lon="-2.32777">
        <ele>78.2</ele>
        <time>2021-05-27T11:32:15Z</time>
      </trkpt>
      <trkpt lat="47.70211" lon="-2.32784">
        <ele>78.1</ele>
        <time>2021-05-27T11:32:16Z</time>
      </trkpt>
      <trkpt lat="47.70211" lon="-2.3279">
        <ele>78.1</ele>
        <time>2021-05-27T11:32:17Z</time>
      </trkpt>
      <trkpt lat="47.7021" lon="-2.32796">
        <ele>78</ele>
        <time>2021-05-27T11:32:18Z</time>
      </trkpt>
      <trkpt lat="47.7021" lon="-2.32803">
        <ele>77.9</ele>
        <time>2021-05-27T11:32:19Z</time>
      </trkpt>
      <trkpt lat="47.70209" lon="-2.32809">
        <ele>77.8</ele>
        <time>2021-05-27T11:32:20Z</time>
      </trkpt>
      <trkpt lat="47.70207" lon="-2.32815">
        <ele>77.7</ele>
        <time>2021-05-27T11:32:21Z</time>
      </trkpt>
      <trkpt lat="47.70206" lon="-2.32821">
        <ele>77.6</ele>
        <time>2021-05-27T11:32:22Z</time>
      </trkpt>
      <trkpt lat="47.70205" lon="-2.32828">
        <ele>77.5</ele>
        <time>2021-05-27T11:32:23Z</time>
      </trkpt>
      <trkpt lat="47.70204" lon="-2.32834">
        <ele>77.4</ele>
        <time>2021-05-27T11:32:24Z</time>
      </trkpt>
      <trkpt lat="47.70203" lon="-2.32841">
        <ele>77.3</ele>
        <time>2021-05-27T11:32:25Z</time>
      </trkpt>
      <trkpt lat="47.70203" lon="-2.32848">
        <ele>77.2</ele>
        <time>2021-05-27T11:32:26Z</time>
      </trkpt>
      <trkpt lat="47.70203" lon="-2.32854">
        <ele>77.1</ele>
        <time>2021-05-27T11:32:27Z</time>
      </trkpt>
      <trkpt lat="47.70203" lon="-2.3286">
        <ele>77</ele>
        <time>2021-05-27T11:32:28Z</time>
      </trkpt>
      <trkpt lat="47.70202" lon="-2.32865">
        <ele>76.9</ele>
        <time>2021-05-27T11:32:29Z</time>
      </trkpt>
      <trkpt lat="47.70201" lon="-2.32869">
        <ele>76.8</ele>
        <time>2021-05-27T11:32:30Z</time>
      </trkpt>
      <trkpt lat="47.702" lon="-2.32874">
        <ele>76.7</ele>
        <time>2021-05-27T11:32:31Z</time>
      </trkpt>
      <trkpt lat="47.70198" lon="-2.32877">
        <ele>76.6</ele>
        <time>2021-05-27T11:32:32Z</time>
      </trkpt>
      <trkpt lat="47.70196" lon="-2.32878">
        <ele>76.5</ele>
        <time>2021-05-27T11:32:33Z</time>
      </trkpt>
      <trkpt lat="47.70192" lon="-2.3288">
        <ele>76.3</ele>
        <time>2021-05-27T11:32:34Z</time>
      </trkpt>
      <trkpt lat="47.70189" lon="-2.3288">
        <ele>76.2</ele>
        <time>2021-05-27T11:32:35Z</time>
      </trkpt>
      <trkpt lat="47.70184" lon="-2.3288">
        <ele>76</ele>
        <time>2021-05-27T11:32:36Z</time>
      </trkpt>
      <trkpt lat="47.7018" lon="-2.32879">
        <ele>75.9</ele>
        <time>2021-05-27T11:32:37Z</time>
      </trkpt>
      <trkpt lat="47.70176" lon="-2.32879">
        <ele>75.7</ele>
        <time>2021-05-27T11:32:38Z</time>
      </trkpt>
      <trkpt lat="47.70171" lon="-2.32883">
        <ele>75.4</ele>
        <time>2021-05-27T11:32:39Z</time>
      </trkpt>
      <trkpt lat="47.70167" lon="-2.32888">
        <ele>75.1</ele>
        <time>2021-05-27T11:32:40Z</time>
      </trkpt>
      <trkpt lat="47.70164" lon="-2.32892">
        <ele>74.5</ele>
        <time>2021-05-27T11:32:41Z</time>
      </trkpt>
      <trkpt lat="47.70162" lon="-2.32897">
        <ele>74.1</ele>
        <time>2021-05-27T11:32:42Z</time>
      </trkpt>
      <trkpt lat="47.70159" lon="-2.32901">
        <ele>73.5</ele>
        <time>2021-05-27T11:32:43Z</time>
      </trkpt>
      <trkpt lat="47.70157" lon="-2.32906">
        <ele>73</ele>
        <time>2021-05-27T11:32:44Z</time>
      </trkpt>
      <trkpt lat="47.70155" lon="-2.3291">
        <ele>72.5</ele>
        <time>2021-05-27T11:32:45Z</time>
      </trkpt>
      <trkpt lat="47.70153" lon="-2.32915">
        <ele>72.1</ele>
        <time>2021-05-27T11:32:46Z</time>
      </trkpt>
      <trkpt lat="47.70153" lon="-2.3292">
        <ele>71.9</ele>
        <time>2021-05-27T11:32:47Z</time>
      </trkpt>
      <trkpt lat="47.70153" lon="-2.32924">
        <ele>71.8</ele>
        <time>2021-05-27T11:32:48Z</time>
      </trkpt>
      <trkpt lat="47.70153" lon="-2.32926">
        <ele>71.8</ele>
        <time>2021-05-27T11:32:49Z</time>
      </trkpt>
      <trkpt lat="47.70153" lon="-2.32929">
        <ele>71.6</ele>
        <time>2021-05-27T11:32:50Z</time>
      </trkpt>
      <trkpt lat="47.70152" lon="-2.32931">
        <ele>71.4</ele>
        <time>2021-05-27T11:32:51Z</time>
      </trkpt>
      <trkpt lat="47.70151" lon="-2.32935">
        <ele>71.2</ele>
        <time>2021-05-27T11:32:52Z</time>
      </trkpt>
      <trkpt lat="47.7015" lon="-2.3294">
        <ele>71</ele>
        <time>2021-05-27T11:32:53Z</time>
      </trkpt>
      <trkpt lat="47.70151" lon="-2.32944">
        <ele>70.9</ele>
        <time>2021-05-27T11:32:54Z</time>
      </trkpt>
      <trkpt lat="47.70151" lon="-2.32947">
        <ele>70.9</ele>
        <time>2021-05-27T11:32:55Z</time>
      </trkpt>
      <trkpt lat="47.70152" lon="-2.32951">
        <ele>71</ele>
        <time>2021-05-27T11:32:56Z</time>
      </trkpt>
      <trkpt lat="47.70154" lon="-2.32955">
        <ele>71.2</ele>
        <time>2021-05-27T11:32:57Z</time>
      </trkpt>
      <trkpt lat="47.70156" lon="-2.32959">
        <ele>71.5</ele>
        <time>2021-05-27T11:32:58Z</time>
      </trkpt>
      <trkpt lat="47.70158" lon="-2.32963">
        <ele>71.7</ele>
        <time>2021-05-27T11:32:59Z</time>
      </trkpt>
      <trkpt lat="47.70159" lon="-2.32967">
        <ele>71.9</ele>
        <time>2021-05-27T11:33:00Z</time>
      </trkpt>
      <trkpt lat="47.7016" lon="-2.3297">
        <ele>72.1</ele>
        <time>2021-05-27T11:33:01Z</time>
      </trkpt>
      <trkpt lat="47.70162" lon="-2.32974">
        <ele>72.3</ele>
        <time>2021-05-27T11:33:02Z</time>
      </trkpt>
      <trkpt lat="47.70162" lon="-2.32976">
        <ele>72.4</ele>
        <time>2021-05-27T11:33:03Z</time>
      </trkpt>
      <trkpt lat="47.70163" lon="-2.3298">
        <ele>72.4</ele>
        <time>2021-05-27T11:33:04Z</time>
      </trkpt>
      <trkpt lat="47.70164" lon="-2.32983">
        <ele>72.6</ele>
        <time>2021-05-27T11:33:05Z</time>
      </trkpt>
      <trkpt lat="47.70166" lon="-2.32987">
        <ele>72.9</ele>
        <time>2021-05-27T11:33:06Z</time>
      </trkpt>
      <trkpt lat="47.70167" lon="-2.32991">
        <ele>73.1</ele>
        <time>2021-05-27T11:33:07Z</time>
      </trkpt>
      <trkpt lat="47.70169" lon="-2.32995">
        <ele>73.2</ele>
        <time>2021-05-27T11:33:08Z</time>
      </trkpt>
      <trkpt lat="47.7017" lon="-2.32998">
        <ele>73.2</ele>
        <time>2021-05-27T11:33:09Z</time>
      </trkpt>
      <trkpt lat="47.7017" lon="-2.33003">
        <ele>73</ele>
        <time>2021-05-27T11:33:10Z</time>
      </trkpt>
      <trkpt lat="47.7017" lon="-2.33008">
        <ele>72.7</ele>
        <time>2021-05-27T11:33:11Z</time>
      </trkpt>
      <trkpt lat="47.7017" lon="-2.33012">
        <ele>72.5</ele>
        <time>2021-05-27T11:33:12Z</time>
      </trkpt>
      <trkpt lat="47.7017" lon="-2.33017">
        <ele>72.2</ele>
        <time>2021-05-27T11:33:13Z</time>
      </trkpt>
      <trkpt lat="47.7017" lon="-2.33022">
        <ele>71.9</ele>
        <time>2021-05-27T11:33:14Z</time>
      </trkpt>
      <trkpt lat="47.7017" lon="-2.33027">
        <ele>71.6</ele>
        <time>2021-05-27T11:33:15Z</time>
      </trkpt>
      <trkpt lat="47.7017" lon="-2.33031">
        <ele>71.4</ele>
        <time>2021-05-27T11:33:16Z</time>
      </trkpt>
      <trkpt lat="47.7017" lon="-2.33033">
        <ele>71.3</ele>
        <time>2021-05-27T11:33:17Z</time>
      </trkpt>
      <trkpt lat="47.7017" lon="-2.33033">
        <ele>71.3</ele>
        <time>2021-05-27T11:33:18Z</time>
      </trkpt>
      <trkpt lat="47.70171" lon="-2.33033">
        <ele>71.3</ele>
        <time>2021-05-27T11:33:19Z</time>
      </trkpt>
      <trkpt lat="47.70171" lon="-2.33033">
        <ele>71.3</ele>
        <time>2021-05-27T11:33:20Z</time>
      </trkpt>
      <trkpt lat="47.70171" lon="-2.33033">
        <ele>71.3</ele>
        <time>2021-05-27T11:33:21Z</time>
      </trkpt>
      <trkpt lat="47.70171" lon="-2.33033">
        <ele>71.3</ele>
        <time>2021-05-27T11:33:22Z</time>
      </trkpt>
      <trkpt lat="47.70171" lon="-2.33033">
        <ele>71.3</ele>
        <time>2021-05-27T11:33:23Z</time>
      </trkpt>
      <trkpt lat="47.70171" lon="-2.33033">
        <ele>71.3</ele>
        <time>2021-05-27T11:33:24Z</time>
      </trkpt>
      <trkpt lat="47.70171" lon="-2.33033">
        <ele>71.3</ele>
        <time>2021-05-27T11:33:25Z</time>
      </trkpt>
      <trkpt lat="47.70171" lon="-2.33033">
        <ele>71.3</ele>
        <time>2021-05-27T11:33:26Z</time>
      </trkpt>
      <trkpt lat="47.70171" lon="-2.33033">
        <ele>71.3</ele>
        <time>2021-05-27T11:33:27Z</time>
      </trkpt>
      <trkpt lat="47.70171" lon="-2.33033">
        <ele>71.3</ele>
        <time>2021-05-27T11:33:28Z</time>
      </trkpt>
      <trkpt lat="47.70171" lon="-2.33033">
        <ele>71.3</ele>
        <time>2021-05-27T11:33:29Z</time>
      </trkpt>
      <trkpt lat="47.70171" lon="-2.33033">
        <ele>71.3</ele>
        <time>2021-05-27T11:33:30Z</time>
      </trkpt>
      <trkpt lat="47.70171" lon="-2.33033">
        <ele>71.3</ele>
        <time>2021-05-27T11:33:31Z</time>
      </trkpt>
      <trkpt lat="47.70171" lon="-2.33033">
        <ele>71.3</ele>
        <time>2021-05-27T11:33:32Z</time>
      </trkpt>
      <trkpt lat="47.70171" lon="-2.33033">
        <ele>71.3</ele>
        <time>2021-05-27T11:33:33Z</time>
      </trkpt>
      <trkpt lat="47.70171" lon="-2.33033">
        <ele>71.3</ele>
        <time>2021-05-27T11:33:34Z</time>
      </trkpt>
      <trkpt lat="47.70171" lon="-2.33033">
        <ele>71.3</ele>
        <time>2021-05-27T11:33:35Z</time>
      </trkpt>
      <trkpt lat="47.70171" lon="-2.33033">
        <ele>71.3</ele>
        <time>2021-05-27T11:33:36Z</time>
      </trkpt>
      <trkpt lat="47.70171" lon="-2.33033">
        <ele>71.3</ele>
        <time>2021-05-27T11:33:37Z</time>
      </trkpt>
      <trkpt lat="47.70171" lon="-2.33033">
        <ele>71.3</ele>
        <time>2021-05-27T11:33:38Z</time>
      </trkpt>
      <trkpt lat="47.70171" lon="-2.33033">
        <ele>71.3</ele>
        <time>2021-05-27T11:33:39Z</time>
      </trkpt>
      <trkpt lat="47.70171" lon="-2.33033">
        <ele>71.3</ele>
        <time>2021-05-27T11:33:40Z</time>
      </trkpt>
      <trkpt lat="47.70169" lon="-2.33046">
        <ele>70.4</ele>
        <time>2021-05-27T11:33:41Z</time>
      </trkpt>
      <trkpt lat="47.70167" lon="-2.33049">
        <ele>70.1</ele>
        <time>2021-05-27T11:33:42Z</time>
      </trkpt>
      <trkpt lat="47.70166" lon="-2.33053">
        <ele>69.7</ele>
        <time>2021-05-27T11:33:43Z</time>
      </trkpt>
      <trkpt lat="47.70166" lon="-2.33059">
        <ele>69.4</ele>
        <time>2021-05-27T11:33:44Z</time>
      </trkpt>
      <trkpt lat="47.70167" lon="-2.33065">
        <ele>69.1</ele>
        <time>2021-05-27T11:33:45Z</time>
      </trkpt>
      <trkpt lat="47.70168" lon="-2.33068">
        <ele>69</ele>
        <time>2021-05-27T11:33:46Z</time>
      </trkpt>
      <trkpt lat="47.70169" lon="-2.33073">
        <ele>68.8</ele>
        <time>2021-05-27T11:33:47Z</time>
      </trkpt>
      <trkpt lat="47.7017" lon="-2.33077">
        <ele>68.6</ele>
        <time>2021-05-27T11:33:48Z</time>
      </trkpt>
      <trkpt lat="47.70171" lon="-2.33082">
        <ele>68.4</ele>
        <time>2021-05-27T11:33:49Z</time>
      </trkpt>
      <trkpt lat="47.70172" lon="-2.33087">
        <ele>68.2</ele>
        <time>2021-05-27T11:33:50Z</time>
      </trkpt>
      <trkpt lat="47.70173" lon="-2.33093">
        <ele>67.9</ele>
        <time>2021-05-27T11:33:51Z</time>
      </trkpt>
      <trkpt lat="47.70175" lon="-2.33098">
        <ele>67.8</ele>
        <time>2021-05-27T11:33:52Z</time>
      </trkpt>
      <trkpt lat="47.70177" lon="-2.33103">
        <ele>67.6</ele>
        <time>2021-05-27T11:33:53Z</time>
      </trkpt>
      <trkpt lat="47.70178" lon="-2.33108">
        <ele>67.3</ele>
        <time>2021-05-27T11:33:54Z</time>
      </trkpt>
      <trkpt lat="47.70178" lon="-2.33113">
        <ele>67.1</ele>
        <time>2021-05-27T11:33:55Z</time>
      </trkpt>
      <trkpt lat="47.70179" lon="-2.33118">
        <ele>66.8</ele>
        <time>2021-05-27T11:33:56Z</time>
      </trkpt>
      <trkpt lat="47.70179" lon="-2.33123">
        <ele>66.6</ele>
        <time>2021-05-27T11:33:57Z</time>
      </trkpt>
      <trkpt lat="47.70179" lon="-2.33127">
        <ele>66.3</ele>
        <time>2021-05-27T11:33:58Z</time>
      </trkpt>
      <trkpt lat="47.70179" lon="-2.33132">
        <ele>65.9</ele>
        <time>2021-05-27T11:33:59Z</time>
      </trkpt>
      <trkpt lat="47.70179" lon="-2.33137">
        <ele>65.6</ele>
        <time>2021-05-27T11:34:00Z</time>
      </trkpt>
      <trkpt lat="47.70179" lon="-2.33142">
        <ele>65.3</ele>
        <time>2021-05-27T11:34:01Z</time>
      </trkpt>
      <trkpt lat="47.70179" lon="-2.33147">
        <ele>65</ele>
        <time>2021-05-27T11:34:02Z</time>
      </trkpt>
      <trkpt lat="47.70179" lon="-2.33152">
        <ele>64.7</ele>
        <time>2021-05-27T11:34:03Z</time>
      </trkpt>
      <trkpt lat="47.7018" lon="-2.33156">
        <ele>64.5</ele>
        <time>2021-05-27T11:34:04Z</time>
      </trkpt>
      <trkpt lat="47.70181" lon="-2.33161">
        <ele>64.3</ele>
        <time>2021-05-27T11:34:05Z</time>
      </trkpt>
      <trkpt lat="47.70183" lon="-2.33166">
        <ele>64.4</ele>
        <time>2021-05-27T11:34:06Z</time>
      </trkpt>
      <trkpt lat="47.70185" lon="-2.33169">
        <ele>64.4</ele>
        <time>2021-05-27T11:34:07Z</time>
      </trkpt>
      <trkpt lat="47.70186" lon="-2.33172">
        <ele>64.4</ele>
        <time>2021-05-27T11:34:08Z</time>
      </trkpt>
      <trkpt lat="47.70187" lon="-2.33174">
        <ele>64.4</ele>
        <time>2021-05-27T11:34:09Z</time>
      </trkpt>
      <trkpt lat="47.70188" lon="-2.33175">
        <ele>64.4</ele>
        <time>2021-05-27T11:34:10Z</time>
      </trkpt>
      <trkpt lat="47.70188" lon="-2.33175">
        <ele>64.4</ele>
        <time>2021-05-27T11:34:11Z</time>
      </trkpt>
      <trkpt lat="47.70188" lon="-2.33175">
        <ele>64.5</ele>
        <time>2021-05-27T11:34:12Z</time>
      </trkpt>
      <trkpt lat="47.70188" lon="-2.33175">
        <ele>64.5</ele>
        <time>2021-05-27T11:34:13Z</time>
      </trkpt>
      <trkpt lat="47.70188" lon="-2.33175">
        <ele>64.5</ele>
        <time>2021-05-27T11:34:14Z</time>
      </trkpt>
      <trkpt lat="47.70188" lon="-2.33175">
        <ele>64.5</ele>
        <time>2021-05-27T11:34:15Z</time>
      </trkpt>
      <trkpt lat="47.70188" lon="-2.33175">
        <ele>64.5</ele>
        <time>2021-05-27T11:34:16Z</time>
      </trkpt>
      <trkpt lat="47.70188" lon="-2.33175">
        <ele>64.5</ele>
        <time>2021-05-27T11:34:17Z</time>
      </trkpt>
      <trkpt lat="47.70188" lon="-2.33175">
        <ele>64.5</ele>
        <time>2021-05-27T11:34:18Z</time>
      </trkpt>
      <trkpt lat="47.70188" lon="-2.33175">
        <ele>64.5</ele>
        <time>2021-05-27T11:34:19Z</time>
      </trkpt>
      <trkpt lat="47.70188" lon="-2.33175">
        <ele>64.5</ele>
        <time>2021-05-27T11:34:20Z</time>
      </trkpt>
      <trkpt lat="47.70188" lon="-2.33175">
        <ele>64.5</ele>
        <time>2021-05-27T11:34:21Z</time>
      </trkpt>
      <trkpt lat="47.70191" lon="-2.33179">
        <ele>64.6</ele>
        <time>2021-05-27T11:34:22Z</time>
      </trkpt>
      <trkpt lat="47.70191" lon="-2.3318">
        <ele>64.5</ele>
        <time>2021-05-27T11:34:23Z</time>
      </trkpt>
      <trkpt lat="47.70191" lon="-2.3318">
        <ele>64.5</ele>
        <time>2021-05-27T11:34:24Z</time>
      </trkpt>
      <trkpt lat="47.70191" lon="-2.3318">
        <ele>64.6</ele>
        <time>2021-05-27T11:34:25Z</time>
      </trkpt>
      <trkpt lat="47.70193" lon="-2.33181">
        <ele>64.7</ele>
        <time>2021-05-27T11:37:29Z</time>
      </trkpt>
      <trkpt lat="47.70191" lon="-2.33182">
        <ele>64.4</ele>
        <time>2021-05-27T11:37:30Z</time>
      </trkpt>
      <trkpt lat="47.70189" lon="-2.33183">
        <ele>64</ele>
        <time>2021-05-27T11:37:31Z</time>
      </trkpt>
      <trkpt lat="47.70186" lon="-2.33183">
        <ele>63.6</ele>
        <time>2021-05-27T11:37:32Z</time>
      </trkpt>
      <trkpt lat="47.70183" lon="-2.33183">
        <ele>63.1</ele>
        <time>2021-05-27T11:37:33Z</time>
      </trkpt>
      <trkpt lat="47.70182" lon="-2.33183">
        <ele>62.8</ele>
        <time>2021-05-27T11:37:34Z</time>
      </trkpt>
      <trkpt lat="47.70181" lon="-2.33183">
        <ele>62.6</ele>
        <time>2021-05-27T11:37:35Z</time>
      </trkpt>
      <trkpt lat="47.7018" lon="-2.33184">
        <ele>62.6</ele>
        <time>2021-05-27T11:37:36Z</time>
      </trkpt>
      <trkpt lat="47.7018" lon="-2.33183">
        <ele>62.6</ele>
        <time>2021-05-27T11:37:37Z</time>
      </trkpt>
      <trkpt lat="47.7018" lon="-2.33183">
        <ele>62.6</ele>
        <time>2021-05-27T11:37:38Z</time>
      </trkpt>
      <trkpt lat="47.7018" lon="-2.33183">
        <ele>62.6</ele>
        <time>2021-05-27T11:37:39Z</time>
      </trkpt>
      <trkpt lat="47.7018" lon="-2.33183">
        <ele>62.6</ele>
        <time>2021-05-27T11:37:40Z</time>
      </trkpt>
      <trkpt lat="47.7018" lon="-2.33183">
        <ele>62.6</ele>
        <time>2021-05-27T11:37:41Z</time>
      </trkpt>
      <trkpt lat="47.7018" lon="-2.33183">
        <ele>62.6</ele>
        <time>2021-05-27T11:37:42Z</time>
      </trkpt>
      <trkpt lat="47.7018" lon="-2.33183">
        <ele>62.6</ele>
        <time>2021-05-27T11:37:43Z</time>
      </trkpt>
      <trkpt lat="47.7018" lon="-2.33183">
        <ele>62.6</ele>
        <time>2021-05-27T11:37:44Z</time>
      </trkpt>
      <trkpt lat="47.7018" lon="-2.33183">
        <ele>62.6</ele>
        <time>2021-05-27T11:37:45Z</time>
      </trkpt>
      <trkpt lat="47.7018" lon="-2.33183">
        <ele>62.6</ele>
        <time>2021-05-27T11:37:46Z</time>
      </trkpt>
      <trkpt lat="47.7018" lon="-2.33183">
        <ele>62.6</ele>
        <time>2021-05-27T11:37:47Z</time>
      </trkpt>
      <trkpt lat="47.70173" lon="-2.33187">
        <ele>61.1</ele>
        <time>2021-05-27T11:37:48Z</time>
      </trkpt>
      <trkpt lat="47.70172" lon="-2.33189">
        <ele>60.6</ele>
        <time>2021-05-27T11:37:49Z</time>
      </trkpt>
      <trkpt lat="47.70169" lon="-2.33192">
        <ele>60</ele>
        <time>2021-05-27T11:37:50Z</time>
      </trkpt>
      <trkpt lat="47.70167" lon="-2.33194">
        <ele>59.4</ele>
        <time>2021-05-27T11:37:51Z</time>
      </trkpt>
      <trkpt lat="47.70165" lon="-2.33195">
        <ele>58.8</ele>
        <time>2021-05-27T11:37:52Z</time>
      </trkpt>
      <trkpt lat="47.70164" lon="-2.33196">
        <ele>58.5</ele>
        <time>2021-05-27T11:37:53Z</time>
      </trkpt>
      <trkpt lat="47.70164" lon="-2.33197">
        <ele>58.5</ele>
        <time>2021-05-27T11:37:54Z</time>
      </trkpt>
      <trkpt lat="47.70166" lon="-2.33199">
        <ele>58.5</ele>
        <time>2021-05-27T11:37:55Z</time>
      </trkpt>
      <trkpt lat="47.70167" lon="-2.33201">
        <ele>58.7</ele>
        <time>2021-05-27T11:37:56Z</time>
      </trkpt>
      <trkpt lat="47.70167" lon="-2.33203">
        <ele>58.7</ele>
        <time>2021-05-27T11:37:57Z</time>
      </trkpt>
      <trkpt lat="47.70168" lon="-2.33205">
        <ele>58.5</ele>
        <time>2021-05-27T11:37:58Z</time>
      </trkpt>
      <trkpt lat="47.70167" lon="-2.33208">
        <ele>58.1</ele>
        <time>2021-05-27T11:37:59Z</time>
      </trkpt>
      <trkpt lat="47.70167" lon="-2.33211">
        <ele>57.8</ele>
        <time>2021-05-27T11:38:00Z</time>
      </trkpt>
      <trkpt lat="47.70166" lon="-2.33214">
        <ele>57.3</ele>
        <time>2021-05-27T11:38:01Z</time>
      </trkpt>
      <trkpt lat="47.70166" lon="-2.33217">
        <ele>56.9</ele>
        <time>2021-05-27T11:38:02Z</time>
      </trkpt>
      <trkpt lat="47.70165" lon="-2.33219">
        <ele>56.5</ele>
        <time>2021-05-27T11:38:03Z</time>
      </trkpt>
      <trkpt lat="47.70164" lon="-2.33222">
        <ele>55.9</ele>
        <time>2021-05-27T11:38:04Z</time>
      </trkpt>
      <trkpt lat="47.70163" lon="-2.33225">
        <ele>55.6</ele>
        <time>2021-05-27T11:38:05Z</time>
      </trkpt>
      <trkpt lat="47.70163" lon="-2.33227">
        <ele>55.2</ele>
        <time>2021-05-27T11:38:06Z</time>
      </trkpt>
      <trkpt lat="47.70162" lon="-2.33229">
        <ele>54.9</ele>
        <time>2021-05-27T11:38:07Z</time>
      </trkpt>
      <trkpt lat="47.70161" lon="-2.33231">
        <ele>54.4</ele>
        <time>2021-05-27T11:38:08Z</time>
      </trkpt>
      <trkpt lat="47.7016" lon="-2.33233">
        <ele>54</ele>
        <time>2021-05-27T11:38:09Z</time>
      </trkpt>
      <trkpt lat="47.7016" lon="-2.33235">
        <ele>53.7</ele>
        <time>2021-05-27T11:38:10Z</time>
      </trkpt>
      <trkpt lat="47.7016" lon="-2.33237">
        <ele>53.5</ele>
        <time>2021-05-27T11:38:11Z</time>
      </trkpt>
      <trkpt lat="47.70159" lon="-2.33238">
        <ele>53</ele>
        <time>2021-05-27T11:38:12Z</time>
      </trkpt>
      <trkpt lat="47.70158" lon="-2.3324">
        <ele>52.7</ele>
        <time>2021-05-27T11:38:13Z</time>
      </trkpt>
      <trkpt lat="47.70157" lon="-2.33241">
        <ele>52.3</ele>
        <time>2021-05-27T11:38:14Z</time>
      </trkpt>
      <trkpt lat="47.70156" lon="-2.33243">
        <ele>51.9</ele>
        <time>2021-05-27T11:38:15Z</time>
      </trkpt>
      <trkpt lat="47.70155" lon="-2.33245">
        <ele>51.5</ele>
        <time>2021-05-27T11:38:16Z</time>
      </trkpt>
      <trkpt lat="47.70154" lon="-2.33246">
        <ele>51.1</ele>
        <time>2021-05-27T11:38:17Z</time>
      </trkpt>
      <trkpt lat="47.70154" lon="-2.3325">
        <ele>50.6</ele>
        <time>2021-05-27T11:38:18Z</time>
      </trkpt>
      <trkpt lat="47.70153" lon="-2.33252">
        <ele>50.3</ele>
        <time>2021-05-27T11:38:19Z</time>
      </trkpt>
      <trkpt lat="47.70153" lon="-2.33255">
        <ele>49.9</ele>
        <time>2021-05-27T11:38:20Z</time>
      </trkpt>
      <trkpt lat="47.70153" lon="-2.33258">
        <ele>49.6</ele>
        <time>2021-05-27T11:38:21Z</time>
      </trkpt>
      <trkpt lat="47.70153" lon="-2.3326">
        <ele>49.2</ele>
        <time>2021-05-27T11:38:22Z</time>
      </trkpt>
      <trkpt lat="47.70151" lon="-2.33261">
        <ele>48.8</ele>
        <time>2021-05-27T11:38:23Z</time>
      </trkpt>
      <trkpt lat="47.7015" lon="-2.33262">
        <ele>48.3</ele>
        <time>2021-05-27T11:38:24Z</time>
      </trkpt>
      <trkpt lat="47.70149" lon="-2.33264">
        <ele>47.9</ele>
        <time>2021-05-27T11:38:25Z</time>
      </trkpt>
      <trkpt lat="47.70148" lon="-2.33265">
        <ele>47.5</ele>
        <time>2021-05-27T11:38:26Z</time>
      </trkpt>
      <trkpt lat="47.70147" lon="-2.33268">
        <ele>47</ele>
        <time>2021-05-27T11:38:27Z</time>
      </trkpt>
      <trkpt lat="47.70146" lon="-2.3327">
        <ele>46.6</ele>
        <time>2021-05-27T11:38:28Z</time>
      </trkpt>
      <trkpt lat="47.70146" lon="-2.33272">
        <ele>46.4</ele>
        <time>2021-05-27T11:38:29Z</time>
      </trkpt>
      <trkpt lat="47.70146" lon="-2.33275">
        <ele>46.2</ele>
        <time>2021-05-27T11:38:30Z</time>
      </trkpt>
      <trkpt lat="47.70147" lon="-2.33275">
        <ele>46.3</ele>
        <time>2021-05-27T11:38:31Z</time>
      </trkpt>
      <trkpt lat="47.70146" lon="-2.33275">
        <ele>46.1</ele>
        <time>2021-05-27T11:38:32Z</time>
      </trkpt>
      <trkpt lat="47.70146" lon="-2.33275">
        <ele>46.1</ele>
        <time>2021-05-27T11:38:33Z</time>
      </trkpt>
      <trkpt lat="47.70146" lon="-2.33275">
        <ele>46.1</ele>
        <time>2021-05-27T11:38:34Z</time>
      </trkpt>
      <trkpt lat="47.70146" lon="-2.33275">
        <ele>46.1</ele>
        <time>2021-05-27T11:38:35Z</time>
      </trkpt>
      <trkpt lat="47.70146" lon="-2.33275">
        <ele>46.1</ele>
        <time>2021-05-27T11:38:36Z</time>
      </trkpt>
      <trkpt lat="47.70146" lon="-2.33275">
        <ele>46.1</ele>
        <time>2021-05-27T11:38:37Z</time>
      </trkpt>
      <trkpt lat="47.70146" lon="-2.33275">
        <ele>46.1</ele>
        <time>2021-05-27T11:38:38Z</time>
      </trkpt>
      <trkpt lat="47.70146" lon="-2.33275">
        <ele>46.1</ele>
        <time>2021-05-27T11:38:39Z</time>
      </trkpt>
      <trkpt lat="47.70146" lon="-2.33275">
        <ele>46.1</ele>
        <time>2021-05-27T11:38:40Z</time>
      </trkpt>
      <trkpt lat="47.70146" lon="-2.33275">
        <ele>46.1</ele>
        <time>2021-05-27T11:38:41Z</time>
      </trkpt>
      <trkpt lat="47.70146" lon="-2.33275">
        <ele>46.1</ele>
        <time>2021-05-27T11:38:42Z</time>
      </trkpt>
      <trkpt lat="47.70146" lon="-2.33275">
        <ele>46.1</ele>
        <time>2021-05-27T11:38:43Z</time>
      </trkpt>
      <trkpt lat="47.70146" lon="-2.33275">
        <ele>46.1</ele>
        <time>2021-05-27T11:38:44Z</time>
      </trkpt>
      <trkpt lat="47.70145" lon="-2.33274">
        <ele>46</ele>
        <time>2021-05-27T11:38:45Z</time>
      </trkpt>
      <trkpt lat="47.70145" lon="-2.33278">
        <ele>45.5</ele>
        <time>2021-05-27T11:38:46Z</time>
      </trkpt>
      <trkpt lat="47.70146" lon="-2.33282">
        <ele>45.4</ele>
        <time>2021-05-27T11:38:47Z</time>
      </trkpt>
      <trkpt lat="47.70148" lon="-2.33285">
        <ele>45.6</ele>
        <time>2021-05-27T11:38:48Z</time>
      </trkpt>
      <trkpt lat="47.70149" lon="-2.3329">
        <ele>45.3</ele>
        <time>2021-05-27T11:38:49Z</time>
      </trkpt>
      <trkpt lat="47.7015" lon="-2.33295">
        <ele>45.1</ele>
        <time>2021-05-27T11:38:50Z</time>
      </trkpt>
      <trkpt lat="47.70151" lon="-2.333">
        <ele>44.8</ele>
        <time>2021-05-27T11:38:51Z</time>
      </trkpt>
      <trkpt lat="47.70153" lon="-2.33305">
        <ele>44.6</ele>
        <time>2021-05-27T11:38:52Z</time>
      </trkpt>
      <trkpt lat="47.70154" lon="-2.33312">
        <ele>44.1</ele>
        <time>2021-05-27T11:38:53Z</time>
      </trkpt>
      <trkpt lat="47.70157" lon="-2.33318">
        <ele>43.9</ele>
        <time>2021-05-27T11:38:54Z</time>
      </trkpt>
      <trkpt lat="47.70158" lon="-2.33322">
        <ele>43.8</ele>
        <time>2021-05-27T11:38:55Z</time>
      </trkpt>
      <trkpt lat="47.7016" lon="-2.33327">
        <ele>43.6</ele>
        <time>2021-05-27T11:38:56Z</time>
      </trkpt>
      <trkpt lat="47.70161" lon="-2.33331">
        <ele>43.4</ele>
        <time>2021-05-27T11:38:57Z</time>
      </trkpt>
      <trkpt lat="47.70164" lon="-2.33336">
        <ele>43.4</ele>
        <time>2021-05-27T11:38:58Z</time>
      </trkpt>
      <trkpt lat="47.70165" lon="-2.3334">
        <ele>43.4</ele>
        <time>2021-05-27T11:38:59Z</time>
      </trkpt>
      <trkpt lat="47.70167" lon="-2.33347">
        <ele>43.3</ele>
        <time>2021-05-27T11:39:00Z</time>
      </trkpt>
      <trkpt lat="47.70168" lon="-2.33352">
        <ele>43.5</ele>
        <time>2021-05-27T11:39:01Z</time>
      </trkpt>
      <trkpt lat="47.7017" lon="-2.33357">
        <ele>43.8</ele>
        <time>2021-05-27T11:39:02Z</time>
      </trkpt>
      <trkpt lat="47.70173" lon="-2.33362">
        <ele>44.1</ele>
        <time>2021-05-27T11:39:03Z</time>
      </trkpt>
      <trkpt lat="47.70176" lon="-2.33367">
        <ele>44.5</ele>
        <time>2021-05-27T11:39:04Z</time>
      </trkpt>
      <trkpt lat="47.70177" lon="-2.33373">
        <ele>44.7</ele>
        <time>2021-05-27T11:39:05Z</time>
      </trkpt>
      <trkpt lat="47.70178" lon="-2.33377">
        <ele>44.8</ele>
        <time>2021-05-27T11:39:06Z</time>
      </trkpt>
      <trkpt lat="47.7018" lon="-2.33382">
        <ele>44.9</ele>
        <time>2021-05-27T11:39:07Z</time>
      </trkpt>
      <trkpt lat="47.70181" lon="-2.33387">
        <ele>44.9</ele>
        <time>2021-05-27T11:39:08Z</time>
      </trkpt>
      <trkpt lat="47.70183" lon="-2.33392">
        <ele>45.1</ele>
        <time>2021-05-27T11:39:09Z</time>
      </trkpt>
      <trkpt lat="47.70184" lon="-2.33396">
        <ele>45.3</ele>
        <time>2021-05-27T11:39:10Z</time>
      </trkpt>
      <trkpt lat="47.70186" lon="-2.33401">
        <ele>45.3</ele>
        <time>2021-05-27T11:39:11Z</time>
      </trkpt>
      <trkpt lat="47.70187" lon="-2.33407">
        <ele>45.4</ele>
        <time>2021-05-27T11:39:12Z</time>
      </trkpt>
      <trkpt lat="47.70189" lon="-2.33412">
        <ele>45.5</ele>
        <time>2021-05-27T11:39:13Z</time>
      </trkpt>
      <trkpt lat="47.70192" lon="-2.33417">
        <ele>46</ele>
        <time>2021-05-27T11:39:14Z</time>
      </trkpt>
      <trkpt lat="47.70193" lon="-2.33424">
        <ele>45.8</ele>
        <time>2021-05-27T11:39:15Z</time>
      </trkpt>
      <trkpt lat="47.70194" lon="-2.33431">
        <ele>45.5</ele>
        <time>2021-05-27T11:39:16Z</time>
      </trkpt>
      <trkpt lat="47.70196" lon="-2.33436">
        <ele>45.3</ele>
        <time>2021-05-27T11:39:17Z</time>
      </trkpt>
      <trkpt lat="47.70197" lon="-2.33442">
        <ele>45.2</ele>
        <time>2021-05-27T11:39:18Z</time>
      </trkpt>
      <trkpt lat="47.70197" lon="-2.33447">
        <ele>44.9</ele>
        <time>2021-05-27T11:39:19Z</time>
      </trkpt>
      <trkpt lat="47.70198" lon="-2.33452">
        <ele>44.7</ele>
        <time>2021-05-27T11:39:20Z</time>
      </trkpt>
      <trkpt lat="47.70199" lon="-2.33458">
        <ele>44.5</ele>
        <time>2021-05-27T11:39:21Z</time>
      </trkpt>
      <trkpt lat="47.702" lon="-2.33464">
        <ele>44</ele>
        <time>2021-05-27T11:39:22Z</time>
      </trkpt>
      <trkpt lat="47.702" lon="-2.33472">
        <ele>43.5</ele>
        <time>2021-05-27T11:39:23Z</time>
      </trkpt>
      <trkpt lat="47.70201" lon="-2.33479">
        <ele>43.1</ele>
        <time>2021-05-27T11:39:24Z</time>
      </trkpt>
      <trkpt lat="47.70202" lon="-2.33487">
        <ele>42.6</ele>
        <time>2021-05-27T11:39:25Z</time>
      </trkpt>
      <trkpt lat="47.70202" lon="-2.33494">
        <ele>42.2</ele>
        <time>2021-05-27T11:39:26Z</time>
      </trkpt>
      <trkpt lat="47.70202" lon="-2.335">
        <ele>41.7</ele>
        <time>2021-05-27T11:39:27Z</time>
      </trkpt>
      <trkpt lat="47.70202" lon="-2.33507">
        <ele>41.3</ele>
        <time>2021-05-27T11:39:28Z</time>
      </trkpt>
      <trkpt lat="47.70202" lon="-2.33514">
        <ele>41</ele>
        <time>2021-05-27T11:39:29Z</time>
      </trkpt>
      <trkpt lat="47.70203" lon="-2.3352">
        <ele>40.8</ele>
        <time>2021-05-27T11:39:30Z</time>
      </trkpt>
      <trkpt lat="47.70202" lon="-2.33525">
        <ele>40.5</ele>
        <time>2021-05-27T11:39:31Z</time>
      </trkpt>
      <trkpt lat="47.70203" lon="-2.33533">
        <ele>40.3</ele>
        <time>2021-05-27T11:39:32Z</time>
      </trkpt>
      <trkpt lat="47.70202" lon="-2.33541">
        <ele>39.7</ele>
        <time>2021-05-27T11:39:33Z</time>
      </trkpt>
      <trkpt lat="47.70201" lon="-2.33551">
        <ele>39.1</ele>
        <time>2021-05-27T11:39:34Z</time>
      </trkpt>
      <trkpt lat="47.702" lon="-2.33559">
        <ele>38.5</ele>
        <time>2021-05-27T11:39:35Z</time>
      </trkpt>
      <trkpt lat="47.702" lon="-2.33567">
        <ele>38.2</ele>
        <time>2021-05-27T11:39:36Z</time>
      </trkpt>
      <trkpt lat="47.702" lon="-2.33575">
        <ele>37.9</ele>
        <time>2021-05-27T11:39:37Z</time>
      </trkpt>
      <trkpt lat="47.702" lon="-2.33582">
        <ele>37.4</ele>
        <time>2021-05-27T11:39:38Z</time>
      </trkpt>
      <trkpt lat="47.702" lon="-2.33592">
        <ele>36.7</ele>
        <time>2021-05-27T11:39:39Z</time>
      </trkpt>
      <trkpt lat="47.702" lon="-2.33603">
        <ele>35.9</ele>
        <time>2021-05-27T11:39:40Z</time>
      </trkpt>
      <trkpt lat="47.702" lon="-2.33613">
        <ele>35.2</ele>
        <time>2021-05-27T11:39:41Z</time>
      </trkpt>
      <trkpt lat="47.702" lon="-2.33624">
        <ele>34.4</ele>
        <time>2021-05-27T11:39:42Z</time>
      </trkpt>
      <trkpt lat="47.702" lon="-2.33633">
        <ele>33.6</ele>
        <time>2021-05-27T11:39:43Z</time>
      </trkpt>
      <trkpt lat="47.70199" lon="-2.3364">
        <ele>32.8</ele>
        <time>2021-05-27T11:39:44Z</time>
      </trkpt>
      <trkpt lat="47.70195" lon="-2.3365">
        <ele>31.6</ele>
        <time>2021-05-27T11:39:45Z</time>
      </trkpt>
      <trkpt lat="47.70192" lon="-2.3366">
        <ele>30.6</ele>
        <time>2021-05-27T11:39:46Z</time>
      </trkpt>
      <trkpt lat="47.7019" lon="-2.33671">
        <ele>29.7</ele>
        <time>2021-05-27T11:39:47Z</time>
      </trkpt>
      <trkpt lat="47.70187" lon="-2.33681">
        <ele>29.3</ele>
        <time>2021-05-27T11:39:48Z</time>
      </trkpt>
      <trkpt lat="47.70185" lon="-2.33692">
        <ele>29</ele>
        <time>2021-05-27T11:39:49Z</time>
      </trkpt>
      <trkpt lat="47.70184" lon="-2.33702">
        <ele>28.9</ele>
        <time>2021-05-27T11:39:50Z</time>
      </trkpt>
      <trkpt lat="47.70182" lon="-2.33714">
        <ele>28.7</ele>
        <time>2021-05-27T11:39:51Z</time>
      </trkpt>
      <trkpt lat="47.70181" lon="-2.33724">
        <ele>28.6</ele>
        <time>2021-05-27T11:39:52Z</time>
      </trkpt>
      <trkpt lat="47.7018" lon="-2.33733">
        <ele>28.5</ele>
        <time>2021-05-27T11:39:53Z</time>
      </trkpt>
      <trkpt lat="47.70179" lon="-2.3374">
        <ele>28.5</ele>
        <time>2021-05-27T11:39:54Z</time>
      </trkpt>
      <trkpt lat="47.70178" lon="-2.33745">
        <ele>28.4</ele>
        <time>2021-05-27T11:39:55Z</time>
      </trkpt>
      <trkpt lat="47.70178" lon="-2.33751">
        <ele>28.4</ele>
        <time>2021-05-27T11:39:56Z</time>
      </trkpt>
      <trkpt lat="47.70176" lon="-2.33754">
        <ele>28.5</ele>
        <time>2021-05-27T11:39:57Z</time>
      </trkpt>
      <trkpt lat="47.70174" lon="-2.33755">
        <ele>28.5</ele>
        <time>2021-05-27T11:39:58Z</time>
      </trkpt>
      <trkpt lat="47.70171" lon="-2.33756">
        <ele>28.4</ele>
        <time>2021-05-27T11:39:59Z</time>
      </trkpt>
      <trkpt lat="47.70168" lon="-2.33757">
        <ele>28.3</ele>
        <time>2021-05-27T11:40:00Z</time>
      </trkpt>
      <trkpt lat="47.70165" lon="-2.33758">
        <ele>28.5</ele>
        <time>2021-05-27T11:40:01Z</time>
      </trkpt>
      <trkpt lat="47.70161" lon="-2.33759">
        <ele>29</ele>
        <time>2021-05-27T11:40:02Z</time>
      </trkpt>
      <trkpt lat="47.70159" lon="-2.3376">
        <ele>29.4</ele>
        <time>2021-05-27T11:40:03Z</time>
      </trkpt>
      <trkpt lat="47.70156" lon="-2.33761">
        <ele>29.8</ele>
        <time>2021-05-27T11:40:04Z</time>
      </trkpt>
      <trkpt lat="47.70154" lon="-2.33758">
        <ele>29.9</ele>
        <time>2021-05-27T11:40:05Z</time>
      </trkpt>
      <trkpt lat="47.7015" lon="-2.3376">
        <ele>30.5</ele>
        <time>2021-05-27T11:40:06Z</time>
      </trkpt>
      <trkpt lat="47.70146" lon="-2.33761">
        <ele>31</ele>
        <time>2021-05-27T11:40:07Z</time>
      </trkpt>
      <trkpt lat="47.70143" lon="-2.33761">
        <ele>31.4</ele>
        <time>2021-05-27T11:40:08Z</time>
      </trkpt>
      <trkpt lat="47.70139" lon="-2.33761">
        <ele>31.9</ele>
        <time>2021-05-27T11:40:09Z</time>
      </trkpt>
      <trkpt lat="47.70135" lon="-2.3376">
        <ele>32.2</ele>
        <time>2021-05-27T11:40:10Z</time>
      </trkpt>
      <trkpt lat="47.70132" lon="-2.33759">
        <ele>32.7</ele>
        <time>2021-05-27T11:40:11Z</time>
      </trkpt>
      <trkpt lat="47.70128" lon="-2.33758">
        <ele>33</ele>
        <time>2021-05-27T11:40:12Z</time>
      </trkpt>
      <trkpt lat="47.70126" lon="-2.33757">
        <ele>33.2</ele>
        <time>2021-05-27T11:40:13Z</time>
      </trkpt>
      <trkpt lat="47.70124" lon="-2.33756">
        <ele>33.5</ele>
        <time>2021-05-27T11:40:14Z</time>
      </trkpt>
      <trkpt lat="47.70121" lon="-2.33755">
        <ele>33.8</ele>
        <time>2021-05-27T11:40:15Z</time>
      </trkpt>
      <trkpt lat="47.7012" lon="-2.33752">
        <ele>33.8</ele>
        <time>2021-05-27T11:40:16Z</time>
      </trkpt>
      <trkpt lat="47.70117" lon="-2.3375">
        <ele>33.9</ele>
        <time>2021-05-27T11:40:17Z</time>
      </trkpt>
      <trkpt lat="47.70115" lon="-2.33748">
        <ele>34.1</ele>
        <time>2021-05-27T11:40:18Z</time>
      </trkpt>
      <trkpt lat="47.70112" lon="-2.33746">
        <ele>34.4</ele>
        <time>2021-05-27T11:40:19Z</time>
      </trkpt>
      <trkpt lat="47.70109" lon="-2.33744">
        <ele>34.7</ele>
        <time>2021-05-27T11:40:20Z</time>
      </trkpt>
      <trkpt lat="47.70106" lon="-2.33742">
        <ele>35</ele>
        <time>2021-05-27T11:40:21Z</time>
      </trkpt>
      <trkpt lat="47.70103" lon="-2.33741">
        <ele>35.3</ele>
        <time>2021-05-27T11:40:22Z</time>
      </trkpt>
      <trkpt lat="47.70098" lon="-2.33739">
        <ele>35.8</ele>
        <time>2021-05-27T11:40:23Z</time>
      </trkpt>
      <trkpt lat="47.70095" lon="-2.33738">
        <ele>36.1</ele>
        <time>2021-05-27T11:40:24Z</time>
      </trkpt>
      <trkpt lat="47.70091" lon="-2.33736">
        <ele>36.4</ele>
        <time>2021-05-27T11:40:25Z</time>
      </trkpt>
      <trkpt lat="47.70089" lon="-2.33735">
        <ele>36.7</ele>
        <time>2021-05-27T11:40:26Z</time>
      </trkpt>
      <trkpt lat="47.70085" lon="-2.33734">
        <ele>37</ele>
        <time>2021-05-27T11:40:27Z</time>
      </trkpt>
      <trkpt lat="47.70082" lon="-2.33733">
        <ele>37.4</ele>
        <time>2021-05-27T11:40:28Z</time>
      </trkpt>
      <trkpt lat="47.7008" lon="-2.33732">
        <ele>37.8</ele>
        <time>2021-05-27T11:40:29Z</time>
      </trkpt>
      <trkpt lat="47.70078" lon="-2.3373">
        <ele>38.3</ele>
        <time>2021-05-27T11:40:30Z</time>
      </trkpt>
      <trkpt lat="47.70075" lon="-2.33728">
        <ele>38.7</ele>
        <time>2021-05-27T11:40:31Z</time>
      </trkpt>
      <trkpt lat="47.70073" lon="-2.33727">
        <ele>39.2</ele>
        <time>2021-05-27T11:40:32Z</time>
      </trkpt>
      <trkpt lat="47.70071" lon="-2.33726">
        <ele>39.6</ele>
        <time>2021-05-27T11:40:33Z</time>
      </trkpt>
      <trkpt lat="47.70068" lon="-2.33725">
        <ele>40</ele>
        <time>2021-05-27T11:40:34Z</time>
      </trkpt>
      <trkpt lat="47.70065" lon="-2.33724">
        <ele>40.5</ele>
        <time>2021-05-27T11:40:35Z</time>
      </trkpt>
      <trkpt lat="47.70062" lon="-2.33723">
        <ele>41.1</ele>
        <time>2021-05-27T11:40:36Z</time>
      </trkpt>
      <trkpt lat="47.70061" lon="-2.3372">
        <ele>41.3</ele>
        <time>2021-05-27T11:40:37Z</time>
      </trkpt>
      <trkpt lat="47.70059" lon="-2.33715">
        <ele>41.3</ele>
        <time>2021-05-27T11:40:38Z</time>
      </trkpt>
      <trkpt lat="47.70058" lon="-2.33713">
        <ele>41.4</ele>
        <time>2021-05-27T11:40:39Z</time>
      </trkpt>
      <trkpt lat="47.70057" lon="-2.33711">
        <ele>41.6</ele>
        <time>2021-05-27T11:40:40Z</time>
      </trkpt>
      <trkpt lat="47.70056" lon="-2.33712">
        <ele>41.7</ele>
        <time>2021-05-27T11:40:41Z</time>
      </trkpt>
      <trkpt lat="47.70057" lon="-2.33713">
        <ele>41.7</ele>
        <time>2021-05-27T11:40:42Z</time>
      </trkpt>
      <trkpt lat="47.70059" lon="-2.33714">
        <ele>41.3</ele>
        <time>2021-05-27T11:40:43Z</time>
      </trkpt>
      <trkpt lat="47.70061" lon="-2.33715">
        <ele>41.1</ele>
        <time>2021-05-27T11:40:44Z</time>
      </trkpt>
      <trkpt lat="47.70062" lon="-2.33718">
        <ele>40.9</ele>
        <time>2021-05-27T11:40:45Z</time>
      </trkpt>
      <trkpt lat="47.70063" lon="-2.33719">
        <ele>40.8</ele>
        <time>2021-05-27T11:40:46Z</time>
      </trkpt>
      <trkpt lat="47.70063" lon="-2.33722">
        <ele>40.9</ele>
        <time>2021-05-27T11:40:47Z</time>
      </trkpt>
      <trkpt lat="47.70064" lon="-2.33724">
        <ele>40.9</ele>
        <time>2021-05-27T11:40:48Z</time>
      </trkpt>
      <trkpt lat="47.70063" lon="-2.33724">
        <ele>41</ele>
        <time>2021-05-27T11:40:49Z</time>
      </trkpt>
      <trkpt lat="47.70062" lon="-2.33721">
        <ele>41.2</ele>
        <time>2021-05-27T11:40:50Z</time>
      </trkpt>
      <trkpt lat="47.7006" lon="-2.33716">
        <ele>41.2</ele>
        <time>2021-05-27T11:40:51Z</time>
      </trkpt>
      <trkpt lat="47.7006" lon="-2.33709">
        <ele>40.9</ele>
        <time>2021-05-27T11:40:52Z</time>
      </trkpt>
      <trkpt lat="47.70058" lon="-2.33705">
        <ele>40.9</ele>
        <time>2021-05-27T11:40:53Z</time>
      </trkpt>
      <trkpt lat="47.70056" lon="-2.33701">
        <ele>41.2</ele>
        <time>2021-05-27T11:40:54Z</time>
      </trkpt>
      <trkpt lat="47.70052" lon="-2.33698">
        <ele>41.7</ele>
        <time>2021-05-27T11:40:55Z</time>
      </trkpt>
      <trkpt lat="47.70049" lon="-2.33695">
        <ele>42.1</ele>
        <time>2021-05-27T11:40:56Z</time>
      </trkpt>
      <trkpt lat="47.70045" lon="-2.33691">
        <ele>42.6</ele>
        <time>2021-05-27T11:40:57Z</time>
      </trkpt>
      <trkpt lat="47.70044" lon="-2.33687">
        <ele>42.5</ele>
        <time>2021-05-27T11:40:58Z</time>
      </trkpt>
      <trkpt lat="47.70043" lon="-2.33684">
        <ele>42.4</ele>
        <time>2021-05-27T11:40:59Z</time>
      </trkpt>
      <trkpt lat="47.70043" lon="-2.3368">
        <ele>42.3</ele>
        <time>2021-05-27T11:41:00Z</time>
      </trkpt>
      <trkpt lat="47.70041" lon="-2.33677">
        <ele>42.3</ele>
        <time>2021-05-27T11:41:01Z</time>
      </trkpt>
      <trkpt lat="47.70038" lon="-2.33674">
        <ele>42.7</ele>
        <time>2021-05-27T11:41:02Z</time>
      </trkpt>
      <trkpt lat="47.70035" lon="-2.33672">
        <ele>43.2</ele>
        <time>2021-05-27T11:41:03Z</time>
      </trkpt>
      <trkpt lat="47.70033" lon="-2.3367">
        <ele>43.3</ele>
        <time>2021-05-27T11:41:04Z</time>
      </trkpt>
      <trkpt lat="47.7003" lon="-2.33668">
        <ele>43.7</ele>
        <time>2021-05-27T11:41:05Z</time>
      </trkpt>
      <trkpt lat="47.70028" lon="-2.33665">
        <ele>43.8</ele>
        <time>2021-05-27T11:41:06Z</time>
      </trkpt>
      <trkpt lat="47.70027" lon="-2.33664">
        <ele>43.9</ele>
        <time>2021-05-27T11:41:07Z</time>
      </trkpt>
      <trkpt lat="47.70026" lon="-2.33661">
        <ele>44</ele>
        <time>2021-05-27T11:41:08Z</time>
      </trkpt>
      <trkpt lat="47.70025" lon="-2.33658">
        <ele>43.9</ele>
        <time>2021-05-27T11:41:09Z</time>
      </trkpt>
      <trkpt lat="47.70022" lon="-2.33655">
        <ele>44.2</ele>
        <time>2021-05-27T11:41:10Z</time>
      </trkpt>
      <trkpt lat="47.70021" lon="-2.33652">
        <ele>44.3</ele>
        <time>2021-05-27T11:41:11Z</time>
      </trkpt>
      <trkpt lat="47.70019" lon="-2.33649">
        <ele>44.5</ele>
        <time>2021-05-27T11:41:12Z</time>
      </trkpt>
      <trkpt lat="47.70017" lon="-2.33646">
        <ele>44.5</ele>
        <time>2021-05-27T11:41:13Z</time>
      </trkpt>
      <trkpt lat="47.70015" lon="-2.33642">
        <ele>44.6</ele>
        <time>2021-05-27T11:41:14Z</time>
      </trkpt>
      <trkpt lat="47.70015" lon="-2.33639">
        <ele>44.5</ele>
        <time>2021-05-27T11:41:15Z</time>
      </trkpt>
      <trkpt lat="47.70014" lon="-2.33635">
        <ele>44.4</ele>
        <time>2021-05-27T11:41:16Z</time>
      </trkpt>
      <trkpt lat="47.70013" lon="-2.33632">
        <ele>44.4</ele>
        <time>2021-05-27T11:41:17Z</time>
      </trkpt>
      <trkpt lat="47.70011" lon="-2.33629">
        <ele>44.5</ele>
        <time>2021-05-27T11:41:18Z</time>
      </trkpt>
      <trkpt lat="47.70009" lon="-2.33626">
        <ele>44.6</ele>
        <time>2021-05-27T11:41:19Z</time>
      </trkpt>
      <trkpt lat="47.70008" lon="-2.33624">
        <ele>44.6</ele>
        <time>2021-05-27T11:41:20Z</time>
      </trkpt>
      <trkpt lat="47.70007" lon="-2.33622">
        <ele>44.6</ele>
        <time>2021-05-27T11:41:21Z</time>
      </trkpt>
      <trkpt lat="47.70006" lon="-2.3362">
        <ele>44.7</ele>
        <time>2021-05-27T11:41:22Z</time>
      </trkpt>
      <trkpt lat="47.70005" lon="-2.33619">
        <ele>44.8</ele>
        <time>2021-05-27T11:41:23Z</time>
      </trkpt>
      <trkpt lat="47.70004" lon="-2.33618">
        <ele>44.8</ele>
        <time>2021-05-27T11:41:24Z</time>
      </trkpt>
      <trkpt lat="47.70003" lon="-2.33616">
        <ele>44.9</ele>
        <time>2021-05-27T11:41:25Z</time>
      </trkpt>
      <trkpt lat="47.70003" lon="-2.33615">
        <ele>44.8</ele>
        <time>2021-05-27T11:41:26Z</time>
      </trkpt>
      <trkpt lat="47.70002" lon="-2.33613">
        <ele>44.8</ele>
        <time>2021-05-27T11:41:27Z</time>
      </trkpt>
      <trkpt lat="47.70001" lon="-2.33612">
        <ele>44.9</ele>
        <time>2021-05-27T11:41:28Z</time>
      </trkpt>
      <trkpt lat="47.7" lon="-2.3361">
        <ele>44.9</ele>
        <time>2021-05-27T11:41:29Z</time>
      </trkpt>
      <trkpt lat="47.69999" lon="-2.33608">
        <ele>44.8</ele>
        <time>2021-05-27T11:41:30Z</time>
      </trkpt>
      <trkpt lat="47.69997" lon="-2.33606">
        <ele>44.8</ele>
        <time>2021-05-27T11:41:31Z</time>
      </trkpt>
      <trkpt lat="47.69995" lon="-2.33604">
        <ele>44.9</ele>
        <time>2021-05-27T11:41:32Z</time>
      </trkpt>
      <trkpt lat="47.69992" lon="-2.33601">
        <ele>45</ele>
        <time>2021-05-27T11:41:33Z</time>
      </trkpt>
      <trkpt lat="47.6999" lon="-2.33599">
        <ele>45</ele>
        <time>2021-05-27T11:41:34Z</time>
      </trkpt>
      <trkpt lat="47.69987" lon="-2.33597">
        <ele>45.1</ele>
        <time>2021-05-27T11:41:35Z</time>
      </trkpt>
      <trkpt lat="47.69986" lon="-2.33596">
        <ele>45.2</ele>
        <time>2021-05-27T11:41:36Z</time>
      </trkpt>
      <trkpt lat="47.69984" lon="-2.33594">
        <ele>45.2</ele>
        <time>2021-05-27T11:41:37Z</time>
      </trkpt>
      <trkpt lat="47.69981" lon="-2.33593">
        <ele>45.4</ele>
        <time>2021-05-27T11:41:38Z</time>
      </trkpt>
      <trkpt lat="47.69978" lon="-2.33592">
        <ele>45.7</ele>
        <time>2021-05-27T11:41:39Z</time>
      </trkpt>
      <trkpt lat="47.69975" lon="-2.33593">
        <ele>45.9</ele>
        <time>2021-05-27T11:41:40Z</time>
      </trkpt>
      <trkpt lat="47.69972" lon="-2.33593">
        <ele>46.3</ele>
        <time>2021-05-27T11:41:41Z</time>
      </trkpt>
      <trkpt lat="47.69969" lon="-2.33591">
        <ele>46.4</ele>
        <time>2021-05-27T11:41:42Z</time>
      </trkpt>
      <trkpt lat="47.69967" lon="-2.3359">
        <ele>46.5</ele>
        <time>2021-05-27T11:41:43Z</time>
      </trkpt>
      <trkpt lat="47.69966" lon="-2.3359">
        <ele>46.6</ele>
        <time>2021-05-27T11:41:44Z</time>
      </trkpt>
      <trkpt lat="47.69964" lon="-2.33589">
        <ele>46.8</ele>
        <time>2021-05-27T11:41:45Z</time>
      </trkpt>
      <trkpt lat="47.69962" lon="-2.33589">
        <ele>46.9</ele>
        <time>2021-05-27T11:41:46Z</time>
      </trkpt>
      <trkpt lat="47.69962" lon="-2.33588">
        <ele>46.9</ele>
        <time>2021-05-27T11:41:47Z</time>
      </trkpt>
      <trkpt lat="47.69961" lon="-2.33589">
        <ele>47</ele>
        <time>2021-05-27T11:41:48Z</time>
      </trkpt>
      <trkpt lat="47.69962" lon="-2.33594">
        <ele>47.2</ele>
        <time>2021-05-27T11:41:49Z</time>
      </trkpt>
      <trkpt lat="47.69961" lon="-2.33597">
        <ele>47.4</ele>
        <time>2021-05-27T11:41:50Z</time>
      </trkpt>
      <trkpt lat="47.6996" lon="-2.33601">
        <ele>47.7</ele>
        <time>2021-05-27T11:41:51Z</time>
      </trkpt>
      <trkpt lat="47.6996" lon="-2.33605">
        <ele>47.9</ele>
        <time>2021-05-27T11:41:52Z</time>
      </trkpt>
      <trkpt lat="47.6996" lon="-2.33608">
        <ele>48</ele>
        <time>2021-05-27T11:41:53Z</time>
      </trkpt>
      <trkpt lat="47.69955" lon="-2.3361">
        <ele>48.5</ele>
        <time>2021-05-27T11:41:54Z</time>
      </trkpt>
      <trkpt lat="47.69954" lon="-2.33613">
        <ele>48.7</ele>
        <time>2021-05-27T11:41:55Z</time>
      </trkpt>
      <trkpt lat="47.69954" lon="-2.33616">
        <ele>48.9</ele>
        <time>2021-05-27T11:41:56Z</time>
      </trkpt>
      <trkpt lat="47.69954" lon="-2.33619">
        <ele>49.1</ele>
        <time>2021-05-27T11:41:57Z</time>
      </trkpt>
      <trkpt lat="47.69954" lon="-2.33622">
        <ele>49.2</ele>
        <time>2021-05-27T11:41:58Z</time>
      </trkpt>
      <trkpt lat="47.69954" lon="-2.33627">
        <ele>49.4</ele>
        <time>2021-05-27T11:41:59Z</time>
      </trkpt>
      <trkpt lat="47.69954" lon="-2.33631">
        <ele>49.6</ele>
        <time>2021-05-27T11:42:00Z</time>
      </trkpt>
      <trkpt lat="47.69953" lon="-2.33635">
        <ele>49.8</ele>
        <time>2021-05-27T11:42:01Z</time>
      </trkpt>
      <trkpt lat="47.69953" lon="-2.33639">
        <ele>50</ele>
        <time>2021-05-27T11:42:02Z</time>
      </trkpt>
      <trkpt lat="47.69952" lon="-2.33643">
        <ele>50.3</ele>
        <time>2021-05-27T11:42:03Z</time>
      </trkpt>
      <trkpt lat="47.69951" lon="-2.33646">
        <ele>50.4</ele>
        <time>2021-05-27T11:42:04Z</time>
      </trkpt>
      <trkpt lat="47.6995" lon="-2.33649">
        <ele>50.6</ele>
        <time>2021-05-27T11:42:05Z</time>
      </trkpt>
      <trkpt lat="47.69949" lon="-2.33653">
        <ele>50.9</ele>
        <time>2021-05-27T11:42:06Z</time>
      </trkpt>
      <trkpt lat="47.69949" lon="-2.33658">
        <ele>51.1</ele>
        <time>2021-05-27T11:42:07Z</time>
      </trkpt>
      <trkpt lat="47.69947" lon="-2.33662">
        <ele>51.4</ele>
        <time>2021-05-27T11:42:08Z</time>
      </trkpt>
      <trkpt lat="47.69947" lon="-2.33667">
        <ele>51.6</ele>
        <time>2021-05-27T11:42:09Z</time>
      </trkpt>
      <trkpt lat="47.69947" lon="-2.33671">
        <ele>51.9</ele>
        <time>2021-05-27T11:42:10Z</time>
      </trkpt>
      <trkpt lat="47.69947" lon="-2.33677">
        <ele>52.2</ele>
        <time>2021-05-27T11:42:11Z</time>
      </trkpt>
      <trkpt lat="47.69947" lon="-2.33681">
        <ele>52.5</ele>
        <time>2021-05-27T11:42:12Z</time>
      </trkpt>
      <trkpt lat="47.69948" lon="-2.33685">
        <ele>52.7</ele>
        <time>2021-05-27T11:42:13Z</time>
      </trkpt>
      <trkpt lat="47.69948" lon="-2.3369">
        <ele>53</ele>
        <time>2021-05-27T11:42:14Z</time>
      </trkpt>
      <trkpt lat="47.69948" lon="-2.33693">
        <ele>53.3</ele>
        <time>2021-05-27T11:42:15Z</time>
      </trkpt>
      <trkpt lat="47.69948" lon="-2.33697">
        <ele>53.5</ele>
        <time>2021-05-27T11:42:16Z</time>
      </trkpt>
      <trkpt lat="47.69948" lon="-2.33701">
        <ele>53.8</ele>
        <time>2021-05-27T11:42:17Z</time>
      </trkpt>
      <trkpt lat="47.69949" lon="-2.33706">
        <ele>54.1</ele>
        <time>2021-05-27T11:42:18Z</time>
      </trkpt>
      <trkpt lat="47.69953" lon="-2.33711">
        <ele>54.3</ele>
        <time>2021-05-27T11:42:19Z</time>
      </trkpt>
      <trkpt lat="47.69951" lon="-2.33715">
        <ele>54.6</ele>
        <time>2021-05-27T11:42:20Z</time>
      </trkpt>
      <trkpt lat="47.69949" lon="-2.33719">
        <ele>54.9</ele>
        <time>2021-05-27T11:42:21Z</time>
      </trkpt>
      <trkpt lat="47.69947" lon="-2.33723">
        <ele>55.2</ele>
        <time>2021-05-27T11:42:22Z</time>
      </trkpt>
      <trkpt lat="47.69945" lon="-2.33727">
        <ele>55.5</ele>
        <time>2021-05-27T11:42:23Z</time>
      </trkpt>
      <trkpt lat="47.69942" lon="-2.33731">
        <ele>55.8</ele>
        <time>2021-05-27T11:42:24Z</time>
      </trkpt>
      <trkpt lat="47.6994" lon="-2.33735">
        <ele>56.1</ele>
        <time>2021-05-27T11:42:25Z</time>
      </trkpt>
      <trkpt lat="47.69937" lon="-2.33738">
        <ele>56.3</ele>
        <time>2021-05-27T11:42:26Z</time>
      </trkpt>
      <trkpt lat="47.69934" lon="-2.33741">
        <ele>56.5</ele>
        <time>2021-05-27T11:42:27Z</time>
      </trkpt>
      <trkpt lat="47.69932" lon="-2.33745">
        <ele>56.7</ele>
        <time>2021-05-27T11:42:28Z</time>
      </trkpt>
      <trkpt lat="47.69929" lon="-2.33749">
        <ele>56.9</ele>
        <time>2021-05-27T11:42:29Z</time>
      </trkpt>
      <trkpt lat="47.69926" lon="-2.33752">
        <ele>57.1</ele>
        <time>2021-05-27T11:42:30Z</time>
      </trkpt>
      <trkpt lat="47.69925" lon="-2.33759">
        <ele>57.3</ele>
        <time>2021-05-27T11:42:31Z</time>
      </trkpt>
      <trkpt lat="47.6992" lon="-2.33765">
        <ele>57.4</ele>
        <time>2021-05-27T11:42:32Z</time>
      </trkpt>
      <trkpt lat="47.69918" lon="-2.3377">
        <ele>57.5</ele>
        <time>2021-05-27T11:42:33Z</time>
      </trkpt>
      <trkpt lat="47.69916" lon="-2.33775">
        <ele>57.5</ele>
        <time>2021-05-27T11:42:34Z</time>
      </trkpt>
      <trkpt lat="47.69915" lon="-2.3378">
        <ele>57.4</ele>
        <time>2021-05-27T11:42:35Z</time>
      </trkpt>
      <trkpt lat="47.69914" lon="-2.33784">
        <ele>57.4</ele>
        <time>2021-05-27T11:42:36Z</time>
      </trkpt>
      <trkpt lat="47.69914" lon="-2.3379">
        <ele>57.5</ele>
        <time>2021-05-27T11:42:37Z</time>
      </trkpt>
      <trkpt lat="47.69914" lon="-2.33795">
        <ele>57.6</ele>
        <time>2021-05-27T11:42:38Z</time>
      </trkpt>
      <trkpt lat="47.69914" lon="-2.338">
        <ele>57.7</ele>
        <time>2021-05-27T11:42:39Z</time>
      </trkpt>
      <trkpt lat="47.69914" lon="-2.33806">
        <ele>57.8</ele>
        <time>2021-05-27T11:42:40Z</time>
      </trkpt>
      <trkpt lat="47.69914" lon="-2.33812">
        <ele>58.1</ele>
        <time>2021-05-27T11:42:41Z</time>
      </trkpt>
      <trkpt lat="47.69913" lon="-2.33819">
        <ele>58</ele>
        <time>2021-05-27T11:42:42Z</time>
      </trkpt>
      <trkpt lat="47.69912" lon="-2.33825">
        <ele>58</ele>
        <time>2021-05-27T11:42:43Z</time>
      </trkpt>
      <trkpt lat="47.69911" lon="-2.33831">
        <ele>58</ele>
        <time>2021-05-27T11:42:44Z</time>
      </trkpt>
      <trkpt lat="47.69911" lon="-2.33836">
        <ele>58.1</ele>
        <time>2021-05-27T11:42:45Z</time>
      </trkpt>
      <trkpt lat="47.69911" lon="-2.33841">
        <ele>58.3</ele>
        <time>2021-05-27T11:42:46Z</time>
      </trkpt>
      <trkpt lat="47.69911" lon="-2.33846">
        <ele>58.4</ele>
        <time>2021-05-27T11:42:47Z</time>
      </trkpt>
      <trkpt lat="47.6991" lon="-2.3385">
        <ele>58.4</ele>
        <time>2021-05-27T11:42:48Z</time>
      </trkpt>
      <trkpt lat="47.6991" lon="-2.33855">
        <ele>58.5</ele>
        <time>2021-05-27T11:42:49Z</time>
      </trkpt>
      <trkpt lat="47.69908" lon="-2.33859">
        <ele>58.4</ele>
        <time>2021-05-27T11:42:50Z</time>
      </trkpt>
      <trkpt lat="47.69906" lon="-2.33864">
        <ele>58.2</ele>
        <time>2021-05-27T11:42:51Z</time>
      </trkpt>
      <trkpt lat="47.69903" lon="-2.33869">
        <ele>57.8</ele>
        <time>2021-05-27T11:42:52Z</time>
      </trkpt>
      <trkpt lat="47.69901" lon="-2.33873">
        <ele>57.7</ele>
        <time>2021-05-27T11:42:53Z</time>
      </trkpt>
      <trkpt lat="47.69899" lon="-2.33877">
        <ele>57.5</ele>
        <time>2021-05-27T11:42:54Z</time>
      </trkpt>
      <trkpt lat="47.69898" lon="-2.33881">
        <ele>57.4</ele>
        <time>2021-05-27T11:42:55Z</time>
      </trkpt>
      <trkpt lat="47.69897" lon="-2.33885">
        <ele>57.5</ele>
        <time>2021-05-27T11:42:56Z</time>
      </trkpt>
      <trkpt lat="47.69896" lon="-2.3389">
        <ele>57.5</ele>
        <time>2021-05-27T11:42:57Z</time>
      </trkpt>
      <trkpt lat="47.69896" lon="-2.33896">
        <ele>57.7</ele>
        <time>2021-05-27T11:42:58Z</time>
      </trkpt>
      <trkpt lat="47.69895" lon="-2.33902">
        <ele>57.7</ele>
        <time>2021-05-27T11:42:59Z</time>
      </trkpt>
      <trkpt lat="47.69894" lon="-2.33906">
        <ele>57.8</ele>
        <time>2021-05-27T11:43:00Z</time>
      </trkpt>
      <trkpt lat="47.69893" lon="-2.33912">
        <ele>57.9</ele>
        <time>2021-05-27T11:43:01Z</time>
      </trkpt>
      <trkpt lat="47.69893" lon="-2.33918">
        <ele>58.1</ele>
        <time>2021-05-27T11:43:02Z</time>
      </trkpt>
      <trkpt lat="47.69892" lon="-2.33925">
        <ele>58.3</ele>
        <time>2021-05-27T11:43:03Z</time>
      </trkpt>
      <trkpt lat="47.6989" lon="-2.33931">
        <ele>58.3</ele>
        <time>2021-05-27T11:43:04Z</time>
      </trkpt>
      <trkpt lat="47.69889" lon="-2.33937">
        <ele>58.4</ele>
        <time>2021-05-27T11:43:05Z</time>
      </trkpt>
      <trkpt lat="47.69891" lon="-2.33947">
        <ele>59.2</ele>
        <time>2021-05-27T11:43:06Z</time>
      </trkpt>
      <trkpt lat="47.69889" lon="-2.33954">
        <ele>59.3</ele>
        <time>2021-05-27T11:43:07Z</time>
      </trkpt>
      <trkpt lat="47.69887" lon="-2.3396">
        <ele>59.2</ele>
        <time>2021-05-27T11:43:08Z</time>
      </trkpt>
      <trkpt lat="47.69886" lon="-2.33966">
        <ele>59.3</ele>
        <time>2021-05-27T11:43:09Z</time>
      </trkpt>
      <trkpt lat="47.69884" lon="-2.33971">
        <ele>59.2</ele>
        <time>2021-05-27T11:43:10Z</time>
      </trkpt>
      <trkpt lat="47.69882" lon="-2.33976">
        <ele>59.2</ele>
        <time>2021-05-27T11:43:11Z</time>
      </trkpt>
      <trkpt lat="47.69881" lon="-2.33979">
        <ele>59</ele>
        <time>2021-05-27T11:43:12Z</time>
      </trkpt>
      <trkpt lat="47.69879" lon="-2.3398">
        <ele>58.7</ele>
        <time>2021-05-27T11:43:13Z</time>
      </trkpt>
      <trkpt lat="47.69878" lon="-2.33981">
        <ele>58.6</ele>
        <time>2021-05-27T11:43:14Z</time>
      </trkpt>
      <trkpt lat="47.69875" lon="-2.33981">
        <ele>58.2</ele>
        <time>2021-05-27T11:43:15Z</time>
      </trkpt>
      <trkpt lat="47.69873" lon="-2.33981">
        <ele>57.7</ele>
        <time>2021-05-27T11:43:16Z</time>
      </trkpt>
      <trkpt lat="47.6987" lon="-2.3398">
        <ele>57.2</ele>
        <time>2021-05-27T11:43:17Z</time>
      </trkpt>
      <trkpt lat="47.69868" lon="-2.3398">
        <ele>56.7</ele>
        <time>2021-05-27T11:43:18Z</time>
      </trkpt>
      <trkpt lat="47.69863" lon="-2.33981">
        <ele>55.8</ele>
        <time>2021-05-27T11:43:19Z</time>
      </trkpt>
      <trkpt lat="47.69861" lon="-2.33982">
        <ele>55.4</ele>
        <time>2021-05-27T11:43:20Z</time>
      </trkpt>
      <trkpt lat="47.69858" lon="-2.33983">
        <ele>55</ele>
        <time>2021-05-27T11:43:21Z</time>
      </trkpt>
      <trkpt lat="47.69857" lon="-2.33983">
        <ele>54.7</ele>
        <time>2021-05-27T11:43:22Z</time>
      </trkpt>
      <trkpt lat="47.69856" lon="-2.33985">
        <ele>54.7</ele>
        <time>2021-05-27T11:43:23Z</time>
      </trkpt>
      <trkpt lat="47.69855" lon="-2.33989">
        <ele>54.8</ele>
        <time>2021-05-27T11:43:24Z</time>
      </trkpt>
      <trkpt lat="47.69855" lon="-2.33993">
        <ele>54.9</ele>
        <time>2021-05-27T11:43:25Z</time>
      </trkpt>
      <trkpt lat="47.69854" lon="-2.33999">
        <ele>55</ele>
        <time>2021-05-27T11:43:26Z</time>
      </trkpt>
      <trkpt lat="47.69854" lon="-2.34005">
        <ele>54.9</ele>
        <time>2021-05-27T11:43:27Z</time>
      </trkpt>
      <trkpt lat="47.69853" lon="-2.3401">
        <ele>54.9</ele>
        <time>2021-05-27T11:43:28Z</time>
      </trkpt>
      <trkpt lat="47.69852" lon="-2.34014">
        <ele>54.8</ele>
        <time>2021-05-27T11:43:29Z</time>
      </trkpt>
      <trkpt lat="47.69852" lon="-2.34017">
        <ele>54.7</ele>
        <time>2021-05-27T11:43:30Z</time>
      </trkpt>
      <trkpt lat="47.69851" lon="-2.34021">
        <ele>54.7</ele>
        <time>2021-05-27T11:43:31Z</time>
      </trkpt>
      <trkpt lat="47.6985" lon="-2.34026">
        <ele>54.5</ele>
        <time>2021-05-27T11:43:32Z</time>
      </trkpt>
      <trkpt lat="47.69848" lon="-2.34031">
        <ele>54.4</ele>
        <time>2021-05-27T11:43:33Z</time>
      </trkpt>
      <trkpt lat="47.69847" lon="-2.34036">
        <ele>54.2</ele>
        <time>2021-05-27T11:43:34Z</time>
      </trkpt>
      <trkpt lat="47.69846" lon="-2.34041">
        <ele>53.9</ele>
        <time>2021-05-27T11:43:35Z</time>
      </trkpt>
      <trkpt lat="47.69844" lon="-2.34046">
        <ele>53.7</ele>
        <time>2021-05-27T11:43:36Z</time>
      </trkpt>
      <trkpt lat="47.69844" lon="-2.3405">
        <ele>53.6</ele>
        <time>2021-05-27T11:43:37Z</time>
      </trkpt>
      <trkpt lat="47.69844" lon="-2.34054">
        <ele>53.7</ele>
        <time>2021-05-27T11:43:38Z</time>
      </trkpt>
      <trkpt lat="47.69844" lon="-2.34057">
        <ele>53.8</ele>
        <time>2021-05-27T11:43:39Z</time>
      </trkpt>
      <trkpt lat="47.69845" lon="-2.3406">
        <ele>54</ele>
        <time>2021-05-27T11:43:40Z</time>
      </trkpt>
      <trkpt lat="47.69846" lon="-2.34062">
        <ele>54.2</ele>
        <time>2021-05-27T11:43:41Z</time>
      </trkpt>
      <trkpt lat="47.69846" lon="-2.34064">
        <ele>54.4</ele>
        <time>2021-05-27T11:43:42Z</time>
      </trkpt>
      <trkpt lat="47.69847" lon="-2.34065">
        <ele>54.5</ele>
        <time>2021-05-27T11:43:43Z</time>
      </trkpt>
      <trkpt lat="47.69847" lon="-2.34065">
        <ele>54.5</ele>
        <time>2021-05-27T11:43:44Z</time>
      </trkpt>
      <trkpt lat="47.69847" lon="-2.34065">
        <ele>54.5</ele>
        <time>2021-05-27T11:43:45Z</time>
      </trkpt>
      <trkpt lat="47.69847" lon="-2.34065">
        <ele>54.5</ele>
        <time>2021-05-27T11:43:46Z</time>
      </trkpt>
      <trkpt lat="47.69847" lon="-2.34065">
        <ele>54.5</ele>
        <time>2021-05-27T11:43:47Z</time>
      </trkpt>
      <trkpt lat="47.69847" lon="-2.34065">
        <ele>54.5</ele>
        <time>2021-05-27T11:43:48Z</time>
      </trkpt>
      <trkpt lat="47.69847" lon="-2.34065">
        <ele>54.5</ele>
        <time>2021-05-27T11:43:49Z</time>
      </trkpt>
      <trkpt lat="47.69847" lon="-2.34065">
        <ele>54.5</ele>
        <time>2021-05-27T11:43:50Z</time>
      </trkpt>
      <trkpt lat="47.69847" lon="-2.34065">
        <ele>54.5</ele>
        <time>2021-05-27T11:43:51Z</time>
      </trkpt>
      <trkpt lat="47.69847" lon="-2.34065">
        <ele>54.5</ele>
        <time>2021-05-27T11:43:52Z</time>
      </trkpt>
      <trkpt lat="47.69847" lon="-2.34065">
        <ele>54.5</ele>
        <time>2021-05-27T11:43:53Z</time>
      </trkpt>
      <trkpt lat="47.69847" lon="-2.34065">
        <ele>54.5</ele>
        <time>2021-05-27T11:43:54Z</time>
      </trkpt>
      <trkpt lat="47.69847" lon="-2.34065">
        <ele>54.5</ele>
        <time>2021-05-27T11:43:55Z</time>
      </trkpt>
      <trkpt lat="47.69847" lon="-2.34065">
        <ele>54.5</ele>
        <time>2021-05-27T11:43:56Z</time>
      </trkpt>
      <trkpt lat="47.69847" lon="-2.34065">
        <ele>54.5</ele>
        <time>2021-05-27T11:43:57Z</time>
      </trkpt>
      <trkpt lat="47.69847" lon="-2.34065">
        <ele>54.5</ele>
        <time>2021-05-27T11:43:58Z</time>
      </trkpt>
      <trkpt lat="47.69847" lon="-2.34065">
        <ele>54.5</ele>
        <time>2021-05-27T11:43:59Z</time>
      </trkpt>
      <trkpt lat="47.69847" lon="-2.34065">
        <ele>54.5</ele>
        <time>2021-05-27T11:44:00Z</time>
      </trkpt>
      <trkpt lat="47.69847" lon="-2.34065">
        <ele>54.5</ele>
        <time>2021-05-27T11:44:01Z</time>
      </trkpt>
      <trkpt lat="47.69847" lon="-2.34065">
        <ele>54.5</ele>
        <time>2021-05-27T11:44:02Z</time>
      </trkpt>
      <trkpt lat="47.69847" lon="-2.34065">
        <ele>54.5</ele>
        <time>2021-05-27T11:44:03Z</time>
      </trkpt>
      <trkpt lat="47.69847" lon="-2.34065">
        <ele>54.5</ele>
        <time>2021-05-27T11:44:04Z</time>
      </trkpt>
      <trkpt lat="47.69847" lon="-2.34065">
        <ele>54.5</ele>
        <time>2021-05-27T11:44:05Z</time>
      </trkpt>
      <trkpt lat="47.69847" lon="-2.34065">
        <ele>54.5</ele>
        <time>2021-05-27T11:44:06Z</time>
      </trkpt>
      <trkpt lat="47.69847" lon="-2.34065">
        <ele>54.5</ele>
        <time>2021-05-27T11:44:07Z</time>
      </trkpt>
      <trkpt lat="47.69847" lon="-2.34065">
        <ele>54.5</ele>
        <time>2021-05-27T11:44:08Z</time>
      </trkpt>
      <trkpt lat="47.69847" lon="-2.34065">
        <ele>54.5</ele>
        <time>2021-05-27T11:44:09Z</time>
      </trkpt>
      <trkpt lat="47.69847" lon="-2.34065">
        <ele>54.5</ele>
        <time>2021-05-27T11:44:10Z</time>
      </trkpt>
      <trkpt lat="47.69847" lon="-2.34065">
        <ele>54.5</ele>
        <time>2021-05-27T11:44:11Z</time>
      </trkpt>
      <trkpt lat="47.69847" lon="-2.34065">
        <ele>54.5</ele>
        <time>2021-05-27T11:44:12Z</time>
      </trkpt>
      <trkpt lat="47.69847" lon="-2.34065">
        <ele>54.5</ele>
        <time>2021-05-27T11:44:13Z</time>
      </trkpt>
      <trkpt lat="47.69847" lon="-2.34065">
        <ele>54.5</ele>
        <time>2021-05-27T11:44:14Z</time>
      </trkpt>
      <trkpt lat="47.69847" lon="-2.34065">
        <ele>54.5</ele>
        <time>2021-05-27T11:44:15Z</time>
      </trkpt>
      <trkpt lat="47.69847" lon="-2.34065">
        <ele>54.5</ele>
        <time>2021-05-27T11:44:16Z</time>
      </trkpt>
      <trkpt lat="47.6985" lon="-2.34061">
        <ele>55.1</ele>
        <time>2021-05-27T11:44:17Z</time>
      </trkpt>
      <trkpt lat="47.69852" lon="-2.34059">
        <ele>55.4</ele>
        <time>2021-05-27T11:44:18Z</time>
      </trkpt>
      <trkpt lat="47.69853" lon="-2.34055">
        <ele>55.6</ele>
        <time>2021-05-27T11:44:19Z</time>
      </trkpt>
      <trkpt lat="47.69855" lon="-2.34052">
        <ele>55.8</ele>
        <time>2021-05-27T11:44:20Z</time>
      </trkpt>
      <trkpt lat="47.69857" lon="-2.34049">
        <ele>56.2</ele>
        <time>2021-05-27T11:44:21Z</time>
      </trkpt>
      <trkpt lat="47.69859" lon="-2.34048">
        <ele>56.7</ele>
        <time>2021-05-27T11:44:22Z</time>
      </trkpt>
      <trkpt lat="47.69862" lon="-2.34047">
        <ele>57.2</ele>
        <time>2021-05-27T11:44:23Z</time>
      </trkpt>
      <trkpt lat="47.69864" lon="-2.34049">
        <ele>57.7</ele>
        <time>2021-05-27T11:44:24Z</time>
      </trkpt>
      <trkpt lat="47.69865" lon="-2.34051">
        <ele>58</ele>
        <time>2021-05-27T11:44:25Z</time>
      </trkpt>
      <trkpt lat="47.69866" lon="-2.34056">
        <ele>58.2</ele>
        <time>2021-05-27T11:44:26Z</time>
      </trkpt>
      <trkpt lat="47.69867" lon="-2.34061">
        <ele>58.4</ele>
        <time>2021-05-27T11:44:27Z</time>
      </trkpt>
      <trkpt lat="47.69867" lon="-2.34066">
        <ele>58.5</ele>
        <time>2021-05-27T11:44:28Z</time>
      </trkpt>
      <trkpt lat="47.69867" lon="-2.3407">
        <ele>58.5</ele>
        <time>2021-05-27T11:44:29Z</time>
      </trkpt>
      <trkpt lat="47.69866" lon="-2.34074">
        <ele>58.5</ele>
        <time>2021-05-27T11:44:30Z</time>
      </trkpt>
      <trkpt lat="47.69866" lon="-2.34079">
        <ele>58.5</ele>
        <time>2021-05-27T11:44:31Z</time>
      </trkpt>
      <trkpt lat="47.69865" lon="-2.34084">
        <ele>58.5</ele>
        <time>2021-05-27T11:44:32Z</time>
      </trkpt>
      <trkpt lat="47.69865" lon="-2.34089">
        <ele>58.7</ele>
        <time>2021-05-27T11:44:33Z</time>
      </trkpt>
      <trkpt lat="47.69864" lon="-2.34092">
        <ele>58.6</ele>
        <time>2021-05-27T11:44:34Z</time>
      </trkpt>
      <trkpt lat="47.69864" lon="-2.34096">
        <ele>58.8</ele>
        <time>2021-05-27T11:44:35Z</time>
      </trkpt>
      <trkpt lat="47.69865" lon="-2.341">
        <ele>59</ele>
        <time>2021-05-27T11:44:36Z</time>
      </trkpt>
      <trkpt lat="47.69865" lon="-2.34105">
        <ele>59.3</ele>
        <time>2021-05-27T11:44:37Z</time>
      </trkpt>
      <trkpt lat="47.69865" lon="-2.34111">
        <ele>59.6</ele>
        <time>2021-05-27T11:44:38Z</time>
      </trkpt>
      <trkpt lat="47.69866" lon="-2.34116">
        <ele>59.9</ele>
        <time>2021-05-27T11:44:39Z</time>
      </trkpt>
      <trkpt lat="47.69867" lon="-2.34122">
        <ele>60.5</ele>
        <time>2021-05-27T11:44:40Z</time>
      </trkpt>
      <trkpt lat="47.69868" lon="-2.34128">
        <ele>61</ele>
        <time>2021-05-27T11:44:41Z</time>
      </trkpt>
      <trkpt lat="47.6987" lon="-2.34134">
        <ele>61.6</ele>
        <time>2021-05-27T11:44:42Z</time>
      </trkpt>
      <trkpt lat="47.69871" lon="-2.34139">
        <ele>62.1</ele>
        <time>2021-05-27T11:44:43Z</time>
      </trkpt>
      <trkpt lat="47.69872" lon="-2.34144">
        <ele>62.5</ele>
        <time>2021-05-27T11:44:44Z</time>
      </trkpt>
      <trkpt lat="47.69872" lon="-2.34149">
        <ele>62.7</ele>
        <time>2021-05-27T11:44:45Z</time>
      </trkpt>
      <trkpt lat="47.69873" lon="-2.34154">
        <ele>63</ele>
        <time>2021-05-27T11:44:46Z</time>
      </trkpt>
      <trkpt lat="47.69874" lon="-2.34157">
        <ele>63.4</ele>
        <time>2021-05-27T11:44:47Z</time>
      </trkpt>
      <trkpt lat="47.69875" lon="-2.34162">
        <ele>63.8</ele>
        <time>2021-05-27T11:44:48Z</time>
      </trkpt>
      <trkpt lat="47.69875" lon="-2.34167">
        <ele>64</ele>
        <time>2021-05-27T11:44:49Z</time>
      </trkpt>
      <trkpt lat="47.69875" lon="-2.34171">
        <ele>64</ele>
        <time>2021-05-27T11:44:50Z</time>
      </trkpt>
      <trkpt lat="47.69876" lon="-2.34176">
        <ele>64.1</ele>
        <time>2021-05-27T11:44:51Z</time>
      </trkpt>
      <trkpt lat="47.69877" lon="-2.34181">
        <ele>64.4</ele>
        <time>2021-05-27T11:44:52Z</time>
      </trkpt>
      <trkpt lat="47.69878" lon="-2.34185">
        <ele>64.6</ele>
        <time>2021-05-27T11:44:53Z</time>
      </trkpt>
      <trkpt lat="47.69879" lon="-2.3419">
        <ele>64.9</ele>
        <time>2021-05-27T11:44:54Z</time>
      </trkpt>
      <trkpt lat="47.69881" lon="-2.34195">
        <ele>65.2</ele>
        <time>2021-05-27T11:44:55Z</time>
      </trkpt>
      <trkpt lat="47.69881" lon="-2.342">
        <ele>65.4</ele>
        <time>2021-05-27T11:44:56Z</time>
      </trkpt>
      <trkpt lat="47.69881" lon="-2.34206">
        <ele>65.4</ele>
        <time>2021-05-27T11:44:57Z</time>
      </trkpt>
      <trkpt lat="47.69882" lon="-2.3421">
        <ele>65.6</ele>
        <time>2021-05-27T11:44:58Z</time>
      </trkpt>
      <trkpt lat="47.69883" lon="-2.34215">
        <ele>65.8</ele>
        <time>2021-05-27T11:44:59Z</time>
      </trkpt>
      <trkpt lat="47.69887" lon="-2.3422">
        <ele>66.6</ele>
        <time>2021-05-27T11:45:00Z</time>
      </trkpt>
      <trkpt lat="47.69889" lon="-2.34223">
        <ele>67.1</ele>
        <time>2021-05-27T11:45:01Z</time>
      </trkpt>
      <trkpt lat="47.69892" lon="-2.34227">
        <ele>67.6</ele>
        <time>2021-05-27T11:45:02Z</time>
      </trkpt>
      <trkpt lat="47.69894" lon="-2.34231">
        <ele>68.1</ele>
        <time>2021-05-27T11:45:03Z</time>
      </trkpt>
      <trkpt lat="47.69896" lon="-2.34235">
        <ele>68.5</ele>
        <time>2021-05-27T11:45:04Z</time>
      </trkpt>
      <trkpt lat="47.69899" lon="-2.34239">
        <ele>69.1</ele>
        <time>2021-05-27T11:45:05Z</time>
      </trkpt>
      <trkpt lat="47.69901" lon="-2.34244">
        <ele>69.7</ele>
        <time>2021-05-27T11:45:06Z</time>
      </trkpt>
      <trkpt lat="47.69903" lon="-2.34249">
        <ele>70</ele>
        <time>2021-05-27T11:45:07Z</time>
      </trkpt>
      <trkpt lat="47.69905" lon="-2.34254">
        <ele>70.4</ele>
        <time>2021-05-27T11:45:08Z</time>
      </trkpt>
      <trkpt lat="47.69907" lon="-2.34259">
        <ele>70.7</ele>
        <time>2021-05-27T11:45:09Z</time>
      </trkpt>
      <trkpt lat="47.69909" lon="-2.34263">
        <ele>70.9</ele>
        <time>2021-05-27T11:45:10Z</time>
      </trkpt>
      <trkpt lat="47.69911" lon="-2.34268">
        <ele>71.1</ele>
        <time>2021-05-27T11:45:11Z</time>
      </trkpt>
      <trkpt lat="47.69913" lon="-2.34273">
        <ele>71.4</ele>
        <time>2021-05-27T11:45:12Z</time>
      </trkpt>
      <trkpt lat="47.69915" lon="-2.34277">
        <ele>71.7</ele>
        <time>2021-05-27T11:45:13Z</time>
      </trkpt>
      <trkpt lat="47.69917" lon="-2.34282">
        <ele>71.9</ele>
        <time>2021-05-27T11:45:14Z</time>
      </trkpt>
      <trkpt lat="47.69919" lon="-2.34287">
        <ele>71.9</ele>
        <time>2021-05-27T11:45:15Z</time>
      </trkpt>
      <trkpt lat="47.69921" lon="-2.34291">
        <ele>72</ele>
        <time>2021-05-27T11:45:16Z</time>
      </trkpt>
      <trkpt lat="47.69923" lon="-2.34296">
        <ele>72</ele>
        <time>2021-05-27T11:45:17Z</time>
      </trkpt>
      <trkpt lat="47.69925" lon="-2.343">
        <ele>72.1</ele>
        <time>2021-05-27T11:45:18Z</time>
      </trkpt>
      <trkpt lat="47.69926" lon="-2.34305">
        <ele>72.1</ele>
        <time>2021-05-27T11:45:19Z</time>
      </trkpt>
      <trkpt lat="47.69928" lon="-2.3431">
        <ele>72.1</ele>
        <time>2021-05-27T11:45:20Z</time>
      </trkpt>
      <trkpt lat="47.6993" lon="-2.34314">
        <ele>72.1</ele>
        <time>2021-05-27T11:45:21Z</time>
      </trkpt>
      <trkpt lat="47.6993" lon="-2.34319">
        <ele>72</ele>
        <time>2021-05-27T11:45:22Z</time>
      </trkpt>
      <trkpt lat="47.69932" lon="-2.34324">
        <ele>72.1</ele>
        <time>2021-05-27T11:45:23Z</time>
      </trkpt>
      <trkpt lat="47.69933" lon="-2.34329">
        <ele>72.1</ele>
        <time>2021-05-27T11:45:24Z</time>
      </trkpt>
      <trkpt lat="47.69935" lon="-2.34333">
        <ele>72.2</ele>
        <time>2021-05-27T11:45:25Z</time>
      </trkpt>
      <trkpt lat="47.69936" lon="-2.34338">
        <ele>72.1</ele>
        <time>2021-05-27T11:45:26Z</time>
      </trkpt>
      <trkpt lat="47.69937" lon="-2.34342">
        <ele>72</ele>
        <time>2021-05-27T11:45:27Z</time>
      </trkpt>
      <trkpt lat="47.69938" lon="-2.34345">
        <ele>71.8</ele>
        <time>2021-05-27T11:45:28Z</time>
      </trkpt>
      <trkpt lat="47.69939" lon="-2.34349">
        <ele>71.7</ele>
        <time>2021-05-27T11:45:29Z</time>
      </trkpt>
      <trkpt lat="47.69939" lon="-2.34352">
        <ele>71.6</ele>
        <time>2021-05-27T11:45:30Z</time>
      </trkpt>
      <trkpt lat="47.6994" lon="-2.34355">
        <ele>71.6</ele>
        <time>2021-05-27T11:45:31Z</time>
      </trkpt>
      <trkpt lat="47.69941" lon="-2.34357">
        <ele>71.6</ele>
        <time>2021-05-27T11:45:32Z</time>
      </trkpt>
      <trkpt lat="47.69942" lon="-2.34359">
        <ele>71.5</ele>
        <time>2021-05-27T11:45:33Z</time>
      </trkpt>
      <trkpt lat="47.69943" lon="-2.34363">
        <ele>71.5</ele>
        <time>2021-05-27T11:45:34Z</time>
      </trkpt>
      <trkpt lat="47.69944" lon="-2.34366">
        <ele>71.4</ele>
        <time>2021-05-27T11:45:35Z</time>
      </trkpt>
      <trkpt lat="47.69945" lon="-2.3437">
        <ele>71.4</ele>
        <time>2021-05-27T11:45:36Z</time>
      </trkpt>
      <trkpt lat="47.69947" lon="-2.34374">
        <ele>71.3</ele>
        <time>2021-05-27T11:45:37Z</time>
      </trkpt>
      <trkpt lat="47.69947" lon="-2.34378">
        <ele>71.2</ele>
        <time>2021-05-27T11:45:38Z</time>
      </trkpt>
      <trkpt lat="47.69949" lon="-2.34382">
        <ele>71.2</ele>
        <time>2021-05-27T11:45:39Z</time>
      </trkpt>
      <trkpt lat="47.6995" lon="-2.34386">
        <ele>71.2</ele>
        <time>2021-05-27T11:45:40Z</time>
      </trkpt>
      <trkpt lat="47.69951" lon="-2.34389">
        <ele>71.2</ele>
        <time>2021-05-27T11:45:41Z</time>
      </trkpt>
      <trkpt lat="47.69952" lon="-2.34393">
        <ele>71.2</ele>
        <time>2021-05-27T11:45:42Z</time>
      </trkpt>
      <trkpt lat="47.69954" lon="-2.34397">
        <ele>71.3</ele>
        <time>2021-05-27T11:45:43Z</time>
      </trkpt>
      <trkpt lat="47.69955" lon="-2.34401">
        <ele>71.3</ele>
        <time>2021-05-27T11:45:44Z</time>
      </trkpt>
      <trkpt lat="47.69957" lon="-2.34406">
        <ele>71.3</ele>
        <time>2021-05-27T11:45:45Z</time>
      </trkpt>
      <trkpt lat="47.69958" lon="-2.3441">
        <ele>71.2</ele>
        <time>2021-05-27T11:45:46Z</time>
      </trkpt>
      <trkpt lat="47.69959" lon="-2.34415">
        <ele>71.1</ele>
        <time>2021-05-27T11:45:47Z</time>
      </trkpt>
      <trkpt lat="47.69959" lon="-2.34419">
        <ele>71.1</ele>
        <time>2021-05-27T11:45:48Z</time>
      </trkpt>
      <trkpt lat="47.6996" lon="-2.34423">
        <ele>71</ele>
        <time>2021-05-27T11:45:49Z</time>
      </trkpt>
      <trkpt lat="47.6996" lon="-2.34428">
        <ele>70.9</ele>
        <time>2021-05-27T11:45:50Z</time>
      </trkpt>
      <trkpt lat="47.69961" lon="-2.34433">
        <ele>70.9</ele>
        <time>2021-05-27T11:45:51Z</time>
      </trkpt>
      <trkpt lat="47.69963" lon="-2.34438">
        <ele>70.9</ele>
        <time>2021-05-27T11:45:52Z</time>
      </trkpt>
      <trkpt lat="47.69964" lon="-2.34443">
        <ele>70.9</ele>
        <time>2021-05-27T11:45:53Z</time>
      </trkpt>
      <trkpt lat="47.69964" lon="-2.34448">
        <ele>70.8</ele>
        <time>2021-05-27T11:45:54Z</time>
      </trkpt>
      <trkpt lat="47.69965" lon="-2.34453">
        <ele>70.8</ele>
        <time>2021-05-27T11:45:55Z</time>
      </trkpt>
      <trkpt lat="47.69966" lon="-2.34458">
        <ele>70.8</ele>
        <time>2021-05-27T11:45:56Z</time>
      </trkpt>
      <trkpt lat="47.69967" lon="-2.34463">
        <ele>70.8</ele>
        <time>2021-05-27T11:45:57Z</time>
      </trkpt>
      <trkpt lat="47.69968" lon="-2.34468">
        <ele>70.6</ele>
        <time>2021-05-27T11:45:58Z</time>
      </trkpt>
      <trkpt lat="47.69968" lon="-2.34472">
        <ele>70.5</ele>
        <time>2021-05-27T11:45:59Z</time>
      </trkpt>
      <trkpt lat="47.69969" lon="-2.34474">
        <ele>70.6</ele>
        <time>2021-05-27T11:46:00Z</time>
      </trkpt>
      <trkpt lat="47.69971" lon="-2.34476">
        <ele>70.7</ele>
        <time>2021-05-27T11:46:01Z</time>
      </trkpt>
      <trkpt lat="47.69972" lon="-2.34476">
        <ele>70.9</ele>
        <time>2021-05-27T11:46:02Z</time>
      </trkpt>
      <trkpt lat="47.69973" lon="-2.34474">
        <ele>71.2</ele>
        <time>2021-05-27T11:46:03Z</time>
      </trkpt>
      <trkpt lat="47.69975" lon="-2.34473">
        <ele>71.5</ele>
        <time>2021-05-27T11:46:04Z</time>
      </trkpt>
      <trkpt lat="47.69976" lon="-2.3447">
        <ele>71.7</ele>
        <time>2021-05-27T11:46:05Z</time>
      </trkpt>
      <trkpt lat="47.69976" lon="-2.34468">
        <ele>71.9</ele>
        <time>2021-05-27T11:46:06Z</time>
      </trkpt>
      <trkpt lat="47.69976" lon="-2.34466">
        <ele>72</ele>
        <time>2021-05-27T11:46:07Z</time>
      </trkpt>
      <trkpt lat="47.69976" lon="-2.34464">
        <ele>72.1</ele>
        <time>2021-05-27T11:46:08Z</time>
      </trkpt>
      <trkpt lat="47.69976" lon="-2.34462">
        <ele>72.2</ele>
        <time>2021-05-27T11:46:09Z</time>
      </trkpt>
      <trkpt lat="47.69977" lon="-2.34459">
        <ele>72.4</ele>
        <time>2021-05-27T11:46:10Z</time>
      </trkpt>
      <trkpt lat="47.69978" lon="-2.34457">
        <ele>72.7</ele>
        <time>2021-05-27T11:46:11Z</time>
      </trkpt>
      <trkpt lat="47.69979" lon="-2.34456">
        <ele>72.8</ele>
        <time>2021-05-27T11:46:12Z</time>
      </trkpt>
      <trkpt lat="47.6998" lon="-2.34455">
        <ele>73</ele>
        <time>2021-05-27T11:46:13Z</time>
      </trkpt>
      <trkpt lat="47.6998" lon="-2.34456">
        <ele>73</ele>
        <time>2021-05-27T11:46:14Z</time>
      </trkpt>
      <trkpt lat="47.6998" lon="-2.34455">
        <ele>73</ele>
        <time>2021-05-27T11:46:15Z</time>
      </trkpt>
      <trkpt lat="47.6998" lon="-2.34454">
        <ele>73.1</ele>
        <time>2021-05-27T11:46:16Z</time>
      </trkpt>
      <trkpt lat="47.6998" lon="-2.34454">
        <ele>73.1</ele>
        <time>2021-05-27T11:46:17Z</time>
      </trkpt>
      <trkpt lat="47.6998" lon="-2.34454">
        <ele>73.1</ele>
        <time>2021-05-27T11:46:18Z</time>
      </trkpt>
      <trkpt lat="47.6998" lon="-2.34454">
        <ele>73.1</ele>
        <time>2021-05-27T11:46:19Z</time>
      </trkpt>
      <trkpt lat="47.6998" lon="-2.34454">
        <ele>73.1</ele>
        <time>2021-05-27T11:46:20Z</time>
      </trkpt>
      <trkpt lat="47.6998" lon="-2.34454">
        <ele>73.1</ele>
        <time>2021-05-27T11:46:21Z</time>
      </trkpt>
      <trkpt lat="47.6998" lon="-2.34454">
        <ele>73.1</ele>
        <time>2021-05-27T11:46:22Z</time>
      </trkpt>
      <trkpt lat="47.6998" lon="-2.34454">
        <ele>73.1</ele>
        <time>2021-05-27T11:46:23Z</time>
      </trkpt>
      <trkpt lat="47.6998" lon="-2.34454">
        <ele>73.1</ele>
        <time>2021-05-27T11:46:24Z</time>
      </trkpt>
      <trkpt lat="47.6998" lon="-2.34454">
        <ele>73.1</ele>
        <time>2021-05-27T11:46:25Z</time>
      </trkpt>
      <trkpt lat="47.6998" lon="-2.34454">
        <ele>73.1</ele>
        <time>2021-05-27T11:46:26Z</time>
      </trkpt>
      <trkpt lat="47.6998" lon="-2.34454">
        <ele>73.1</ele>
        <time>2021-05-27T11:46:27Z</time>
      </trkpt>
      <trkpt lat="47.6998" lon="-2.34454">
        <ele>73.1</ele>
        <time>2021-05-27T11:46:28Z</time>
      </trkpt>
      <trkpt lat="47.6998" lon="-2.34454">
        <ele>73.1</ele>
        <time>2021-05-27T11:46:29Z</time>
      </trkpt>
      <trkpt lat="47.6998" lon="-2.34454">
        <ele>73.1</ele>
        <time>2021-05-27T11:46:30Z</time>
      </trkpt>
      <trkpt lat="47.6998" lon="-2.34454">
        <ele>73.1</ele>
        <time>2021-05-27T11:46:31Z</time>
      </trkpt>
      <trkpt lat="47.6998" lon="-2.34454">
        <ele>73.1</ele>
        <time>2021-05-27T11:46:32Z</time>
      </trkpt>
      <trkpt lat="47.6998" lon="-2.34454">
        <ele>73.1</ele>
        <time>2021-05-27T11:46:33Z</time>
      </trkpt>
      <trkpt lat="47.6998" lon="-2.34454">
        <ele>73.1</ele>
        <time>2021-05-27T11:46:34Z</time>
      </trkpt>
      <trkpt lat="47.6998" lon="-2.34454">
        <ele>73.1</ele>
        <time>2021-05-27T11:46:35Z</time>
      </trkpt>
      <trkpt lat="47.6998" lon="-2.34454">
        <ele>73.1</ele>
        <time>2021-05-27T11:46:36Z</time>
      </trkpt>
      <trkpt lat="47.6998" lon="-2.34454">
        <ele>73.1</ele>
        <time>2021-05-27T11:46:37Z</time>
      </trkpt>
      <trkpt lat="47.69986" lon="-2.34444">
        <ele>74.4</ele>
        <time>2021-05-27T11:46:38Z</time>
      </trkpt>
      <trkpt lat="47.69987" lon="-2.34443">
        <ele>74.6</ele>
        <time>2021-05-27T11:46:39Z</time>
      </trkpt>
      <trkpt lat="47.69988" lon="-2.34442">
        <ele>74.8</ele>
        <time>2021-05-27T11:46:40Z</time>
      </trkpt>
      <trkpt lat="47.69989" lon="-2.3444">
        <ele>75.2</ele>
        <time>2021-05-27T11:46:41Z</time>
      </trkpt>
      <trkpt lat="47.6999" lon="-2.3444">
        <ele>75.4</ele>
        <time>2021-05-27T11:46:42Z</time>
      </trkpt>
      <trkpt lat="47.69992" lon="-2.34439">
        <ele>75.6</ele>
        <time>2021-05-27T11:46:43Z</time>
      </trkpt>
      <trkpt lat="47.69992" lon="-2.34437">
        <ele>75.8</ele>
        <time>2021-05-27T11:46:44Z</time>
      </trkpt>
      <trkpt lat="47.69994" lon="-2.34435">
        <ele>76.1</ele>
        <time>2021-05-27T11:46:45Z</time>
      </trkpt>
      <trkpt lat="47.69995" lon="-2.34434">
        <ele>76.3</ele>
        <time>2021-05-27T11:46:46Z</time>
      </trkpt>
      <trkpt lat="47.69997" lon="-2.3443">
        <ele>76.8</ele>
        <time>2021-05-27T11:46:47Z</time>
      </trkpt>
      <trkpt lat="47.69998" lon="-2.34427">
        <ele>77.1</ele>
        <time>2021-05-27T11:46:48Z</time>
      </trkpt>
      <trkpt lat="47.69999" lon="-2.34425">
        <ele>77.3</ele>
        <time>2021-05-27T11:46:49Z</time>
      </trkpt>
      <trkpt lat="47.69999" lon="-2.34422">
        <ele>77.6</ele>
        <time>2021-05-27T11:46:50Z</time>
      </trkpt>
      <trkpt lat="47.69999" lon="-2.3442">
        <ele>77.6</ele>
        <time>2021-05-27T11:46:51Z</time>
      </trkpt>
      <trkpt lat="47.69998" lon="-2.34416">
        <ele>77.7</ele>
        <time>2021-05-27T11:46:52Z</time>
      </trkpt>
      <trkpt lat="47.69998" lon="-2.34413">
        <ele>77.7</ele>
        <time>2021-05-27T11:46:53Z</time>
      </trkpt>
      <trkpt lat="47.69997" lon="-2.3441">
        <ele>77.7</ele>
        <time>2021-05-27T11:46:54Z</time>
      </trkpt>
      <trkpt lat="47.69996" lon="-2.34407">
        <ele>77.6</ele>
        <time>2021-05-27T11:46:55Z</time>
      </trkpt>
      <trkpt lat="47.69995" lon="-2.34403">
        <ele>77.4</ele>
        <time>2021-05-27T11:46:56Z</time>
      </trkpt>
      <trkpt lat="47.69994" lon="-2.344">
        <ele>77.4</ele>
        <time>2021-05-27T11:46:57Z</time>
      </trkpt>
      <trkpt lat="47.69992" lon="-2.34398">
        <ele>77.2</ele>
        <time>2021-05-27T11:46:58Z</time>
      </trkpt>
      <trkpt lat="47.6999" lon="-2.34395">
        <ele>77</ele>
        <time>2021-05-27T11:46:59Z</time>
      </trkpt>
      <trkpt lat="47.69989" lon="-2.34393">
        <ele>76.8</ele>
        <time>2021-05-27T11:47:00Z</time>
      </trkpt>
      <trkpt lat="47.69987" lon="-2.3439">
        <ele>76.7</ele>
        <time>2021-05-27T11:47:01Z</time>
      </trkpt>
      <trkpt lat="47.69986" lon="-2.34386">
        <ele>76.7</ele>
        <time>2021-05-27T11:47:02Z</time>
      </trkpt>
      <trkpt lat="47.69985" lon="-2.34382">
        <ele>76.6</ele>
        <time>2021-05-27T11:47:03Z</time>
      </trkpt>
      <trkpt lat="47.69985" lon="-2.34379">
        <ele>76.7</ele>
        <time>2021-05-27T11:47:04Z</time>
      </trkpt>
      <trkpt lat="47.69984" lon="-2.34376">
        <ele>76.7</ele>
        <time>2021-05-27T11:47:05Z</time>
      </trkpt>
      <trkpt lat="47.69984" lon="-2.34373">
        <ele>76.8</ele>
        <time>2021-05-27T11:47:06Z</time>
      </trkpt>
      <trkpt lat="47.69983" lon="-2.34371">
        <ele>76.7</ele>
        <time>2021-05-27T11:47:07Z</time>
      </trkpt>
      <trkpt lat="47.69982" lon="-2.34368">
        <ele>76.7</ele>
        <time>2021-05-27T11:47:08Z</time>
      </trkpt>
      <trkpt lat="47.69982" lon="-2.34364">
        <ele>76.8</ele>
        <time>2021-05-27T11:47:09Z</time>
      </trkpt>
      <trkpt lat="47.69982" lon="-2.34361">
        <ele>76.9</ele>
        <time>2021-05-27T11:47:10Z</time>
      </trkpt>
      <trkpt lat="47.69981" lon="-2.34357">
        <ele>76.9</ele>
        <time>2021-05-27T11:47:11Z</time>
      </trkpt>
      <trkpt lat="47.6998" lon="-2.34355">
        <ele>76.8</ele>
        <time>2021-05-27T11:47:12Z</time>
      </trkpt>
      <trkpt lat="47.69979" lon="-2.34353">
        <ele>76.7</ele>
        <time>2021-05-27T11:47:13Z</time>
      </trkpt>
      <trkpt lat="47.69977" lon="-2.34352">
        <ele>76.5</ele>
        <time>2021-05-27T11:47:14Z</time>
      </trkpt>
      <trkpt lat="47.69975" lon="-2.3435">
        <ele>76.4</ele>
        <time>2021-05-27T11:47:15Z</time>
      </trkpt>
      <trkpt lat="47.69973" lon="-2.34349">
        <ele>76.1</ele>
        <time>2021-05-27T11:47:16Z</time>
      </trkpt>
      <trkpt lat="47.69971" lon="-2.34347">
        <ele>76</ele>
        <time>2021-05-27T11:47:17Z</time>
      </trkpt>
      <trkpt lat="47.69969" lon="-2.34345">
        <ele>75.8</ele>
        <time>2021-05-27T11:47:18Z</time>
      </trkpt>
      <trkpt lat="47.69967" lon="-2.34344">
        <ele>75.6</ele>
        <time>2021-05-27T11:47:19Z</time>
      </trkpt>
      <trkpt lat="47.69965" lon="-2.34343">
        <ele>75.4</ele>
        <time>2021-05-27T11:47:20Z</time>
      </trkpt>
      <trkpt lat="47.69963" lon="-2.34341">
        <ele>75.2</ele>
        <time>2021-05-27T11:47:21Z</time>
      </trkpt>
      <trkpt lat="47.69961" lon="-2.34338">
        <ele>75.1</ele>
        <time>2021-05-27T11:47:22Z</time>
      </trkpt>
      <trkpt lat="47.69958" lon="-2.34333">
        <ele>75</ele>
        <time>2021-05-27T11:47:23Z</time>
      </trkpt>
      <trkpt lat="47.69956" lon="-2.34329">
        <ele>74.7</ele>
        <time>2021-05-27T11:47:24Z</time>
      </trkpt>
      <trkpt lat="47.69953" lon="-2.34324">
        <ele>74.6</ele>
        <time>2021-05-27T11:47:25Z</time>
      </trkpt>
      <trkpt lat="47.69952" lon="-2.3432">
        <ele>74.5</ele>
        <time>2021-05-27T11:47:26Z</time>
      </trkpt>
      <trkpt lat="47.6995" lon="-2.34317">
        <ele>74.4</ele>
        <time>2021-05-27T11:47:27Z</time>
      </trkpt>
      <trkpt lat="47.69949" lon="-2.34315">
        <ele>74.3</ele>
        <time>2021-05-27T11:47:28Z</time>
      </trkpt>
      <trkpt lat="47.69949" lon="-2.34315">
        <ele>74.2</ele>
        <time>2021-05-27T11:47:29Z</time>
      </trkpt>
      <trkpt lat="47.69948" lon="-2.34314">
        <ele>74.2</ele>
        <time>2021-05-27T11:47:30Z</time>
      </trkpt>
      <trkpt lat="47.69948" lon="-2.34312">
        <ele>74.3</ele>
        <time>2021-05-27T11:47:31Z</time>
      </trkpt>
      <trkpt lat="47.69947" lon="-2.3431">
        <ele>74.2</ele>
        <time>2021-05-27T11:47:32Z</time>
      </trkpt>
      <trkpt lat="47.69949" lon="-2.34309">
        <ele>74.4</ele>
        <time>2021-05-27T11:47:33Z</time>
      </trkpt>
      <trkpt lat="47.6995" lon="-2.3431">
        <ele>74.5</ele>
        <time>2021-05-27T11:47:34Z</time>
      </trkpt>
      <trkpt lat="47.69951" lon="-2.3431">
        <ele>74.6</ele>
        <time>2021-05-27T11:47:35Z</time>
      </trkpt>
      <trkpt lat="47.69952" lon="-2.34309">
        <ele>74.7</ele>
        <time>2021-05-27T11:47:36Z</time>
      </trkpt>
      <trkpt lat="47.69953" lon="-2.34308">
        <ele>74.8</ele>
        <time>2021-05-27T11:47:37Z</time>
      </trkpt>
      <trkpt lat="47.69954" lon="-2.34306">
        <ele>75.1</ele>
        <time>2021-05-27T11:47:38Z</time>
      </trkpt>
      <trkpt lat="47.69957" lon="-2.34305">
        <ele>75.3</ele>
        <time>2021-05-27T11:47:39Z</time>
      </trkpt>
      <trkpt lat="47.69959" lon="-2.34303">
        <ele>75.6</ele>
        <time>2021-05-27T11:47:40Z</time>
      </trkpt>
      <trkpt lat="47.6996" lon="-2.34302">
        <ele>75.8</ele>
        <time>2021-05-27T11:47:41Z</time>
      </trkpt>
      <trkpt lat="47.69962" lon="-2.343">
        <ele>76</ele>
        <time>2021-05-27T11:47:42Z</time>
      </trkpt>
      <trkpt lat="47.69965" lon="-2.34299">
        <ele>76.3</ele>
        <time>2021-05-27T11:47:43Z</time>
      </trkpt>
      <trkpt lat="47.69967" lon="-2.34298">
        <ele>76.6</ele>
        <time>2021-05-27T11:47:44Z</time>
      </trkpt>
      <trkpt lat="47.6997" lon="-2.34297">
        <ele>76.8</ele>
        <time>2021-05-27T11:47:45Z</time>
      </trkpt>
      <trkpt lat="47.69972" lon="-2.34296">
        <ele>77.1</ele>
        <time>2021-05-27T11:47:46Z</time>
      </trkpt>
      <trkpt lat="47.69974" lon="-2.34296">
        <ele>77.3</ele>
        <time>2021-05-27T11:47:47Z</time>
      </trkpt>
      <trkpt lat="47.69976" lon="-2.34295">
        <ele>77.6</ele>
        <time>2021-05-27T11:47:48Z</time>
      </trkpt>
      <trkpt lat="47.69979" lon="-2.34296">
        <ele>77.8</ele>
        <time>2021-05-27T11:47:49Z</time>
      </trkpt>
      <trkpt lat="47.6998" lon="-2.34297">
        <ele>77.9</ele>
        <time>2021-05-27T11:47:50Z</time>
      </trkpt>
      <trkpt lat="47.69982" lon="-2.34297">
        <ele>78.1</ele>
        <time>2021-05-27T11:47:51Z</time>
      </trkpt>
      <trkpt lat="47.69985" lon="-2.34298">
        <ele>78.4</ele>
        <time>2021-05-27T11:47:52Z</time>
      </trkpt>
      <trkpt lat="47.69988" lon="-2.34297">
        <ele>78.7</ele>
        <time>2021-05-27T11:47:53Z</time>
      </trkpt>
      <trkpt lat="47.69992" lon="-2.34296">
        <ele>79.1</ele>
        <time>2021-05-27T11:47:54Z</time>
      </trkpt>
      <trkpt lat="47.69995" lon="-2.34295">
        <ele>79.5</ele>
        <time>2021-05-27T11:47:55Z</time>
      </trkpt>
      <trkpt lat="47.69999" lon="-2.34295">
        <ele>79.9</ele>
        <time>2021-05-27T11:47:56Z</time>
      </trkpt>
      <trkpt lat="47.70003" lon="-2.34294">
        <ele>79.5</ele>
        <time>2021-05-27T11:47:57Z</time>
      </trkpt>
      <trkpt lat="47.70007" lon="-2.34293">
        <ele>78.8</ele>
        <time>2021-05-27T11:47:58Z</time>
      </trkpt>
      <trkpt lat="47.70011" lon="-2.34293">
        <ele>78</ele>
        <time>2021-05-27T11:47:59Z</time>
      </trkpt>
      <trkpt lat="47.70016" lon="-2.34292">
        <ele>77.2</ele>
        <time>2021-05-27T11:48:00Z</time>
      </trkpt>
      <trkpt lat="47.70023" lon="-2.34291">
        <ele>76</ele>
        <time>2021-05-27T11:48:01Z</time>
      </trkpt>
      <trkpt lat="47.70031" lon="-2.3429">
        <ele>74.6</ele>
        <time>2021-05-27T11:48:02Z</time>
      </trkpt>
      <trkpt lat="47.7004" lon="-2.3429">
        <ele>73</ele>
        <time>2021-05-27T11:48:03Z</time>
      </trkpt>
      <trkpt lat="47.7005" lon="-2.34287">
        <ele>71.2</ele>
        <time>2021-05-27T11:48:04Z</time>
      </trkpt>
      <trkpt lat="47.70059" lon="-2.34285">
        <ele>69.4</ele>
        <time>2021-05-27T11:48:05Z</time>
      </trkpt>
      <trkpt lat="47.70067" lon="-2.34283">
        <ele>67.9</ele>
        <time>2021-05-27T11:48:06Z</time>
      </trkpt>
      <trkpt lat="47.70076" lon="-2.34281">
        <ele>66.2</ele>
        <time>2021-05-27T11:48:07Z</time>
      </trkpt>
      <trkpt lat="47.70085" lon="-2.34278">
        <ele>64.4</ele>
        <time>2021-05-27T11:48:08Z</time>
      </trkpt>
      <trkpt lat="47.70094" lon="-2.34277">
        <ele>63.1</ele>
        <time>2021-05-27T11:48:09Z</time>
      </trkpt>
      <trkpt lat="47.70103" lon="-2.34276">
        <ele>61.8</ele>
        <time>2021-05-27T11:48:10Z</time>
      </trkpt>
      <trkpt lat="47.70111" lon="-2.34276">
        <ele>60.5</ele>
        <time>2021-05-27T11:48:11Z</time>
      </trkpt>
      <trkpt lat="47.7012" lon="-2.34274">
        <ele>59.3</ele>
        <time>2021-05-27T11:48:12Z</time>
      </trkpt>
      <trkpt lat="47.70128" lon="-2.34273">
        <ele>58</ele>
        <time>2021-05-27T11:48:13Z</time>
      </trkpt>
      <trkpt lat="47.70132" lon="-2.34271">
        <ele>57.4</ele>
        <time>2021-05-27T11:48:14Z</time>
      </trkpt>
      <trkpt lat="47.70136" lon="-2.3427">
        <ele>56.7</ele>
        <time>2021-05-27T11:48:15Z</time>
      </trkpt>
      <trkpt lat="47.70138" lon="-2.34269">
        <ele>56.4</ele>
        <time>2021-05-27T11:48:16Z</time>
      </trkpt>
      <trkpt lat="47.7014" lon="-2.34266">
        <ele>56.1</ele>
        <time>2021-05-27T11:48:17Z</time>
      </trkpt>
      <trkpt lat="47.70142" lon="-2.34266">
        <ele>55.8</ele>
        <time>2021-05-27T11:48:18Z</time>
      </trkpt>
      <trkpt lat="47.70143" lon="-2.34265">
        <ele>55.6</ele>
        <time>2021-05-27T11:48:19Z</time>
      </trkpt>
      <trkpt lat="47.70143" lon="-2.34264">
        <ele>55.6</ele>
        <time>2021-05-27T11:48:20Z</time>
      </trkpt>
      <trkpt lat="47.70143" lon="-2.34263">
        <ele>55.6</ele>
        <time>2021-05-27T11:48:21Z</time>
      </trkpt>
      <trkpt lat="47.70143" lon="-2.34263">
        <ele>55.6</ele>
        <time>2021-05-27T11:48:22Z</time>
      </trkpt>
      <trkpt lat="47.70143" lon="-2.34263">
        <ele>55.6</ele>
        <time>2021-05-27T11:48:23Z</time>
      </trkpt>
      <trkpt lat="47.70143" lon="-2.34263">
        <ele>55.6</ele>
        <time>2021-05-27T11:48:24Z</time>
      </trkpt>
      <trkpt lat="47.70143" lon="-2.34263">
        <ele>55.6</ele>
        <time>2021-05-27T11:48:25Z</time>
      </trkpt>
      <trkpt lat="47.70143" lon="-2.34263">
        <ele>55.6</ele>
        <time>2021-05-27T11:48:26Z</time>
      </trkpt>
      <trkpt lat="47.70143" lon="-2.34263">
        <ele>55.6</ele>
        <time>2021-05-27T11:48:27Z</time>
      </trkpt>
      <trkpt lat="47.70143" lon="-2.34263">
        <ele>55.6</ele>
        <time>2021-05-27T11:48:28Z</time>
      </trkpt>
      <trkpt lat="47.70143" lon="-2.34263">
        <ele>55.6</ele>
        <time>2021-05-27T11:48:29Z</time>
      </trkpt>
      <trkpt lat="47.70143" lon="-2.34263">
        <ele>55.6</ele>
        <time>2021-05-27T11:48:30Z</time>
      </trkpt>
      <trkpt lat="47.70143" lon="-2.34263">
        <ele>55.6</ele>
        <time>2021-05-27T11:48:31Z</time>
      </trkpt>
      <trkpt lat="47.70143" lon="-2.34263">
        <ele>55.6</ele>
        <time>2021-05-27T11:48:32Z</time>
      </trkpt>
      <trkpt lat="47.70143" lon="-2.34263">
        <ele>55.6</ele>
        <time>2021-05-27T11:48:33Z</time>
      </trkpt>
      <trkpt lat="47.70144" lon="-2.34254">
        <ele>55.2</ele>
        <time>2021-05-27T11:48:34Z</time>
      </trkpt>
      <trkpt lat="47.70143" lon="-2.34251">
        <ele>55.1</ele>
        <time>2021-05-27T11:48:35Z</time>
      </trkpt>
      <trkpt lat="47.70144" lon="-2.34248">
        <ele>54.9</ele>
        <time>2021-05-27T11:48:36Z</time>
      </trkpt>
      <trkpt lat="47.70145" lon="-2.34247">
        <ele>54.7</ele>
        <time>2021-05-27T11:48:37Z</time>
      </trkpt>
      <trkpt lat="47.70146" lon="-2.34246">
        <ele>54.5</ele>
        <time>2021-05-27T11:48:38Z</time>
      </trkpt>
      <trkpt lat="47.70147" lon="-2.34247">
        <ele>54.4</ele>
        <time>2021-05-27T11:48:39Z</time>
      </trkpt>
      <trkpt lat="47.70148" lon="-2.34247">
        <ele>54.3</ele>
        <time>2021-05-27T11:48:40Z</time>
      </trkpt>
      <trkpt lat="47.7015" lon="-2.34248">
        <ele>54.1</ele>
        <time>2021-05-27T11:48:41Z</time>
      </trkpt>
      <trkpt lat="47.70151" lon="-2.34248">
        <ele>54</ele>
        <time>2021-05-27T11:48:42Z</time>
      </trkpt>
      <trkpt lat="47.70153" lon="-2.34249">
        <ele>53.8</ele>
        <time>2021-05-27T11:48:43Z</time>
      </trkpt>
      <trkpt lat="47.70154" lon="-2.3425">
        <ele>53.7</ele>
        <time>2021-05-27T11:48:44Z</time>
      </trkpt>
      <trkpt lat="47.70154" lon="-2.34251">
        <ele>53.6</ele>
        <time>2021-05-27T11:48:45Z</time>
      </trkpt>
      <trkpt lat="47.70155" lon="-2.34252">
        <ele>53.6</ele>
        <time>2021-05-27T11:48:46Z</time>
      </trkpt>
      <trkpt lat="47.70156" lon="-2.34254">
        <ele>53.5</ele>
        <time>2021-05-27T11:48:47Z</time>
      </trkpt>
      <trkpt lat="47.70158" lon="-2.34256">
        <ele>53.3</ele>
        <time>2021-05-27T11:48:48Z</time>
      </trkpt>
      <trkpt lat="47.70159" lon="-2.34257">
        <ele>53.2</ele>
        <time>2021-05-27T11:48:49Z</time>
      </trkpt>
      <trkpt lat="47.7016" lon="-2.34257">
        <ele>53</ele>
        <time>2021-05-27T11:48:50Z</time>
      </trkpt>
      <trkpt lat="47.70162" lon="-2.34258">
        <ele>52.8</ele>
        <time>2021-05-27T11:48:51Z</time>
      </trkpt>
      <trkpt lat="47.70164" lon="-2.34261">
        <ele>52.6</ele>
        <time>2021-05-27T11:48:52Z</time>
      </trkpt>
      <trkpt lat="47.70166" lon="-2.34264">
        <ele>52.4</ele>
        <time>2021-05-27T11:48:53Z</time>
      </trkpt>
      <trkpt lat="47.70168" lon="-2.34265">
        <ele>52.3</ele>
        <time>2021-05-27T11:48:54Z</time>
      </trkpt>
      <trkpt lat="47.70169" lon="-2.34265">
        <ele>52.2</ele>
        <time>2021-05-27T11:48:55Z</time>
      </trkpt>
      <trkpt lat="47.70169" lon="-2.34265">
        <ele>52.1</ele>
        <time>2021-05-27T11:48:56Z</time>
      </trkpt>
      <trkpt lat="47.70169" lon="-2.34265">
        <ele>52.1</ele>
        <time>2021-05-27T11:48:57Z</time>
      </trkpt>
      <trkpt lat="47.70169" lon="-2.34265">
        <ele>52.1</ele>
        <time>2021-05-27T11:48:58Z</time>
      </trkpt>
      <trkpt lat="47.70169" lon="-2.34265">
        <ele>52.1</ele>
        <time>2021-05-27T11:48:59Z</time>
      </trkpt>
      <trkpt lat="47.70169" lon="-2.34265">
        <ele>52.1</ele>
        <time>2021-05-27T11:49:00Z</time>
      </trkpt>
      <trkpt lat="47.70169" lon="-2.34265">
        <ele>52.1</ele>
        <time>2021-05-27T11:49:01Z</time>
      </trkpt>
      <trkpt lat="47.70169" lon="-2.34265">
        <ele>52.1</ele>
        <time>2021-05-27T11:49:02Z</time>
      </trkpt>
      <trkpt lat="47.70169" lon="-2.34265">
        <ele>52.1</ele>
        <time>2021-05-27T11:49:03Z</time>
      </trkpt>
      <trkpt lat="47.70169" lon="-2.34265">
        <ele>52.1</ele>
        <time>2021-05-27T11:49:04Z</time>
      </trkpt>
      <trkpt lat="47.70169" lon="-2.34265">
        <ele>52.1</ele>
        <time>2021-05-27T11:49:05Z</time>
      </trkpt>
      <trkpt lat="47.70169" lon="-2.34265">
        <ele>52.1</ele>
        <time>2021-05-27T11:49:06Z</time>
      </trkpt>
      <trkpt lat="47.70169" lon="-2.34265">
        <ele>52.1</ele>
        <time>2021-05-27T11:49:07Z</time>
      </trkpt>
      <trkpt lat="47.70169" lon="-2.34265">
        <ele>52.1</ele>
        <time>2021-05-27T11:49:08Z</time>
      </trkpt>
      <trkpt lat="47.70169" lon="-2.34265">
        <ele>52.1</ele>
        <time>2021-05-27T11:49:09Z</time>
      </trkpt>
      <trkpt lat="47.70169" lon="-2.34265">
        <ele>52.1</ele>
        <time>2021-05-27T11:49:10Z</time>
      </trkpt>
      <trkpt lat="47.70169" lon="-2.34265">
        <ele>52.1</ele>
        <time>2021-05-27T11:49:11Z</time>
      </trkpt>
      <trkpt lat="47.70169" lon="-2.34265">
        <ele>52.1</ele>
        <time>2021-05-27T11:49:12Z</time>
      </trkpt>
      <trkpt lat="47.70169" lon="-2.34265">
        <ele>52.1</ele>
        <time>2021-05-27T11:49:13Z</time>
      </trkpt>
      <trkpt lat="47.70169" lon="-2.34265">
        <ele>52.1</ele>
        <time>2021-05-27T11:49:14Z</time>
      </trkpt>
      <trkpt lat="47.70169" lon="-2.34265">
        <ele>52.1</ele>
        <time>2021-05-27T11:49:15Z</time>
      </trkpt>
      <trkpt lat="47.70169" lon="-2.34265">
        <ele>52.1</ele>
        <time>2021-05-27T11:49:16Z</time>
      </trkpt>
      <trkpt lat="47.70169" lon="-2.34265">
        <ele>52.1</ele>
        <time>2021-05-27T11:49:17Z</time>
      </trkpt>
      <trkpt lat="47.70169" lon="-2.34265">
        <ele>52.1</ele>
        <time>2021-05-27T11:49:18Z</time>
      </trkpt>
      <trkpt lat="47.70169" lon="-2.34265">
        <ele>52.1</ele>
        <time>2021-05-27T11:49:19Z</time>
      </trkpt>
      <trkpt lat="47.70169" lon="-2.34265">
        <ele>52.1</ele>
        <time>2021-05-27T11:49:20Z</time>
      </trkpt>
      <trkpt lat="47.70169" lon="-2.34265">
        <ele>52.1</ele>
        <time>2021-05-27T11:49:21Z</time>
      </trkpt>
      <trkpt lat="47.70169" lon="-2.34265">
        <ele>52.1</ele>
        <time>2021-05-27T11:49:22Z</time>
      </trkpt>
      <trkpt lat="47.70169" lon="-2.34265">
        <ele>52.1</ele>
        <time>2021-05-27T11:49:23Z</time>
      </trkpt>
      <trkpt lat="47.70169" lon="-2.34265">
        <ele>52.1</ele>
        <time>2021-05-27T11:49:24Z</time>
      </trkpt>
      <trkpt lat="47.70169" lon="-2.34265">
        <ele>52.1</ele>
        <time>2021-05-27T11:49:25Z</time>
      </trkpt>
      <trkpt lat="47.70171" lon="-2.34251">
        <ele>51.6</ele>
        <time>2021-05-27T11:49:26Z</time>
      </trkpt>
      <trkpt lat="47.70171" lon="-2.34251">
        <ele>51.6</ele>
        <time>2021-05-27T11:49:27Z</time>
      </trkpt>
      <trkpt lat="47.70171" lon="-2.3425">
        <ele>51.6</ele>
        <time>2021-05-27T11:49:28Z</time>
      </trkpt>
      <trkpt lat="47.7017" lon="-2.3425">
        <ele>51.6</ele>
        <time>2021-05-27T11:49:29Z</time>
      </trkpt>
      <trkpt lat="47.7017" lon="-2.3425">
        <ele>51.6</ele>
        <time>2021-05-27T11:49:30Z</time>
      </trkpt>
      <trkpt lat="47.7017" lon="-2.3425">
        <ele>51.6</ele>
        <time>2021-05-27T11:49:31Z</time>
      </trkpt>
      <trkpt lat="47.7017" lon="-2.3425">
        <ele>51.6</ele>
        <time>2021-05-27T11:49:32Z</time>
      </trkpt>
      <trkpt lat="47.7017" lon="-2.3425">
        <ele>51.6</ele>
        <time>2021-05-27T11:49:33Z</time>
      </trkpt>
      <trkpt lat="47.7017" lon="-2.34246">
        <ele>51.4</ele>
        <time>2021-05-27T11:49:34Z</time>
      </trkpt>
      <trkpt lat="47.70172" lon="-2.34243">
        <ele>51.1</ele>
        <time>2021-05-27T11:49:35Z</time>
      </trkpt>
      <trkpt lat="47.70174" lon="-2.34242">
        <ele>50.9</ele>
        <time>2021-05-27T11:49:36Z</time>
      </trkpt>
      <trkpt lat="47.70175" lon="-2.34239">
        <ele>50.6</ele>
        <time>2021-05-27T11:49:37Z</time>
      </trkpt>
      <trkpt lat="47.70177" lon="-2.34237">
        <ele>50.4</ele>
        <time>2021-05-27T11:49:38Z</time>
      </trkpt>
      <trkpt lat="47.70178" lon="-2.34234">
        <ele>50.2</ele>
        <time>2021-05-27T11:49:39Z</time>
      </trkpt>
      <trkpt lat="47.70178" lon="-2.34231">
        <ele>50</ele>
        <time>2021-05-27T11:49:40Z</time>
      </trkpt>
      <trkpt lat="47.70178" lon="-2.34226">
        <ele>49.8</ele>
        <time>2021-05-27T11:49:41Z</time>
      </trkpt>
      <trkpt lat="47.70177" lon="-2.34222">
        <ele>49.6</ele>
        <time>2021-05-27T11:49:42Z</time>
      </trkpt>
      <trkpt lat="47.70177" lon="-2.34216">
        <ele>49.3</ele>
        <time>2021-05-27T11:49:43Z</time>
      </trkpt>
      <trkpt lat="47.70176" lon="-2.34211">
        <ele>49.1</ele>
        <time>2021-05-27T11:49:44Z</time>
      </trkpt>
      <trkpt lat="47.70174" lon="-2.34204">
        <ele>48.9</ele>
        <time>2021-05-27T11:49:45Z</time>
      </trkpt>
      <trkpt lat="47.70172" lon="-2.34198">
        <ele>48.6</ele>
        <time>2021-05-27T11:49:46Z</time>
      </trkpt>
      <trkpt lat="47.7017" lon="-2.34191">
        <ele>48.3</ele>
        <time>2021-05-27T11:49:47Z</time>
      </trkpt>
      <trkpt lat="47.70168" lon="-2.34183">
        <ele>48</ele>
        <time>2021-05-27T11:49:48Z</time>
      </trkpt>
      <trkpt lat="47.70165" lon="-2.34175">
        <ele>47.7</ele>
        <time>2021-05-27T11:49:49Z</time>
      </trkpt>
      <trkpt lat="47.70164" lon="-2.34168">
        <ele>47.5</ele>
        <time>2021-05-27T11:49:50Z</time>
      </trkpt>
      <trkpt lat="47.70163" lon="-2.3416">
        <ele>47.3</ele>
        <time>2021-05-27T11:49:51Z</time>
      </trkpt>
      <trkpt lat="47.70162" lon="-2.34152">
        <ele>47</ele>
        <time>2021-05-27T11:49:52Z</time>
      </trkpt>
      <trkpt lat="47.70161" lon="-2.34143">
        <ele>46.7</ele>
        <time>2021-05-27T11:49:53Z</time>
      </trkpt>
      <trkpt lat="47.7016" lon="-2.34133">
        <ele>46.4</ele>
        <time>2021-05-27T11:49:54Z</time>
      </trkpt>
      <trkpt lat="47.70159" lon="-2.34123">
        <ele>46.2</ele>
        <time>2021-05-27T11:49:55Z</time>
      </trkpt>
      <trkpt lat="47.70156" lon="-2.34114">
        <ele>46.1</ele>
        <time>2021-05-27T11:49:56Z</time>
      </trkpt>
      <trkpt lat="47.70154" lon="-2.34105">
        <ele>46</ele>
        <time>2021-05-27T11:49:57Z</time>
      </trkpt>
      <trkpt lat="47.70153" lon="-2.34097">
        <ele>45.9</ele>
        <time>2021-05-27T11:49:58Z</time>
      </trkpt>
      <trkpt lat="47.70151" lon="-2.34089">
        <ele>45.8</ele>
        <time>2021-05-27T11:49:59Z</time>
      </trkpt>
      <trkpt lat="47.70149" lon="-2.34081">
        <ele>45.8</ele>
        <time>2021-05-27T11:50:00Z</time>
      </trkpt>
      <trkpt lat="47.70148" lon="-2.34075">
        <ele>45.7</ele>
        <time>2021-05-27T11:50:01Z</time>
      </trkpt>
      <trkpt lat="47.70147" lon="-2.34067">
        <ele>45.6</ele>
        <time>2021-05-27T11:50:02Z</time>
      </trkpt>
      <trkpt lat="47.70145" lon="-2.34061">
        <ele>45.5</ele>
        <time>2021-05-27T11:50:03Z</time>
      </trkpt>
      <trkpt lat="47.70144" lon="-2.34055">
        <ele>45.4</ele>
        <time>2021-05-27T11:50:04Z</time>
      </trkpt>
      <trkpt lat="47.70144" lon="-2.3405">
        <ele>45.3</ele>
        <time>2021-05-27T11:50:05Z</time>
      </trkpt>
      <trkpt lat="47.70143" lon="-2.34046">
        <ele>45.2</ele>
        <time>2021-05-27T11:50:06Z</time>
      </trkpt>
      <trkpt lat="47.70142" lon="-2.34041">
        <ele>45.1</ele>
        <time>2021-05-27T11:50:07Z</time>
      </trkpt>
      <trkpt lat="47.70141" lon="-2.34037">
        <ele>45</ele>
        <time>2021-05-27T11:50:08Z</time>
      </trkpt>
      <trkpt lat="47.70141" lon="-2.34033">
        <ele>44.8</ele>
        <time>2021-05-27T11:50:09Z</time>
      </trkpt>
      <trkpt lat="47.70142" lon="-2.34028">
        <ele>44.6</ele>
        <time>2021-05-27T11:50:10Z</time>
      </trkpt>
      <trkpt lat="47.70142" lon="-2.34025">
        <ele>44.3</ele>
        <time>2021-05-27T11:50:11Z</time>
      </trkpt>
      <trkpt lat="47.70144" lon="-2.34024">
        <ele>44</ele>
        <time>2021-05-27T11:50:12Z</time>
      </trkpt>
      <trkpt lat="47.70146" lon="-2.34023">
        <ele>43.6</ele>
        <time>2021-05-27T11:50:13Z</time>
      </trkpt>
      <trkpt lat="47.70149" lon="-2.34025">
        <ele>43.2</ele>
        <time>2021-05-27T11:50:14Z</time>
      </trkpt>
      <trkpt lat="47.70151" lon="-2.34027">
        <ele>42.9</ele>
        <time>2021-05-27T11:50:15Z</time>
      </trkpt>
      <trkpt lat="47.70155" lon="-2.34029">
        <ele>42.4</ele>
        <time>2021-05-27T11:50:16Z</time>
      </trkpt>
      <trkpt lat="47.70157" lon="-2.34031">
        <ele>42</ele>
        <time>2021-05-27T11:50:17Z</time>
      </trkpt>
      <trkpt lat="47.7016" lon="-2.34034">
        <ele>41.8</ele>
        <time>2021-05-27T11:50:18Z</time>
      </trkpt>
      <trkpt lat="47.70161" lon="-2.34036">
        <ele>41.7</ele>
        <time>2021-05-27T11:50:19Z</time>
      </trkpt>
      <trkpt lat="47.70163" lon="-2.34039">
        <ele>41.4</ele>
        <time>2021-05-27T11:50:20Z</time>
      </trkpt>
      <trkpt lat="47.70166" lon="-2.34041">
        <ele>41.1</ele>
        <time>2021-05-27T11:50:21Z</time>
      </trkpt>
      <trkpt lat="47.70168" lon="-2.34043">
        <ele>41.3</ele>
        <time>2021-05-27T11:50:22Z</time>
      </trkpt>
      <trkpt lat="47.70169" lon="-2.34045">
        <ele>41.7</ele>
        <time>2021-05-27T11:50:23Z</time>
      </trkpt>
      <trkpt lat="47.7017" lon="-2.34046">
        <ele>41.9</ele>
        <time>2021-05-27T11:50:24Z</time>
      </trkpt>
      <trkpt lat="47.70172" lon="-2.34046">
        <ele>42.2</ele>
        <time>2021-05-27T11:50:25Z</time>
      </trkpt>
      <trkpt lat="47.70173" lon="-2.34046">
        <ele>42.3</ele>
        <time>2021-05-27T11:50:26Z</time>
      </trkpt>
      <trkpt lat="47.70177" lon="-2.34047">
        <ele>43.1</ele>
        <time>2021-05-27T11:50:27Z</time>
      </trkpt>
      <trkpt lat="47.70181" lon="-2.34047">
        <ele>43.9</ele>
        <time>2021-05-27T11:50:28Z</time>
      </trkpt>
      <trkpt lat="47.70182" lon="-2.34048">
        <ele>44.1</ele>
        <time>2021-05-27T11:50:29Z</time>
      </trkpt>
      <trkpt lat="47.70182" lon="-2.34048">
        <ele>44.2</ele>
        <time>2021-05-27T11:50:30Z</time>
      </trkpt>
      <trkpt lat="47.70181" lon="-2.34048">
        <ele>44</ele>
        <time>2021-05-27T11:50:31Z</time>
      </trkpt>
      <trkpt lat="47.70182" lon="-2.34046">
        <ele>44.1</ele>
        <time>2021-05-27T11:50:32Z</time>
      </trkpt>
      <trkpt lat="47.70182" lon="-2.34045">
        <ele>44</ele>
        <time>2021-05-27T11:50:33Z</time>
      </trkpt>
      <trkpt lat="47.70182" lon="-2.34045">
        <ele>44</ele>
        <time>2021-05-27T11:50:34Z</time>
      </trkpt>
      <trkpt lat="47.70182" lon="-2.34045">
        <ele>44</ele>
        <time>2021-05-27T11:50:35Z</time>
      </trkpt>
      <trkpt lat="47.70184" lon="-2.34043">
        <ele>44.4</ele>
        <time>2021-05-27T11:50:36Z</time>
      </trkpt>
      <trkpt lat="47.70184" lon="-2.34043">
        <ele>44.4</ele>
        <time>2021-05-27T11:50:37Z</time>
      </trkpt>
      <trkpt lat="47.70183" lon="-2.34044">
        <ele>44.3</ele>
        <time>2021-05-27T11:50:38Z</time>
      </trkpt>
      <trkpt lat="47.70184" lon="-2.34042">
        <ele>44.3</ele>
        <time>2021-05-27T11:50:39Z</time>
      </trkpt>
      <trkpt lat="47.70184" lon="-2.34042">
        <ele>44.3</ele>
        <time>2021-05-27T11:50:40Z</time>
      </trkpt>
      <trkpt lat="47.70184" lon="-2.34042">
        <ele>44.3</ele>
        <time>2021-05-27T11:50:41Z</time>
      </trkpt>
      <trkpt lat="47.70184" lon="-2.34042">
        <ele>44.3</ele>
        <time>2021-05-27T11:50:42Z</time>
      </trkpt>
      <trkpt lat="47.70184" lon="-2.34042">
        <ele>44.3</ele>
        <time>2021-05-27T11:50:43Z</time>
      </trkpt>
      <trkpt lat="47.70184" lon="-2.34042">
        <ele>44.3</ele>
        <time>2021-05-27T11:50:44Z</time>
      </trkpt>
      <trkpt lat="47.70184" lon="-2.34042">
        <ele>44.3</ele>
        <time>2021-05-27T11:50:45Z</time>
      </trkpt>
      <trkpt lat="47.70184" lon="-2.34042">
        <ele>44.3</ele>
        <time>2021-05-27T11:50:46Z</time>
      </trkpt>
      <trkpt lat="47.70184" lon="-2.34042">
        <ele>44.3</ele>
        <time>2021-05-27T11:50:47Z</time>
      </trkpt>
      <trkpt lat="47.70184" lon="-2.34042">
        <ele>44.3</ele>
        <time>2021-05-27T11:50:48Z</time>
      </trkpt>
      <trkpt lat="47.70184" lon="-2.34042">
        <ele>44.3</ele>
        <time>2021-05-27T11:50:49Z</time>
      </trkpt>
      <trkpt lat="47.70184" lon="-2.34042">
        <ele>44.3</ele>
        <time>2021-05-27T11:50:50Z</time>
      </trkpt>
      <trkpt lat="47.70184" lon="-2.34042">
        <ele>44.3</ele>
        <time>2021-05-27T11:50:51Z</time>
      </trkpt>
      <trkpt lat="47.70184" lon="-2.34042">
        <ele>44.3</ele>
        <time>2021-05-27T11:50:52Z</time>
      </trkpt>
      <trkpt lat="47.70184" lon="-2.34042">
        <ele>44.3</ele>
        <time>2021-05-27T11:50:53Z</time>
      </trkpt>
      <trkpt lat="47.70184" lon="-2.34042">
        <ele>44.3</ele>
        <time>2021-05-27T11:50:54Z</time>
      </trkpt>
      <trkpt lat="47.70189" lon="-2.34032">
        <ele>45.1</ele>
        <time>2021-05-27T11:50:55Z</time>
      </trkpt>
      <trkpt lat="47.7019" lon="-2.34031">
        <ele>45.1</ele>
        <time>2021-05-27T11:50:56Z</time>
      </trkpt>
      <trkpt lat="47.7019" lon="-2.34031">
        <ele>45.2</ele>
        <time>2021-05-27T11:50:57Z</time>
      </trkpt>
      <trkpt lat="47.7019" lon="-2.34034">
        <ele>45.3</ele>
        <time>2021-05-27T11:50:58Z</time>
      </trkpt>
      <trkpt lat="47.7019" lon="-2.34039">
        <ele>45.5</ele>
        <time>2021-05-27T11:50:59Z</time>
      </trkpt>
      <trkpt lat="47.70192" lon="-2.34045">
        <ele>46</ele>
        <time>2021-05-27T11:51:00Z</time>
      </trkpt>
      <trkpt lat="47.70192" lon="-2.34049">
        <ele>46.1</ele>
        <time>2021-05-27T11:51:01Z</time>
      </trkpt>
      <trkpt lat="47.70194" lon="-2.34052">
        <ele>46.5</ele>
        <time>2021-05-27T11:51:02Z</time>
      </trkpt>
      <trkpt lat="47.70194" lon="-2.34055">
        <ele>46.6</ele>
        <time>2021-05-27T11:51:03Z</time>
      </trkpt>
      <trkpt lat="47.70194" lon="-2.34058">
        <ele>46.6</ele>
        <time>2021-05-27T11:51:04Z</time>
      </trkpt>
      <trkpt lat="47.70195" lon="-2.34062">
        <ele>46.9</ele>
        <time>2021-05-27T11:51:05Z</time>
      </trkpt>
      <trkpt lat="47.70196" lon="-2.34065">
        <ele>47.2</ele>
        <time>2021-05-27T11:51:06Z</time>
      </trkpt>
      <trkpt lat="47.70199" lon="-2.34069">
        <ele>47.7</ele>
        <time>2021-05-27T11:51:07Z</time>
      </trkpt>
      <trkpt lat="47.702" lon="-2.34073">
        <ele>47.9</ele>
        <time>2021-05-27T11:51:08Z</time>
      </trkpt>
      <trkpt lat="47.70199" lon="-2.3408">
        <ele>48</ele>
        <time>2021-05-27T11:51:09Z</time>
      </trkpt>
      <trkpt lat="47.702" lon="-2.34085">
        <ele>48.2</ele>
        <time>2021-05-27T11:51:10Z</time>
      </trkpt>
      <trkpt lat="47.70202" lon="-2.34091">
        <ele>48.3</ele>
        <time>2021-05-27T11:51:11Z</time>
      </trkpt>
      <trkpt lat="47.70203" lon="-2.34095">
        <ele>48.3</ele>
        <time>2021-05-27T11:51:12Z</time>
      </trkpt>
      <trkpt lat="47.70203" lon="-2.34099">
        <ele>48.2</ele>
        <time>2021-05-27T11:51:13Z</time>
      </trkpt>
      <trkpt lat="47.70203" lon="-2.34104">
        <ele>48.1</ele>
        <time>2021-05-27T11:51:14Z</time>
      </trkpt>
      <trkpt lat="47.70202" lon="-2.34108">
        <ele>47.9</ele>
        <time>2021-05-27T11:51:15Z</time>
      </trkpt>
      <trkpt lat="47.70201" lon="-2.34113">
        <ele>47.7</ele>
        <time>2021-05-27T11:51:16Z</time>
      </trkpt>
      <trkpt lat="47.70202" lon="-2.34119">
        <ele>47.7</ele>
        <time>2021-05-27T11:51:17Z</time>
      </trkpt>
      <trkpt lat="47.70203" lon="-2.34124">
        <ele>47.7</ele>
        <time>2021-05-27T11:51:18Z</time>
      </trkpt>
      <trkpt lat="47.70205" lon="-2.34128">
        <ele>47.7</ele>
        <time>2021-05-27T11:51:19Z</time>
      </trkpt>
      <trkpt lat="47.70206" lon="-2.34132">
        <ele>47.6</ele>
        <time>2021-05-27T11:51:20Z</time>
      </trkpt>
      <trkpt lat="47.70206" lon="-2.34135">
        <ele>47.5</ele>
        <time>2021-05-27T11:51:21Z</time>
      </trkpt>
      <trkpt lat="47.70206" lon="-2.34138">
        <ele>47.4</ele>
        <time>2021-05-27T11:51:22Z</time>
      </trkpt>
      <trkpt lat="47.70207" lon="-2.34141">
        <ele>47.4</ele>
        <time>2021-05-27T11:51:23Z</time>
      </trkpt>
      <trkpt lat="47.70209" lon="-2.34143">
        <ele>47.4</ele>
        <time>2021-05-27T11:51:24Z</time>
      </trkpt>
      <trkpt lat="47.70212" lon="-2.34146">
        <ele>47.4</ele>
        <time>2021-05-27T11:51:25Z</time>
      </trkpt>
      <trkpt lat="47.70214" lon="-2.3415">
        <ele>47.2</ele>
        <time>2021-05-27T11:51:26Z</time>
      </trkpt>
      <trkpt lat="47.70216" lon="-2.34155">
        <ele>47</ele>
        <time>2021-05-27T11:51:27Z</time>
      </trkpt>
      <trkpt lat="47.70216" lon="-2.34161">
        <ele>46.7</ele>
        <time>2021-05-27T11:51:28Z</time>
      </trkpt>
      <trkpt lat="47.70217" lon="-2.34166">
        <ele>46.4</ele>
        <time>2021-05-27T11:51:29Z</time>
      </trkpt>
      <trkpt lat="47.70218" lon="-2.34171">
        <ele>46.4</ele>
        <time>2021-05-27T11:51:30Z</time>
      </trkpt>
      <trkpt lat="47.7022" lon="-2.34177">
        <ele>46.4</ele>
        <time>2021-05-27T11:51:31Z</time>
      </trkpt>
      <trkpt lat="47.70222" lon="-2.34183">
        <ele>46.4</ele>
        <time>2021-05-27T11:51:32Z</time>
      </trkpt>
      <trkpt lat="47.70224" lon="-2.34189">
        <ele>46.4</ele>
        <time>2021-05-27T11:51:33Z</time>
      </trkpt>
      <trkpt lat="47.70228" lon="-2.34194">
        <ele>46.2</ele>
        <time>2021-05-27T11:51:34Z</time>
      </trkpt>
      <trkpt lat="47.70231" lon="-2.34199">
        <ele>46.1</ele>
        <time>2021-05-27T11:51:35Z</time>
      </trkpt>
      <trkpt lat="47.70235" lon="-2.34204">
        <ele>45.9</ele>
        <time>2021-05-27T11:51:36Z</time>
      </trkpt>
      <trkpt lat="47.70237" lon="-2.3421">
        <ele>45.7</ele>
        <time>2021-05-27T11:51:37Z</time>
      </trkpt>
      <trkpt lat="47.70238" lon="-2.34214">
        <ele>45.6</ele>
        <time>2021-05-27T11:51:38Z</time>
      </trkpt>
      <trkpt lat="47.70239" lon="-2.34218">
        <ele>45.4</ele>
        <time>2021-05-27T11:51:39Z</time>
      </trkpt>
      <trkpt lat="47.70241" lon="-2.34223">
        <ele>45.3</ele>
        <time>2021-05-27T11:51:40Z</time>
      </trkpt>
      <trkpt lat="47.70244" lon="-2.34228">
        <ele>45</ele>
        <time>2021-05-27T11:51:41Z</time>
      </trkpt>
      <trkpt lat="47.70246" lon="-2.34232">
        <ele>44.8</ele>
        <time>2021-05-27T11:51:42Z</time>
      </trkpt>
      <trkpt lat="47.70248" lon="-2.34236">
        <ele>44.5</ele>
        <time>2021-05-27T11:51:43Z</time>
      </trkpt>
      <trkpt lat="47.70249" lon="-2.3424">
        <ele>44.3</ele>
        <time>2021-05-27T11:51:44Z</time>
      </trkpt>
      <trkpt lat="47.70249" lon="-2.34245">
        <ele>44.2</ele>
        <time>2021-05-27T11:51:45Z</time>
      </trkpt>
      <trkpt lat="47.70249" lon="-2.34249">
        <ele>44.2</ele>
        <time>2021-05-27T11:51:46Z</time>
      </trkpt>
      <trkpt lat="47.70249" lon="-2.34252">
        <ele>44.1</ele>
        <time>2021-05-27T11:51:47Z</time>
      </trkpt>
      <trkpt lat="47.70249" lon="-2.34255">
        <ele>44.2</ele>
        <time>2021-05-27T11:51:48Z</time>
      </trkpt>
      <trkpt lat="47.70251" lon="-2.34259">
        <ele>44.4</ele>
        <time>2021-05-27T11:51:49Z</time>
      </trkpt>
      <trkpt lat="47.70252" lon="-2.34263">
        <ele>44.8</ele>
        <time>2021-05-27T11:51:50Z</time>
      </trkpt>
      <trkpt lat="47.70253" lon="-2.34267">
        <ele>45.2</ele>
        <time>2021-05-27T11:51:51Z</time>
      </trkpt>
      <trkpt lat="47.70255" lon="-2.34272">
        <ele>45.7</ele>
        <time>2021-05-27T11:51:52Z</time>
      </trkpt>
      <trkpt lat="47.70255" lon="-2.34277">
        <ele>46</ele>
        <time>2021-05-27T11:51:53Z</time>
      </trkpt>
      <trkpt lat="47.70258" lon="-2.34284">
        <ele>46.7</ele>
        <time>2021-05-27T11:51:54Z</time>
      </trkpt>
      <trkpt lat="47.7026" lon="-2.34291">
        <ele>47.4</ele>
        <time>2021-05-27T11:51:55Z</time>
      </trkpt>
      <trkpt lat="47.70262" lon="-2.34298">
        <ele>47.9</ele>
        <time>2021-05-27T11:51:56Z</time>
      </trkpt>
      <trkpt lat="47.70262" lon="-2.34306">
        <ele>48.2</ele>
        <time>2021-05-27T11:51:57Z</time>
      </trkpt>
      <trkpt lat="47.70263" lon="-2.34313">
        <ele>48.6</ele>
        <time>2021-05-27T11:51:58Z</time>
      </trkpt>
      <trkpt lat="47.70265" lon="-2.3432">
        <ele>49.1</ele>
        <time>2021-05-27T11:51:59Z</time>
      </trkpt>
      <trkpt lat="47.70267" lon="-2.34326">
        <ele>49.8</ele>
        <time>2021-05-27T11:52:00Z</time>
      </trkpt>
      <trkpt lat="47.70268" lon="-2.34332">
        <ele>50.1</ele>
        <time>2021-05-27T11:52:01Z</time>
      </trkpt>
      <trkpt lat="47.70269" lon="-2.34338">
        <ele>50.4</ele>
        <time>2021-05-27T11:52:02Z</time>
      </trkpt>
      <trkpt lat="47.70271" lon="-2.34342">
        <ele>50.5</ele>
        <time>2021-05-27T11:52:03Z</time>
      </trkpt>
      <trkpt lat="47.70271" lon="-2.34346">
        <ele>50.6</ele>
        <time>2021-05-27T11:52:04Z</time>
      </trkpt>
      <trkpt lat="47.70272" lon="-2.34351">
        <ele>50.6</ele>
        <time>2021-05-27T11:52:05Z</time>
      </trkpt>
      <trkpt lat="47.70273" lon="-2.34356">
        <ele>50.8</ele>
        <time>2021-05-27T11:52:06Z</time>
      </trkpt>
      <trkpt lat="47.70274" lon="-2.34362">
        <ele>50.9</ele>
        <time>2021-05-27T11:52:07Z</time>
      </trkpt>
      <trkpt lat="47.70276" lon="-2.34368">
        <ele>51.1</ele>
        <time>2021-05-27T11:52:08Z</time>
      </trkpt>
      <trkpt lat="47.70276" lon="-2.34374">
        <ele>51</ele>
        <time>2021-05-27T11:52:09Z</time>
      </trkpt>
      <trkpt lat="47.70276" lon="-2.3438">
        <ele>50.9</ele>
        <time>2021-05-27T11:52:10Z</time>
      </trkpt>
      <trkpt lat="47.70276" lon="-2.34386">
        <ele>50.8</ele>
        <time>2021-05-27T11:52:11Z</time>
      </trkpt>
      <trkpt lat="47.70277" lon="-2.34393">
        <ele>50.7</ele>
        <time>2021-05-27T11:52:12Z</time>
      </trkpt>
      <trkpt lat="47.70277" lon="-2.34401">
        <ele>50.6</ele>
        <time>2021-05-27T11:52:13Z</time>
      </trkpt>
      <trkpt lat="47.70278" lon="-2.34407">
        <ele>50.6</ele>
        <time>2021-05-27T11:52:14Z</time>
      </trkpt>
      <trkpt lat="47.7028" lon="-2.34413">
        <ele>50.8</ele>
        <time>2021-05-27T11:52:15Z</time>
      </trkpt>
      <trkpt lat="47.70281" lon="-2.34419">
        <ele>50.9</ele>
        <time>2021-05-27T11:52:16Z</time>
      </trkpt>
      <trkpt lat="47.70283" lon="-2.34425">
        <ele>50.9</ele>
        <time>2021-05-27T11:52:17Z</time>
      </trkpt>
      <trkpt lat="47.70286" lon="-2.34432">
        <ele>51.3</ele>
        <time>2021-05-27T11:52:18Z</time>
      </trkpt>
      <trkpt lat="47.70288" lon="-2.34437">
        <ele>51.3</ele>
        <time>2021-05-27T11:52:19Z</time>
      </trkpt>
      <trkpt lat="47.7029" lon="-2.34443">
        <ele>51.4</ele>
        <time>2021-05-27T11:52:20Z</time>
      </trkpt>
      <trkpt lat="47.70292" lon="-2.34447">
        <ele>51.6</ele>
        <time>2021-05-27T11:52:21Z</time>
      </trkpt>
      <trkpt lat="47.70294" lon="-2.34452">
        <ele>51.7</ele>
        <time>2021-05-27T11:52:22Z</time>
      </trkpt>
      <trkpt lat="47.70294" lon="-2.34457">
        <ele>51.6</ele>
        <time>2021-05-27T11:52:23Z</time>
      </trkpt>
      <trkpt lat="47.70295" lon="-2.3446">
        <ele>51.5</ele>
        <time>2021-05-27T11:52:24Z</time>
      </trkpt>
      <trkpt lat="47.70295" lon="-2.34465">
        <ele>51.4</ele>
        <time>2021-05-27T11:52:25Z</time>
      </trkpt>
      <trkpt lat="47.70296" lon="-2.3447">
        <ele>51.3</ele>
        <time>2021-05-27T11:52:26Z</time>
      </trkpt>
      <trkpt lat="47.70297" lon="-2.34472">
        <ele>51.4</ele>
        <time>2021-05-27T11:52:27Z</time>
      </trkpt>
      <trkpt lat="47.70299" lon="-2.34475">
        <ele>51.6</ele>
        <time>2021-05-27T11:52:28Z</time>
      </trkpt>
      <trkpt lat="47.70298" lon="-2.34482">
        <ele>51.2</ele>
        <time>2021-05-27T11:52:29Z</time>
      </trkpt>
      <trkpt lat="47.70298" lon="-2.34489">
        <ele>50.8</ele>
        <time>2021-05-27T11:52:30Z</time>
      </trkpt>
      <trkpt lat="47.70298" lon="-2.34495">
        <ele>50.4</ele>
        <time>2021-05-27T11:52:31Z</time>
      </trkpt>
      <trkpt lat="47.70298" lon="-2.34502">
        <ele>50.2</ele>
        <time>2021-05-27T11:52:32Z</time>
      </trkpt>
      <trkpt lat="47.70298" lon="-2.34509">
        <ele>50.1</ele>
        <time>2021-05-27T11:52:33Z</time>
      </trkpt>
      <trkpt lat="47.70299" lon="-2.34514">
        <ele>50</ele>
        <time>2021-05-27T11:52:34Z</time>
      </trkpt>
      <trkpt lat="47.70299" lon="-2.34519">
        <ele>50</ele>
        <time>2021-05-27T11:52:35Z</time>
      </trkpt>
      <trkpt lat="47.70301" lon="-2.34527">
        <ele>50</ele>
        <time>2021-05-27T11:52:36Z</time>
      </trkpt>
      <trkpt lat="47.70301" lon="-2.34533">
        <ele>50</ele>
        <time>2021-05-27T11:52:37Z</time>
      </trkpt>
      <trkpt lat="47.70302" lon="-2.3454">
        <ele>49.9</ele>
        <time>2021-05-27T11:52:38Z</time>
      </trkpt>
      <trkpt lat="47.70303" lon="-2.34539">
        <ele>50</ele>
        <time>2021-05-27T11:53:06Z</time>
      </trkpt>
      <trkpt lat="47.70303" lon="-2.34539">
        <ele>50.1</ele>
        <time>2021-05-27T11:53:07Z</time>
      </trkpt>
      <trkpt lat="47.70304" lon="-2.3454">
        <ele>50.3</ele>
        <time>2021-05-27T11:53:08Z</time>
      </trkpt>
      <trkpt lat="47.70305" lon="-2.34541">
        <ele>50.3</ele>
        <time>2021-05-27T11:53:09Z</time>
      </trkpt>
      <trkpt lat="47.70306" lon="-2.34542">
        <ele>50.5</ele>
        <time>2021-05-27T11:53:10Z</time>
      </trkpt>
      <trkpt lat="47.70307" lon="-2.34542">
        <ele>50.8</ele>
        <time>2021-05-27T11:53:11Z</time>
      </trkpt>
      <trkpt lat="47.70308" lon="-2.34542">
        <ele>51</ele>
        <time>2021-05-27T11:53:12Z</time>
      </trkpt>
      <trkpt lat="47.70308" lon="-2.34542">
        <ele>50.9</ele>
        <time>2021-05-27T11:53:13Z</time>
      </trkpt>
      <trkpt lat="47.70308" lon="-2.34542">
        <ele>51</ele>
        <time>2021-05-27T11:53:14Z</time>
      </trkpt>
      <trkpt lat="47.70308" lon="-2.34542">
        <ele>51</ele>
        <time>2021-05-27T11:53:15Z</time>
      </trkpt>
      <trkpt lat="47.70308" lon="-2.34542">
        <ele>51</ele>
        <time>2021-05-27T11:53:16Z</time>
      </trkpt>
      <trkpt lat="47.70308" lon="-2.34542">
        <ele>51</ele>
        <time>2021-05-27T11:53:17Z</time>
      </trkpt>
      <trkpt lat="47.70308" lon="-2.34542">
        <ele>51</ele>
        <time>2021-05-27T11:53:18Z</time>
      </trkpt>
      <trkpt lat="47.70308" lon="-2.34542">
        <ele>51</ele>
        <time>2021-05-27T11:53:19Z</time>
      </trkpt>
      <trkpt lat="47.70309" lon="-2.34545">
        <ele>51</ele>
        <time>2021-05-27T11:53:20Z</time>
      </trkpt>
      <trkpt lat="47.7031" lon="-2.34546">
        <ele>51.1</ele>
        <time>2021-05-27T11:53:21Z</time>
      </trkpt>
      <trkpt lat="47.70311" lon="-2.34548">
        <ele>51.3</ele>
        <time>2021-05-27T11:53:22Z</time>
      </trkpt>
      <trkpt lat="47.70311" lon="-2.34549">
        <ele>51.3</ele>
        <time>2021-05-27T11:53:23Z</time>
      </trkpt>
      <trkpt lat="47.70311" lon="-2.34551">
        <ele>51.2</ele>
        <time>2021-05-27T11:53:24Z</time>
      </trkpt>
      <trkpt lat="47.70312" lon="-2.34551">
        <ele>51.3</ele>
        <time>2021-05-27T11:53:25Z</time>
      </trkpt>
      <trkpt lat="47.70312" lon="-2.34554">
        <ele>51.3</ele>
        <time>2021-05-27T11:53:26Z</time>
      </trkpt>
      <trkpt lat="47.70314" lon="-2.34556">
        <ele>51.6</ele>
        <time>2021-05-27T11:53:27Z</time>
      </trkpt>
      <trkpt lat="47.70316" lon="-2.34559">
        <ele>51.9</ele>
        <time>2021-05-27T11:53:28Z</time>
      </trkpt>
      <trkpt lat="47.70317" lon="-2.34563">
        <ele>51.9</ele>
        <time>2021-05-27T11:53:29Z</time>
      </trkpt>
      <trkpt lat="47.70318" lon="-2.34566">
        <ele>51.9</ele>
        <time>2021-05-27T11:53:30Z</time>
      </trkpt>
      <trkpt lat="47.70319" lon="-2.34568">
        <ele>52.1</ele>
        <time>2021-05-27T11:53:31Z</time>
      </trkpt>
      <trkpt lat="47.70321" lon="-2.34571">
        <ele>52.4</ele>
        <time>2021-05-27T11:53:32Z</time>
      </trkpt>
      <trkpt lat="47.70323" lon="-2.34573">
        <ele>52.5</ele>
        <time>2021-05-27T11:53:33Z</time>
      </trkpt>
      <trkpt lat="47.70323" lon="-2.34578">
        <ele>52.5</ele>
        <time>2021-05-27T11:53:34Z</time>
      </trkpt>
      <trkpt lat="47.70325" lon="-2.34581">
        <ele>52.7</ele>
        <time>2021-05-27T11:53:35Z</time>
      </trkpt>
      <trkpt lat="47.70327" lon="-2.34583">
        <ele>52.9</ele>
        <time>2021-05-27T11:53:36Z</time>
      </trkpt>
      <trkpt lat="47.70328" lon="-2.34585">
        <ele>53</ele>
        <time>2021-05-27T11:53:37Z</time>
      </trkpt>
      <trkpt lat="47.70331" lon="-2.34586">
        <ele>53.3</ele>
        <time>2021-05-27T11:53:38Z</time>
      </trkpt>
      <trkpt lat="47.7033" lon="-2.34585">
        <ele>53.2</ele>
        <time>2021-05-27T11:53:39Z</time>
      </trkpt>
      <trkpt lat="47.7033" lon="-2.34585">
        <ele>53.2</ele>
        <time>2021-05-27T11:53:40Z</time>
      </trkpt>
      <trkpt lat="47.7033" lon="-2.34585">
        <ele>53.2</ele>
        <time>2021-05-27T11:53:41Z</time>
      </trkpt>
      <trkpt lat="47.7033" lon="-2.34585">
        <ele>53.2</ele>
        <time>2021-05-27T11:53:42Z</time>
      </trkpt>
      <trkpt lat="47.7033" lon="-2.34585">
        <ele>53.2</ele>
        <time>2021-05-27T11:53:43Z</time>
      </trkpt>
      <trkpt lat="47.7033" lon="-2.34585">
        <ele>53.2</ele>
        <time>2021-05-27T11:53:44Z</time>
      </trkpt>
      <trkpt lat="47.7033" lon="-2.34585">
        <ele>53.2</ele>
        <time>2021-05-27T11:53:45Z</time>
      </trkpt>
      <trkpt lat="47.7033" lon="-2.34585">
        <ele>53.2</ele>
        <time>2021-05-27T11:53:46Z</time>
      </trkpt>
      <trkpt lat="47.7033" lon="-2.34585">
        <ele>53.2</ele>
        <time>2021-05-27T11:53:47Z</time>
      </trkpt>
      <trkpt lat="47.7033" lon="-2.34585">
        <ele>53.2</ele>
        <time>2021-05-27T11:53:48Z</time>
      </trkpt>
      <trkpt lat="47.7033" lon="-2.34585">
        <ele>53.2</ele>
        <time>2021-05-27T11:53:49Z</time>
      </trkpt>
      <trkpt lat="47.7033" lon="-2.34585">
        <ele>53.2</ele>
        <time>2021-05-27T11:53:50Z</time>
      </trkpt>
      <trkpt lat="47.7033" lon="-2.34585">
        <ele>53.2</ele>
        <time>2021-05-27T11:53:51Z</time>
      </trkpt>
      <trkpt lat="47.70325" lon="-2.34598">
        <ele>51.4</ele>
        <time>2021-05-27T11:53:52Z</time>
      </trkpt>
      <trkpt lat="47.70323" lon="-2.34601">
        <ele>50.7</ele>
        <time>2021-05-27T11:53:53Z</time>
      </trkpt>
      <trkpt lat="47.70322" lon="-2.34603">
        <ele>50.4</ele>
        <time>2021-05-27T11:53:54Z</time>
      </trkpt>
      <trkpt lat="47.7032" lon="-2.34604">
        <ele>50</ele>
        <time>2021-05-27T11:53:55Z</time>
      </trkpt>
      <trkpt lat="47.70319" lon="-2.34607">
        <ele>49.6</ele>
        <time>2021-05-27T11:53:56Z</time>
      </trkpt>
      <trkpt lat="47.70317" lon="-2.34611">
        <ele>49</ele>
        <time>2021-05-27T11:53:57Z</time>
      </trkpt>
      <trkpt lat="47.70318" lon="-2.34616">
        <ele>48.8</ele>
        <time>2021-05-27T11:53:58Z</time>
      </trkpt>
      <trkpt lat="47.70319" lon="-2.34619">
        <ele>48.6</ele>
        <time>2021-05-27T11:53:59Z</time>
      </trkpt>
      <trkpt lat="47.70319" lon="-2.34623">
        <ele>48.3</ele>
        <time>2021-05-27T11:54:00Z</time>
      </trkpt>
      <trkpt lat="47.7032" lon="-2.34625">
        <ele>48.3</ele>
        <time>2021-05-27T11:54:01Z</time>
      </trkpt>
      <trkpt lat="47.70321" lon="-2.34627">
        <ele>48.2</ele>
        <time>2021-05-27T11:54:02Z</time>
      </trkpt>
      <trkpt lat="47.70322" lon="-2.3463">
        <ele>48.1</ele>
        <time>2021-05-27T11:54:03Z</time>
      </trkpt>
      <trkpt lat="47.70322" lon="-2.34632">
        <ele>47.9</ele>
        <time>2021-05-27T11:54:04Z</time>
      </trkpt>
      <trkpt lat="47.70324" lon="-2.34634">
        <ele>48</ele>
        <time>2021-05-27T11:54:05Z</time>
      </trkpt>
      <trkpt lat="47.70328" lon="-2.34636">
        <ele>48.3</ele>
        <time>2021-05-27T11:54:06Z</time>
      </trkpt>
      <trkpt lat="47.7033" lon="-2.34638">
        <ele>48.4</ele>
        <time>2021-05-27T11:54:07Z</time>
      </trkpt>
      <trkpt lat="47.70332" lon="-2.3464">
        <ele>48.4</ele>
        <time>2021-05-27T11:54:08Z</time>
      </trkpt>
      <trkpt lat="47.70334" lon="-2.34643">
        <ele>48.5</ele>
        <time>2021-05-27T11:54:09Z</time>
      </trkpt>
      <trkpt lat="47.70336" lon="-2.34644">
        <ele>48.8</ele>
        <time>2021-05-27T11:54:10Z</time>
      </trkpt>
      <trkpt lat="47.70337" lon="-2.34647">
        <ele>48.7</ele>
        <time>2021-05-27T11:54:11Z</time>
      </trkpt>
      <trkpt lat="47.70338" lon="-2.3465">
        <ele>48.8</ele>
        <time>2021-05-27T11:54:12Z</time>
      </trkpt>
      <trkpt lat="47.7034" lon="-2.34652">
        <ele>48.9</ele>
        <time>2021-05-27T11:54:13Z</time>
      </trkpt>
      <trkpt lat="47.70341" lon="-2.34654">
        <ele>48.9</ele>
        <time>2021-05-27T11:54:14Z</time>
      </trkpt>
      <trkpt lat="47.70343" lon="-2.34658">
        <ele>48.9</ele>
        <time>2021-05-27T11:54:15Z</time>
      </trkpt>
      <trkpt lat="47.70344" lon="-2.34661">
        <ele>48.9</ele>
        <time>2021-05-27T11:54:16Z</time>
      </trkpt>
      <trkpt lat="47.70344" lon="-2.34665">
        <ele>48.6</ele>
        <time>2021-05-27T11:54:17Z</time>
      </trkpt>
      <trkpt lat="47.70345" lon="-2.3467">
        <ele>48.5</ele>
        <time>2021-05-27T11:54:18Z</time>
      </trkpt>
      <trkpt lat="47.70346" lon="-2.34674">
        <ele>48.7</ele>
        <time>2021-05-27T11:54:19Z</time>
      </trkpt>
      <trkpt lat="47.70348" lon="-2.34677">
        <ele>48.9</ele>
        <time>2021-05-27T11:54:20Z</time>
      </trkpt>
      <trkpt lat="47.7035" lon="-2.34683">
        <ele>49.2</ele>
        <time>2021-05-27T11:54:21Z</time>
      </trkpt>
      <trkpt lat="47.70353" lon="-2.34687">
        <ele>49.6</ele>
        <time>2021-05-27T11:54:22Z</time>
      </trkpt>
      <trkpt lat="47.70354" lon="-2.34689">
        <ele>49.9</ele>
        <time>2021-05-27T11:54:23Z</time>
      </trkpt>
      <trkpt lat="47.70355" lon="-2.34691">
        <ele>50</ele>
        <time>2021-05-27T11:54:24Z</time>
      </trkpt>
      <trkpt lat="47.70357" lon="-2.34693">
        <ele>50.2</ele>
        <time>2021-05-27T11:54:25Z</time>
      </trkpt>
      <trkpt lat="47.70358" lon="-2.34695">
        <ele>50.5</ele>
        <time>2021-05-27T11:54:26Z</time>
      </trkpt>
      <trkpt lat="47.70359" lon="-2.34699">
        <ele>50.6</ele>
        <time>2021-05-27T11:54:27Z</time>
      </trkpt>
      <trkpt lat="47.7036" lon="-2.34701">
        <ele>50.8</ele>
        <time>2021-05-27T11:54:28Z</time>
      </trkpt>
      <trkpt lat="47.70361" lon="-2.34704">
        <ele>50.9</ele>
        <time>2021-05-27T11:54:29Z</time>
      </trkpt>
      <trkpt lat="47.70362" lon="-2.34706">
        <ele>51</ele>
        <time>2021-05-27T11:54:30Z</time>
      </trkpt>
      <trkpt lat="47.70363" lon="-2.34709">
        <ele>51</ele>
        <time>2021-05-27T11:54:31Z</time>
      </trkpt>
      <trkpt lat="47.70363" lon="-2.34712">
        <ele>51</ele>
        <time>2021-05-27T11:54:32Z</time>
      </trkpt>
      <trkpt lat="47.70363" lon="-2.34716">
        <ele>50.8</ele>
        <time>2021-05-27T11:54:33Z</time>
      </trkpt>
      <trkpt lat="47.70364" lon="-2.3472">
        <ele>50.7</ele>
        <time>2021-05-27T11:54:34Z</time>
      </trkpt>
      <trkpt lat="47.70364" lon="-2.34724">
        <ele>50.7</ele>
        <time>2021-05-27T11:54:35Z</time>
      </trkpt>
      <trkpt lat="47.70365" lon="-2.34729">
        <ele>50.7</ele>
        <time>2021-05-27T11:54:36Z</time>
      </trkpt>
      <trkpt lat="47.70366" lon="-2.3473">
        <ele>51</ele>
        <time>2021-05-27T11:54:37Z</time>
      </trkpt>
      <trkpt lat="47.70369" lon="-2.3473">
        <ele>51.4</ele>
        <time>2021-05-27T11:54:38Z</time>
      </trkpt>
      <trkpt lat="47.70371" lon="-2.34732">
        <ele>51.9</ele>
        <time>2021-05-27T11:54:39Z</time>
      </trkpt>
      <trkpt lat="47.70373" lon="-2.34732">
        <ele>52.3</ele>
        <time>2021-05-27T11:54:40Z</time>
      </trkpt>
      <trkpt lat="47.70374" lon="-2.34735">
        <ele>52.4</ele>
        <time>2021-05-27T11:54:41Z</time>
      </trkpt>
      <trkpt lat="47.70375" lon="-2.34739">
        <ele>52.5</ele>
        <time>2021-05-27T11:54:42Z</time>
      </trkpt>
      <trkpt lat="47.70377" lon="-2.34744">
        <ele>52.6</ele>
        <time>2021-05-27T11:54:43Z</time>
      </trkpt>
      <trkpt lat="47.70379" lon="-2.34748">
        <ele>52.9</ele>
        <time>2021-05-27T11:54:44Z</time>
      </trkpt>
      <trkpt lat="47.70381" lon="-2.34751">
        <ele>53.2</ele>
        <time>2021-05-27T11:54:45Z</time>
      </trkpt>
      <trkpt lat="47.70382" lon="-2.34755">
        <ele>53.3</ele>
        <time>2021-05-27T11:54:46Z</time>
      </trkpt>
      <trkpt lat="47.70383" lon="-2.3476">
        <ele>53.3</ele>
        <time>2021-05-27T11:54:47Z</time>
      </trkpt>
      <trkpt lat="47.70384" lon="-2.34767">
        <ele>53.3</ele>
        <time>2021-05-27T11:54:48Z</time>
      </trkpt>
      <trkpt lat="47.70385" lon="-2.34771">
        <ele>53.2</ele>
        <time>2021-05-27T11:54:49Z</time>
      </trkpt>
      <trkpt lat="47.70387" lon="-2.34775">
        <ele>53.3</ele>
        <time>2021-05-27T11:54:50Z</time>
      </trkpt>
      <trkpt lat="47.70387" lon="-2.34779">
        <ele>53.2</ele>
        <time>2021-05-27T11:54:51Z</time>
      </trkpt>
      <trkpt lat="47.70389" lon="-2.34785">
        <ele>53.2</ele>
        <time>2021-05-27T11:54:52Z</time>
      </trkpt>
      <trkpt lat="47.70391" lon="-2.34791">
        <ele>53.4</ele>
        <time>2021-05-27T11:54:53Z</time>
      </trkpt>
      <trkpt lat="47.70393" lon="-2.34797">
        <ele>53.6</ele>
        <time>2021-05-27T11:54:54Z</time>
      </trkpt>
      <trkpt lat="47.70395" lon="-2.34801">
        <ele>53.7</ele>
        <time>2021-05-27T11:54:55Z</time>
      </trkpt>
      <trkpt lat="47.70397" lon="-2.34804">
        <ele>53.9</ele>
        <time>2021-05-27T11:54:56Z</time>
      </trkpt>
      <trkpt lat="47.70398" lon="-2.34807">
        <ele>54</ele>
        <time>2021-05-27T11:54:57Z</time>
      </trkpt>
      <trkpt lat="47.70399" lon="-2.34811">
        <ele>54</ele>
        <time>2021-05-27T11:54:58Z</time>
      </trkpt>
      <trkpt lat="47.70401" lon="-2.34818">
        <ele>54</ele>
        <time>2021-05-27T11:54:59Z</time>
      </trkpt>
      <trkpt lat="47.70403" lon="-2.34822">
        <ele>54</ele>
        <time>2021-05-27T11:55:00Z</time>
      </trkpt>
      <trkpt lat="47.70404" lon="-2.34826">
        <ele>54.1</ele>
        <time>2021-05-27T11:55:01Z</time>
      </trkpt>
      <trkpt lat="47.70406" lon="-2.34829">
        <ele>54.3</ele>
        <time>2021-05-27T11:55:02Z</time>
      </trkpt>
      <trkpt lat="47.70407" lon="-2.34833">
        <ele>54.4</ele>
        <time>2021-05-27T11:55:03Z</time>
      </trkpt>
      <trkpt lat="47.70409" lon="-2.34836">
        <ele>54.4</ele>
        <time>2021-05-27T11:55:04Z</time>
      </trkpt>
      <trkpt lat="47.7041" lon="-2.34839">
        <ele>54.6</ele>
        <time>2021-05-27T11:55:05Z</time>
      </trkpt>
      <trkpt lat="47.70411" lon="-2.34841">
        <ele>54.7</ele>
        <time>2021-05-27T11:55:06Z</time>
      </trkpt>
      <trkpt lat="47.70413" lon="-2.34844">
        <ele>54.9</ele>
        <time>2021-05-27T11:55:07Z</time>
      </trkpt>
      <trkpt lat="47.70414" lon="-2.34847">
        <ele>55</ele>
        <time>2021-05-27T11:55:08Z</time>
      </trkpt>
      <trkpt lat="47.70416" lon="-2.34849">
        <ele>55.1</ele>
        <time>2021-05-27T11:55:09Z</time>
      </trkpt>
      <trkpt lat="47.70417" lon="-2.34852">
        <ele>55.3</ele>
        <time>2021-05-27T11:55:10Z</time>
      </trkpt>
      <trkpt lat="47.70419" lon="-2.34857">
        <ele>55.4</ele>
        <time>2021-05-27T11:55:11Z</time>
      </trkpt>
      <trkpt lat="47.7042" lon="-2.34864">
        <ele>55.3</ele>
        <time>2021-05-27T11:55:12Z</time>
      </trkpt>
      <trkpt lat="47.70421" lon="-2.34868">
        <ele>55.5</ele>
        <time>2021-05-27T11:55:13Z</time>
      </trkpt>
      <trkpt lat="47.70422" lon="-2.34872">
        <ele>55.4</ele>
        <time>2021-05-27T11:55:14Z</time>
      </trkpt>
      <trkpt lat="47.70423" lon="-2.34875">
        <ele>55.5</ele>
        <time>2021-05-27T11:55:15Z</time>
      </trkpt>
      <trkpt lat="47.70425" lon="-2.34878">
        <ele>55.8</ele>
        <time>2021-05-27T11:55:16Z</time>
      </trkpt>
      <trkpt lat="47.70425" lon="-2.34881">
        <ele>55.8</ele>
        <time>2021-05-27T11:55:17Z</time>
      </trkpt>
      <trkpt lat="47.70426" lon="-2.34884">
        <ele>55.9</ele>
        <time>2021-05-27T11:55:18Z</time>
      </trkpt>
      <trkpt lat="47.70427" lon="-2.34887">
        <ele>55.9</ele>
        <time>2021-05-27T11:55:19Z</time>
      </trkpt>
      <trkpt lat="47.70427" lon="-2.34892">
        <ele>55.8</ele>
        <time>2021-05-27T11:55:20Z</time>
      </trkpt>
      <trkpt lat="47.70428" lon="-2.34896">
        <ele>55.8</ele>
        <time>2021-05-27T11:55:21Z</time>
      </trkpt>
      <trkpt lat="47.70429" lon="-2.34899">
        <ele>55.9</ele>
        <time>2021-05-27T11:55:22Z</time>
      </trkpt>
      <trkpt lat="47.70429" lon="-2.349">
        <ele>55.9</ele>
        <time>2021-05-27T11:55:23Z</time>
      </trkpt>
      <trkpt lat="47.70429" lon="-2.34902">
        <ele>55.9</ele>
        <time>2021-05-27T11:55:24Z</time>
      </trkpt>
      <trkpt lat="47.7043" lon="-2.34902">
        <ele>56.1</ele>
        <time>2021-05-27T11:55:25Z</time>
      </trkpt>
      <trkpt lat="47.7043" lon="-2.34902">
        <ele>56.1</ele>
        <time>2021-05-27T11:55:26Z</time>
      </trkpt>
      <trkpt lat="47.7043" lon="-2.34902">
        <ele>56.1</ele>
        <time>2021-05-27T11:55:27Z</time>
      </trkpt>
      <trkpt lat="47.7043" lon="-2.34902">
        <ele>56.1</ele>
        <time>2021-05-27T11:55:28Z</time>
      </trkpt>
      <trkpt lat="47.7043" lon="-2.34902">
        <ele>56.1</ele>
        <time>2021-05-27T11:55:29Z</time>
      </trkpt>
      <trkpt lat="47.7043" lon="-2.34902">
        <ele>56.1</ele>
        <time>2021-05-27T11:55:30Z</time>
      </trkpt>
      <trkpt lat="47.7043" lon="-2.34902">
        <ele>56.1</ele>
        <time>2021-05-27T11:55:31Z</time>
      </trkpt>
      <trkpt lat="47.7043" lon="-2.34902">
        <ele>56.1</ele>
        <time>2021-05-27T11:55:32Z</time>
      </trkpt>
      <trkpt lat="47.7043" lon="-2.34902">
        <ele>56.1</ele>
        <time>2021-05-27T11:55:33Z</time>
      </trkpt>
      <trkpt lat="47.7043" lon="-2.34902">
        <ele>56.1</ele>
        <time>2021-05-27T11:55:34Z</time>
      </trkpt>
      <trkpt lat="47.7043" lon="-2.34902">
        <ele>56.1</ele>
        <time>2021-05-27T11:55:35Z</time>
      </trkpt>
      <trkpt lat="47.7043" lon="-2.34902">
        <ele>56.1</ele>
        <time>2021-05-27T11:55:36Z</time>
      </trkpt>
      <trkpt lat="47.7043" lon="-2.34902">
        <ele>56.1</ele>
        <time>2021-05-27T11:55:37Z</time>
      </trkpt>
      <trkpt lat="47.7043" lon="-2.34902">
        <ele>56.1</ele>
        <time>2021-05-27T11:55:38Z</time>
      </trkpt>
      <trkpt lat="47.70435" lon="-2.34905">
        <ele>57</ele>
        <time>2021-05-27T11:55:39Z</time>
      </trkpt>
      <trkpt lat="47.70434" lon="-2.34907">
        <ele>56.8</ele>
        <time>2021-05-27T11:55:40Z</time>
      </trkpt>
      <trkpt lat="47.70434" lon="-2.34911">
        <ele>56.7</ele>
        <time>2021-05-27T11:55:41Z</time>
      </trkpt>
      <trkpt lat="47.70435" lon="-2.34915">
        <ele>56.7</ele>
        <time>2021-05-27T11:55:42Z</time>
      </trkpt>
      <trkpt lat="47.70435" lon="-2.34919">
        <ele>56.7</ele>
        <time>2021-05-27T11:55:43Z</time>
      </trkpt>
      <trkpt lat="47.70436" lon="-2.34922">
        <ele>56.9</ele>
        <time>2021-05-27T11:55:44Z</time>
      </trkpt>
      <trkpt lat="47.70437" lon="-2.34925">
        <ele>57.2</ele>
        <time>2021-05-27T11:55:45Z</time>
      </trkpt>
      <trkpt lat="47.70438" lon="-2.34929">
        <ele>57.3</ele>
        <time>2021-05-27T11:55:46Z</time>
      </trkpt>
      <trkpt lat="47.70439" lon="-2.34932">
        <ele>57.4</ele>
        <time>2021-05-27T11:55:47Z</time>
      </trkpt>
      <trkpt lat="47.70439" lon="-2.34935">
        <ele>57.6</ele>
        <time>2021-05-27T11:55:48Z</time>
      </trkpt>
      <trkpt lat="47.7044" lon="-2.34938">
        <ele>57.7</ele>
        <time>2021-05-27T11:55:49Z</time>
      </trkpt>
      <trkpt lat="47.70441" lon="-2.3494">
        <ele>58</ele>
        <time>2021-05-27T11:55:50Z</time>
      </trkpt>
      <trkpt lat="47.70442" lon="-2.34943">
        <ele>58.1</ele>
        <time>2021-05-27T11:55:51Z</time>
      </trkpt>
      <trkpt lat="47.70442" lon="-2.34946">
        <ele>58.2</ele>
        <time>2021-05-27T11:55:52Z</time>
      </trkpt>
      <trkpt lat="47.70444" lon="-2.3495">
        <ele>58.6</ele>
        <time>2021-05-27T11:55:53Z</time>
      </trkpt>
      <trkpt lat="47.70446" lon="-2.34953">
        <ele>59.1</ele>
        <time>2021-05-27T11:55:54Z</time>
      </trkpt>
      <trkpt lat="47.70447" lon="-2.34955">
        <ele>59.3</ele>
        <time>2021-05-27T11:55:55Z</time>
      </trkpt>
      <trkpt lat="47.70448" lon="-2.34958">
        <ele>59.4</ele>
        <time>2021-05-27T11:55:56Z</time>
      </trkpt>
      <trkpt lat="47.70449" lon="-2.34961">
        <ele>59.6</ele>
        <time>2021-05-27T11:55:57Z</time>
      </trkpt>
      <trkpt lat="47.7045" lon="-2.34964">
        <ele>59.9</ele>
        <time>2021-05-27T11:55:58Z</time>
      </trkpt>
      <trkpt lat="47.70451" lon="-2.34968">
        <ele>60.2</ele>
        <time>2021-05-27T11:55:59Z</time>
      </trkpt>
      <trkpt lat="47.70452" lon="-2.34972">
        <ele>60.4</ele>
        <time>2021-05-27T11:56:00Z</time>
      </trkpt>
      <trkpt lat="47.70453" lon="-2.34975">
        <ele>60.7</ele>
        <time>2021-05-27T11:56:01Z</time>
      </trkpt>
      <trkpt lat="47.70454" lon="-2.3498">
        <ele>60.8</ele>
        <time>2021-05-27T11:56:02Z</time>
      </trkpt>
      <trkpt lat="47.70455" lon="-2.34984">
        <ele>60.8</ele>
        <time>2021-05-27T11:56:03Z</time>
      </trkpt>
      <trkpt lat="47.70456" lon="-2.34988">
        <ele>61</ele>
        <time>2021-05-27T11:56:04Z</time>
      </trkpt>
      <trkpt lat="47.70456" lon="-2.34993">
        <ele>61</ele>
        <time>2021-05-27T11:56:05Z</time>
      </trkpt>
      <trkpt lat="47.70456" lon="-2.34997">
        <ele>61.1</ele>
        <time>2021-05-27T11:56:06Z</time>
      </trkpt>
      <trkpt lat="47.70458" lon="-2.35001">
        <ele>61.5</ele>
        <time>2021-05-27T11:56:07Z</time>
      </trkpt>
      <trkpt lat="47.7046" lon="-2.35004">
        <ele>61.9</ele>
        <time>2021-05-27T11:56:08Z</time>
      </trkpt>
      <trkpt lat="47.70462" lon="-2.35007">
        <ele>62.2</ele>
        <time>2021-05-27T11:56:09Z</time>
      </trkpt>
      <trkpt lat="47.70462" lon="-2.3501">
        <ele>62.2</ele>
        <time>2021-05-27T11:56:10Z</time>
      </trkpt>
      <trkpt lat="47.70462" lon="-2.35014">
        <ele>62.3</ele>
        <time>2021-05-27T11:56:11Z</time>
      </trkpt>
      <trkpt lat="47.70465" lon="-2.35018">
        <ele>62.8</ele>
        <time>2021-05-27T11:56:12Z</time>
      </trkpt>
      <trkpt lat="47.70467" lon="-2.3502">
        <ele>63.2</ele>
        <time>2021-05-27T11:56:13Z</time>
      </trkpt>
      <trkpt lat="47.70468" lon="-2.35023">
        <ele>63.4</ele>
        <time>2021-05-27T11:56:14Z</time>
      </trkpt>
      <trkpt lat="47.70469" lon="-2.35026">
        <ele>63.5</ele>
        <time>2021-05-27T11:56:15Z</time>
      </trkpt>
      <trkpt lat="47.70469" lon="-2.3503">
        <ele>63.7</ele>
        <time>2021-05-27T11:56:16Z</time>
      </trkpt>
      <trkpt lat="47.7047" lon="-2.35033">
        <ele>63.8</ele>
        <time>2021-05-27T11:56:17Z</time>
      </trkpt>
      <trkpt lat="47.70471" lon="-2.35037">
        <ele>63.9</ele>
        <time>2021-05-27T11:56:18Z</time>
      </trkpt>
      <trkpt lat="47.70472" lon="-2.35041">
        <ele>64.1</ele>
        <time>2021-05-27T11:56:19Z</time>
      </trkpt>
      <trkpt lat="47.70473" lon="-2.35045">
        <ele>64.4</ele>
        <time>2021-05-27T11:56:20Z</time>
      </trkpt>
      <trkpt lat="47.70475" lon="-2.3505">
        <ele>64.5</ele>
        <time>2021-05-27T11:56:21Z</time>
      </trkpt>
      <trkpt lat="47.70476" lon="-2.35054">
        <ele>64.7</ele>
        <time>2021-05-27T11:56:22Z</time>
      </trkpt>
      <trkpt lat="47.70477" lon="-2.35057">
        <ele>65</ele>
        <time>2021-05-27T11:56:23Z</time>
      </trkpt>
      <trkpt lat="47.70478" lon="-2.3506">
        <ele>65.1</ele>
        <time>2021-05-27T11:56:24Z</time>
      </trkpt>
      <trkpt lat="47.70479" lon="-2.35063">
        <ele>65.2</ele>
        <time>2021-05-27T11:56:25Z</time>
      </trkpt>
      <trkpt lat="47.70479" lon="-2.35067">
        <ele>65.2</ele>
        <time>2021-05-27T11:56:26Z</time>
      </trkpt>
      <trkpt lat="47.70479" lon="-2.3507">
        <ele>65.2</ele>
        <time>2021-05-27T11:56:27Z</time>
      </trkpt>
      <trkpt lat="47.70479" lon="-2.35072">
        <ele>65.1</ele>
        <time>2021-05-27T11:56:28Z</time>
      </trkpt>
      <trkpt lat="47.70478" lon="-2.35074">
        <ele>64.8</ele>
        <time>2021-05-27T11:56:29Z</time>
      </trkpt>
      <trkpt lat="47.70478" lon="-2.35074">
        <ele>64.8</ele>
        <time>2021-05-27T11:56:30Z</time>
      </trkpt>
      <trkpt lat="47.70478" lon="-2.35074">
        <ele>64.8</ele>
        <time>2021-05-27T11:56:31Z</time>
      </trkpt>
      <trkpt lat="47.70478" lon="-2.35074">
        <ele>64.8</ele>
        <time>2021-05-27T11:56:32Z</time>
      </trkpt>
      <trkpt lat="47.70478" lon="-2.35074">
        <ele>64.8</ele>
        <time>2021-05-27T11:56:33Z</time>
      </trkpt>
      <trkpt lat="47.70478" lon="-2.35074">
        <ele>64.8</ele>
        <time>2021-05-27T11:56:34Z</time>
      </trkpt>
      <trkpt lat="47.70477" lon="-2.35086">
        <ele>64.5</ele>
        <time>2021-05-27T11:56:35Z</time>
      </trkpt>
      <trkpt lat="47.70479" lon="-2.35092">
        <ele>64.7</ele>
        <time>2021-05-27T11:56:36Z</time>
      </trkpt>
      <trkpt lat="47.7048" lon="-2.35096">
        <ele>64.7</ele>
        <time>2021-05-27T11:56:37Z</time>
      </trkpt>
      <trkpt lat="47.70481" lon="-2.35099">
        <ele>64.8</ele>
        <time>2021-05-27T11:56:38Z</time>
      </trkpt>
      <trkpt lat="47.70481" lon="-2.35101">
        <ele>64.8</ele>
        <time>2021-05-27T11:56:39Z</time>
      </trkpt>
      <trkpt lat="47.70482" lon="-2.35103">
        <ele>64.8</ele>
        <time>2021-05-27T11:56:40Z</time>
      </trkpt>
      <trkpt lat="47.70482" lon="-2.35106">
        <ele>64.7</ele>
        <time>2021-05-27T11:56:41Z</time>
      </trkpt>
      <trkpt lat="47.70482" lon="-2.35109">
        <ele>64.6</ele>
        <time>2021-05-27T11:56:42Z</time>
      </trkpt>
      <trkpt lat="47.70483" lon="-2.35112">
        <ele>64.7</ele>
        <time>2021-05-27T11:56:43Z</time>
      </trkpt>
      <trkpt lat="47.70484" lon="-2.35116">
        <ele>64.8</ele>
        <time>2021-05-27T11:56:44Z</time>
      </trkpt>
      <trkpt lat="47.70484" lon="-2.3512">
        <ele>64.7</ele>
        <time>2021-05-27T11:56:45Z</time>
      </trkpt>
      <trkpt lat="47.70484" lon="-2.35126">
        <ele>64.4</ele>
        <time>2021-05-27T11:56:46Z</time>
      </trkpt>
      <trkpt lat="47.70485" lon="-2.35132">
        <ele>64.5</ele>
        <time>2021-05-27T11:56:47Z</time>
      </trkpt>
      <trkpt lat="47.70486" lon="-2.35139">
        <ele>64.4</ele>
        <time>2021-05-27T11:56:48Z</time>
      </trkpt>
      <trkpt lat="47.70485" lon="-2.35146">
        <ele>64</ele>
        <time>2021-05-27T11:56:49Z</time>
      </trkpt>
      <trkpt lat="47.70484" lon="-2.35153">
        <ele>63.6</ele>
        <time>2021-05-27T11:56:50Z</time>
      </trkpt>
      <trkpt lat="47.70483" lon="-2.35159">
        <ele>63.2</ele>
        <time>2021-05-27T11:56:51Z</time>
      </trkpt>
      <trkpt lat="47.70482" lon="-2.35163">
        <ele>62.9</ele>
        <time>2021-05-27T11:56:52Z</time>
      </trkpt>
      <trkpt lat="47.70481" lon="-2.35168">
        <ele>62.6</ele>
        <time>2021-05-27T11:56:53Z</time>
      </trkpt>
      <trkpt lat="47.70479" lon="-2.35172">
        <ele>62.1</ele>
        <time>2021-05-27T11:56:54Z</time>
      </trkpt>
      <trkpt lat="47.70477" lon="-2.35177">
        <ele>61.7</ele>
        <time>2021-05-27T11:56:55Z</time>
      </trkpt>
      <trkpt lat="47.70474" lon="-2.35183">
        <ele>61.2</ele>
        <time>2021-05-27T11:56:56Z</time>
      </trkpt>
      <trkpt lat="47.70471" lon="-2.35189">
        <ele>60.5</ele>
        <time>2021-05-27T11:56:57Z</time>
      </trkpt>
      <trkpt lat="47.70467" lon="-2.35195">
        <ele>59.8</ele>
        <time>2021-05-27T11:56:58Z</time>
      </trkpt>
      <trkpt lat="47.70464" lon="-2.35199">
        <ele>59.2</ele>
        <time>2021-05-27T11:56:59Z</time>
      </trkpt>
      <trkpt lat="47.7046" lon="-2.35202">
        <ele>58.4</ele>
        <time>2021-05-27T11:57:00Z</time>
      </trkpt>
      <trkpt lat="47.70456" lon="-2.35206">
        <ele>57.6</ele>
        <time>2021-05-27T11:57:01Z</time>
      </trkpt>
      <trkpt lat="47.70452" lon="-2.35211">
        <ele>56.8</ele>
        <time>2021-05-27T11:57:02Z</time>
      </trkpt>
      <trkpt lat="47.70448" lon="-2.35216">
        <ele>56</ele>
        <time>2021-05-27T11:57:03Z</time>
      </trkpt>
      <trkpt lat="47.70443" lon="-2.35221">
        <ele>55.2</ele>
        <time>2021-05-27T11:57:04Z</time>
      </trkpt>
      <trkpt lat="47.70438" lon="-2.35227">
        <ele>54.1</ele>
        <time>2021-05-27T11:57:05Z</time>
      </trkpt>
      <trkpt lat="47.70434" lon="-2.3523">
        <ele>53.3</ele>
        <time>2021-05-27T11:57:06Z</time>
      </trkpt>
      <trkpt lat="47.70429" lon="-2.35231">
        <ele>52.5</ele>
        <time>2021-05-27T11:57:07Z</time>
      </trkpt>
      <trkpt lat="47.70425" lon="-2.35232">
        <ele>51.8</ele>
        <time>2021-05-27T11:57:08Z</time>
      </trkpt>
      <trkpt lat="47.70423" lon="-2.35232">
        <ele>51.4</ele>
        <time>2021-05-27T11:57:09Z</time>
      </trkpt>
      <trkpt lat="47.70421" lon="-2.35234">
        <ele>50.9</ele>
        <time>2021-05-27T11:57:10Z</time>
      </trkpt>
      <trkpt lat="47.7042" lon="-2.35237">
        <ele>50.7</ele>
        <time>2021-05-27T11:57:11Z</time>
      </trkpt>
      <trkpt lat="47.7042" lon="-2.35241">
        <ele>50.6</ele>
        <time>2021-05-27T11:57:12Z</time>
      </trkpt>
      <trkpt lat="47.7042" lon="-2.35247">
        <ele>50.6</ele>
        <time>2021-05-27T11:57:13Z</time>
      </trkpt>
      <trkpt lat="47.7042" lon="-2.35251">
        <ele>50.7</ele>
        <time>2021-05-27T11:57:14Z</time>
      </trkpt>
      <trkpt lat="47.70421" lon="-2.35258">
        <ele>50.7</ele>
        <time>2021-05-27T11:57:15Z</time>
      </trkpt>
      <trkpt lat="47.70421" lon="-2.35264">
        <ele>50.7</ele>
        <time>2021-05-27T11:57:16Z</time>
      </trkpt>
      <trkpt lat="47.70421" lon="-2.35271">
        <ele>50.5</ele>
        <time>2021-05-27T11:57:17Z</time>
      </trkpt>
      <trkpt lat="47.7042" lon="-2.35278">
        <ele>50.3</ele>
        <time>2021-05-27T11:57:18Z</time>
      </trkpt>
      <trkpt lat="47.7042" lon="-2.35283">
        <ele>50.3</ele>
        <time>2021-05-27T11:57:19Z</time>
      </trkpt>
      <trkpt lat="47.7042" lon="-2.35288">
        <ele>50.2</ele>
        <time>2021-05-27T11:57:20Z</time>
      </trkpt>
      <trkpt lat="47.7042" lon="-2.35293">
        <ele>50.1</ele>
        <time>2021-05-27T11:57:21Z</time>
      </trkpt>
      <trkpt lat="47.7042" lon="-2.35298">
        <ele>50.1</ele>
        <time>2021-05-27T11:57:22Z</time>
      </trkpt>
      <trkpt lat="47.7042" lon="-2.35304">
        <ele>49.9</ele>
        <time>2021-05-27T11:57:23Z</time>
      </trkpt>
      <trkpt lat="47.7042" lon="-2.35308">
        <ele>49.8</ele>
        <time>2021-05-27T11:57:24Z</time>
      </trkpt>
      <trkpt lat="47.70417" lon="-2.35317">
        <ele>49.3</ele>
        <time>2021-05-27T11:57:25Z</time>
      </trkpt>
      <trkpt lat="47.70416" lon="-2.35323">
        <ele>49.1</ele>
        <time>2021-05-27T11:57:26Z</time>
      </trkpt>
      <trkpt lat="47.70415" lon="-2.35327">
        <ele>49</ele>
        <time>2021-05-27T11:57:27Z</time>
      </trkpt>
      <trkpt lat="47.70415" lon="-2.35334">
        <ele>48.9</ele>
        <time>2021-05-27T11:57:28Z</time>
      </trkpt>
      <trkpt lat="47.70414" lon="-2.35341">
        <ele>49</ele>
        <time>2021-05-27T11:57:29Z</time>
      </trkpt>
      <trkpt lat="47.70413" lon="-2.35349">
        <ele>49</ele>
        <time>2021-05-27T11:57:30Z</time>
      </trkpt>
      <trkpt lat="47.70412" lon="-2.35356">
        <ele>49</ele>
        <time>2021-05-27T11:57:31Z</time>
      </trkpt>
      <trkpt lat="47.70412" lon="-2.35362">
        <ele>49.1</ele>
        <time>2021-05-27T11:57:32Z</time>
      </trkpt>
      <trkpt lat="47.70412" lon="-2.3537">
        <ele>49.2</ele>
        <time>2021-05-27T11:57:33Z</time>
      </trkpt>
      <trkpt lat="47.70412" lon="-2.35376">
        <ele>49.3</ele>
        <time>2021-05-27T11:57:34Z</time>
      </trkpt>
      <trkpt lat="47.7041" lon="-2.35386">
        <ele>49.3</ele>
        <time>2021-05-27T11:57:35Z</time>
      </trkpt>
      <trkpt lat="47.70407" lon="-2.35395">
        <ele>49.3</ele>
        <time>2021-05-27T11:57:36Z</time>
      </trkpt>
      <trkpt lat="47.70407" lon="-2.35401">
        <ele>49.4</ele>
        <time>2021-05-27T11:57:37Z</time>
      </trkpt>
      <trkpt lat="47.70406" lon="-2.35408">
        <ele>49.4</ele>
        <time>2021-05-27T11:57:38Z</time>
      </trkpt>
      <trkpt lat="47.70402" lon="-2.35415">
        <ele>49.3</ele>
        <time>2021-05-27T11:57:39Z</time>
      </trkpt>
      <trkpt lat="47.704" lon="-2.3542">
        <ele>49.2</ele>
        <time>2021-05-27T11:57:40Z</time>
      </trkpt>
      <trkpt lat="47.704" lon="-2.35426">
        <ele>49.3</ele>
        <time>2021-05-27T11:57:41Z</time>
      </trkpt>
      <trkpt lat="47.704" lon="-2.35431">
        <ele>49.3</ele>
        <time>2021-05-27T11:57:42Z</time>
      </trkpt>
      <trkpt lat="47.704" lon="-2.35438">
        <ele>49.4</ele>
        <time>2021-05-27T11:57:43Z</time>
      </trkpt>
      <trkpt lat="47.70401" lon="-2.35444">
        <ele>49.5</ele>
        <time>2021-05-27T11:57:44Z</time>
      </trkpt>
      <trkpt lat="47.70401" lon="-2.35451">
        <ele>49.6</ele>
        <time>2021-05-27T11:57:45Z</time>
      </trkpt>
      <trkpt lat="47.70401" lon="-2.35458">
        <ele>49.6</ele>
        <time>2021-05-27T11:57:46Z</time>
      </trkpt>
      <trkpt lat="47.704" lon="-2.35464">
        <ele>49.7</ele>
        <time>2021-05-27T11:57:47Z</time>
      </trkpt>
      <trkpt lat="47.70401" lon="-2.3547">
        <ele>49.7</ele>
        <time>2021-05-27T11:57:48Z</time>
      </trkpt>
      <trkpt lat="47.70402" lon="-2.35476">
        <ele>49.8</ele>
        <time>2021-05-27T11:57:49Z</time>
      </trkpt>
      <trkpt lat="47.70403" lon="-2.35481">
        <ele>49.8</ele>
        <time>2021-05-27T11:57:50Z</time>
      </trkpt>
      <trkpt lat="47.70403" lon="-2.35487">
        <ele>49.9</ele>
        <time>2021-05-27T11:57:51Z</time>
      </trkpt>
      <trkpt lat="47.70404" lon="-2.35494">
        <ele>50</ele>
        <time>2021-05-27T11:57:52Z</time>
      </trkpt>
      <trkpt lat="47.70405" lon="-2.35502">
        <ele>50</ele>
        <time>2021-05-27T11:57:53Z</time>
      </trkpt>
      <trkpt lat="47.70407" lon="-2.3551">
        <ele>50.2</ele>
        <time>2021-05-27T11:57:54Z</time>
      </trkpt>
      <trkpt lat="47.70408" lon="-2.35516">
        <ele>50.4</ele>
        <time>2021-05-27T11:57:55Z</time>
      </trkpt>
      <trkpt lat="47.70409" lon="-2.35523">
        <ele>50.5</ele>
        <time>2021-05-27T11:57:56Z</time>
      </trkpt>
      <trkpt lat="47.7041" lon="-2.35529">
        <ele>50.7</ele>
        <time>2021-05-27T11:57:57Z</time>
      </trkpt>
      <trkpt lat="47.7041" lon="-2.35536">
        <ele>50.8</ele>
        <time>2021-05-27T11:57:58Z</time>
      </trkpt>
      <trkpt lat="47.7041" lon="-2.35544">
        <ele>51</ele>
        <time>2021-05-27T11:57:59Z</time>
      </trkpt>
      <trkpt lat="47.7041" lon="-2.3555">
        <ele>51.2</ele>
        <time>2021-05-27T11:58:00Z</time>
      </trkpt>
      <trkpt lat="47.7041" lon="-2.35556">
        <ele>51.3</ele>
        <time>2021-05-27T11:58:01Z</time>
      </trkpt>
      <trkpt lat="47.7041" lon="-2.35562">
        <ele>51.4</ele>
        <time>2021-05-27T11:58:02Z</time>
      </trkpt>
      <trkpt lat="47.7041" lon="-2.35568">
        <ele>51.6</ele>
        <time>2021-05-27T11:58:03Z</time>
      </trkpt>
      <trkpt lat="47.7041" lon="-2.35573">
        <ele>51.7</ele>
        <time>2021-05-27T11:58:04Z</time>
      </trkpt>
      <trkpt lat="47.70411" lon="-2.35578">
        <ele>51.8</ele>
        <time>2021-05-27T11:58:05Z</time>
      </trkpt>
      <trkpt lat="47.70412" lon="-2.35581">
        <ele>51.9</ele>
        <time>2021-05-27T11:58:06Z</time>
      </trkpt>
      <trkpt lat="47.70412" lon="-2.35586">
        <ele>52</ele>
        <time>2021-05-27T11:58:07Z</time>
      </trkpt>
      <trkpt lat="47.70412" lon="-2.35591">
        <ele>52</ele>
        <time>2021-05-27T11:58:08Z</time>
      </trkpt>
      <trkpt lat="47.70412" lon="-2.35595">
        <ele>52.1</ele>
        <time>2021-05-27T11:58:09Z</time>
      </trkpt>
      <trkpt lat="47.70413" lon="-2.356">
        <ele>52.1</ele>
        <time>2021-05-27T11:58:10Z</time>
      </trkpt>
      <trkpt lat="47.70414" lon="-2.35606">
        <ele>52.2</ele>
        <time>2021-05-27T11:58:11Z</time>
      </trkpt>
      <trkpt lat="47.70416" lon="-2.35614">
        <ele>52.4</ele>
        <time>2021-05-27T11:58:12Z</time>
      </trkpt>
      <trkpt lat="47.70417" lon="-2.35619">
        <ele>52.6</ele>
        <time>2021-05-27T11:58:13Z</time>
      </trkpt>
      <trkpt lat="47.70419" lon="-2.35624">
        <ele>52.9</ele>
        <time>2021-05-27T11:58:14Z</time>
      </trkpt>
      <trkpt lat="47.7042" lon="-2.35628">
        <ele>53.2</ele>
        <time>2021-05-27T11:58:15Z</time>
      </trkpt>
      <trkpt lat="47.70422" lon="-2.35632">
        <ele>53.5</ele>
        <time>2021-05-27T11:58:16Z</time>
      </trkpt>
      <trkpt lat="47.70423" lon="-2.35636">
        <ele>53.8</ele>
        <time>2021-05-27T11:58:17Z</time>
      </trkpt>
      <trkpt lat="47.70424" lon="-2.3564">
        <ele>54.1</ele>
        <time>2021-05-27T11:58:18Z</time>
      </trkpt>
      <trkpt lat="47.70426" lon="-2.35646">
        <ele>54.4</ele>
        <time>2021-05-27T11:58:19Z</time>
      </trkpt>
      <trkpt lat="47.70427" lon="-2.35651">
        <ele>54.7</ele>
        <time>2021-05-27T11:58:20Z</time>
      </trkpt>
      <trkpt lat="47.7043" lon="-2.35657">
        <ele>55.2</ele>
        <time>2021-05-27T11:58:21Z</time>
      </trkpt>
      <trkpt lat="47.70432" lon="-2.35663">
        <ele>55.6</ele>
        <time>2021-05-27T11:58:22Z</time>
      </trkpt>
      <trkpt lat="47.70433" lon="-2.35668">
        <ele>55.9</ele>
        <time>2021-05-27T11:58:23Z</time>
      </trkpt>
      <trkpt lat="47.70435" lon="-2.35674">
        <ele>56</ele>
        <time>2021-05-27T11:58:24Z</time>
      </trkpt>
      <trkpt lat="47.70435" lon="-2.35679">
        <ele>55.9</ele>
        <time>2021-05-27T11:58:25Z</time>
      </trkpt>
      <trkpt lat="47.70436" lon="-2.35684">
        <ele>55.9</ele>
        <time>2021-05-27T11:58:26Z</time>
      </trkpt>
      <trkpt lat="47.70437" lon="-2.35688">
        <ele>55.9</ele>
        <time>2021-05-27T11:58:27Z</time>
      </trkpt>
      <trkpt lat="47.70439" lon="-2.35693">
        <ele>56.1</ele>
        <time>2021-05-27T11:58:28Z</time>
      </trkpt>
      <trkpt lat="47.7044" lon="-2.35697">
        <ele>56.1</ele>
        <time>2021-05-27T11:58:29Z</time>
      </trkpt>
      <trkpt lat="47.70442" lon="-2.357">
        <ele>56.3</ele>
        <time>2021-05-27T11:58:30Z</time>
      </trkpt>
      <trkpt lat="47.70443" lon="-2.35704">
        <ele>56.4</ele>
        <time>2021-05-27T11:58:31Z</time>
      </trkpt>
      <trkpt lat="47.70444" lon="-2.35707">
        <ele>56.4</ele>
        <time>2021-05-27T11:58:32Z</time>
      </trkpt>
      <trkpt lat="47.70444" lon="-2.3571">
        <ele>56.4</ele>
        <time>2021-05-27T11:58:33Z</time>
      </trkpt>
      <trkpt lat="47.70444" lon="-2.35714">
        <ele>56.3</ele>
        <time>2021-05-27T11:58:34Z</time>
      </trkpt>
      <trkpt lat="47.70444" lon="-2.35717">
        <ele>56.1</ele>
        <time>2021-05-27T11:58:35Z</time>
      </trkpt>
      <trkpt lat="47.70444" lon="-2.35721">
        <ele>56</ele>
        <time>2021-05-27T11:58:36Z</time>
      </trkpt>
      <trkpt lat="47.70444" lon="-2.35724">
        <ele>55.9</ele>
        <time>2021-05-27T11:58:37Z</time>
      </trkpt>
      <trkpt lat="47.70444" lon="-2.35727">
        <ele>55.8</ele>
        <time>2021-05-27T11:58:38Z</time>
      </trkpt>
      <trkpt lat="47.70443" lon="-2.35728">
        <ele>55.6</ele>
        <time>2021-05-27T11:58:39Z</time>
      </trkpt>
      <trkpt lat="47.70443" lon="-2.35728">
        <ele>55.6</ele>
        <time>2021-05-27T11:58:40Z</time>
      </trkpt>
      <trkpt lat="47.70443" lon="-2.35729">
        <ele>55.6</ele>
        <time>2021-05-27T11:58:41Z</time>
      </trkpt>
      <trkpt lat="47.70447" lon="-2.35744">
        <ele>55.7</ele>
        <time>2021-05-27T12:02:43Z</time>
      </trkpt>
      <trkpt lat="47.70447" lon="-2.35752">
        <ele>55.4</ele>
        <time>2021-05-27T12:02:44Z</time>
      </trkpt>
      <trkpt lat="47.70446" lon="-2.3576">
        <ele>55.1</ele>
        <time>2021-05-27T12:02:45Z</time>
      </trkpt>
      <trkpt lat="47.70446" lon="-2.35765">
        <ele>54.9</ele>
        <time>2021-05-27T12:02:46Z</time>
      </trkpt>
      <trkpt lat="47.70446" lon="-2.3577">
        <ele>54.7</ele>
        <time>2021-05-27T12:02:47Z</time>
      </trkpt>
      <trkpt lat="47.70446" lon="-2.35774">
        <ele>54.6</ele>
        <time>2021-05-27T12:02:48Z</time>
      </trkpt>
      <trkpt lat="47.70446" lon="-2.35777">
        <ele>54.5</ele>
        <time>2021-05-27T12:02:49Z</time>
      </trkpt>
      <trkpt lat="47.70446" lon="-2.35779">
        <ele>54.4</ele>
        <time>2021-05-27T12:02:50Z</time>
      </trkpt>
      <trkpt lat="47.70446" lon="-2.35779">
        <ele>54.5</ele>
        <time>2021-05-27T12:02:51Z</time>
      </trkpt>
      <trkpt lat="47.70447" lon="-2.3578">
        <ele>54.6</ele>
        <time>2021-05-27T12:02:52Z</time>
      </trkpt>
      <trkpt lat="47.70447" lon="-2.3578">
        <ele>54.6</ele>
        <time>2021-05-27T12:02:53Z</time>
      </trkpt>
      <trkpt lat="47.70447" lon="-2.3578">
        <ele>54.6</ele>
        <time>2021-05-27T12:02:54Z</time>
      </trkpt>
      <trkpt lat="47.70447" lon="-2.3578">
        <ele>54.6</ele>
        <time>2021-05-27T12:02:55Z</time>
      </trkpt>
      <trkpt lat="47.70447" lon="-2.3578">
        <ele>54.6</ele>
        <time>2021-05-27T12:02:56Z</time>
      </trkpt>
      <trkpt lat="47.70447" lon="-2.3578">
        <ele>54.6</ele>
        <time>2021-05-27T12:02:57Z</time>
      </trkpt>
      <trkpt lat="47.70447" lon="-2.3578">
        <ele>54.6</ele>
        <time>2021-05-27T12:02:58Z</time>
      </trkpt>
      <trkpt lat="47.70447" lon="-2.3578">
        <ele>54.6</ele>
        <time>2021-05-27T12:02:59Z</time>
      </trkpt>
      <trkpt lat="47.70447" lon="-2.3578">
        <ele>54.6</ele>
        <time>2021-05-27T12:03:00Z</time>
      </trkpt>
      <trkpt lat="47.70447" lon="-2.3578">
        <ele>54.6</ele>
        <time>2021-05-27T12:03:01Z</time>
      </trkpt>
      <trkpt lat="47.70447" lon="-2.3578">
        <ele>54.6</ele>
        <time>2021-05-27T12:03:02Z</time>
      </trkpt>
      <trkpt lat="47.70447" lon="-2.3578">
        <ele>54.6</ele>
        <time>2021-05-27T12:03:03Z</time>
      </trkpt>
      <trkpt lat="47.70447" lon="-2.3578">
        <ele>54.6</ele>
        <time>2021-05-27T12:03:04Z</time>
      </trkpt>
      <trkpt lat="47.70447" lon="-2.3578">
        <ele>54.6</ele>
        <time>2021-05-27T12:03:05Z</time>
      </trkpt>
      <trkpt lat="47.70447" lon="-2.3578">
        <ele>54.6</ele>
        <time>2021-05-27T12:03:06Z</time>
      </trkpt>
      <trkpt lat="47.70447" lon="-2.3578">
        <ele>54.6</ele>
        <time>2021-05-27T12:03:07Z</time>
      </trkpt>
      <trkpt lat="47.70452" lon="-2.35791">
        <ele>55.3</ele>
        <time>2021-05-27T12:03:08Z</time>
      </trkpt>
      <trkpt lat="47.70453" lon="-2.35791">
        <ele>55.3</ele>
        <time>2021-05-27T12:03:09Z</time>
      </trkpt>
      <trkpt lat="47.70453" lon="-2.35792">
        <ele>55.3</ele>
        <time>2021-05-27T12:03:10Z</time>
      </trkpt>
      <trkpt lat="47.70453" lon="-2.35793">
        <ele>55.4</ele>
        <time>2021-05-27T12:03:11Z</time>
      </trkpt>
      <trkpt lat="47.70453" lon="-2.35793">
        <ele>55.4</ele>
        <time>2021-05-27T12:03:12Z</time>
      </trkpt>
      <trkpt lat="47.70453" lon="-2.35793">
        <ele>55.4</ele>
        <time>2021-05-27T12:03:13Z</time>
      </trkpt>
      <trkpt lat="47.70453" lon="-2.35793">
        <ele>55.4</ele>
        <time>2021-05-27T12:03:14Z</time>
      </trkpt>
      <trkpt lat="47.70453" lon="-2.35793">
        <ele>55.4</ele>
        <time>2021-05-27T12:03:15Z</time>
      </trkpt>
      <trkpt lat="47.70453" lon="-2.35793">
        <ele>55.4</ele>
        <time>2021-05-27T12:03:16Z</time>
      </trkpt>
      <trkpt lat="47.70453" lon="-2.35793">
        <ele>55.4</ele>
        <time>2021-05-27T12:03:17Z</time>
      </trkpt>
      <trkpt lat="47.70453" lon="-2.35793">
        <ele>55.4</ele>
        <time>2021-05-27T12:03:18Z</time>
      </trkpt>
      <trkpt lat="47.70453" lon="-2.35793">
        <ele>55.4</ele>
        <time>2021-05-27T12:03:19Z</time>
      </trkpt>
      <trkpt lat="47.70453" lon="-2.35793">
        <ele>55.4</ele>
        <time>2021-05-27T12:03:20Z</time>
      </trkpt>
      <trkpt lat="47.70453" lon="-2.35793">
        <ele>55.4</ele>
        <time>2021-05-27T12:03:21Z</time>
      </trkpt>
      <trkpt lat="47.70453" lon="-2.35793">
        <ele>55.4</ele>
        <time>2021-05-27T12:03:22Z</time>
      </trkpt>
      <trkpt lat="47.70453" lon="-2.35793">
        <ele>55.4</ele>
        <time>2021-05-27T12:03:23Z</time>
      </trkpt>
      <trkpt lat="47.70453" lon="-2.35793">
        <ele>55.4</ele>
        <time>2021-05-27T12:03:24Z</time>
      </trkpt>
      <trkpt lat="47.70453" lon="-2.35793">
        <ele>55.4</ele>
        <time>2021-05-27T12:03:25Z</time>
      </trkpt>
      <trkpt lat="47.70453" lon="-2.35793">
        <ele>55.4</ele>
        <time>2021-05-27T12:03:26Z</time>
      </trkpt>
      <trkpt lat="47.70459" lon="-2.35805">
        <ele>56</ele>
        <time>2021-05-27T12:03:27Z</time>
      </trkpt>
      <trkpt lat="47.7046" lon="-2.35808">
        <ele>56</ele>
        <time>2021-05-27T12:03:28Z</time>
      </trkpt>
      <trkpt lat="47.7046" lon="-2.3581">
        <ele>56</ele>
        <time>2021-05-27T12:03:29Z</time>
      </trkpt>
      <trkpt lat="47.7046" lon="-2.35815">
        <ele>55.9</ele>
        <time>2021-05-27T12:03:30Z</time>
      </trkpt>
      <trkpt lat="47.70461" lon="-2.3582">
        <ele>55.8</ele>
        <time>2021-05-27T12:03:31Z</time>
      </trkpt>
      <trkpt lat="47.70461" lon="-2.35823">
        <ele>55.8</ele>
        <time>2021-05-27T12:03:32Z</time>
      </trkpt>
      <trkpt lat="47.70462" lon="-2.35826">
        <ele>55.8</ele>
        <time>2021-05-27T12:03:33Z</time>
      </trkpt>
      <trkpt lat="47.70462" lon="-2.3583">
        <ele>55.8</ele>
        <time>2021-05-27T12:03:34Z</time>
      </trkpt>
      <trkpt lat="47.70463" lon="-2.35834">
        <ele>55.8</ele>
        <time>2021-05-27T12:03:35Z</time>
      </trkpt>
      <trkpt lat="47.70464" lon="-2.35837">
        <ele>55.8</ele>
        <time>2021-05-27T12:03:36Z</time>
      </trkpt>
      <trkpt lat="47.70464" lon="-2.35841">
        <ele>55.8</ele>
        <time>2021-05-27T12:03:37Z</time>
      </trkpt>
      <trkpt lat="47.70464" lon="-2.35845">
        <ele>55.8</ele>
        <time>2021-05-27T12:03:38Z</time>
      </trkpt>
      <trkpt lat="47.70465" lon="-2.35849">
        <ele>55.8</ele>
        <time>2021-05-27T12:03:39Z</time>
      </trkpt>
      <trkpt lat="47.70465" lon="-2.35854">
        <ele>55.8</ele>
        <time>2021-05-27T12:03:40Z</time>
      </trkpt>
      <trkpt lat="47.70465" lon="-2.35859">
        <ele>55.8</ele>
        <time>2021-05-27T12:03:41Z</time>
      </trkpt>
      <trkpt lat="47.70465" lon="-2.35864">
        <ele>55.7</ele>
        <time>2021-05-27T12:03:42Z</time>
      </trkpt>
      <trkpt lat="47.70465" lon="-2.35868">
        <ele>55.7</ele>
        <time>2021-05-27T12:03:43Z</time>
      </trkpt>
      <trkpt lat="47.70466" lon="-2.35873">
        <ele>55.8</ele>
        <time>2021-05-27T12:03:44Z</time>
      </trkpt>
      <trkpt lat="47.70468" lon="-2.35878">
        <ele>55.9</ele>
        <time>2021-05-27T12:03:45Z</time>
      </trkpt>
      <trkpt lat="47.7047" lon="-2.35884">
        <ele>56.2</ele>
        <time>2021-05-27T12:03:46Z</time>
      </trkpt>
      <trkpt lat="47.70472" lon="-2.35889">
        <ele>56.3</ele>
        <time>2021-05-27T12:03:47Z</time>
      </trkpt>
      <trkpt lat="47.70473" lon="-2.35895">
        <ele>56.4</ele>
        <time>2021-05-27T12:03:48Z</time>
      </trkpt>
      <trkpt lat="47.70473" lon="-2.359">
        <ele>56.4</ele>
        <time>2021-05-27T12:03:49Z</time>
      </trkpt>
      <trkpt lat="47.70473" lon="-2.35904">
        <ele>56.3</ele>
        <time>2021-05-27T12:03:50Z</time>
      </trkpt>
      <trkpt lat="47.70474" lon="-2.3591">
        <ele>56.3</ele>
        <time>2021-05-27T12:03:51Z</time>
      </trkpt>
      <trkpt lat="47.70474" lon="-2.35914">
        <ele>56.4</ele>
        <time>2021-05-27T12:03:52Z</time>
      </trkpt>
      <trkpt lat="47.70475" lon="-2.35918">
        <ele>56.3</ele>
        <time>2021-05-27T12:03:53Z</time>
      </trkpt>
      <trkpt lat="47.70475" lon="-2.35923">
        <ele>56.3</ele>
        <time>2021-05-27T12:03:54Z</time>
      </trkpt>
      <trkpt lat="47.70475" lon="-2.35926">
        <ele>56.2</ele>
        <time>2021-05-27T12:03:55Z</time>
      </trkpt>
      <trkpt lat="47.70475" lon="-2.35929">
        <ele>56.2</ele>
        <time>2021-05-27T12:03:56Z</time>
      </trkpt>
      <trkpt lat="47.70475" lon="-2.35931">
        <ele>56.2</ele>
        <time>2021-05-27T12:03:57Z</time>
      </trkpt>
      <trkpt lat="47.70475" lon="-2.35935">
        <ele>56.1</ele>
        <time>2021-05-27T12:03:58Z</time>
      </trkpt>
      <trkpt lat="47.70476" lon="-2.3594">
        <ele>56.2</ele>
        <time>2021-05-27T12:03:59Z</time>
      </trkpt>
      <trkpt lat="47.70477" lon="-2.35945">
        <ele>56.2</ele>
        <time>2021-05-27T12:04:00Z</time>
      </trkpt>
      <trkpt lat="47.70477" lon="-2.3595">
        <ele>56.1</ele>
        <time>2021-05-27T12:04:01Z</time>
      </trkpt>
      <trkpt lat="47.70477" lon="-2.35955">
        <ele>56.1</ele>
        <time>2021-05-27T12:04:02Z</time>
      </trkpt>
      <trkpt lat="47.70479" lon="-2.3596">
        <ele>56.2</ele>
        <time>2021-05-27T12:04:03Z</time>
      </trkpt>
      <trkpt lat="47.70479" lon="-2.35965">
        <ele>56.2</ele>
        <time>2021-05-27T12:04:04Z</time>
      </trkpt>
      <trkpt lat="47.70481" lon="-2.3597">
        <ele>56.3</ele>
        <time>2021-05-27T12:04:05Z</time>
      </trkpt>
      <trkpt lat="47.70482" lon="-2.35974">
        <ele>56.3</ele>
        <time>2021-05-27T12:04:06Z</time>
      </trkpt>
      <trkpt lat="47.70483" lon="-2.35978">
        <ele>56.3</ele>
        <time>2021-05-27T12:04:07Z</time>
      </trkpt>
      <trkpt lat="47.70484" lon="-2.35982">
        <ele>56.4</ele>
        <time>2021-05-27T12:04:08Z</time>
      </trkpt>
      <trkpt lat="47.70485" lon="-2.35986">
        <ele>56.5</ele>
        <time>2021-05-27T12:04:09Z</time>
      </trkpt>
      <trkpt lat="47.70488" lon="-2.35991">
        <ele>56.8</ele>
        <time>2021-05-27T12:04:10Z</time>
      </trkpt>
      <trkpt lat="47.70491" lon="-2.35993">
        <ele>57</ele>
        <time>2021-05-27T12:04:11Z</time>
      </trkpt>
      <trkpt lat="47.70492" lon="-2.35996">
        <ele>57.2</ele>
        <time>2021-05-27T12:04:12Z</time>
      </trkpt>
      <trkpt lat="47.70495" lon="-2.35999">
        <ele>57.4</ele>
        <time>2021-05-27T12:04:13Z</time>
      </trkpt>
      <trkpt lat="47.70497" lon="-2.36003">
        <ele>57.6</ele>
        <time>2021-05-27T12:04:14Z</time>
      </trkpt>
      <trkpt lat="47.70498" lon="-2.36008">
        <ele>57.8</ele>
        <time>2021-05-27T12:04:15Z</time>
      </trkpt>
      <trkpt lat="47.70499" lon="-2.36012">
        <ele>57.9</ele>
        <time>2021-05-27T12:04:16Z</time>
      </trkpt>
      <trkpt lat="47.70501" lon="-2.36015">
        <ele>58.1</ele>
        <time>2021-05-27T12:04:17Z</time>
      </trkpt>
      <trkpt lat="47.70501" lon="-2.36018">
        <ele>58.2</ele>
        <time>2021-05-27T12:04:18Z</time>
      </trkpt>
      <trkpt lat="47.70502" lon="-2.3602">
        <ele>58.4</ele>
        <time>2021-05-27T12:04:19Z</time>
      </trkpt>
      <trkpt lat="47.70504" lon="-2.36021">
        <ele>58.7</ele>
        <time>2021-05-27T12:04:20Z</time>
      </trkpt>
      <trkpt lat="47.70504" lon="-2.36024">
        <ele>58.7</ele>
        <time>2021-05-27T12:04:21Z</time>
      </trkpt>
      <trkpt lat="47.70505" lon="-2.36025">
        <ele>58.9</ele>
        <time>2021-05-27T12:04:22Z</time>
      </trkpt>
      <trkpt lat="47.70507" lon="-2.36027">
        <ele>59.3</ele>
        <time>2021-05-27T12:04:23Z</time>
      </trkpt>
      <trkpt lat="47.7051" lon="-2.36029">
        <ele>59.8</ele>
        <time>2021-05-27T12:04:24Z</time>
      </trkpt>
      <trkpt lat="47.70513" lon="-2.3603">
        <ele>60.3</ele>
        <time>2021-05-27T12:04:25Z</time>
      </trkpt>
      <trkpt lat="47.70515" lon="-2.36033">
        <ele>60.8</ele>
        <time>2021-05-27T12:04:26Z</time>
      </trkpt>
      <trkpt lat="47.70518" lon="-2.36035">
        <ele>61.3</ele>
        <time>2021-05-27T12:04:27Z</time>
      </trkpt>
      <trkpt lat="47.70521" lon="-2.36037">
        <ele>61.8</ele>
        <time>2021-05-27T12:04:28Z</time>
      </trkpt>
      <trkpt lat="47.70523" lon="-2.36041">
        <ele>62.1</ele>
        <time>2021-05-27T12:04:29Z</time>
      </trkpt>
      <trkpt lat="47.70525" lon="-2.36045">
        <ele>62.3</ele>
        <time>2021-05-27T12:04:30Z</time>
      </trkpt>
      <trkpt lat="47.70527" lon="-2.36049">
        <ele>62.6</ele>
        <time>2021-05-27T12:04:31Z</time>
      </trkpt>
      <trkpt lat="47.70528" lon="-2.36054">
        <ele>62.8</ele>
        <time>2021-05-27T12:04:32Z</time>
      </trkpt>
      <trkpt lat="47.7053" lon="-2.36058">
        <ele>62.9</ele>
        <time>2021-05-27T12:04:33Z</time>
      </trkpt>
      <trkpt lat="47.70531" lon="-2.36063">
        <ele>63.1</ele>
        <time>2021-05-27T12:04:34Z</time>
      </trkpt>
      <trkpt lat="47.70533" lon="-2.36068">
        <ele>63.3</ele>
        <time>2021-05-27T12:04:35Z</time>
      </trkpt>
      <trkpt lat="47.70534" lon="-2.36073">
        <ele>63.4</ele>
        <time>2021-05-27T12:04:36Z</time>
      </trkpt>
      <trkpt lat="47.70534" lon="-2.36079">
        <ele>63.4</ele>
        <time>2021-05-27T12:04:37Z</time>
      </trkpt>
      <trkpt lat="47.70535" lon="-2.36084">
        <ele>63.4</ele>
        <time>2021-05-27T12:04:38Z</time>
      </trkpt>
      <trkpt lat="47.70536" lon="-2.36089">
        <ele>63.5</ele>
        <time>2021-05-27T12:04:39Z</time>
      </trkpt>
      <trkpt lat="47.70537" lon="-2.36094">
        <ele>63.6</ele>
        <time>2021-05-27T12:04:40Z</time>
      </trkpt>
      <trkpt lat="47.70538" lon="-2.36099">
        <ele>63.6</ele>
        <time>2021-05-27T12:04:41Z</time>
      </trkpt>
      <trkpt lat="47.70539" lon="-2.36104">
        <ele>63.7</ele>
        <time>2021-05-27T12:04:42Z</time>
      </trkpt>
      <trkpt lat="47.7054" lon="-2.36109">
        <ele>63.6</ele>
        <time>2021-05-27T12:04:43Z</time>
      </trkpt>
      <trkpt lat="47.70541" lon="-2.36114">
        <ele>63.6</ele>
        <time>2021-05-27T12:04:44Z</time>
      </trkpt>
      <trkpt lat="47.70542" lon="-2.3612">
        <ele>63.6</ele>
        <time>2021-05-27T12:04:45Z</time>
      </trkpt>
      <trkpt lat="47.70542" lon="-2.36125">
        <ele>63.6</ele>
        <time>2021-05-27T12:04:46Z</time>
      </trkpt>
      <trkpt lat="47.70544" lon="-2.36131">
        <ele>63.6</ele>
        <time>2021-05-27T12:04:47Z</time>
      </trkpt>
      <trkpt lat="47.70545" lon="-2.36136">
        <ele>63.7</ele>
        <time>2021-05-27T12:04:48Z</time>
      </trkpt>
      <trkpt lat="47.70545" lon="-2.36142">
        <ele>63.6</ele>
        <time>2021-05-27T12:04:49Z</time>
      </trkpt>
      <trkpt lat="47.70545" lon="-2.36147">
        <ele>63.5</ele>
        <time>2021-05-27T12:04:50Z</time>
      </trkpt>
      <trkpt lat="47.70546" lon="-2.36153">
        <ele>63.4</ele>
        <time>2021-05-27T12:04:51Z</time>
      </trkpt>
      <trkpt lat="47.70547" lon="-2.36158">
        <ele>63.4</ele>
        <time>2021-05-27T12:04:52Z</time>
      </trkpt>
      <trkpt lat="47.70548" lon="-2.36164">
        <ele>63.4</ele>
        <time>2021-05-27T12:04:53Z</time>
      </trkpt>
      <trkpt lat="47.70548" lon="-2.36169">
        <ele>63.3</ele>
        <time>2021-05-27T12:04:54Z</time>
      </trkpt>
      <trkpt lat="47.7055" lon="-2.36174">
        <ele>63.4</ele>
        <time>2021-05-27T12:04:55Z</time>
      </trkpt>
      <trkpt lat="47.70552" lon="-2.36178">
        <ele>63.6</ele>
        <time>2021-05-27T12:04:56Z</time>
      </trkpt>
      <trkpt lat="47.70553" lon="-2.36185">
        <ele>63.6</ele>
        <time>2021-05-27T12:04:57Z</time>
      </trkpt>
      <trkpt lat="47.70554" lon="-2.36193">
        <ele>63.5</ele>
        <time>2021-05-27T12:04:58Z</time>
      </trkpt>
      <trkpt lat="47.70555" lon="-2.362">
        <ele>63.5</ele>
        <time>2021-05-27T12:04:59Z</time>
      </trkpt>
      <trkpt lat="47.70557" lon="-2.36206">
        <ele>63.6</ele>
        <time>2021-05-27T12:05:00Z</time>
      </trkpt>
      <trkpt lat="47.70558" lon="-2.36215">
        <ele>63.5</ele>
        <time>2021-05-27T12:05:01Z</time>
      </trkpt>
      <trkpt lat="47.70559" lon="-2.36222">
        <ele>63.5</ele>
        <time>2021-05-27T12:05:02Z</time>
      </trkpt>
      <trkpt lat="47.7056" lon="-2.3623">
        <ele>63.4</ele>
        <time>2021-05-27T12:05:03Z</time>
      </trkpt>
      <trkpt lat="47.7056" lon="-2.36238">
        <ele>63.2</ele>
        <time>2021-05-27T12:05:04Z</time>
      </trkpt>
      <trkpt lat="47.70561" lon="-2.36246">
        <ele>63.1</ele>
        <time>2021-05-27T12:05:05Z</time>
      </trkpt>
      <trkpt lat="47.70559" lon="-2.36253">
        <ele>62.7</ele>
        <time>2021-05-27T12:05:06Z</time>
      </trkpt>
      <trkpt lat="47.70559" lon="-2.36261">
        <ele>62.6</ele>
        <time>2021-05-27T12:05:07Z</time>
      </trkpt>
      <trkpt lat="47.7056" lon="-2.36268">
        <ele>62.5</ele>
        <time>2021-05-27T12:05:08Z</time>
      </trkpt>
      <trkpt lat="47.70561" lon="-2.36276">
        <ele>62.5</ele>
        <time>2021-05-27T12:05:09Z</time>
      </trkpt>
      <trkpt lat="47.70562" lon="-2.36284">
        <ele>62.5</ele>
        <time>2021-05-27T12:05:10Z</time>
      </trkpt>
      <trkpt lat="47.70563" lon="-2.36291">
        <ele>62.5</ele>
        <time>2021-05-27T12:05:11Z</time>
      </trkpt>
      <trkpt lat="47.70565" lon="-2.36298">
        <ele>62.6</ele>
        <time>2021-05-27T12:05:12Z</time>
      </trkpt>
      <trkpt lat="47.70567" lon="-2.36305">
        <ele>62.7</ele>
        <time>2021-05-27T12:05:13Z</time>
      </trkpt>
      <trkpt lat="47.70569" lon="-2.36311">
        <ele>62.9</ele>
        <time>2021-05-27T12:05:14Z</time>
      </trkpt>
      <trkpt lat="47.7057" lon="-2.36318">
        <ele>63.1</ele>
        <time>2021-05-27T12:05:15Z</time>
      </trkpt>
      <trkpt lat="47.70573" lon="-2.36324">
        <ele>63.4</ele>
        <time>2021-05-27T12:05:16Z</time>
      </trkpt>
      <trkpt lat="47.70575" lon="-2.3633">
        <ele>63.6</ele>
        <time>2021-05-27T12:05:17Z</time>
      </trkpt>
      <trkpt lat="47.70576" lon="-2.36337">
        <ele>63.6</ele>
        <time>2021-05-27T12:05:18Z</time>
      </trkpt>
      <trkpt lat="47.70577" lon="-2.36344">
        <ele>63.5</ele>
        <time>2021-05-27T12:05:19Z</time>
      </trkpt>
      <trkpt lat="47.70578" lon="-2.3635">
        <ele>63.5</ele>
        <time>2021-05-27T12:05:20Z</time>
      </trkpt>
      <trkpt lat="47.7058" lon="-2.36357">
        <ele>63.6</ele>
        <time>2021-05-27T12:05:21Z</time>
      </trkpt>
      <trkpt lat="47.70581" lon="-2.36364">
        <ele>63.5</ele>
        <time>2021-05-27T12:05:22Z</time>
      </trkpt>
      <trkpt lat="47.70582" lon="-2.36372">
        <ele>63.4</ele>
        <time>2021-05-27T12:05:23Z</time>
      </trkpt>
      <trkpt lat="47.70584" lon="-2.3638">
        <ele>63.4</ele>
        <time>2021-05-27T12:05:24Z</time>
      </trkpt>
      <trkpt lat="47.70585" lon="-2.36387">
        <ele>63.3</ele>
        <time>2021-05-27T12:05:25Z</time>
      </trkpt>
      <trkpt lat="47.70586" lon="-2.36394">
        <ele>63.1</ele>
        <time>2021-05-27T12:05:26Z</time>
      </trkpt>
      <trkpt lat="47.70587" lon="-2.36402">
        <ele>63</ele>
        <time>2021-05-27T12:05:27Z</time>
      </trkpt>
      <trkpt lat="47.70588" lon="-2.36409">
        <ele>63</ele>
        <time>2021-05-27T12:05:28Z</time>
      </trkpt>
      <trkpt lat="47.7059" lon="-2.36416">
        <ele>62.9</ele>
        <time>2021-05-27T12:05:29Z</time>
      </trkpt>
      <trkpt lat="47.70591" lon="-2.36422">
        <ele>63</ele>
        <time>2021-05-27T12:05:30Z</time>
      </trkpt>
      <trkpt lat="47.70593" lon="-2.36427">
        <ele>63.2</ele>
        <time>2021-05-27T12:05:31Z</time>
      </trkpt>
      <trkpt lat="47.70594" lon="-2.36433">
        <ele>63.2</ele>
        <time>2021-05-27T12:05:32Z</time>
      </trkpt>
      <trkpt lat="47.70595" lon="-2.36439">
        <ele>63.2</ele>
        <time>2021-05-27T12:05:33Z</time>
      </trkpt>
      <trkpt lat="47.70597" lon="-2.36443">
        <ele>63.4</ele>
        <time>2021-05-27T12:05:34Z</time>
      </trkpt>
      <trkpt lat="47.70598" lon="-2.36447">
        <ele>63.4</ele>
        <time>2021-05-27T12:05:35Z</time>
      </trkpt>
      <trkpt lat="47.706" lon="-2.36453">
        <ele>63.5</ele>
        <time>2021-05-27T12:05:36Z</time>
      </trkpt>
      <trkpt lat="47.70601" lon="-2.36459">
        <ele>63.6</ele>
        <time>2021-05-27T12:05:37Z</time>
      </trkpt>
      <trkpt lat="47.70602" lon="-2.36466">
        <ele>63.7</ele>
        <time>2021-05-27T12:05:38Z</time>
      </trkpt>
      <trkpt lat="47.70604" lon="-2.36474">
        <ele>63.8</ele>
        <time>2021-05-27T12:05:39Z</time>
      </trkpt>
      <trkpt lat="47.70606" lon="-2.36481">
        <ele>63.9</ele>
        <time>2021-05-27T12:05:40Z</time>
      </trkpt>
      <trkpt lat="47.70607" lon="-2.36488">
        <ele>63.9</ele>
        <time>2021-05-27T12:05:41Z</time>
      </trkpt>
      <trkpt lat="47.70608" lon="-2.36494">
        <ele>64</ele>
        <time>2021-05-27T12:05:42Z</time>
      </trkpt>
      <trkpt lat="47.7061" lon="-2.36501">
        <ele>64.1</ele>
        <time>2021-05-27T12:05:43Z</time>
      </trkpt>
      <trkpt lat="47.70611" lon="-2.36507">
        <ele>64.3</ele>
        <time>2021-05-27T12:05:44Z</time>
      </trkpt>
      <trkpt lat="47.70612" lon="-2.36513">
        <ele>64.3</ele>
        <time>2021-05-27T12:05:45Z</time>
      </trkpt>
      <trkpt lat="47.70614" lon="-2.36518">
        <ele>64.5</ele>
        <time>2021-05-27T12:05:46Z</time>
      </trkpt>
      <trkpt lat="47.70616" lon="-2.36524">
        <ele>64.8</ele>
        <time>2021-05-27T12:05:47Z</time>
      </trkpt>
      <trkpt lat="47.70616" lon="-2.3653">
        <ele>64.8</ele>
        <time>2021-05-27T12:05:48Z</time>
      </trkpt>
      <trkpt lat="47.70618" lon="-2.36535">
        <ele>64.9</ele>
        <time>2021-05-27T12:05:49Z</time>
      </trkpt>
      <trkpt lat="47.70619" lon="-2.36541">
        <ele>65</ele>
        <time>2021-05-27T12:05:50Z</time>
      </trkpt>
      <trkpt lat="47.7062" lon="-2.36547">
        <ele>65.2</ele>
        <time>2021-05-27T12:05:51Z</time>
      </trkpt>
      <trkpt lat="47.70621" lon="-2.36553">
        <ele>65.3</ele>
        <time>2021-05-27T12:05:52Z</time>
      </trkpt>
      <trkpt lat="47.70622" lon="-2.36558">
        <ele>65.3</ele>
        <time>2021-05-27T12:05:53Z</time>
      </trkpt>
      <trkpt lat="47.70623" lon="-2.36563">
        <ele>65.4</ele>
        <time>2021-05-27T12:05:54Z</time>
      </trkpt>
      <trkpt lat="47.70625" lon="-2.36567">
        <ele>65.6</ele>
        <time>2021-05-27T12:05:55Z</time>
      </trkpt>
      <trkpt lat="47.70626" lon="-2.36568">
        <ele>65.8</ele>
        <time>2021-05-27T12:05:56Z</time>
      </trkpt>
      <trkpt lat="47.70627" lon="-2.36567">
        <ele>66.1</ele>
        <time>2021-05-27T12:05:57Z</time>
      </trkpt>
    </trkseg>
  </trk>
</gpx>